<?xml version="1.0" encoding="UTF-8" standalone="no" ?>
<gpx xmlns="http://www.topografix.com/GPX/1/1" xmlns:xsi="http://www.w3.org/2001/XMLSchema-instance" xsi:schemaLocation="http://www.topografix.com/GPX/1/1 http://www.topografix.com/GPX/1/1/gpx.xsd" version="1.1" creator="VisuGPX - https://www.visugpx.com">
  <metadata>
    <name>raquettes a payoles</name>
    <desc><![CDATA[payoles par une journée ensoleillée]]></desc>
  </metadata>
  <trk>
    <name><![CDATA[raquettes a payoles_1]]></name>
    <trkseg>
      <trkpt lat="42.9369" lon="0.28858">
        <ele>1377</ele>
        <time>2017-02-09T09:22:00.000Z</time>
      </trkpt>
      <trkpt lat="42.9369" lon="0.28858">
        <ele>1121</ele>
        <time>2017-02-09T09:22:01.000Z</time>
      </trkpt>
      <trkpt lat="42.9369" lon="0.28858">
        <ele>1124</ele>
        <time>2017-02-09T09:22:02.000Z</time>
      </trkpt>
      <trkpt lat="42.93689" lon="0.28858">
        <ele>1124</ele>
        <time>2017-02-09T09:22:03.000Z</time>
      </trkpt>
      <trkpt lat="42.93689" lon="0.28857">
        <ele>1124</ele>
        <time>2017-02-09T09:22:04.000Z</time>
      </trkpt>
      <trkpt lat="42.93689" lon="0.28857">
        <ele>1124</ele>
        <time>2017-02-09T09:22:05.000Z</time>
      </trkpt>
      <trkpt lat="42.93689" lon="0.28857">
        <ele>1125</ele>
        <time>2017-02-09T09:22:06.000Z</time>
      </trkpt>
      <trkpt lat="42.93688" lon="0.28857">
        <ele>1125</ele>
        <time>2017-02-09T09:22:07.000Z</time>
      </trkpt>
      <trkpt lat="42.93688" lon="0.28858">
        <ele>1125</ele>
        <time>2017-02-09T09:22:08.000Z</time>
      </trkpt>
      <trkpt lat="42.93688" lon="0.28859">
        <ele>1125</ele>
        <time>2017-02-09T09:22:09.000Z</time>
      </trkpt>
      <trkpt lat="42.93687" lon="0.2886">
        <ele>1125</ele>
        <time>2017-02-09T09:22:10.000Z</time>
      </trkpt>
      <trkpt lat="42.93687" lon="0.28861">
        <ele>1125</ele>
        <time>2017-02-09T09:22:11.000Z</time>
      </trkpt>
      <trkpt lat="42.93686" lon="0.28862">
        <ele>1125</ele>
        <time>2017-02-09T09:22:12.000Z</time>
      </trkpt>
      <trkpt lat="42.93685" lon="0.28863">
        <ele>1125</ele>
        <time>2017-02-09T09:22:13.000Z</time>
      </trkpt>
      <trkpt lat="42.93685" lon="0.28864">
        <ele>1125</ele>
        <time>2017-02-09T09:22:14.000Z</time>
      </trkpt>
      <trkpt lat="42.93684" lon="0.28865">
        <ele>1126</ele>
        <time>2017-02-09T09:22:15.000Z</time>
      </trkpt>
      <trkpt lat="42.93683" lon="0.28865">
        <ele>1127</ele>
        <time>2017-02-09T09:22:16.000Z</time>
      </trkpt>
      <trkpt lat="42.93682" lon="0.28864">
        <ele>1129</ele>
        <time>2017-02-09T09:22:17.000Z</time>
      </trkpt>
      <trkpt lat="42.9368" lon="0.28864">
        <ele>1129</ele>
        <time>2017-02-09T09:22:18.000Z</time>
      </trkpt>
      <trkpt lat="42.93679" lon="0.28864">
        <ele>1130</ele>
        <time>2017-02-09T09:22:19.000Z</time>
      </trkpt>
      <trkpt lat="42.93678" lon="0.28865">
        <ele>1130</ele>
        <time>2017-02-09T09:22:20.000Z</time>
      </trkpt>
      <trkpt lat="42.93677" lon="0.28865">
        <ele>1131</ele>
        <time>2017-02-09T09:22:21.000Z</time>
      </trkpt>
      <trkpt lat="42.93676" lon="0.28866">
        <ele>1133</ele>
        <time>2017-02-09T09:22:22.000Z</time>
      </trkpt>
      <trkpt lat="42.93674" lon="0.28867">
        <ele>1134</ele>
        <time>2017-02-09T09:22:23.000Z</time>
      </trkpt>
      <trkpt lat="42.93673" lon="0.28868">
        <ele>1135</ele>
        <time>2017-02-09T09:22:24.000Z</time>
      </trkpt>
      <trkpt lat="42.93671" lon="0.28869">
        <ele>1136</ele>
        <time>2017-02-09T09:22:25.000Z</time>
      </trkpt>
      <trkpt lat="42.9367" lon="0.28869">
        <ele>1137</ele>
        <time>2017-02-09T09:22:26.000Z</time>
      </trkpt>
      <trkpt lat="42.93669" lon="0.2887">
        <ele>1137</ele>
        <time>2017-02-09T09:22:27.000Z</time>
      </trkpt>
      <trkpt lat="42.93668" lon="0.28871">
        <ele>1137</ele>
        <time>2017-02-09T09:22:28.000Z</time>
      </trkpt>
      <trkpt lat="42.93667" lon="0.28872">
        <ele>1137</ele>
        <time>2017-02-09T09:22:29.000Z</time>
      </trkpt>
      <trkpt lat="42.93666" lon="0.28872">
        <ele>1137</ele>
        <time>2017-02-09T09:22:30.000Z</time>
      </trkpt>
      <trkpt lat="42.93666" lon="0.28873">
        <ele>1137</ele>
        <time>2017-02-09T09:22:31.000Z</time>
      </trkpt>
      <trkpt lat="42.93665" lon="0.28874">
        <ele>1137</ele>
        <time>2017-02-09T09:22:32.000Z</time>
      </trkpt>
      <trkpt lat="42.93664" lon="0.28875">
        <ele>1137</ele>
        <time>2017-02-09T09:22:33.000Z</time>
      </trkpt>
      <trkpt lat="42.93663" lon="0.28875">
        <ele>1137</ele>
        <time>2017-02-09T09:22:34.000Z</time>
      </trkpt>
      <trkpt lat="42.93663" lon="0.28876">
        <ele>1137</ele>
        <time>2017-02-09T09:22:35.000Z</time>
      </trkpt>
      <trkpt lat="42.93662" lon="0.28877">
        <ele>1137</ele>
        <time>2017-02-09T09:22:36.000Z</time>
      </trkpt>
      <trkpt lat="42.93662" lon="0.28878">
        <ele>1137</ele>
        <time>2017-02-09T09:22:37.000Z</time>
      </trkpt>
      <trkpt lat="42.93661" lon="0.28879">
        <ele>1137</ele>
        <time>2017-02-09T09:22:38.000Z</time>
      </trkpt>
      <trkpt lat="42.9366" lon="0.2888">
        <ele>1137</ele>
        <time>2017-02-09T09:22:39.000Z</time>
      </trkpt>
      <trkpt lat="42.9366" lon="0.2888">
        <ele>1137</ele>
        <time>2017-02-09T09:22:40.000Z</time>
      </trkpt>
      <trkpt lat="42.93659" lon="0.28881">
        <ele>1137</ele>
        <time>2017-02-09T09:22:41.000Z</time>
      </trkpt>
      <trkpt lat="42.93659" lon="0.28882">
        <ele>1137</ele>
        <time>2017-02-09T09:22:42.000Z</time>
      </trkpt>
      <trkpt lat="42.93658" lon="0.28883">
        <ele>1137</ele>
        <time>2017-02-09T09:22:43.000Z</time>
      </trkpt>
      <trkpt lat="42.93658" lon="0.28884">
        <ele>1138</ele>
        <time>2017-02-09T09:22:44.000Z</time>
      </trkpt>
      <trkpt lat="42.93657" lon="0.28885">
        <ele>1138</ele>
        <time>2017-02-09T09:22:45.000Z</time>
      </trkpt>
      <trkpt lat="42.93656" lon="0.28886">
        <ele>1138</ele>
        <time>2017-02-09T09:22:46.000Z</time>
      </trkpt>
      <trkpt lat="42.93656" lon="0.28887">
        <ele>1138</ele>
        <time>2017-02-09T09:22:47.000Z</time>
      </trkpt>
      <trkpt lat="42.93655" lon="0.28887">
        <ele>1138</ele>
        <time>2017-02-09T09:22:48.000Z</time>
      </trkpt>
      <trkpt lat="42.93655" lon="0.28888">
        <ele>1138</ele>
        <time>2017-02-09T09:22:49.000Z</time>
      </trkpt>
      <trkpt lat="42.93654" lon="0.28889">
        <ele>1138</ele>
        <time>2017-02-09T09:22:50.000Z</time>
      </trkpt>
      <trkpt lat="42.93654" lon="0.2889">
        <ele>1138</ele>
        <time>2017-02-09T09:22:51.000Z</time>
      </trkpt>
      <trkpt lat="42.93653" lon="0.28891">
        <ele>1138</ele>
        <time>2017-02-09T09:22:52.000Z</time>
      </trkpt>
      <trkpt lat="42.93653" lon="0.28892">
        <ele>1138</ele>
        <time>2017-02-09T09:22:53.000Z</time>
      </trkpt>
      <trkpt lat="42.93652" lon="0.28893">
        <ele>1138</ele>
        <time>2017-02-09T09:22:54.000Z</time>
      </trkpt>
      <trkpt lat="42.93651" lon="0.28894">
        <ele>1138</ele>
        <time>2017-02-09T09:22:55.000Z</time>
      </trkpt>
      <trkpt lat="42.93651" lon="0.28895">
        <ele>1138</ele>
        <time>2017-02-09T09:22:56.000Z</time>
      </trkpt>
      <trkpt lat="42.9365" lon="0.28896">
        <ele>1138</ele>
        <time>2017-02-09T09:22:57.000Z</time>
      </trkpt>
      <trkpt lat="42.9365" lon="0.28897">
        <ele>1138</ele>
        <time>2017-02-09T09:22:58.000Z</time>
      </trkpt>
      <trkpt lat="42.93649" lon="0.28898">
        <ele>1138</ele>
        <time>2017-02-09T09:22:59.000Z</time>
      </trkpt>
      <trkpt lat="42.93649" lon="0.28899">
        <ele>1138</ele>
        <time>2017-02-09T09:23:00.000Z</time>
      </trkpt>
      <trkpt lat="42.93648" lon="0.28899">
        <ele>1138</ele>
        <time>2017-02-09T09:23:01.000Z</time>
      </trkpt>
      <trkpt lat="42.93648" lon="0.289">
        <ele>1138</ele>
        <time>2017-02-09T09:23:02.000Z</time>
      </trkpt>
      <trkpt lat="42.93647" lon="0.28901">
        <ele>1138</ele>
        <time>2017-02-09T09:23:03.000Z</time>
      </trkpt>
      <trkpt lat="42.93647" lon="0.28902">
        <ele>1138</ele>
        <time>2017-02-09T09:23:04.000Z</time>
      </trkpt>
      <trkpt lat="42.93646" lon="0.28903">
        <ele>1138</ele>
        <time>2017-02-09T09:23:05.000Z</time>
      </trkpt>
      <trkpt lat="42.93646" lon="0.28904">
        <ele>1138</ele>
        <time>2017-02-09T09:23:06.000Z</time>
      </trkpt>
      <trkpt lat="42.93645" lon="0.28905">
        <ele>1138</ele>
        <time>2017-02-09T09:23:07.000Z</time>
      </trkpt>
      <trkpt lat="42.93644" lon="0.28906">
        <ele>1138</ele>
        <time>2017-02-09T09:23:08.000Z</time>
      </trkpt>
      <trkpt lat="42.93644" lon="0.28907">
        <ele>1138</ele>
        <time>2017-02-09T09:23:09.000Z</time>
      </trkpt>
      <trkpt lat="42.93643" lon="0.28908">
        <ele>1138</ele>
        <time>2017-02-09T09:23:10.000Z</time>
      </trkpt>
      <trkpt lat="42.93643" lon="0.28909">
        <ele>1138</ele>
        <time>2017-02-09T09:23:11.000Z</time>
      </trkpt>
      <trkpt lat="42.93642" lon="0.2891">
        <ele>1138</ele>
        <time>2017-02-09T09:23:12.000Z</time>
      </trkpt>
      <trkpt lat="42.93642" lon="0.28911">
        <ele>1138</ele>
        <time>2017-02-09T09:23:13.000Z</time>
      </trkpt>
      <trkpt lat="42.93641" lon="0.28912">
        <ele>1138</ele>
        <time>2017-02-09T09:23:14.000Z</time>
      </trkpt>
      <trkpt lat="42.93641" lon="0.28913">
        <ele>1138</ele>
        <time>2017-02-09T09:23:15.000Z</time>
      </trkpt>
      <trkpt lat="42.9364" lon="0.28914">
        <ele>1138</ele>
        <time>2017-02-09T09:23:16.000Z</time>
      </trkpt>
      <trkpt lat="42.93639" lon="0.28915">
        <ele>1138</ele>
        <time>2017-02-09T09:23:17.000Z</time>
      </trkpt>
      <trkpt lat="42.93639" lon="0.28915">
        <ele>1138</ele>
        <time>2017-02-09T09:23:18.000Z</time>
      </trkpt>
      <trkpt lat="42.93638" lon="0.28916">
        <ele>1138</ele>
        <time>2017-02-09T09:23:19.000Z</time>
      </trkpt>
      <trkpt lat="42.93638" lon="0.28917">
        <ele>1138</ele>
        <time>2017-02-09T09:23:20.000Z</time>
      </trkpt>
      <trkpt lat="42.93637" lon="0.28918">
        <ele>1138</ele>
        <time>2017-02-09T09:23:21.000Z</time>
      </trkpt>
      <trkpt lat="42.93637" lon="0.28919">
        <ele>1138</ele>
        <time>2017-02-09T09:23:22.000Z</time>
      </trkpt>
      <trkpt lat="42.93636" lon="0.2892">
        <ele>1138</ele>
        <time>2017-02-09T09:23:23.000Z</time>
      </trkpt>
      <trkpt lat="42.93635" lon="0.28921">
        <ele>1138</ele>
        <time>2017-02-09T09:23:24.000Z</time>
      </trkpt>
      <trkpt lat="42.93635" lon="0.28922">
        <ele>1138</ele>
        <time>2017-02-09T09:23:25.000Z</time>
      </trkpt>
      <trkpt lat="42.93634" lon="0.28923">
        <ele>1138</ele>
        <time>2017-02-09T09:23:26.000Z</time>
      </trkpt>
      <trkpt lat="42.93634" lon="0.28924">
        <ele>1137</ele>
        <time>2017-02-09T09:23:27.000Z</time>
      </trkpt>
      <trkpt lat="42.93633" lon="0.28924">
        <ele>1138</ele>
        <time>2017-02-09T09:23:28.000Z</time>
      </trkpt>
      <trkpt lat="42.93632" lon="0.28925">
        <ele>1138</ele>
        <time>2017-02-09T09:23:29.000Z</time>
      </trkpt>
      <trkpt lat="42.93632" lon="0.28926">
        <ele>1137</ele>
        <time>2017-02-09T09:23:30.000Z</time>
      </trkpt>
      <trkpt lat="42.93631" lon="0.28927">
        <ele>1137</ele>
        <time>2017-02-09T09:23:31.000Z</time>
      </trkpt>
      <trkpt lat="42.93631" lon="0.28928">
        <ele>1137</ele>
        <time>2017-02-09T09:23:32.000Z</time>
      </trkpt>
      <trkpt lat="42.9363" lon="0.28929">
        <ele>1137</ele>
        <time>2017-02-09T09:23:33.000Z</time>
      </trkpt>
      <trkpt lat="42.93629" lon="0.2893">
        <ele>1137</ele>
        <time>2017-02-09T09:23:34.000Z</time>
      </trkpt>
      <trkpt lat="42.93629" lon="0.2893">
        <ele>1137</ele>
        <time>2017-02-09T09:23:35.000Z</time>
      </trkpt>
      <trkpt lat="42.93628" lon="0.28931">
        <ele>1137</ele>
        <time>2017-02-09T09:23:36.000Z</time>
      </trkpt>
      <trkpt lat="42.93628" lon="0.28932">
        <ele>1137</ele>
        <time>2017-02-09T09:23:37.000Z</time>
      </trkpt>
      <trkpt lat="42.93627" lon="0.28933">
        <ele>1137</ele>
        <time>2017-02-09T09:23:38.000Z</time>
      </trkpt>
      <trkpt lat="42.93627" lon="0.28934">
        <ele>1137</ele>
        <time>2017-02-09T09:23:39.000Z</time>
      </trkpt>
      <trkpt lat="42.93626" lon="0.28935">
        <ele>1137</ele>
        <time>2017-02-09T09:23:40.000Z</time>
      </trkpt>
      <trkpt lat="42.93625" lon="0.28936">
        <ele>1137</ele>
        <time>2017-02-09T09:23:41.000Z</time>
      </trkpt>
      <trkpt lat="42.93625" lon="0.28937">
        <ele>1137</ele>
        <time>2017-02-09T09:23:42.000Z</time>
      </trkpt>
      <trkpt lat="42.93624" lon="0.28938">
        <ele>1137</ele>
        <time>2017-02-09T09:23:43.000Z</time>
      </trkpt>
      <trkpt lat="42.93624" lon="0.28939">
        <ele>1137</ele>
        <time>2017-02-09T09:23:44.000Z</time>
      </trkpt>
      <trkpt lat="42.93623" lon="0.2894">
        <ele>1137</ele>
        <time>2017-02-09T09:23:45.000Z</time>
      </trkpt>
      <trkpt lat="42.93623" lon="0.2894">
        <ele>1137</ele>
        <time>2017-02-09T09:23:46.000Z</time>
      </trkpt>
      <trkpt lat="42.93622" lon="0.28941">
        <ele>1137</ele>
        <time>2017-02-09T09:23:47.000Z</time>
      </trkpt>
      <trkpt lat="42.93622" lon="0.28942">
        <ele>1137</ele>
        <time>2017-02-09T09:23:48.000Z</time>
      </trkpt>
      <trkpt lat="42.93621" lon="0.28943">
        <ele>1137</ele>
        <time>2017-02-09T09:23:49.000Z</time>
      </trkpt>
      <trkpt lat="42.93621" lon="0.28944">
        <ele>1137</ele>
        <time>2017-02-09T09:23:50.000Z</time>
      </trkpt>
      <trkpt lat="42.9362" lon="0.28945">
        <ele>1137</ele>
        <time>2017-02-09T09:23:51.000Z</time>
      </trkpt>
      <trkpt lat="42.9362" lon="0.28945">
        <ele>1136</ele>
        <time>2017-02-09T09:23:52.000Z</time>
      </trkpt>
      <trkpt lat="42.93619" lon="0.28945">
        <ele>1135</ele>
        <time>2017-02-09T09:23:53.000Z</time>
      </trkpt>
      <trkpt lat="42.93619" lon="0.28945">
        <ele>1135</ele>
        <time>2017-02-09T09:23:54.000Z</time>
      </trkpt>
      <trkpt lat="42.93619" lon="0.28945">
        <ele>1135</ele>
        <time>2017-02-09T09:23:55.000Z</time>
      </trkpt>
      <trkpt lat="42.93619" lon="0.28945">
        <ele>1135</ele>
        <time>2017-02-09T09:23:56.000Z</time>
      </trkpt>
      <trkpt lat="42.93619" lon="0.28945">
        <ele>1135</ele>
        <time>2017-02-09T09:23:57.000Z</time>
      </trkpt>
      <trkpt lat="42.93619" lon="0.28945">
        <ele>1135</ele>
        <time>2017-02-09T09:23:58.000Z</time>
      </trkpt>
      <trkpt lat="42.93619" lon="0.28945">
        <ele>1135</ele>
        <time>2017-02-09T09:23:59.000Z</time>
      </trkpt>
      <trkpt lat="42.93618" lon="0.28945">
        <ele>1134</ele>
        <time>2017-02-09T09:24:00.121Z</time>
      </trkpt>
      <trkpt lat="42.93617" lon="0.28946">
        <ele>1134</ele>
        <time>2017-02-09T09:24:01.121Z</time>
      </trkpt>
      <trkpt lat="42.93617" lon="0.28947">
        <ele>1134</ele>
        <time>2017-02-09T09:24:02.121Z</time>
      </trkpt>
      <trkpt lat="42.93616" lon="0.28947">
        <ele>1134</ele>
        <time>2017-02-09T09:24:03.121Z</time>
      </trkpt>
      <trkpt lat="42.93615" lon="0.28948">
        <ele>1134</ele>
        <time>2017-02-09T09:24:04.121Z</time>
      </trkpt>
      <trkpt lat="42.93615" lon="0.28949">
        <ele>1134</ele>
        <time>2017-02-09T09:24:05.121Z</time>
      </trkpt>
      <trkpt lat="42.93614" lon="0.28949">
        <ele>1134</ele>
        <time>2017-02-09T09:24:06.121Z</time>
      </trkpt>
      <trkpt lat="42.93613" lon="0.2895">
        <ele>1134</ele>
        <time>2017-02-09T09:24:07.121Z</time>
      </trkpt>
      <trkpt lat="42.93613" lon="0.2895">
        <ele>1134</ele>
        <time>2017-02-09T09:24:08.121Z</time>
      </trkpt>
      <trkpt lat="42.93612" lon="0.28951">
        <ele>1134</ele>
        <time>2017-02-09T09:24:09.121Z</time>
      </trkpt>
      <trkpt lat="42.93611" lon="0.28952">
        <ele>1134</ele>
        <time>2017-02-09T09:24:10.121Z</time>
      </trkpt>
      <trkpt lat="42.93611" lon="0.28953">
        <ele>1134</ele>
        <time>2017-02-09T09:24:11.121Z</time>
      </trkpt>
      <trkpt lat="42.9361" lon="0.28954">
        <ele>1134</ele>
        <time>2017-02-09T09:24:12.121Z</time>
      </trkpt>
      <trkpt lat="42.93609" lon="0.28955">
        <ele>1134</ele>
        <time>2017-02-09T09:24:13.121Z</time>
      </trkpt>
      <trkpt lat="42.93608" lon="0.28956">
        <ele>1134</ele>
        <time>2017-02-09T09:24:14.121Z</time>
      </trkpt>
      <trkpt lat="42.93608" lon="0.28956">
        <ele>1134</ele>
        <time>2017-02-09T09:24:15.121Z</time>
      </trkpt>
      <trkpt lat="42.93607" lon="0.28957">
        <ele>1134</ele>
        <time>2017-02-09T09:24:16.121Z</time>
      </trkpt>
      <trkpt lat="42.93607" lon="0.28958">
        <ele>1134</ele>
        <time>2017-02-09T09:24:17.121Z</time>
      </trkpt>
      <trkpt lat="42.93606" lon="0.28959">
        <ele>1134</ele>
        <time>2017-02-09T09:24:18.121Z</time>
      </trkpt>
      <trkpt lat="42.93605" lon="0.2896">
        <ele>1134</ele>
        <time>2017-02-09T09:24:19.121Z</time>
      </trkpt>
      <trkpt lat="42.93605" lon="0.28961">
        <ele>1134</ele>
        <time>2017-02-09T09:24:20.121Z</time>
      </trkpt>
      <trkpt lat="42.93604" lon="0.28962">
        <ele>1134</ele>
        <time>2017-02-09T09:24:21.121Z</time>
      </trkpt>
      <trkpt lat="42.93604" lon="0.28963">
        <ele>1134</ele>
        <time>2017-02-09T09:24:22.121Z</time>
      </trkpt>
      <trkpt lat="42.93603" lon="0.28964">
        <ele>1134</ele>
        <time>2017-02-09T09:24:23.121Z</time>
      </trkpt>
      <trkpt lat="42.93603" lon="0.28965">
        <ele>1134</ele>
        <time>2017-02-09T09:24:24.121Z</time>
      </trkpt>
      <trkpt lat="42.93602" lon="0.28966">
        <ele>1134</ele>
        <time>2017-02-09T09:24:25.121Z</time>
      </trkpt>
      <trkpt lat="42.93602" lon="0.28968">
        <ele>1135</ele>
        <time>2017-02-09T09:24:26.121Z</time>
      </trkpt>
      <trkpt lat="42.93601" lon="0.28969">
        <ele>1135</ele>
        <time>2017-02-09T09:24:27.121Z</time>
      </trkpt>
      <trkpt lat="42.93601" lon="0.2897">
        <ele>1135</ele>
        <time>2017-02-09T09:24:28.121Z</time>
      </trkpt>
      <trkpt lat="42.936" lon="0.28971">
        <ele>1134</ele>
        <time>2017-02-09T09:24:29.121Z</time>
      </trkpt>
      <trkpt lat="42.936" lon="0.28972">
        <ele>1134</ele>
        <time>2017-02-09T09:24:30.121Z</time>
      </trkpt>
      <trkpt lat="42.93599" lon="0.28973">
        <ele>1134</ele>
        <time>2017-02-09T09:24:31.121Z</time>
      </trkpt>
      <trkpt lat="42.93599" lon="0.28974">
        <ele>1134</ele>
        <time>2017-02-09T09:24:32.121Z</time>
      </trkpt>
      <trkpt lat="42.93598" lon="0.28975">
        <ele>1134</ele>
        <time>2017-02-09T09:24:33.121Z</time>
      </trkpt>
      <trkpt lat="42.93598" lon="0.28976">
        <ele>1135</ele>
        <time>2017-02-09T09:24:34.121Z</time>
      </trkpt>
      <trkpt lat="42.93597" lon="0.28977">
        <ele>1135</ele>
        <time>2017-02-09T09:24:35.121Z</time>
      </trkpt>
      <trkpt lat="42.93597" lon="0.28978">
        <ele>1135</ele>
        <time>2017-02-09T09:24:36.121Z</time>
      </trkpt>
      <trkpt lat="42.93597" lon="0.2898">
        <ele>1135</ele>
        <time>2017-02-09T09:24:37.121Z</time>
      </trkpt>
      <trkpt lat="42.93596" lon="0.28981">
        <ele>1135</ele>
        <time>2017-02-09T09:24:38.121Z</time>
      </trkpt>
      <trkpt lat="42.93596" lon="0.28982">
        <ele>1135</ele>
        <time>2017-02-09T09:24:39.121Z</time>
      </trkpt>
      <trkpt lat="42.93595" lon="0.28983">
        <ele>1135</ele>
        <time>2017-02-09T09:24:40.121Z</time>
      </trkpt>
      <trkpt lat="42.93595" lon="0.28984">
        <ele>1135</ele>
        <time>2017-02-09T09:24:41.121Z</time>
      </trkpt>
      <trkpt lat="42.93594" lon="0.28985">
        <ele>1135</ele>
        <time>2017-02-09T09:24:42.121Z</time>
      </trkpt>
      <trkpt lat="42.93594" lon="0.28987">
        <ele>1135</ele>
        <time>2017-02-09T09:24:43.121Z</time>
      </trkpt>
      <trkpt lat="42.93593" lon="0.28988">
        <ele>1135</ele>
        <time>2017-02-09T09:24:44.121Z</time>
      </trkpt>
      <trkpt lat="42.93593" lon="0.28989">
        <ele>1135</ele>
        <time>2017-02-09T09:24:45.121Z</time>
      </trkpt>
      <trkpt lat="42.93592" lon="0.2899">
        <ele>1136</ele>
        <time>2017-02-09T09:24:46.121Z</time>
      </trkpt>
      <trkpt lat="42.93592" lon="0.28991">
        <ele>1136</ele>
        <time>2017-02-09T09:24:47.121Z</time>
      </trkpt>
      <trkpt lat="42.93591" lon="0.28992">
        <ele>1136</ele>
        <time>2017-02-09T09:24:48.121Z</time>
      </trkpt>
      <trkpt lat="42.93591" lon="0.28993">
        <ele>1136</ele>
        <time>2017-02-09T09:24:49.121Z</time>
      </trkpt>
      <trkpt lat="42.9359" lon="0.28994">
        <ele>1136</ele>
        <time>2017-02-09T09:24:50.121Z</time>
      </trkpt>
      <trkpt lat="42.93589" lon="0.28995">
        <ele>1136</ele>
        <time>2017-02-09T09:24:51.121Z</time>
      </trkpt>
      <trkpt lat="42.93589" lon="0.28996">
        <ele>1136</ele>
        <time>2017-02-09T09:24:52.121Z</time>
      </trkpt>
      <trkpt lat="42.93588" lon="0.28997">
        <ele>1136</ele>
        <time>2017-02-09T09:24:53.121Z</time>
      </trkpt>
      <trkpt lat="42.93588" lon="0.28998">
        <ele>1136</ele>
        <time>2017-02-09T09:24:54.121Z</time>
      </trkpt>
      <trkpt lat="42.93587" lon="0.28998">
        <ele>1136</ele>
        <time>2017-02-09T09:24:55.121Z</time>
      </trkpt>
      <trkpt lat="42.93587" lon="0.28998">
        <ele>1136</ele>
        <time>2017-02-09T09:24:56.121Z</time>
      </trkpt>
      <trkpt lat="42.93587" lon="0.28998">
        <ele>1136</ele>
        <time>2017-02-09T09:24:57.121Z</time>
      </trkpt>
      <trkpt lat="42.93587" lon="0.28998">
        <ele>1136</ele>
        <time>2017-02-09T09:24:58.121Z</time>
      </trkpt>
      <trkpt lat="42.93587" lon="0.28998">
        <ele>1136</ele>
        <time>2017-02-09T09:24:59.121Z</time>
      </trkpt>
      <trkpt lat="42.93587" lon="0.28998">
        <ele>1136</ele>
        <time>2017-02-09T09:25:00.121Z</time>
      </trkpt>
      <trkpt lat="42.93587" lon="0.28998">
        <ele>1136</ele>
        <time>2017-02-09T09:25:01.121Z</time>
      </trkpt>
      <trkpt lat="42.93587" lon="0.28997">
        <ele>1136</ele>
        <time>2017-02-09T09:25:02.121Z</time>
      </trkpt>
      <trkpt lat="42.93587" lon="0.28997">
        <ele>1136</ele>
        <time>2017-02-09T09:25:03.113Z</time>
      </trkpt>
      <trkpt lat="42.93587" lon="0.28997">
        <ele>1136</ele>
        <time>2017-02-09T09:25:04.113Z</time>
      </trkpt>
      <trkpt lat="42.93586" lon="0.28997">
        <ele>1136</ele>
        <time>2017-02-09T09:25:05.113Z</time>
      </trkpt>
      <trkpt lat="42.93586" lon="0.28997">
        <ele>1136</ele>
        <time>2017-02-09T09:25:06.113Z</time>
      </trkpt>
      <trkpt lat="42.93585" lon="0.28997">
        <ele>1135</ele>
        <time>2017-02-09T09:25:07.113Z</time>
      </trkpt>
      <trkpt lat="42.93584" lon="0.28997">
        <ele>1135</ele>
        <time>2017-02-09T09:25:08.113Z</time>
      </trkpt>
      <trkpt lat="42.93583" lon="0.28996">
        <ele>1135</ele>
        <time>2017-02-09T09:25:09.113Z</time>
      </trkpt>
      <trkpt lat="42.93582" lon="0.28996">
        <ele>1135</ele>
        <time>2017-02-09T09:25:10.113Z</time>
      </trkpt>
      <trkpt lat="42.93582" lon="0.28995">
        <ele>1135</ele>
        <time>2017-02-09T09:25:11.113Z</time>
      </trkpt>
      <trkpt lat="42.93581" lon="0.28995">
        <ele>1135</ele>
        <time>2017-02-09T09:25:12.113Z</time>
      </trkpt>
      <trkpt lat="42.93581" lon="0.28994">
        <ele>1135</ele>
        <time>2017-02-09T09:25:13.113Z</time>
      </trkpt>
      <trkpt lat="42.9358" lon="0.28993">
        <ele>1135</ele>
        <time>2017-02-09T09:25:14.113Z</time>
      </trkpt>
      <trkpt lat="42.93579" lon="0.28993">
        <ele>1135</ele>
        <time>2017-02-09T09:25:15.113Z</time>
      </trkpt>
      <trkpt lat="42.93578" lon="0.28992">
        <ele>1135</ele>
        <time>2017-02-09T09:25:16.113Z</time>
      </trkpt>
      <trkpt lat="42.93578" lon="0.28992">
        <ele>1135</ele>
        <time>2017-02-09T09:25:17.113Z</time>
      </trkpt>
      <trkpt lat="42.93577" lon="0.28991">
        <ele>1135</ele>
        <time>2017-02-09T09:25:18.113Z</time>
      </trkpt>
      <trkpt lat="42.93577" lon="0.28991">
        <ele>1135</ele>
        <time>2017-02-09T09:25:19.113Z</time>
      </trkpt>
      <trkpt lat="42.93576" lon="0.2899">
        <ele>1135</ele>
        <time>2017-02-09T09:25:20.113Z</time>
      </trkpt>
      <trkpt lat="42.93575" lon="0.2899">
        <ele>1135</ele>
        <time>2017-02-09T09:25:21.113Z</time>
      </trkpt>
      <trkpt lat="42.93575" lon="0.2899">
        <ele>1135</ele>
        <time>2017-02-09T09:25:22.113Z</time>
      </trkpt>
      <trkpt lat="42.93574" lon="0.28989">
        <ele>1135</ele>
        <time>2017-02-09T09:25:23.113Z</time>
      </trkpt>
      <trkpt lat="42.93573" lon="0.28989">
        <ele>1135</ele>
        <time>2017-02-09T09:25:24.113Z</time>
      </trkpt>
      <trkpt lat="42.93572" lon="0.28988">
        <ele>1136</ele>
        <time>2017-02-09T09:25:25.113Z</time>
      </trkpt>
      <trkpt lat="42.93572" lon="0.28988">
        <ele>1136</ele>
        <time>2017-02-09T09:25:26.113Z</time>
      </trkpt>
      <trkpt lat="42.93571" lon="0.28988">
        <ele>1136</ele>
        <time>2017-02-09T09:25:27.113Z</time>
      </trkpt>
      <trkpt lat="42.9357" lon="0.28987">
        <ele>1135</ele>
        <time>2017-02-09T09:25:28.113Z</time>
      </trkpt>
      <trkpt lat="42.93569" lon="0.28987">
        <ele>1136</ele>
        <time>2017-02-09T09:25:29.113Z</time>
      </trkpt>
      <trkpt lat="42.93569" lon="0.28987">
        <ele>1136</ele>
        <time>2017-02-09T09:25:30.113Z</time>
      </trkpt>
      <trkpt lat="42.93568" lon="0.28987">
        <ele>1136</ele>
        <time>2017-02-09T09:25:31.113Z</time>
      </trkpt>
      <trkpt lat="42.93567" lon="0.28986">
        <ele>1136</ele>
        <time>2017-02-09T09:25:32.113Z</time>
      </trkpt>
      <trkpt lat="42.93566" lon="0.28986">
        <ele>1136</ele>
        <time>2017-02-09T09:25:33.113Z</time>
      </trkpt>
      <trkpt lat="42.93565" lon="0.28986">
        <ele>1136</ele>
        <time>2017-02-09T09:25:34.113Z</time>
      </trkpt>
      <trkpt lat="42.93565" lon="0.28986">
        <ele>1136</ele>
        <time>2017-02-09T09:25:35.113Z</time>
      </trkpt>
      <trkpt lat="42.93564" lon="0.28985">
        <ele>1136</ele>
        <time>2017-02-09T09:25:36.113Z</time>
      </trkpt>
      <trkpt lat="42.93563" lon="0.28985">
        <ele>1136</ele>
        <time>2017-02-09T09:25:37.113Z</time>
      </trkpt>
      <trkpt lat="42.93562" lon="0.28985">
        <ele>1136</ele>
        <time>2017-02-09T09:25:38.113Z</time>
      </trkpt>
      <trkpt lat="42.93562" lon="0.28984">
        <ele>1136</ele>
        <time>2017-02-09T09:25:39.113Z</time>
      </trkpt>
      <trkpt lat="42.93561" lon="0.28984">
        <ele>1136</ele>
        <time>2017-02-09T09:25:40.113Z</time>
      </trkpt>
      <trkpt lat="42.9356" lon="0.28984">
        <ele>1136</ele>
        <time>2017-02-09T09:25:41.113Z</time>
      </trkpt>
      <trkpt lat="42.93559" lon="0.28984">
        <ele>1136</ele>
        <time>2017-02-09T09:25:42.113Z</time>
      </trkpt>
      <trkpt lat="42.93558" lon="0.28983">
        <ele>1136</ele>
        <time>2017-02-09T09:25:43.113Z</time>
      </trkpt>
      <trkpt lat="42.93557" lon="0.28983">
        <ele>1136</ele>
        <time>2017-02-09T09:25:44.113Z</time>
      </trkpt>
      <trkpt lat="42.93557" lon="0.28983">
        <ele>1136</ele>
        <time>2017-02-09T09:25:45.113Z</time>
      </trkpt>
      <trkpt lat="42.93556" lon="0.28982">
        <ele>1135</ele>
        <time>2017-02-09T09:25:46.113Z</time>
      </trkpt>
      <trkpt lat="42.93555" lon="0.28982">
        <ele>1135</ele>
        <time>2017-02-09T09:25:47.113Z</time>
      </trkpt>
      <trkpt lat="42.93554" lon="0.28982">
        <ele>1136</ele>
        <time>2017-02-09T09:25:48.113Z</time>
      </trkpt>
      <trkpt lat="42.93553" lon="0.28981">
        <ele>1136</ele>
        <time>2017-02-09T09:25:49.113Z</time>
      </trkpt>
      <trkpt lat="42.93552" lon="0.28981">
        <ele>1136</ele>
        <time>2017-02-09T09:25:50.113Z</time>
      </trkpt>
      <trkpt lat="42.93552" lon="0.2898">
        <ele>1136</ele>
        <time>2017-02-09T09:25:51.113Z</time>
      </trkpt>
      <trkpt lat="42.93551" lon="0.2898">
        <ele>1136</ele>
        <time>2017-02-09T09:25:52.113Z</time>
      </trkpt>
      <trkpt lat="42.9355" lon="0.28979">
        <ele>1136</ele>
        <time>2017-02-09T09:25:53.113Z</time>
      </trkpt>
      <trkpt lat="42.93549" lon="0.28979">
        <ele>1137</ele>
        <time>2017-02-09T09:25:54.113Z</time>
      </trkpt>
      <trkpt lat="42.93549" lon="0.28978">
        <ele>1137</ele>
        <time>2017-02-09T09:25:55.113Z</time>
      </trkpt>
      <trkpt lat="42.93548" lon="0.28978">
        <ele>1137</ele>
        <time>2017-02-09T09:25:56.113Z</time>
      </trkpt>
      <trkpt lat="42.93547" lon="0.28977">
        <ele>1137</ele>
        <time>2017-02-09T09:25:57.113Z</time>
      </trkpt>
      <trkpt lat="42.93546" lon="0.28977">
        <ele>1137</ele>
        <time>2017-02-09T09:25:58.113Z</time>
      </trkpt>
      <trkpt lat="42.93546" lon="0.28976">
        <ele>1137</ele>
        <time>2017-02-09T09:25:59.113Z</time>
      </trkpt>
      <trkpt lat="42.93545" lon="0.28976">
        <ele>1137</ele>
        <time>2017-02-09T09:26:00.113Z</time>
      </trkpt>
      <trkpt lat="42.93544" lon="0.28976">
        <ele>1137</ele>
        <time>2017-02-09T09:26:01.113Z</time>
      </trkpt>
      <trkpt lat="42.93543" lon="0.28975">
        <ele>1137</ele>
        <time>2017-02-09T09:26:02.113Z</time>
      </trkpt>
      <trkpt lat="42.93542" lon="0.28975">
        <ele>1137</ele>
        <time>2017-02-09T09:26:03.113Z</time>
      </trkpt>
      <trkpt lat="42.93542" lon="0.28974">
        <ele>1137</ele>
        <time>2017-02-09T09:26:04.113Z</time>
      </trkpt>
      <trkpt lat="42.93541" lon="0.28974">
        <ele>1137</ele>
        <time>2017-02-09T09:26:05.113Z</time>
      </trkpt>
      <trkpt lat="42.9354" lon="0.28974">
        <ele>1138</ele>
        <time>2017-02-09T09:26:06.113Z</time>
      </trkpt>
      <trkpt lat="42.93539" lon="0.28973">
        <ele>1138</ele>
        <time>2017-02-09T09:26:07.113Z</time>
      </trkpt>
      <trkpt lat="42.93539" lon="0.28973">
        <ele>1138</ele>
        <time>2017-02-09T09:26:08.113Z</time>
      </trkpt>
      <trkpt lat="42.93538" lon="0.28973">
        <ele>1138</ele>
        <time>2017-02-09T09:26:09.113Z</time>
      </trkpt>
      <trkpt lat="42.93537" lon="0.28972">
        <ele>1138</ele>
        <time>2017-02-09T09:26:10.113Z</time>
      </trkpt>
      <trkpt lat="42.93536" lon="0.28972">
        <ele>1138</ele>
        <time>2017-02-09T09:26:11.113Z</time>
      </trkpt>
      <trkpt lat="42.93536" lon="0.28972">
        <ele>1138</ele>
        <time>2017-02-09T09:26:12.113Z</time>
      </trkpt>
      <trkpt lat="42.93535" lon="0.28972">
        <ele>1138</ele>
        <time>2017-02-09T09:26:13.113Z</time>
      </trkpt>
      <trkpt lat="42.93534" lon="0.28972">
        <ele>1138</ele>
        <time>2017-02-09T09:26:14.113Z</time>
      </trkpt>
      <trkpt lat="42.93533" lon="0.28972">
        <ele>1138</ele>
        <time>2017-02-09T09:26:15.113Z</time>
      </trkpt>
      <trkpt lat="42.93533" lon="0.28972">
        <ele>1138</ele>
        <time>2017-02-09T09:26:16.113Z</time>
      </trkpt>
      <trkpt lat="42.93532" lon="0.28972">
        <ele>1139</ele>
        <time>2017-02-09T09:26:17.113Z</time>
      </trkpt>
      <trkpt lat="42.93531" lon="0.28973">
        <ele>1139</ele>
        <time>2017-02-09T09:26:18.113Z</time>
      </trkpt>
      <trkpt lat="42.9353" lon="0.28974">
        <ele>1139</ele>
        <time>2017-02-09T09:26:19.113Z</time>
      </trkpt>
      <trkpt lat="42.9353" lon="0.28975">
        <ele>1139</ele>
        <time>2017-02-09T09:26:20.113Z</time>
      </trkpt>
      <trkpt lat="42.93529" lon="0.28976">
        <ele>1139</ele>
        <time>2017-02-09T09:26:21.113Z</time>
      </trkpt>
      <trkpt lat="42.93529" lon="0.28977">
        <ele>1139</ele>
        <time>2017-02-09T09:26:22.113Z</time>
      </trkpt>
      <trkpt lat="42.93528" lon="0.28978">
        <ele>1139</ele>
        <time>2017-02-09T09:26:23.113Z</time>
      </trkpt>
      <trkpt lat="42.93527" lon="0.28979">
        <ele>1140</ele>
        <time>2017-02-09T09:26:24.113Z</time>
      </trkpt>
      <trkpt lat="42.93527" lon="0.2898">
        <ele>1140</ele>
        <time>2017-02-09T09:26:25.113Z</time>
      </trkpt>
      <trkpt lat="42.93526" lon="0.28981">
        <ele>1140</ele>
        <time>2017-02-09T09:26:26.113Z</time>
      </trkpt>
      <trkpt lat="42.93526" lon="0.28982">
        <ele>1140</ele>
        <time>2017-02-09T09:26:27.113Z</time>
      </trkpt>
      <trkpt lat="42.93525" lon="0.28983">
        <ele>1140</ele>
        <time>2017-02-09T09:26:28.113Z</time>
      </trkpt>
      <trkpt lat="42.93525" lon="0.28984">
        <ele>1140</ele>
        <time>2017-02-09T09:26:29.113Z</time>
      </trkpt>
      <trkpt lat="42.93524" lon="0.28985">
        <ele>1141</ele>
        <time>2017-02-09T09:26:30.113Z</time>
      </trkpt>
      <trkpt lat="42.93524" lon="0.28986">
        <ele>1141</ele>
        <time>2017-02-09T09:26:31.113Z</time>
      </trkpt>
      <trkpt lat="42.93523" lon="0.28987">
        <ele>1141</ele>
        <time>2017-02-09T09:26:32.113Z</time>
      </trkpt>
      <trkpt lat="42.93523" lon="0.28988">
        <ele>1141</ele>
        <time>2017-02-09T09:26:33.113Z</time>
      </trkpt>
      <trkpt lat="42.93522" lon="0.28989">
        <ele>1141</ele>
        <time>2017-02-09T09:26:34.113Z</time>
      </trkpt>
      <trkpt lat="42.93522" lon="0.2899">
        <ele>1141</ele>
        <time>2017-02-09T09:26:35.113Z</time>
      </trkpt>
      <trkpt lat="42.93521" lon="0.28991">
        <ele>1141</ele>
        <time>2017-02-09T09:26:36.113Z</time>
      </trkpt>
      <trkpt lat="42.93521" lon="0.28992">
        <ele>1141</ele>
        <time>2017-02-09T09:26:37.113Z</time>
      </trkpt>
      <trkpt lat="42.9352" lon="0.28993">
        <ele>1141</ele>
        <time>2017-02-09T09:26:38.113Z</time>
      </trkpt>
      <trkpt lat="42.9352" lon="0.28994">
        <ele>1141</ele>
        <time>2017-02-09T09:26:39.113Z</time>
      </trkpt>
      <trkpt lat="42.93519" lon="0.28995">
        <ele>1141</ele>
        <time>2017-02-09T09:26:40.113Z</time>
      </trkpt>
      <trkpt lat="42.93519" lon="0.28996">
        <ele>1141</ele>
        <time>2017-02-09T09:26:41.113Z</time>
      </trkpt>
      <trkpt lat="42.93518" lon="0.28996">
        <ele>1141</ele>
        <time>2017-02-09T09:26:42.113Z</time>
      </trkpt>
      <trkpt lat="42.93517" lon="0.28997">
        <ele>1141</ele>
        <time>2017-02-09T09:26:43.113Z</time>
      </trkpt>
      <trkpt lat="42.93517" lon="0.28998">
        <ele>1141</ele>
        <time>2017-02-09T09:26:44.113Z</time>
      </trkpt>
      <trkpt lat="42.93517" lon="0.28999">
        <ele>1141</ele>
        <time>2017-02-09T09:26:45.113Z</time>
      </trkpt>
      <trkpt lat="42.93516" lon="0.28999">
        <ele>1141</ele>
        <time>2017-02-09T09:26:46.113Z</time>
      </trkpt>
      <trkpt lat="42.93516" lon="0.29">
        <ele>1141</ele>
        <time>2017-02-09T09:26:47.113Z</time>
      </trkpt>
      <trkpt lat="42.93515" lon="0.29001">
        <ele>1141</ele>
        <time>2017-02-09T09:26:48.113Z</time>
      </trkpt>
      <trkpt lat="42.93515" lon="0.29002">
        <ele>1141</ele>
        <time>2017-02-09T09:26:49.113Z</time>
      </trkpt>
      <trkpt lat="42.93515" lon="0.29003">
        <ele>1141</ele>
        <time>2017-02-09T09:26:50.113Z</time>
      </trkpt>
      <trkpt lat="42.93514" lon="0.29004">
        <ele>1141</ele>
        <time>2017-02-09T09:26:51.113Z</time>
      </trkpt>
      <trkpt lat="42.93513" lon="0.29005">
        <ele>1141</ele>
        <time>2017-02-09T09:26:52.113Z</time>
      </trkpt>
      <trkpt lat="42.93513" lon="0.29006">
        <ele>1141</ele>
        <time>2017-02-09T09:26:53.113Z</time>
      </trkpt>
      <trkpt lat="42.93512" lon="0.29007">
        <ele>1141</ele>
        <time>2017-02-09T09:26:54.113Z</time>
      </trkpt>
      <trkpt lat="42.93512" lon="0.29008">
        <ele>1141</ele>
        <time>2017-02-09T09:26:55.113Z</time>
      </trkpt>
      <trkpt lat="42.93511" lon="0.29009">
        <ele>1142</ele>
        <time>2017-02-09T09:26:56.113Z</time>
      </trkpt>
      <trkpt lat="42.93511" lon="0.2901">
        <ele>1142</ele>
        <time>2017-02-09T09:26:57.113Z</time>
      </trkpt>
      <trkpt lat="42.9351" lon="0.29011">
        <ele>1142</ele>
        <time>2017-02-09T09:26:58.113Z</time>
      </trkpt>
      <trkpt lat="42.9351" lon="0.29012">
        <ele>1142</ele>
        <time>2017-02-09T09:26:59.113Z</time>
      </trkpt>
      <trkpt lat="42.93509" lon="0.29013">
        <ele>1142</ele>
        <time>2017-02-09T09:27:00.113Z</time>
      </trkpt>
      <trkpt lat="42.93509" lon="0.29014">
        <ele>1142</ele>
        <time>2017-02-09T09:27:01.113Z</time>
      </trkpt>
      <trkpt lat="42.93508" lon="0.29015">
        <ele>1142</ele>
        <time>2017-02-09T09:27:02.113Z</time>
      </trkpt>
      <trkpt lat="42.93508" lon="0.29016">
        <ele>1142</ele>
        <time>2017-02-09T09:27:03.113Z</time>
      </trkpt>
      <trkpt lat="42.93507" lon="0.29017">
        <ele>1143</ele>
        <time>2017-02-09T09:27:04.113Z</time>
      </trkpt>
      <trkpt lat="42.93507" lon="0.29018">
        <ele>1143</ele>
        <time>2017-02-09T09:27:05.113Z</time>
      </trkpt>
      <trkpt lat="42.93506" lon="0.29019">
        <ele>1143</ele>
        <time>2017-02-09T09:27:06.113Z</time>
      </trkpt>
      <trkpt lat="42.93506" lon="0.2902">
        <ele>1143</ele>
        <time>2017-02-09T09:27:07.113Z</time>
      </trkpt>
      <trkpt lat="42.93505" lon="0.29021">
        <ele>1143</ele>
        <time>2017-02-09T09:27:08.113Z</time>
      </trkpt>
      <trkpt lat="42.93505" lon="0.29022">
        <ele>1144</ele>
        <time>2017-02-09T09:27:09.113Z</time>
      </trkpt>
      <trkpt lat="42.93505" lon="0.29022">
        <ele>1144</ele>
        <time>2017-02-09T09:27:10.113Z</time>
      </trkpt>
      <trkpt lat="42.93504" lon="0.29023">
        <ele>1143</ele>
        <time>2017-02-09T09:27:11.113Z</time>
      </trkpt>
      <trkpt lat="42.93503" lon="0.29024">
        <ele>1144</ele>
        <time>2017-02-09T09:27:12.113Z</time>
      </trkpt>
      <trkpt lat="42.93503" lon="0.29025">
        <ele>1143</ele>
        <time>2017-02-09T09:27:13.113Z</time>
      </trkpt>
      <trkpt lat="42.93502" lon="0.29026">
        <ele>1144</ele>
        <time>2017-02-09T09:27:14.113Z</time>
      </trkpt>
      <trkpt lat="42.93502" lon="0.29027">
        <ele>1144</ele>
        <time>2017-02-09T09:27:15.113Z</time>
      </trkpt>
      <trkpt lat="42.93501" lon="0.29027">
        <ele>1144</ele>
        <time>2017-02-09T09:27:16.113Z</time>
      </trkpt>
      <trkpt lat="42.93501" lon="0.29028">
        <ele>1144</ele>
        <time>2017-02-09T09:27:17.113Z</time>
      </trkpt>
      <trkpt lat="42.935" lon="0.29029">
        <ele>1144</ele>
        <time>2017-02-09T09:27:18.113Z</time>
      </trkpt>
      <trkpt lat="42.93499" lon="0.29029">
        <ele>1144</ele>
        <time>2017-02-09T09:27:19.113Z</time>
      </trkpt>
      <trkpt lat="42.93499" lon="0.2903">
        <ele>1144</ele>
        <time>2017-02-09T09:27:20.113Z</time>
      </trkpt>
      <trkpt lat="42.93498" lon="0.29031">
        <ele>1144</ele>
        <time>2017-02-09T09:27:21.113Z</time>
      </trkpt>
      <trkpt lat="42.93497" lon="0.29031">
        <ele>1144</ele>
        <time>2017-02-09T09:27:22.113Z</time>
      </trkpt>
      <trkpt lat="42.93497" lon="0.29032">
        <ele>1144</ele>
        <time>2017-02-09T09:27:23.113Z</time>
      </trkpt>
      <trkpt lat="42.93496" lon="0.29033">
        <ele>1144</ele>
        <time>2017-02-09T09:27:24.113Z</time>
      </trkpt>
      <trkpt lat="42.93495" lon="0.29033">
        <ele>1144</ele>
        <time>2017-02-09T09:27:25.113Z</time>
      </trkpt>
      <trkpt lat="42.93495" lon="0.29034">
        <ele>1144</ele>
        <time>2017-02-09T09:27:26.113Z</time>
      </trkpt>
      <trkpt lat="42.93494" lon="0.29034">
        <ele>1144</ele>
        <time>2017-02-09T09:27:27.113Z</time>
      </trkpt>
      <trkpt lat="42.93493" lon="0.29035">
        <ele>1143</ele>
        <time>2017-02-09T09:27:28.113Z</time>
      </trkpt>
      <trkpt lat="42.93493" lon="0.29036">
        <ele>1143</ele>
        <time>2017-02-09T09:27:29.113Z</time>
      </trkpt>
      <trkpt lat="42.93492" lon="0.29036">
        <ele>1143</ele>
        <time>2017-02-09T09:27:30.113Z</time>
      </trkpt>
      <trkpt lat="42.93491" lon="0.29037">
        <ele>1143</ele>
        <time>2017-02-09T09:27:31.113Z</time>
      </trkpt>
      <trkpt lat="42.9349" lon="0.29037">
        <ele>1142</ele>
        <time>2017-02-09T09:27:32.113Z</time>
      </trkpt>
      <trkpt lat="42.9349" lon="0.29038">
        <ele>1142</ele>
        <time>2017-02-09T09:27:33.113Z</time>
      </trkpt>
      <trkpt lat="42.93489" lon="0.29038">
        <ele>1142</ele>
        <time>2017-02-09T09:27:34.113Z</time>
      </trkpt>
      <trkpt lat="42.93488" lon="0.29038">
        <ele>1142</ele>
        <time>2017-02-09T09:27:35.113Z</time>
      </trkpt>
      <trkpt lat="42.93487" lon="0.29038">
        <ele>1142</ele>
        <time>2017-02-09T09:27:36.113Z</time>
      </trkpt>
      <trkpt lat="42.93486" lon="0.29038">
        <ele>1141</ele>
        <time>2017-02-09T09:27:37.113Z</time>
      </trkpt>
      <trkpt lat="42.93486" lon="0.29038">
        <ele>1141</ele>
        <time>2017-02-09T09:27:38.113Z</time>
      </trkpt>
      <trkpt lat="42.93485" lon="0.29038">
        <ele>1141</ele>
        <time>2017-02-09T09:27:39.113Z</time>
      </trkpt>
      <trkpt lat="42.93484" lon="0.29039">
        <ele>1141</ele>
        <time>2017-02-09T09:27:40.113Z</time>
      </trkpt>
      <trkpt lat="42.93483" lon="0.29039">
        <ele>1141</ele>
        <time>2017-02-09T09:27:41.113Z</time>
      </trkpt>
      <trkpt lat="42.93483" lon="0.29039">
        <ele>1141</ele>
        <time>2017-02-09T09:27:42.113Z</time>
      </trkpt>
      <trkpt lat="42.93482" lon="0.2904">
        <ele>1141</ele>
        <time>2017-02-09T09:27:43.113Z</time>
      </trkpt>
      <trkpt lat="42.93481" lon="0.2904">
        <ele>1141</ele>
        <time>2017-02-09T09:27:44.113Z</time>
      </trkpt>
      <trkpt lat="42.9348" lon="0.2904">
        <ele>1141</ele>
        <time>2017-02-09T09:27:45.113Z</time>
      </trkpt>
      <trkpt lat="42.93479" lon="0.2904">
        <ele>1141</ele>
        <time>2017-02-09T09:27:46.113Z</time>
      </trkpt>
      <trkpt lat="42.93478" lon="0.2904">
        <ele>1141</ele>
        <time>2017-02-09T09:27:47.113Z</time>
      </trkpt>
      <trkpt lat="42.93478" lon="0.29041">
        <ele>1141</ele>
        <time>2017-02-09T09:27:48.113Z</time>
      </trkpt>
      <trkpt lat="42.93477" lon="0.29041">
        <ele>1141</ele>
        <time>2017-02-09T09:27:49.113Z</time>
      </trkpt>
      <trkpt lat="42.93476" lon="0.29042">
        <ele>1142</ele>
        <time>2017-02-09T09:27:50.113Z</time>
      </trkpt>
      <trkpt lat="42.93475" lon="0.29042">
        <ele>1142</ele>
        <time>2017-02-09T09:27:51.113Z</time>
      </trkpt>
      <trkpt lat="42.93474" lon="0.29042">
        <ele>1142</ele>
        <time>2017-02-09T09:27:52.113Z</time>
      </trkpt>
      <trkpt lat="42.93473" lon="0.29042">
        <ele>1142</ele>
        <time>2017-02-09T09:27:53.113Z</time>
      </trkpt>
      <trkpt lat="42.93473" lon="0.29042">
        <ele>1142</ele>
        <time>2017-02-09T09:27:54.113Z</time>
      </trkpt>
      <trkpt lat="42.93472" lon="0.29042">
        <ele>1141</ele>
        <time>2017-02-09T09:27:55.113Z</time>
      </trkpt>
      <trkpt lat="42.93471" lon="0.29043">
        <ele>1141</ele>
        <time>2017-02-09T09:27:56.113Z</time>
      </trkpt>
      <trkpt lat="42.93471" lon="0.29043">
        <ele>1141</ele>
        <time>2017-02-09T09:27:57.113Z</time>
      </trkpt>
      <trkpt lat="42.9347" lon="0.29043">
        <ele>1140</ele>
        <time>2017-02-09T09:27:58.113Z</time>
      </trkpt>
      <trkpt lat="42.9347" lon="0.29043">
        <ele>1140</ele>
        <time>2017-02-09T09:27:59.113Z</time>
      </trkpt>
      <trkpt lat="42.93469" lon="0.29043">
        <ele>1140</ele>
        <time>2017-02-09T09:28:00.113Z</time>
      </trkpt>
      <trkpt lat="42.93468" lon="0.29043">
        <ele>1141</ele>
        <time>2017-02-09T09:28:01.113Z</time>
      </trkpt>
      <trkpt lat="42.93467" lon="0.29043">
        <ele>1141</ele>
        <time>2017-02-09T09:28:02.113Z</time>
      </trkpt>
      <trkpt lat="42.93467" lon="0.29043">
        <ele>1141</ele>
        <time>2017-02-09T09:28:03.113Z</time>
      </trkpt>
      <trkpt lat="42.93466" lon="0.29043">
        <ele>1141</ele>
        <time>2017-02-09T09:28:04.113Z</time>
      </trkpt>
      <trkpt lat="42.93465" lon="0.29044">
        <ele>1141</ele>
        <time>2017-02-09T09:28:05.113Z</time>
      </trkpt>
      <trkpt lat="42.93464" lon="0.29044">
        <ele>1141</ele>
        <time>2017-02-09T09:28:06.113Z</time>
      </trkpt>
      <trkpt lat="42.93464" lon="0.29044">
        <ele>1141</ele>
        <time>2017-02-09T09:28:07.113Z</time>
      </trkpt>
      <trkpt lat="42.93463" lon="0.29044">
        <ele>1141</ele>
        <time>2017-02-09T09:28:08.113Z</time>
      </trkpt>
      <trkpt lat="42.93462" lon="0.29045">
        <ele>1140</ele>
        <time>2017-02-09T09:28:09.113Z</time>
      </trkpt>
      <trkpt lat="42.93461" lon="0.29045">
        <ele>1140</ele>
        <time>2017-02-09T09:28:10.113Z</time>
      </trkpt>
      <trkpt lat="42.93461" lon="0.29045">
        <ele>1140</ele>
        <time>2017-02-09T09:28:11.113Z</time>
      </trkpt>
      <trkpt lat="42.9346" lon="0.29046">
        <ele>1140</ele>
        <time>2017-02-09T09:28:12.113Z</time>
      </trkpt>
      <trkpt lat="42.93459" lon="0.29046">
        <ele>1140</ele>
        <time>2017-02-09T09:28:13.113Z</time>
      </trkpt>
      <trkpt lat="42.93458" lon="0.29046">
        <ele>1139</ele>
        <time>2017-02-09T09:28:14.113Z</time>
      </trkpt>
      <trkpt lat="42.93457" lon="0.29046">
        <ele>1139</ele>
        <time>2017-02-09T09:28:15.113Z</time>
      </trkpt>
      <trkpt lat="42.93456" lon="0.29047">
        <ele>1139</ele>
        <time>2017-02-09T09:28:16.113Z</time>
      </trkpt>
      <trkpt lat="42.93456" lon="0.29047">
        <ele>1140</ele>
        <time>2017-02-09T09:28:17.113Z</time>
      </trkpt>
      <trkpt lat="42.93455" lon="0.29047">
        <ele>1140</ele>
        <time>2017-02-09T09:28:18.113Z</time>
      </trkpt>
      <trkpt lat="42.93454" lon="0.29048">
        <ele>1140</ele>
        <time>2017-02-09T09:28:19.113Z</time>
      </trkpt>
      <trkpt lat="42.93453" lon="0.29048">
        <ele>1141</ele>
        <time>2017-02-09T09:28:20.113Z</time>
      </trkpt>
      <trkpt lat="42.93452" lon="0.29048">
        <ele>1140</ele>
        <time>2017-02-09T09:28:21.113Z</time>
      </trkpt>
      <trkpt lat="42.93452" lon="0.29048">
        <ele>1141</ele>
        <time>2017-02-09T09:28:22.113Z</time>
      </trkpt>
      <trkpt lat="42.93451" lon="0.29048">
        <ele>1141</ele>
        <time>2017-02-09T09:28:23.113Z</time>
      </trkpt>
      <trkpt lat="42.9345" lon="0.29048">
        <ele>1141</ele>
        <time>2017-02-09T09:28:24.113Z</time>
      </trkpt>
      <trkpt lat="42.93449" lon="0.29048">
        <ele>1141</ele>
        <time>2017-02-09T09:28:25.113Z</time>
      </trkpt>
      <trkpt lat="42.93449" lon="0.29049">
        <ele>1142</ele>
        <time>2017-02-09T09:28:26.113Z</time>
      </trkpt>
      <trkpt lat="42.93448" lon="0.29049">
        <ele>1142</ele>
        <time>2017-02-09T09:28:27.113Z</time>
      </trkpt>
      <trkpt lat="42.93448" lon="0.29049">
        <ele>1142</ele>
        <time>2017-02-09T09:28:28.113Z</time>
      </trkpt>
      <trkpt lat="42.93448" lon="0.29049">
        <ele>1142</ele>
        <time>2017-02-09T09:28:29.113Z</time>
      </trkpt>
      <trkpt lat="42.93448" lon="0.29049">
        <ele>1142</ele>
        <time>2017-02-09T09:28:30.113Z</time>
      </trkpt>
      <trkpt lat="42.93448" lon="0.29049">
        <ele>1142</ele>
        <time>2017-02-09T09:28:31.113Z</time>
      </trkpt>
      <trkpt lat="42.93449" lon="0.29049">
        <ele>1142</ele>
        <time>2017-02-09T09:28:32.113Z</time>
      </trkpt>
      <trkpt lat="42.93449" lon="0.29049">
        <ele>1143</ele>
        <time>2017-02-09T09:28:33.113Z</time>
      </trkpt>
      <trkpt lat="42.93447" lon="0.29046">
        <ele>1141</ele>
        <time>2017-02-09T09:28:34.117Z</time>
      </trkpt>
      <trkpt lat="42.93446" lon="0.29045">
        <ele>1141</ele>
        <time>2017-02-09T09:28:35.117Z</time>
      </trkpt>
      <trkpt lat="42.93445" lon="0.29045">
        <ele>1141</ele>
        <time>2017-02-09T09:28:36.117Z</time>
      </trkpt>
      <trkpt lat="42.93445" lon="0.29044">
        <ele>1142</ele>
        <time>2017-02-09T09:28:37.117Z</time>
      </trkpt>
      <trkpt lat="42.93444" lon="0.29043">
        <ele>1142</ele>
        <time>2017-02-09T09:28:38.117Z</time>
      </trkpt>
      <trkpt lat="42.93443" lon="0.29043">
        <ele>1142</ele>
        <time>2017-02-09T09:28:39.117Z</time>
      </trkpt>
      <trkpt lat="42.93443" lon="0.29043">
        <ele>1142</ele>
        <time>2017-02-09T09:28:40.117Z</time>
      </trkpt>
      <trkpt lat="42.93442" lon="0.29043">
        <ele>1143</ele>
        <time>2017-02-09T09:28:41.117Z</time>
      </trkpt>
      <trkpt lat="42.93441" lon="0.29043">
        <ele>1143</ele>
        <time>2017-02-09T09:28:42.117Z</time>
      </trkpt>
      <trkpt lat="42.93441" lon="0.29044">
        <ele>1143</ele>
        <time>2017-02-09T09:28:43.117Z</time>
      </trkpt>
      <trkpt lat="42.9344" lon="0.29044">
        <ele>1143</ele>
        <time>2017-02-09T09:28:44.117Z</time>
      </trkpt>
      <trkpt lat="42.93439" lon="0.29045">
        <ele>1143</ele>
        <time>2017-02-09T09:28:45.117Z</time>
      </trkpt>
      <trkpt lat="42.93439" lon="0.29045">
        <ele>1143</ele>
        <time>2017-02-09T09:28:46.117Z</time>
      </trkpt>
      <trkpt lat="42.93438" lon="0.29046">
        <ele>1143</ele>
        <time>2017-02-09T09:28:47.117Z</time>
      </trkpt>
      <trkpt lat="42.93438" lon="0.29046">
        <ele>1143</ele>
        <time>2017-02-09T09:28:48.117Z</time>
      </trkpt>
      <trkpt lat="42.93437" lon="0.29046">
        <ele>1143</ele>
        <time>2017-02-09T09:28:49.117Z</time>
      </trkpt>
      <trkpt lat="42.93437" lon="0.29047">
        <ele>1143</ele>
        <time>2017-02-09T09:28:50.117Z</time>
      </trkpt>
      <trkpt lat="42.93436" lon="0.29047">
        <ele>1143</ele>
        <time>2017-02-09T09:28:51.117Z</time>
      </trkpt>
      <trkpt lat="42.93436" lon="0.29048">
        <ele>1143</ele>
        <time>2017-02-09T09:28:52.117Z</time>
      </trkpt>
      <trkpt lat="42.93435" lon="0.29048">
        <ele>1143</ele>
        <time>2017-02-09T09:28:53.117Z</time>
      </trkpt>
      <trkpt lat="42.93435" lon="0.29048">
        <ele>1143</ele>
        <time>2017-02-09T09:28:54.117Z</time>
      </trkpt>
      <trkpt lat="42.93434" lon="0.29049">
        <ele>1144</ele>
        <time>2017-02-09T09:28:55.117Z</time>
      </trkpt>
      <trkpt lat="42.93433" lon="0.29049">
        <ele>1144</ele>
        <time>2017-02-09T09:28:56.117Z</time>
      </trkpt>
      <trkpt lat="42.93433" lon="0.2905">
        <ele>1145</ele>
        <time>2017-02-09T09:28:57.117Z</time>
      </trkpt>
      <trkpt lat="42.93432" lon="0.2905">
        <ele>1145</ele>
        <time>2017-02-09T09:28:58.117Z</time>
      </trkpt>
      <trkpt lat="42.93432" lon="0.2905">
        <ele>1145</ele>
        <time>2017-02-09T09:28:59.117Z</time>
      </trkpt>
      <trkpt lat="42.93431" lon="0.29051">
        <ele>1145</ele>
        <time>2017-02-09T09:29:00.117Z</time>
      </trkpt>
      <trkpt lat="42.93431" lon="0.29051">
        <ele>1145</ele>
        <time>2017-02-09T09:29:01.117Z</time>
      </trkpt>
      <trkpt lat="42.9343" lon="0.29052">
        <ele>1145</ele>
        <time>2017-02-09T09:29:02.117Z</time>
      </trkpt>
      <trkpt lat="42.9343" lon="0.29052">
        <ele>1146</ele>
        <time>2017-02-09T09:29:03.117Z</time>
      </trkpt>
      <trkpt lat="42.9343" lon="0.29053">
        <ele>1146</ele>
        <time>2017-02-09T09:29:04.117Z</time>
      </trkpt>
      <trkpt lat="42.9343" lon="0.29053">
        <ele>1146</ele>
        <time>2017-02-09T09:29:05.117Z</time>
      </trkpt>
      <trkpt lat="42.93429" lon="0.29054">
        <ele>1147</ele>
        <time>2017-02-09T09:29:06.117Z</time>
      </trkpt>
      <trkpt lat="42.93429" lon="0.29054">
        <ele>1147</ele>
        <time>2017-02-09T09:29:07.117Z</time>
      </trkpt>
      <trkpt lat="42.93429" lon="0.29055">
        <ele>1148</ele>
        <time>2017-02-09T09:29:08.117Z</time>
      </trkpt>
      <trkpt lat="42.93429" lon="0.29056">
        <ele>1148</ele>
        <time>2017-02-09T09:29:09.117Z</time>
      </trkpt>
      <trkpt lat="42.93429" lon="0.29057">
        <ele>1148</ele>
        <time>2017-02-09T09:29:10.117Z</time>
      </trkpt>
      <trkpt lat="42.93429" lon="0.29058">
        <ele>1148</ele>
        <time>2017-02-09T09:29:11.117Z</time>
      </trkpt>
      <trkpt lat="42.93429" lon="0.2906">
        <ele>1149</ele>
        <time>2017-02-09T09:29:12.117Z</time>
      </trkpt>
      <trkpt lat="42.93428" lon="0.29061">
        <ele>1149</ele>
        <time>2017-02-09T09:29:13.117Z</time>
      </trkpt>
      <trkpt lat="42.93428" lon="0.29061">
        <ele>1149</ele>
        <time>2017-02-09T09:29:14.117Z</time>
      </trkpt>
      <trkpt lat="42.93427" lon="0.29062">
        <ele>1149</ele>
        <time>2017-02-09T09:29:15.117Z</time>
      </trkpt>
      <trkpt lat="42.93427" lon="0.29063">
        <ele>1150</ele>
        <time>2017-02-09T09:29:16.117Z</time>
      </trkpt>
      <trkpt lat="42.93426" lon="0.29064">
        <ele>1150</ele>
        <time>2017-02-09T09:29:17.117Z</time>
      </trkpt>
      <trkpt lat="42.93426" lon="0.29065">
        <ele>1151</ele>
        <time>2017-02-09T09:29:18.117Z</time>
      </trkpt>
      <trkpt lat="42.93425" lon="0.29066">
        <ele>1151</ele>
        <time>2017-02-09T09:29:19.117Z</time>
      </trkpt>
      <trkpt lat="42.93425" lon="0.29067">
        <ele>1150</ele>
        <time>2017-02-09T09:29:20.117Z</time>
      </trkpt>
      <trkpt lat="42.93424" lon="0.29068">
        <ele>1151</ele>
        <time>2017-02-09T09:29:21.117Z</time>
      </trkpt>
      <trkpt lat="42.93424" lon="0.29069">
        <ele>1151</ele>
        <time>2017-02-09T09:29:22.117Z</time>
      </trkpt>
      <trkpt lat="42.93424" lon="0.29069">
        <ele>1151</ele>
        <time>2017-02-09T09:29:23.117Z</time>
      </trkpt>
      <trkpt lat="42.93424" lon="0.29069">
        <ele>1151</ele>
        <time>2017-02-09T09:29:24.117Z</time>
      </trkpt>
      <trkpt lat="42.93423" lon="0.29069">
        <ele>1151</ele>
        <time>2017-02-09T09:29:25.117Z</time>
      </trkpt>
      <trkpt lat="42.93423" lon="0.29069">
        <ele>1152</ele>
        <time>2017-02-09T09:29:26.117Z</time>
      </trkpt>
      <trkpt lat="42.93423" lon="0.29069">
        <ele>1153</ele>
        <time>2017-02-09T09:29:27.117Z</time>
      </trkpt>
      <trkpt lat="42.93423" lon="0.29069">
        <ele>1152</ele>
        <time>2017-02-09T09:29:28.117Z</time>
      </trkpt>
      <trkpt lat="42.93423" lon="0.29069">
        <ele>1152</ele>
        <time>2017-02-09T09:29:29.117Z</time>
      </trkpt>
      <trkpt lat="42.93424" lon="0.29069">
        <ele>1153</ele>
        <time>2017-02-09T09:29:30.117Z</time>
      </trkpt>
      <trkpt lat="42.93423" lon="0.29073">
        <ele>1157</ele>
        <time>2017-02-09T09:29:31.121Z</time>
      </trkpt>
      <trkpt lat="42.93423" lon="0.29074">
        <ele>1158</ele>
        <time>2017-02-09T09:29:32.121Z</time>
      </trkpt>
      <trkpt lat="42.93423" lon="0.29074">
        <ele>1159</ele>
        <time>2017-02-09T09:29:33.121Z</time>
      </trkpt>
      <trkpt lat="42.93423" lon="0.29075">
        <ele>1160</ele>
        <time>2017-02-09T09:29:34.121Z</time>
      </trkpt>
      <trkpt lat="42.93422" lon="0.29075">
        <ele>1160</ele>
        <time>2017-02-09T09:29:35.121Z</time>
      </trkpt>
      <trkpt lat="42.93422" lon="0.29076">
        <ele>1159</ele>
        <time>2017-02-09T09:29:36.121Z</time>
      </trkpt>
      <trkpt lat="42.93421" lon="0.29077">
        <ele>1159</ele>
        <time>2017-02-09T09:29:37.121Z</time>
      </trkpt>
      <trkpt lat="42.93421" lon="0.29079">
        <ele>1156</ele>
        <time>2017-02-09T09:29:38.121Z</time>
      </trkpt>
      <trkpt lat="42.93421" lon="0.2908">
        <ele>1156</ele>
        <time>2017-02-09T09:29:39.121Z</time>
      </trkpt>
      <trkpt lat="42.93421" lon="0.29081">
        <ele>1156</ele>
        <time>2017-02-09T09:29:40.121Z</time>
      </trkpt>
      <trkpt lat="42.9342" lon="0.29082">
        <ele>1156</ele>
        <time>2017-02-09T09:29:41.121Z</time>
      </trkpt>
      <trkpt lat="42.9342" lon="0.29083">
        <ele>1156</ele>
        <time>2017-02-09T09:29:42.121Z</time>
      </trkpt>
      <trkpt lat="42.93419" lon="0.29083">
        <ele>1156</ele>
        <time>2017-02-09T09:29:43.121Z</time>
      </trkpt>
      <trkpt lat="42.93419" lon="0.29084">
        <ele>1155</ele>
        <time>2017-02-09T09:29:44.121Z</time>
      </trkpt>
      <trkpt lat="42.93418" lon="0.29085">
        <ele>1156</ele>
        <time>2017-02-09T09:29:45.121Z</time>
      </trkpt>
      <trkpt lat="42.93418" lon="0.29086">
        <ele>1155</ele>
        <time>2017-02-09T09:29:46.121Z</time>
      </trkpt>
      <trkpt lat="42.93417" lon="0.29087">
        <ele>1155</ele>
        <time>2017-02-09T09:29:47.121Z</time>
      </trkpt>
      <trkpt lat="42.93417" lon="0.29088">
        <ele>1154</ele>
        <time>2017-02-09T09:29:48.121Z</time>
      </trkpt>
      <trkpt lat="42.93417" lon="0.29089">
        <ele>1153</ele>
        <time>2017-02-09T09:29:49.121Z</time>
      </trkpt>
      <trkpt lat="42.93417" lon="0.2909">
        <ele>1153</ele>
        <time>2017-02-09T09:29:50.121Z</time>
      </trkpt>
      <trkpt lat="42.93417" lon="0.2909">
        <ele>1152</ele>
        <time>2017-02-09T09:29:51.121Z</time>
      </trkpt>
      <trkpt lat="42.93416" lon="0.29091">
        <ele>1152</ele>
        <time>2017-02-09T09:29:52.121Z</time>
      </trkpt>
      <trkpt lat="42.93416" lon="0.29092">
        <ele>1151</ele>
        <time>2017-02-09T09:29:53.121Z</time>
      </trkpt>
      <trkpt lat="42.93416" lon="0.29093">
        <ele>1151</ele>
        <time>2017-02-09T09:29:54.121Z</time>
      </trkpt>
      <trkpt lat="42.93416" lon="0.29094">
        <ele>1150</ele>
        <time>2017-02-09T09:29:55.121Z</time>
      </trkpt>
      <trkpt lat="42.93416" lon="0.29095">
        <ele>1150</ele>
        <time>2017-02-09T09:29:56.121Z</time>
      </trkpt>
      <trkpt lat="42.93416" lon="0.29096">
        <ele>1150</ele>
        <time>2017-02-09T09:29:57.121Z</time>
      </trkpt>
      <trkpt lat="42.93415" lon="0.29096">
        <ele>1150</ele>
        <time>2017-02-09T09:29:58.121Z</time>
      </trkpt>
      <trkpt lat="42.93415" lon="0.29097">
        <ele>1150</ele>
        <time>2017-02-09T09:29:59.121Z</time>
      </trkpt>
      <trkpt lat="42.93415" lon="0.29098">
        <ele>1150</ele>
        <time>2017-02-09T09:30:00.121Z</time>
      </trkpt>
      <trkpt lat="42.93415" lon="0.29098">
        <ele>1150</ele>
        <time>2017-02-09T09:30:01.121Z</time>
      </trkpt>
      <trkpt lat="42.93414" lon="0.29099">
        <ele>1149</ele>
        <time>2017-02-09T09:30:02.121Z</time>
      </trkpt>
      <trkpt lat="42.93414" lon="0.291">
        <ele>1149</ele>
        <time>2017-02-09T09:30:03.121Z</time>
      </trkpt>
      <trkpt lat="42.93414" lon="0.29101">
        <ele>1150</ele>
        <time>2017-02-09T09:30:04.121Z</time>
      </trkpt>
      <trkpt lat="42.93414" lon="0.29102">
        <ele>1149</ele>
        <time>2017-02-09T09:30:05.121Z</time>
      </trkpt>
      <trkpt lat="42.93414" lon="0.29103">
        <ele>1149</ele>
        <time>2017-02-09T09:30:06.121Z</time>
      </trkpt>
      <trkpt lat="42.93414" lon="0.29104">
        <ele>1149</ele>
        <time>2017-02-09T09:30:07.121Z</time>
      </trkpt>
      <trkpt lat="42.93413" lon="0.29105">
        <ele>1149</ele>
        <time>2017-02-09T09:30:08.121Z</time>
      </trkpt>
      <trkpt lat="42.93413" lon="0.29105">
        <ele>1149</ele>
        <time>2017-02-09T09:30:09.121Z</time>
      </trkpt>
      <trkpt lat="42.93413" lon="0.29106">
        <ele>1149</ele>
        <time>2017-02-09T09:30:10.121Z</time>
      </trkpt>
      <trkpt lat="42.93412" lon="0.29107">
        <ele>1149</ele>
        <time>2017-02-09T09:30:11.121Z</time>
      </trkpt>
      <trkpt lat="42.93412" lon="0.29107">
        <ele>1149</ele>
        <time>2017-02-09T09:30:12.121Z</time>
      </trkpt>
      <trkpt lat="42.93411" lon="0.29107">
        <ele>1149</ele>
        <time>2017-02-09T09:30:13.121Z</time>
      </trkpt>
      <trkpt lat="42.93411" lon="0.29108">
        <ele>1149</ele>
        <time>2017-02-09T09:30:14.121Z</time>
      </trkpt>
      <trkpt lat="42.93411" lon="0.29109">
        <ele>1149</ele>
        <time>2017-02-09T09:30:15.121Z</time>
      </trkpt>
      <trkpt lat="42.9341" lon="0.29109">
        <ele>1148</ele>
        <time>2017-02-09T09:30:16.121Z</time>
      </trkpt>
      <trkpt lat="42.9341" lon="0.2911">
        <ele>1148</ele>
        <time>2017-02-09T09:30:17.121Z</time>
      </trkpt>
      <trkpt lat="42.9341" lon="0.2911">
        <ele>1148</ele>
        <time>2017-02-09T09:30:18.121Z</time>
      </trkpt>
      <trkpt lat="42.93409" lon="0.2911">
        <ele>1148</ele>
        <time>2017-02-09T09:30:19.121Z</time>
      </trkpt>
      <trkpt lat="42.93409" lon="0.29111">
        <ele>1148</ele>
        <time>2017-02-09T09:30:20.121Z</time>
      </trkpt>
      <trkpt lat="42.93409" lon="0.29111">
        <ele>1148</ele>
        <time>2017-02-09T09:30:21.121Z</time>
      </trkpt>
      <trkpt lat="42.93408" lon="0.29112">
        <ele>1147</ele>
        <time>2017-02-09T09:30:22.121Z</time>
      </trkpt>
      <trkpt lat="42.93408" lon="0.29113">
        <ele>1148</ele>
        <time>2017-02-09T09:30:23.121Z</time>
      </trkpt>
      <trkpt lat="42.93407" lon="0.29113">
        <ele>1147</ele>
        <time>2017-02-09T09:30:24.121Z</time>
      </trkpt>
      <trkpt lat="42.93407" lon="0.29114">
        <ele>1148</ele>
        <time>2017-02-09T09:30:25.121Z</time>
      </trkpt>
      <trkpt lat="42.93406" lon="0.29115">
        <ele>1148</ele>
        <time>2017-02-09T09:30:26.121Z</time>
      </trkpt>
      <trkpt lat="42.93406" lon="0.29115">
        <ele>1148</ele>
        <time>2017-02-09T09:30:27.121Z</time>
      </trkpt>
      <trkpt lat="42.93405" lon="0.29116">
        <ele>1148</ele>
        <time>2017-02-09T09:30:28.121Z</time>
      </trkpt>
      <trkpt lat="42.93405" lon="0.29116">
        <ele>1148</ele>
        <time>2017-02-09T09:30:29.121Z</time>
      </trkpt>
      <trkpt lat="42.93404" lon="0.29117">
        <ele>1148</ele>
        <time>2017-02-09T09:30:30.121Z</time>
      </trkpt>
      <trkpt lat="42.93404" lon="0.29117">
        <ele>1148</ele>
        <time>2017-02-09T09:30:31.121Z</time>
      </trkpt>
      <trkpt lat="42.93403" lon="0.29117">
        <ele>1148</ele>
        <time>2017-02-09T09:30:32.121Z</time>
      </trkpt>
      <trkpt lat="42.93403" lon="0.29117">
        <ele>1148</ele>
        <time>2017-02-09T09:30:33.121Z</time>
      </trkpt>
      <trkpt lat="42.93402" lon="0.29118">
        <ele>1148</ele>
        <time>2017-02-09T09:30:34.121Z</time>
      </trkpt>
      <trkpt lat="42.93402" lon="0.29118">
        <ele>1148</ele>
        <time>2017-02-09T09:30:35.121Z</time>
      </trkpt>
      <trkpt lat="42.93401" lon="0.29119">
        <ele>1148</ele>
        <time>2017-02-09T09:30:36.121Z</time>
      </trkpt>
      <trkpt lat="42.93401" lon="0.2912">
        <ele>1148</ele>
        <time>2017-02-09T09:30:37.121Z</time>
      </trkpt>
      <trkpt lat="42.934" lon="0.2912">
        <ele>1148</ele>
        <time>2017-02-09T09:30:38.121Z</time>
      </trkpt>
      <trkpt lat="42.93399" lon="0.29121">
        <ele>1148</ele>
        <time>2017-02-09T09:30:39.121Z</time>
      </trkpt>
      <trkpt lat="42.93399" lon="0.29121">
        <ele>1148</ele>
        <time>2017-02-09T09:30:40.121Z</time>
      </trkpt>
      <trkpt lat="42.93398" lon="0.29122">
        <ele>1148</ele>
        <time>2017-02-09T09:30:41.121Z</time>
      </trkpt>
      <trkpt lat="42.93398" lon="0.29122">
        <ele>1148</ele>
        <time>2017-02-09T09:30:42.121Z</time>
      </trkpt>
      <trkpt lat="42.93398" lon="0.29122">
        <ele>1148</ele>
        <time>2017-02-09T09:30:43.121Z</time>
      </trkpt>
      <trkpt lat="42.93398" lon="0.29122">
        <ele>1147</ele>
        <time>2017-02-09T09:30:44.121Z</time>
      </trkpt>
      <trkpt lat="42.93397" lon="0.29122">
        <ele>1147</ele>
        <time>2017-02-09T09:30:45.121Z</time>
      </trkpt>
      <trkpt lat="42.93397" lon="0.29123">
        <ele>1147</ele>
        <time>2017-02-09T09:30:46.121Z</time>
      </trkpt>
      <trkpt lat="42.93397" lon="0.29123">
        <ele>1147</ele>
        <time>2017-02-09T09:30:47.121Z</time>
      </trkpt>
      <trkpt lat="42.93397" lon="0.29122">
        <ele>1147</ele>
        <time>2017-02-09T09:30:48.121Z</time>
      </trkpt>
      <trkpt lat="42.93397" lon="0.29122">
        <ele>1147</ele>
        <time>2017-02-09T09:30:49.121Z</time>
      </trkpt>
      <trkpt lat="42.93397" lon="0.29123">
        <ele>1147</ele>
        <time>2017-02-09T09:30:50.121Z</time>
      </trkpt>
      <trkpt lat="42.93397" lon="0.29123">
        <ele>1147</ele>
        <time>2017-02-09T09:30:51.121Z</time>
      </trkpt>
      <trkpt lat="42.93396" lon="0.29123">
        <ele>1146</ele>
        <time>2017-02-09T09:30:52.121Z</time>
      </trkpt>
      <trkpt lat="42.93396" lon="0.29123">
        <ele>1146</ele>
        <time>2017-02-09T09:30:53.121Z</time>
      </trkpt>
      <trkpt lat="42.93396" lon="0.29123">
        <ele>1145</ele>
        <time>2017-02-09T09:30:54.121Z</time>
      </trkpt>
      <trkpt lat="42.93396" lon="0.29123">
        <ele>1145</ele>
        <time>2017-02-09T09:30:55.121Z</time>
      </trkpt>
      <trkpt lat="42.93397" lon="0.29123">
        <ele>1145</ele>
        <time>2017-02-09T09:30:56.121Z</time>
      </trkpt>
      <trkpt lat="42.93397" lon="0.29123">
        <ele>1145</ele>
        <time>2017-02-09T09:30:57.121Z</time>
      </trkpt>
      <trkpt lat="42.93397" lon="0.29123">
        <ele>1145</ele>
        <time>2017-02-09T09:30:58.121Z</time>
      </trkpt>
      <trkpt lat="42.93397" lon="0.29123">
        <ele>1144</ele>
        <time>2017-02-09T09:30:59.121Z</time>
      </trkpt>
      <trkpt lat="42.93396" lon="0.29121">
        <ele>1143</ele>
        <time>2017-02-09T09:31:00.000Z</time>
      </trkpt>
      <trkpt lat="42.93396" lon="0.29121">
        <ele>1144</ele>
        <time>2017-02-09T09:31:01.000Z</time>
      </trkpt>
      <trkpt lat="42.93396" lon="0.29121">
        <ele>1143</ele>
        <time>2017-02-09T09:31:02.000Z</time>
      </trkpt>
      <trkpt lat="42.93396" lon="0.29121">
        <ele>1143</ele>
        <time>2017-02-09T09:31:03.000Z</time>
      </trkpt>
      <trkpt lat="42.93396" lon="0.29121">
        <ele>1143</ele>
        <time>2017-02-09T09:31:04.000Z</time>
      </trkpt>
      <trkpt lat="42.93396" lon="0.29121">
        <ele>1143</ele>
        <time>2017-02-09T09:31:05.000Z</time>
      </trkpt>
      <trkpt lat="42.93396" lon="0.29121">
        <ele>1143</ele>
        <time>2017-02-09T09:31:06.000Z</time>
      </trkpt>
      <trkpt lat="42.93394" lon="0.29122">
        <ele>1143</ele>
        <time>2017-02-09T09:31:07.004Z</time>
      </trkpt>
      <trkpt lat="42.93394" lon="0.29122">
        <ele>1143</ele>
        <time>2017-02-09T09:31:08.004Z</time>
      </trkpt>
      <trkpt lat="42.93393" lon="0.29123">
        <ele>1143</ele>
        <time>2017-02-09T09:31:09.004Z</time>
      </trkpt>
      <trkpt lat="42.93393" lon="0.29123">
        <ele>1143</ele>
        <time>2017-02-09T09:31:10.004Z</time>
      </trkpt>
      <trkpt lat="42.93392" lon="0.29124">
        <ele>1143</ele>
        <time>2017-02-09T09:31:11.004Z</time>
      </trkpt>
      <trkpt lat="42.93391" lon="0.29124">
        <ele>1143</ele>
        <time>2017-02-09T09:31:12.004Z</time>
      </trkpt>
      <trkpt lat="42.93391" lon="0.29125">
        <ele>1142</ele>
        <time>2017-02-09T09:31:13.004Z</time>
      </trkpt>
      <trkpt lat="42.9339" lon="0.29125">
        <ele>1143</ele>
        <time>2017-02-09T09:31:14.004Z</time>
      </trkpt>
      <trkpt lat="42.93389" lon="0.29125">
        <ele>1143</ele>
        <time>2017-02-09T09:31:15.004Z</time>
      </trkpt>
      <trkpt lat="42.93389" lon="0.29126">
        <ele>1143</ele>
        <time>2017-02-09T09:31:16.004Z</time>
      </trkpt>
      <trkpt lat="42.93388" lon="0.29126">
        <ele>1143</ele>
        <time>2017-02-09T09:31:17.004Z</time>
      </trkpt>
      <trkpt lat="42.93388" lon="0.29126">
        <ele>1143</ele>
        <time>2017-02-09T09:31:18.004Z</time>
      </trkpt>
      <trkpt lat="42.93387" lon="0.29127">
        <ele>1143</ele>
        <time>2017-02-09T09:31:19.004Z</time>
      </trkpt>
      <trkpt lat="42.93386" lon="0.29127">
        <ele>1143</ele>
        <time>2017-02-09T09:31:20.004Z</time>
      </trkpt>
      <trkpt lat="42.93386" lon="0.29128">
        <ele>1143</ele>
        <time>2017-02-09T09:31:21.004Z</time>
      </trkpt>
      <trkpt lat="42.93385" lon="0.29128">
        <ele>1143</ele>
        <time>2017-02-09T09:31:22.004Z</time>
      </trkpt>
      <trkpt lat="42.93385" lon="0.29128">
        <ele>1143</ele>
        <time>2017-02-09T09:31:23.004Z</time>
      </trkpt>
      <trkpt lat="42.93384" lon="0.29129">
        <ele>1143</ele>
        <time>2017-02-09T09:31:24.004Z</time>
      </trkpt>
      <trkpt lat="42.93383" lon="0.29129">
        <ele>1143</ele>
        <time>2017-02-09T09:31:25.004Z</time>
      </trkpt>
      <trkpt lat="42.93383" lon="0.29129">
        <ele>1143</ele>
        <time>2017-02-09T09:31:26.004Z</time>
      </trkpt>
      <trkpt lat="42.93382" lon="0.2913">
        <ele>1143</ele>
        <time>2017-02-09T09:31:27.004Z</time>
      </trkpt>
      <trkpt lat="42.93381" lon="0.2913">
        <ele>1143</ele>
        <time>2017-02-09T09:31:28.004Z</time>
      </trkpt>
      <trkpt lat="42.93381" lon="0.29131">
        <ele>1144</ele>
        <time>2017-02-09T09:31:29.004Z</time>
      </trkpt>
      <trkpt lat="42.9338" lon="0.29131">
        <ele>1143</ele>
        <time>2017-02-09T09:31:30.004Z</time>
      </trkpt>
      <trkpt lat="42.9338" lon="0.29131">
        <ele>1144</ele>
        <time>2017-02-09T09:31:31.004Z</time>
      </trkpt>
      <trkpt lat="42.93379" lon="0.29132">
        <ele>1144</ele>
        <time>2017-02-09T09:31:32.004Z</time>
      </trkpt>
      <trkpt lat="42.93378" lon="0.29132">
        <ele>1144</ele>
        <time>2017-02-09T09:31:33.004Z</time>
      </trkpt>
      <trkpt lat="42.93378" lon="0.29132">
        <ele>1144</ele>
        <time>2017-02-09T09:31:34.004Z</time>
      </trkpt>
      <trkpt lat="42.93377" lon="0.29133">
        <ele>1143</ele>
        <time>2017-02-09T09:31:35.004Z</time>
      </trkpt>
      <trkpt lat="42.93376" lon="0.29133">
        <ele>1143</ele>
        <time>2017-02-09T09:31:36.004Z</time>
      </trkpt>
      <trkpt lat="42.93376" lon="0.29133">
        <ele>1143</ele>
        <time>2017-02-09T09:31:37.004Z</time>
      </trkpt>
      <trkpt lat="42.93375" lon="0.29133">
        <ele>1144</ele>
        <time>2017-02-09T09:31:38.004Z</time>
      </trkpt>
      <trkpt lat="42.93374" lon="0.29134">
        <ele>1144</ele>
        <time>2017-02-09T09:31:39.004Z</time>
      </trkpt>
      <trkpt lat="42.93374" lon="0.29134">
        <ele>1144</ele>
        <time>2017-02-09T09:31:40.004Z</time>
      </trkpt>
      <trkpt lat="42.93373" lon="0.29134">
        <ele>1144</ele>
        <time>2017-02-09T09:31:41.004Z</time>
      </trkpt>
      <trkpt lat="42.93372" lon="0.29135">
        <ele>1144</ele>
        <time>2017-02-09T09:31:42.004Z</time>
      </trkpt>
      <trkpt lat="42.93372" lon="0.29135">
        <ele>1144</ele>
        <time>2017-02-09T09:31:43.004Z</time>
      </trkpt>
      <trkpt lat="42.93371" lon="0.29135">
        <ele>1144</ele>
        <time>2017-02-09T09:31:44.004Z</time>
      </trkpt>
      <trkpt lat="42.93371" lon="0.29135">
        <ele>1144</ele>
        <time>2017-02-09T09:31:45.004Z</time>
      </trkpt>
      <trkpt lat="42.9337" lon="0.29135">
        <ele>1144</ele>
        <time>2017-02-09T09:31:46.004Z</time>
      </trkpt>
      <trkpt lat="42.93369" lon="0.29135">
        <ele>1145</ele>
        <time>2017-02-09T09:31:47.004Z</time>
      </trkpt>
      <trkpt lat="42.93368" lon="0.29136">
        <ele>1145</ele>
        <time>2017-02-09T09:31:48.004Z</time>
      </trkpt>
      <trkpt lat="42.93368" lon="0.29136">
        <ele>1145</ele>
        <time>2017-02-09T09:31:49.004Z</time>
      </trkpt>
      <trkpt lat="42.93367" lon="0.29136">
        <ele>1145</ele>
        <time>2017-02-09T09:31:50.004Z</time>
      </trkpt>
      <trkpt lat="42.93366" lon="0.29136">
        <ele>1145</ele>
        <time>2017-02-09T09:31:51.004Z</time>
      </trkpt>
      <trkpt lat="42.93366" lon="0.29137">
        <ele>1145</ele>
        <time>2017-02-09T09:31:52.004Z</time>
      </trkpt>
      <trkpt lat="42.93365" lon="0.29137">
        <ele>1145</ele>
        <time>2017-02-09T09:31:53.004Z</time>
      </trkpt>
      <trkpt lat="42.93364" lon="0.29137">
        <ele>1146</ele>
        <time>2017-02-09T09:31:54.004Z</time>
      </trkpt>
      <trkpt lat="42.93364" lon="0.29137">
        <ele>1146</ele>
        <time>2017-02-09T09:31:55.004Z</time>
      </trkpt>
      <trkpt lat="42.93363" lon="0.29137">
        <ele>1146</ele>
        <time>2017-02-09T09:31:56.004Z</time>
      </trkpt>
      <trkpt lat="42.93363" lon="0.29137">
        <ele>1146</ele>
        <time>2017-02-09T09:31:57.004Z</time>
      </trkpt>
      <trkpt lat="42.93362" lon="0.29137">
        <ele>1146</ele>
        <time>2017-02-09T09:31:58.004Z</time>
      </trkpt>
      <trkpt lat="42.93361" lon="0.29137">
        <ele>1146</ele>
        <time>2017-02-09T09:31:59.004Z</time>
      </trkpt>
      <trkpt lat="42.93361" lon="0.29137">
        <ele>1146</ele>
        <time>2017-02-09T09:32:00.004Z</time>
      </trkpt>
      <trkpt lat="42.9336" lon="0.29137">
        <ele>1146</ele>
        <time>2017-02-09T09:32:01.004Z</time>
      </trkpt>
      <trkpt lat="42.93359" lon="0.29137">
        <ele>1146</ele>
        <time>2017-02-09T09:32:02.004Z</time>
      </trkpt>
      <trkpt lat="42.93359" lon="0.29137">
        <ele>1146</ele>
        <time>2017-02-09T09:32:03.004Z</time>
      </trkpt>
      <trkpt lat="42.93358" lon="0.29137">
        <ele>1146</ele>
        <time>2017-02-09T09:32:04.004Z</time>
      </trkpt>
      <trkpt lat="42.93358" lon="0.29137">
        <ele>1146</ele>
        <time>2017-02-09T09:32:05.004Z</time>
      </trkpt>
      <trkpt lat="42.93357" lon="0.29138">
        <ele>1146</ele>
        <time>2017-02-09T09:32:06.004Z</time>
      </trkpt>
      <trkpt lat="42.93357" lon="0.29138">
        <ele>1146</ele>
        <time>2017-02-09T09:32:07.004Z</time>
      </trkpt>
      <trkpt lat="42.93356" lon="0.29138">
        <ele>1146</ele>
        <time>2017-02-09T09:32:08.004Z</time>
      </trkpt>
      <trkpt lat="42.93355" lon="0.29138">
        <ele>1146</ele>
        <time>2017-02-09T09:32:09.004Z</time>
      </trkpt>
      <trkpt lat="42.93355" lon="0.29138">
        <ele>1146</ele>
        <time>2017-02-09T09:32:10.004Z</time>
      </trkpt>
      <trkpt lat="42.93354" lon="0.29138">
        <ele>1146</ele>
        <time>2017-02-09T09:32:11.004Z</time>
      </trkpt>
      <trkpt lat="42.93353" lon="0.29139">
        <ele>1146</ele>
        <time>2017-02-09T09:32:12.004Z</time>
      </trkpt>
      <trkpt lat="42.93353" lon="0.29139">
        <ele>1146</ele>
        <time>2017-02-09T09:32:13.004Z</time>
      </trkpt>
      <trkpt lat="42.93352" lon="0.29139">
        <ele>1145</ele>
        <time>2017-02-09T09:32:14.004Z</time>
      </trkpt>
      <trkpt lat="42.93352" lon="0.29139">
        <ele>1146</ele>
        <time>2017-02-09T09:32:15.004Z</time>
      </trkpt>
      <trkpt lat="42.93351" lon="0.29139">
        <ele>1146</ele>
        <time>2017-02-09T09:32:16.004Z</time>
      </trkpt>
      <trkpt lat="42.93351" lon="0.29139">
        <ele>1146</ele>
        <time>2017-02-09T09:32:17.004Z</time>
      </trkpt>
      <trkpt lat="42.9335" lon="0.29139">
        <ele>1146</ele>
        <time>2017-02-09T09:32:18.004Z</time>
      </trkpt>
      <trkpt lat="42.93349" lon="0.29139">
        <ele>1146</ele>
        <time>2017-02-09T09:32:19.004Z</time>
      </trkpt>
      <trkpt lat="42.93349" lon="0.29138">
        <ele>1146</ele>
        <time>2017-02-09T09:32:20.004Z</time>
      </trkpt>
      <trkpt lat="42.93348" lon="0.29138">
        <ele>1145</ele>
        <time>2017-02-09T09:32:21.004Z</time>
      </trkpt>
      <trkpt lat="42.93348" lon="0.29138">
        <ele>1145</ele>
        <time>2017-02-09T09:32:22.004Z</time>
      </trkpt>
      <trkpt lat="42.93347" lon="0.29138">
        <ele>1145</ele>
        <time>2017-02-09T09:32:23.004Z</time>
      </trkpt>
      <trkpt lat="42.93347" lon="0.29138">
        <ele>1145</ele>
        <time>2017-02-09T09:32:24.004Z</time>
      </trkpt>
      <trkpt lat="42.93347" lon="0.29138">
        <ele>1145</ele>
        <time>2017-02-09T09:32:25.004Z</time>
      </trkpt>
      <trkpt lat="42.93347" lon="0.29137">
        <ele>1145</ele>
        <time>2017-02-09T09:32:26.004Z</time>
      </trkpt>
      <trkpt lat="42.93346" lon="0.29137">
        <ele>1145</ele>
        <time>2017-02-09T09:32:27.004Z</time>
      </trkpt>
      <trkpt lat="42.93346" lon="0.29137">
        <ele>1145</ele>
        <time>2017-02-09T09:32:28.004Z</time>
      </trkpt>
      <trkpt lat="42.93345" lon="0.29136">
        <ele>1145</ele>
        <time>2017-02-09T09:32:29.004Z</time>
      </trkpt>
      <trkpt lat="42.93345" lon="0.29136">
        <ele>1145</ele>
        <time>2017-02-09T09:32:30.004Z</time>
      </trkpt>
      <trkpt lat="42.93344" lon="0.29136">
        <ele>1145</ele>
        <time>2017-02-09T09:32:31.004Z</time>
      </trkpt>
      <trkpt lat="42.93343" lon="0.29135">
        <ele>1145</ele>
        <time>2017-02-09T09:32:32.004Z</time>
      </trkpt>
      <trkpt lat="42.93343" lon="0.29135">
        <ele>1145</ele>
        <time>2017-02-09T09:32:33.004Z</time>
      </trkpt>
      <trkpt lat="42.93342" lon="0.29135">
        <ele>1145</ele>
        <time>2017-02-09T09:32:34.004Z</time>
      </trkpt>
      <trkpt lat="42.93341" lon="0.29135">
        <ele>1145</ele>
        <time>2017-02-09T09:32:35.004Z</time>
      </trkpt>
      <trkpt lat="42.93341" lon="0.29134">
        <ele>1145</ele>
        <time>2017-02-09T09:32:36.004Z</time>
      </trkpt>
      <trkpt lat="42.9334" lon="0.29134">
        <ele>1145</ele>
        <time>2017-02-09T09:32:37.004Z</time>
      </trkpt>
      <trkpt lat="42.93339" lon="0.29135">
        <ele>1145</ele>
        <time>2017-02-09T09:32:38.004Z</time>
      </trkpt>
      <trkpt lat="42.93339" lon="0.29135">
        <ele>1145</ele>
        <time>2017-02-09T09:32:39.004Z</time>
      </trkpt>
      <trkpt lat="42.93338" lon="0.29135">
        <ele>1145</ele>
        <time>2017-02-09T09:32:40.004Z</time>
      </trkpt>
      <trkpt lat="42.93338" lon="0.29135">
        <ele>1145</ele>
        <time>2017-02-09T09:32:41.004Z</time>
      </trkpt>
      <trkpt lat="42.93337" lon="0.29135">
        <ele>1145</ele>
        <time>2017-02-09T09:32:42.004Z</time>
      </trkpt>
      <trkpt lat="42.93336" lon="0.29135">
        <ele>1145</ele>
        <time>2017-02-09T09:32:43.004Z</time>
      </trkpt>
      <trkpt lat="42.93335" lon="0.29135">
        <ele>1145</ele>
        <time>2017-02-09T09:32:44.004Z</time>
      </trkpt>
      <trkpt lat="42.93335" lon="0.29136">
        <ele>1145</ele>
        <time>2017-02-09T09:32:45.004Z</time>
      </trkpt>
      <trkpt lat="42.93334" lon="0.29136">
        <ele>1146</ele>
        <time>2017-02-09T09:32:46.004Z</time>
      </trkpt>
      <trkpt lat="42.93333" lon="0.29136">
        <ele>1146</ele>
        <time>2017-02-09T09:32:47.004Z</time>
      </trkpt>
      <trkpt lat="42.93333" lon="0.29136">
        <ele>1146</ele>
        <time>2017-02-09T09:32:48.004Z</time>
      </trkpt>
      <trkpt lat="42.93332" lon="0.29137">
        <ele>1146</ele>
        <time>2017-02-09T09:32:49.004Z</time>
      </trkpt>
      <trkpt lat="42.93331" lon="0.29137">
        <ele>1146</ele>
        <time>2017-02-09T09:32:50.004Z</time>
      </trkpt>
      <trkpt lat="42.93331" lon="0.29137">
        <ele>1146</ele>
        <time>2017-02-09T09:32:51.004Z</time>
      </trkpt>
      <trkpt lat="42.9333" lon="0.29138">
        <ele>1146</ele>
        <time>2017-02-09T09:32:52.004Z</time>
      </trkpt>
      <trkpt lat="42.93329" lon="0.29138">
        <ele>1146</ele>
        <time>2017-02-09T09:32:53.004Z</time>
      </trkpt>
      <trkpt lat="42.93329" lon="0.29138">
        <ele>1146</ele>
        <time>2017-02-09T09:32:54.004Z</time>
      </trkpt>
      <trkpt lat="42.93328" lon="0.29139">
        <ele>1146</ele>
        <time>2017-02-09T09:32:55.004Z</time>
      </trkpt>
      <trkpt lat="42.93327" lon="0.29139">
        <ele>1146</ele>
        <time>2017-02-09T09:32:56.004Z</time>
      </trkpt>
      <trkpt lat="42.93326" lon="0.2914">
        <ele>1146</ele>
        <time>2017-02-09T09:32:57.004Z</time>
      </trkpt>
      <trkpt lat="42.93326" lon="0.2914">
        <ele>1146</ele>
        <time>2017-02-09T09:32:58.004Z</time>
      </trkpt>
      <trkpt lat="42.93325" lon="0.29141">
        <ele>1147</ele>
        <time>2017-02-09T09:32:59.004Z</time>
      </trkpt>
      <trkpt lat="42.93324" lon="0.29141">
        <ele>1146</ele>
        <time>2017-02-09T09:33:00.004Z</time>
      </trkpt>
      <trkpt lat="42.93323" lon="0.29141">
        <ele>1147</ele>
        <time>2017-02-09T09:33:01.004Z</time>
      </trkpt>
      <trkpt lat="42.93323" lon="0.29142">
        <ele>1147</ele>
        <time>2017-02-09T09:33:02.004Z</time>
      </trkpt>
      <trkpt lat="42.93322" lon="0.29142">
        <ele>1147</ele>
        <time>2017-02-09T09:33:03.004Z</time>
      </trkpt>
      <trkpt lat="42.93321" lon="0.29143">
        <ele>1147</ele>
        <time>2017-02-09T09:33:04.004Z</time>
      </trkpt>
      <trkpt lat="42.93321" lon="0.29143">
        <ele>1147</ele>
        <time>2017-02-09T09:33:05.004Z</time>
      </trkpt>
      <trkpt lat="42.9332" lon="0.29143">
        <ele>1147</ele>
        <time>2017-02-09T09:33:06.004Z</time>
      </trkpt>
      <trkpt lat="42.9332" lon="0.29143">
        <ele>1147</ele>
        <time>2017-02-09T09:33:07.004Z</time>
      </trkpt>
      <trkpt lat="42.93319" lon="0.29144">
        <ele>1147</ele>
        <time>2017-02-09T09:33:08.004Z</time>
      </trkpt>
      <trkpt lat="42.93318" lon="0.29144">
        <ele>1147</ele>
        <time>2017-02-09T09:33:09.004Z</time>
      </trkpt>
      <trkpt lat="42.93318" lon="0.29144">
        <ele>1147</ele>
        <time>2017-02-09T09:33:10.004Z</time>
      </trkpt>
      <trkpt lat="42.93317" lon="0.29145">
        <ele>1147</ele>
        <time>2017-02-09T09:33:11.004Z</time>
      </trkpt>
      <trkpt lat="42.93316" lon="0.29145">
        <ele>1147</ele>
        <time>2017-02-09T09:33:12.004Z</time>
      </trkpt>
      <trkpt lat="42.93315" lon="0.29145">
        <ele>1147</ele>
        <time>2017-02-09T09:33:13.004Z</time>
      </trkpt>
      <trkpt lat="42.93315" lon="0.29146">
        <ele>1147</ele>
        <time>2017-02-09T09:33:14.004Z</time>
      </trkpt>
      <trkpt lat="42.93314" lon="0.29146">
        <ele>1148</ele>
        <time>2017-02-09T09:33:15.004Z</time>
      </trkpt>
      <trkpt lat="42.93313" lon="0.29146">
        <ele>1148</ele>
        <time>2017-02-09T09:33:16.004Z</time>
      </trkpt>
      <trkpt lat="42.93312" lon="0.29146">
        <ele>1148</ele>
        <time>2017-02-09T09:33:17.004Z</time>
      </trkpt>
      <trkpt lat="42.93312" lon="0.29147">
        <ele>1148</ele>
        <time>2017-02-09T09:33:18.004Z</time>
      </trkpt>
      <trkpt lat="42.93311" lon="0.29147">
        <ele>1147</ele>
        <time>2017-02-09T09:33:19.004Z</time>
      </trkpt>
      <trkpt lat="42.9331" lon="0.29147">
        <ele>1148</ele>
        <time>2017-02-09T09:33:20.004Z</time>
      </trkpt>
      <trkpt lat="42.9331" lon="0.29148">
        <ele>1148</ele>
        <time>2017-02-09T09:33:21.004Z</time>
      </trkpt>
      <trkpt lat="42.93309" lon="0.29148">
        <ele>1148</ele>
        <time>2017-02-09T09:33:22.004Z</time>
      </trkpt>
      <trkpt lat="42.93308" lon="0.29148">
        <ele>1148</ele>
        <time>2017-02-09T09:33:23.004Z</time>
      </trkpt>
      <trkpt lat="42.93308" lon="0.29148">
        <ele>1148</ele>
        <time>2017-02-09T09:33:24.004Z</time>
      </trkpt>
      <trkpt lat="42.93307" lon="0.29149">
        <ele>1148</ele>
        <time>2017-02-09T09:33:25.004Z</time>
      </trkpt>
      <trkpt lat="42.93306" lon="0.29149">
        <ele>1148</ele>
        <time>2017-02-09T09:33:26.004Z</time>
      </trkpt>
      <trkpt lat="42.93306" lon="0.29149">
        <ele>1148</ele>
        <time>2017-02-09T09:33:27.004Z</time>
      </trkpt>
      <trkpt lat="42.93305" lon="0.29149">
        <ele>1148</ele>
        <time>2017-02-09T09:33:28.004Z</time>
      </trkpt>
      <trkpt lat="42.93305" lon="0.29149">
        <ele>1147</ele>
        <time>2017-02-09T09:33:29.004Z</time>
      </trkpt>
      <trkpt lat="42.93305" lon="0.29148">
        <ele>1147</ele>
        <time>2017-02-09T09:33:30.004Z</time>
      </trkpt>
      <trkpt lat="42.93305" lon="0.29148">
        <ele>1147</ele>
        <time>2017-02-09T09:33:31.004Z</time>
      </trkpt>
      <trkpt lat="42.93305" lon="0.29148">
        <ele>1148</ele>
        <time>2017-02-09T09:33:32.004Z</time>
      </trkpt>
      <trkpt lat="42.93305" lon="0.29148">
        <ele>1147</ele>
        <time>2017-02-09T09:33:33.004Z</time>
      </trkpt>
      <trkpt lat="42.93305" lon="0.29148">
        <ele>1147</ele>
        <time>2017-02-09T09:33:34.004Z</time>
      </trkpt>
      <trkpt lat="42.93305" lon="0.29148">
        <ele>1146</ele>
        <time>2017-02-09T09:33:35.001Z</time>
      </trkpt>
      <trkpt lat="42.93305" lon="0.29148">
        <ele>1147</ele>
        <time>2017-02-09T09:33:36.001Z</time>
      </trkpt>
      <trkpt lat="42.93304" lon="0.29148">
        <ele>1147</ele>
        <time>2017-02-09T09:33:37.001Z</time>
      </trkpt>
      <trkpt lat="42.93303" lon="0.29148">
        <ele>1146</ele>
        <time>2017-02-09T09:33:38.001Z</time>
      </trkpt>
      <trkpt lat="42.93302" lon="0.29148">
        <ele>1147</ele>
        <time>2017-02-09T09:33:39.001Z</time>
      </trkpt>
      <trkpt lat="42.93301" lon="0.29148">
        <ele>1147</ele>
        <time>2017-02-09T09:33:40.001Z</time>
      </trkpt>
      <trkpt lat="42.93301" lon="0.29147">
        <ele>1147</ele>
        <time>2017-02-09T09:33:41.001Z</time>
      </trkpt>
      <trkpt lat="42.933" lon="0.29147">
        <ele>1147</ele>
        <time>2017-02-09T09:33:42.001Z</time>
      </trkpt>
      <trkpt lat="42.93299" lon="0.29147">
        <ele>1147</ele>
        <time>2017-02-09T09:33:43.001Z</time>
      </trkpt>
      <trkpt lat="42.93299" lon="0.29147">
        <ele>1147</ele>
        <time>2017-02-09T09:33:44.001Z</time>
      </trkpt>
      <trkpt lat="42.93298" lon="0.29147">
        <ele>1147</ele>
        <time>2017-02-09T09:33:45.001Z</time>
      </trkpt>
      <trkpt lat="42.93297" lon="0.29146">
        <ele>1147</ele>
        <time>2017-02-09T09:33:46.001Z</time>
      </trkpt>
      <trkpt lat="42.93297" lon="0.29146">
        <ele>1147</ele>
        <time>2017-02-09T09:33:47.001Z</time>
      </trkpt>
      <trkpt lat="42.93296" lon="0.29146">
        <ele>1147</ele>
        <time>2017-02-09T09:33:48.001Z</time>
      </trkpt>
      <trkpt lat="42.93295" lon="0.29146">
        <ele>1147</ele>
        <time>2017-02-09T09:33:49.001Z</time>
      </trkpt>
      <trkpt lat="42.93295" lon="0.29146">
        <ele>1147</ele>
        <time>2017-02-09T09:33:50.001Z</time>
      </trkpt>
      <trkpt lat="42.93294" lon="0.29145">
        <ele>1147</ele>
        <time>2017-02-09T09:33:51.001Z</time>
      </trkpt>
      <trkpt lat="42.93293" lon="0.29145">
        <ele>1147</ele>
        <time>2017-02-09T09:33:52.001Z</time>
      </trkpt>
      <trkpt lat="42.93293" lon="0.29145">
        <ele>1147</ele>
        <time>2017-02-09T09:33:53.001Z</time>
      </trkpt>
      <trkpt lat="42.93292" lon="0.29145">
        <ele>1147</ele>
        <time>2017-02-09T09:33:54.001Z</time>
      </trkpt>
      <trkpt lat="42.93292" lon="0.29144">
        <ele>1147</ele>
        <time>2017-02-09T09:33:55.001Z</time>
      </trkpt>
      <trkpt lat="42.93292" lon="0.29144">
        <ele>1147</ele>
        <time>2017-02-09T09:33:56.001Z</time>
      </trkpt>
      <trkpt lat="42.93291" lon="0.29144">
        <ele>1147</ele>
        <time>2017-02-09T09:33:57.001Z</time>
      </trkpt>
      <trkpt lat="42.9329" lon="0.29144">
        <ele>1147</ele>
        <time>2017-02-09T09:33:58.001Z</time>
      </trkpt>
      <trkpt lat="42.9329" lon="0.29144">
        <ele>1147</ele>
        <time>2017-02-09T09:33:59.001Z</time>
      </trkpt>
      <trkpt lat="42.93289" lon="0.29143">
        <ele>1147</ele>
        <time>2017-02-09T09:34:00.001Z</time>
      </trkpt>
      <trkpt lat="42.93288" lon="0.29143">
        <ele>1147</ele>
        <time>2017-02-09T09:34:01.001Z</time>
      </trkpt>
      <trkpt lat="42.93288" lon="0.29143">
        <ele>1147</ele>
        <time>2017-02-09T09:34:02.001Z</time>
      </trkpt>
      <trkpt lat="42.93287" lon="0.29143">
        <ele>1148</ele>
        <time>2017-02-09T09:34:03.001Z</time>
      </trkpt>
      <trkpt lat="42.93286" lon="0.29142">
        <ele>1148</ele>
        <time>2017-02-09T09:34:04.001Z</time>
      </trkpt>
      <trkpt lat="42.93286" lon="0.29142">
        <ele>1148</ele>
        <time>2017-02-09T09:34:05.001Z</time>
      </trkpt>
      <trkpt lat="42.93285" lon="0.29142">
        <ele>1148</ele>
        <time>2017-02-09T09:34:06.001Z</time>
      </trkpt>
      <trkpt lat="42.93285" lon="0.29141">
        <ele>1148</ele>
        <time>2017-02-09T09:34:07.001Z</time>
      </trkpt>
      <trkpt lat="42.93284" lon="0.29141">
        <ele>1148</ele>
        <time>2017-02-09T09:34:08.001Z</time>
      </trkpt>
      <trkpt lat="42.93283" lon="0.2914">
        <ele>1148</ele>
        <time>2017-02-09T09:34:09.001Z</time>
      </trkpt>
      <trkpt lat="42.93283" lon="0.2914">
        <ele>1148</ele>
        <time>2017-02-09T09:34:10.001Z</time>
      </trkpt>
      <trkpt lat="42.93282" lon="0.29139">
        <ele>1148</ele>
        <time>2017-02-09T09:34:11.001Z</time>
      </trkpt>
      <trkpt lat="42.93282" lon="0.29139">
        <ele>1148</ele>
        <time>2017-02-09T09:34:12.001Z</time>
      </trkpt>
      <trkpt lat="42.93281" lon="0.29138">
        <ele>1147</ele>
        <time>2017-02-09T09:34:13.001Z</time>
      </trkpt>
      <trkpt lat="42.93281" lon="0.29138">
        <ele>1147</ele>
        <time>2017-02-09T09:34:14.001Z</time>
      </trkpt>
      <trkpt lat="42.9328" lon="0.29137">
        <ele>1147</ele>
        <time>2017-02-09T09:34:15.001Z</time>
      </trkpt>
      <trkpt lat="42.9328" lon="0.29137">
        <ele>1148</ele>
        <time>2017-02-09T09:34:16.001Z</time>
      </trkpt>
      <trkpt lat="42.93279" lon="0.29136">
        <ele>1148</ele>
        <time>2017-02-09T09:34:17.001Z</time>
      </trkpt>
      <trkpt lat="42.93278" lon="0.29136">
        <ele>1148</ele>
        <time>2017-02-09T09:34:18.001Z</time>
      </trkpt>
      <trkpt lat="42.93278" lon="0.29135">
        <ele>1148</ele>
        <time>2017-02-09T09:34:19.001Z</time>
      </trkpt>
      <trkpt lat="42.93277" lon="0.29135">
        <ele>1148</ele>
        <time>2017-02-09T09:34:20.001Z</time>
      </trkpt>
      <trkpt lat="42.93277" lon="0.29134">
        <ele>1148</ele>
        <time>2017-02-09T09:34:21.001Z</time>
      </trkpt>
      <trkpt lat="42.93276" lon="0.29134">
        <ele>1148</ele>
        <time>2017-02-09T09:34:22.001Z</time>
      </trkpt>
      <trkpt lat="42.93275" lon="0.29133">
        <ele>1148</ele>
        <time>2017-02-09T09:34:23.001Z</time>
      </trkpt>
      <trkpt lat="42.93275" lon="0.29133">
        <ele>1148</ele>
        <time>2017-02-09T09:34:24.001Z</time>
      </trkpt>
      <trkpt lat="42.93274" lon="0.29132">
        <ele>1148</ele>
        <time>2017-02-09T09:34:25.001Z</time>
      </trkpt>
      <trkpt lat="42.93274" lon="0.29132">
        <ele>1148</ele>
        <time>2017-02-09T09:34:26.001Z</time>
      </trkpt>
      <trkpt lat="42.93273" lon="0.29131">
        <ele>1148</ele>
        <time>2017-02-09T09:34:27.001Z</time>
      </trkpt>
      <trkpt lat="42.93273" lon="0.29131">
        <ele>1148</ele>
        <time>2017-02-09T09:34:28.001Z</time>
      </trkpt>
      <trkpt lat="42.93272" lon="0.2913">
        <ele>1148</ele>
        <time>2017-02-09T09:34:29.001Z</time>
      </trkpt>
      <trkpt lat="42.93271" lon="0.29129">
        <ele>1148</ele>
        <time>2017-02-09T09:34:30.001Z</time>
      </trkpt>
      <trkpt lat="42.93271" lon="0.29129">
        <ele>1148</ele>
        <time>2017-02-09T09:34:31.001Z</time>
      </trkpt>
      <trkpt lat="42.9327" lon="0.29128">
        <ele>1148</ele>
        <time>2017-02-09T09:34:32.001Z</time>
      </trkpt>
      <trkpt lat="42.9327" lon="0.29128">
        <ele>1148</ele>
        <time>2017-02-09T09:34:33.001Z</time>
      </trkpt>
      <trkpt lat="42.93269" lon="0.29127">
        <ele>1148</ele>
        <time>2017-02-09T09:34:34.001Z</time>
      </trkpt>
      <trkpt lat="42.93268" lon="0.29126">
        <ele>1149</ele>
        <time>2017-02-09T09:34:35.001Z</time>
      </trkpt>
      <trkpt lat="42.93268" lon="0.29126">
        <ele>1148</ele>
        <time>2017-02-09T09:34:36.001Z</time>
      </trkpt>
      <trkpt lat="42.93267" lon="0.29125">
        <ele>1148</ele>
        <time>2017-02-09T09:34:37.001Z</time>
      </trkpt>
      <trkpt lat="42.93267" lon="0.29124">
        <ele>1149</ele>
        <time>2017-02-09T09:34:38.001Z</time>
      </trkpt>
      <trkpt lat="42.93266" lon="0.29124">
        <ele>1149</ele>
        <time>2017-02-09T09:34:39.001Z</time>
      </trkpt>
      <trkpt lat="42.93266" lon="0.29123">
        <ele>1149</ele>
        <time>2017-02-09T09:34:40.001Z</time>
      </trkpt>
      <trkpt lat="42.93265" lon="0.29122">
        <ele>1149</ele>
        <time>2017-02-09T09:34:41.001Z</time>
      </trkpt>
      <trkpt lat="42.93265" lon="0.29121">
        <ele>1149</ele>
        <time>2017-02-09T09:34:42.001Z</time>
      </trkpt>
      <trkpt lat="42.93264" lon="0.29121">
        <ele>1149</ele>
        <time>2017-02-09T09:34:43.001Z</time>
      </trkpt>
      <trkpt lat="42.93264" lon="0.2912">
        <ele>1149</ele>
        <time>2017-02-09T09:34:44.001Z</time>
      </trkpt>
      <trkpt lat="42.93263" lon="0.2912">
        <ele>1149</ele>
        <time>2017-02-09T09:34:45.001Z</time>
      </trkpt>
      <trkpt lat="42.93262" lon="0.29119">
        <ele>1149</ele>
        <time>2017-02-09T09:34:46.001Z</time>
      </trkpt>
      <trkpt lat="42.93262" lon="0.29118">
        <ele>1149</ele>
        <time>2017-02-09T09:34:47.001Z</time>
      </trkpt>
      <trkpt lat="42.93261" lon="0.29118">
        <ele>1149</ele>
        <time>2017-02-09T09:34:48.001Z</time>
      </trkpt>
      <trkpt lat="42.93261" lon="0.29117">
        <ele>1149</ele>
        <time>2017-02-09T09:34:49.001Z</time>
      </trkpt>
      <trkpt lat="42.9326" lon="0.29117">
        <ele>1149</ele>
        <time>2017-02-09T09:34:50.001Z</time>
      </trkpt>
      <trkpt lat="42.9326" lon="0.29116">
        <ele>1149</ele>
        <time>2017-02-09T09:34:51.001Z</time>
      </trkpt>
      <trkpt lat="42.93259" lon="0.29115">
        <ele>1149</ele>
        <time>2017-02-09T09:34:52.001Z</time>
      </trkpt>
      <trkpt lat="42.93259" lon="0.29115">
        <ele>1149</ele>
        <time>2017-02-09T09:34:53.001Z</time>
      </trkpt>
      <trkpt lat="42.93258" lon="0.29114">
        <ele>1149</ele>
        <time>2017-02-09T09:34:54.001Z</time>
      </trkpt>
      <trkpt lat="42.93257" lon="0.29113">
        <ele>1149</ele>
        <time>2017-02-09T09:34:55.001Z</time>
      </trkpt>
      <trkpt lat="42.93257" lon="0.29113">
        <ele>1149</ele>
        <time>2017-02-09T09:34:56.001Z</time>
      </trkpt>
      <trkpt lat="42.93256" lon="0.29112">
        <ele>1149</ele>
        <time>2017-02-09T09:34:57.001Z</time>
      </trkpt>
      <trkpt lat="42.93256" lon="0.29112">
        <ele>1149</ele>
        <time>2017-02-09T09:34:58.001Z</time>
      </trkpt>
      <trkpt lat="42.93255" lon="0.29111">
        <ele>1149</ele>
        <time>2017-02-09T09:34:59.001Z</time>
      </trkpt>
      <trkpt lat="42.93255" lon="0.29111">
        <ele>1149</ele>
        <time>2017-02-09T09:35:00.001Z</time>
      </trkpt>
      <trkpt lat="42.93254" lon="0.29111">
        <ele>1150</ele>
        <time>2017-02-09T09:35:01.001Z</time>
      </trkpt>
      <trkpt lat="42.93254" lon="0.2911">
        <ele>1149</ele>
        <time>2017-02-09T09:35:02.001Z</time>
      </trkpt>
      <trkpt lat="42.93254" lon="0.2911">
        <ele>1150</ele>
        <time>2017-02-09T09:35:03.001Z</time>
      </trkpt>
      <trkpt lat="42.93254" lon="0.2911">
        <ele>1149</ele>
        <time>2017-02-09T09:35:04.001Z</time>
      </trkpt>
      <trkpt lat="42.93254" lon="0.2911">
        <ele>1149</ele>
        <time>2017-02-09T09:35:05.001Z</time>
      </trkpt>
      <trkpt lat="42.93254" lon="0.2911">
        <ele>1150</ele>
        <time>2017-02-09T09:35:06.001Z</time>
      </trkpt>
      <trkpt lat="42.93254" lon="0.2911">
        <ele>1150</ele>
        <time>2017-02-09T09:35:07.001Z</time>
      </trkpt>
      <trkpt lat="42.93253" lon="0.2911">
        <ele>1150</ele>
        <time>2017-02-09T09:35:08.001Z</time>
      </trkpt>
      <trkpt lat="42.93253" lon="0.2911">
        <ele>1150</ele>
        <time>2017-02-09T09:35:09.001Z</time>
      </trkpt>
      <trkpt lat="42.93252" lon="0.29109">
        <ele>1150</ele>
        <time>2017-02-09T09:35:10.001Z</time>
      </trkpt>
      <trkpt lat="42.93251" lon="0.29109">
        <ele>1150</ele>
        <time>2017-02-09T09:35:11.001Z</time>
      </trkpt>
      <trkpt lat="42.93251" lon="0.29108">
        <ele>1150</ele>
        <time>2017-02-09T09:35:12.001Z</time>
      </trkpt>
      <trkpt lat="42.9325" lon="0.29108">
        <ele>1150</ele>
        <time>2017-02-09T09:35:13.001Z</time>
      </trkpt>
      <trkpt lat="42.9325" lon="0.29108">
        <ele>1150</ele>
        <time>2017-02-09T09:35:14.001Z</time>
      </trkpt>
      <trkpt lat="42.93249" lon="0.29107">
        <ele>1150</ele>
        <time>2017-02-09T09:35:15.001Z</time>
      </trkpt>
      <trkpt lat="42.93248" lon="0.29107">
        <ele>1150</ele>
        <time>2017-02-09T09:35:16.001Z</time>
      </trkpt>
      <trkpt lat="42.93248" lon="0.29107">
        <ele>1150</ele>
        <time>2017-02-09T09:35:17.001Z</time>
      </trkpt>
      <trkpt lat="42.93247" lon="0.29106">
        <ele>1150</ele>
        <time>2017-02-09T09:35:18.001Z</time>
      </trkpt>
      <trkpt lat="42.93246" lon="0.29106">
        <ele>1150</ele>
        <time>2017-02-09T09:35:19.001Z</time>
      </trkpt>
      <trkpt lat="42.93246" lon="0.29106">
        <ele>1150</ele>
        <time>2017-02-09T09:35:20.001Z</time>
      </trkpt>
      <trkpt lat="42.93245" lon="0.29105">
        <ele>1150</ele>
        <time>2017-02-09T09:35:21.001Z</time>
      </trkpt>
      <trkpt lat="42.93244" lon="0.29105">
        <ele>1150</ele>
        <time>2017-02-09T09:35:22.001Z</time>
      </trkpt>
      <trkpt lat="42.93244" lon="0.29105">
        <ele>1151</ele>
        <time>2017-02-09T09:35:23.001Z</time>
      </trkpt>
      <trkpt lat="42.93243" lon="0.29105">
        <ele>1150</ele>
        <time>2017-02-09T09:35:24.001Z</time>
      </trkpt>
      <trkpt lat="42.93242" lon="0.29104">
        <ele>1151</ele>
        <time>2017-02-09T09:35:25.001Z</time>
      </trkpt>
      <trkpt lat="42.93242" lon="0.29104">
        <ele>1151</ele>
        <time>2017-02-09T09:35:26.001Z</time>
      </trkpt>
      <trkpt lat="42.93241" lon="0.29104">
        <ele>1151</ele>
        <time>2017-02-09T09:35:27.001Z</time>
      </trkpt>
      <trkpt lat="42.9324" lon="0.29104">
        <ele>1151</ele>
        <time>2017-02-09T09:35:28.001Z</time>
      </trkpt>
      <trkpt lat="42.9324" lon="0.29104">
        <ele>1151</ele>
        <time>2017-02-09T09:35:29.001Z</time>
      </trkpt>
      <trkpt lat="42.93239" lon="0.29103">
        <ele>1151</ele>
        <time>2017-02-09T09:35:30.001Z</time>
      </trkpt>
      <trkpt lat="42.93238" lon="0.29103">
        <ele>1151</ele>
        <time>2017-02-09T09:35:31.001Z</time>
      </trkpt>
      <trkpt lat="42.93238" lon="0.29103">
        <ele>1151</ele>
        <time>2017-02-09T09:35:32.001Z</time>
      </trkpt>
      <trkpt lat="42.93237" lon="0.29103">
        <ele>1152</ele>
        <time>2017-02-09T09:35:33.001Z</time>
      </trkpt>
      <trkpt lat="42.93236" lon="0.29103">
        <ele>1152</ele>
        <time>2017-02-09T09:35:34.001Z</time>
      </trkpt>
      <trkpt lat="42.93236" lon="0.29103">
        <ele>1152</ele>
        <time>2017-02-09T09:35:35.001Z</time>
      </trkpt>
      <trkpt lat="42.93235" lon="0.29103">
        <ele>1152</ele>
        <time>2017-02-09T09:35:36.001Z</time>
      </trkpt>
      <trkpt lat="42.93234" lon="0.29103">
        <ele>1152</ele>
        <time>2017-02-09T09:35:37.001Z</time>
      </trkpt>
      <trkpt lat="42.93233" lon="0.29103">
        <ele>1152</ele>
        <time>2017-02-09T09:35:38.001Z</time>
      </trkpt>
      <trkpt lat="42.93233" lon="0.29103">
        <ele>1152</ele>
        <time>2017-02-09T09:35:39.001Z</time>
      </trkpt>
      <trkpt lat="42.93232" lon="0.29103">
        <ele>1152</ele>
        <time>2017-02-09T09:35:40.001Z</time>
      </trkpt>
      <trkpt lat="42.93231" lon="0.29103">
        <ele>1152</ele>
        <time>2017-02-09T09:35:41.001Z</time>
      </trkpt>
      <trkpt lat="42.93231" lon="0.29103">
        <ele>1152</ele>
        <time>2017-02-09T09:35:42.001Z</time>
      </trkpt>
      <trkpt lat="42.9323" lon="0.29103">
        <ele>1152</ele>
        <time>2017-02-09T09:35:43.001Z</time>
      </trkpt>
      <trkpt lat="42.93229" lon="0.29103">
        <ele>1152</ele>
        <time>2017-02-09T09:35:44.001Z</time>
      </trkpt>
      <trkpt lat="42.93229" lon="0.29102">
        <ele>1152</ele>
        <time>2017-02-09T09:35:45.001Z</time>
      </trkpt>
      <trkpt lat="42.93228" lon="0.29102">
        <ele>1152</ele>
        <time>2017-02-09T09:35:46.001Z</time>
      </trkpt>
      <trkpt lat="42.93228" lon="0.29102">
        <ele>1152</ele>
        <time>2017-02-09T09:35:47.001Z</time>
      </trkpt>
      <trkpt lat="42.93227" lon="0.29102">
        <ele>1152</ele>
        <time>2017-02-09T09:35:48.001Z</time>
      </trkpt>
      <trkpt lat="42.93226" lon="0.29101">
        <ele>1152</ele>
        <time>2017-02-09T09:35:49.001Z</time>
      </trkpt>
      <trkpt lat="42.93226" lon="0.29101">
        <ele>1152</ele>
        <time>2017-02-09T09:35:50.001Z</time>
      </trkpt>
      <trkpt lat="42.93225" lon="0.29101">
        <ele>1152</ele>
        <time>2017-02-09T09:35:51.001Z</time>
      </trkpt>
      <trkpt lat="42.93225" lon="0.29101">
        <ele>1152</ele>
        <time>2017-02-09T09:35:52.001Z</time>
      </trkpt>
      <trkpt lat="42.93224" lon="0.29101">
        <ele>1152</ele>
        <time>2017-02-09T09:35:53.001Z</time>
      </trkpt>
      <trkpt lat="42.93224" lon="0.291">
        <ele>1152</ele>
        <time>2017-02-09T09:35:54.001Z</time>
      </trkpt>
      <trkpt lat="42.93224" lon="0.291">
        <ele>1152</ele>
        <time>2017-02-09T09:35:55.001Z</time>
      </trkpt>
      <trkpt lat="42.93224" lon="0.291">
        <ele>1152</ele>
        <time>2017-02-09T09:35:56.001Z</time>
      </trkpt>
      <trkpt lat="42.93221" lon="0.29101">
        <ele>1154</ele>
        <time>2017-02-09T09:35:57.013Z</time>
      </trkpt>
      <trkpt lat="42.93221" lon="0.291">
        <ele>1154</ele>
        <time>2017-02-09T09:35:58.013Z</time>
      </trkpt>
      <trkpt lat="42.9322" lon="0.291">
        <ele>1154</ele>
        <time>2017-02-09T09:35:59.013Z</time>
      </trkpt>
      <trkpt lat="42.93219" lon="0.29099">
        <ele>1154</ele>
        <time>2017-02-09T09:36:00.013Z</time>
      </trkpt>
      <trkpt lat="42.93219" lon="0.29099">
        <ele>1154</ele>
        <time>2017-02-09T09:36:01.013Z</time>
      </trkpt>
      <trkpt lat="42.93218" lon="0.29098">
        <ele>1154</ele>
        <time>2017-02-09T09:36:02.013Z</time>
      </trkpt>
      <trkpt lat="42.93218" lon="0.29098">
        <ele>1154</ele>
        <time>2017-02-09T09:36:03.013Z</time>
      </trkpt>
      <trkpt lat="42.93217" lon="0.29097">
        <ele>1154</ele>
        <time>2017-02-09T09:36:04.013Z</time>
      </trkpt>
      <trkpt lat="42.93216" lon="0.29096">
        <ele>1154</ele>
        <time>2017-02-09T09:36:05.013Z</time>
      </trkpt>
      <trkpt lat="42.93216" lon="0.29096">
        <ele>1154</ele>
        <time>2017-02-09T09:36:06.013Z</time>
      </trkpt>
      <trkpt lat="42.93215" lon="0.29095">
        <ele>1154</ele>
        <time>2017-02-09T09:36:07.013Z</time>
      </trkpt>
      <trkpt lat="42.93214" lon="0.29095">
        <ele>1154</ele>
        <time>2017-02-09T09:36:08.013Z</time>
      </trkpt>
      <trkpt lat="42.93214" lon="0.29094">
        <ele>1154</ele>
        <time>2017-02-09T09:36:09.013Z</time>
      </trkpt>
      <trkpt lat="42.93213" lon="0.29094">
        <ele>1154</ele>
        <time>2017-02-09T09:36:10.013Z</time>
      </trkpt>
      <trkpt lat="42.93212" lon="0.29093">
        <ele>1154</ele>
        <time>2017-02-09T09:36:11.013Z</time>
      </trkpt>
      <trkpt lat="42.93212" lon="0.29093">
        <ele>1154</ele>
        <time>2017-02-09T09:36:12.013Z</time>
      </trkpt>
      <trkpt lat="42.93211" lon="0.29092">
        <ele>1154</ele>
        <time>2017-02-09T09:36:13.013Z</time>
      </trkpt>
      <trkpt lat="42.9321" lon="0.29092">
        <ele>1154</ele>
        <time>2017-02-09T09:36:14.013Z</time>
      </trkpt>
      <trkpt lat="42.9321" lon="0.29091">
        <ele>1154</ele>
        <time>2017-02-09T09:36:15.013Z</time>
      </trkpt>
      <trkpt lat="42.93209" lon="0.29091">
        <ele>1154</ele>
        <time>2017-02-09T09:36:16.013Z</time>
      </trkpt>
      <trkpt lat="42.93209" lon="0.29091">
        <ele>1154</ele>
        <time>2017-02-09T09:36:17.013Z</time>
      </trkpt>
      <trkpt lat="42.93208" lon="0.2909">
        <ele>1155</ele>
        <time>2017-02-09T09:36:18.013Z</time>
      </trkpt>
      <trkpt lat="42.93207" lon="0.2909">
        <ele>1155</ele>
        <time>2017-02-09T09:36:19.013Z</time>
      </trkpt>
      <trkpt lat="42.93207" lon="0.29089">
        <ele>1155</ele>
        <time>2017-02-09T09:36:20.013Z</time>
      </trkpt>
      <trkpt lat="42.93206" lon="0.29089">
        <ele>1155</ele>
        <time>2017-02-09T09:36:21.013Z</time>
      </trkpt>
      <trkpt lat="42.93205" lon="0.29089">
        <ele>1155</ele>
        <time>2017-02-09T09:36:22.013Z</time>
      </trkpt>
      <trkpt lat="42.93205" lon="0.29088">
        <ele>1155</ele>
        <time>2017-02-09T09:36:23.013Z</time>
      </trkpt>
      <trkpt lat="42.93204" lon="0.29088">
        <ele>1155</ele>
        <time>2017-02-09T09:36:24.013Z</time>
      </trkpt>
      <trkpt lat="42.93203" lon="0.29087">
        <ele>1155</ele>
        <time>2017-02-09T09:36:25.013Z</time>
      </trkpt>
      <trkpt lat="42.93203" lon="0.29087">
        <ele>1155</ele>
        <time>2017-02-09T09:36:26.013Z</time>
      </trkpt>
      <trkpt lat="42.93202" lon="0.29086">
        <ele>1155</ele>
        <time>2017-02-09T09:36:27.013Z</time>
      </trkpt>
      <trkpt lat="42.93201" lon="0.29086">
        <ele>1154</ele>
        <time>2017-02-09T09:36:28.013Z</time>
      </trkpt>
      <trkpt lat="42.93201" lon="0.29085">
        <ele>1154</ele>
        <time>2017-02-09T09:36:29.013Z</time>
      </trkpt>
      <trkpt lat="42.932" lon="0.29085">
        <ele>1154</ele>
        <time>2017-02-09T09:36:30.013Z</time>
      </trkpt>
      <trkpt lat="42.93199" lon="0.29085">
        <ele>1154</ele>
        <time>2017-02-09T09:36:31.013Z</time>
      </trkpt>
      <trkpt lat="42.93198" lon="0.29085">
        <ele>1154</ele>
        <time>2017-02-09T09:36:32.013Z</time>
      </trkpt>
      <trkpt lat="42.93198" lon="0.29084">
        <ele>1154</ele>
        <time>2017-02-09T09:36:33.013Z</time>
      </trkpt>
      <trkpt lat="42.93197" lon="0.29084">
        <ele>1154</ele>
        <time>2017-02-09T09:36:34.013Z</time>
      </trkpt>
      <trkpt lat="42.93196" lon="0.29084">
        <ele>1154</ele>
        <time>2017-02-09T09:36:35.013Z</time>
      </trkpt>
      <trkpt lat="42.93195" lon="0.29084">
        <ele>1154</ele>
        <time>2017-02-09T09:36:36.013Z</time>
      </trkpt>
      <trkpt lat="42.93194" lon="0.29084">
        <ele>1154</ele>
        <time>2017-02-09T09:36:37.013Z</time>
      </trkpt>
      <trkpt lat="42.93194" lon="0.29084">
        <ele>1155</ele>
        <time>2017-02-09T09:36:38.013Z</time>
      </trkpt>
      <trkpt lat="42.93193" lon="0.29085">
        <ele>1155</ele>
        <time>2017-02-09T09:36:39.013Z</time>
      </trkpt>
      <trkpt lat="42.93192" lon="0.29085">
        <ele>1155</ele>
        <time>2017-02-09T09:36:40.013Z</time>
      </trkpt>
      <trkpt lat="42.93192" lon="0.29085">
        <ele>1155</ele>
        <time>2017-02-09T09:36:41.013Z</time>
      </trkpt>
      <trkpt lat="42.93191" lon="0.29085">
        <ele>1155</ele>
        <time>2017-02-09T09:36:42.013Z</time>
      </trkpt>
      <trkpt lat="42.9319" lon="0.29085">
        <ele>1155</ele>
        <time>2017-02-09T09:36:43.013Z</time>
      </trkpt>
      <trkpt lat="42.93189" lon="0.29086">
        <ele>1155</ele>
        <time>2017-02-09T09:36:44.013Z</time>
      </trkpt>
      <trkpt lat="42.93189" lon="0.29086">
        <ele>1156</ele>
        <time>2017-02-09T09:36:45.013Z</time>
      </trkpt>
      <trkpt lat="42.93188" lon="0.29086">
        <ele>1156</ele>
        <time>2017-02-09T09:36:46.013Z</time>
      </trkpt>
      <trkpt lat="42.93187" lon="0.29086">
        <ele>1156</ele>
        <time>2017-02-09T09:36:47.013Z</time>
      </trkpt>
      <trkpt lat="42.93186" lon="0.29087">
        <ele>1156</ele>
        <time>2017-02-09T09:36:48.013Z</time>
      </trkpt>
      <trkpt lat="42.93186" lon="0.29087">
        <ele>1156</ele>
        <time>2017-02-09T09:36:49.013Z</time>
      </trkpt>
      <trkpt lat="42.93185" lon="0.29087">
        <ele>1156</ele>
        <time>2017-02-09T09:36:50.013Z</time>
      </trkpt>
      <trkpt lat="42.93184" lon="0.29088">
        <ele>1157</ele>
        <time>2017-02-09T09:36:51.013Z</time>
      </trkpt>
      <trkpt lat="42.93184" lon="0.29088">
        <ele>1157</ele>
        <time>2017-02-09T09:36:52.013Z</time>
      </trkpt>
      <trkpt lat="42.93183" lon="0.29089">
        <ele>1157</ele>
        <time>2017-02-09T09:36:53.013Z</time>
      </trkpt>
      <trkpt lat="42.93182" lon="0.29089">
        <ele>1157</ele>
        <time>2017-02-09T09:36:54.013Z</time>
      </trkpt>
      <trkpt lat="42.93182" lon="0.2909">
        <ele>1157</ele>
        <time>2017-02-09T09:36:55.013Z</time>
      </trkpt>
      <trkpt lat="42.93181" lon="0.2909">
        <ele>1157</ele>
        <time>2017-02-09T09:36:56.013Z</time>
      </trkpt>
      <trkpt lat="42.9318" lon="0.29091">
        <ele>1157</ele>
        <time>2017-02-09T09:36:57.013Z</time>
      </trkpt>
      <trkpt lat="42.9318" lon="0.29091">
        <ele>1157</ele>
        <time>2017-02-09T09:36:58.013Z</time>
      </trkpt>
      <trkpt lat="42.93179" lon="0.29091">
        <ele>1157</ele>
        <time>2017-02-09T09:36:59.013Z</time>
      </trkpt>
      <trkpt lat="42.93179" lon="0.29092">
        <ele>1157</ele>
        <time>2017-02-09T09:37:00.013Z</time>
      </trkpt>
      <trkpt lat="42.93178" lon="0.29093">
        <ele>1157</ele>
        <time>2017-02-09T09:37:01.013Z</time>
      </trkpt>
      <trkpt lat="42.93177" lon="0.29093">
        <ele>1157</ele>
        <time>2017-02-09T09:37:02.013Z</time>
      </trkpt>
      <trkpt lat="42.93176" lon="0.29094">
        <ele>1157</ele>
        <time>2017-02-09T09:37:03.013Z</time>
      </trkpt>
      <trkpt lat="42.93176" lon="0.29094">
        <ele>1157</ele>
        <time>2017-02-09T09:37:04.013Z</time>
      </trkpt>
      <trkpt lat="42.93175" lon="0.29095">
        <ele>1157</ele>
        <time>2017-02-09T09:37:05.013Z</time>
      </trkpt>
      <trkpt lat="42.93175" lon="0.29095">
        <ele>1157</ele>
        <time>2017-02-09T09:37:06.013Z</time>
      </trkpt>
      <trkpt lat="42.93174" lon="0.29095">
        <ele>1158</ele>
        <time>2017-02-09T09:37:07.013Z</time>
      </trkpt>
      <trkpt lat="42.93173" lon="0.29095">
        <ele>1157</ele>
        <time>2017-02-09T09:37:08.013Z</time>
      </trkpt>
      <trkpt lat="42.93173" lon="0.29096">
        <ele>1158</ele>
        <time>2017-02-09T09:37:09.013Z</time>
      </trkpt>
      <trkpt lat="42.93172" lon="0.29096">
        <ele>1158</ele>
        <time>2017-02-09T09:37:10.013Z</time>
      </trkpt>
      <trkpt lat="42.93172" lon="0.29096">
        <ele>1158</ele>
        <time>2017-02-09T09:37:11.013Z</time>
      </trkpt>
      <trkpt lat="42.93171" lon="0.29096">
        <ele>1158</ele>
        <time>2017-02-09T09:37:12.013Z</time>
      </trkpt>
      <trkpt lat="42.9317" lon="0.29096">
        <ele>1159</ele>
        <time>2017-02-09T09:37:13.013Z</time>
      </trkpt>
      <trkpt lat="42.9317" lon="0.29096">
        <ele>1159</ele>
        <time>2017-02-09T09:37:14.013Z</time>
      </trkpt>
      <trkpt lat="42.93169" lon="0.29096">
        <ele>1159</ele>
        <time>2017-02-09T09:37:15.013Z</time>
      </trkpt>
      <trkpt lat="42.93168" lon="0.29096">
        <ele>1159</ele>
        <time>2017-02-09T09:37:16.013Z</time>
      </trkpt>
      <trkpt lat="42.93168" lon="0.29096">
        <ele>1159</ele>
        <time>2017-02-09T09:37:17.013Z</time>
      </trkpt>
      <trkpt lat="42.93167" lon="0.29096">
        <ele>1159</ele>
        <time>2017-02-09T09:37:18.013Z</time>
      </trkpt>
      <trkpt lat="42.93166" lon="0.29096">
        <ele>1159</ele>
        <time>2017-02-09T09:37:19.013Z</time>
      </trkpt>
      <trkpt lat="42.93166" lon="0.29096">
        <ele>1159</ele>
        <time>2017-02-09T09:37:20.013Z</time>
      </trkpt>
      <trkpt lat="42.93165" lon="0.29097">
        <ele>1159</ele>
        <time>2017-02-09T09:37:21.013Z</time>
      </trkpt>
      <trkpt lat="42.93164" lon="0.29097">
        <ele>1159</ele>
        <time>2017-02-09T09:37:22.013Z</time>
      </trkpt>
      <trkpt lat="42.93164" lon="0.29097">
        <ele>1160</ele>
        <time>2017-02-09T09:37:23.013Z</time>
      </trkpt>
      <trkpt lat="42.93163" lon="0.29097">
        <ele>1160</ele>
        <time>2017-02-09T09:37:24.013Z</time>
      </trkpt>
      <trkpt lat="42.93162" lon="0.29097">
        <ele>1160</ele>
        <time>2017-02-09T09:37:25.013Z</time>
      </trkpt>
      <trkpt lat="42.93161" lon="0.29097">
        <ele>1160</ele>
        <time>2017-02-09T09:37:26.013Z</time>
      </trkpt>
      <trkpt lat="42.93161" lon="0.29097">
        <ele>1160</ele>
        <time>2017-02-09T09:37:27.013Z</time>
      </trkpt>
      <trkpt lat="42.9316" lon="0.29097">
        <ele>1160</ele>
        <time>2017-02-09T09:37:28.013Z</time>
      </trkpt>
      <trkpt lat="42.93159" lon="0.29096">
        <ele>1161</ele>
        <time>2017-02-09T09:37:29.013Z</time>
      </trkpt>
      <trkpt lat="42.93159" lon="0.29096">
        <ele>1161</ele>
        <time>2017-02-09T09:37:30.013Z</time>
      </trkpt>
      <trkpt lat="42.93158" lon="0.29096">
        <ele>1161</ele>
        <time>2017-02-09T09:37:31.013Z</time>
      </trkpt>
      <trkpt lat="42.93157" lon="0.29096">
        <ele>1162</ele>
        <time>2017-02-09T09:37:32.013Z</time>
      </trkpt>
      <trkpt lat="42.93157" lon="0.29096">
        <ele>1162</ele>
        <time>2017-02-09T09:37:33.013Z</time>
      </trkpt>
      <trkpt lat="42.93156" lon="0.29096">
        <ele>1162</ele>
        <time>2017-02-09T09:37:34.013Z</time>
      </trkpt>
      <trkpt lat="42.93155" lon="0.29096">
        <ele>1162</ele>
        <time>2017-02-09T09:37:35.013Z</time>
      </trkpt>
      <trkpt lat="42.93154" lon="0.29095">
        <ele>1162</ele>
        <time>2017-02-09T09:37:36.013Z</time>
      </trkpt>
      <trkpt lat="42.93154" lon="0.29095">
        <ele>1162</ele>
        <time>2017-02-09T09:37:37.013Z</time>
      </trkpt>
      <trkpt lat="42.93153" lon="0.29095">
        <ele>1162</ele>
        <time>2017-02-09T09:37:38.013Z</time>
      </trkpt>
      <trkpt lat="42.93152" lon="0.29094">
        <ele>1162</ele>
        <time>2017-02-09T09:37:39.013Z</time>
      </trkpt>
      <trkpt lat="42.93151" lon="0.29094">
        <ele>1162</ele>
        <time>2017-02-09T09:37:40.013Z</time>
      </trkpt>
      <trkpt lat="42.93151" lon="0.29094">
        <ele>1162</ele>
        <time>2017-02-09T09:37:41.013Z</time>
      </trkpt>
      <trkpt lat="42.9315" lon="0.29093">
        <ele>1162</ele>
        <time>2017-02-09T09:37:42.013Z</time>
      </trkpt>
      <trkpt lat="42.93149" lon="0.29093">
        <ele>1162</ele>
        <time>2017-02-09T09:37:43.013Z</time>
      </trkpt>
      <trkpt lat="42.93148" lon="0.29093">
        <ele>1163</ele>
        <time>2017-02-09T09:37:44.013Z</time>
      </trkpt>
      <trkpt lat="42.93148" lon="0.29093">
        <ele>1163</ele>
        <time>2017-02-09T09:37:45.013Z</time>
      </trkpt>
      <trkpt lat="42.93147" lon="0.29092">
        <ele>1163</ele>
        <time>2017-02-09T09:37:46.013Z</time>
      </trkpt>
      <trkpt lat="42.93146" lon="0.29092">
        <ele>1163</ele>
        <time>2017-02-09T09:37:47.013Z</time>
      </trkpt>
      <trkpt lat="42.93145" lon="0.29092">
        <ele>1163</ele>
        <time>2017-02-09T09:37:48.013Z</time>
      </trkpt>
      <trkpt lat="42.93145" lon="0.29091">
        <ele>1163</ele>
        <time>2017-02-09T09:37:49.013Z</time>
      </trkpt>
      <trkpt lat="42.93144" lon="0.29091">
        <ele>1164</ele>
        <time>2017-02-09T09:37:50.013Z</time>
      </trkpt>
      <trkpt lat="42.93143" lon="0.2909">
        <ele>1164</ele>
        <time>2017-02-09T09:37:51.013Z</time>
      </trkpt>
      <trkpt lat="42.93143" lon="0.2909">
        <ele>1164</ele>
        <time>2017-02-09T09:37:52.013Z</time>
      </trkpt>
      <trkpt lat="42.93142" lon="0.29089">
        <ele>1164</ele>
        <time>2017-02-09T09:37:53.013Z</time>
      </trkpt>
      <trkpt lat="42.93142" lon="0.29089">
        <ele>1164</ele>
        <time>2017-02-09T09:37:54.013Z</time>
      </trkpt>
      <trkpt lat="42.93141" lon="0.29088">
        <ele>1164</ele>
        <time>2017-02-09T09:37:55.013Z</time>
      </trkpt>
      <trkpt lat="42.9314" lon="0.29088">
        <ele>1164</ele>
        <time>2017-02-09T09:37:56.013Z</time>
      </trkpt>
      <trkpt lat="42.9314" lon="0.29087">
        <ele>1163</ele>
        <time>2017-02-09T09:37:57.013Z</time>
      </trkpt>
      <trkpt lat="42.93139" lon="0.29087">
        <ele>1163</ele>
        <time>2017-02-09T09:37:58.013Z</time>
      </trkpt>
      <trkpt lat="42.93138" lon="0.29087">
        <ele>1163</ele>
        <time>2017-02-09T09:37:59.013Z</time>
      </trkpt>
      <trkpt lat="42.93138" lon="0.29086">
        <ele>1162</ele>
        <time>2017-02-09T09:38:00.013Z</time>
      </trkpt>
      <trkpt lat="42.93137" lon="0.29086">
        <ele>1162</ele>
        <time>2017-02-09T09:38:01.013Z</time>
      </trkpt>
      <trkpt lat="42.93137" lon="0.29085">
        <ele>1162</ele>
        <time>2017-02-09T09:38:02.013Z</time>
      </trkpt>
      <trkpt lat="42.93136" lon="0.29085">
        <ele>1162</ele>
        <time>2017-02-09T09:38:03.013Z</time>
      </trkpt>
      <trkpt lat="42.93135" lon="0.29085">
        <ele>1163</ele>
        <time>2017-02-09T09:38:04.013Z</time>
      </trkpt>
      <trkpt lat="42.93134" lon="0.29084">
        <ele>1163</ele>
        <time>2017-02-09T09:38:05.013Z</time>
      </trkpt>
      <trkpt lat="42.93134" lon="0.29084">
        <ele>1163</ele>
        <time>2017-02-09T09:38:06.013Z</time>
      </trkpt>
      <trkpt lat="42.93133" lon="0.29084">
        <ele>1163</ele>
        <time>2017-02-09T09:38:07.013Z</time>
      </trkpt>
      <trkpt lat="42.93132" lon="0.29084">
        <ele>1163</ele>
        <time>2017-02-09T09:38:08.013Z</time>
      </trkpt>
      <trkpt lat="42.93131" lon="0.29083">
        <ele>1163</ele>
        <time>2017-02-09T09:38:09.013Z</time>
      </trkpt>
      <trkpt lat="42.9313" lon="0.29083">
        <ele>1163</ele>
        <time>2017-02-09T09:38:10.013Z</time>
      </trkpt>
      <trkpt lat="42.93129" lon="0.29083">
        <ele>1164</ele>
        <time>2017-02-09T09:38:11.013Z</time>
      </trkpt>
      <trkpt lat="42.93128" lon="0.29082">
        <ele>1164</ele>
        <time>2017-02-09T09:38:12.013Z</time>
      </trkpt>
      <trkpt lat="42.93128" lon="0.29082">
        <ele>1164</ele>
        <time>2017-02-09T09:38:13.013Z</time>
      </trkpt>
      <trkpt lat="42.93127" lon="0.29082">
        <ele>1164</ele>
        <time>2017-02-09T09:38:14.013Z</time>
      </trkpt>
      <trkpt lat="42.93126" lon="0.29082">
        <ele>1164</ele>
        <time>2017-02-09T09:38:15.013Z</time>
      </trkpt>
      <trkpt lat="42.93125" lon="0.29082">
        <ele>1164</ele>
        <time>2017-02-09T09:38:16.013Z</time>
      </trkpt>
      <trkpt lat="42.93124" lon="0.29082">
        <ele>1164</ele>
        <time>2017-02-09T09:38:17.013Z</time>
      </trkpt>
      <trkpt lat="42.93123" lon="0.29082">
        <ele>1163</ele>
        <time>2017-02-09T09:38:18.013Z</time>
      </trkpt>
      <trkpt lat="42.93123" lon="0.29081">
        <ele>1163</ele>
        <time>2017-02-09T09:38:19.013Z</time>
      </trkpt>
      <trkpt lat="42.93122" lon="0.29081">
        <ele>1163</ele>
        <time>2017-02-09T09:38:20.013Z</time>
      </trkpt>
      <trkpt lat="42.93121" lon="0.2908">
        <ele>1162</ele>
        <time>2017-02-09T09:38:21.013Z</time>
      </trkpt>
      <trkpt lat="42.93121" lon="0.2908">
        <ele>1163</ele>
        <time>2017-02-09T09:38:22.013Z</time>
      </trkpt>
      <trkpt lat="42.9312" lon="0.2908">
        <ele>1163</ele>
        <time>2017-02-09T09:38:23.013Z</time>
      </trkpt>
      <trkpt lat="42.93119" lon="0.2908">
        <ele>1163</ele>
        <time>2017-02-09T09:38:24.013Z</time>
      </trkpt>
      <trkpt lat="42.93119" lon="0.2908">
        <ele>1163</ele>
        <time>2017-02-09T09:38:25.013Z</time>
      </trkpt>
      <trkpt lat="42.93118" lon="0.2908">
        <ele>1163</ele>
        <time>2017-02-09T09:38:26.013Z</time>
      </trkpt>
      <trkpt lat="42.93117" lon="0.29081">
        <ele>1164</ele>
        <time>2017-02-09T09:38:27.013Z</time>
      </trkpt>
      <trkpt lat="42.93116" lon="0.29081">
        <ele>1164</ele>
        <time>2017-02-09T09:38:28.013Z</time>
      </trkpt>
      <trkpt lat="42.93115" lon="0.29082">
        <ele>1164</ele>
        <time>2017-02-09T09:38:29.013Z</time>
      </trkpt>
      <trkpt lat="42.93115" lon="0.29082">
        <ele>1164</ele>
        <time>2017-02-09T09:38:30.013Z</time>
      </trkpt>
      <trkpt lat="42.93114" lon="0.29083">
        <ele>1164</ele>
        <time>2017-02-09T09:38:31.013Z</time>
      </trkpt>
      <trkpt lat="42.93113" lon="0.29083">
        <ele>1165</ele>
        <time>2017-02-09T09:38:32.013Z</time>
      </trkpt>
      <trkpt lat="42.93112" lon="0.29084">
        <ele>1165</ele>
        <time>2017-02-09T09:38:33.013Z</time>
      </trkpt>
      <trkpt lat="42.93111" lon="0.29085">
        <ele>1166</ele>
        <time>2017-02-09T09:38:34.013Z</time>
      </trkpt>
      <trkpt lat="42.93111" lon="0.29085">
        <ele>1166</ele>
        <time>2017-02-09T09:38:35.013Z</time>
      </trkpt>
      <trkpt lat="42.9311" lon="0.29086">
        <ele>1166</ele>
        <time>2017-02-09T09:38:36.013Z</time>
      </trkpt>
      <trkpt lat="42.93109" lon="0.29086">
        <ele>1167</ele>
        <time>2017-02-09T09:38:37.013Z</time>
      </trkpt>
      <trkpt lat="42.93109" lon="0.29087">
        <ele>1167</ele>
        <time>2017-02-09T09:38:38.013Z</time>
      </trkpt>
      <trkpt lat="42.93108" lon="0.29087">
        <ele>1167</ele>
        <time>2017-02-09T09:38:39.013Z</time>
      </trkpt>
      <trkpt lat="42.93108" lon="0.29088">
        <ele>1167</ele>
        <time>2017-02-09T09:38:40.013Z</time>
      </trkpt>
      <trkpt lat="42.93107" lon="0.29088">
        <ele>1167</ele>
        <time>2017-02-09T09:38:41.013Z</time>
      </trkpt>
      <trkpt lat="42.93107" lon="0.29089">
        <ele>1167</ele>
        <time>2017-02-09T09:38:42.013Z</time>
      </trkpt>
      <trkpt lat="42.93106" lon="0.29089">
        <ele>1167</ele>
        <time>2017-02-09T09:38:43.013Z</time>
      </trkpt>
      <trkpt lat="42.93106" lon="0.2909">
        <ele>1167</ele>
        <time>2017-02-09T09:38:44.013Z</time>
      </trkpt>
      <trkpt lat="42.93105" lon="0.2909">
        <ele>1168</ele>
        <time>2017-02-09T09:38:45.013Z</time>
      </trkpt>
      <trkpt lat="42.93105" lon="0.29091">
        <ele>1168</ele>
        <time>2017-02-09T09:38:46.013Z</time>
      </trkpt>
      <trkpt lat="42.93105" lon="0.29092">
        <ele>1168</ele>
        <time>2017-02-09T09:38:47.013Z</time>
      </trkpt>
      <trkpt lat="42.93104" lon="0.29092">
        <ele>1167</ele>
        <time>2017-02-09T09:38:48.013Z</time>
      </trkpt>
      <trkpt lat="42.93103" lon="0.29093">
        <ele>1168</ele>
        <time>2017-02-09T09:38:49.013Z</time>
      </trkpt>
      <trkpt lat="42.93102" lon="0.29094">
        <ele>1168</ele>
        <time>2017-02-09T09:38:50.013Z</time>
      </trkpt>
      <trkpt lat="42.93102" lon="0.29095">
        <ele>1168</ele>
        <time>2017-02-09T09:38:51.013Z</time>
      </trkpt>
      <trkpt lat="42.93101" lon="0.29095">
        <ele>1167</ele>
        <time>2017-02-09T09:38:52.013Z</time>
      </trkpt>
      <trkpt lat="42.931" lon="0.29096">
        <ele>1167</ele>
        <time>2017-02-09T09:38:53.013Z</time>
      </trkpt>
      <trkpt lat="42.931" lon="0.29096">
        <ele>1167</ele>
        <time>2017-02-09T09:38:54.013Z</time>
      </trkpt>
      <trkpt lat="42.93099" lon="0.29097">
        <ele>1167</ele>
        <time>2017-02-09T09:38:55.013Z</time>
      </trkpt>
      <trkpt lat="42.93099" lon="0.29097">
        <ele>1167</ele>
        <time>2017-02-09T09:38:56.013Z</time>
      </trkpt>
      <trkpt lat="42.93098" lon="0.29098">
        <ele>1166</ele>
        <time>2017-02-09T09:38:57.013Z</time>
      </trkpt>
      <trkpt lat="42.93097" lon="0.29099">
        <ele>1167</ele>
        <time>2017-02-09T09:38:58.013Z</time>
      </trkpt>
      <trkpt lat="42.93097" lon="0.291">
        <ele>1168</ele>
        <time>2017-02-09T09:38:59.013Z</time>
      </trkpt>
      <trkpt lat="42.93096" lon="0.291">
        <ele>1168</ele>
        <time>2017-02-09T09:39:00.013Z</time>
      </trkpt>
      <trkpt lat="42.93095" lon="0.29101">
        <ele>1168</ele>
        <time>2017-02-09T09:39:01.013Z</time>
      </trkpt>
      <trkpt lat="42.93095" lon="0.29102">
        <ele>1168</ele>
        <time>2017-02-09T09:39:02.013Z</time>
      </trkpt>
      <trkpt lat="42.93094" lon="0.29102">
        <ele>1167</ele>
        <time>2017-02-09T09:39:03.013Z</time>
      </trkpt>
      <trkpt lat="42.93093" lon="0.29102">
        <ele>1167</ele>
        <time>2017-02-09T09:39:04.013Z</time>
      </trkpt>
      <trkpt lat="42.93092" lon="0.29103">
        <ele>1167</ele>
        <time>2017-02-09T09:39:05.013Z</time>
      </trkpt>
      <trkpt lat="42.93092" lon="0.29104">
        <ele>1167</ele>
        <time>2017-02-09T09:39:06.013Z</time>
      </trkpt>
      <trkpt lat="42.93091" lon="0.29104">
        <ele>1167</ele>
        <time>2017-02-09T09:39:07.013Z</time>
      </trkpt>
      <trkpt lat="42.9309" lon="0.29104">
        <ele>1168</ele>
        <time>2017-02-09T09:39:08.013Z</time>
      </trkpt>
      <trkpt lat="42.9309" lon="0.29105">
        <ele>1168</ele>
        <time>2017-02-09T09:39:09.013Z</time>
      </trkpt>
      <trkpt lat="42.93089" lon="0.29106">
        <ele>1169</ele>
        <time>2017-02-09T09:39:10.013Z</time>
      </trkpt>
      <trkpt lat="42.93089" lon="0.29107">
        <ele>1169</ele>
        <time>2017-02-09T09:39:11.013Z</time>
      </trkpt>
      <trkpt lat="42.93088" lon="0.29108">
        <ele>1169</ele>
        <time>2017-02-09T09:39:12.013Z</time>
      </trkpt>
      <trkpt lat="42.93088" lon="0.29109">
        <ele>1169</ele>
        <time>2017-02-09T09:39:13.013Z</time>
      </trkpt>
      <trkpt lat="42.93087" lon="0.29109">
        <ele>1169</ele>
        <time>2017-02-09T09:39:14.013Z</time>
      </trkpt>
      <trkpt lat="42.93086" lon="0.2911">
        <ele>1169</ele>
        <time>2017-02-09T09:39:15.013Z</time>
      </trkpt>
      <trkpt lat="42.93086" lon="0.29111">
        <ele>1169</ele>
        <time>2017-02-09T09:39:16.013Z</time>
      </trkpt>
      <trkpt lat="42.93085" lon="0.29112">
        <ele>1170</ele>
        <time>2017-02-09T09:39:17.013Z</time>
      </trkpt>
      <trkpt lat="42.93084" lon="0.29113">
        <ele>1170</ele>
        <time>2017-02-09T09:39:18.013Z</time>
      </trkpt>
      <trkpt lat="42.93084" lon="0.29113">
        <ele>1169</ele>
        <time>2017-02-09T09:39:19.013Z</time>
      </trkpt>
      <trkpt lat="42.93083" lon="0.29114">
        <ele>1169</ele>
        <time>2017-02-09T09:39:20.013Z</time>
      </trkpt>
      <trkpt lat="42.93082" lon="0.29115">
        <ele>1170</ele>
        <time>2017-02-09T09:39:21.013Z</time>
      </trkpt>
      <trkpt lat="42.93081" lon="0.29116">
        <ele>1170</ele>
        <time>2017-02-09T09:39:22.013Z</time>
      </trkpt>
      <trkpt lat="42.93081" lon="0.29116">
        <ele>1170</ele>
        <time>2017-02-09T09:39:23.013Z</time>
      </trkpt>
      <trkpt lat="42.9308" lon="0.29117">
        <ele>1170</ele>
        <time>2017-02-09T09:39:24.013Z</time>
      </trkpt>
      <trkpt lat="42.93079" lon="0.29118">
        <ele>1170</ele>
        <time>2017-02-09T09:39:25.013Z</time>
      </trkpt>
      <trkpt lat="42.93078" lon="0.29118">
        <ele>1170</ele>
        <time>2017-02-09T09:39:26.013Z</time>
      </trkpt>
      <trkpt lat="42.93077" lon="0.29119">
        <ele>1170</ele>
        <time>2017-02-09T09:39:27.013Z</time>
      </trkpt>
      <trkpt lat="42.93077" lon="0.2912">
        <ele>1171</ele>
        <time>2017-02-09T09:39:28.013Z</time>
      </trkpt>
      <trkpt lat="42.93076" lon="0.2912">
        <ele>1171</ele>
        <time>2017-02-09T09:39:29.013Z</time>
      </trkpt>
      <trkpt lat="42.93075" lon="0.29121">
        <ele>1172</ele>
        <time>2017-02-09T09:39:30.013Z</time>
      </trkpt>
      <trkpt lat="42.93075" lon="0.29121">
        <ele>1172</ele>
        <time>2017-02-09T09:39:31.013Z</time>
      </trkpt>
      <trkpt lat="42.93074" lon="0.29122">
        <ele>1172</ele>
        <time>2017-02-09T09:39:32.013Z</time>
      </trkpt>
      <trkpt lat="42.93073" lon="0.29123">
        <ele>1170</ele>
        <time>2017-02-09T09:39:33.013Z</time>
      </trkpt>
      <trkpt lat="42.93072" lon="0.29123">
        <ele>1170</ele>
        <time>2017-02-09T09:39:34.013Z</time>
      </trkpt>
      <trkpt lat="42.93072" lon="0.29124">
        <ele>1170</ele>
        <time>2017-02-09T09:39:35.013Z</time>
      </trkpt>
      <trkpt lat="42.93071" lon="0.29125">
        <ele>1169</ele>
        <time>2017-02-09T09:39:36.013Z</time>
      </trkpt>
      <trkpt lat="42.9307" lon="0.29126">
        <ele>1169</ele>
        <time>2017-02-09T09:39:37.013Z</time>
      </trkpt>
      <trkpt lat="42.9307" lon="0.29127">
        <ele>1169</ele>
        <time>2017-02-09T09:39:38.013Z</time>
      </trkpt>
      <trkpt lat="42.93069" lon="0.29128">
        <ele>1170</ele>
        <time>2017-02-09T09:39:39.013Z</time>
      </trkpt>
      <trkpt lat="42.93068" lon="0.29128">
        <ele>1170</ele>
        <time>2017-02-09T09:39:40.013Z</time>
      </trkpt>
      <trkpt lat="42.93068" lon="0.29129">
        <ele>1170</ele>
        <time>2017-02-09T09:39:41.013Z</time>
      </trkpt>
      <trkpt lat="42.93067" lon="0.29129">
        <ele>1170</ele>
        <time>2017-02-09T09:39:42.013Z</time>
      </trkpt>
      <trkpt lat="42.93066" lon="0.2913">
        <ele>1171</ele>
        <time>2017-02-09T09:39:43.013Z</time>
      </trkpt>
      <trkpt lat="42.93065" lon="0.2913">
        <ele>1170</ele>
        <time>2017-02-09T09:39:44.013Z</time>
      </trkpt>
      <trkpt lat="42.93065" lon="0.29131">
        <ele>1170</ele>
        <time>2017-02-09T09:39:45.013Z</time>
      </trkpt>
      <trkpt lat="42.93064" lon="0.29132">
        <ele>1171</ele>
        <time>2017-02-09T09:39:46.013Z</time>
      </trkpt>
      <trkpt lat="42.93063" lon="0.29132">
        <ele>1171</ele>
        <time>2017-02-09T09:39:47.013Z</time>
      </trkpt>
      <trkpt lat="42.93063" lon="0.29133">
        <ele>1171</ele>
        <time>2017-02-09T09:39:48.013Z</time>
      </trkpt>
      <trkpt lat="42.93062" lon="0.29134">
        <ele>1171</ele>
        <time>2017-02-09T09:39:49.013Z</time>
      </trkpt>
      <trkpt lat="42.93062" lon="0.29134">
        <ele>1171</ele>
        <time>2017-02-09T09:39:50.013Z</time>
      </trkpt>
      <trkpt lat="42.93061" lon="0.29135">
        <ele>1171</ele>
        <time>2017-02-09T09:39:51.013Z</time>
      </trkpt>
      <trkpt lat="42.9306" lon="0.29136">
        <ele>1172</ele>
        <time>2017-02-09T09:39:52.013Z</time>
      </trkpt>
      <trkpt lat="42.93059" lon="0.29137">
        <ele>1172</ele>
        <time>2017-02-09T09:39:53.013Z</time>
      </trkpt>
      <trkpt lat="42.93059" lon="0.29138">
        <ele>1172</ele>
        <time>2017-02-09T09:39:54.013Z</time>
      </trkpt>
      <trkpt lat="42.93058" lon="0.29138">
        <ele>1173</ele>
        <time>2017-02-09T09:39:55.013Z</time>
      </trkpt>
      <trkpt lat="42.93058" lon="0.29139">
        <ele>1173</ele>
        <time>2017-02-09T09:39:56.013Z</time>
      </trkpt>
      <trkpt lat="42.93057" lon="0.2914">
        <ele>1173</ele>
        <time>2017-02-09T09:39:57.013Z</time>
      </trkpt>
      <trkpt lat="42.93057" lon="0.2914">
        <ele>1174</ele>
        <time>2017-02-09T09:39:58.013Z</time>
      </trkpt>
      <trkpt lat="42.93057" lon="0.29141">
        <ele>1174</ele>
        <time>2017-02-09T09:39:59.013Z</time>
      </trkpt>
      <trkpt lat="42.93056" lon="0.29142">
        <ele>1174</ele>
        <time>2017-02-09T09:40:00.013Z</time>
      </trkpt>
      <trkpt lat="42.93055" lon="0.29142">
        <ele>1175</ele>
        <time>2017-02-09T09:40:01.013Z</time>
      </trkpt>
      <trkpt lat="42.93055" lon="0.29142">
        <ele>1175</ele>
        <time>2017-02-09T09:40:02.013Z</time>
      </trkpt>
      <trkpt lat="42.93054" lon="0.29143">
        <ele>1174</ele>
        <time>2017-02-09T09:40:03.013Z</time>
      </trkpt>
      <trkpt lat="42.93054" lon="0.29143">
        <ele>1175</ele>
        <time>2017-02-09T09:40:04.013Z</time>
      </trkpt>
      <trkpt lat="42.93053" lon="0.29144">
        <ele>1176</ele>
        <time>2017-02-09T09:40:05.013Z</time>
      </trkpt>
      <trkpt lat="42.93053" lon="0.29144">
        <ele>1176</ele>
        <time>2017-02-09T09:40:06.013Z</time>
      </trkpt>
      <trkpt lat="42.93052" lon="0.29145">
        <ele>1176</ele>
        <time>2017-02-09T09:40:07.013Z</time>
      </trkpt>
      <trkpt lat="42.93052" lon="0.29145">
        <ele>1177</ele>
        <time>2017-02-09T09:40:08.013Z</time>
      </trkpt>
      <trkpt lat="42.93051" lon="0.29146">
        <ele>1177</ele>
        <time>2017-02-09T09:40:09.013Z</time>
      </trkpt>
      <trkpt lat="42.93051" lon="0.29146">
        <ele>1177</ele>
        <time>2017-02-09T09:40:10.013Z</time>
      </trkpt>
      <trkpt lat="42.9305" lon="0.29146">
        <ele>1179</ele>
        <time>2017-02-09T09:40:11.013Z</time>
      </trkpt>
      <trkpt lat="42.9305" lon="0.29147">
        <ele>1179</ele>
        <time>2017-02-09T09:40:12.013Z</time>
      </trkpt>
      <trkpt lat="42.93049" lon="0.29147">
        <ele>1179</ele>
        <time>2017-02-09T09:40:13.013Z</time>
      </trkpt>
      <trkpt lat="42.93048" lon="0.29148">
        <ele>1179</ele>
        <time>2017-02-09T09:40:14.013Z</time>
      </trkpt>
      <trkpt lat="42.93048" lon="0.29149">
        <ele>1179</ele>
        <time>2017-02-09T09:40:15.013Z</time>
      </trkpt>
      <trkpt lat="42.93047" lon="0.2915">
        <ele>1178</ele>
        <time>2017-02-09T09:40:16.013Z</time>
      </trkpt>
      <trkpt lat="42.93047" lon="0.29151">
        <ele>1178</ele>
        <time>2017-02-09T09:40:17.013Z</time>
      </trkpt>
      <trkpt lat="42.93046" lon="0.29151">
        <ele>1178</ele>
        <time>2017-02-09T09:40:18.013Z</time>
      </trkpt>
      <trkpt lat="42.93046" lon="0.29152">
        <ele>1178</ele>
        <time>2017-02-09T09:40:19.013Z</time>
      </trkpt>
      <trkpt lat="42.93045" lon="0.29153">
        <ele>1178</ele>
        <time>2017-02-09T09:40:20.013Z</time>
      </trkpt>
      <trkpt lat="42.93044" lon="0.29153">
        <ele>1177</ele>
        <time>2017-02-09T09:40:21.013Z</time>
      </trkpt>
      <trkpt lat="42.93044" lon="0.29154">
        <ele>1178</ele>
        <time>2017-02-09T09:40:22.013Z</time>
      </trkpt>
      <trkpt lat="42.93043" lon="0.29155">
        <ele>1178</ele>
        <time>2017-02-09T09:40:23.013Z</time>
      </trkpt>
      <trkpt lat="42.93042" lon="0.29155">
        <ele>1177</ele>
        <time>2017-02-09T09:40:24.013Z</time>
      </trkpt>
      <trkpt lat="42.93042" lon="0.29156">
        <ele>1178</ele>
        <time>2017-02-09T09:40:25.013Z</time>
      </trkpt>
      <trkpt lat="42.93041" lon="0.29157">
        <ele>1178</ele>
        <time>2017-02-09T09:40:26.013Z</time>
      </trkpt>
      <trkpt lat="42.93041" lon="0.29157">
        <ele>1178</ele>
        <time>2017-02-09T09:40:27.013Z</time>
      </trkpt>
      <trkpt lat="42.9304" lon="0.29158">
        <ele>1177</ele>
        <time>2017-02-09T09:40:28.013Z</time>
      </trkpt>
      <trkpt lat="42.9304" lon="0.29159">
        <ele>1177</ele>
        <time>2017-02-09T09:40:29.013Z</time>
      </trkpt>
      <trkpt lat="42.93039" lon="0.29159">
        <ele>1176</ele>
        <time>2017-02-09T09:40:30.013Z</time>
      </trkpt>
      <trkpt lat="42.93038" lon="0.2916">
        <ele>1176</ele>
        <time>2017-02-09T09:40:31.013Z</time>
      </trkpt>
      <trkpt lat="42.93037" lon="0.29161">
        <ele>1175</ele>
        <time>2017-02-09T09:40:32.013Z</time>
      </trkpt>
      <trkpt lat="42.93037" lon="0.29161">
        <ele>1174</ele>
        <time>2017-02-09T09:40:33.013Z</time>
      </trkpt>
      <trkpt lat="42.93036" lon="0.29162">
        <ele>1175</ele>
        <time>2017-02-09T09:40:34.013Z</time>
      </trkpt>
      <trkpt lat="42.93035" lon="0.29162">
        <ele>1175</ele>
        <time>2017-02-09T09:40:35.013Z</time>
      </trkpt>
      <trkpt lat="42.93034" lon="0.29162">
        <ele>1174</ele>
        <time>2017-02-09T09:40:36.013Z</time>
      </trkpt>
      <trkpt lat="42.93033" lon="0.29163">
        <ele>1174</ele>
        <time>2017-02-09T09:40:37.013Z</time>
      </trkpt>
      <trkpt lat="42.93033" lon="0.29163">
        <ele>1174</ele>
        <time>2017-02-09T09:40:38.013Z</time>
      </trkpt>
      <trkpt lat="42.93032" lon="0.29164">
        <ele>1174</ele>
        <time>2017-02-09T09:40:39.013Z</time>
      </trkpt>
      <trkpt lat="42.93031" lon="0.29164">
        <ele>1174</ele>
        <time>2017-02-09T09:40:40.013Z</time>
      </trkpt>
      <trkpt lat="42.9303" lon="0.29165">
        <ele>1174</ele>
        <time>2017-02-09T09:40:41.013Z</time>
      </trkpt>
      <trkpt lat="42.93029" lon="0.29165">
        <ele>1174</ele>
        <time>2017-02-09T09:40:42.013Z</time>
      </trkpt>
      <trkpt lat="42.93028" lon="0.29166">
        <ele>1174</ele>
        <time>2017-02-09T09:40:43.013Z</time>
      </trkpt>
      <trkpt lat="42.93028" lon="0.29166">
        <ele>1175</ele>
        <time>2017-02-09T09:40:44.013Z</time>
      </trkpt>
      <trkpt lat="42.93027" lon="0.29166">
        <ele>1174</ele>
        <time>2017-02-09T09:40:45.013Z</time>
      </trkpt>
      <trkpt lat="42.93026" lon="0.29167">
        <ele>1175</ele>
        <time>2017-02-09T09:40:46.013Z</time>
      </trkpt>
      <trkpt lat="42.93026" lon="0.29167">
        <ele>1175</ele>
        <time>2017-02-09T09:40:47.013Z</time>
      </trkpt>
      <trkpt lat="42.93025" lon="0.29167">
        <ele>1174</ele>
        <time>2017-02-09T09:40:48.013Z</time>
      </trkpt>
      <trkpt lat="42.93025" lon="0.29168">
        <ele>1174</ele>
        <time>2017-02-09T09:40:49.013Z</time>
      </trkpt>
      <trkpt lat="42.93024" lon="0.29168">
        <ele>1175</ele>
        <time>2017-02-09T09:40:50.013Z</time>
      </trkpt>
      <trkpt lat="42.93024" lon="0.29168">
        <ele>1176</ele>
        <time>2017-02-09T09:40:51.013Z</time>
      </trkpt>
      <trkpt lat="42.93024" lon="0.29168">
        <ele>1175</ele>
        <time>2017-02-09T09:40:52.013Z</time>
      </trkpt>
      <trkpt lat="42.93024" lon="0.29168">
        <ele>1174</ele>
        <time>2017-02-09T09:40:53.013Z</time>
      </trkpt>
      <trkpt lat="42.93025" lon="0.29168">
        <ele>1174</ele>
        <time>2017-02-09T09:40:54.013Z</time>
      </trkpt>
      <trkpt lat="42.93024" lon="0.29168">
        <ele>1175</ele>
        <time>2017-02-09T09:40:55.013Z</time>
      </trkpt>
      <trkpt lat="42.93024" lon="0.29169">
        <ele>1175</ele>
        <time>2017-02-09T09:40:56.013Z</time>
      </trkpt>
      <trkpt lat="42.93024" lon="0.29169">
        <ele>1175</ele>
        <time>2017-02-09T09:40:57.013Z</time>
      </trkpt>
      <trkpt lat="42.93022" lon="0.29168">
        <ele>1173</ele>
        <time>2017-02-09T09:40:58.017Z</time>
      </trkpt>
      <trkpt lat="42.93022" lon="0.29167">
        <ele>1173</ele>
        <time>2017-02-09T09:40:59.017Z</time>
      </trkpt>
      <trkpt lat="42.93021" lon="0.29166">
        <ele>1173</ele>
        <time>2017-02-09T09:41:00.017Z</time>
      </trkpt>
      <trkpt lat="42.9302" lon="0.29165">
        <ele>1173</ele>
        <time>2017-02-09T09:41:01.017Z</time>
      </trkpt>
      <trkpt lat="42.9302" lon="0.29164">
        <ele>1173</ele>
        <time>2017-02-09T09:41:02.017Z</time>
      </trkpt>
      <trkpt lat="42.93019" lon="0.29164">
        <ele>1173</ele>
        <time>2017-02-09T09:41:03.017Z</time>
      </trkpt>
      <trkpt lat="42.93018" lon="0.29163">
        <ele>1173</ele>
        <time>2017-02-09T09:41:04.017Z</time>
      </trkpt>
      <trkpt lat="42.93018" lon="0.29162">
        <ele>1173</ele>
        <time>2017-02-09T09:41:05.017Z</time>
      </trkpt>
      <trkpt lat="42.93017" lon="0.29162">
        <ele>1173</ele>
        <time>2017-02-09T09:41:06.017Z</time>
      </trkpt>
      <trkpt lat="42.93016" lon="0.29161">
        <ele>1173</ele>
        <time>2017-02-09T09:41:07.017Z</time>
      </trkpt>
      <trkpt lat="42.93016" lon="0.29161">
        <ele>1173</ele>
        <time>2017-02-09T09:41:08.017Z</time>
      </trkpt>
      <trkpt lat="42.93015" lon="0.29161">
        <ele>1173</ele>
        <time>2017-02-09T09:41:09.017Z</time>
      </trkpt>
      <trkpt lat="42.93014" lon="0.2916">
        <ele>1173</ele>
        <time>2017-02-09T09:41:10.017Z</time>
      </trkpt>
      <trkpt lat="42.93014" lon="0.2916">
        <ele>1173</ele>
        <time>2017-02-09T09:41:11.017Z</time>
      </trkpt>
      <trkpt lat="42.93013" lon="0.29159">
        <ele>1173</ele>
        <time>2017-02-09T09:41:12.017Z</time>
      </trkpt>
      <trkpt lat="42.93012" lon="0.29159">
        <ele>1173</ele>
        <time>2017-02-09T09:41:13.017Z</time>
      </trkpt>
      <trkpt lat="42.93011" lon="0.29158">
        <ele>1173</ele>
        <time>2017-02-09T09:41:14.017Z</time>
      </trkpt>
      <trkpt lat="42.93011" lon="0.29158">
        <ele>1173</ele>
        <time>2017-02-09T09:41:15.017Z</time>
      </trkpt>
      <trkpt lat="42.9301" lon="0.29157">
        <ele>1173</ele>
        <time>2017-02-09T09:41:16.017Z</time>
      </trkpt>
      <trkpt lat="42.93009" lon="0.29157">
        <ele>1173</ele>
        <time>2017-02-09T09:41:17.017Z</time>
      </trkpt>
      <trkpt lat="42.93009" lon="0.29157">
        <ele>1173</ele>
        <time>2017-02-09T09:41:18.017Z</time>
      </trkpt>
      <trkpt lat="42.93008" lon="0.29156">
        <ele>1173</ele>
        <time>2017-02-09T09:41:19.017Z</time>
      </trkpt>
      <trkpt lat="42.93008" lon="0.29156">
        <ele>1173</ele>
        <time>2017-02-09T09:41:20.017Z</time>
      </trkpt>
      <trkpt lat="42.93007" lon="0.29156">
        <ele>1173</ele>
        <time>2017-02-09T09:41:21.017Z</time>
      </trkpt>
      <trkpt lat="42.93006" lon="0.29155">
        <ele>1173</ele>
        <time>2017-02-09T09:41:22.017Z</time>
      </trkpt>
      <trkpt lat="42.93006" lon="0.29155">
        <ele>1173</ele>
        <time>2017-02-09T09:41:23.017Z</time>
      </trkpt>
      <trkpt lat="42.93005" lon="0.29155">
        <ele>1173</ele>
        <time>2017-02-09T09:41:24.017Z</time>
      </trkpt>
      <trkpt lat="42.93004" lon="0.29154">
        <ele>1173</ele>
        <time>2017-02-09T09:41:25.017Z</time>
      </trkpt>
      <trkpt lat="42.93003" lon="0.29154">
        <ele>1173</ele>
        <time>2017-02-09T09:41:26.017Z</time>
      </trkpt>
      <trkpt lat="42.93003" lon="0.29154">
        <ele>1173</ele>
        <time>2017-02-09T09:41:27.017Z</time>
      </trkpt>
      <trkpt lat="42.93002" lon="0.29154">
        <ele>1173</ele>
        <time>2017-02-09T09:41:28.017Z</time>
      </trkpt>
      <trkpt lat="42.93001" lon="0.29154">
        <ele>1173</ele>
        <time>2017-02-09T09:41:29.017Z</time>
      </trkpt>
      <trkpt lat="42.93" lon="0.29154">
        <ele>1172</ele>
        <time>2017-02-09T09:41:30.017Z</time>
      </trkpt>
      <trkpt lat="42.93" lon="0.29153">
        <ele>1173</ele>
        <time>2017-02-09T09:41:31.017Z</time>
      </trkpt>
      <trkpt lat="42.92999" lon="0.29153">
        <ele>1172</ele>
        <time>2017-02-09T09:41:32.017Z</time>
      </trkpt>
      <trkpt lat="42.92998" lon="0.29153">
        <ele>1173</ele>
        <time>2017-02-09T09:41:33.017Z</time>
      </trkpt>
      <trkpt lat="42.92998" lon="0.29153">
        <ele>1173</ele>
        <time>2017-02-09T09:41:34.017Z</time>
      </trkpt>
      <trkpt lat="42.92997" lon="0.29153">
        <ele>1173</ele>
        <time>2017-02-09T09:41:35.017Z</time>
      </trkpt>
      <trkpt lat="42.92996" lon="0.29152">
        <ele>1173</ele>
        <time>2017-02-09T09:41:36.017Z</time>
      </trkpt>
      <trkpt lat="42.92996" lon="0.29152">
        <ele>1173</ele>
        <time>2017-02-09T09:41:37.017Z</time>
      </trkpt>
      <trkpt lat="42.92995" lon="0.29152">
        <ele>1173</ele>
        <time>2017-02-09T09:41:38.017Z</time>
      </trkpt>
      <trkpt lat="42.92994" lon="0.29152">
        <ele>1174</ele>
        <time>2017-02-09T09:41:39.017Z</time>
      </trkpt>
      <trkpt lat="42.92993" lon="0.29152">
        <ele>1174</ele>
        <time>2017-02-09T09:41:40.017Z</time>
      </trkpt>
      <trkpt lat="42.92993" lon="0.29152">
        <ele>1174</ele>
        <time>2017-02-09T09:41:41.017Z</time>
      </trkpt>
      <trkpt lat="42.92992" lon="0.29152">
        <ele>1174</ele>
        <time>2017-02-09T09:41:42.017Z</time>
      </trkpt>
      <trkpt lat="42.92991" lon="0.29152">
        <ele>1174</ele>
        <time>2017-02-09T09:41:43.017Z</time>
      </trkpt>
      <trkpt lat="42.9299" lon="0.29152">
        <ele>1175</ele>
        <time>2017-02-09T09:41:44.017Z</time>
      </trkpt>
      <trkpt lat="42.92989" lon="0.29152">
        <ele>1175</ele>
        <time>2017-02-09T09:41:45.017Z</time>
      </trkpt>
      <trkpt lat="42.92989" lon="0.29152">
        <ele>1175</ele>
        <time>2017-02-09T09:41:46.017Z</time>
      </trkpt>
      <trkpt lat="42.92988" lon="0.29152">
        <ele>1175</ele>
        <time>2017-02-09T09:41:47.017Z</time>
      </trkpt>
      <trkpt lat="42.92987" lon="0.29152">
        <ele>1175</ele>
        <time>2017-02-09T09:41:48.017Z</time>
      </trkpt>
      <trkpt lat="42.92986" lon="0.29152">
        <ele>1175</ele>
        <time>2017-02-09T09:41:49.017Z</time>
      </trkpt>
      <trkpt lat="42.92985" lon="0.29152">
        <ele>1175</ele>
        <time>2017-02-09T09:41:50.017Z</time>
      </trkpt>
      <trkpt lat="42.92984" lon="0.29152">
        <ele>1176</ele>
        <time>2017-02-09T09:41:51.017Z</time>
      </trkpt>
      <trkpt lat="42.92984" lon="0.29152">
        <ele>1176</ele>
        <time>2017-02-09T09:41:52.017Z</time>
      </trkpt>
      <trkpt lat="42.92983" lon="0.29152">
        <ele>1175</ele>
        <time>2017-02-09T09:41:53.017Z</time>
      </trkpt>
      <trkpt lat="42.92982" lon="0.29152">
        <ele>1176</ele>
        <time>2017-02-09T09:41:54.017Z</time>
      </trkpt>
      <trkpt lat="42.92981" lon="0.29153">
        <ele>1176</ele>
        <time>2017-02-09T09:41:55.017Z</time>
      </trkpt>
      <trkpt lat="42.92981" lon="0.29153">
        <ele>1176</ele>
        <time>2017-02-09T09:41:56.017Z</time>
      </trkpt>
      <trkpt lat="42.9298" lon="0.29153">
        <ele>1176</ele>
        <time>2017-02-09T09:41:57.017Z</time>
      </trkpt>
      <trkpt lat="42.92979" lon="0.29153">
        <ele>1176</ele>
        <time>2017-02-09T09:41:58.017Z</time>
      </trkpt>
      <trkpt lat="42.92978" lon="0.29153">
        <ele>1176</ele>
        <time>2017-02-09T09:41:59.017Z</time>
      </trkpt>
      <trkpt lat="42.92977" lon="0.29153">
        <ele>1176</ele>
        <time>2017-02-09T09:42:00.017Z</time>
      </trkpt>
      <trkpt lat="42.92977" lon="0.29153">
        <ele>1176</ele>
        <time>2017-02-09T09:42:01.017Z</time>
      </trkpt>
      <trkpt lat="42.92976" lon="0.29154">
        <ele>1176</ele>
        <time>2017-02-09T09:42:02.017Z</time>
      </trkpt>
      <trkpt lat="42.92975" lon="0.29154">
        <ele>1176</ele>
        <time>2017-02-09T09:42:03.017Z</time>
      </trkpt>
      <trkpt lat="42.92975" lon="0.29154">
        <ele>1177</ele>
        <time>2017-02-09T09:42:04.017Z</time>
      </trkpt>
      <trkpt lat="42.92974" lon="0.29154">
        <ele>1177</ele>
        <time>2017-02-09T09:42:05.017Z</time>
      </trkpt>
      <trkpt lat="42.92973" lon="0.29154">
        <ele>1177</ele>
        <time>2017-02-09T09:42:06.017Z</time>
      </trkpt>
      <trkpt lat="42.92972" lon="0.29154">
        <ele>1177</ele>
        <time>2017-02-09T09:42:07.017Z</time>
      </trkpt>
      <trkpt lat="42.92972" lon="0.29155">
        <ele>1177</ele>
        <time>2017-02-09T09:42:08.017Z</time>
      </trkpt>
      <trkpt lat="42.92971" lon="0.29155">
        <ele>1177</ele>
        <time>2017-02-09T09:42:09.017Z</time>
      </trkpt>
      <trkpt lat="42.9297" lon="0.29155">
        <ele>1177</ele>
        <time>2017-02-09T09:42:10.017Z</time>
      </trkpt>
      <trkpt lat="42.92969" lon="0.29155">
        <ele>1177</ele>
        <time>2017-02-09T09:42:11.017Z</time>
      </trkpt>
      <trkpt lat="42.92969" lon="0.29155">
        <ele>1177</ele>
        <time>2017-02-09T09:42:12.017Z</time>
      </trkpt>
      <trkpt lat="42.92968" lon="0.29156">
        <ele>1177</ele>
        <time>2017-02-09T09:42:13.017Z</time>
      </trkpt>
      <trkpt lat="42.92967" lon="0.29156">
        <ele>1177</ele>
        <time>2017-02-09T09:42:14.017Z</time>
      </trkpt>
      <trkpt lat="42.92966" lon="0.29156">
        <ele>1177</ele>
        <time>2017-02-09T09:42:15.017Z</time>
      </trkpt>
      <trkpt lat="42.92966" lon="0.29156">
        <ele>1177</ele>
        <time>2017-02-09T09:42:16.017Z</time>
      </trkpt>
      <trkpt lat="42.92965" lon="0.29156">
        <ele>1177</ele>
        <time>2017-02-09T09:42:17.017Z</time>
      </trkpt>
      <trkpt lat="42.92964" lon="0.29156">
        <ele>1177</ele>
        <time>2017-02-09T09:42:18.017Z</time>
      </trkpt>
      <trkpt lat="42.92964" lon="0.29157">
        <ele>1178</ele>
        <time>2017-02-09T09:42:19.017Z</time>
      </trkpt>
      <trkpt lat="42.92963" lon="0.29157">
        <ele>1178</ele>
        <time>2017-02-09T09:42:20.017Z</time>
      </trkpt>
      <trkpt lat="42.92962" lon="0.29157">
        <ele>1178</ele>
        <time>2017-02-09T09:42:21.017Z</time>
      </trkpt>
      <trkpt lat="42.92962" lon="0.29158">
        <ele>1178</ele>
        <time>2017-02-09T09:42:22.017Z</time>
      </trkpt>
      <trkpt lat="42.92961" lon="0.29158">
        <ele>1179</ele>
        <time>2017-02-09T09:42:23.017Z</time>
      </trkpt>
      <trkpt lat="42.9296" lon="0.29158">
        <ele>1179</ele>
        <time>2017-02-09T09:42:24.017Z</time>
      </trkpt>
      <trkpt lat="42.9296" lon="0.29158">
        <ele>1179</ele>
        <time>2017-02-09T09:42:25.017Z</time>
      </trkpt>
      <trkpt lat="42.92959" lon="0.29158">
        <ele>1179</ele>
        <time>2017-02-09T09:42:26.017Z</time>
      </trkpt>
      <trkpt lat="42.92958" lon="0.29158">
        <ele>1179</ele>
        <time>2017-02-09T09:42:27.017Z</time>
      </trkpt>
      <trkpt lat="42.92957" lon="0.29159">
        <ele>1179</ele>
        <time>2017-02-09T09:42:28.017Z</time>
      </trkpt>
      <trkpt lat="42.92957" lon="0.29159">
        <ele>1179</ele>
        <time>2017-02-09T09:42:29.017Z</time>
      </trkpt>
      <trkpt lat="42.92956" lon="0.29159">
        <ele>1179</ele>
        <time>2017-02-09T09:42:30.017Z</time>
      </trkpt>
      <trkpt lat="42.92956" lon="0.29159">
        <ele>1179</ele>
        <time>2017-02-09T09:42:31.017Z</time>
      </trkpt>
      <trkpt lat="42.92955" lon="0.29159">
        <ele>1180</ele>
        <time>2017-02-09T09:42:32.017Z</time>
      </trkpt>
      <trkpt lat="42.92954" lon="0.29159">
        <ele>1180</ele>
        <time>2017-02-09T09:42:33.017Z</time>
      </trkpt>
      <trkpt lat="42.92953" lon="0.2916">
        <ele>1180</ele>
        <time>2017-02-09T09:42:34.017Z</time>
      </trkpt>
      <trkpt lat="42.92953" lon="0.2916">
        <ele>1180</ele>
        <time>2017-02-09T09:42:35.017Z</time>
      </trkpt>
      <trkpt lat="42.92952" lon="0.2916">
        <ele>1180</ele>
        <time>2017-02-09T09:42:36.017Z</time>
      </trkpt>
      <trkpt lat="42.92951" lon="0.29161">
        <ele>1180</ele>
        <time>2017-02-09T09:42:37.017Z</time>
      </trkpt>
      <trkpt lat="42.9295" lon="0.29161">
        <ele>1180</ele>
        <time>2017-02-09T09:42:38.017Z</time>
      </trkpt>
      <trkpt lat="42.92949" lon="0.29161">
        <ele>1180</ele>
        <time>2017-02-09T09:42:39.017Z</time>
      </trkpt>
      <trkpt lat="42.92949" lon="0.29161">
        <ele>1180</ele>
        <time>2017-02-09T09:42:40.017Z</time>
      </trkpt>
      <trkpt lat="42.92948" lon="0.29161">
        <ele>1180</ele>
        <time>2017-02-09T09:42:41.017Z</time>
      </trkpt>
      <trkpt lat="42.92947" lon="0.29161">
        <ele>1180</ele>
        <time>2017-02-09T09:42:42.017Z</time>
      </trkpt>
      <trkpt lat="42.92946" lon="0.29161">
        <ele>1180</ele>
        <time>2017-02-09T09:42:43.017Z</time>
      </trkpt>
      <trkpt lat="42.92946" lon="0.2916">
        <ele>1180</ele>
        <time>2017-02-09T09:42:44.017Z</time>
      </trkpt>
      <trkpt lat="42.92945" lon="0.2916">
        <ele>1180</ele>
        <time>2017-02-09T09:42:45.017Z</time>
      </trkpt>
      <trkpt lat="42.92944" lon="0.2916">
        <ele>1180</ele>
        <time>2017-02-09T09:42:46.017Z</time>
      </trkpt>
      <trkpt lat="42.92943" lon="0.2916">
        <ele>1180</ele>
        <time>2017-02-09T09:42:47.017Z</time>
      </trkpt>
      <trkpt lat="42.92943" lon="0.2916">
        <ele>1180</ele>
        <time>2017-02-09T09:42:48.017Z</time>
      </trkpt>
      <trkpt lat="42.92942" lon="0.2916">
        <ele>1180</ele>
        <time>2017-02-09T09:42:49.017Z</time>
      </trkpt>
      <trkpt lat="42.92941" lon="0.2916">
        <ele>1180</ele>
        <time>2017-02-09T09:42:50.017Z</time>
      </trkpt>
      <trkpt lat="42.92941" lon="0.2916">
        <ele>1180</ele>
        <time>2017-02-09T09:42:51.017Z</time>
      </trkpt>
      <trkpt lat="42.9294" lon="0.29159">
        <ele>1180</ele>
        <time>2017-02-09T09:42:52.017Z</time>
      </trkpt>
      <trkpt lat="42.9294" lon="0.29159">
        <ele>1180</ele>
        <time>2017-02-09T09:42:53.017Z</time>
      </trkpt>
      <trkpt lat="42.92939" lon="0.29159">
        <ele>1181</ele>
        <time>2017-02-09T09:42:54.017Z</time>
      </trkpt>
      <trkpt lat="42.92938" lon="0.29158">
        <ele>1181</ele>
        <time>2017-02-09T09:42:55.017Z</time>
      </trkpt>
      <trkpt lat="42.92938" lon="0.29158">
        <ele>1181</ele>
        <time>2017-02-09T09:42:56.017Z</time>
      </trkpt>
      <trkpt lat="42.92937" lon="0.29158">
        <ele>1181</ele>
        <time>2017-02-09T09:42:57.017Z</time>
      </trkpt>
      <trkpt lat="42.92936" lon="0.29157">
        <ele>1181</ele>
        <time>2017-02-09T09:42:58.017Z</time>
      </trkpt>
      <trkpt lat="42.92936" lon="0.29157">
        <ele>1181</ele>
        <time>2017-02-09T09:42:59.017Z</time>
      </trkpt>
      <trkpt lat="42.92935" lon="0.29157">
        <ele>1181</ele>
        <time>2017-02-09T09:43:00.017Z</time>
      </trkpt>
      <trkpt lat="42.92934" lon="0.29156">
        <ele>1181</ele>
        <time>2017-02-09T09:43:01.017Z</time>
      </trkpt>
      <trkpt lat="42.92933" lon="0.29156">
        <ele>1181</ele>
        <time>2017-02-09T09:43:02.017Z</time>
      </trkpt>
      <trkpt lat="42.92933" lon="0.29156">
        <ele>1181</ele>
        <time>2017-02-09T09:43:03.017Z</time>
      </trkpt>
      <trkpt lat="42.92932" lon="0.29156">
        <ele>1181</ele>
        <time>2017-02-09T09:43:04.017Z</time>
      </trkpt>
      <trkpt lat="42.92931" lon="0.29156">
        <ele>1181</ele>
        <time>2017-02-09T09:43:05.017Z</time>
      </trkpt>
      <trkpt lat="42.92931" lon="0.29155">
        <ele>1181</ele>
        <time>2017-02-09T09:43:06.017Z</time>
      </trkpt>
      <trkpt lat="42.9293" lon="0.29155">
        <ele>1181</ele>
        <time>2017-02-09T09:43:07.017Z</time>
      </trkpt>
      <trkpt lat="42.92929" lon="0.29155">
        <ele>1181</ele>
        <time>2017-02-09T09:43:08.017Z</time>
      </trkpt>
      <trkpt lat="42.92929" lon="0.29155">
        <ele>1181</ele>
        <time>2017-02-09T09:43:09.017Z</time>
      </trkpt>
      <trkpt lat="42.92929" lon="0.29156">
        <ele>1181</ele>
        <time>2017-02-09T09:43:10.017Z</time>
      </trkpt>
      <trkpt lat="42.92929" lon="0.29156">
        <ele>1181</ele>
        <time>2017-02-09T09:43:11.017Z</time>
      </trkpt>
      <trkpt lat="42.92929" lon="0.29156">
        <ele>1182</ele>
        <time>2017-02-09T09:43:12.017Z</time>
      </trkpt>
      <trkpt lat="42.92929" lon="0.29156">
        <ele>1182</ele>
        <time>2017-02-09T09:43:13.017Z</time>
      </trkpt>
      <trkpt lat="42.92929" lon="0.29156">
        <ele>1182</ele>
        <time>2017-02-09T09:43:14.017Z</time>
      </trkpt>
      <trkpt lat="42.92929" lon="0.29155">
        <ele>1182</ele>
        <time>2017-02-09T09:43:15.017Z</time>
      </trkpt>
      <trkpt lat="42.92928" lon="0.29154">
        <ele>1182</ele>
        <time>2017-02-09T09:43:16.021Z</time>
      </trkpt>
      <trkpt lat="42.92928" lon="0.29155">
        <ele>1182</ele>
        <time>2017-02-09T09:43:17.021Z</time>
      </trkpt>
      <trkpt lat="42.92928" lon="0.29155">
        <ele>1182</ele>
        <time>2017-02-09T09:43:18.021Z</time>
      </trkpt>
      <trkpt lat="42.92928" lon="0.29155">
        <ele>1182</ele>
        <time>2017-02-09T09:43:19.021Z</time>
      </trkpt>
      <trkpt lat="42.92928" lon="0.29155">
        <ele>1182</ele>
        <time>2017-02-09T09:43:20.021Z</time>
      </trkpt>
      <trkpt lat="42.92927" lon="0.29153">
        <ele>1185</ele>
        <time>2017-02-09T09:43:21.025Z</time>
      </trkpt>
      <trkpt lat="42.92926" lon="0.29153">
        <ele>1185</ele>
        <time>2017-02-09T09:43:22.025Z</time>
      </trkpt>
      <trkpt lat="42.92926" lon="0.29152">
        <ele>1185</ele>
        <time>2017-02-09T09:43:23.025Z</time>
      </trkpt>
      <trkpt lat="42.92925" lon="0.29151">
        <ele>1185</ele>
        <time>2017-02-09T09:43:24.025Z</time>
      </trkpt>
      <trkpt lat="42.92925" lon="0.29151">
        <ele>1185</ele>
        <time>2017-02-09T09:43:25.025Z</time>
      </trkpt>
      <trkpt lat="42.92925" lon="0.2915">
        <ele>1185</ele>
        <time>2017-02-09T09:43:26.025Z</time>
      </trkpt>
      <trkpt lat="42.92924" lon="0.29149">
        <ele>1185</ele>
        <time>2017-02-09T09:43:27.025Z</time>
      </trkpt>
      <trkpt lat="42.92924" lon="0.29148">
        <ele>1184</ele>
        <time>2017-02-09T09:43:28.025Z</time>
      </trkpt>
      <trkpt lat="42.92924" lon="0.29147">
        <ele>1185</ele>
        <time>2017-02-09T09:43:29.025Z</time>
      </trkpt>
      <trkpt lat="42.92923" lon="0.29146">
        <ele>1185</ele>
        <time>2017-02-09T09:43:30.025Z</time>
      </trkpt>
      <trkpt lat="42.92923" lon="0.29145">
        <ele>1185</ele>
        <time>2017-02-09T09:43:31.025Z</time>
      </trkpt>
      <trkpt lat="42.92923" lon="0.29144">
        <ele>1185</ele>
        <time>2017-02-09T09:43:32.025Z</time>
      </trkpt>
      <trkpt lat="42.92923" lon="0.29143">
        <ele>1185</ele>
        <time>2017-02-09T09:43:33.025Z</time>
      </trkpt>
      <trkpt lat="42.92922" lon="0.29142">
        <ele>1185</ele>
        <time>2017-02-09T09:43:34.025Z</time>
      </trkpt>
      <trkpt lat="42.92922" lon="0.29142">
        <ele>1185</ele>
        <time>2017-02-09T09:43:35.025Z</time>
      </trkpt>
      <trkpt lat="42.92922" lon="0.29141">
        <ele>1185</ele>
        <time>2017-02-09T09:43:36.025Z</time>
      </trkpt>
      <trkpt lat="42.92922" lon="0.2914">
        <ele>1185</ele>
        <time>2017-02-09T09:43:37.025Z</time>
      </trkpt>
      <trkpt lat="42.92921" lon="0.29139">
        <ele>1185</ele>
        <time>2017-02-09T09:43:38.025Z</time>
      </trkpt>
      <trkpt lat="42.92921" lon="0.29138">
        <ele>1186</ele>
        <time>2017-02-09T09:43:39.025Z</time>
      </trkpt>
      <trkpt lat="42.9292" lon="0.29137">
        <ele>1186</ele>
        <time>2017-02-09T09:43:40.025Z</time>
      </trkpt>
      <trkpt lat="42.9292" lon="0.29136">
        <ele>1186</ele>
        <time>2017-02-09T09:43:41.025Z</time>
      </trkpt>
      <trkpt lat="42.92919" lon="0.29136">
        <ele>1186</ele>
        <time>2017-02-09T09:43:42.025Z</time>
      </trkpt>
      <trkpt lat="42.92919" lon="0.29135">
        <ele>1186</ele>
        <time>2017-02-09T09:43:43.025Z</time>
      </trkpt>
      <trkpt lat="42.92918" lon="0.29134">
        <ele>1185</ele>
        <time>2017-02-09T09:43:44.025Z</time>
      </trkpt>
      <trkpt lat="42.92918" lon="0.29133">
        <ele>1186</ele>
        <time>2017-02-09T09:43:45.025Z</time>
      </trkpt>
      <trkpt lat="42.92918" lon="0.29132">
        <ele>1187</ele>
        <time>2017-02-09T09:43:46.025Z</time>
      </trkpt>
      <trkpt lat="42.92917" lon="0.29131">
        <ele>1186</ele>
        <time>2017-02-09T09:43:47.025Z</time>
      </trkpt>
      <trkpt lat="42.92917" lon="0.2913">
        <ele>1186</ele>
        <time>2017-02-09T09:43:48.025Z</time>
      </trkpt>
      <trkpt lat="42.92917" lon="0.29129">
        <ele>1186</ele>
        <time>2017-02-09T09:43:49.025Z</time>
      </trkpt>
      <trkpt lat="42.92916" lon="0.29128">
        <ele>1186</ele>
        <time>2017-02-09T09:43:50.025Z</time>
      </trkpt>
      <trkpt lat="42.92916" lon="0.29127">
        <ele>1186</ele>
        <time>2017-02-09T09:43:51.025Z</time>
      </trkpt>
      <trkpt lat="42.92915" lon="0.29126">
        <ele>1186</ele>
        <time>2017-02-09T09:43:52.025Z</time>
      </trkpt>
      <trkpt lat="42.92915" lon="0.29125">
        <ele>1186</ele>
        <time>2017-02-09T09:43:53.025Z</time>
      </trkpt>
      <trkpt lat="42.92914" lon="0.29125">
        <ele>1186</ele>
        <time>2017-02-09T09:43:54.025Z</time>
      </trkpt>
      <trkpt lat="42.92914" lon="0.29124">
        <ele>1185</ele>
        <time>2017-02-09T09:43:55.025Z</time>
      </trkpt>
      <trkpt lat="42.92914" lon="0.29123">
        <ele>1186</ele>
        <time>2017-02-09T09:43:56.025Z</time>
      </trkpt>
      <trkpt lat="42.92913" lon="0.29122">
        <ele>1186</ele>
        <time>2017-02-09T09:43:57.025Z</time>
      </trkpt>
      <trkpt lat="42.92913" lon="0.29121">
        <ele>1186</ele>
        <time>2017-02-09T09:43:58.025Z</time>
      </trkpt>
      <trkpt lat="42.92913" lon="0.2912">
        <ele>1186</ele>
        <time>2017-02-09T09:43:59.025Z</time>
      </trkpt>
      <trkpt lat="42.92913" lon="0.29119">
        <ele>1187</ele>
        <time>2017-02-09T09:44:00.025Z</time>
      </trkpt>
      <trkpt lat="42.92913" lon="0.29118">
        <ele>1187</ele>
        <time>2017-02-09T09:44:01.025Z</time>
      </trkpt>
      <trkpt lat="42.92912" lon="0.29117">
        <ele>1186</ele>
        <time>2017-02-09T09:44:02.025Z</time>
      </trkpt>
      <trkpt lat="42.92912" lon="0.29117">
        <ele>1187</ele>
        <time>2017-02-09T09:44:03.025Z</time>
      </trkpt>
      <trkpt lat="42.92912" lon="0.29116">
        <ele>1187</ele>
        <time>2017-02-09T09:44:04.025Z</time>
      </trkpt>
      <trkpt lat="42.92912" lon="0.29116">
        <ele>1186</ele>
        <time>2017-02-09T09:44:05.025Z</time>
      </trkpt>
      <trkpt lat="42.92912" lon="0.29116">
        <ele>1186</ele>
        <time>2017-02-09T09:44:06.025Z</time>
      </trkpt>
      <trkpt lat="42.92912" lon="0.29116">
        <ele>1186</ele>
        <time>2017-02-09T09:44:07.025Z</time>
      </trkpt>
      <trkpt lat="42.92912" lon="0.29116">
        <ele>1186</ele>
        <time>2017-02-09T09:44:08.025Z</time>
      </trkpt>
      <trkpt lat="42.92912" lon="0.29115">
        <ele>1186</ele>
        <time>2017-02-09T09:44:09.025Z</time>
      </trkpt>
      <trkpt lat="42.92911" lon="0.29115">
        <ele>1186</ele>
        <time>2017-02-09T09:44:10.025Z</time>
      </trkpt>
      <trkpt lat="42.92911" lon="0.29114">
        <ele>1186</ele>
        <time>2017-02-09T09:44:11.025Z</time>
      </trkpt>
      <trkpt lat="42.92911" lon="0.29114">
        <ele>1186</ele>
        <time>2017-02-09T09:44:12.025Z</time>
      </trkpt>
      <trkpt lat="42.92911" lon="0.29113">
        <ele>1186</ele>
        <time>2017-02-09T09:44:13.025Z</time>
      </trkpt>
      <trkpt lat="42.92911" lon="0.29112">
        <ele>1186</ele>
        <time>2017-02-09T09:44:14.025Z</time>
      </trkpt>
      <trkpt lat="42.9291" lon="0.29111">
        <ele>1186</ele>
        <time>2017-02-09T09:44:15.025Z</time>
      </trkpt>
      <trkpt lat="42.9291" lon="0.2911">
        <ele>1186</ele>
        <time>2017-02-09T09:44:16.025Z</time>
      </trkpt>
      <trkpt lat="42.9291" lon="0.29109">
        <ele>1186</ele>
        <time>2017-02-09T09:44:17.025Z</time>
      </trkpt>
      <trkpt lat="42.9291" lon="0.29108">
        <ele>1186</ele>
        <time>2017-02-09T09:44:18.025Z</time>
      </trkpt>
      <trkpt lat="42.92909" lon="0.29107">
        <ele>1186</ele>
        <time>2017-02-09T09:44:19.025Z</time>
      </trkpt>
      <trkpt lat="42.92909" lon="0.29106">
        <ele>1186</ele>
        <time>2017-02-09T09:44:20.025Z</time>
      </trkpt>
      <trkpt lat="42.92909" lon="0.29106">
        <ele>1185</ele>
        <time>2017-02-09T09:44:21.025Z</time>
      </trkpt>
      <trkpt lat="42.92909" lon="0.29105">
        <ele>1185</ele>
        <time>2017-02-09T09:44:22.025Z</time>
      </trkpt>
      <trkpt lat="42.92908" lon="0.29105">
        <ele>1185</ele>
        <time>2017-02-09T09:44:23.025Z</time>
      </trkpt>
      <trkpt lat="42.92908" lon="0.29104">
        <ele>1184</ele>
        <time>2017-02-09T09:44:24.025Z</time>
      </trkpt>
      <trkpt lat="42.92907" lon="0.29103">
        <ele>1184</ele>
        <time>2017-02-09T09:44:25.025Z</time>
      </trkpt>
      <trkpt lat="42.92907" lon="0.29102">
        <ele>1184</ele>
        <time>2017-02-09T09:44:26.025Z</time>
      </trkpt>
      <trkpt lat="42.92906" lon="0.29102">
        <ele>1185</ele>
        <time>2017-02-09T09:44:27.025Z</time>
      </trkpt>
      <trkpt lat="42.92906" lon="0.29101">
        <ele>1186</ele>
        <time>2017-02-09T09:44:28.025Z</time>
      </trkpt>
      <trkpt lat="42.92906" lon="0.291">
        <ele>1186</ele>
        <time>2017-02-09T09:44:29.025Z</time>
      </trkpt>
      <trkpt lat="42.92905" lon="0.29099">
        <ele>1186</ele>
        <time>2017-02-09T09:44:30.025Z</time>
      </trkpt>
      <trkpt lat="42.92905" lon="0.29099">
        <ele>1186</ele>
        <time>2017-02-09T09:44:31.025Z</time>
      </trkpt>
      <trkpt lat="42.92905" lon="0.29098">
        <ele>1186</ele>
        <time>2017-02-09T09:44:32.025Z</time>
      </trkpt>
      <trkpt lat="42.92905" lon="0.29097">
        <ele>1186</ele>
        <time>2017-02-09T09:44:33.025Z</time>
      </trkpt>
      <trkpt lat="42.92904" lon="0.29096">
        <ele>1186</ele>
        <time>2017-02-09T09:44:34.025Z</time>
      </trkpt>
      <trkpt lat="42.92904" lon="0.29095">
        <ele>1186</ele>
        <time>2017-02-09T09:44:35.025Z</time>
      </trkpt>
      <trkpt lat="42.92904" lon="0.29094">
        <ele>1186</ele>
        <time>2017-02-09T09:44:36.025Z</time>
      </trkpt>
      <trkpt lat="42.92903" lon="0.29093">
        <ele>1186</ele>
        <time>2017-02-09T09:44:37.025Z</time>
      </trkpt>
      <trkpt lat="42.92903" lon="0.29092">
        <ele>1186</ele>
        <time>2017-02-09T09:44:38.025Z</time>
      </trkpt>
      <trkpt lat="42.92903" lon="0.29091">
        <ele>1186</ele>
        <time>2017-02-09T09:44:39.025Z</time>
      </trkpt>
      <trkpt lat="42.92903" lon="0.2909">
        <ele>1187</ele>
        <time>2017-02-09T09:44:40.025Z</time>
      </trkpt>
      <trkpt lat="42.92902" lon="0.29089">
        <ele>1187</ele>
        <time>2017-02-09T09:44:41.025Z</time>
      </trkpt>
      <trkpt lat="42.92902" lon="0.29088">
        <ele>1187</ele>
        <time>2017-02-09T09:44:42.025Z</time>
      </trkpt>
      <trkpt lat="42.92902" lon="0.29088">
        <ele>1188</ele>
        <time>2017-02-09T09:44:43.025Z</time>
      </trkpt>
      <trkpt lat="42.92901" lon="0.29087">
        <ele>1188</ele>
        <time>2017-02-09T09:44:44.025Z</time>
      </trkpt>
      <trkpt lat="42.92901" lon="0.29086">
        <ele>1188</ele>
        <time>2017-02-09T09:44:45.025Z</time>
      </trkpt>
      <trkpt lat="42.92901" lon="0.29085">
        <ele>1188</ele>
        <time>2017-02-09T09:44:46.025Z</time>
      </trkpt>
      <trkpt lat="42.929" lon="0.29085">
        <ele>1188</ele>
        <time>2017-02-09T09:44:47.025Z</time>
      </trkpt>
      <trkpt lat="42.929" lon="0.29084">
        <ele>1189</ele>
        <time>2017-02-09T09:44:48.025Z</time>
      </trkpt>
      <trkpt lat="42.92899" lon="0.29083">
        <ele>1189</ele>
        <time>2017-02-09T09:44:49.025Z</time>
      </trkpt>
      <trkpt lat="42.92899" lon="0.29083">
        <ele>1189</ele>
        <time>2017-02-09T09:44:50.025Z</time>
      </trkpt>
      <trkpt lat="42.92898" lon="0.29082">
        <ele>1189</ele>
        <time>2017-02-09T09:44:51.025Z</time>
      </trkpt>
      <trkpt lat="42.92898" lon="0.29082">
        <ele>1188</ele>
        <time>2017-02-09T09:44:52.025Z</time>
      </trkpt>
      <trkpt lat="42.92895" lon="0.29078">
        <ele>1187</ele>
        <time>2017-02-09T09:44:53.029Z</time>
      </trkpt>
      <trkpt lat="42.92895" lon="0.29078">
        <ele>1187</ele>
        <time>2017-02-09T09:44:54.029Z</time>
      </trkpt>
      <trkpt lat="42.92894" lon="0.29077">
        <ele>1187</ele>
        <time>2017-02-09T09:44:55.029Z</time>
      </trkpt>
      <trkpt lat="42.92894" lon="0.29076">
        <ele>1187</ele>
        <time>2017-02-09T09:44:56.029Z</time>
      </trkpt>
      <trkpt lat="42.92894" lon="0.29075">
        <ele>1187</ele>
        <time>2017-02-09T09:44:57.029Z</time>
      </trkpt>
      <trkpt lat="42.92893" lon="0.29074">
        <ele>1187</ele>
        <time>2017-02-09T09:44:58.029Z</time>
      </trkpt>
      <trkpt lat="42.92893" lon="0.29073">
        <ele>1186</ele>
        <time>2017-02-09T09:44:59.029Z</time>
      </trkpt>
      <trkpt lat="42.92893" lon="0.29072">
        <ele>1186</ele>
        <time>2017-02-09T09:45:00.029Z</time>
      </trkpt>
      <trkpt lat="42.92892" lon="0.29071">
        <ele>1186</ele>
        <time>2017-02-09T09:45:01.029Z</time>
      </trkpt>
      <trkpt lat="42.92892" lon="0.2907">
        <ele>1186</ele>
        <time>2017-02-09T09:45:02.029Z</time>
      </trkpt>
      <trkpt lat="42.92892" lon="0.29069">
        <ele>1186</ele>
        <time>2017-02-09T09:45:03.029Z</time>
      </trkpt>
      <trkpt lat="42.92891" lon="0.29068">
        <ele>1186</ele>
        <time>2017-02-09T09:45:04.029Z</time>
      </trkpt>
      <trkpt lat="42.92891" lon="0.29067">
        <ele>1185</ele>
        <time>2017-02-09T09:45:05.029Z</time>
      </trkpt>
      <trkpt lat="42.9289" lon="0.29066">
        <ele>1186</ele>
        <time>2017-02-09T09:45:06.029Z</time>
      </trkpt>
      <trkpt lat="42.9289" lon="0.29065">
        <ele>1186</ele>
        <time>2017-02-09T09:45:07.029Z</time>
      </trkpt>
      <trkpt lat="42.92889" lon="0.29065">
        <ele>1186</ele>
        <time>2017-02-09T09:45:08.029Z</time>
      </trkpt>
      <trkpt lat="42.92889" lon="0.29064">
        <ele>1186</ele>
        <time>2017-02-09T09:45:09.029Z</time>
      </trkpt>
      <trkpt lat="42.92889" lon="0.29063">
        <ele>1186</ele>
        <time>2017-02-09T09:45:10.029Z</time>
      </trkpt>
      <trkpt lat="42.92888" lon="0.29062">
        <ele>1187</ele>
        <time>2017-02-09T09:45:11.029Z</time>
      </trkpt>
      <trkpt lat="42.92888" lon="0.29061">
        <ele>1187</ele>
        <time>2017-02-09T09:45:12.029Z</time>
      </trkpt>
      <trkpt lat="42.92887" lon="0.2906">
        <ele>1187</ele>
        <time>2017-02-09T09:45:13.029Z</time>
      </trkpt>
      <trkpt lat="42.92887" lon="0.29059">
        <ele>1187</ele>
        <time>2017-02-09T09:45:14.029Z</time>
      </trkpt>
      <trkpt lat="42.92887" lon="0.29058">
        <ele>1187</ele>
        <time>2017-02-09T09:45:15.029Z</time>
      </trkpt>
      <trkpt lat="42.92886" lon="0.29057">
        <ele>1187</ele>
        <time>2017-02-09T09:45:16.029Z</time>
      </trkpt>
      <trkpt lat="42.92886" lon="0.29056">
        <ele>1187</ele>
        <time>2017-02-09T09:45:17.029Z</time>
      </trkpt>
      <trkpt lat="42.92885" lon="0.29055">
        <ele>1188</ele>
        <time>2017-02-09T09:45:18.029Z</time>
      </trkpt>
      <trkpt lat="42.92885" lon="0.29054">
        <ele>1188</ele>
        <time>2017-02-09T09:45:19.029Z</time>
      </trkpt>
      <trkpt lat="42.92885" lon="0.29053">
        <ele>1188</ele>
        <time>2017-02-09T09:45:20.029Z</time>
      </trkpt>
      <trkpt lat="42.92884" lon="0.29052">
        <ele>1188</ele>
        <time>2017-02-09T09:45:21.029Z</time>
      </trkpt>
      <trkpt lat="42.92884" lon="0.29051">
        <ele>1188</ele>
        <time>2017-02-09T09:45:22.029Z</time>
      </trkpt>
      <trkpt lat="42.92884" lon="0.29051">
        <ele>1188</ele>
        <time>2017-02-09T09:45:23.029Z</time>
      </trkpt>
      <trkpt lat="42.92884" lon="0.2905">
        <ele>1188</ele>
        <time>2017-02-09T09:45:24.029Z</time>
      </trkpt>
      <trkpt lat="42.92884" lon="0.29049">
        <ele>1188</ele>
        <time>2017-02-09T09:45:25.029Z</time>
      </trkpt>
      <trkpt lat="42.92884" lon="0.29047">
        <ele>1188</ele>
        <time>2017-02-09T09:45:26.029Z</time>
      </trkpt>
      <trkpt lat="42.92884" lon="0.29046">
        <ele>1188</ele>
        <time>2017-02-09T09:45:27.029Z</time>
      </trkpt>
      <trkpt lat="42.92884" lon="0.29045">
        <ele>1188</ele>
        <time>2017-02-09T09:45:28.029Z</time>
      </trkpt>
      <trkpt lat="42.92884" lon="0.29044">
        <ele>1187</ele>
        <time>2017-02-09T09:45:29.029Z</time>
      </trkpt>
      <trkpt lat="42.92883" lon="0.29043">
        <ele>1187</ele>
        <time>2017-02-09T09:45:30.029Z</time>
      </trkpt>
      <trkpt lat="42.92883" lon="0.29042">
        <ele>1187</ele>
        <time>2017-02-09T09:45:31.029Z</time>
      </trkpt>
      <trkpt lat="42.92883" lon="0.29041">
        <ele>1187</ele>
        <time>2017-02-09T09:45:32.029Z</time>
      </trkpt>
      <trkpt lat="42.92883" lon="0.2904">
        <ele>1187</ele>
        <time>2017-02-09T09:45:33.029Z</time>
      </trkpt>
      <trkpt lat="42.92883" lon="0.29039">
        <ele>1187</ele>
        <time>2017-02-09T09:45:34.029Z</time>
      </trkpt>
      <trkpt lat="42.92883" lon="0.29038">
        <ele>1187</ele>
        <time>2017-02-09T09:45:35.029Z</time>
      </trkpt>
      <trkpt lat="42.92883" lon="0.29037">
        <ele>1187</ele>
        <time>2017-02-09T09:45:36.029Z</time>
      </trkpt>
      <trkpt lat="42.92883" lon="0.29036">
        <ele>1187</ele>
        <time>2017-02-09T09:45:37.029Z</time>
      </trkpt>
      <trkpt lat="42.92883" lon="0.29035">
        <ele>1187</ele>
        <time>2017-02-09T09:45:38.029Z</time>
      </trkpt>
      <trkpt lat="42.92883" lon="0.29034">
        <ele>1187</ele>
        <time>2017-02-09T09:45:39.029Z</time>
      </trkpt>
      <trkpt lat="42.92883" lon="0.29033">
        <ele>1187</ele>
        <time>2017-02-09T09:45:40.029Z</time>
      </trkpt>
      <trkpt lat="42.92883" lon="0.29032">
        <ele>1188</ele>
        <time>2017-02-09T09:45:41.029Z</time>
      </trkpt>
      <trkpt lat="42.92882" lon="0.29031">
        <ele>1188</ele>
        <time>2017-02-09T09:45:42.029Z</time>
      </trkpt>
      <trkpt lat="42.92882" lon="0.2903">
        <ele>1188</ele>
        <time>2017-02-09T09:45:43.029Z</time>
      </trkpt>
      <trkpt lat="42.92882" lon="0.2903">
        <ele>1188</ele>
        <time>2017-02-09T09:45:44.029Z</time>
      </trkpt>
      <trkpt lat="42.92882" lon="0.29029">
        <ele>1189</ele>
        <time>2017-02-09T09:45:45.029Z</time>
      </trkpt>
      <trkpt lat="42.92882" lon="0.29028">
        <ele>1189</ele>
        <time>2017-02-09T09:45:46.029Z</time>
      </trkpt>
      <trkpt lat="42.92882" lon="0.29027">
        <ele>1189</ele>
        <time>2017-02-09T09:45:47.029Z</time>
      </trkpt>
      <trkpt lat="42.92882" lon="0.29026">
        <ele>1190</ele>
        <time>2017-02-09T09:45:48.029Z</time>
      </trkpt>
      <trkpt lat="42.92882" lon="0.29025">
        <ele>1190</ele>
        <time>2017-02-09T09:45:49.029Z</time>
      </trkpt>
      <trkpt lat="42.92882" lon="0.29024">
        <ele>1191</ele>
        <time>2017-02-09T09:45:50.029Z</time>
      </trkpt>
      <trkpt lat="42.92882" lon="0.29022">
        <ele>1192</ele>
        <time>2017-02-09T09:45:51.029Z</time>
      </trkpt>
      <trkpt lat="42.92882" lon="0.2902">
        <ele>1192</ele>
        <time>2017-02-09T09:45:52.029Z</time>
      </trkpt>
      <trkpt lat="42.92881" lon="0.29018">
        <ele>1193</ele>
        <time>2017-02-09T09:45:53.029Z</time>
      </trkpt>
      <trkpt lat="42.92881" lon="0.29017">
        <ele>1193</ele>
        <time>2017-02-09T09:45:54.029Z</time>
      </trkpt>
      <trkpt lat="42.92881" lon="0.29015">
        <ele>1194</ele>
        <time>2017-02-09T09:45:55.029Z</time>
      </trkpt>
      <trkpt lat="42.92881" lon="0.29013">
        <ele>1194</ele>
        <time>2017-02-09T09:45:56.029Z</time>
      </trkpt>
      <trkpt lat="42.92881" lon="0.29011">
        <ele>1194</ele>
        <time>2017-02-09T09:45:57.029Z</time>
      </trkpt>
      <trkpt lat="42.92881" lon="0.2901">
        <ele>1194</ele>
        <time>2017-02-09T09:45:58.029Z</time>
      </trkpt>
      <trkpt lat="42.9288" lon="0.29009">
        <ele>1194</ele>
        <time>2017-02-09T09:45:59.029Z</time>
      </trkpt>
      <trkpt lat="42.9288" lon="0.29008">
        <ele>1194</ele>
        <time>2017-02-09T09:46:00.029Z</time>
      </trkpt>
      <trkpt lat="42.9288" lon="0.29007">
        <ele>1194</ele>
        <time>2017-02-09T09:46:01.029Z</time>
      </trkpt>
      <trkpt lat="42.92879" lon="0.29007">
        <ele>1194</ele>
        <time>2017-02-09T09:46:02.029Z</time>
      </trkpt>
      <trkpt lat="42.92879" lon="0.29006">
        <ele>1195</ele>
        <time>2017-02-09T09:46:03.029Z</time>
      </trkpt>
      <trkpt lat="42.92879" lon="0.29006">
        <ele>1195</ele>
        <time>2017-02-09T09:46:04.029Z</time>
      </trkpt>
      <trkpt lat="42.92878" lon="0.29005">
        <ele>1195</ele>
        <time>2017-02-09T09:46:05.029Z</time>
      </trkpt>
      <trkpt lat="42.92878" lon="0.29005">
        <ele>1194</ele>
        <time>2017-02-09T09:46:06.029Z</time>
      </trkpt>
      <trkpt lat="42.92877" lon="0.29004">
        <ele>1194</ele>
        <time>2017-02-09T09:46:07.029Z</time>
      </trkpt>
      <trkpt lat="42.92877" lon="0.29004">
        <ele>1193</ele>
        <time>2017-02-09T09:46:08.029Z</time>
      </trkpt>
      <trkpt lat="42.92876" lon="0.29004">
        <ele>1193</ele>
        <time>2017-02-09T09:46:09.029Z</time>
      </trkpt>
      <trkpt lat="42.92876" lon="0.29004">
        <ele>1193</ele>
        <time>2017-02-09T09:46:10.029Z</time>
      </trkpt>
      <trkpt lat="42.92875" lon="0.29004">
        <ele>1192</ele>
        <time>2017-02-09T09:46:11.029Z</time>
      </trkpt>
      <trkpt lat="42.92875" lon="0.29004">
        <ele>1192</ele>
        <time>2017-02-09T09:46:12.029Z</time>
      </trkpt>
      <trkpt lat="42.92874" lon="0.29003">
        <ele>1192</ele>
        <time>2017-02-09T09:46:13.029Z</time>
      </trkpt>
      <trkpt lat="42.92874" lon="0.29003">
        <ele>1192</ele>
        <time>2017-02-09T09:46:14.029Z</time>
      </trkpt>
      <trkpt lat="42.92874" lon="0.29002">
        <ele>1192</ele>
        <time>2017-02-09T09:46:15.029Z</time>
      </trkpt>
      <trkpt lat="42.92874" lon="0.29001">
        <ele>1192</ele>
        <time>2017-02-09T09:46:16.029Z</time>
      </trkpt>
      <trkpt lat="42.92873" lon="0.29001">
        <ele>1192</ele>
        <time>2017-02-09T09:46:17.029Z</time>
      </trkpt>
      <trkpt lat="42.92873" lon="0.29001">
        <ele>1192</ele>
        <time>2017-02-09T09:46:18.029Z</time>
      </trkpt>
      <trkpt lat="42.92873" lon="0.29001">
        <ele>1193</ele>
        <time>2017-02-09T09:46:19.029Z</time>
      </trkpt>
      <trkpt lat="42.92873" lon="0.29001">
        <ele>1193</ele>
        <time>2017-02-09T09:46:20.029Z</time>
      </trkpt>
      <trkpt lat="42.92873" lon="0.29001">
        <ele>1193</ele>
        <time>2017-02-09T09:46:21.029Z</time>
      </trkpt>
      <trkpt lat="42.92873" lon="0.29">
        <ele>1193</ele>
        <time>2017-02-09T09:46:22.029Z</time>
      </trkpt>
      <trkpt lat="42.92873" lon="0.29">
        <ele>1194</ele>
        <time>2017-02-09T09:46:23.029Z</time>
      </trkpt>
      <trkpt lat="42.92873" lon="0.28999">
        <ele>1194</ele>
        <time>2017-02-09T09:46:24.029Z</time>
      </trkpt>
      <trkpt lat="42.92873" lon="0.28998">
        <ele>1193</ele>
        <time>2017-02-09T09:46:25.029Z</time>
      </trkpt>
      <trkpt lat="42.92873" lon="0.28998">
        <ele>1193</ele>
        <time>2017-02-09T09:46:26.029Z</time>
      </trkpt>
      <trkpt lat="42.92873" lon="0.28998">
        <ele>1193</ele>
        <time>2017-02-09T09:46:27.029Z</time>
      </trkpt>
      <trkpt lat="42.92873" lon="0.28998">
        <ele>1192</ele>
        <time>2017-02-09T09:46:28.029Z</time>
      </trkpt>
      <trkpt lat="42.92873" lon="0.28998">
        <ele>1192</ele>
        <time>2017-02-09T09:46:29.029Z</time>
      </trkpt>
      <trkpt lat="42.92874" lon="0.28997">
        <ele>1192</ele>
        <time>2017-02-09T09:46:30.029Z</time>
      </trkpt>
      <trkpt lat="42.92874" lon="0.28997">
        <ele>1191</ele>
        <time>2017-02-09T09:46:31.029Z</time>
      </trkpt>
      <trkpt lat="42.92874" lon="0.28997">
        <ele>1191</ele>
        <time>2017-02-09T09:46:32.029Z</time>
      </trkpt>
      <trkpt lat="42.92874" lon="0.28997">
        <ele>1191</ele>
        <time>2017-02-09T09:46:33.029Z</time>
      </trkpt>
      <trkpt lat="42.92873" lon="0.28995">
        <ele>1192</ele>
        <time>2017-02-09T09:46:34.033Z</time>
      </trkpt>
      <trkpt lat="42.92872" lon="0.28995">
        <ele>1192</ele>
        <time>2017-02-09T09:46:35.033Z</time>
      </trkpt>
      <trkpt lat="42.92872" lon="0.28995">
        <ele>1193</ele>
        <time>2017-02-09T09:46:36.033Z</time>
      </trkpt>
      <trkpt lat="42.92872" lon="0.28995">
        <ele>1193</ele>
        <time>2017-02-09T09:46:37.033Z</time>
      </trkpt>
      <trkpt lat="42.92871" lon="0.28995">
        <ele>1193</ele>
        <time>2017-02-09T09:46:38.033Z</time>
      </trkpt>
      <trkpt lat="42.92871" lon="0.28995">
        <ele>1193</ele>
        <time>2017-02-09T09:46:39.033Z</time>
      </trkpt>
      <trkpt lat="42.9287" lon="0.28995">
        <ele>1193</ele>
        <time>2017-02-09T09:46:40.033Z</time>
      </trkpt>
      <trkpt lat="42.92869" lon="0.28995">
        <ele>1193</ele>
        <time>2017-02-09T09:46:41.033Z</time>
      </trkpt>
      <trkpt lat="42.92869" lon="0.28995">
        <ele>1194</ele>
        <time>2017-02-09T09:46:42.033Z</time>
      </trkpt>
      <trkpt lat="42.92868" lon="0.28995">
        <ele>1194</ele>
        <time>2017-02-09T09:46:43.033Z</time>
      </trkpt>
      <trkpt lat="42.92868" lon="0.28995">
        <ele>1194</ele>
        <time>2017-02-09T09:46:44.033Z</time>
      </trkpt>
      <trkpt lat="42.92868" lon="0.28996">
        <ele>1194</ele>
        <time>2017-02-09T09:46:45.033Z</time>
      </trkpt>
      <trkpt lat="42.92867" lon="0.28996">
        <ele>1194</ele>
        <time>2017-02-09T09:46:46.033Z</time>
      </trkpt>
      <trkpt lat="42.92867" lon="0.28996">
        <ele>1194</ele>
        <time>2017-02-09T09:46:47.033Z</time>
      </trkpt>
      <trkpt lat="42.92866" lon="0.28996">
        <ele>1195</ele>
        <time>2017-02-09T09:46:48.033Z</time>
      </trkpt>
      <trkpt lat="42.92866" lon="0.28996">
        <ele>1195</ele>
        <time>2017-02-09T09:46:49.033Z</time>
      </trkpt>
      <trkpt lat="42.92865" lon="0.28997">
        <ele>1195</ele>
        <time>2017-02-09T09:46:50.033Z</time>
      </trkpt>
      <trkpt lat="42.92865" lon="0.28997">
        <ele>1195</ele>
        <time>2017-02-09T09:46:51.033Z</time>
      </trkpt>
      <trkpt lat="42.92865" lon="0.28997">
        <ele>1196</ele>
        <time>2017-02-09T09:46:52.033Z</time>
      </trkpt>
      <trkpt lat="42.92864" lon="0.28998">
        <ele>1196</ele>
        <time>2017-02-09T09:46:53.033Z</time>
      </trkpt>
      <trkpt lat="42.92864" lon="0.28998">
        <ele>1196</ele>
        <time>2017-02-09T09:46:54.033Z</time>
      </trkpt>
      <trkpt lat="42.92864" lon="0.28998">
        <ele>1197</ele>
        <time>2017-02-09T09:46:55.033Z</time>
      </trkpt>
      <trkpt lat="42.92863" lon="0.28998">
        <ele>1197</ele>
        <time>2017-02-09T09:46:56.033Z</time>
      </trkpt>
      <trkpt lat="42.92863" lon="0.28999">
        <ele>1198</ele>
        <time>2017-02-09T09:46:57.033Z</time>
      </trkpt>
      <trkpt lat="42.92863" lon="0.28999">
        <ele>1198</ele>
        <time>2017-02-09T09:46:58.033Z</time>
      </trkpt>
      <trkpt lat="42.92862" lon="0.28999">
        <ele>1198</ele>
        <time>2017-02-09T09:46:59.033Z</time>
      </trkpt>
      <trkpt lat="42.92862" lon="0.28999">
        <ele>1199</ele>
        <time>2017-02-09T09:47:00.033Z</time>
      </trkpt>
      <trkpt lat="42.92861" lon="0.28999">
        <ele>1200</ele>
        <time>2017-02-09T09:47:01.033Z</time>
      </trkpt>
      <trkpt lat="42.92861" lon="0.29">
        <ele>1201</ele>
        <time>2017-02-09T09:47:02.033Z</time>
      </trkpt>
      <trkpt lat="42.9286" lon="0.29">
        <ele>1201</ele>
        <time>2017-02-09T09:47:03.033Z</time>
      </trkpt>
      <trkpt lat="42.9286" lon="0.29">
        <ele>1201</ele>
        <time>2017-02-09T09:47:04.033Z</time>
      </trkpt>
      <trkpt lat="42.92859" lon="0.29">
        <ele>1201</ele>
        <time>2017-02-09T09:47:05.033Z</time>
      </trkpt>
      <trkpt lat="42.92859" lon="0.29">
        <ele>1202</ele>
        <time>2017-02-09T09:47:06.033Z</time>
      </trkpt>
      <trkpt lat="42.92858" lon="0.29">
        <ele>1202</ele>
        <time>2017-02-09T09:47:07.033Z</time>
      </trkpt>
      <trkpt lat="42.92858" lon="0.29">
        <ele>1203</ele>
        <time>2017-02-09T09:47:08.033Z</time>
      </trkpt>
      <trkpt lat="42.92857" lon="0.29">
        <ele>1203</ele>
        <time>2017-02-09T09:47:09.033Z</time>
      </trkpt>
      <trkpt lat="42.92857" lon="0.29">
        <ele>1203</ele>
        <time>2017-02-09T09:47:10.033Z</time>
      </trkpt>
      <trkpt lat="42.92856" lon="0.29">
        <ele>1203</ele>
        <time>2017-02-09T09:47:11.033Z</time>
      </trkpt>
      <trkpt lat="42.92856" lon="0.29">
        <ele>1203</ele>
        <time>2017-02-09T09:47:12.033Z</time>
      </trkpt>
      <trkpt lat="42.92855" lon="0.29">
        <ele>1203</ele>
        <time>2017-02-09T09:47:13.033Z</time>
      </trkpt>
      <trkpt lat="42.92855" lon="0.29">
        <ele>1203</ele>
        <time>2017-02-09T09:47:14.033Z</time>
      </trkpt>
      <trkpt lat="42.92854" lon="0.29">
        <ele>1202</ele>
        <time>2017-02-09T09:47:15.033Z</time>
      </trkpt>
      <trkpt lat="42.92854" lon="0.29">
        <ele>1202</ele>
        <time>2017-02-09T09:47:16.033Z</time>
      </trkpt>
      <trkpt lat="42.92853" lon="0.29">
        <ele>1201</ele>
        <time>2017-02-09T09:47:17.033Z</time>
      </trkpt>
      <trkpt lat="42.92853" lon="0.29">
        <ele>1200</ele>
        <time>2017-02-09T09:47:18.033Z</time>
      </trkpt>
      <trkpt lat="42.92852" lon="0.29">
        <ele>1199</ele>
        <time>2017-02-09T09:47:19.033Z</time>
      </trkpt>
      <trkpt lat="42.92852" lon="0.29001">
        <ele>1199</ele>
        <time>2017-02-09T09:47:20.033Z</time>
      </trkpt>
      <trkpt lat="42.92852" lon="0.29001">
        <ele>1198</ele>
        <time>2017-02-09T09:47:21.033Z</time>
      </trkpt>
      <trkpt lat="42.92851" lon="0.29001">
        <ele>1198</ele>
        <time>2017-02-09T09:47:22.033Z</time>
      </trkpt>
      <trkpt lat="42.92851" lon="0.29002">
        <ele>1198</ele>
        <time>2017-02-09T09:47:23.033Z</time>
      </trkpt>
      <trkpt lat="42.9285" lon="0.29002">
        <ele>1198</ele>
        <time>2017-02-09T09:47:24.033Z</time>
      </trkpt>
      <trkpt lat="42.9285" lon="0.29002">
        <ele>1198</ele>
        <time>2017-02-09T09:47:25.033Z</time>
      </trkpt>
      <trkpt lat="42.92849" lon="0.29002">
        <ele>1198</ele>
        <time>2017-02-09T09:47:26.033Z</time>
      </trkpt>
      <trkpt lat="42.92849" lon="0.29002">
        <ele>1198</ele>
        <time>2017-02-09T09:47:27.033Z</time>
      </trkpt>
      <trkpt lat="42.92848" lon="0.29002">
        <ele>1198</ele>
        <time>2017-02-09T09:47:28.033Z</time>
      </trkpt>
      <trkpt lat="42.92848" lon="0.29002">
        <ele>1198</ele>
        <time>2017-02-09T09:47:29.033Z</time>
      </trkpt>
      <trkpt lat="42.92848" lon="0.29003">
        <ele>1199</ele>
        <time>2017-02-09T09:47:30.033Z</time>
      </trkpt>
      <trkpt lat="42.92847" lon="0.29003">
        <ele>1199</ele>
        <time>2017-02-09T09:47:31.033Z</time>
      </trkpt>
      <trkpt lat="42.92847" lon="0.29003">
        <ele>1199</ele>
        <time>2017-02-09T09:47:32.033Z</time>
      </trkpt>
      <trkpt lat="42.92846" lon="0.29004">
        <ele>1199</ele>
        <time>2017-02-09T09:47:33.033Z</time>
      </trkpt>
      <trkpt lat="42.92846" lon="0.29004">
        <ele>1199</ele>
        <time>2017-02-09T09:47:34.033Z</time>
      </trkpt>
      <trkpt lat="42.92846" lon="0.29004">
        <ele>1199</ele>
        <time>2017-02-09T09:47:35.033Z</time>
      </trkpt>
      <trkpt lat="42.92845" lon="0.29004">
        <ele>1199</ele>
        <time>2017-02-09T09:47:36.033Z</time>
      </trkpt>
      <trkpt lat="42.92845" lon="0.29004">
        <ele>1200</ele>
        <time>2017-02-09T09:47:37.033Z</time>
      </trkpt>
      <trkpt lat="42.92844" lon="0.29004">
        <ele>1199</ele>
        <time>2017-02-09T09:47:38.033Z</time>
      </trkpt>
      <trkpt lat="42.92844" lon="0.29004">
        <ele>1200</ele>
        <time>2017-02-09T09:47:39.033Z</time>
      </trkpt>
      <trkpt lat="42.92843" lon="0.29004">
        <ele>1199</ele>
        <time>2017-02-09T09:47:40.033Z</time>
      </trkpt>
      <trkpt lat="42.92843" lon="0.29004">
        <ele>1199</ele>
        <time>2017-02-09T09:47:41.033Z</time>
      </trkpt>
      <trkpt lat="42.92842" lon="0.29004">
        <ele>1200</ele>
        <time>2017-02-09T09:47:42.033Z</time>
      </trkpt>
      <trkpt lat="42.92842" lon="0.29004">
        <ele>1200</ele>
        <time>2017-02-09T09:47:43.033Z</time>
      </trkpt>
      <trkpt lat="42.92841" lon="0.29004">
        <ele>1200</ele>
        <time>2017-02-09T09:47:44.033Z</time>
      </trkpt>
      <trkpt lat="42.92841" lon="0.29004">
        <ele>1200</ele>
        <time>2017-02-09T09:47:45.033Z</time>
      </trkpt>
      <trkpt lat="42.9284" lon="0.29004">
        <ele>1200</ele>
        <time>2017-02-09T09:47:46.033Z</time>
      </trkpt>
      <trkpt lat="42.9284" lon="0.29004">
        <ele>1201</ele>
        <time>2017-02-09T09:47:47.033Z</time>
      </trkpt>
      <trkpt lat="42.92839" lon="0.29004">
        <ele>1201</ele>
        <time>2017-02-09T09:47:48.033Z</time>
      </trkpt>
      <trkpt lat="42.92839" lon="0.29004">
        <ele>1202</ele>
        <time>2017-02-09T09:47:49.033Z</time>
      </trkpt>
      <trkpt lat="42.92838" lon="0.29004">
        <ele>1201</ele>
        <time>2017-02-09T09:47:50.033Z</time>
      </trkpt>
      <trkpt lat="42.92838" lon="0.29004">
        <ele>1202</ele>
        <time>2017-02-09T09:47:51.033Z</time>
      </trkpt>
      <trkpt lat="42.92837" lon="0.29004">
        <ele>1202</ele>
        <time>2017-02-09T09:47:52.033Z</time>
      </trkpt>
      <trkpt lat="42.92836" lon="0.29004">
        <ele>1202</ele>
        <time>2017-02-09T09:47:53.033Z</time>
      </trkpt>
      <trkpt lat="42.92836" lon="0.29004">
        <ele>1202</ele>
        <time>2017-02-09T09:47:54.033Z</time>
      </trkpt>
      <trkpt lat="42.92836" lon="0.29004">
        <ele>1203</ele>
        <time>2017-02-09T09:47:55.033Z</time>
      </trkpt>
      <trkpt lat="42.92835" lon="0.29004">
        <ele>1203</ele>
        <time>2017-02-09T09:47:56.033Z</time>
      </trkpt>
      <trkpt lat="42.92835" lon="0.29004">
        <ele>1204</ele>
        <time>2017-02-09T09:47:57.033Z</time>
      </trkpt>
      <trkpt lat="42.92834" lon="0.29004">
        <ele>1204</ele>
        <time>2017-02-09T09:47:58.033Z</time>
      </trkpt>
      <trkpt lat="42.92833" lon="0.29004">
        <ele>1205</ele>
        <time>2017-02-09T09:47:59.033Z</time>
      </trkpt>
      <trkpt lat="42.92833" lon="0.29005">
        <ele>1205</ele>
        <time>2017-02-09T09:48:00.033Z</time>
      </trkpt>
      <trkpt lat="42.92832" lon="0.29005">
        <ele>1204</ele>
        <time>2017-02-09T09:48:01.033Z</time>
      </trkpt>
      <trkpt lat="42.92832" lon="0.29005">
        <ele>1204</ele>
        <time>2017-02-09T09:48:02.033Z</time>
      </trkpt>
      <trkpt lat="42.92832" lon="0.29006">
        <ele>1204</ele>
        <time>2017-02-09T09:48:03.033Z</time>
      </trkpt>
      <trkpt lat="42.92831" lon="0.29006">
        <ele>1204</ele>
        <time>2017-02-09T09:48:04.033Z</time>
      </trkpt>
      <trkpt lat="42.92831" lon="0.29006">
        <ele>1204</ele>
        <time>2017-02-09T09:48:05.033Z</time>
      </trkpt>
      <trkpt lat="42.92831" lon="0.29006">
        <ele>1204</ele>
        <time>2017-02-09T09:48:06.033Z</time>
      </trkpt>
      <trkpt lat="42.9283" lon="0.29007">
        <ele>1205</ele>
        <time>2017-02-09T09:48:07.033Z</time>
      </trkpt>
      <trkpt lat="42.92829" lon="0.29007">
        <ele>1205</ele>
        <time>2017-02-09T09:48:08.033Z</time>
      </trkpt>
      <trkpt lat="42.92829" lon="0.29008">
        <ele>1205</ele>
        <time>2017-02-09T09:48:09.033Z</time>
      </trkpt>
      <trkpt lat="42.92828" lon="0.29008">
        <ele>1206</ele>
        <time>2017-02-09T09:48:10.033Z</time>
      </trkpt>
      <trkpt lat="42.92828" lon="0.29008">
        <ele>1206</ele>
        <time>2017-02-09T09:48:11.033Z</time>
      </trkpt>
      <trkpt lat="42.92827" lon="0.29009">
        <ele>1206</ele>
        <time>2017-02-09T09:48:12.033Z</time>
      </trkpt>
      <trkpt lat="42.92826" lon="0.29009">
        <ele>1206</ele>
        <time>2017-02-09T09:48:13.033Z</time>
      </trkpt>
      <trkpt lat="42.92826" lon="0.29009">
        <ele>1207</ele>
        <time>2017-02-09T09:48:14.033Z</time>
      </trkpt>
      <trkpt lat="42.92825" lon="0.29009">
        <ele>1207</ele>
        <time>2017-02-09T09:48:15.033Z</time>
      </trkpt>
      <trkpt lat="42.92824" lon="0.29009">
        <ele>1207</ele>
        <time>2017-02-09T09:48:16.033Z</time>
      </trkpt>
      <trkpt lat="42.92824" lon="0.2901">
        <ele>1207</ele>
        <time>2017-02-09T09:48:17.033Z</time>
      </trkpt>
      <trkpt lat="42.92823" lon="0.2901">
        <ele>1208</ele>
        <time>2017-02-09T09:48:18.033Z</time>
      </trkpt>
      <trkpt lat="42.92822" lon="0.2901">
        <ele>1208</ele>
        <time>2017-02-09T09:48:19.033Z</time>
      </trkpt>
      <trkpt lat="42.92822" lon="0.2901">
        <ele>1208</ele>
        <time>2017-02-09T09:48:20.033Z</time>
      </trkpt>
      <trkpt lat="42.92822" lon="0.2901">
        <ele>1209</ele>
        <time>2017-02-09T09:48:21.033Z</time>
      </trkpt>
      <trkpt lat="42.92821" lon="0.29009">
        <ele>1210</ele>
        <time>2017-02-09T09:48:22.033Z</time>
      </trkpt>
      <trkpt lat="42.92821" lon="0.29009">
        <ele>1210</ele>
        <time>2017-02-09T09:48:23.033Z</time>
      </trkpt>
      <trkpt lat="42.92821" lon="0.29009">
        <ele>1210</ele>
        <time>2017-02-09T09:48:24.033Z</time>
      </trkpt>
      <trkpt lat="42.9282" lon="0.2901">
        <ele>1208</ele>
        <time>2017-02-09T09:48:25.033Z</time>
      </trkpt>
      <trkpt lat="42.92819" lon="0.2901">
        <ele>1206</ele>
        <time>2017-02-09T09:48:26.033Z</time>
      </trkpt>
      <trkpt lat="42.92818" lon="0.2901">
        <ele>1204</ele>
        <time>2017-02-09T09:48:27.033Z</time>
      </trkpt>
      <trkpt lat="42.92818" lon="0.2901">
        <ele>1203</ele>
        <time>2017-02-09T09:48:28.033Z</time>
      </trkpt>
      <trkpt lat="42.92817" lon="0.29009">
        <ele>1204</ele>
        <time>2017-02-09T09:48:29.033Z</time>
      </trkpt>
      <trkpt lat="42.92817" lon="0.29009">
        <ele>1204</ele>
        <time>2017-02-09T09:48:30.033Z</time>
      </trkpt>
      <trkpt lat="42.92816" lon="0.29008">
        <ele>1205</ele>
        <time>2017-02-09T09:48:31.033Z</time>
      </trkpt>
      <trkpt lat="42.92816" lon="0.29008">
        <ele>1204</ele>
        <time>2017-02-09T09:48:32.033Z</time>
      </trkpt>
      <trkpt lat="42.92815" lon="0.29008">
        <ele>1203</ele>
        <time>2017-02-09T09:48:33.033Z</time>
      </trkpt>
      <trkpt lat="42.92815" lon="0.29008">
        <ele>1203</ele>
        <time>2017-02-09T09:48:34.033Z</time>
      </trkpt>
      <trkpt lat="42.92815" lon="0.29008">
        <ele>1203</ele>
        <time>2017-02-09T09:48:35.033Z</time>
      </trkpt>
      <trkpt lat="42.92814" lon="0.29008">
        <ele>1202</ele>
        <time>2017-02-09T09:48:36.033Z</time>
      </trkpt>
      <trkpt lat="42.92814" lon="0.29008">
        <ele>1203</ele>
        <time>2017-02-09T09:48:37.033Z</time>
      </trkpt>
      <trkpt lat="42.92813" lon="0.29008">
        <ele>1203</ele>
        <time>2017-02-09T09:48:38.033Z</time>
      </trkpt>
      <trkpt lat="42.92813" lon="0.29009">
        <ele>1203</ele>
        <time>2017-02-09T09:48:39.033Z</time>
      </trkpt>
      <trkpt lat="42.92813" lon="0.29009">
        <ele>1204</ele>
        <time>2017-02-09T09:48:40.033Z</time>
      </trkpt>
      <trkpt lat="42.92812" lon="0.29009">
        <ele>1204</ele>
        <time>2017-02-09T09:48:41.033Z</time>
      </trkpt>
      <trkpt lat="42.92812" lon="0.29009">
        <ele>1204</ele>
        <time>2017-02-09T09:48:42.033Z</time>
      </trkpt>
      <trkpt lat="42.92812" lon="0.29009">
        <ele>1204</ele>
        <time>2017-02-09T09:48:43.033Z</time>
      </trkpt>
      <trkpt lat="42.92811" lon="0.29009">
        <ele>1204</ele>
        <time>2017-02-09T09:48:44.033Z</time>
      </trkpt>
      <trkpt lat="42.92811" lon="0.29009">
        <ele>1205</ele>
        <time>2017-02-09T09:48:45.033Z</time>
      </trkpt>
      <trkpt lat="42.92811" lon="0.29009">
        <ele>1205</ele>
        <time>2017-02-09T09:48:46.033Z</time>
      </trkpt>
      <trkpt lat="42.92811" lon="0.2901">
        <ele>1206</ele>
        <time>2017-02-09T09:48:47.033Z</time>
      </trkpt>
      <trkpt lat="42.92809" lon="0.29007">
        <ele>1213</ele>
        <time>2017-02-09T09:48:48.045Z</time>
      </trkpt>
      <trkpt lat="42.92809" lon="0.29007">
        <ele>1212</ele>
        <time>2017-02-09T09:48:49.045Z</time>
      </trkpt>
      <trkpt lat="42.92809" lon="0.29006">
        <ele>1211</ele>
        <time>2017-02-09T09:48:50.045Z</time>
      </trkpt>
      <trkpt lat="42.92809" lon="0.29005">
        <ele>1211</ele>
        <time>2017-02-09T09:48:51.045Z</time>
      </trkpt>
      <trkpt lat="42.92808" lon="0.29005">
        <ele>1211</ele>
        <time>2017-02-09T09:48:52.045Z</time>
      </trkpt>
      <trkpt lat="42.92808" lon="0.29005">
        <ele>1211</ele>
        <time>2017-02-09T09:48:53.045Z</time>
      </trkpt>
      <trkpt lat="42.92808" lon="0.29005">
        <ele>1211</ele>
        <time>2017-02-09T09:48:54.045Z</time>
      </trkpt>
      <trkpt lat="42.92808" lon="0.29005">
        <ele>1211</ele>
        <time>2017-02-09T09:48:55.045Z</time>
      </trkpt>
      <trkpt lat="42.92807" lon="0.29004">
        <ele>1212</ele>
        <time>2017-02-09T09:48:56.045Z</time>
      </trkpt>
      <trkpt lat="42.92807" lon="0.29004">
        <ele>1212</ele>
        <time>2017-02-09T09:48:57.045Z</time>
      </trkpt>
      <trkpt lat="42.92807" lon="0.29004">
        <ele>1212</ele>
        <time>2017-02-09T09:48:58.045Z</time>
      </trkpt>
      <trkpt lat="42.92807" lon="0.29003">
        <ele>1212</ele>
        <time>2017-02-09T09:48:59.045Z</time>
      </trkpt>
      <trkpt lat="42.92806" lon="0.29003">
        <ele>1212</ele>
        <time>2017-02-09T09:49:00.045Z</time>
      </trkpt>
      <trkpt lat="42.92806" lon="0.29003">
        <ele>1212</ele>
        <time>2017-02-09T09:49:01.045Z</time>
      </trkpt>
      <trkpt lat="42.92805" lon="0.29003">
        <ele>1212</ele>
        <time>2017-02-09T09:49:02.045Z</time>
      </trkpt>
      <trkpt lat="42.92805" lon="0.29003">
        <ele>1212</ele>
        <time>2017-02-09T09:49:03.045Z</time>
      </trkpt>
      <trkpt lat="42.92805" lon="0.29003">
        <ele>1211</ele>
        <time>2017-02-09T09:49:04.045Z</time>
      </trkpt>
      <trkpt lat="42.92804" lon="0.29003">
        <ele>1212</ele>
        <time>2017-02-09T09:49:05.045Z</time>
      </trkpt>
      <trkpt lat="42.92804" lon="0.29004">
        <ele>1212</ele>
        <time>2017-02-09T09:49:06.045Z</time>
      </trkpt>
      <trkpt lat="42.92803" lon="0.29004">
        <ele>1212</ele>
        <time>2017-02-09T09:49:07.045Z</time>
      </trkpt>
      <trkpt lat="42.92802" lon="0.29004">
        <ele>1212</ele>
        <time>2017-02-09T09:49:08.045Z</time>
      </trkpt>
      <trkpt lat="42.92802" lon="0.29004">
        <ele>1212</ele>
        <time>2017-02-09T09:49:09.045Z</time>
      </trkpt>
      <trkpt lat="42.92802" lon="0.29004">
        <ele>1212</ele>
        <time>2017-02-09T09:49:10.045Z</time>
      </trkpt>
      <trkpt lat="42.92801" lon="0.29004">
        <ele>1212</ele>
        <time>2017-02-09T09:49:11.045Z</time>
      </trkpt>
      <trkpt lat="42.92797" lon="0.29005">
        <ele>1210</ele>
        <time>2017-02-09T09:49:12.053Z</time>
      </trkpt>
      <trkpt lat="42.92797" lon="0.29005">
        <ele>1210</ele>
        <time>2017-02-09T09:49:13.053Z</time>
      </trkpt>
      <trkpt lat="42.92796" lon="0.29005">
        <ele>1211</ele>
        <time>2017-02-09T09:49:14.053Z</time>
      </trkpt>
      <trkpt lat="42.92795" lon="0.29005">
        <ele>1211</ele>
        <time>2017-02-09T09:49:15.053Z</time>
      </trkpt>
      <trkpt lat="42.92795" lon="0.29004">
        <ele>1211</ele>
        <time>2017-02-09T09:49:16.053Z</time>
      </trkpt>
      <trkpt lat="42.92794" lon="0.29004">
        <ele>1211</ele>
        <time>2017-02-09T09:49:17.053Z</time>
      </trkpt>
      <trkpt lat="42.92794" lon="0.29003">
        <ele>1212</ele>
        <time>2017-02-09T09:49:18.053Z</time>
      </trkpt>
      <trkpt lat="42.92793" lon="0.29002">
        <ele>1212</ele>
        <time>2017-02-09T09:49:19.053Z</time>
      </trkpt>
      <trkpt lat="42.92793" lon="0.29001">
        <ele>1212</ele>
        <time>2017-02-09T09:49:20.053Z</time>
      </trkpt>
      <trkpt lat="42.92792" lon="0.29">
        <ele>1213</ele>
        <time>2017-02-09T09:49:21.053Z</time>
      </trkpt>
      <trkpt lat="42.92792" lon="0.28999">
        <ele>1212</ele>
        <time>2017-02-09T09:49:22.053Z</time>
      </trkpt>
      <trkpt lat="42.92791" lon="0.28999">
        <ele>1212</ele>
        <time>2017-02-09T09:49:23.053Z</time>
      </trkpt>
      <trkpt lat="42.92791" lon="0.28999">
        <ele>1212</ele>
        <time>2017-02-09T09:49:24.053Z</time>
      </trkpt>
      <trkpt lat="42.9279" lon="0.28999">
        <ele>1212</ele>
        <time>2017-02-09T09:49:25.053Z</time>
      </trkpt>
      <trkpt lat="42.9279" lon="0.28999">
        <ele>1211</ele>
        <time>2017-02-09T09:49:26.053Z</time>
      </trkpt>
      <trkpt lat="42.92789" lon="0.28999">
        <ele>1211</ele>
        <time>2017-02-09T09:49:27.053Z</time>
      </trkpt>
      <trkpt lat="42.92789" lon="0.28998">
        <ele>1211</ele>
        <time>2017-02-09T09:49:28.053Z</time>
      </trkpt>
      <trkpt lat="42.92788" lon="0.28999">
        <ele>1212</ele>
        <time>2017-02-09T09:49:29.053Z</time>
      </trkpt>
      <trkpt lat="42.92788" lon="0.28999">
        <ele>1212</ele>
        <time>2017-02-09T09:49:30.053Z</time>
      </trkpt>
      <trkpt lat="42.92787" lon="0.28999">
        <ele>1212</ele>
        <time>2017-02-09T09:49:31.053Z</time>
      </trkpt>
      <trkpt lat="42.92786" lon="0.28999">
        <ele>1212</ele>
        <time>2017-02-09T09:49:32.053Z</time>
      </trkpt>
      <trkpt lat="42.92786" lon="0.28999">
        <ele>1212</ele>
        <time>2017-02-09T09:49:33.053Z</time>
      </trkpt>
      <trkpt lat="42.92785" lon="0.28998">
        <ele>1212</ele>
        <time>2017-02-09T09:49:34.053Z</time>
      </trkpt>
      <trkpt lat="42.92785" lon="0.28999">
        <ele>1212</ele>
        <time>2017-02-09T09:49:35.053Z</time>
      </trkpt>
      <trkpt lat="42.92784" lon="0.28999">
        <ele>1213</ele>
        <time>2017-02-09T09:49:36.053Z</time>
      </trkpt>
      <trkpt lat="42.92783" lon="0.28999">
        <ele>1212</ele>
        <time>2017-02-09T09:49:37.053Z</time>
      </trkpt>
      <trkpt lat="42.92783" lon="0.28999">
        <ele>1212</ele>
        <time>2017-02-09T09:49:38.053Z</time>
      </trkpt>
      <trkpt lat="42.92782" lon="0.28999">
        <ele>1212</ele>
        <time>2017-02-09T09:49:39.053Z</time>
      </trkpt>
      <trkpt lat="42.92782" lon="0.29">
        <ele>1211</ele>
        <time>2017-02-09T09:49:40.053Z</time>
      </trkpt>
      <trkpt lat="42.92782" lon="0.29">
        <ele>1211</ele>
        <time>2017-02-09T09:49:41.053Z</time>
      </trkpt>
      <trkpt lat="42.92781" lon="0.29">
        <ele>1211</ele>
        <time>2017-02-09T09:49:42.053Z</time>
      </trkpt>
      <trkpt lat="42.9278" lon="0.29">
        <ele>1212</ele>
        <time>2017-02-09T09:49:43.053Z</time>
      </trkpt>
      <trkpt lat="42.9278" lon="0.29">
        <ele>1212</ele>
        <time>2017-02-09T09:49:44.053Z</time>
      </trkpt>
      <trkpt lat="42.92779" lon="0.29">
        <ele>1213</ele>
        <time>2017-02-09T09:49:45.053Z</time>
      </trkpt>
      <trkpt lat="42.92779" lon="0.29">
        <ele>1213</ele>
        <time>2017-02-09T09:49:46.053Z</time>
      </trkpt>
      <trkpt lat="42.92778" lon="0.29">
        <ele>1213</ele>
        <time>2017-02-09T09:49:47.053Z</time>
      </trkpt>
      <trkpt lat="42.92777" lon="0.29">
        <ele>1214</ele>
        <time>2017-02-09T09:49:48.053Z</time>
      </trkpt>
      <trkpt lat="42.92777" lon="0.29">
        <ele>1210</ele>
        <time>2017-02-09T09:49:49.053Z</time>
      </trkpt>
      <trkpt lat="42.92776" lon="0.28999">
        <ele>1208</ele>
        <time>2017-02-09T09:49:50.053Z</time>
      </trkpt>
      <trkpt lat="42.92775" lon="0.28998">
        <ele>1206</ele>
        <time>2017-02-09T09:49:51.053Z</time>
      </trkpt>
      <trkpt lat="42.92774" lon="0.28998">
        <ele>1206</ele>
        <time>2017-02-09T09:49:52.053Z</time>
      </trkpt>
      <trkpt lat="42.92773" lon="0.28997">
        <ele>1205</ele>
        <time>2017-02-09T09:49:53.053Z</time>
      </trkpt>
      <trkpt lat="42.92773" lon="0.28996">
        <ele>1205</ele>
        <time>2017-02-09T09:49:54.053Z</time>
      </trkpt>
      <trkpt lat="42.92773" lon="0.28995">
        <ele>1206</ele>
        <time>2017-02-09T09:49:55.053Z</time>
      </trkpt>
      <trkpt lat="42.92772" lon="0.28995">
        <ele>1205</ele>
        <time>2017-02-09T09:49:56.053Z</time>
      </trkpt>
      <trkpt lat="42.92772" lon="0.28994">
        <ele>1205</ele>
        <time>2017-02-09T09:49:57.053Z</time>
      </trkpt>
      <trkpt lat="42.92771" lon="0.28993">
        <ele>1205</ele>
        <time>2017-02-09T09:49:58.053Z</time>
      </trkpt>
      <trkpt lat="42.92771" lon="0.28992">
        <ele>1205</ele>
        <time>2017-02-09T09:49:59.053Z</time>
      </trkpt>
      <trkpt lat="42.9277" lon="0.28992">
        <ele>1205</ele>
        <time>2017-02-09T09:50:00.053Z</time>
      </trkpt>
      <trkpt lat="42.9277" lon="0.28992">
        <ele>1205</ele>
        <time>2017-02-09T09:50:01.053Z</time>
      </trkpt>
      <trkpt lat="42.92769" lon="0.28991">
        <ele>1205</ele>
        <time>2017-02-09T09:50:02.053Z</time>
      </trkpt>
      <trkpt lat="42.92769" lon="0.28991">
        <ele>1205</ele>
        <time>2017-02-09T09:50:03.053Z</time>
      </trkpt>
      <trkpt lat="42.92768" lon="0.28991">
        <ele>1204</ele>
        <time>2017-02-09T09:50:04.053Z</time>
      </trkpt>
      <trkpt lat="42.92768" lon="0.28991">
        <ele>1205</ele>
        <time>2017-02-09T09:50:05.053Z</time>
      </trkpt>
      <trkpt lat="42.92768" lon="0.28991">
        <ele>1205</ele>
        <time>2017-02-09T09:50:06.053Z</time>
      </trkpt>
      <trkpt lat="42.92767" lon="0.2899">
        <ele>1204</ele>
        <time>2017-02-09T09:50:07.053Z</time>
      </trkpt>
      <trkpt lat="42.92766" lon="0.2899">
        <ele>1204</ele>
        <time>2017-02-09T09:50:08.053Z</time>
      </trkpt>
      <trkpt lat="42.92766" lon="0.2899">
        <ele>1204</ele>
        <time>2017-02-09T09:50:09.053Z</time>
      </trkpt>
      <trkpt lat="42.92765" lon="0.28989">
        <ele>1205</ele>
        <time>2017-02-09T09:50:10.053Z</time>
      </trkpt>
      <trkpt lat="42.92765" lon="0.28989">
        <ele>1205</ele>
        <time>2017-02-09T09:50:11.053Z</time>
      </trkpt>
      <trkpt lat="42.92764" lon="0.28989">
        <ele>1206</ele>
        <time>2017-02-09T09:50:12.053Z</time>
      </trkpt>
      <trkpt lat="42.92764" lon="0.28989">
        <ele>1206</ele>
        <time>2017-02-09T09:50:13.053Z</time>
      </trkpt>
      <trkpt lat="42.92763" lon="0.28988">
        <ele>1207</ele>
        <time>2017-02-09T09:50:14.053Z</time>
      </trkpt>
      <trkpt lat="42.92763" lon="0.28988">
        <ele>1206</ele>
        <time>2017-02-09T09:50:15.053Z</time>
      </trkpt>
      <trkpt lat="42.92763" lon="0.28987">
        <ele>1206</ele>
        <time>2017-02-09T09:50:16.053Z</time>
      </trkpt>
      <trkpt lat="42.92763" lon="0.28987">
        <ele>1207</ele>
        <time>2017-02-09T09:50:17.053Z</time>
      </trkpt>
      <trkpt lat="42.92762" lon="0.28986">
        <ele>1207</ele>
        <time>2017-02-09T09:50:18.053Z</time>
      </trkpt>
      <trkpt lat="42.92762" lon="0.28985">
        <ele>1207</ele>
        <time>2017-02-09T09:50:19.053Z</time>
      </trkpt>
      <trkpt lat="42.92762" lon="0.28985">
        <ele>1207</ele>
        <time>2017-02-09T09:50:20.053Z</time>
      </trkpt>
      <trkpt lat="42.92761" lon="0.28984">
        <ele>1207</ele>
        <time>2017-02-09T09:50:21.053Z</time>
      </trkpt>
      <trkpt lat="42.92761" lon="0.28984">
        <ele>1207</ele>
        <time>2017-02-09T09:50:22.053Z</time>
      </trkpt>
      <trkpt lat="42.9276" lon="0.28984">
        <ele>1208</ele>
        <time>2017-02-09T09:50:23.053Z</time>
      </trkpt>
      <trkpt lat="42.92759" lon="0.28984">
        <ele>1208</ele>
        <time>2017-02-09T09:50:24.053Z</time>
      </trkpt>
      <trkpt lat="42.92759" lon="0.28984">
        <ele>1209</ele>
        <time>2017-02-09T09:50:25.053Z</time>
      </trkpt>
      <trkpt lat="42.92758" lon="0.28983">
        <ele>1209</ele>
        <time>2017-02-09T09:50:26.053Z</time>
      </trkpt>
      <trkpt lat="42.92758" lon="0.28983">
        <ele>1209</ele>
        <time>2017-02-09T09:50:27.053Z</time>
      </trkpt>
      <trkpt lat="42.92757" lon="0.28983">
        <ele>1210</ele>
        <time>2017-02-09T09:50:28.053Z</time>
      </trkpt>
      <trkpt lat="42.92757" lon="0.28982">
        <ele>1209</ele>
        <time>2017-02-09T09:50:29.053Z</time>
      </trkpt>
      <trkpt lat="42.92757" lon="0.28982">
        <ele>1207</ele>
        <time>2017-02-09T09:50:30.053Z</time>
      </trkpt>
      <trkpt lat="42.92757" lon="0.28982">
        <ele>1207</ele>
        <time>2017-02-09T09:50:31.053Z</time>
      </trkpt>
      <trkpt lat="42.92756" lon="0.28981">
        <ele>1207</ele>
        <time>2017-02-09T09:50:32.053Z</time>
      </trkpt>
      <trkpt lat="42.92756" lon="0.28981">
        <ele>1207</ele>
        <time>2017-02-09T09:50:33.053Z</time>
      </trkpt>
      <trkpt lat="42.92756" lon="0.2898">
        <ele>1208</ele>
        <time>2017-02-09T09:50:34.053Z</time>
      </trkpt>
      <trkpt lat="42.92755" lon="0.2898">
        <ele>1208</ele>
        <time>2017-02-09T09:50:35.053Z</time>
      </trkpt>
      <trkpt lat="42.92755" lon="0.28979">
        <ele>1207</ele>
        <time>2017-02-09T09:50:36.053Z</time>
      </trkpt>
      <trkpt lat="42.92755" lon="0.28978">
        <ele>1207</ele>
        <time>2017-02-09T09:50:37.053Z</time>
      </trkpt>
      <trkpt lat="42.92755" lon="0.28977">
        <ele>1208</ele>
        <time>2017-02-09T09:50:38.053Z</time>
      </trkpt>
      <trkpt lat="42.92755" lon="0.28977">
        <ele>1206</ele>
        <time>2017-02-09T09:50:39.053Z</time>
      </trkpt>
      <trkpt lat="42.92754" lon="0.28976">
        <ele>1205</ele>
        <time>2017-02-09T09:50:40.053Z</time>
      </trkpt>
      <trkpt lat="42.92755" lon="0.28976">
        <ele>1203</ele>
        <time>2017-02-09T09:50:41.053Z</time>
      </trkpt>
      <trkpt lat="42.92755" lon="0.28976">
        <ele>1202</ele>
        <time>2017-02-09T09:50:42.053Z</time>
      </trkpt>
      <trkpt lat="42.92755" lon="0.28975">
        <ele>1202</ele>
        <time>2017-02-09T09:50:43.053Z</time>
      </trkpt>
      <trkpt lat="42.92755" lon="0.28975">
        <ele>1202</ele>
        <time>2017-02-09T09:50:44.053Z</time>
      </trkpt>
      <trkpt lat="42.92751" lon="0.28973">
        <ele>1204</ele>
        <time>2017-02-09T09:50:45.061Z</time>
      </trkpt>
      <trkpt lat="42.9275" lon="0.28973">
        <ele>1204</ele>
        <time>2017-02-09T09:50:46.061Z</time>
      </trkpt>
      <trkpt lat="42.9275" lon="0.28972">
        <ele>1204</ele>
        <time>2017-02-09T09:50:47.061Z</time>
      </trkpt>
      <trkpt lat="42.92749" lon="0.28972">
        <ele>1205</ele>
        <time>2017-02-09T09:50:48.061Z</time>
      </trkpt>
      <trkpt lat="42.92749" lon="0.28971">
        <ele>1205</ele>
        <time>2017-02-09T09:50:49.061Z</time>
      </trkpt>
      <trkpt lat="42.92749" lon="0.2897">
        <ele>1205</ele>
        <time>2017-02-09T09:50:50.061Z</time>
      </trkpt>
      <trkpt lat="42.92748" lon="0.2897">
        <ele>1205</ele>
        <time>2017-02-09T09:50:51.061Z</time>
      </trkpt>
      <trkpt lat="42.92748" lon="0.28969">
        <ele>1205</ele>
        <time>2017-02-09T09:50:52.061Z</time>
      </trkpt>
      <trkpt lat="42.92748" lon="0.28969">
        <ele>1206</ele>
        <time>2017-02-09T09:50:53.061Z</time>
      </trkpt>
      <trkpt lat="42.92748" lon="0.28968">
        <ele>1206</ele>
        <time>2017-02-09T09:50:54.061Z</time>
      </trkpt>
      <trkpt lat="42.92747" lon="0.28968">
        <ele>1206</ele>
        <time>2017-02-09T09:50:55.061Z</time>
      </trkpt>
      <trkpt lat="42.92747" lon="0.28968">
        <ele>1206</ele>
        <time>2017-02-09T09:50:56.061Z</time>
      </trkpt>
      <trkpt lat="42.92746" lon="0.28968">
        <ele>1206</ele>
        <time>2017-02-09T09:50:57.061Z</time>
      </trkpt>
      <trkpt lat="42.92746" lon="0.28967">
        <ele>1207</ele>
        <time>2017-02-09T09:50:58.061Z</time>
      </trkpt>
      <trkpt lat="42.92746" lon="0.28967">
        <ele>1207</ele>
        <time>2017-02-09T09:50:59.061Z</time>
      </trkpt>
      <trkpt lat="42.92745" lon="0.28967">
        <ele>1208</ele>
        <time>2017-02-09T09:51:00.061Z</time>
      </trkpt>
      <trkpt lat="42.92745" lon="0.28966">
        <ele>1209</ele>
        <time>2017-02-09T09:51:01.061Z</time>
      </trkpt>
      <trkpt lat="42.92745" lon="0.28966">
        <ele>1210</ele>
        <time>2017-02-09T09:51:02.061Z</time>
      </trkpt>
      <trkpt lat="42.92744" lon="0.28965">
        <ele>1210</ele>
        <time>2017-02-09T09:51:03.061Z</time>
      </trkpt>
      <trkpt lat="42.92744" lon="0.28964">
        <ele>1210</ele>
        <time>2017-02-09T09:51:04.061Z</time>
      </trkpt>
      <trkpt lat="42.92744" lon="0.28964">
        <ele>1210</ele>
        <time>2017-02-09T09:51:05.061Z</time>
      </trkpt>
      <trkpt lat="42.92743" lon="0.28964">
        <ele>1209</ele>
        <time>2017-02-09T09:51:06.061Z</time>
      </trkpt>
      <trkpt lat="42.92743" lon="0.28963">
        <ele>1209</ele>
        <time>2017-02-09T09:51:07.061Z</time>
      </trkpt>
      <trkpt lat="42.92743" lon="0.28963">
        <ele>1209</ele>
        <time>2017-02-09T09:51:08.061Z</time>
      </trkpt>
      <trkpt lat="42.92741" lon="0.28961">
        <ele>1208</ele>
        <time>2017-02-09T09:51:09.065Z</time>
      </trkpt>
      <trkpt lat="42.9274" lon="0.2896">
        <ele>1208</ele>
        <time>2017-02-09T09:51:10.065Z</time>
      </trkpt>
      <trkpt lat="42.9274" lon="0.2896">
        <ele>1208</ele>
        <time>2017-02-09T09:51:11.065Z</time>
      </trkpt>
      <trkpt lat="42.9274" lon="0.28959">
        <ele>1208</ele>
        <time>2017-02-09T09:51:12.065Z</time>
      </trkpt>
      <trkpt lat="42.9274" lon="0.28959">
        <ele>1208</ele>
        <time>2017-02-09T09:51:13.065Z</time>
      </trkpt>
      <trkpt lat="42.92739" lon="0.28958">
        <ele>1208</ele>
        <time>2017-02-09T09:51:14.065Z</time>
      </trkpt>
      <trkpt lat="42.92739" lon="0.28958">
        <ele>1209</ele>
        <time>2017-02-09T09:51:15.065Z</time>
      </trkpt>
      <trkpt lat="42.92739" lon="0.28957">
        <ele>1209</ele>
        <time>2017-02-09T09:51:16.065Z</time>
      </trkpt>
      <trkpt lat="42.92738" lon="0.28957">
        <ele>1208</ele>
        <time>2017-02-09T09:51:17.065Z</time>
      </trkpt>
      <trkpt lat="42.92738" lon="0.28956">
        <ele>1208</ele>
        <time>2017-02-09T09:51:18.065Z</time>
      </trkpt>
      <trkpt lat="42.92737" lon="0.28955">
        <ele>1208</ele>
        <time>2017-02-09T09:51:19.065Z</time>
      </trkpt>
      <trkpt lat="42.92737" lon="0.28955">
        <ele>1208</ele>
        <time>2017-02-09T09:51:20.065Z</time>
      </trkpt>
      <trkpt lat="42.92737" lon="0.28954">
        <ele>1208</ele>
        <time>2017-02-09T09:51:21.065Z</time>
      </trkpt>
      <trkpt lat="42.92736" lon="0.28953">
        <ele>1208</ele>
        <time>2017-02-09T09:51:22.065Z</time>
      </trkpt>
      <trkpt lat="42.92736" lon="0.28952">
        <ele>1209</ele>
        <time>2017-02-09T09:51:23.065Z</time>
      </trkpt>
      <trkpt lat="42.92735" lon="0.28952">
        <ele>1209</ele>
        <time>2017-02-09T09:51:24.065Z</time>
      </trkpt>
      <trkpt lat="42.92735" lon="0.28951">
        <ele>1209</ele>
        <time>2017-02-09T09:51:25.065Z</time>
      </trkpt>
      <trkpt lat="42.92734" lon="0.28951">
        <ele>1210</ele>
        <time>2017-02-09T09:51:26.065Z</time>
      </trkpt>
      <trkpt lat="42.92734" lon="0.2895">
        <ele>1210</ele>
        <time>2017-02-09T09:51:27.065Z</time>
      </trkpt>
      <trkpt lat="42.92733" lon="0.28949">
        <ele>1210</ele>
        <time>2017-02-09T09:51:28.065Z</time>
      </trkpt>
      <trkpt lat="42.92733" lon="0.28949">
        <ele>1210</ele>
        <time>2017-02-09T09:51:29.065Z</time>
      </trkpt>
      <trkpt lat="42.92733" lon="0.28948">
        <ele>1210</ele>
        <time>2017-02-09T09:51:30.065Z</time>
      </trkpt>
      <trkpt lat="42.92733" lon="0.28947">
        <ele>1209</ele>
        <time>2017-02-09T09:51:31.065Z</time>
      </trkpt>
      <trkpt lat="42.92732" lon="0.28946">
        <ele>1210</ele>
        <time>2017-02-09T09:51:32.065Z</time>
      </trkpt>
      <trkpt lat="42.92732" lon="0.28945">
        <ele>1209</ele>
        <time>2017-02-09T09:51:33.065Z</time>
      </trkpt>
      <trkpt lat="42.92732" lon="0.28944">
        <ele>1210</ele>
        <time>2017-02-09T09:51:34.065Z</time>
      </trkpt>
      <trkpt lat="42.92732" lon="0.28943">
        <ele>1210</ele>
        <time>2017-02-09T09:51:35.065Z</time>
      </trkpt>
      <trkpt lat="42.92732" lon="0.28942">
        <ele>1209</ele>
        <time>2017-02-09T09:51:36.065Z</time>
      </trkpt>
      <trkpt lat="42.92731" lon="0.28941">
        <ele>1210</ele>
        <time>2017-02-09T09:51:37.065Z</time>
      </trkpt>
      <trkpt lat="42.92731" lon="0.28941">
        <ele>1210</ele>
        <time>2017-02-09T09:51:38.065Z</time>
      </trkpt>
      <trkpt lat="42.92731" lon="0.2894">
        <ele>1211</ele>
        <time>2017-02-09T09:51:39.065Z</time>
      </trkpt>
      <trkpt lat="42.9273" lon="0.2894">
        <ele>1211</ele>
        <time>2017-02-09T09:51:40.065Z</time>
      </trkpt>
      <trkpt lat="42.9273" lon="0.28939">
        <ele>1211</ele>
        <time>2017-02-09T09:51:41.065Z</time>
      </trkpt>
      <trkpt lat="42.9273" lon="0.28939">
        <ele>1211</ele>
        <time>2017-02-09T09:51:42.065Z</time>
      </trkpt>
      <trkpt lat="42.92729" lon="0.28938">
        <ele>1211</ele>
        <time>2017-02-09T09:51:43.065Z</time>
      </trkpt>
      <trkpt lat="42.92729" lon="0.28938">
        <ele>1212</ele>
        <time>2017-02-09T09:51:44.065Z</time>
      </trkpt>
      <trkpt lat="42.92728" lon="0.28937">
        <ele>1211</ele>
        <time>2017-02-09T09:51:45.065Z</time>
      </trkpt>
      <trkpt lat="42.92728" lon="0.28937">
        <ele>1211</ele>
        <time>2017-02-09T09:51:46.065Z</time>
      </trkpt>
      <trkpt lat="42.92727" lon="0.28937">
        <ele>1211</ele>
        <time>2017-02-09T09:51:47.065Z</time>
      </trkpt>
      <trkpt lat="42.92726" lon="0.28937">
        <ele>1211</ele>
        <time>2017-02-09T09:51:48.065Z</time>
      </trkpt>
      <trkpt lat="42.92726" lon="0.28936">
        <ele>1211</ele>
        <time>2017-02-09T09:51:49.065Z</time>
      </trkpt>
      <trkpt lat="42.92725" lon="0.28936">
        <ele>1211</ele>
        <time>2017-02-09T09:51:50.065Z</time>
      </trkpt>
      <trkpt lat="42.92725" lon="0.28936">
        <ele>1211</ele>
        <time>2017-02-09T09:51:51.065Z</time>
      </trkpt>
      <trkpt lat="42.92725" lon="0.28935">
        <ele>1210</ele>
        <time>2017-02-09T09:51:52.065Z</time>
      </trkpt>
      <trkpt lat="42.92724" lon="0.28934">
        <ele>1209</ele>
        <time>2017-02-09T09:51:53.065Z</time>
      </trkpt>
      <trkpt lat="42.92724" lon="0.28934">
        <ele>1209</ele>
        <time>2017-02-09T09:51:54.065Z</time>
      </trkpt>
      <trkpt lat="42.92723" lon="0.28934">
        <ele>1210</ele>
        <time>2017-02-09T09:51:55.065Z</time>
      </trkpt>
      <trkpt lat="42.92723" lon="0.28933">
        <ele>1210</ele>
        <time>2017-02-09T09:51:56.065Z</time>
      </trkpt>
      <trkpt lat="42.92722" lon="0.28933">
        <ele>1210</ele>
        <time>2017-02-09T09:51:57.065Z</time>
      </trkpt>
      <trkpt lat="42.92722" lon="0.28932">
        <ele>1209</ele>
        <time>2017-02-09T09:51:58.065Z</time>
      </trkpt>
      <trkpt lat="42.92722" lon="0.28931">
        <ele>1210</ele>
        <time>2017-02-09T09:51:59.065Z</time>
      </trkpt>
      <trkpt lat="42.92721" lon="0.28931">
        <ele>1211</ele>
        <time>2017-02-09T09:52:00.065Z</time>
      </trkpt>
      <trkpt lat="42.92721" lon="0.28931">
        <ele>1211</ele>
        <time>2017-02-09T09:52:01.065Z</time>
      </trkpt>
      <trkpt lat="42.9272" lon="0.2893">
        <ele>1211</ele>
        <time>2017-02-09T09:52:02.065Z</time>
      </trkpt>
      <trkpt lat="42.9272" lon="0.2893">
        <ele>1211</ele>
        <time>2017-02-09T09:52:03.065Z</time>
      </trkpt>
      <trkpt lat="42.92719" lon="0.2893">
        <ele>1211</ele>
        <time>2017-02-09T09:52:04.065Z</time>
      </trkpt>
      <trkpt lat="42.92719" lon="0.2893">
        <ele>1212</ele>
        <time>2017-02-09T09:52:05.065Z</time>
      </trkpt>
      <trkpt lat="42.92718" lon="0.2893">
        <ele>1213</ele>
        <time>2017-02-09T09:52:06.065Z</time>
      </trkpt>
      <trkpt lat="42.92717" lon="0.2893">
        <ele>1213</ele>
        <time>2017-02-09T09:52:07.065Z</time>
      </trkpt>
      <trkpt lat="42.92716" lon="0.2893">
        <ele>1213</ele>
        <time>2017-02-09T09:52:08.065Z</time>
      </trkpt>
      <trkpt lat="42.92716" lon="0.2893">
        <ele>1212</ele>
        <time>2017-02-09T09:52:09.065Z</time>
      </trkpt>
      <trkpt lat="42.92715" lon="0.28929">
        <ele>1212</ele>
        <time>2017-02-09T09:52:10.065Z</time>
      </trkpt>
      <trkpt lat="42.92715" lon="0.28929">
        <ele>1213</ele>
        <time>2017-02-09T09:52:11.065Z</time>
      </trkpt>
      <trkpt lat="42.92714" lon="0.28929">
        <ele>1213</ele>
        <time>2017-02-09T09:52:12.065Z</time>
      </trkpt>
      <trkpt lat="42.92714" lon="0.28929">
        <ele>1213</ele>
        <time>2017-02-09T09:52:13.065Z</time>
      </trkpt>
      <trkpt lat="42.92714" lon="0.28928">
        <ele>1213</ele>
        <time>2017-02-09T09:52:14.065Z</time>
      </trkpt>
      <trkpt lat="42.92714" lon="0.28928">
        <ele>1214</ele>
        <time>2017-02-09T09:52:15.065Z</time>
      </trkpt>
      <trkpt lat="42.92713" lon="0.28928">
        <ele>1214</ele>
        <time>2017-02-09T09:52:16.065Z</time>
      </trkpt>
      <trkpt lat="42.92713" lon="0.28927">
        <ele>1214</ele>
        <time>2017-02-09T09:52:17.065Z</time>
      </trkpt>
      <trkpt lat="42.92713" lon="0.28927">
        <ele>1214</ele>
        <time>2017-02-09T09:52:18.065Z</time>
      </trkpt>
      <trkpt lat="42.92712" lon="0.28927">
        <ele>1214</ele>
        <time>2017-02-09T09:52:19.065Z</time>
      </trkpt>
      <trkpt lat="42.92712" lon="0.28927">
        <ele>1215</ele>
        <time>2017-02-09T09:52:20.065Z</time>
      </trkpt>
      <trkpt lat="42.92712" lon="0.28927">
        <ele>1215</ele>
        <time>2017-02-09T09:52:21.065Z</time>
      </trkpt>
      <trkpt lat="42.92711" lon="0.28927">
        <ele>1215</ele>
        <time>2017-02-09T09:52:22.065Z</time>
      </trkpt>
      <trkpt lat="42.92711" lon="0.28926">
        <ele>1215</ele>
        <time>2017-02-09T09:52:23.065Z</time>
      </trkpt>
      <trkpt lat="42.9271" lon="0.28926">
        <ele>1215</ele>
        <time>2017-02-09T09:52:24.065Z</time>
      </trkpt>
      <trkpt lat="42.9271" lon="0.28926">
        <ele>1215</ele>
        <time>2017-02-09T09:52:25.065Z</time>
      </trkpt>
      <trkpt lat="42.92709" lon="0.28925">
        <ele>1215</ele>
        <time>2017-02-09T09:52:26.065Z</time>
      </trkpt>
      <trkpt lat="42.92709" lon="0.28925">
        <ele>1216</ele>
        <time>2017-02-09T09:52:27.065Z</time>
      </trkpt>
      <trkpt lat="42.92708" lon="0.28925">
        <ele>1215</ele>
        <time>2017-02-09T09:52:28.065Z</time>
      </trkpt>
      <trkpt lat="42.92708" lon="0.28924">
        <ele>1214</ele>
        <time>2017-02-09T09:52:29.065Z</time>
      </trkpt>
      <trkpt lat="42.92707" lon="0.28923">
        <ele>1214</ele>
        <time>2017-02-09T09:52:30.065Z</time>
      </trkpt>
      <trkpt lat="42.92707" lon="0.28923">
        <ele>1214</ele>
        <time>2017-02-09T09:52:31.065Z</time>
      </trkpt>
      <trkpt lat="42.92707" lon="0.28923">
        <ele>1215</ele>
        <time>2017-02-09T09:52:32.065Z</time>
      </trkpt>
      <trkpt lat="42.92706" lon="0.28923">
        <ele>1215</ele>
        <time>2017-02-09T09:52:33.065Z</time>
      </trkpt>
      <trkpt lat="42.92705" lon="0.28923">
        <ele>1215</ele>
        <time>2017-02-09T09:52:34.065Z</time>
      </trkpt>
      <trkpt lat="42.92704" lon="0.28923">
        <ele>1215</ele>
        <time>2017-02-09T09:52:35.065Z</time>
      </trkpt>
      <trkpt lat="42.92704" lon="0.28924">
        <ele>1215</ele>
        <time>2017-02-09T09:52:36.065Z</time>
      </trkpt>
      <trkpt lat="42.92703" lon="0.28924">
        <ele>1214</ele>
        <time>2017-02-09T09:52:37.065Z</time>
      </trkpt>
      <trkpt lat="42.92702" lon="0.28924">
        <ele>1214</ele>
        <time>2017-02-09T09:52:38.065Z</time>
      </trkpt>
      <trkpt lat="42.92701" lon="0.28924">
        <ele>1215</ele>
        <time>2017-02-09T09:52:39.065Z</time>
      </trkpt>
      <trkpt lat="42.92701" lon="0.28924">
        <ele>1215</ele>
        <time>2017-02-09T09:52:40.065Z</time>
      </trkpt>
      <trkpt lat="42.927" lon="0.28924">
        <ele>1215</ele>
        <time>2017-02-09T09:52:41.065Z</time>
      </trkpt>
      <trkpt lat="42.927" lon="0.28924">
        <ele>1215</ele>
        <time>2017-02-09T09:52:42.065Z</time>
      </trkpt>
      <trkpt lat="42.92699" lon="0.28924">
        <ele>1215</ele>
        <time>2017-02-09T09:52:43.065Z</time>
      </trkpt>
      <trkpt lat="42.92699" lon="0.28924">
        <ele>1216</ele>
        <time>2017-02-09T09:52:44.065Z</time>
      </trkpt>
      <trkpt lat="42.92699" lon="0.28923">
        <ele>1215</ele>
        <time>2017-02-09T09:52:45.065Z</time>
      </trkpt>
      <trkpt lat="42.92698" lon="0.28923">
        <ele>1216</ele>
        <time>2017-02-09T09:52:46.065Z</time>
      </trkpt>
      <trkpt lat="42.92698" lon="0.28923">
        <ele>1216</ele>
        <time>2017-02-09T09:52:47.065Z</time>
      </trkpt>
      <trkpt lat="42.92697" lon="0.28923">
        <ele>1217</ele>
        <time>2017-02-09T09:52:48.065Z</time>
      </trkpt>
      <trkpt lat="42.92697" lon="0.28923">
        <ele>1216</ele>
        <time>2017-02-09T09:52:49.065Z</time>
      </trkpt>
      <trkpt lat="42.92696" lon="0.28923">
        <ele>1217</ele>
        <time>2017-02-09T09:52:50.065Z</time>
      </trkpt>
      <trkpt lat="42.92696" lon="0.28923">
        <ele>1217</ele>
        <time>2017-02-09T09:52:51.065Z</time>
      </trkpt>
      <trkpt lat="42.92695" lon="0.28923">
        <ele>1217</ele>
        <time>2017-02-09T09:52:52.065Z</time>
      </trkpt>
      <trkpt lat="42.92695" lon="0.28922">
        <ele>1218</ele>
        <time>2017-02-09T09:52:53.065Z</time>
      </trkpt>
      <trkpt lat="42.92694" lon="0.28922">
        <ele>1218</ele>
        <time>2017-02-09T09:52:54.065Z</time>
      </trkpt>
      <trkpt lat="42.92694" lon="0.28922">
        <ele>1218</ele>
        <time>2017-02-09T09:52:55.065Z</time>
      </trkpt>
      <trkpt lat="42.92693" lon="0.28922">
        <ele>1218</ele>
        <time>2017-02-09T09:52:56.065Z</time>
      </trkpt>
      <trkpt lat="42.92693" lon="0.28922">
        <ele>1218</ele>
        <time>2017-02-09T09:52:57.065Z</time>
      </trkpt>
      <trkpt lat="42.92693" lon="0.28921">
        <ele>1219</ele>
        <time>2017-02-09T09:52:58.065Z</time>
      </trkpt>
      <trkpt lat="42.92692" lon="0.2892">
        <ele>1218</ele>
        <time>2017-02-09T09:52:59.065Z</time>
      </trkpt>
      <trkpt lat="42.92692" lon="0.2892">
        <ele>1218</ele>
        <time>2017-02-09T09:53:00.065Z</time>
      </trkpt>
      <trkpt lat="42.92692" lon="0.28919">
        <ele>1218</ele>
        <time>2017-02-09T09:53:01.065Z</time>
      </trkpt>
      <trkpt lat="42.92691" lon="0.28919">
        <ele>1218</ele>
        <time>2017-02-09T09:53:02.065Z</time>
      </trkpt>
      <trkpt lat="42.9269" lon="0.28918">
        <ele>1218</ele>
        <time>2017-02-09T09:53:03.065Z</time>
      </trkpt>
      <trkpt lat="42.9269" lon="0.28918">
        <ele>1218</ele>
        <time>2017-02-09T09:53:04.065Z</time>
      </trkpt>
      <trkpt lat="42.92689" lon="0.28917">
        <ele>1218</ele>
        <time>2017-02-09T09:53:05.065Z</time>
      </trkpt>
      <trkpt lat="42.92689" lon="0.28917">
        <ele>1217</ele>
        <time>2017-02-09T09:53:06.065Z</time>
      </trkpt>
      <trkpt lat="42.92689" lon="0.28916">
        <ele>1217</ele>
        <time>2017-02-09T09:53:07.065Z</time>
      </trkpt>
      <trkpt lat="42.92689" lon="0.28916">
        <ele>1217</ele>
        <time>2017-02-09T09:53:08.065Z</time>
      </trkpt>
      <trkpt lat="42.92688" lon="0.28915">
        <ele>1217</ele>
        <time>2017-02-09T09:53:09.065Z</time>
      </trkpt>
      <trkpt lat="42.92688" lon="0.28914">
        <ele>1217</ele>
        <time>2017-02-09T09:53:10.065Z</time>
      </trkpt>
      <trkpt lat="42.92687" lon="0.28913">
        <ele>1218</ele>
        <time>2017-02-09T09:53:11.065Z</time>
      </trkpt>
      <trkpt lat="42.92687" lon="0.28913">
        <ele>1217</ele>
        <time>2017-02-09T09:53:12.065Z</time>
      </trkpt>
      <trkpt lat="42.92687" lon="0.28914">
        <ele>1218</ele>
        <time>2017-02-09T09:53:13.065Z</time>
      </trkpt>
      <trkpt lat="42.92686" lon="0.28914">
        <ele>1218</ele>
        <time>2017-02-09T09:53:14.065Z</time>
      </trkpt>
      <trkpt lat="42.92686" lon="0.28914">
        <ele>1219</ele>
        <time>2017-02-09T09:53:15.065Z</time>
      </trkpt>
      <trkpt lat="42.92685" lon="0.28914">
        <ele>1219</ele>
        <time>2017-02-09T09:53:16.065Z</time>
      </trkpt>
      <trkpt lat="42.92684" lon="0.28914">
        <ele>1219</ele>
        <time>2017-02-09T09:53:17.065Z</time>
      </trkpt>
      <trkpt lat="42.92684" lon="0.28914">
        <ele>1219</ele>
        <time>2017-02-09T09:53:18.065Z</time>
      </trkpt>
      <trkpt lat="42.92684" lon="0.28914">
        <ele>1219</ele>
        <time>2017-02-09T09:53:19.065Z</time>
      </trkpt>
      <trkpt lat="42.92683" lon="0.28913">
        <ele>1220</ele>
        <time>2017-02-09T09:53:20.065Z</time>
      </trkpt>
      <trkpt lat="42.92683" lon="0.28912">
        <ele>1220</ele>
        <time>2017-02-09T09:53:21.065Z</time>
      </trkpt>
      <trkpt lat="42.92682" lon="0.28912">
        <ele>1220</ele>
        <time>2017-02-09T09:53:22.065Z</time>
      </trkpt>
      <trkpt lat="42.92682" lon="0.28912">
        <ele>1221</ele>
        <time>2017-02-09T09:53:23.065Z</time>
      </trkpt>
      <trkpt lat="42.92682" lon="0.28912">
        <ele>1221</ele>
        <time>2017-02-09T09:53:24.065Z</time>
      </trkpt>
      <trkpt lat="42.92682" lon="0.28912">
        <ele>1220</ele>
        <time>2017-02-09T09:53:25.065Z</time>
      </trkpt>
      <trkpt lat="42.92682" lon="0.28911">
        <ele>1221</ele>
        <time>2017-02-09T09:53:26.065Z</time>
      </trkpt>
      <trkpt lat="42.92682" lon="0.2891">
        <ele>1221</ele>
        <time>2017-02-09T09:53:27.065Z</time>
      </trkpt>
      <trkpt lat="42.92682" lon="0.28909">
        <ele>1222</ele>
        <time>2017-02-09T09:53:28.065Z</time>
      </trkpt>
      <trkpt lat="42.92682" lon="0.28908">
        <ele>1222</ele>
        <time>2017-02-09T09:53:29.065Z</time>
      </trkpt>
      <trkpt lat="42.92681" lon="0.28907">
        <ele>1222</ele>
        <time>2017-02-09T09:53:30.065Z</time>
      </trkpt>
      <trkpt lat="42.92681" lon="0.28906">
        <ele>1222</ele>
        <time>2017-02-09T09:53:31.065Z</time>
      </trkpt>
      <trkpt lat="42.92681" lon="0.28906">
        <ele>1222</ele>
        <time>2017-02-09T09:53:32.065Z</time>
      </trkpt>
      <trkpt lat="42.9268" lon="0.28905">
        <ele>1222</ele>
        <time>2017-02-09T09:53:33.065Z</time>
      </trkpt>
      <trkpt lat="42.9268" lon="0.28905">
        <ele>1222</ele>
        <time>2017-02-09T09:53:34.065Z</time>
      </trkpt>
      <trkpt lat="42.92679" lon="0.28905">
        <ele>1223</ele>
        <time>2017-02-09T09:53:35.065Z</time>
      </trkpt>
      <trkpt lat="42.92679" lon="0.28904">
        <ele>1223</ele>
        <time>2017-02-09T09:53:36.065Z</time>
      </trkpt>
      <trkpt lat="42.92678" lon="0.28904">
        <ele>1223</ele>
        <time>2017-02-09T09:53:37.065Z</time>
      </trkpt>
      <trkpt lat="42.92678" lon="0.28903">
        <ele>1223</ele>
        <time>2017-02-09T09:53:38.065Z</time>
      </trkpt>
      <trkpt lat="42.92678" lon="0.28903">
        <ele>1223</ele>
        <time>2017-02-09T09:53:39.065Z</time>
      </trkpt>
      <trkpt lat="42.92678" lon="0.28903">
        <ele>1224</ele>
        <time>2017-02-09T09:53:40.065Z</time>
      </trkpt>
      <trkpt lat="42.92677" lon="0.28902">
        <ele>1224</ele>
        <time>2017-02-09T09:53:41.065Z</time>
      </trkpt>
      <trkpt lat="42.92677" lon="0.28902">
        <ele>1225</ele>
        <time>2017-02-09T09:53:42.065Z</time>
      </trkpt>
      <trkpt lat="42.92676" lon="0.28902">
        <ele>1224</ele>
        <time>2017-02-09T09:53:43.065Z</time>
      </trkpt>
      <trkpt lat="42.92676" lon="0.28902">
        <ele>1224</ele>
        <time>2017-02-09T09:53:44.065Z</time>
      </trkpt>
      <trkpt lat="42.92671" lon="0.28898">
        <ele>1223</ele>
        <time>2017-02-09T09:53:45.073Z</time>
      </trkpt>
      <trkpt lat="42.9267" lon="0.28898">
        <ele>1223</ele>
        <time>2017-02-09T09:53:46.073Z</time>
      </trkpt>
      <trkpt lat="42.92669" lon="0.28898">
        <ele>1224</ele>
        <time>2017-02-09T09:53:47.073Z</time>
      </trkpt>
      <trkpt lat="42.92668" lon="0.28898">
        <ele>1225</ele>
        <time>2017-02-09T09:53:48.073Z</time>
      </trkpt>
      <trkpt lat="42.92668" lon="0.28898">
        <ele>1225</ele>
        <time>2017-02-09T09:53:49.073Z</time>
      </trkpt>
      <trkpt lat="42.92667" lon="0.28899">
        <ele>1225</ele>
        <time>2017-02-09T09:53:50.073Z</time>
      </trkpt>
      <trkpt lat="42.92667" lon="0.28899">
        <ele>1225</ele>
        <time>2017-02-09T09:53:51.073Z</time>
      </trkpt>
      <trkpt lat="42.92666" lon="0.28899">
        <ele>1226</ele>
        <time>2017-02-09T09:53:52.073Z</time>
      </trkpt>
      <trkpt lat="42.92666" lon="0.28899">
        <ele>1226</ele>
        <time>2017-02-09T09:53:53.073Z</time>
      </trkpt>
      <trkpt lat="42.92665" lon="0.28899">
        <ele>1226</ele>
        <time>2017-02-09T09:53:54.073Z</time>
      </trkpt>
      <trkpt lat="42.92664" lon="0.28899">
        <ele>1227</ele>
        <time>2017-02-09T09:53:55.073Z</time>
      </trkpt>
      <trkpt lat="42.92664" lon="0.28898">
        <ele>1226</ele>
        <time>2017-02-09T09:53:56.073Z</time>
      </trkpt>
      <trkpt lat="42.92663" lon="0.28899">
        <ele>1226</ele>
        <time>2017-02-09T09:53:57.073Z</time>
      </trkpt>
      <trkpt lat="42.92663" lon="0.28899">
        <ele>1226</ele>
        <time>2017-02-09T09:53:58.073Z</time>
      </trkpt>
      <trkpt lat="42.92662" lon="0.28899">
        <ele>1226</ele>
        <time>2017-02-09T09:53:59.073Z</time>
      </trkpt>
      <trkpt lat="42.92662" lon="0.28899">
        <ele>1226</ele>
        <time>2017-02-09T09:54:00.073Z</time>
      </trkpt>
      <trkpt lat="42.92661" lon="0.28899">
        <ele>1227</ele>
        <time>2017-02-09T09:54:01.073Z</time>
      </trkpt>
      <trkpt lat="42.92661" lon="0.28899">
        <ele>1227</ele>
        <time>2017-02-09T09:54:02.073Z</time>
      </trkpt>
      <trkpt lat="42.9266" lon="0.28899">
        <ele>1227</ele>
        <time>2017-02-09T09:54:03.073Z</time>
      </trkpt>
      <trkpt lat="42.9266" lon="0.28899">
        <ele>1228</ele>
        <time>2017-02-09T09:54:04.073Z</time>
      </trkpt>
      <trkpt lat="42.92659" lon="0.28899">
        <ele>1228</ele>
        <time>2017-02-09T09:54:05.073Z</time>
      </trkpt>
      <trkpt lat="42.92658" lon="0.28899">
        <ele>1228</ele>
        <time>2017-02-09T09:54:06.073Z</time>
      </trkpt>
      <trkpt lat="42.92657" lon="0.28899">
        <ele>1227</ele>
        <time>2017-02-09T09:54:07.073Z</time>
      </trkpt>
      <trkpt lat="42.92656" lon="0.28899">
        <ele>1227</ele>
        <time>2017-02-09T09:54:08.073Z</time>
      </trkpt>
      <trkpt lat="42.92656" lon="0.28899">
        <ele>1226</ele>
        <time>2017-02-09T09:54:09.073Z</time>
      </trkpt>
      <trkpt lat="42.92655" lon="0.28898">
        <ele>1227</ele>
        <time>2017-02-09T09:54:10.073Z</time>
      </trkpt>
      <trkpt lat="42.92655" lon="0.28896">
        <ele>1227</ele>
        <time>2017-02-09T09:54:11.073Z</time>
      </trkpt>
      <trkpt lat="42.92655" lon="0.28896">
        <ele>1227</ele>
        <time>2017-02-09T09:54:12.073Z</time>
      </trkpt>
      <trkpt lat="42.92654" lon="0.28896">
        <ele>1227</ele>
        <time>2017-02-09T09:54:13.073Z</time>
      </trkpt>
      <trkpt lat="42.92654" lon="0.28896">
        <ele>1227</ele>
        <time>2017-02-09T09:54:14.073Z</time>
      </trkpt>
      <trkpt lat="42.92653" lon="0.28896">
        <ele>1227</ele>
        <time>2017-02-09T09:54:15.073Z</time>
      </trkpt>
      <trkpt lat="42.92653" lon="0.28896">
        <ele>1227</ele>
        <time>2017-02-09T09:54:16.073Z</time>
      </trkpt>
      <trkpt lat="42.92652" lon="0.28896">
        <ele>1227</ele>
        <time>2017-02-09T09:54:17.073Z</time>
      </trkpt>
      <trkpt lat="42.92651" lon="0.28896">
        <ele>1228</ele>
        <time>2017-02-09T09:54:18.073Z</time>
      </trkpt>
      <trkpt lat="42.9265" lon="0.28896">
        <ele>1228</ele>
        <time>2017-02-09T09:54:19.073Z</time>
      </trkpt>
      <trkpt lat="42.92649" lon="0.28896">
        <ele>1228</ele>
        <time>2017-02-09T09:54:20.073Z</time>
      </trkpt>
      <trkpt lat="42.92649" lon="0.28896">
        <ele>1228</ele>
        <time>2017-02-09T09:54:21.073Z</time>
      </trkpt>
      <trkpt lat="42.92649" lon="0.28896">
        <ele>1228</ele>
        <time>2017-02-09T09:54:22.073Z</time>
      </trkpt>
      <trkpt lat="42.92649" lon="0.28896">
        <ele>1228</ele>
        <time>2017-02-09T09:54:23.073Z</time>
      </trkpt>
      <trkpt lat="42.92648" lon="0.28896">
        <ele>1228</ele>
        <time>2017-02-09T09:54:24.073Z</time>
      </trkpt>
      <trkpt lat="42.92648" lon="0.28896">
        <ele>1229</ele>
        <time>2017-02-09T09:54:25.073Z</time>
      </trkpt>
      <trkpt lat="42.92647" lon="0.28896">
        <ele>1229</ele>
        <time>2017-02-09T09:54:26.073Z</time>
      </trkpt>
      <trkpt lat="42.92647" lon="0.28896">
        <ele>1228</ele>
        <time>2017-02-09T09:54:27.073Z</time>
      </trkpt>
      <trkpt lat="42.92646" lon="0.28896">
        <ele>1229</ele>
        <time>2017-02-09T09:54:28.073Z</time>
      </trkpt>
      <trkpt lat="42.92646" lon="0.28896">
        <ele>1229</ele>
        <time>2017-02-09T09:54:29.073Z</time>
      </trkpt>
      <trkpt lat="42.92645" lon="0.28896">
        <ele>1230</ele>
        <time>2017-02-09T09:54:30.073Z</time>
      </trkpt>
      <trkpt lat="42.92644" lon="0.28897">
        <ele>1230</ele>
        <time>2017-02-09T09:54:31.073Z</time>
      </trkpt>
      <trkpt lat="42.92644" lon="0.28897">
        <ele>1230</ele>
        <time>2017-02-09T09:54:32.073Z</time>
      </trkpt>
      <trkpt lat="42.92644" lon="0.28897">
        <ele>1230</ele>
        <time>2017-02-09T09:54:33.073Z</time>
      </trkpt>
      <trkpt lat="42.92643" lon="0.28897">
        <ele>1230</ele>
        <time>2017-02-09T09:54:34.073Z</time>
      </trkpt>
      <trkpt lat="42.92643" lon="0.28897">
        <ele>1230</ele>
        <time>2017-02-09T09:54:35.073Z</time>
      </trkpt>
      <trkpt lat="42.92643" lon="0.28897">
        <ele>1230</ele>
        <time>2017-02-09T09:54:36.073Z</time>
      </trkpt>
      <trkpt lat="42.92642" lon="0.28896">
        <ele>1229</ele>
        <time>2017-02-09T09:54:37.073Z</time>
      </trkpt>
      <trkpt lat="42.92642" lon="0.28896">
        <ele>1229</ele>
        <time>2017-02-09T09:54:38.073Z</time>
      </trkpt>
      <trkpt lat="42.92641" lon="0.28896">
        <ele>1229</ele>
        <time>2017-02-09T09:54:39.073Z</time>
      </trkpt>
      <trkpt lat="42.92641" lon="0.28896">
        <ele>1229</ele>
        <time>2017-02-09T09:54:40.073Z</time>
      </trkpt>
      <trkpt lat="42.92641" lon="0.28895">
        <ele>1229</ele>
        <time>2017-02-09T09:54:41.073Z</time>
      </trkpt>
      <trkpt lat="42.92641" lon="0.28895">
        <ele>1230</ele>
        <time>2017-02-09T09:54:42.073Z</time>
      </trkpt>
      <trkpt lat="42.92641" lon="0.28894">
        <ele>1230</ele>
        <time>2017-02-09T09:54:43.073Z</time>
      </trkpt>
      <trkpt lat="42.9264" lon="0.28894">
        <ele>1230</ele>
        <time>2017-02-09T09:54:44.073Z</time>
      </trkpt>
      <trkpt lat="42.9264" lon="0.28893">
        <ele>1230</ele>
        <time>2017-02-09T09:54:45.073Z</time>
      </trkpt>
      <trkpt lat="42.92639" lon="0.28893">
        <ele>1230</ele>
        <time>2017-02-09T09:54:46.073Z</time>
      </trkpt>
      <trkpt lat="42.92639" lon="0.28893">
        <ele>1231</ele>
        <time>2017-02-09T09:54:47.073Z</time>
      </trkpt>
      <trkpt lat="42.92639" lon="0.28893">
        <ele>1231</ele>
        <time>2017-02-09T09:54:48.073Z</time>
      </trkpt>
      <trkpt lat="42.92638" lon="0.28893">
        <ele>1232</ele>
        <time>2017-02-09T09:54:49.073Z</time>
      </trkpt>
      <trkpt lat="42.92638" lon="0.28893">
        <ele>1232</ele>
        <time>2017-02-09T09:54:50.073Z</time>
      </trkpt>
      <trkpt lat="42.92637" lon="0.28893">
        <ele>1233</ele>
        <time>2017-02-09T09:54:51.073Z</time>
      </trkpt>
      <trkpt lat="42.92636" lon="0.28893">
        <ele>1234</ele>
        <time>2017-02-09T09:54:52.073Z</time>
      </trkpt>
      <trkpt lat="42.92636" lon="0.28893">
        <ele>1234</ele>
        <time>2017-02-09T09:54:53.073Z</time>
      </trkpt>
      <trkpt lat="42.92635" lon="0.28893">
        <ele>1234</ele>
        <time>2017-02-09T09:54:54.073Z</time>
      </trkpt>
      <trkpt lat="42.92634" lon="0.28893">
        <ele>1234</ele>
        <time>2017-02-09T09:54:55.073Z</time>
      </trkpt>
      <trkpt lat="42.92634" lon="0.28893">
        <ele>1233</ele>
        <time>2017-02-09T09:54:56.073Z</time>
      </trkpt>
      <trkpt lat="42.92634" lon="0.28892">
        <ele>1232</ele>
        <time>2017-02-09T09:54:57.073Z</time>
      </trkpt>
      <trkpt lat="42.92633" lon="0.28892">
        <ele>1232</ele>
        <time>2017-02-09T09:54:58.073Z</time>
      </trkpt>
      <trkpt lat="42.92633" lon="0.28891">
        <ele>1232</ele>
        <time>2017-02-09T09:54:59.073Z</time>
      </trkpt>
      <trkpt lat="42.92632" lon="0.2889">
        <ele>1232</ele>
        <time>2017-02-09T09:55:00.073Z</time>
      </trkpt>
      <trkpt lat="42.92632" lon="0.2889">
        <ele>1233</ele>
        <time>2017-02-09T09:55:01.073Z</time>
      </trkpt>
      <trkpt lat="42.92631" lon="0.2889">
        <ele>1233</ele>
        <time>2017-02-09T09:55:02.073Z</time>
      </trkpt>
      <trkpt lat="42.92631" lon="0.28889">
        <ele>1234</ele>
        <time>2017-02-09T09:55:03.073Z</time>
      </trkpt>
      <trkpt lat="42.92631" lon="0.28889">
        <ele>1233</ele>
        <time>2017-02-09T09:55:04.073Z</time>
      </trkpt>
      <trkpt lat="42.92631" lon="0.28889">
        <ele>1232</ele>
        <time>2017-02-09T09:55:05.073Z</time>
      </trkpt>
      <trkpt lat="42.9263" lon="0.28888">
        <ele>1232</ele>
        <time>2017-02-09T09:55:06.073Z</time>
      </trkpt>
      <trkpt lat="42.9263" lon="0.28888">
        <ele>1232</ele>
        <time>2017-02-09T09:55:07.073Z</time>
      </trkpt>
      <trkpt lat="42.92629" lon="0.28888">
        <ele>1232</ele>
        <time>2017-02-09T09:55:08.073Z</time>
      </trkpt>
      <trkpt lat="42.92629" lon="0.28887">
        <ele>1233</ele>
        <time>2017-02-09T09:55:09.073Z</time>
      </trkpt>
      <trkpt lat="42.92628" lon="0.28887">
        <ele>1233</ele>
        <time>2017-02-09T09:55:10.073Z</time>
      </trkpt>
      <trkpt lat="42.92628" lon="0.28887">
        <ele>1233</ele>
        <time>2017-02-09T09:55:11.073Z</time>
      </trkpt>
      <trkpt lat="42.92627" lon="0.28887">
        <ele>1233</ele>
        <time>2017-02-09T09:55:12.073Z</time>
      </trkpt>
      <trkpt lat="42.92627" lon="0.28886">
        <ele>1233</ele>
        <time>2017-02-09T09:55:13.073Z</time>
      </trkpt>
      <trkpt lat="42.92626" lon="0.28886">
        <ele>1232</ele>
        <time>2017-02-09T09:55:14.073Z</time>
      </trkpt>
      <trkpt lat="42.92626" lon="0.28886">
        <ele>1232</ele>
        <time>2017-02-09T09:55:15.073Z</time>
      </trkpt>
      <trkpt lat="42.92625" lon="0.28886">
        <ele>1232</ele>
        <time>2017-02-09T09:55:16.073Z</time>
      </trkpt>
      <trkpt lat="42.92625" lon="0.28886">
        <ele>1232</ele>
        <time>2017-02-09T09:55:17.073Z</time>
      </trkpt>
      <trkpt lat="42.92624" lon="0.28886">
        <ele>1232</ele>
        <time>2017-02-09T09:55:18.073Z</time>
      </trkpt>
      <trkpt lat="42.92624" lon="0.28885">
        <ele>1232</ele>
        <time>2017-02-09T09:55:19.073Z</time>
      </trkpt>
      <trkpt lat="42.92623" lon="0.28885">
        <ele>1232</ele>
        <time>2017-02-09T09:55:20.073Z</time>
      </trkpt>
      <trkpt lat="42.92623" lon="0.28885">
        <ele>1232</ele>
        <time>2017-02-09T09:55:21.073Z</time>
      </trkpt>
      <trkpt lat="42.92622" lon="0.28884">
        <ele>1232</ele>
        <time>2017-02-09T09:55:22.073Z</time>
      </trkpt>
      <trkpt lat="42.92622" lon="0.28884">
        <ele>1231</ele>
        <time>2017-02-09T09:55:23.073Z</time>
      </trkpt>
      <trkpt lat="42.92621" lon="0.28884">
        <ele>1232</ele>
        <time>2017-02-09T09:55:24.073Z</time>
      </trkpt>
      <trkpt lat="42.92621" lon="0.28884">
        <ele>1232</ele>
        <time>2017-02-09T09:55:25.073Z</time>
      </trkpt>
      <trkpt lat="42.92621" lon="0.28884">
        <ele>1232</ele>
        <time>2017-02-09T09:55:26.073Z</time>
      </trkpt>
      <trkpt lat="42.92615" lon="0.28889">
        <ele>1234</ele>
        <time>2017-02-09T09:55:27.077Z</time>
      </trkpt>
      <trkpt lat="42.92615" lon="0.2889">
        <ele>1234</ele>
        <time>2017-02-09T09:55:28.077Z</time>
      </trkpt>
      <trkpt lat="42.92615" lon="0.2889">
        <ele>1234</ele>
        <time>2017-02-09T09:55:29.077Z</time>
      </trkpt>
      <trkpt lat="42.92615" lon="0.2889">
        <ele>1234</ele>
        <time>2017-02-09T09:55:30.077Z</time>
      </trkpt>
      <trkpt lat="42.92615" lon="0.2889">
        <ele>1234</ele>
        <time>2017-02-09T09:55:31.077Z</time>
      </trkpt>
      <trkpt lat="42.92615" lon="0.28891">
        <ele>1234</ele>
        <time>2017-02-09T09:55:32.077Z</time>
      </trkpt>
      <trkpt lat="42.92614" lon="0.28891">
        <ele>1234</ele>
        <time>2017-02-09T09:55:33.077Z</time>
      </trkpt>
      <trkpt lat="42.92614" lon="0.28892">
        <ele>1235</ele>
        <time>2017-02-09T09:55:34.077Z</time>
      </trkpt>
      <trkpt lat="42.92613" lon="0.28892">
        <ele>1235</ele>
        <time>2017-02-09T09:55:35.077Z</time>
      </trkpt>
      <trkpt lat="42.92613" lon="0.28892">
        <ele>1235</ele>
        <time>2017-02-09T09:55:36.077Z</time>
      </trkpt>
      <trkpt lat="42.92613" lon="0.28893">
        <ele>1235</ele>
        <time>2017-02-09T09:55:37.077Z</time>
      </trkpt>
      <trkpt lat="42.92613" lon="0.28893">
        <ele>1235</ele>
        <time>2017-02-09T09:55:38.077Z</time>
      </trkpt>
      <trkpt lat="42.92613" lon="0.28893">
        <ele>1235</ele>
        <time>2017-02-09T09:55:39.077Z</time>
      </trkpt>
      <trkpt lat="42.92613" lon="0.28893">
        <ele>1235</ele>
        <time>2017-02-09T09:55:40.077Z</time>
      </trkpt>
      <trkpt lat="42.92613" lon="0.28894">
        <ele>1235</ele>
        <time>2017-02-09T09:55:41.077Z</time>
      </trkpt>
      <trkpt lat="42.92614" lon="0.28892">
        <ele>1247</ele>
        <time>2017-02-09T09:55:42.081Z</time>
      </trkpt>
      <trkpt lat="42.92615" lon="0.28891">
        <ele>1247</ele>
        <time>2017-02-09T09:55:43.081Z</time>
      </trkpt>
      <trkpt lat="42.92615" lon="0.28891">
        <ele>1247</ele>
        <time>2017-02-09T09:55:44.081Z</time>
      </trkpt>
      <trkpt lat="42.92615" lon="0.28891">
        <ele>1246</ele>
        <time>2017-02-09T09:55:45.081Z</time>
      </trkpt>
      <trkpt lat="42.92615" lon="0.2889">
        <ele>1246</ele>
        <time>2017-02-09T09:55:46.081Z</time>
      </trkpt>
      <trkpt lat="42.92616" lon="0.2889">
        <ele>1245</ele>
        <time>2017-02-09T09:55:47.081Z</time>
      </trkpt>
      <trkpt lat="42.92616" lon="0.28889">
        <ele>1245</ele>
        <time>2017-02-09T09:55:48.081Z</time>
      </trkpt>
      <trkpt lat="42.92616" lon="0.28888">
        <ele>1245</ele>
        <time>2017-02-09T09:55:49.081Z</time>
      </trkpt>
      <trkpt lat="42.92617" lon="0.28887">
        <ele>1245</ele>
        <time>2017-02-09T09:55:50.081Z</time>
      </trkpt>
      <trkpt lat="42.92617" lon="0.28886">
        <ele>1245</ele>
        <time>2017-02-09T09:55:51.081Z</time>
      </trkpt>
      <trkpt lat="42.92618" lon="0.28885">
        <ele>1245</ele>
        <time>2017-02-09T09:55:52.081Z</time>
      </trkpt>
      <trkpt lat="42.92619" lon="0.28884">
        <ele>1245</ele>
        <time>2017-02-09T09:55:53.081Z</time>
      </trkpt>
      <trkpt lat="42.9262" lon="0.28884">
        <ele>1245</ele>
        <time>2017-02-09T09:55:54.081Z</time>
      </trkpt>
      <trkpt lat="42.9262" lon="0.28884">
        <ele>1245</ele>
        <time>2017-02-09T09:55:55.081Z</time>
      </trkpt>
      <trkpt lat="42.9262" lon="0.28884">
        <ele>1245</ele>
        <time>2017-02-09T09:55:56.081Z</time>
      </trkpt>
      <trkpt lat="42.92621" lon="0.28884">
        <ele>1245</ele>
        <time>2017-02-09T09:55:57.081Z</time>
      </trkpt>
      <trkpt lat="42.92621" lon="0.28885">
        <ele>1245</ele>
        <time>2017-02-09T09:55:58.081Z</time>
      </trkpt>
      <trkpt lat="42.92622" lon="0.28885">
        <ele>1246</ele>
        <time>2017-02-09T09:55:59.081Z</time>
      </trkpt>
      <trkpt lat="42.92622" lon="0.28885">
        <ele>1245</ele>
        <time>2017-02-09T09:56:00.081Z</time>
      </trkpt>
      <trkpt lat="42.92623" lon="0.28886">
        <ele>1245</ele>
        <time>2017-02-09T09:56:01.081Z</time>
      </trkpt>
      <trkpt lat="42.92624" lon="0.28886">
        <ele>1245</ele>
        <time>2017-02-09T09:56:02.081Z</time>
      </trkpt>
      <trkpt lat="42.92625" lon="0.28885">
        <ele>1244</ele>
        <time>2017-02-09T09:56:03.081Z</time>
      </trkpt>
      <trkpt lat="42.92625" lon="0.28885">
        <ele>1244</ele>
        <time>2017-02-09T09:56:04.081Z</time>
      </trkpt>
      <trkpt lat="42.92626" lon="0.28885">
        <ele>1242</ele>
        <time>2017-02-09T09:56:05.081Z</time>
      </trkpt>
      <trkpt lat="42.92627" lon="0.28885">
        <ele>1243</ele>
        <time>2017-02-09T09:56:06.081Z</time>
      </trkpt>
      <trkpt lat="42.92628" lon="0.28885">
        <ele>1242</ele>
        <time>2017-02-09T09:56:07.081Z</time>
      </trkpt>
      <trkpt lat="42.92629" lon="0.28885">
        <ele>1244</ele>
        <time>2017-02-09T09:56:08.081Z</time>
      </trkpt>
      <trkpt lat="42.9263" lon="0.28886">
        <ele>1244</ele>
        <time>2017-02-09T09:56:09.081Z</time>
      </trkpt>
      <trkpt lat="42.9263" lon="0.28886">
        <ele>1244</ele>
        <time>2017-02-09T09:56:10.081Z</time>
      </trkpt>
      <trkpt lat="42.92631" lon="0.28886">
        <ele>1244</ele>
        <time>2017-02-09T09:56:11.081Z</time>
      </trkpt>
      <trkpt lat="42.92631" lon="0.28887">
        <ele>1243</ele>
        <time>2017-02-09T09:56:12.081Z</time>
      </trkpt>
      <trkpt lat="42.92632" lon="0.28887">
        <ele>1243</ele>
        <time>2017-02-09T09:56:13.081Z</time>
      </trkpt>
      <trkpt lat="42.92632" lon="0.28888">
        <ele>1242</ele>
        <time>2017-02-09T09:56:14.081Z</time>
      </trkpt>
      <trkpt lat="42.92633" lon="0.28888">
        <ele>1242</ele>
        <time>2017-02-09T09:56:15.081Z</time>
      </trkpt>
      <trkpt lat="42.92633" lon="0.28888">
        <ele>1242</ele>
        <time>2017-02-09T09:56:16.081Z</time>
      </trkpt>
      <trkpt lat="42.92634" lon="0.28888">
        <ele>1242</ele>
        <time>2017-02-09T09:56:17.081Z</time>
      </trkpt>
      <trkpt lat="42.92635" lon="0.28888">
        <ele>1241</ele>
        <time>2017-02-09T09:56:18.081Z</time>
      </trkpt>
      <trkpt lat="42.92635" lon="0.28888">
        <ele>1241</ele>
        <time>2017-02-09T09:56:19.081Z</time>
      </trkpt>
      <trkpt lat="42.92636" lon="0.28889">
        <ele>1240</ele>
        <time>2017-02-09T09:56:20.081Z</time>
      </trkpt>
      <trkpt lat="42.92637" lon="0.28889">
        <ele>1240</ele>
        <time>2017-02-09T09:56:21.081Z</time>
      </trkpt>
      <trkpt lat="42.92637" lon="0.28889">
        <ele>1241</ele>
        <time>2017-02-09T09:56:22.081Z</time>
      </trkpt>
      <trkpt lat="42.92637" lon="0.28889">
        <ele>1241</ele>
        <time>2017-02-09T09:56:23.081Z</time>
      </trkpt>
      <trkpt lat="42.92637" lon="0.28889">
        <ele>1241</ele>
        <time>2017-02-09T09:56:24.081Z</time>
      </trkpt>
      <trkpt lat="42.92637" lon="0.28889">
        <ele>1241</ele>
        <time>2017-02-09T09:56:25.081Z</time>
      </trkpt>
      <trkpt lat="42.92638" lon="0.28889">
        <ele>1241</ele>
        <time>2017-02-09T09:56:26.081Z</time>
      </trkpt>
      <trkpt lat="42.92638" lon="0.28889">
        <ele>1243</ele>
        <time>2017-02-09T09:56:27.081Z</time>
      </trkpt>
      <trkpt lat="42.92642" lon="0.28889">
        <ele>1242</ele>
        <time>2017-02-09T09:56:28.085Z</time>
      </trkpt>
      <trkpt lat="42.92643" lon="0.28888">
        <ele>1242</ele>
        <time>2017-02-09T09:56:29.085Z</time>
      </trkpt>
      <trkpt lat="42.92644" lon="0.28888">
        <ele>1242</ele>
        <time>2017-02-09T09:56:30.085Z</time>
      </trkpt>
      <trkpt lat="42.92644" lon="0.28888">
        <ele>1241</ele>
        <time>2017-02-09T09:56:31.085Z</time>
      </trkpt>
      <trkpt lat="42.92645" lon="0.28888">
        <ele>1241</ele>
        <time>2017-02-09T09:56:32.085Z</time>
      </trkpt>
      <trkpt lat="42.92646" lon="0.28888">
        <ele>1241</ele>
        <time>2017-02-09T09:56:33.085Z</time>
      </trkpt>
      <trkpt lat="42.92646" lon="0.28889">
        <ele>1241</ele>
        <time>2017-02-09T09:56:34.085Z</time>
      </trkpt>
      <trkpt lat="42.92647" lon="0.28889">
        <ele>1241</ele>
        <time>2017-02-09T09:56:35.085Z</time>
      </trkpt>
      <trkpt lat="42.92648" lon="0.28889">
        <ele>1240</ele>
        <time>2017-02-09T09:56:36.085Z</time>
      </trkpt>
      <trkpt lat="42.92648" lon="0.2889">
        <ele>1240</ele>
        <time>2017-02-09T09:56:37.085Z</time>
      </trkpt>
      <trkpt lat="42.92648" lon="0.2889">
        <ele>1240</ele>
        <time>2017-02-09T09:56:38.085Z</time>
      </trkpt>
      <trkpt lat="42.92648" lon="0.2889">
        <ele>1240</ele>
        <time>2017-02-09T09:56:39.085Z</time>
      </trkpt>
      <trkpt lat="42.92648" lon="0.2889">
        <ele>1240</ele>
        <time>2017-02-09T09:56:40.085Z</time>
      </trkpt>
      <trkpt lat="42.92648" lon="0.2889">
        <ele>1239</ele>
        <time>2017-02-09T09:56:41.085Z</time>
      </trkpt>
      <trkpt lat="42.92648" lon="0.28891">
        <ele>1239</ele>
        <time>2017-02-09T09:56:42.085Z</time>
      </trkpt>
      <trkpt lat="42.92652" lon="0.28893">
        <ele>1231</ele>
        <time>2017-02-09T09:56:43.085Z</time>
      </trkpt>
      <trkpt lat="42.92652" lon="0.28893">
        <ele>1230</ele>
        <time>2017-02-09T09:56:44.085Z</time>
      </trkpt>
      <trkpt lat="42.92653" lon="0.28894">
        <ele>1231</ele>
        <time>2017-02-09T09:56:45.085Z</time>
      </trkpt>
      <trkpt lat="42.92654" lon="0.28894">
        <ele>1229</ele>
        <time>2017-02-09T09:56:46.085Z</time>
      </trkpt>
      <trkpt lat="42.92655" lon="0.28894">
        <ele>1229</ele>
        <time>2017-02-09T09:56:47.085Z</time>
      </trkpt>
      <trkpt lat="42.92656" lon="0.28894">
        <ele>1228</ele>
        <time>2017-02-09T09:56:48.085Z</time>
      </trkpt>
      <trkpt lat="42.92657" lon="0.28894">
        <ele>1228</ele>
        <time>2017-02-09T09:56:49.085Z</time>
      </trkpt>
      <trkpt lat="42.92657" lon="0.28894">
        <ele>1227</ele>
        <time>2017-02-09T09:56:50.085Z</time>
      </trkpt>
      <trkpt lat="42.92658" lon="0.28894">
        <ele>1228</ele>
        <time>2017-02-09T09:56:51.085Z</time>
      </trkpt>
      <trkpt lat="42.92658" lon="0.28894">
        <ele>1229</ele>
        <time>2017-02-09T09:56:52.085Z</time>
      </trkpt>
      <trkpt lat="42.92659" lon="0.28894">
        <ele>1229</ele>
        <time>2017-02-09T09:56:53.085Z</time>
      </trkpt>
      <trkpt lat="42.92659" lon="0.28894">
        <ele>1229</ele>
        <time>2017-02-09T09:56:54.085Z</time>
      </trkpt>
      <trkpt lat="42.9266" lon="0.28894">
        <ele>1230</ele>
        <time>2017-02-09T09:56:55.085Z</time>
      </trkpt>
      <trkpt lat="42.92661" lon="0.28895">
        <ele>1232</ele>
        <time>2017-02-09T09:56:56.085Z</time>
      </trkpt>
      <trkpt lat="42.92662" lon="0.28894">
        <ele>1232</ele>
        <time>2017-02-09T09:56:57.085Z</time>
      </trkpt>
      <trkpt lat="42.92663" lon="0.28894">
        <ele>1233</ele>
        <time>2017-02-09T09:56:58.085Z</time>
      </trkpt>
      <trkpt lat="42.92664" lon="0.28894">
        <ele>1234</ele>
        <time>2017-02-09T09:56:59.085Z</time>
      </trkpt>
      <trkpt lat="42.92664" lon="0.28894">
        <ele>1235</ele>
        <time>2017-02-09T09:57:00.085Z</time>
      </trkpt>
      <trkpt lat="42.92666" lon="0.28894">
        <ele>1234</ele>
        <time>2017-02-09T09:57:01.085Z</time>
      </trkpt>
      <trkpt lat="42.92666" lon="0.28894">
        <ele>1234</ele>
        <time>2017-02-09T09:57:02.085Z</time>
      </trkpt>
      <trkpt lat="42.92667" lon="0.28895">
        <ele>1234</ele>
        <time>2017-02-09T09:57:03.085Z</time>
      </trkpt>
      <trkpt lat="42.92668" lon="0.28895">
        <ele>1234</ele>
        <time>2017-02-09T09:57:04.085Z</time>
      </trkpt>
      <trkpt lat="42.92669" lon="0.28896">
        <ele>1234</ele>
        <time>2017-02-09T09:57:05.085Z</time>
      </trkpt>
      <trkpt lat="42.92669" lon="0.28896">
        <ele>1234</ele>
        <time>2017-02-09T09:57:06.085Z</time>
      </trkpt>
      <trkpt lat="42.9267" lon="0.28897">
        <ele>1234</ele>
        <time>2017-02-09T09:57:07.085Z</time>
      </trkpt>
      <trkpt lat="42.9267" lon="0.28897">
        <ele>1234</ele>
        <time>2017-02-09T09:57:08.085Z</time>
      </trkpt>
      <trkpt lat="42.92671" lon="0.28897">
        <ele>1234</ele>
        <time>2017-02-09T09:57:09.085Z</time>
      </trkpt>
      <trkpt lat="42.92671" lon="0.28898">
        <ele>1234</ele>
        <time>2017-02-09T09:57:10.085Z</time>
      </trkpt>
      <trkpt lat="42.92672" lon="0.28898">
        <ele>1234</ele>
        <time>2017-02-09T09:57:11.085Z</time>
      </trkpt>
      <trkpt lat="42.92673" lon="0.28899">
        <ele>1234</ele>
        <time>2017-02-09T09:57:12.085Z</time>
      </trkpt>
      <trkpt lat="42.92674" lon="0.28899">
        <ele>1234</ele>
        <time>2017-02-09T09:57:13.085Z</time>
      </trkpt>
      <trkpt lat="42.92675" lon="0.289">
        <ele>1235</ele>
        <time>2017-02-09T09:57:14.085Z</time>
      </trkpt>
      <trkpt lat="42.92676" lon="0.289">
        <ele>1235</ele>
        <time>2017-02-09T09:57:15.085Z</time>
      </trkpt>
      <trkpt lat="42.92677" lon="0.28901">
        <ele>1234</ele>
        <time>2017-02-09T09:57:16.085Z</time>
      </trkpt>
      <trkpt lat="42.92678" lon="0.28901">
        <ele>1235</ele>
        <time>2017-02-09T09:57:17.085Z</time>
      </trkpt>
      <trkpt lat="42.92679" lon="0.28902">
        <ele>1235</ele>
        <time>2017-02-09T09:57:18.085Z</time>
      </trkpt>
      <trkpt lat="42.9268" lon="0.28903">
        <ele>1235</ele>
        <time>2017-02-09T09:57:19.085Z</time>
      </trkpt>
      <trkpt lat="42.92681" lon="0.28903">
        <ele>1235</ele>
        <time>2017-02-09T09:57:20.085Z</time>
      </trkpt>
      <trkpt lat="42.92682" lon="0.28903">
        <ele>1235</ele>
        <time>2017-02-09T09:57:21.085Z</time>
      </trkpt>
      <trkpt lat="42.92682" lon="0.28904">
        <ele>1235</ele>
        <time>2017-02-09T09:57:22.085Z</time>
      </trkpt>
      <trkpt lat="42.92683" lon="0.28904">
        <ele>1236</ele>
        <time>2017-02-09T09:57:23.085Z</time>
      </trkpt>
      <trkpt lat="42.92684" lon="0.28905">
        <ele>1236</ele>
        <time>2017-02-09T09:57:24.085Z</time>
      </trkpt>
      <trkpt lat="42.92685" lon="0.28905">
        <ele>1237</ele>
        <time>2017-02-09T09:57:25.085Z</time>
      </trkpt>
      <trkpt lat="42.92685" lon="0.28906">
        <ele>1236</ele>
        <time>2017-02-09T09:57:26.085Z</time>
      </trkpt>
      <trkpt lat="42.92686" lon="0.28906">
        <ele>1236</ele>
        <time>2017-02-09T09:57:27.085Z</time>
      </trkpt>
      <trkpt lat="42.92686" lon="0.28906">
        <ele>1236</ele>
        <time>2017-02-09T09:57:28.085Z</time>
      </trkpt>
      <trkpt lat="42.92687" lon="0.28907">
        <ele>1235</ele>
        <time>2017-02-09T09:57:29.085Z</time>
      </trkpt>
      <trkpt lat="42.92688" lon="0.28907">
        <ele>1232</ele>
        <time>2017-02-09T09:57:30.085Z</time>
      </trkpt>
      <trkpt lat="42.92689" lon="0.28907">
        <ele>1232</ele>
        <time>2017-02-09T09:57:31.085Z</time>
      </trkpt>
      <trkpt lat="42.9269" lon="0.28907">
        <ele>1231</ele>
        <time>2017-02-09T09:57:32.085Z</time>
      </trkpt>
      <trkpt lat="42.92691" lon="0.28907">
        <ele>1231</ele>
        <time>2017-02-09T09:57:33.085Z</time>
      </trkpt>
      <trkpt lat="42.92691" lon="0.28908">
        <ele>1232</ele>
        <time>2017-02-09T09:57:34.085Z</time>
      </trkpt>
      <trkpt lat="42.92692" lon="0.28908">
        <ele>1231</ele>
        <time>2017-02-09T09:57:35.085Z</time>
      </trkpt>
      <trkpt lat="42.92693" lon="0.28909">
        <ele>1230</ele>
        <time>2017-02-09T09:57:36.085Z</time>
      </trkpt>
      <trkpt lat="42.92694" lon="0.28909">
        <ele>1230</ele>
        <time>2017-02-09T09:57:37.085Z</time>
      </trkpt>
      <trkpt lat="42.92695" lon="0.28909">
        <ele>1230</ele>
        <time>2017-02-09T09:57:38.085Z</time>
      </trkpt>
      <trkpt lat="42.92695" lon="0.2891">
        <ele>1228</ele>
        <time>2017-02-09T09:57:39.085Z</time>
      </trkpt>
      <trkpt lat="42.92696" lon="0.2891">
        <ele>1227</ele>
        <time>2017-02-09T09:57:40.085Z</time>
      </trkpt>
      <trkpt lat="42.92696" lon="0.28911">
        <ele>1226</ele>
        <time>2017-02-09T09:57:41.085Z</time>
      </trkpt>
      <trkpt lat="42.92697" lon="0.28912">
        <ele>1226</ele>
        <time>2017-02-09T09:57:42.085Z</time>
      </trkpt>
      <trkpt lat="42.92697" lon="0.28912">
        <ele>1225</ele>
        <time>2017-02-09T09:57:43.085Z</time>
      </trkpt>
      <trkpt lat="42.92698" lon="0.28912">
        <ele>1225</ele>
        <time>2017-02-09T09:57:44.085Z</time>
      </trkpt>
      <trkpt lat="42.92699" lon="0.28912">
        <ele>1225</ele>
        <time>2017-02-09T09:57:45.085Z</time>
      </trkpt>
      <trkpt lat="42.92699" lon="0.28913">
        <ele>1224</ele>
        <time>2017-02-09T09:57:46.085Z</time>
      </trkpt>
      <trkpt lat="42.927" lon="0.28913">
        <ele>1223</ele>
        <time>2017-02-09T09:57:47.085Z</time>
      </trkpt>
      <trkpt lat="42.927" lon="0.28913">
        <ele>1223</ele>
        <time>2017-02-09T09:57:48.085Z</time>
      </trkpt>
      <trkpt lat="42.92701" lon="0.28914">
        <ele>1223</ele>
        <time>2017-02-09T09:57:49.085Z</time>
      </trkpt>
      <trkpt lat="42.92701" lon="0.28914">
        <ele>1223</ele>
        <time>2017-02-09T09:57:50.085Z</time>
      </trkpt>
      <trkpt lat="42.92702" lon="0.28915">
        <ele>1224</ele>
        <time>2017-02-09T09:57:51.085Z</time>
      </trkpt>
      <trkpt lat="42.92702" lon="0.28916">
        <ele>1224</ele>
        <time>2017-02-09T09:57:52.085Z</time>
      </trkpt>
      <trkpt lat="42.92703" lon="0.28916">
        <ele>1224</ele>
        <time>2017-02-09T09:57:53.085Z</time>
      </trkpt>
      <trkpt lat="42.92703" lon="0.28917">
        <ele>1224</ele>
        <time>2017-02-09T09:57:54.085Z</time>
      </trkpt>
      <trkpt lat="42.92704" lon="0.28917">
        <ele>1224</ele>
        <time>2017-02-09T09:57:55.085Z</time>
      </trkpt>
      <trkpt lat="42.92705" lon="0.28918">
        <ele>1223</ele>
        <time>2017-02-09T09:57:56.085Z</time>
      </trkpt>
      <trkpt lat="42.92706" lon="0.28918">
        <ele>1223</ele>
        <time>2017-02-09T09:57:57.085Z</time>
      </trkpt>
      <trkpt lat="42.92707" lon="0.28919">
        <ele>1223</ele>
        <time>2017-02-09T09:57:58.085Z</time>
      </trkpt>
      <trkpt lat="42.92708" lon="0.28919">
        <ele>1223</ele>
        <time>2017-02-09T09:57:59.085Z</time>
      </trkpt>
      <trkpt lat="42.92708" lon="0.2892">
        <ele>1223</ele>
        <time>2017-02-09T09:58:00.085Z</time>
      </trkpt>
      <trkpt lat="42.92709" lon="0.2892">
        <ele>1223</ele>
        <time>2017-02-09T09:58:01.085Z</time>
      </trkpt>
      <trkpt lat="42.9271" lon="0.2892">
        <ele>1224</ele>
        <time>2017-02-09T09:58:02.085Z</time>
      </trkpt>
      <trkpt lat="42.92711" lon="0.28921">
        <ele>1224</ele>
        <time>2017-02-09T09:58:03.085Z</time>
      </trkpt>
      <trkpt lat="42.92711" lon="0.28921">
        <ele>1223</ele>
        <time>2017-02-09T09:58:04.085Z</time>
      </trkpt>
      <trkpt lat="42.92712" lon="0.28922">
        <ele>1223</ele>
        <time>2017-02-09T09:58:05.085Z</time>
      </trkpt>
      <trkpt lat="42.92713" lon="0.28922">
        <ele>1223</ele>
        <time>2017-02-09T09:58:06.085Z</time>
      </trkpt>
      <trkpt lat="42.92714" lon="0.28923">
        <ele>1223</ele>
        <time>2017-02-09T09:58:07.085Z</time>
      </trkpt>
      <trkpt lat="42.92714" lon="0.28923">
        <ele>1223</ele>
        <time>2017-02-09T09:58:08.085Z</time>
      </trkpt>
      <trkpt lat="42.92715" lon="0.28924">
        <ele>1224</ele>
        <time>2017-02-09T09:58:09.085Z</time>
      </trkpt>
      <trkpt lat="42.92715" lon="0.28924">
        <ele>1223</ele>
        <time>2017-02-09T09:58:10.085Z</time>
      </trkpt>
      <trkpt lat="42.92715" lon="0.28924">
        <ele>1223</ele>
        <time>2017-02-09T09:58:11.085Z</time>
      </trkpt>
      <trkpt lat="42.92716" lon="0.28925">
        <ele>1223</ele>
        <time>2017-02-09T09:58:12.085Z</time>
      </trkpt>
      <trkpt lat="42.92716" lon="0.28925">
        <ele>1223</ele>
        <time>2017-02-09T09:58:13.085Z</time>
      </trkpt>
      <trkpt lat="42.92716" lon="0.28926">
        <ele>1223</ele>
        <time>2017-02-09T09:58:14.085Z</time>
      </trkpt>
      <trkpt lat="42.92716" lon="0.28926">
        <ele>1223</ele>
        <time>2017-02-09T09:58:15.085Z</time>
      </trkpt>
      <trkpt lat="42.92716" lon="0.28927">
        <ele>1222</ele>
        <time>2017-02-09T09:58:16.085Z</time>
      </trkpt>
      <trkpt lat="42.92717" lon="0.28927">
        <ele>1223</ele>
        <time>2017-02-09T09:58:17.085Z</time>
      </trkpt>
      <trkpt lat="42.9272" lon="0.2893">
        <ele>1227</ele>
        <time>2017-02-09T09:58:18.096Z</time>
      </trkpt>
      <trkpt lat="42.92721" lon="0.28931">
        <ele>1228</ele>
        <time>2017-02-09T09:58:19.096Z</time>
      </trkpt>
      <trkpt lat="42.92722" lon="0.28931">
        <ele>1228</ele>
        <time>2017-02-09T09:58:20.096Z</time>
      </trkpt>
      <trkpt lat="42.92723" lon="0.28931">
        <ele>1228</ele>
        <time>2017-02-09T09:58:21.096Z</time>
      </trkpt>
      <trkpt lat="42.92723" lon="0.28932">
        <ele>1228</ele>
        <time>2017-02-09T09:58:22.096Z</time>
      </trkpt>
      <trkpt lat="42.92724" lon="0.28932">
        <ele>1229</ele>
        <time>2017-02-09T09:58:23.096Z</time>
      </trkpt>
      <trkpt lat="42.92725" lon="0.28933">
        <ele>1229</ele>
        <time>2017-02-09T09:58:24.096Z</time>
      </trkpt>
      <trkpt lat="42.92726" lon="0.28934">
        <ele>1229</ele>
        <time>2017-02-09T09:58:25.096Z</time>
      </trkpt>
      <trkpt lat="42.92727" lon="0.28935">
        <ele>1229</ele>
        <time>2017-02-09T09:58:26.096Z</time>
      </trkpt>
      <trkpt lat="42.92728" lon="0.28936">
        <ele>1228</ele>
        <time>2017-02-09T09:58:27.096Z</time>
      </trkpt>
      <trkpt lat="42.92729" lon="0.28937">
        <ele>1228</ele>
        <time>2017-02-09T09:58:28.096Z</time>
      </trkpt>
      <trkpt lat="42.9273" lon="0.28938">
        <ele>1228</ele>
        <time>2017-02-09T09:58:29.096Z</time>
      </trkpt>
      <trkpt lat="42.9273" lon="0.28939">
        <ele>1227</ele>
        <time>2017-02-09T09:58:30.096Z</time>
      </trkpt>
      <trkpt lat="42.92731" lon="0.2894">
        <ele>1226</ele>
        <time>2017-02-09T09:58:31.096Z</time>
      </trkpt>
      <trkpt lat="42.92731" lon="0.28941">
        <ele>1226</ele>
        <time>2017-02-09T09:58:32.096Z</time>
      </trkpt>
      <trkpt lat="42.92731" lon="0.28942">
        <ele>1226</ele>
        <time>2017-02-09T09:58:33.096Z</time>
      </trkpt>
      <trkpt lat="42.92732" lon="0.28943">
        <ele>1223</ele>
        <time>2017-02-09T09:58:34.096Z</time>
      </trkpt>
      <trkpt lat="42.92733" lon="0.28944">
        <ele>1222</ele>
        <time>2017-02-09T09:58:35.096Z</time>
      </trkpt>
      <trkpt lat="42.92733" lon="0.28944">
        <ele>1222</ele>
        <time>2017-02-09T09:58:36.096Z</time>
      </trkpt>
      <trkpt lat="42.92734" lon="0.28945">
        <ele>1222</ele>
        <time>2017-02-09T09:58:37.096Z</time>
      </trkpt>
      <trkpt lat="42.92735" lon="0.28946">
        <ele>1221</ele>
        <time>2017-02-09T09:58:38.096Z</time>
      </trkpt>
      <trkpt lat="42.92736" lon="0.28946">
        <ele>1221</ele>
        <time>2017-02-09T09:58:39.096Z</time>
      </trkpt>
      <trkpt lat="42.92737" lon="0.28947">
        <ele>1221</ele>
        <time>2017-02-09T09:58:40.096Z</time>
      </trkpt>
      <trkpt lat="42.92738" lon="0.28947">
        <ele>1222</ele>
        <time>2017-02-09T09:58:41.096Z</time>
      </trkpt>
      <trkpt lat="42.92739" lon="0.28948">
        <ele>1221</ele>
        <time>2017-02-09T09:58:42.096Z</time>
      </trkpt>
      <trkpt lat="42.9274" lon="0.28949">
        <ele>1221</ele>
        <time>2017-02-09T09:58:43.096Z</time>
      </trkpt>
      <trkpt lat="42.9274" lon="0.2895">
        <ele>1221</ele>
        <time>2017-02-09T09:58:44.096Z</time>
      </trkpt>
      <trkpt lat="42.92741" lon="0.28951">
        <ele>1221</ele>
        <time>2017-02-09T09:58:45.096Z</time>
      </trkpt>
      <trkpt lat="42.92742" lon="0.28951">
        <ele>1221</ele>
        <time>2017-02-09T09:58:46.096Z</time>
      </trkpt>
      <trkpt lat="42.92742" lon="0.28952">
        <ele>1220</ele>
        <time>2017-02-09T09:58:47.096Z</time>
      </trkpt>
      <trkpt lat="42.92743" lon="0.28952">
        <ele>1220</ele>
        <time>2017-02-09T09:58:48.096Z</time>
      </trkpt>
      <trkpt lat="42.92744" lon="0.28953">
        <ele>1221</ele>
        <time>2017-02-09T09:58:49.096Z</time>
      </trkpt>
      <trkpt lat="42.92744" lon="0.28954">
        <ele>1220</ele>
        <time>2017-02-09T09:58:50.096Z</time>
      </trkpt>
      <trkpt lat="42.92745" lon="0.28954">
        <ele>1220</ele>
        <time>2017-02-09T09:58:51.096Z</time>
      </trkpt>
      <trkpt lat="42.92745" lon="0.28955">
        <ele>1220</ele>
        <time>2017-02-09T09:58:52.096Z</time>
      </trkpt>
      <trkpt lat="42.92746" lon="0.28955">
        <ele>1220</ele>
        <time>2017-02-09T09:58:53.096Z</time>
      </trkpt>
      <trkpt lat="42.92746" lon="0.28956">
        <ele>1220</ele>
        <time>2017-02-09T09:58:54.096Z</time>
      </trkpt>
      <trkpt lat="42.92746" lon="0.28957">
        <ele>1221</ele>
        <time>2017-02-09T09:58:55.096Z</time>
      </trkpt>
      <trkpt lat="42.92747" lon="0.28957">
        <ele>1221</ele>
        <time>2017-02-09T09:58:56.096Z</time>
      </trkpt>
      <trkpt lat="42.92748" lon="0.28958">
        <ele>1220</ele>
        <time>2017-02-09T09:58:57.096Z</time>
      </trkpt>
      <trkpt lat="42.92749" lon="0.28958">
        <ele>1220</ele>
        <time>2017-02-09T09:58:58.096Z</time>
      </trkpt>
      <trkpt lat="42.92749" lon="0.28959">
        <ele>1221</ele>
        <time>2017-02-09T09:58:59.096Z</time>
      </trkpt>
      <trkpt lat="42.9275" lon="0.28959">
        <ele>1221</ele>
        <time>2017-02-09T09:59:00.096Z</time>
      </trkpt>
      <trkpt lat="42.9275" lon="0.2896">
        <ele>1220</ele>
        <time>2017-02-09T09:59:01.096Z</time>
      </trkpt>
      <trkpt lat="42.92751" lon="0.2896">
        <ele>1220</ele>
        <time>2017-02-09T09:59:02.096Z</time>
      </trkpt>
      <trkpt lat="42.92751" lon="0.28961">
        <ele>1221</ele>
        <time>2017-02-09T09:59:03.096Z</time>
      </trkpt>
      <trkpt lat="42.92752" lon="0.28962">
        <ele>1221</ele>
        <time>2017-02-09T09:59:04.096Z</time>
      </trkpt>
      <trkpt lat="42.92752" lon="0.28963">
        <ele>1222</ele>
        <time>2017-02-09T09:59:05.096Z</time>
      </trkpt>
      <trkpt lat="42.92753" lon="0.28964">
        <ele>1220</ele>
        <time>2017-02-09T09:59:06.096Z</time>
      </trkpt>
      <trkpt lat="42.92754" lon="0.28965">
        <ele>1221</ele>
        <time>2017-02-09T09:59:07.096Z</time>
      </trkpt>
      <trkpt lat="42.92755" lon="0.28966">
        <ele>1221</ele>
        <time>2017-02-09T09:59:08.096Z</time>
      </trkpt>
      <trkpt lat="42.92756" lon="0.28967">
        <ele>1221</ele>
        <time>2017-02-09T09:59:09.096Z</time>
      </trkpt>
      <trkpt lat="42.92757" lon="0.28968">
        <ele>1221</ele>
        <time>2017-02-09T09:59:10.096Z</time>
      </trkpt>
      <trkpt lat="42.92757" lon="0.28969">
        <ele>1221</ele>
        <time>2017-02-09T09:59:11.096Z</time>
      </trkpt>
      <trkpt lat="42.92758" lon="0.2897">
        <ele>1221</ele>
        <time>2017-02-09T09:59:12.096Z</time>
      </trkpt>
      <trkpt lat="42.92758" lon="0.28971">
        <ele>1221</ele>
        <time>2017-02-09T09:59:13.096Z</time>
      </trkpt>
      <trkpt lat="42.92758" lon="0.28972">
        <ele>1220</ele>
        <time>2017-02-09T09:59:14.096Z</time>
      </trkpt>
      <trkpt lat="42.92759" lon="0.28973">
        <ele>1221</ele>
        <time>2017-02-09T09:59:15.096Z</time>
      </trkpt>
      <trkpt lat="42.92759" lon="0.28974">
        <ele>1220</ele>
        <time>2017-02-09T09:59:16.096Z</time>
      </trkpt>
      <trkpt lat="42.9276" lon="0.28975">
        <ele>1220</ele>
        <time>2017-02-09T09:59:17.096Z</time>
      </trkpt>
      <trkpt lat="42.92761" lon="0.28976">
        <ele>1219</ele>
        <time>2017-02-09T09:59:18.096Z</time>
      </trkpt>
      <trkpt lat="42.92762" lon="0.28977">
        <ele>1219</ele>
        <time>2017-02-09T09:59:19.096Z</time>
      </trkpt>
      <trkpt lat="42.92763" lon="0.28977">
        <ele>1219</ele>
        <time>2017-02-09T09:59:20.096Z</time>
      </trkpt>
      <trkpt lat="42.92764" lon="0.28978">
        <ele>1218</ele>
        <time>2017-02-09T09:59:21.096Z</time>
      </trkpt>
      <trkpt lat="42.92764" lon="0.28978">
        <ele>1220</ele>
        <time>2017-02-09T09:59:22.096Z</time>
      </trkpt>
      <trkpt lat="42.92765" lon="0.28979">
        <ele>1219</ele>
        <time>2017-02-09T09:59:23.096Z</time>
      </trkpt>
      <trkpt lat="42.92766" lon="0.28979">
        <ele>1219</ele>
        <time>2017-02-09T09:59:24.096Z</time>
      </trkpt>
      <trkpt lat="42.92766" lon="0.2898">
        <ele>1219</ele>
        <time>2017-02-09T09:59:25.096Z</time>
      </trkpt>
      <trkpt lat="42.92767" lon="0.2898">
        <ele>1218</ele>
        <time>2017-02-09T09:59:26.096Z</time>
      </trkpt>
      <trkpt lat="42.92767" lon="0.2898">
        <ele>1218</ele>
        <time>2017-02-09T09:59:27.096Z</time>
      </trkpt>
      <trkpt lat="42.92768" lon="0.28981">
        <ele>1219</ele>
        <time>2017-02-09T09:59:28.096Z</time>
      </trkpt>
      <trkpt lat="42.92769" lon="0.28981">
        <ele>1219</ele>
        <time>2017-02-09T09:59:29.096Z</time>
      </trkpt>
      <trkpt lat="42.92769" lon="0.28982">
        <ele>1219</ele>
        <time>2017-02-09T09:59:30.096Z</time>
      </trkpt>
      <trkpt lat="42.9277" lon="0.28982">
        <ele>1220</ele>
        <time>2017-02-09T09:59:31.096Z</time>
      </trkpt>
      <trkpt lat="42.92771" lon="0.28982">
        <ele>1220</ele>
        <time>2017-02-09T09:59:32.096Z</time>
      </trkpt>
      <trkpt lat="42.92772" lon="0.28982">
        <ele>1220</ele>
        <time>2017-02-09T09:59:33.096Z</time>
      </trkpt>
      <trkpt lat="42.92772" lon="0.28983">
        <ele>1220</ele>
        <time>2017-02-09T09:59:34.096Z</time>
      </trkpt>
      <trkpt lat="42.92773" lon="0.28983">
        <ele>1221</ele>
        <time>2017-02-09T09:59:35.096Z</time>
      </trkpt>
      <trkpt lat="42.92774" lon="0.28983">
        <ele>1221</ele>
        <time>2017-02-09T09:59:36.096Z</time>
      </trkpt>
      <trkpt lat="42.92775" lon="0.28984">
        <ele>1220</ele>
        <time>2017-02-09T09:59:37.096Z</time>
      </trkpt>
      <trkpt lat="42.92776" lon="0.28984">
        <ele>1220</ele>
        <time>2017-02-09T09:59:38.096Z</time>
      </trkpt>
      <trkpt lat="42.92776" lon="0.28985">
        <ele>1220</ele>
        <time>2017-02-09T09:59:39.096Z</time>
      </trkpt>
      <trkpt lat="42.92777" lon="0.28985">
        <ele>1220</ele>
        <time>2017-02-09T09:59:40.096Z</time>
      </trkpt>
      <trkpt lat="42.92778" lon="0.28985">
        <ele>1220</ele>
        <time>2017-02-09T09:59:41.096Z</time>
      </trkpt>
      <trkpt lat="42.92779" lon="0.28985">
        <ele>1219</ele>
        <time>2017-02-09T09:59:42.096Z</time>
      </trkpt>
      <trkpt lat="42.92779" lon="0.28986">
        <ele>1220</ele>
        <time>2017-02-09T09:59:43.096Z</time>
      </trkpt>
      <trkpt lat="42.9278" lon="0.28986">
        <ele>1219</ele>
        <time>2017-02-09T09:59:44.096Z</time>
      </trkpt>
      <trkpt lat="42.92781" lon="0.28986">
        <ele>1219</ele>
        <time>2017-02-09T09:59:45.096Z</time>
      </trkpt>
      <trkpt lat="42.92782" lon="0.28987">
        <ele>1218</ele>
        <time>2017-02-09T09:59:46.096Z</time>
      </trkpt>
      <trkpt lat="42.92782" lon="0.28987">
        <ele>1218</ele>
        <time>2017-02-09T09:59:47.096Z</time>
      </trkpt>
      <trkpt lat="42.92783" lon="0.28987">
        <ele>1218</ele>
        <time>2017-02-09T09:59:48.096Z</time>
      </trkpt>
      <trkpt lat="42.92784" lon="0.28988">
        <ele>1218</ele>
        <time>2017-02-09T09:59:49.096Z</time>
      </trkpt>
      <trkpt lat="42.92784" lon="0.28989">
        <ele>1217</ele>
        <time>2017-02-09T09:59:50.096Z</time>
      </trkpt>
      <trkpt lat="42.92785" lon="0.28989">
        <ele>1217</ele>
        <time>2017-02-09T09:59:51.096Z</time>
      </trkpt>
      <trkpt lat="42.92786" lon="0.2899">
        <ele>1217</ele>
        <time>2017-02-09T09:59:52.096Z</time>
      </trkpt>
      <trkpt lat="42.92786" lon="0.2899">
        <ele>1216</ele>
        <time>2017-02-09T09:59:53.096Z</time>
      </trkpt>
      <trkpt lat="42.92787" lon="0.2899">
        <ele>1216</ele>
        <time>2017-02-09T09:59:54.096Z</time>
      </trkpt>
      <trkpt lat="42.92787" lon="0.28991">
        <ele>1216</ele>
        <time>2017-02-09T09:59:55.096Z</time>
      </trkpt>
      <trkpt lat="42.92788" lon="0.28991">
        <ele>1215</ele>
        <time>2017-02-09T09:59:56.096Z</time>
      </trkpt>
      <trkpt lat="42.92789" lon="0.28991">
        <ele>1215</ele>
        <time>2017-02-09T09:59:57.096Z</time>
      </trkpt>
      <trkpt lat="42.9279" lon="0.28991">
        <ele>1215</ele>
        <time>2017-02-09T09:59:58.096Z</time>
      </trkpt>
      <trkpt lat="42.9279" lon="0.28991">
        <ele>1215</ele>
        <time>2017-02-09T09:59:59.096Z</time>
      </trkpt>
      <trkpt lat="42.92791" lon="0.28992">
        <ele>1214</ele>
        <time>2017-02-09T10:00:00.096Z</time>
      </trkpt>
      <trkpt lat="42.92792" lon="0.28992">
        <ele>1214</ele>
        <time>2017-02-09T10:00:01.096Z</time>
      </trkpt>
      <trkpt lat="42.92792" lon="0.28992">
        <ele>1214</ele>
        <time>2017-02-09T10:00:02.096Z</time>
      </trkpt>
      <trkpt lat="42.92793" lon="0.28992">
        <ele>1214</ele>
        <time>2017-02-09T10:00:03.096Z</time>
      </trkpt>
      <trkpt lat="42.92793" lon="0.28992">
        <ele>1214</ele>
        <time>2017-02-09T10:00:04.096Z</time>
      </trkpt>
      <trkpt lat="42.92794" lon="0.28992">
        <ele>1214</ele>
        <time>2017-02-09T10:00:05.096Z</time>
      </trkpt>
      <trkpt lat="42.92795" lon="0.28991">
        <ele>1214</ele>
        <time>2017-02-09T10:00:06.096Z</time>
      </trkpt>
      <trkpt lat="42.92795" lon="0.28991">
        <ele>1214</ele>
        <time>2017-02-09T10:00:07.096Z</time>
      </trkpt>
      <trkpt lat="42.92796" lon="0.28991">
        <ele>1215</ele>
        <time>2017-02-09T10:00:08.096Z</time>
      </trkpt>
      <trkpt lat="42.92796" lon="0.28991">
        <ele>1215</ele>
        <time>2017-02-09T10:00:09.096Z</time>
      </trkpt>
      <trkpt lat="42.92797" lon="0.28991">
        <ele>1216</ele>
        <time>2017-02-09T10:00:10.096Z</time>
      </trkpt>
      <trkpt lat="42.92798" lon="0.28991">
        <ele>1216</ele>
        <time>2017-02-09T10:00:11.096Z</time>
      </trkpt>
      <trkpt lat="42.92799" lon="0.28991">
        <ele>1216</ele>
        <time>2017-02-09T10:00:12.096Z</time>
      </trkpt>
      <trkpt lat="42.928" lon="0.28991">
        <ele>1216</ele>
        <time>2017-02-09T10:00:13.096Z</time>
      </trkpt>
      <trkpt lat="42.928" lon="0.28991">
        <ele>1215</ele>
        <time>2017-02-09T10:00:14.096Z</time>
      </trkpt>
      <trkpt lat="42.92801" lon="0.2899">
        <ele>1216</ele>
        <time>2017-02-09T10:00:15.096Z</time>
      </trkpt>
      <trkpt lat="42.92802" lon="0.2899">
        <ele>1215</ele>
        <time>2017-02-09T10:00:16.096Z</time>
      </trkpt>
      <trkpt lat="42.92802" lon="0.28989">
        <ele>1215</ele>
        <time>2017-02-09T10:00:17.096Z</time>
      </trkpt>
      <trkpt lat="42.92803" lon="0.28989">
        <ele>1215</ele>
        <time>2017-02-09T10:00:18.096Z</time>
      </trkpt>
      <trkpt lat="42.92804" lon="0.28989">
        <ele>1215</ele>
        <time>2017-02-09T10:00:19.096Z</time>
      </trkpt>
      <trkpt lat="42.92805" lon="0.2899">
        <ele>1215</ele>
        <time>2017-02-09T10:00:20.096Z</time>
      </trkpt>
      <trkpt lat="42.92806" lon="0.2899">
        <ele>1215</ele>
        <time>2017-02-09T10:00:21.096Z</time>
      </trkpt>
      <trkpt lat="42.92806" lon="0.28991">
        <ele>1214</ele>
        <time>2017-02-09T10:00:22.096Z</time>
      </trkpt>
      <trkpt lat="42.92807" lon="0.28991">
        <ele>1214</ele>
        <time>2017-02-09T10:00:23.096Z</time>
      </trkpt>
      <trkpt lat="42.92808" lon="0.28992">
        <ele>1214</ele>
        <time>2017-02-09T10:00:24.096Z</time>
      </trkpt>
      <trkpt lat="42.92808" lon="0.28992">
        <ele>1215</ele>
        <time>2017-02-09T10:00:25.096Z</time>
      </trkpt>
      <trkpt lat="42.92809" lon="0.28993">
        <ele>1215</ele>
        <time>2017-02-09T10:00:26.096Z</time>
      </trkpt>
      <trkpt lat="42.9281" lon="0.28994">
        <ele>1215</ele>
        <time>2017-02-09T10:00:27.096Z</time>
      </trkpt>
      <trkpt lat="42.9281" lon="0.28995">
        <ele>1215</ele>
        <time>2017-02-09T10:00:28.096Z</time>
      </trkpt>
      <trkpt lat="42.92811" lon="0.28996">
        <ele>1215</ele>
        <time>2017-02-09T10:00:29.096Z</time>
      </trkpt>
      <trkpt lat="42.92811" lon="0.28997">
        <ele>1214</ele>
        <time>2017-02-09T10:00:30.096Z</time>
      </trkpt>
      <trkpt lat="42.92812" lon="0.28998">
        <ele>1215</ele>
        <time>2017-02-09T10:00:31.096Z</time>
      </trkpt>
      <trkpt lat="42.92813" lon="0.28998">
        <ele>1214</ele>
        <time>2017-02-09T10:00:32.096Z</time>
      </trkpt>
      <trkpt lat="42.92813" lon="0.28999">
        <ele>1215</ele>
        <time>2017-02-09T10:00:33.096Z</time>
      </trkpt>
      <trkpt lat="42.92814" lon="0.28999">
        <ele>1215</ele>
        <time>2017-02-09T10:00:34.096Z</time>
      </trkpt>
      <trkpt lat="42.92815" lon="0.28999">
        <ele>1215</ele>
        <time>2017-02-09T10:00:35.096Z</time>
      </trkpt>
      <trkpt lat="42.92815" lon="0.29">
        <ele>1215</ele>
        <time>2017-02-09T10:00:36.096Z</time>
      </trkpt>
      <trkpt lat="42.92816" lon="0.29">
        <ele>1215</ele>
        <time>2017-02-09T10:00:37.096Z</time>
      </trkpt>
      <trkpt lat="42.92816" lon="0.29">
        <ele>1215</ele>
        <time>2017-02-09T10:00:38.096Z</time>
      </trkpt>
      <trkpt lat="42.92816" lon="0.29">
        <ele>1215</ele>
        <time>2017-02-09T10:00:39.096Z</time>
      </trkpt>
      <trkpt lat="42.92817" lon="0.29001">
        <ele>1215</ele>
        <time>2017-02-09T10:00:40.096Z</time>
      </trkpt>
      <trkpt lat="42.92817" lon="0.29001">
        <ele>1215</ele>
        <time>2017-02-09T10:00:41.096Z</time>
      </trkpt>
      <trkpt lat="42.92818" lon="0.29001">
        <ele>1215</ele>
        <time>2017-02-09T10:00:42.096Z</time>
      </trkpt>
      <trkpt lat="42.92819" lon="0.29001">
        <ele>1215</ele>
        <time>2017-02-09T10:00:43.096Z</time>
      </trkpt>
      <trkpt lat="42.92819" lon="0.29002">
        <ele>1215</ele>
        <time>2017-02-09T10:00:44.096Z</time>
      </trkpt>
      <trkpt lat="42.9282" lon="0.29002">
        <ele>1215</ele>
        <time>2017-02-09T10:00:45.096Z</time>
      </trkpt>
      <trkpt lat="42.92821" lon="0.29002">
        <ele>1215</ele>
        <time>2017-02-09T10:00:46.096Z</time>
      </trkpt>
      <trkpt lat="42.92821" lon="0.29003">
        <ele>1215</ele>
        <time>2017-02-09T10:00:47.096Z</time>
      </trkpt>
      <trkpt lat="42.92822" lon="0.29003">
        <ele>1215</ele>
        <time>2017-02-09T10:00:48.096Z</time>
      </trkpt>
      <trkpt lat="42.92822" lon="0.29003">
        <ele>1214</ele>
        <time>2017-02-09T10:00:49.096Z</time>
      </trkpt>
      <trkpt lat="42.92822" lon="0.29002">
        <ele>1213</ele>
        <time>2017-02-09T10:00:50.096Z</time>
      </trkpt>
      <trkpt lat="42.92823" lon="0.29002">
        <ele>1213</ele>
        <time>2017-02-09T10:00:51.096Z</time>
      </trkpt>
      <trkpt lat="42.92824" lon="0.29002">
        <ele>1213</ele>
        <time>2017-02-09T10:00:52.096Z</time>
      </trkpt>
      <trkpt lat="42.92824" lon="0.29002">
        <ele>1213</ele>
        <time>2017-02-09T10:00:53.096Z</time>
      </trkpt>
      <trkpt lat="42.92825" lon="0.29001">
        <ele>1213</ele>
        <time>2017-02-09T10:00:54.096Z</time>
      </trkpt>
      <trkpt lat="42.92826" lon="0.29001">
        <ele>1214</ele>
        <time>2017-02-09T10:00:55.096Z</time>
      </trkpt>
      <trkpt lat="42.92827" lon="0.29">
        <ele>1214</ele>
        <time>2017-02-09T10:00:56.096Z</time>
      </trkpt>
      <trkpt lat="42.92827" lon="0.29">
        <ele>1214</ele>
        <time>2017-02-09T10:00:57.096Z</time>
      </trkpt>
      <trkpt lat="42.92828" lon="0.28999">
        <ele>1214</ele>
        <time>2017-02-09T10:00:58.096Z</time>
      </trkpt>
      <trkpt lat="42.92829" lon="0.28999">
        <ele>1215</ele>
        <time>2017-02-09T10:00:59.096Z</time>
      </trkpt>
      <trkpt lat="42.9283" lon="0.28999">
        <ele>1215</ele>
        <time>2017-02-09T10:01:00.096Z</time>
      </trkpt>
      <trkpt lat="42.9283" lon="0.28999">
        <ele>1215</ele>
        <time>2017-02-09T10:01:01.096Z</time>
      </trkpt>
      <trkpt lat="42.92831" lon="0.28999">
        <ele>1216</ele>
        <time>2017-02-09T10:01:02.096Z</time>
      </trkpt>
      <trkpt lat="42.92832" lon="0.28998">
        <ele>1216</ele>
        <time>2017-02-09T10:01:03.096Z</time>
      </trkpt>
      <trkpt lat="42.92832" lon="0.28998">
        <ele>1216</ele>
        <time>2017-02-09T10:01:04.096Z</time>
      </trkpt>
      <trkpt lat="42.92834" lon="0.28998">
        <ele>1216</ele>
        <time>2017-02-09T10:01:05.096Z</time>
      </trkpt>
      <trkpt lat="42.92835" lon="0.28998">
        <ele>1216</ele>
        <time>2017-02-09T10:01:06.096Z</time>
      </trkpt>
      <trkpt lat="42.92836" lon="0.28998">
        <ele>1216</ele>
        <time>2017-02-09T10:01:07.096Z</time>
      </trkpt>
      <trkpt lat="42.92837" lon="0.28998">
        <ele>1217</ele>
        <time>2017-02-09T10:01:08.096Z</time>
      </trkpt>
      <trkpt lat="42.92838" lon="0.28998">
        <ele>1217</ele>
        <time>2017-02-09T10:01:09.096Z</time>
      </trkpt>
      <trkpt lat="42.92839" lon="0.28997">
        <ele>1216</ele>
        <time>2017-02-09T10:01:10.096Z</time>
      </trkpt>
      <trkpt lat="42.9284" lon="0.28997">
        <ele>1217</ele>
        <time>2017-02-09T10:01:11.096Z</time>
      </trkpt>
      <trkpt lat="42.92841" lon="0.28997">
        <ele>1215</ele>
        <time>2017-02-09T10:01:12.096Z</time>
      </trkpt>
      <trkpt lat="42.92842" lon="0.28997">
        <ele>1215</ele>
        <time>2017-02-09T10:01:13.096Z</time>
      </trkpt>
      <trkpt lat="42.92843" lon="0.28996">
        <ele>1212</ele>
        <time>2017-02-09T10:01:14.096Z</time>
      </trkpt>
      <trkpt lat="42.92844" lon="0.28996">
        <ele>1211</ele>
        <time>2017-02-09T10:01:15.096Z</time>
      </trkpt>
      <trkpt lat="42.92845" lon="0.28996">
        <ele>1212</ele>
        <time>2017-02-09T10:01:16.096Z</time>
      </trkpt>
      <trkpt lat="42.92847" lon="0.28996">
        <ele>1211</ele>
        <time>2017-02-09T10:01:17.096Z</time>
      </trkpt>
      <trkpt lat="42.92848" lon="0.28995">
        <ele>1211</ele>
        <time>2017-02-09T10:01:18.096Z</time>
      </trkpt>
      <trkpt lat="42.92849" lon="0.28995">
        <ele>1211</ele>
        <time>2017-02-09T10:01:19.096Z</time>
      </trkpt>
      <trkpt lat="42.9285" lon="0.28995">
        <ele>1211</ele>
        <time>2017-02-09T10:01:20.096Z</time>
      </trkpt>
      <trkpt lat="42.92851" lon="0.28995">
        <ele>1211</ele>
        <time>2017-02-09T10:01:21.096Z</time>
      </trkpt>
      <trkpt lat="42.92852" lon="0.28995">
        <ele>1211</ele>
        <time>2017-02-09T10:01:22.096Z</time>
      </trkpt>
      <trkpt lat="42.92853" lon="0.28995">
        <ele>1211</ele>
        <time>2017-02-09T10:01:23.096Z</time>
      </trkpt>
      <trkpt lat="42.92854" lon="0.28995">
        <ele>1209</ele>
        <time>2017-02-09T10:01:24.096Z</time>
      </trkpt>
      <trkpt lat="42.92855" lon="0.28995">
        <ele>1209</ele>
        <time>2017-02-09T10:01:25.096Z</time>
      </trkpt>
      <trkpt lat="42.92855" lon="0.28995">
        <ele>1209</ele>
        <time>2017-02-09T10:01:26.096Z</time>
      </trkpt>
      <trkpt lat="42.92856" lon="0.28995">
        <ele>1209</ele>
        <time>2017-02-09T10:01:27.096Z</time>
      </trkpt>
      <trkpt lat="42.92857" lon="0.28994">
        <ele>1209</ele>
        <time>2017-02-09T10:01:28.096Z</time>
      </trkpt>
      <trkpt lat="42.92858" lon="0.28994">
        <ele>1210</ele>
        <time>2017-02-09T10:01:29.096Z</time>
      </trkpt>
      <trkpt lat="42.92859" lon="0.28994">
        <ele>1209</ele>
        <time>2017-02-09T10:01:30.096Z</time>
      </trkpt>
      <trkpt lat="42.9286" lon="0.28993">
        <ele>1209</ele>
        <time>2017-02-09T10:01:31.096Z</time>
      </trkpt>
      <trkpt lat="42.92861" lon="0.28992">
        <ele>1208</ele>
        <time>2017-02-09T10:01:32.096Z</time>
      </trkpt>
      <trkpt lat="42.92862" lon="0.28992">
        <ele>1207</ele>
        <time>2017-02-09T10:01:33.096Z</time>
      </trkpt>
      <trkpt lat="42.92862" lon="0.28992">
        <ele>1207</ele>
        <time>2017-02-09T10:01:34.096Z</time>
      </trkpt>
      <trkpt lat="42.92863" lon="0.28991">
        <ele>1207</ele>
        <time>2017-02-09T10:01:35.096Z</time>
      </trkpt>
      <trkpt lat="42.92864" lon="0.28991">
        <ele>1206</ele>
        <time>2017-02-09T10:01:36.096Z</time>
      </trkpt>
      <trkpt lat="42.92865" lon="0.2899">
        <ele>1206</ele>
        <time>2017-02-09T10:01:37.096Z</time>
      </trkpt>
      <trkpt lat="42.92866" lon="0.2899">
        <ele>1205</ele>
        <time>2017-02-09T10:01:38.096Z</time>
      </trkpt>
      <trkpt lat="42.92867" lon="0.2899">
        <ele>1205</ele>
        <time>2017-02-09T10:01:39.096Z</time>
      </trkpt>
      <trkpt lat="42.92868" lon="0.2899">
        <ele>1205</ele>
        <time>2017-02-09T10:01:40.096Z</time>
      </trkpt>
      <trkpt lat="42.92869" lon="0.28989">
        <ele>1204</ele>
        <time>2017-02-09T10:01:41.096Z</time>
      </trkpt>
      <trkpt lat="42.9287" lon="0.2899">
        <ele>1204</ele>
        <time>2017-02-09T10:01:42.096Z</time>
      </trkpt>
      <trkpt lat="42.92871" lon="0.2899">
        <ele>1203</ele>
        <time>2017-02-09T10:01:43.096Z</time>
      </trkpt>
      <trkpt lat="42.92872" lon="0.2899">
        <ele>1202</ele>
        <time>2017-02-09T10:01:44.096Z</time>
      </trkpt>
      <trkpt lat="42.92872" lon="0.28991">
        <ele>1201</ele>
        <time>2017-02-09T10:01:45.096Z</time>
      </trkpt>
      <trkpt lat="42.92873" lon="0.28992">
        <ele>1200</ele>
        <time>2017-02-09T10:01:46.096Z</time>
      </trkpt>
      <trkpt lat="42.92873" lon="0.28992">
        <ele>1199</ele>
        <time>2017-02-09T10:01:47.096Z</time>
      </trkpt>
      <trkpt lat="42.92873" lon="0.28993">
        <ele>1198</ele>
        <time>2017-02-09T10:01:48.096Z</time>
      </trkpt>
      <trkpt lat="42.92873" lon="0.28993">
        <ele>1197</ele>
        <time>2017-02-09T10:01:49.096Z</time>
      </trkpt>
      <trkpt lat="42.92873" lon="0.28994">
        <ele>1197</ele>
        <time>2017-02-09T10:01:50.096Z</time>
      </trkpt>
      <trkpt lat="42.92873" lon="0.28994">
        <ele>1194</ele>
        <time>2017-02-09T10:01:51.096Z</time>
      </trkpt>
      <trkpt lat="42.92873" lon="0.28995">
        <ele>1191</ele>
        <time>2017-02-09T10:01:52.096Z</time>
      </trkpt>
      <trkpt lat="42.92874" lon="0.28997">
        <ele>1190</ele>
        <time>2017-02-09T10:01:53.096Z</time>
      </trkpt>
      <trkpt lat="42.92874" lon="0.28998">
        <ele>1188</ele>
        <time>2017-02-09T10:01:54.096Z</time>
      </trkpt>
      <trkpt lat="42.92874" lon="0.29">
        <ele>1188</ele>
        <time>2017-02-09T10:01:55.096Z</time>
      </trkpt>
      <trkpt lat="42.92875" lon="0.29">
        <ele>1187</ele>
        <time>2017-02-09T10:01:56.096Z</time>
      </trkpt>
      <trkpt lat="42.92875" lon="0.29001">
        <ele>1187</ele>
        <time>2017-02-09T10:01:57.096Z</time>
      </trkpt>
      <trkpt lat="42.92876" lon="0.29002">
        <ele>1186</ele>
        <time>2017-02-09T10:01:58.096Z</time>
      </trkpt>
      <trkpt lat="42.92877" lon="0.29002">
        <ele>1186</ele>
        <time>2017-02-09T10:01:59.096Z</time>
      </trkpt>
      <trkpt lat="42.92877" lon="0.29003">
        <ele>1185</ele>
        <time>2017-02-09T10:02:00.096Z</time>
      </trkpt>
      <trkpt lat="42.92878" lon="0.29004">
        <ele>1184</ele>
        <time>2017-02-09T10:02:01.096Z</time>
      </trkpt>
      <trkpt lat="42.92879" lon="0.29004">
        <ele>1184</ele>
        <time>2017-02-09T10:02:02.096Z</time>
      </trkpt>
      <trkpt lat="42.9288" lon="0.29005">
        <ele>1184</ele>
        <time>2017-02-09T10:02:03.096Z</time>
      </trkpt>
      <trkpt lat="42.92881" lon="0.29006">
        <ele>1184</ele>
        <time>2017-02-09T10:02:04.096Z</time>
      </trkpt>
      <trkpt lat="42.92881" lon="0.29006">
        <ele>1183</ele>
        <time>2017-02-09T10:02:05.096Z</time>
      </trkpt>
      <trkpt lat="42.92881" lon="0.29007">
        <ele>1183</ele>
        <time>2017-02-09T10:02:06.096Z</time>
      </trkpt>
      <trkpt lat="42.92881" lon="0.29007">
        <ele>1183</ele>
        <time>2017-02-09T10:02:07.096Z</time>
      </trkpt>
      <trkpt lat="42.92881" lon="0.29007">
        <ele>1182</ele>
        <time>2017-02-09T10:02:08.096Z</time>
      </trkpt>
      <trkpt lat="42.92881" lon="0.29007">
        <ele>1182</ele>
        <time>2017-02-09T10:02:09.096Z</time>
      </trkpt>
      <trkpt lat="42.92881" lon="0.29007">
        <ele>1181</ele>
        <time>2017-02-09T10:02:10.096Z</time>
      </trkpt>
      <trkpt lat="42.92882" lon="0.29007">
        <ele>1181</ele>
        <time>2017-02-09T10:02:11.096Z</time>
      </trkpt>
      <trkpt lat="42.92882" lon="0.29007">
        <ele>1181</ele>
        <time>2017-02-09T10:02:12.096Z</time>
      </trkpt>
      <trkpt lat="42.92883" lon="0.29009">
        <ele>1180</ele>
        <time>2017-02-09T10:02:13.100Z</time>
      </trkpt>
      <trkpt lat="42.92883" lon="0.2901">
        <ele>1180</ele>
        <time>2017-02-09T10:02:14.100Z</time>
      </trkpt>
      <trkpt lat="42.92883" lon="0.29011">
        <ele>1180</ele>
        <time>2017-02-09T10:02:15.100Z</time>
      </trkpt>
      <trkpt lat="42.92883" lon="0.29013">
        <ele>1180</ele>
        <time>2017-02-09T10:02:16.100Z</time>
      </trkpt>
      <trkpt lat="42.92883" lon="0.29014">
        <ele>1181</ele>
        <time>2017-02-09T10:02:17.100Z</time>
      </trkpt>
      <trkpt lat="42.92883" lon="0.29015">
        <ele>1181</ele>
        <time>2017-02-09T10:02:18.100Z</time>
      </trkpt>
      <trkpt lat="42.92883" lon="0.29016">
        <ele>1182</ele>
        <time>2017-02-09T10:02:19.100Z</time>
      </trkpt>
      <trkpt lat="42.92883" lon="0.29018">
        <ele>1182</ele>
        <time>2017-02-09T10:02:20.100Z</time>
      </trkpt>
      <trkpt lat="42.92883" lon="0.29019">
        <ele>1182</ele>
        <time>2017-02-09T10:02:21.100Z</time>
      </trkpt>
      <trkpt lat="42.92884" lon="0.2902">
        <ele>1182</ele>
        <time>2017-02-09T10:02:22.100Z</time>
      </trkpt>
      <trkpt lat="42.92884" lon="0.29022">
        <ele>1183</ele>
        <time>2017-02-09T10:02:23.100Z</time>
      </trkpt>
      <trkpt lat="42.92884" lon="0.29023">
        <ele>1184</ele>
        <time>2017-02-09T10:02:24.100Z</time>
      </trkpt>
      <trkpt lat="42.92885" lon="0.29025">
        <ele>1184</ele>
        <time>2017-02-09T10:02:25.100Z</time>
      </trkpt>
      <trkpt lat="42.92885" lon="0.29026">
        <ele>1184</ele>
        <time>2017-02-09T10:02:26.100Z</time>
      </trkpt>
      <trkpt lat="42.92885" lon="0.29027">
        <ele>1184</ele>
        <time>2017-02-09T10:02:27.100Z</time>
      </trkpt>
      <trkpt lat="42.92886" lon="0.29028">
        <ele>1184</ele>
        <time>2017-02-09T10:02:28.100Z</time>
      </trkpt>
      <trkpt lat="42.92886" lon="0.2903">
        <ele>1185</ele>
        <time>2017-02-09T10:02:29.100Z</time>
      </trkpt>
      <trkpt lat="42.92887" lon="0.29031">
        <ele>1185</ele>
        <time>2017-02-09T10:02:30.100Z</time>
      </trkpt>
      <trkpt lat="42.92887" lon="0.29032">
        <ele>1185</ele>
        <time>2017-02-09T10:02:31.100Z</time>
      </trkpt>
      <trkpt lat="42.92887" lon="0.29034">
        <ele>1185</ele>
        <time>2017-02-09T10:02:32.100Z</time>
      </trkpt>
      <trkpt lat="42.92887" lon="0.29035">
        <ele>1184</ele>
        <time>2017-02-09T10:02:33.100Z</time>
      </trkpt>
      <trkpt lat="42.92887" lon="0.29036">
        <ele>1184</ele>
        <time>2017-02-09T10:02:34.100Z</time>
      </trkpt>
      <trkpt lat="42.92887" lon="0.29038">
        <ele>1184</ele>
        <time>2017-02-09T10:02:35.100Z</time>
      </trkpt>
      <trkpt lat="42.92887" lon="0.29039">
        <ele>1184</ele>
        <time>2017-02-09T10:02:36.100Z</time>
      </trkpt>
      <trkpt lat="42.92887" lon="0.2904">
        <ele>1184</ele>
        <time>2017-02-09T10:02:37.100Z</time>
      </trkpt>
      <trkpt lat="42.92887" lon="0.29042">
        <ele>1184</ele>
        <time>2017-02-09T10:02:38.100Z</time>
      </trkpt>
      <trkpt lat="42.92887" lon="0.29043">
        <ele>1184</ele>
        <time>2017-02-09T10:02:39.100Z</time>
      </trkpt>
      <trkpt lat="42.92887" lon="0.29044">
        <ele>1184</ele>
        <time>2017-02-09T10:02:40.100Z</time>
      </trkpt>
      <trkpt lat="42.92887" lon="0.29045">
        <ele>1184</ele>
        <time>2017-02-09T10:02:41.100Z</time>
      </trkpt>
      <trkpt lat="42.92887" lon="0.29047">
        <ele>1184</ele>
        <time>2017-02-09T10:02:42.100Z</time>
      </trkpt>
      <trkpt lat="42.92887" lon="0.29048">
        <ele>1183</ele>
        <time>2017-02-09T10:02:43.100Z</time>
      </trkpt>
      <trkpt lat="42.92888" lon="0.29049">
        <ele>1183</ele>
        <time>2017-02-09T10:02:44.100Z</time>
      </trkpt>
      <trkpt lat="42.92888" lon="0.29051">
        <ele>1183</ele>
        <time>2017-02-09T10:02:45.100Z</time>
      </trkpt>
      <trkpt lat="42.92888" lon="0.29052">
        <ele>1183</ele>
        <time>2017-02-09T10:02:46.100Z</time>
      </trkpt>
      <trkpt lat="42.92889" lon="0.29053">
        <ele>1183</ele>
        <time>2017-02-09T10:02:47.100Z</time>
      </trkpt>
      <trkpt lat="42.92889" lon="0.29054">
        <ele>1183</ele>
        <time>2017-02-09T10:02:48.100Z</time>
      </trkpt>
      <trkpt lat="42.9289" lon="0.29055">
        <ele>1183</ele>
        <time>2017-02-09T10:02:49.100Z</time>
      </trkpt>
      <trkpt lat="42.9289" lon="0.29056">
        <ele>1183</ele>
        <time>2017-02-09T10:02:50.100Z</time>
      </trkpt>
      <trkpt lat="42.92891" lon="0.29057">
        <ele>1183</ele>
        <time>2017-02-09T10:02:51.100Z</time>
      </trkpt>
      <trkpt lat="42.92891" lon="0.29059">
        <ele>1183</ele>
        <time>2017-02-09T10:02:52.100Z</time>
      </trkpt>
      <trkpt lat="42.92892" lon="0.2906">
        <ele>1183</ele>
        <time>2017-02-09T10:02:53.100Z</time>
      </trkpt>
      <trkpt lat="42.92892" lon="0.29061">
        <ele>1183</ele>
        <time>2017-02-09T10:02:54.100Z</time>
      </trkpt>
      <trkpt lat="42.92893" lon="0.29062">
        <ele>1183</ele>
        <time>2017-02-09T10:02:55.100Z</time>
      </trkpt>
      <trkpt lat="42.92894" lon="0.29063">
        <ele>1183</ele>
        <time>2017-02-09T10:02:56.100Z</time>
      </trkpt>
      <trkpt lat="42.92894" lon="0.29064">
        <ele>1183</ele>
        <time>2017-02-09T10:02:57.100Z</time>
      </trkpt>
      <trkpt lat="42.92894" lon="0.29065">
        <ele>1183</ele>
        <time>2017-02-09T10:02:58.100Z</time>
      </trkpt>
      <trkpt lat="42.92895" lon="0.29066">
        <ele>1183</ele>
        <time>2017-02-09T10:02:59.100Z</time>
      </trkpt>
      <trkpt lat="42.92896" lon="0.29067">
        <ele>1183</ele>
        <time>2017-02-09T10:03:00.100Z</time>
      </trkpt>
      <trkpt lat="42.92896" lon="0.29068">
        <ele>1183</ele>
        <time>2017-02-09T10:03:01.100Z</time>
      </trkpt>
      <trkpt lat="42.92897" lon="0.29069">
        <ele>1183</ele>
        <time>2017-02-09T10:03:02.100Z</time>
      </trkpt>
      <trkpt lat="42.92897" lon="0.2907">
        <ele>1183</ele>
        <time>2017-02-09T10:03:03.100Z</time>
      </trkpt>
      <trkpt lat="42.92898" lon="0.29071">
        <ele>1183</ele>
        <time>2017-02-09T10:03:04.100Z</time>
      </trkpt>
      <trkpt lat="42.92898" lon="0.29072">
        <ele>1183</ele>
        <time>2017-02-09T10:03:05.100Z</time>
      </trkpt>
      <trkpt lat="42.92899" lon="0.29073">
        <ele>1183</ele>
        <time>2017-02-09T10:03:06.100Z</time>
      </trkpt>
      <trkpt lat="42.92899" lon="0.29074">
        <ele>1183</ele>
        <time>2017-02-09T10:03:07.100Z</time>
      </trkpt>
      <trkpt lat="42.929" lon="0.29075">
        <ele>1183</ele>
        <time>2017-02-09T10:03:08.100Z</time>
      </trkpt>
      <trkpt lat="42.92901" lon="0.29076">
        <ele>1183</ele>
        <time>2017-02-09T10:03:09.100Z</time>
      </trkpt>
      <trkpt lat="42.92902" lon="0.29077">
        <ele>1182</ele>
        <time>2017-02-09T10:03:10.100Z</time>
      </trkpt>
      <trkpt lat="42.92902" lon="0.29078">
        <ele>1182</ele>
        <time>2017-02-09T10:03:11.100Z</time>
      </trkpt>
      <trkpt lat="42.92903" lon="0.29079">
        <ele>1182</ele>
        <time>2017-02-09T10:03:12.100Z</time>
      </trkpt>
      <trkpt lat="42.92903" lon="0.29081">
        <ele>1183</ele>
        <time>2017-02-09T10:03:13.100Z</time>
      </trkpt>
      <trkpt lat="42.92904" lon="0.29082">
        <ele>1183</ele>
        <time>2017-02-09T10:03:14.100Z</time>
      </trkpt>
      <trkpt lat="42.92904" lon="0.29083">
        <ele>1183</ele>
        <time>2017-02-09T10:03:15.100Z</time>
      </trkpt>
      <trkpt lat="42.92905" lon="0.29084">
        <ele>1183</ele>
        <time>2017-02-09T10:03:16.100Z</time>
      </trkpt>
      <trkpt lat="42.92905" lon="0.29085">
        <ele>1183</ele>
        <time>2017-02-09T10:03:17.100Z</time>
      </trkpt>
      <trkpt lat="42.92906" lon="0.29086">
        <ele>1183</ele>
        <time>2017-02-09T10:03:18.100Z</time>
      </trkpt>
      <trkpt lat="42.92907" lon="0.29086">
        <ele>1183</ele>
        <time>2017-02-09T10:03:19.100Z</time>
      </trkpt>
      <trkpt lat="42.92907" lon="0.29087">
        <ele>1184</ele>
        <time>2017-02-09T10:03:20.100Z</time>
      </trkpt>
      <trkpt lat="42.92908" lon="0.29089">
        <ele>1183</ele>
        <time>2017-02-09T10:03:21.100Z</time>
      </trkpt>
      <trkpt lat="42.92908" lon="0.2909">
        <ele>1184</ele>
        <time>2017-02-09T10:03:22.100Z</time>
      </trkpt>
      <trkpt lat="42.92908" lon="0.29091">
        <ele>1183</ele>
        <time>2017-02-09T10:03:23.100Z</time>
      </trkpt>
      <trkpt lat="42.92908" lon="0.29092">
        <ele>1183</ele>
        <time>2017-02-09T10:03:24.100Z</time>
      </trkpt>
      <trkpt lat="42.92909" lon="0.29093">
        <ele>1183</ele>
        <time>2017-02-09T10:03:25.100Z</time>
      </trkpt>
      <trkpt lat="42.92909" lon="0.29095">
        <ele>1183</ele>
        <time>2017-02-09T10:03:26.100Z</time>
      </trkpt>
      <trkpt lat="42.92909" lon="0.29096">
        <ele>1184</ele>
        <time>2017-02-09T10:03:27.100Z</time>
      </trkpt>
      <trkpt lat="42.9291" lon="0.29097">
        <ele>1184</ele>
        <time>2017-02-09T10:03:28.100Z</time>
      </trkpt>
      <trkpt lat="42.9291" lon="0.29098">
        <ele>1184</ele>
        <time>2017-02-09T10:03:29.100Z</time>
      </trkpt>
      <trkpt lat="42.9291" lon="0.29099">
        <ele>1184</ele>
        <time>2017-02-09T10:03:30.100Z</time>
      </trkpt>
      <trkpt lat="42.92911" lon="0.291">
        <ele>1184</ele>
        <time>2017-02-09T10:03:31.100Z</time>
      </trkpt>
      <trkpt lat="42.92911" lon="0.29101">
        <ele>1184</ele>
        <time>2017-02-09T10:03:32.100Z</time>
      </trkpt>
      <trkpt lat="42.92912" lon="0.29102">
        <ele>1184</ele>
        <time>2017-02-09T10:03:33.100Z</time>
      </trkpt>
      <trkpt lat="42.92912" lon="0.29103">
        <ele>1185</ele>
        <time>2017-02-09T10:03:34.100Z</time>
      </trkpt>
      <trkpt lat="42.92913" lon="0.29104">
        <ele>1185</ele>
        <time>2017-02-09T10:03:35.100Z</time>
      </trkpt>
      <trkpt lat="42.92913" lon="0.29105">
        <ele>1185</ele>
        <time>2017-02-09T10:03:36.100Z</time>
      </trkpt>
      <trkpt lat="42.92914" lon="0.29107">
        <ele>1185</ele>
        <time>2017-02-09T10:03:37.100Z</time>
      </trkpt>
      <trkpt lat="42.92914" lon="0.29108">
        <ele>1185</ele>
        <time>2017-02-09T10:03:38.100Z</time>
      </trkpt>
      <trkpt lat="42.92914" lon="0.29109">
        <ele>1185</ele>
        <time>2017-02-09T10:03:39.100Z</time>
      </trkpt>
      <trkpt lat="42.92915" lon="0.2911">
        <ele>1185</ele>
        <time>2017-02-09T10:03:40.100Z</time>
      </trkpt>
      <trkpt lat="42.92915" lon="0.29111">
        <ele>1185</ele>
        <time>2017-02-09T10:03:41.100Z</time>
      </trkpt>
      <trkpt lat="42.92915" lon="0.29112">
        <ele>1185</ele>
        <time>2017-02-09T10:03:42.100Z</time>
      </trkpt>
      <trkpt lat="42.92916" lon="0.29113">
        <ele>1185</ele>
        <time>2017-02-09T10:03:43.100Z</time>
      </trkpt>
      <trkpt lat="42.92916" lon="0.29114">
        <ele>1186</ele>
        <time>2017-02-09T10:03:44.100Z</time>
      </trkpt>
      <trkpt lat="42.92916" lon="0.29115">
        <ele>1186</ele>
        <time>2017-02-09T10:03:45.100Z</time>
      </trkpt>
      <trkpt lat="42.92917" lon="0.29116">
        <ele>1187</ele>
        <time>2017-02-09T10:03:46.100Z</time>
      </trkpt>
      <trkpt lat="42.92917" lon="0.29117">
        <ele>1187</ele>
        <time>2017-02-09T10:03:47.100Z</time>
      </trkpt>
      <trkpt lat="42.92917" lon="0.29118">
        <ele>1187</ele>
        <time>2017-02-09T10:03:48.100Z</time>
      </trkpt>
      <trkpt lat="42.92918" lon="0.29119">
        <ele>1188</ele>
        <time>2017-02-09T10:03:49.100Z</time>
      </trkpt>
      <trkpt lat="42.92918" lon="0.2912">
        <ele>1188</ele>
        <time>2017-02-09T10:03:50.100Z</time>
      </trkpt>
      <trkpt lat="42.92919" lon="0.29121">
        <ele>1188</ele>
        <time>2017-02-09T10:03:51.100Z</time>
      </trkpt>
      <trkpt lat="42.92919" lon="0.29121">
        <ele>1189</ele>
        <time>2017-02-09T10:03:52.100Z</time>
      </trkpt>
      <trkpt lat="42.9292" lon="0.29121">
        <ele>1189</ele>
        <time>2017-02-09T10:03:53.100Z</time>
      </trkpt>
      <trkpt lat="42.9292" lon="0.29122">
        <ele>1189</ele>
        <time>2017-02-09T10:03:54.100Z</time>
      </trkpt>
      <trkpt lat="42.9292" lon="0.29122">
        <ele>1189</ele>
        <time>2017-02-09T10:03:55.100Z</time>
      </trkpt>
      <trkpt lat="42.9292" lon="0.29122">
        <ele>1189</ele>
        <time>2017-02-09T10:03:56.100Z</time>
      </trkpt>
      <trkpt lat="42.9292" lon="0.29123">
        <ele>1189</ele>
        <time>2017-02-09T10:03:57.100Z</time>
      </trkpt>
      <trkpt lat="42.9292" lon="0.29124">
        <ele>1188</ele>
        <time>2017-02-09T10:03:58.100Z</time>
      </trkpt>
      <trkpt lat="42.92921" lon="0.29125">
        <ele>1188</ele>
        <time>2017-02-09T10:03:59.100Z</time>
      </trkpt>
      <trkpt lat="42.92921" lon="0.29126">
        <ele>1188</ele>
        <time>2017-02-09T10:04:00.100Z</time>
      </trkpt>
      <trkpt lat="42.92921" lon="0.29127">
        <ele>1188</ele>
        <time>2017-02-09T10:04:01.100Z</time>
      </trkpt>
      <trkpt lat="42.92922" lon="0.29128">
        <ele>1188</ele>
        <time>2017-02-09T10:04:02.100Z</time>
      </trkpt>
      <trkpt lat="42.92922" lon="0.29129">
        <ele>1187</ele>
        <time>2017-02-09T10:04:03.100Z</time>
      </trkpt>
      <trkpt lat="42.92922" lon="0.2913">
        <ele>1187</ele>
        <time>2017-02-09T10:04:04.100Z</time>
      </trkpt>
      <trkpt lat="42.92923" lon="0.29131">
        <ele>1188</ele>
        <time>2017-02-09T10:04:05.100Z</time>
      </trkpt>
      <trkpt lat="42.92923" lon="0.29132">
        <ele>1188</ele>
        <time>2017-02-09T10:04:06.100Z</time>
      </trkpt>
      <trkpt lat="42.92923" lon="0.29133">
        <ele>1188</ele>
        <time>2017-02-09T10:04:07.100Z</time>
      </trkpt>
      <trkpt lat="42.92924" lon="0.29134">
        <ele>1188</ele>
        <time>2017-02-09T10:04:08.100Z</time>
      </trkpt>
      <trkpt lat="42.92924" lon="0.29135">
        <ele>1188</ele>
        <time>2017-02-09T10:04:09.100Z</time>
      </trkpt>
      <trkpt lat="42.92925" lon="0.29135">
        <ele>1188</ele>
        <time>2017-02-09T10:04:10.100Z</time>
      </trkpt>
      <trkpt lat="42.92926" lon="0.29136">
        <ele>1188</ele>
        <time>2017-02-09T10:04:11.100Z</time>
      </trkpt>
      <trkpt lat="42.92926" lon="0.29137">
        <ele>1189</ele>
        <time>2017-02-09T10:04:12.100Z</time>
      </trkpt>
      <trkpt lat="42.92927" lon="0.29138">
        <ele>1190</ele>
        <time>2017-02-09T10:04:13.100Z</time>
      </trkpt>
      <trkpt lat="42.92927" lon="0.2914">
        <ele>1189</ele>
        <time>2017-02-09T10:04:14.100Z</time>
      </trkpt>
      <trkpt lat="42.92928" lon="0.29141">
        <ele>1189</ele>
        <time>2017-02-09T10:04:15.100Z</time>
      </trkpt>
      <trkpt lat="42.92928" lon="0.29142">
        <ele>1190</ele>
        <time>2017-02-09T10:04:16.100Z</time>
      </trkpt>
      <trkpt lat="42.92928" lon="0.29143">
        <ele>1190</ele>
        <time>2017-02-09T10:04:17.100Z</time>
      </trkpt>
      <trkpt lat="42.92928" lon="0.29144">
        <ele>1190</ele>
        <time>2017-02-09T10:04:18.100Z</time>
      </trkpt>
      <trkpt lat="42.92928" lon="0.29146">
        <ele>1190</ele>
        <time>2017-02-09T10:04:19.100Z</time>
      </trkpt>
      <trkpt lat="42.92929" lon="0.29147">
        <ele>1190</ele>
        <time>2017-02-09T10:04:20.100Z</time>
      </trkpt>
      <trkpt lat="42.92929" lon="0.29148">
        <ele>1189</ele>
        <time>2017-02-09T10:04:21.100Z</time>
      </trkpt>
      <trkpt lat="42.92929" lon="0.29149">
        <ele>1189</ele>
        <time>2017-02-09T10:04:22.100Z</time>
      </trkpt>
      <trkpt lat="42.92929" lon="0.29149">
        <ele>1189</ele>
        <time>2017-02-09T10:04:23.100Z</time>
      </trkpt>
      <trkpt lat="42.92929" lon="0.2915">
        <ele>1189</ele>
        <time>2017-02-09T10:04:24.100Z</time>
      </trkpt>
      <trkpt lat="42.9293" lon="0.29151">
        <ele>1189</ele>
        <time>2017-02-09T10:04:25.100Z</time>
      </trkpt>
      <trkpt lat="42.9293" lon="0.29152">
        <ele>1189</ele>
        <time>2017-02-09T10:04:26.100Z</time>
      </trkpt>
      <trkpt lat="42.9293" lon="0.29153">
        <ele>1190</ele>
        <time>2017-02-09T10:04:27.100Z</time>
      </trkpt>
      <trkpt lat="42.9293" lon="0.29153">
        <ele>1188</ele>
        <time>2017-02-09T10:04:28.100Z</time>
      </trkpt>
      <trkpt lat="42.92929" lon="0.29155">
        <ele>1185</ele>
        <time>2017-02-09T10:04:29.100Z</time>
      </trkpt>
      <trkpt lat="42.92928" lon="0.29156">
        <ele>1185</ele>
        <time>2017-02-09T10:04:30.100Z</time>
      </trkpt>
      <trkpt lat="42.92927" lon="0.29157">
        <ele>1184</ele>
        <time>2017-02-09T10:04:31.100Z</time>
      </trkpt>
      <trkpt lat="42.92927" lon="0.29158">
        <ele>1184</ele>
        <time>2017-02-09T10:04:32.100Z</time>
      </trkpt>
      <trkpt lat="42.92926" lon="0.29159">
        <ele>1183</ele>
        <time>2017-02-09T10:04:33.100Z</time>
      </trkpt>
      <trkpt lat="42.92925" lon="0.2916">
        <ele>1183</ele>
        <time>2017-02-09T10:04:34.100Z</time>
      </trkpt>
      <trkpt lat="42.92924" lon="0.29161">
        <ele>1183</ele>
        <time>2017-02-09T10:04:35.100Z</time>
      </trkpt>
      <trkpt lat="42.92924" lon="0.29162">
        <ele>1183</ele>
        <time>2017-02-09T10:04:36.100Z</time>
      </trkpt>
      <trkpt lat="42.92923" lon="0.29163">
        <ele>1182</ele>
        <time>2017-02-09T10:04:37.100Z</time>
      </trkpt>
      <trkpt lat="42.92922" lon="0.29163">
        <ele>1182</ele>
        <time>2017-02-09T10:04:38.100Z</time>
      </trkpt>
      <trkpt lat="42.92921" lon="0.29164">
        <ele>1182</ele>
        <time>2017-02-09T10:04:39.100Z</time>
      </trkpt>
      <trkpt lat="42.92921" lon="0.29165">
        <ele>1183</ele>
        <time>2017-02-09T10:04:40.100Z</time>
      </trkpt>
      <trkpt lat="42.9292" lon="0.29165">
        <ele>1183</ele>
        <time>2017-02-09T10:04:41.100Z</time>
      </trkpt>
      <trkpt lat="42.92919" lon="0.29165">
        <ele>1182</ele>
        <time>2017-02-09T10:04:42.100Z</time>
      </trkpt>
      <trkpt lat="42.92919" lon="0.29166">
        <ele>1182</ele>
        <time>2017-02-09T10:04:43.100Z</time>
      </trkpt>
      <trkpt lat="42.92918" lon="0.29166">
        <ele>1182</ele>
        <time>2017-02-09T10:04:44.100Z</time>
      </trkpt>
      <trkpt lat="42.92917" lon="0.29166">
        <ele>1182</ele>
        <time>2017-02-09T10:04:45.100Z</time>
      </trkpt>
      <trkpt lat="42.92916" lon="0.29166">
        <ele>1182</ele>
        <time>2017-02-09T10:04:46.100Z</time>
      </trkpt>
      <trkpt lat="42.92916" lon="0.29167">
        <ele>1181</ele>
        <time>2017-02-09T10:04:47.100Z</time>
      </trkpt>
      <trkpt lat="42.92915" lon="0.29167">
        <ele>1181</ele>
        <time>2017-02-09T10:04:48.100Z</time>
      </trkpt>
      <trkpt lat="42.92914" lon="0.29167">
        <ele>1182</ele>
        <time>2017-02-09T10:04:49.100Z</time>
      </trkpt>
      <trkpt lat="42.92914" lon="0.29168">
        <ele>1182</ele>
        <time>2017-02-09T10:04:50.100Z</time>
      </trkpt>
      <trkpt lat="42.92913" lon="0.29168">
        <ele>1182</ele>
        <time>2017-02-09T10:04:51.100Z</time>
      </trkpt>
      <trkpt lat="42.92912" lon="0.29169">
        <ele>1182</ele>
        <time>2017-02-09T10:04:52.100Z</time>
      </trkpt>
      <trkpt lat="42.92912" lon="0.29169">
        <ele>1182</ele>
        <time>2017-02-09T10:04:53.100Z</time>
      </trkpt>
      <trkpt lat="42.92911" lon="0.29169">
        <ele>1182</ele>
        <time>2017-02-09T10:04:54.100Z</time>
      </trkpt>
      <trkpt lat="42.9291" lon="0.2917">
        <ele>1182</ele>
        <time>2017-02-09T10:04:55.100Z</time>
      </trkpt>
      <trkpt lat="42.9291" lon="0.2917">
        <ele>1182</ele>
        <time>2017-02-09T10:04:56.100Z</time>
      </trkpt>
      <trkpt lat="42.92909" lon="0.29171">
        <ele>1182</ele>
        <time>2017-02-09T10:04:57.100Z</time>
      </trkpt>
      <trkpt lat="42.92909" lon="0.29171">
        <ele>1181</ele>
        <time>2017-02-09T10:04:58.100Z</time>
      </trkpt>
      <trkpt lat="42.92908" lon="0.29172">
        <ele>1181</ele>
        <time>2017-02-09T10:04:59.100Z</time>
      </trkpt>
      <trkpt lat="42.92907" lon="0.29172">
        <ele>1181</ele>
        <time>2017-02-09T10:05:00.100Z</time>
      </trkpt>
      <trkpt lat="42.92906" lon="0.29173">
        <ele>1181</ele>
        <time>2017-02-09T10:05:01.100Z</time>
      </trkpt>
      <trkpt lat="42.92906" lon="0.29173">
        <ele>1181</ele>
        <time>2017-02-09T10:05:02.100Z</time>
      </trkpt>
      <trkpt lat="42.92905" lon="0.29173">
        <ele>1182</ele>
        <time>2017-02-09T10:05:03.100Z</time>
      </trkpt>
      <trkpt lat="42.92905" lon="0.29173">
        <ele>1182</ele>
        <time>2017-02-09T10:05:04.100Z</time>
      </trkpt>
      <trkpt lat="42.92904" lon="0.29173">
        <ele>1182</ele>
        <time>2017-02-09T10:05:05.100Z</time>
      </trkpt>
      <trkpt lat="42.92904" lon="0.29174">
        <ele>1182</ele>
        <time>2017-02-09T10:05:06.100Z</time>
      </trkpt>
      <trkpt lat="42.92903" lon="0.29174">
        <ele>1183</ele>
        <time>2017-02-09T10:05:07.100Z</time>
      </trkpt>
      <trkpt lat="42.92903" lon="0.29175">
        <ele>1183</ele>
        <time>2017-02-09T10:05:08.100Z</time>
      </trkpt>
      <trkpt lat="42.92902" lon="0.29175">
        <ele>1183</ele>
        <time>2017-02-09T10:05:09.100Z</time>
      </trkpt>
      <trkpt lat="42.92902" lon="0.29176">
        <ele>1183</ele>
        <time>2017-02-09T10:05:10.100Z</time>
      </trkpt>
      <trkpt lat="42.92901" lon="0.29176">
        <ele>1183</ele>
        <time>2017-02-09T10:05:11.100Z</time>
      </trkpt>
      <trkpt lat="42.92901" lon="0.29176">
        <ele>1183</ele>
        <time>2017-02-09T10:05:12.100Z</time>
      </trkpt>
      <trkpt lat="42.929" lon="0.29177">
        <ele>1183</ele>
        <time>2017-02-09T10:05:13.100Z</time>
      </trkpt>
      <trkpt lat="42.929" lon="0.29177">
        <ele>1184</ele>
        <time>2017-02-09T10:05:14.100Z</time>
      </trkpt>
      <trkpt lat="42.92899" lon="0.29177">
        <ele>1184</ele>
        <time>2017-02-09T10:05:15.100Z</time>
      </trkpt>
      <trkpt lat="42.92899" lon="0.29178">
        <ele>1185</ele>
        <time>2017-02-09T10:05:16.100Z</time>
      </trkpt>
      <trkpt lat="42.92898" lon="0.29178">
        <ele>1185</ele>
        <time>2017-02-09T10:05:17.100Z</time>
      </trkpt>
      <trkpt lat="42.92898" lon="0.29179">
        <ele>1185</ele>
        <time>2017-02-09T10:05:18.100Z</time>
      </trkpt>
      <trkpt lat="42.92897" lon="0.29179">
        <ele>1186</ele>
        <time>2017-02-09T10:05:19.100Z</time>
      </trkpt>
      <trkpt lat="42.92896" lon="0.29179">
        <ele>1185</ele>
        <time>2017-02-09T10:05:20.100Z</time>
      </trkpt>
      <trkpt lat="42.92896" lon="0.2918">
        <ele>1186</ele>
        <time>2017-02-09T10:05:21.100Z</time>
      </trkpt>
      <trkpt lat="42.92895" lon="0.2918">
        <ele>1187</ele>
        <time>2017-02-09T10:05:22.100Z</time>
      </trkpt>
      <trkpt lat="42.92894" lon="0.29181">
        <ele>1187</ele>
        <time>2017-02-09T10:05:23.100Z</time>
      </trkpt>
      <trkpt lat="42.92894" lon="0.29181">
        <ele>1187</ele>
        <time>2017-02-09T10:05:24.100Z</time>
      </trkpt>
      <trkpt lat="42.92893" lon="0.29181">
        <ele>1187</ele>
        <time>2017-02-09T10:05:25.100Z</time>
      </trkpt>
      <trkpt lat="42.92892" lon="0.29182">
        <ele>1187</ele>
        <time>2017-02-09T10:05:26.100Z</time>
      </trkpt>
      <trkpt lat="42.92891" lon="0.29182">
        <ele>1187</ele>
        <time>2017-02-09T10:05:27.100Z</time>
      </trkpt>
      <trkpt lat="42.92891" lon="0.29182">
        <ele>1188</ele>
        <time>2017-02-09T10:05:28.100Z</time>
      </trkpt>
      <trkpt lat="42.9289" lon="0.29182">
        <ele>1187</ele>
        <time>2017-02-09T10:05:29.100Z</time>
      </trkpt>
      <trkpt lat="42.92889" lon="0.29183">
        <ele>1187</ele>
        <time>2017-02-09T10:05:30.100Z</time>
      </trkpt>
      <trkpt lat="42.92889" lon="0.29183">
        <ele>1186</ele>
        <time>2017-02-09T10:05:31.100Z</time>
      </trkpt>
      <trkpt lat="42.92888" lon="0.29184">
        <ele>1187</ele>
        <time>2017-02-09T10:05:32.100Z</time>
      </trkpt>
      <trkpt lat="42.92887" lon="0.29184">
        <ele>1187</ele>
        <time>2017-02-09T10:05:33.100Z</time>
      </trkpt>
      <trkpt lat="42.92887" lon="0.29184">
        <ele>1187</ele>
        <time>2017-02-09T10:05:34.100Z</time>
      </trkpt>
      <trkpt lat="42.92886" lon="0.29185">
        <ele>1187</ele>
        <time>2017-02-09T10:05:35.100Z</time>
      </trkpt>
      <trkpt lat="42.92886" lon="0.29185">
        <ele>1187</ele>
        <time>2017-02-09T10:05:36.100Z</time>
      </trkpt>
      <trkpt lat="42.92885" lon="0.29185">
        <ele>1187</ele>
        <time>2017-02-09T10:05:37.100Z</time>
      </trkpt>
      <trkpt lat="42.92884" lon="0.29186">
        <ele>1187</ele>
        <time>2017-02-09T10:05:38.100Z</time>
      </trkpt>
      <trkpt lat="42.92884" lon="0.29186">
        <ele>1188</ele>
        <time>2017-02-09T10:05:39.100Z</time>
      </trkpt>
      <trkpt lat="42.92883" lon="0.29186">
        <ele>1188</ele>
        <time>2017-02-09T10:05:40.100Z</time>
      </trkpt>
      <trkpt lat="42.92882" lon="0.29187">
        <ele>1188</ele>
        <time>2017-02-09T10:05:41.100Z</time>
      </trkpt>
      <trkpt lat="42.92882" lon="0.29187">
        <ele>1188</ele>
        <time>2017-02-09T10:05:42.100Z</time>
      </trkpt>
      <trkpt lat="42.92881" lon="0.29187">
        <ele>1188</ele>
        <time>2017-02-09T10:05:43.100Z</time>
      </trkpt>
      <trkpt lat="42.92881" lon="0.29187">
        <ele>1188</ele>
        <time>2017-02-09T10:05:44.100Z</time>
      </trkpt>
      <trkpt lat="42.92881" lon="0.29187">
        <ele>1188</ele>
        <time>2017-02-09T10:05:45.100Z</time>
      </trkpt>
      <trkpt lat="42.92881" lon="0.29187">
        <ele>1189</ele>
        <time>2017-02-09T10:05:46.100Z</time>
      </trkpt>
      <trkpt lat="42.9288" lon="0.29187">
        <ele>1189</ele>
        <time>2017-02-09T10:05:47.100Z</time>
      </trkpt>
      <trkpt lat="42.92879" lon="0.29188">
        <ele>1189</ele>
        <time>2017-02-09T10:05:48.100Z</time>
      </trkpt>
      <trkpt lat="42.92879" lon="0.29188">
        <ele>1189</ele>
        <time>2017-02-09T10:05:49.100Z</time>
      </trkpt>
      <trkpt lat="42.92878" lon="0.29188">
        <ele>1190</ele>
        <time>2017-02-09T10:05:50.100Z</time>
      </trkpt>
      <trkpt lat="42.92878" lon="0.29188">
        <ele>1190</ele>
        <time>2017-02-09T10:05:51.100Z</time>
      </trkpt>
      <trkpt lat="42.92877" lon="0.29188">
        <ele>1188</ele>
        <time>2017-02-09T10:05:52.100Z</time>
      </trkpt>
      <trkpt lat="42.92876" lon="0.29189">
        <ele>1189</ele>
        <time>2017-02-09T10:05:53.100Z</time>
      </trkpt>
      <trkpt lat="42.92876" lon="0.29189">
        <ele>1189</ele>
        <time>2017-02-09T10:05:54.100Z</time>
      </trkpt>
      <trkpt lat="42.92875" lon="0.29189">
        <ele>1189</ele>
        <time>2017-02-09T10:05:55.100Z</time>
      </trkpt>
      <trkpt lat="42.92874" lon="0.2919">
        <ele>1189</ele>
        <time>2017-02-09T10:05:56.100Z</time>
      </trkpt>
      <trkpt lat="42.92874" lon="0.2919">
        <ele>1188</ele>
        <time>2017-02-09T10:05:57.100Z</time>
      </trkpt>
      <trkpt lat="42.92874" lon="0.29191">
        <ele>1188</ele>
        <time>2017-02-09T10:05:58.100Z</time>
      </trkpt>
      <trkpt lat="42.92873" lon="0.29191">
        <ele>1188</ele>
        <time>2017-02-09T10:05:59.100Z</time>
      </trkpt>
      <trkpt lat="42.92873" lon="0.29191">
        <ele>1188</ele>
        <time>2017-02-09T10:06:00.100Z</time>
      </trkpt>
      <trkpt lat="42.92873" lon="0.29191">
        <ele>1188</ele>
        <time>2017-02-09T10:06:01.100Z</time>
      </trkpt>
      <trkpt lat="42.92874" lon="0.29191">
        <ele>1188</ele>
        <time>2017-02-09T10:06:02.100Z</time>
      </trkpt>
      <trkpt lat="42.92874" lon="0.29191">
        <ele>1188</ele>
        <time>2017-02-09T10:06:03.100Z</time>
      </trkpt>
      <trkpt lat="42.92874" lon="0.29191">
        <ele>1189</ele>
        <time>2017-02-09T10:06:04.100Z</time>
      </trkpt>
      <trkpt lat="42.92874" lon="0.29191">
        <ele>1189</ele>
        <time>2017-02-09T10:06:05.100Z</time>
      </trkpt>
      <trkpt lat="42.9287" lon="0.29191">
        <ele>1179</ele>
        <time>2017-02-09T10:06:06.104Z</time>
      </trkpt>
      <trkpt lat="42.92869" lon="0.2919">
        <ele>1179</ele>
        <time>2017-02-09T10:06:07.104Z</time>
      </trkpt>
      <trkpt lat="42.92869" lon="0.2919">
        <ele>1179</ele>
        <time>2017-02-09T10:06:08.104Z</time>
      </trkpt>
      <trkpt lat="42.92868" lon="0.2919">
        <ele>1179</ele>
        <time>2017-02-09T10:06:09.104Z</time>
      </trkpt>
      <trkpt lat="42.92867" lon="0.2919">
        <ele>1180</ele>
        <time>2017-02-09T10:06:10.104Z</time>
      </trkpt>
      <trkpt lat="42.92867" lon="0.2919">
        <ele>1182</ele>
        <time>2017-02-09T10:06:11.104Z</time>
      </trkpt>
      <trkpt lat="42.92866" lon="0.2919">
        <ele>1184</ele>
        <time>2017-02-09T10:06:12.104Z</time>
      </trkpt>
      <trkpt lat="42.92866" lon="0.2919">
        <ele>1185</ele>
        <time>2017-02-09T10:06:13.104Z</time>
      </trkpt>
      <trkpt lat="42.92865" lon="0.2919">
        <ele>1186</ele>
        <time>2017-02-09T10:06:14.104Z</time>
      </trkpt>
      <trkpt lat="42.92864" lon="0.2919">
        <ele>1186</ele>
        <time>2017-02-09T10:06:15.104Z</time>
      </trkpt>
      <trkpt lat="42.92864" lon="0.2919">
        <ele>1188</ele>
        <time>2017-02-09T10:06:16.104Z</time>
      </trkpt>
      <trkpt lat="42.92863" lon="0.2919">
        <ele>1188</ele>
        <time>2017-02-09T10:06:17.104Z</time>
      </trkpt>
      <trkpt lat="42.92862" lon="0.2919">
        <ele>1188</ele>
        <time>2017-02-09T10:06:18.104Z</time>
      </trkpt>
      <trkpt lat="42.92862" lon="0.2919">
        <ele>1189</ele>
        <time>2017-02-09T10:06:19.104Z</time>
      </trkpt>
      <trkpt lat="42.92861" lon="0.2919">
        <ele>1190</ele>
        <time>2017-02-09T10:06:20.104Z</time>
      </trkpt>
      <trkpt lat="42.9286" lon="0.2919">
        <ele>1190</ele>
        <time>2017-02-09T10:06:21.104Z</time>
      </trkpt>
      <trkpt lat="42.9286" lon="0.2919">
        <ele>1190</ele>
        <time>2017-02-09T10:06:22.104Z</time>
      </trkpt>
      <trkpt lat="42.92859" lon="0.2919">
        <ele>1190</ele>
        <time>2017-02-09T10:06:23.104Z</time>
      </trkpt>
      <trkpt lat="42.92859" lon="0.2919">
        <ele>1191</ele>
        <time>2017-02-09T10:06:24.104Z</time>
      </trkpt>
      <trkpt lat="42.92858" lon="0.2919">
        <ele>1191</ele>
        <time>2017-02-09T10:06:25.104Z</time>
      </trkpt>
      <trkpt lat="42.92858" lon="0.2919">
        <ele>1192</ele>
        <time>2017-02-09T10:06:26.104Z</time>
      </trkpt>
      <trkpt lat="42.92857" lon="0.2919">
        <ele>1191</ele>
        <time>2017-02-09T10:06:27.104Z</time>
      </trkpt>
      <trkpt lat="42.92856" lon="0.29189">
        <ele>1192</ele>
        <time>2017-02-09T10:06:28.104Z</time>
      </trkpt>
      <trkpt lat="42.92856" lon="0.29189">
        <ele>1192</ele>
        <time>2017-02-09T10:06:29.104Z</time>
      </trkpt>
      <trkpt lat="42.92855" lon="0.29189">
        <ele>1193</ele>
        <time>2017-02-09T10:06:30.104Z</time>
      </trkpt>
      <trkpt lat="42.92855" lon="0.29188">
        <ele>1193</ele>
        <time>2017-02-09T10:06:31.104Z</time>
      </trkpt>
      <trkpt lat="42.92854" lon="0.29188">
        <ele>1193</ele>
        <time>2017-02-09T10:06:32.104Z</time>
      </trkpt>
      <trkpt lat="42.92854" lon="0.29187">
        <ele>1193</ele>
        <time>2017-02-09T10:06:33.104Z</time>
      </trkpt>
      <trkpt lat="42.92853" lon="0.29187">
        <ele>1193</ele>
        <time>2017-02-09T10:06:34.104Z</time>
      </trkpt>
      <trkpt lat="42.92853" lon="0.29186">
        <ele>1194</ele>
        <time>2017-02-09T10:06:35.104Z</time>
      </trkpt>
      <trkpt lat="42.92852" lon="0.29185">
        <ele>1194</ele>
        <time>2017-02-09T10:06:36.104Z</time>
      </trkpt>
      <trkpt lat="42.92852" lon="0.29185">
        <ele>1194</ele>
        <time>2017-02-09T10:06:37.104Z</time>
      </trkpt>
      <trkpt lat="42.92851" lon="0.29184">
        <ele>1195</ele>
        <time>2017-02-09T10:06:38.104Z</time>
      </trkpt>
      <trkpt lat="42.92851" lon="0.29184">
        <ele>1194</ele>
        <time>2017-02-09T10:06:39.104Z</time>
      </trkpt>
      <trkpt lat="42.92851" lon="0.29184">
        <ele>1194</ele>
        <time>2017-02-09T10:06:40.104Z</time>
      </trkpt>
      <trkpt lat="42.9285" lon="0.29183">
        <ele>1194</ele>
        <time>2017-02-09T10:06:41.104Z</time>
      </trkpt>
      <trkpt lat="42.9285" lon="0.29183">
        <ele>1195</ele>
        <time>2017-02-09T10:06:42.104Z</time>
      </trkpt>
      <trkpt lat="42.92849" lon="0.29182">
        <ele>1195</ele>
        <time>2017-02-09T10:06:43.104Z</time>
      </trkpt>
      <trkpt lat="42.92848" lon="0.29182">
        <ele>1195</ele>
        <time>2017-02-09T10:06:44.104Z</time>
      </trkpt>
      <trkpt lat="42.92848" lon="0.29181">
        <ele>1194</ele>
        <time>2017-02-09T10:06:45.104Z</time>
      </trkpt>
      <trkpt lat="42.92847" lon="0.29181">
        <ele>1194</ele>
        <time>2017-02-09T10:06:46.104Z</time>
      </trkpt>
      <trkpt lat="42.92847" lon="0.2918">
        <ele>1193</ele>
        <time>2017-02-09T10:06:47.104Z</time>
      </trkpt>
      <trkpt lat="42.92846" lon="0.2918">
        <ele>1193</ele>
        <time>2017-02-09T10:06:48.104Z</time>
      </trkpt>
      <trkpt lat="42.92846" lon="0.29179">
        <ele>1193</ele>
        <time>2017-02-09T10:06:49.104Z</time>
      </trkpt>
      <trkpt lat="42.92846" lon="0.29178">
        <ele>1193</ele>
        <time>2017-02-09T10:06:50.104Z</time>
      </trkpt>
      <trkpt lat="42.92845" lon="0.29178">
        <ele>1193</ele>
        <time>2017-02-09T10:06:51.104Z</time>
      </trkpt>
      <trkpt lat="42.92845" lon="0.29177">
        <ele>1193</ele>
        <time>2017-02-09T10:06:52.104Z</time>
      </trkpt>
      <trkpt lat="42.92844" lon="0.29176">
        <ele>1193</ele>
        <time>2017-02-09T10:06:53.104Z</time>
      </trkpt>
      <trkpt lat="42.92843" lon="0.29176">
        <ele>1193</ele>
        <time>2017-02-09T10:06:54.104Z</time>
      </trkpt>
      <trkpt lat="42.92843" lon="0.29175">
        <ele>1193</ele>
        <time>2017-02-09T10:06:55.104Z</time>
      </trkpt>
      <trkpt lat="42.92842" lon="0.29174">
        <ele>1193</ele>
        <time>2017-02-09T10:06:56.104Z</time>
      </trkpt>
      <trkpt lat="42.92842" lon="0.29174">
        <ele>1192</ele>
        <time>2017-02-09T10:06:57.104Z</time>
      </trkpt>
      <trkpt lat="42.92841" lon="0.29173">
        <ele>1192</ele>
        <time>2017-02-09T10:06:58.104Z</time>
      </trkpt>
      <trkpt lat="42.92841" lon="0.29172">
        <ele>1192</ele>
        <time>2017-02-09T10:06:59.104Z</time>
      </trkpt>
      <trkpt lat="42.9284" lon="0.29172">
        <ele>1192</ele>
        <time>2017-02-09T10:07:00.104Z</time>
      </trkpt>
      <trkpt lat="42.92839" lon="0.29171">
        <ele>1192</ele>
        <time>2017-02-09T10:07:01.104Z</time>
      </trkpt>
      <trkpt lat="42.92839" lon="0.29171">
        <ele>1192</ele>
        <time>2017-02-09T10:07:02.104Z</time>
      </trkpt>
      <trkpt lat="42.92838" lon="0.29171">
        <ele>1191</ele>
        <time>2017-02-09T10:07:03.104Z</time>
      </trkpt>
      <trkpt lat="42.92838" lon="0.2917">
        <ele>1191</ele>
        <time>2017-02-09T10:07:04.104Z</time>
      </trkpt>
      <trkpt lat="42.92837" lon="0.2917">
        <ele>1191</ele>
        <time>2017-02-09T10:07:05.104Z</time>
      </trkpt>
      <trkpt lat="42.92837" lon="0.29169">
        <ele>1191</ele>
        <time>2017-02-09T10:07:06.104Z</time>
      </trkpt>
      <trkpt lat="42.92836" lon="0.29169">
        <ele>1191</ele>
        <time>2017-02-09T10:07:07.104Z</time>
      </trkpt>
      <trkpt lat="42.92836" lon="0.29168">
        <ele>1191</ele>
        <time>2017-02-09T10:07:08.104Z</time>
      </trkpt>
      <trkpt lat="42.92835" lon="0.29168">
        <ele>1191</ele>
        <time>2017-02-09T10:07:09.104Z</time>
      </trkpt>
      <trkpt lat="42.92835" lon="0.29168">
        <ele>1191</ele>
        <time>2017-02-09T10:07:10.104Z</time>
      </trkpt>
      <trkpt lat="42.92834" lon="0.29167">
        <ele>1190</ele>
        <time>2017-02-09T10:07:11.104Z</time>
      </trkpt>
      <trkpt lat="42.92834" lon="0.29167">
        <ele>1190</ele>
        <time>2017-02-09T10:07:12.104Z</time>
      </trkpt>
      <trkpt lat="42.92833" lon="0.29167">
        <ele>1190</ele>
        <time>2017-02-09T10:07:13.104Z</time>
      </trkpt>
      <trkpt lat="42.92833" lon="0.29166">
        <ele>1190</ele>
        <time>2017-02-09T10:07:14.104Z</time>
      </trkpt>
      <trkpt lat="42.92832" lon="0.29166">
        <ele>1190</ele>
        <time>2017-02-09T10:07:15.104Z</time>
      </trkpt>
      <trkpt lat="42.92832" lon="0.29166">
        <ele>1190</ele>
        <time>2017-02-09T10:07:16.104Z</time>
      </trkpt>
      <trkpt lat="42.92831" lon="0.29165">
        <ele>1190</ele>
        <time>2017-02-09T10:07:17.104Z</time>
      </trkpt>
      <trkpt lat="42.9283" lon="0.29165">
        <ele>1191</ele>
        <time>2017-02-09T10:07:18.104Z</time>
      </trkpt>
      <trkpt lat="42.9283" lon="0.29164">
        <ele>1192</ele>
        <time>2017-02-09T10:07:19.104Z</time>
      </trkpt>
      <trkpt lat="42.92829" lon="0.29164">
        <ele>1191</ele>
        <time>2017-02-09T10:07:20.104Z</time>
      </trkpt>
      <trkpt lat="42.92829" lon="0.29163">
        <ele>1191</ele>
        <time>2017-02-09T10:07:21.104Z</time>
      </trkpt>
      <trkpt lat="42.92828" lon="0.29163">
        <ele>1191</ele>
        <time>2017-02-09T10:07:22.104Z</time>
      </trkpt>
      <trkpt lat="42.92828" lon="0.29163">
        <ele>1191</ele>
        <time>2017-02-09T10:07:23.104Z</time>
      </trkpt>
      <trkpt lat="42.92827" lon="0.29162">
        <ele>1192</ele>
        <time>2017-02-09T10:07:24.104Z</time>
      </trkpt>
      <trkpt lat="42.92826" lon="0.29162">
        <ele>1192</ele>
        <time>2017-02-09T10:07:25.104Z</time>
      </trkpt>
      <trkpt lat="42.92826" lon="0.29162">
        <ele>1192</ele>
        <time>2017-02-09T10:07:26.104Z</time>
      </trkpt>
      <trkpt lat="42.92825" lon="0.29161">
        <ele>1192</ele>
        <time>2017-02-09T10:07:27.104Z</time>
      </trkpt>
      <trkpt lat="42.92825" lon="0.29161">
        <ele>1192</ele>
        <time>2017-02-09T10:07:28.104Z</time>
      </trkpt>
      <trkpt lat="42.92824" lon="0.2916">
        <ele>1192</ele>
        <time>2017-02-09T10:07:29.104Z</time>
      </trkpt>
      <trkpt lat="42.92824" lon="0.2916">
        <ele>1192</ele>
        <time>2017-02-09T10:07:30.104Z</time>
      </trkpt>
      <trkpt lat="42.92823" lon="0.2916">
        <ele>1193</ele>
        <time>2017-02-09T10:07:31.104Z</time>
      </trkpt>
      <trkpt lat="42.92822" lon="0.29159">
        <ele>1193</ele>
        <time>2017-02-09T10:07:32.104Z</time>
      </trkpt>
      <trkpt lat="42.92822" lon="0.29159">
        <ele>1194</ele>
        <time>2017-02-09T10:07:33.104Z</time>
      </trkpt>
      <trkpt lat="42.92821" lon="0.29159">
        <ele>1194</ele>
        <time>2017-02-09T10:07:34.104Z</time>
      </trkpt>
      <trkpt lat="42.92821" lon="0.29159">
        <ele>1194</ele>
        <time>2017-02-09T10:07:35.104Z</time>
      </trkpt>
      <trkpt lat="42.9282" lon="0.29158">
        <ele>1194</ele>
        <time>2017-02-09T10:07:36.104Z</time>
      </trkpt>
      <trkpt lat="42.9282" lon="0.29158">
        <ele>1194</ele>
        <time>2017-02-09T10:07:37.104Z</time>
      </trkpt>
      <trkpt lat="42.92819" lon="0.29158">
        <ele>1193</ele>
        <time>2017-02-09T10:07:38.104Z</time>
      </trkpt>
      <trkpt lat="42.92819" lon="0.29157">
        <ele>1194</ele>
        <time>2017-02-09T10:07:39.104Z</time>
      </trkpt>
      <trkpt lat="42.92818" lon="0.29157">
        <ele>1193</ele>
        <time>2017-02-09T10:07:40.104Z</time>
      </trkpt>
      <trkpt lat="42.92818" lon="0.29157">
        <ele>1194</ele>
        <time>2017-02-09T10:07:41.104Z</time>
      </trkpt>
      <trkpt lat="42.92817" lon="0.29156">
        <ele>1194</ele>
        <time>2017-02-09T10:07:42.104Z</time>
      </trkpt>
      <trkpt lat="42.92817" lon="0.29156">
        <ele>1194</ele>
        <time>2017-02-09T10:07:43.104Z</time>
      </trkpt>
      <trkpt lat="42.92816" lon="0.29156">
        <ele>1194</ele>
        <time>2017-02-09T10:07:44.104Z</time>
      </trkpt>
      <trkpt lat="42.92816" lon="0.29156">
        <ele>1194</ele>
        <time>2017-02-09T10:07:45.104Z</time>
      </trkpt>
      <trkpt lat="42.92815" lon="0.29156">
        <ele>1194</ele>
        <time>2017-02-09T10:07:46.104Z</time>
      </trkpt>
      <trkpt lat="42.92815" lon="0.29155">
        <ele>1195</ele>
        <time>2017-02-09T10:07:47.104Z</time>
      </trkpt>
      <trkpt lat="42.92814" lon="0.29155">
        <ele>1194</ele>
        <time>2017-02-09T10:07:48.104Z</time>
      </trkpt>
      <trkpt lat="42.92814" lon="0.29155">
        <ele>1195</ele>
        <time>2017-02-09T10:07:49.104Z</time>
      </trkpt>
      <trkpt lat="42.92813" lon="0.29155">
        <ele>1195</ele>
        <time>2017-02-09T10:07:50.104Z</time>
      </trkpt>
      <trkpt lat="42.92813" lon="0.29154">
        <ele>1195</ele>
        <time>2017-02-09T10:07:51.104Z</time>
      </trkpt>
      <trkpt lat="42.92812" lon="0.29154">
        <ele>1195</ele>
        <time>2017-02-09T10:07:52.104Z</time>
      </trkpt>
      <trkpt lat="42.92812" lon="0.29154">
        <ele>1195</ele>
        <time>2017-02-09T10:07:53.104Z</time>
      </trkpt>
      <trkpt lat="42.92811" lon="0.29154">
        <ele>1195</ele>
        <time>2017-02-09T10:07:54.104Z</time>
      </trkpt>
      <trkpt lat="42.92811" lon="0.29153">
        <ele>1194</ele>
        <time>2017-02-09T10:07:55.104Z</time>
      </trkpt>
      <trkpt lat="42.9281" lon="0.29153">
        <ele>1195</ele>
        <time>2017-02-09T10:07:56.104Z</time>
      </trkpt>
      <trkpt lat="42.9281" lon="0.29152">
        <ele>1194</ele>
        <time>2017-02-09T10:07:57.104Z</time>
      </trkpt>
      <trkpt lat="42.92809" lon="0.29152">
        <ele>1194</ele>
        <time>2017-02-09T10:07:58.104Z</time>
      </trkpt>
      <trkpt lat="42.92808" lon="0.29151">
        <ele>1194</ele>
        <time>2017-02-09T10:07:59.104Z</time>
      </trkpt>
      <trkpt lat="42.92808" lon="0.29151">
        <ele>1194</ele>
        <time>2017-02-09T10:08:00.104Z</time>
      </trkpt>
      <trkpt lat="42.92807" lon="0.29151">
        <ele>1193</ele>
        <time>2017-02-09T10:08:01.104Z</time>
      </trkpt>
      <trkpt lat="42.92806" lon="0.2915">
        <ele>1194</ele>
        <time>2017-02-09T10:08:02.104Z</time>
      </trkpt>
      <trkpt lat="42.92805" lon="0.2915">
        <ele>1194</ele>
        <time>2017-02-09T10:08:03.104Z</time>
      </trkpt>
      <trkpt lat="42.92805" lon="0.2915">
        <ele>1194</ele>
        <time>2017-02-09T10:08:04.104Z</time>
      </trkpt>
      <trkpt lat="42.92804" lon="0.2915">
        <ele>1194</ele>
        <time>2017-02-09T10:08:05.104Z</time>
      </trkpt>
      <trkpt lat="42.92803" lon="0.2915">
        <ele>1194</ele>
        <time>2017-02-09T10:08:06.104Z</time>
      </trkpt>
      <trkpt lat="42.92803" lon="0.2915">
        <ele>1194</ele>
        <time>2017-02-09T10:08:07.104Z</time>
      </trkpt>
      <trkpt lat="42.92802" lon="0.2915">
        <ele>1194</ele>
        <time>2017-02-09T10:08:08.104Z</time>
      </trkpt>
      <trkpt lat="42.92801" lon="0.2915">
        <ele>1193</ele>
        <time>2017-02-09T10:08:09.104Z</time>
      </trkpt>
      <trkpt lat="42.92801" lon="0.2915">
        <ele>1194</ele>
        <time>2017-02-09T10:08:10.104Z</time>
      </trkpt>
      <trkpt lat="42.928" lon="0.2915">
        <ele>1194</ele>
        <time>2017-02-09T10:08:11.104Z</time>
      </trkpt>
      <trkpt lat="42.92799" lon="0.2915">
        <ele>1195</ele>
        <time>2017-02-09T10:08:12.104Z</time>
      </trkpt>
      <trkpt lat="42.92799" lon="0.2915">
        <ele>1195</ele>
        <time>2017-02-09T10:08:13.104Z</time>
      </trkpt>
      <trkpt lat="42.92798" lon="0.2915">
        <ele>1196</ele>
        <time>2017-02-09T10:08:14.104Z</time>
      </trkpt>
      <trkpt lat="42.92798" lon="0.2915">
        <ele>1196</ele>
        <time>2017-02-09T10:08:15.104Z</time>
      </trkpt>
      <trkpt lat="42.92797" lon="0.2915">
        <ele>1197</ele>
        <time>2017-02-09T10:08:16.104Z</time>
      </trkpt>
      <trkpt lat="42.92797" lon="0.2915">
        <ele>1198</ele>
        <time>2017-02-09T10:08:17.104Z</time>
      </trkpt>
      <trkpt lat="42.92797" lon="0.2915">
        <ele>1198</ele>
        <time>2017-02-09T10:08:18.104Z</time>
      </trkpt>
      <trkpt lat="42.92796" lon="0.2915">
        <ele>1199</ele>
        <time>2017-02-09T10:08:19.104Z</time>
      </trkpt>
      <trkpt lat="42.92796" lon="0.29149">
        <ele>1199</ele>
        <time>2017-02-09T10:08:20.104Z</time>
      </trkpt>
      <trkpt lat="42.92796" lon="0.29149">
        <ele>1200</ele>
        <time>2017-02-09T10:08:21.104Z</time>
      </trkpt>
      <trkpt lat="42.92795" lon="0.29149">
        <ele>1200</ele>
        <time>2017-02-09T10:08:22.104Z</time>
      </trkpt>
      <trkpt lat="42.92795" lon="0.29149">
        <ele>1200</ele>
        <time>2017-02-09T10:08:23.104Z</time>
      </trkpt>
      <trkpt lat="42.92794" lon="0.2915">
        <ele>1200</ele>
        <time>2017-02-09T10:08:24.104Z</time>
      </trkpt>
      <trkpt lat="42.92794" lon="0.2915">
        <ele>1199</ele>
        <time>2017-02-09T10:08:25.104Z</time>
      </trkpt>
      <trkpt lat="42.92793" lon="0.2915">
        <ele>1198</ele>
        <time>2017-02-09T10:08:26.104Z</time>
      </trkpt>
      <trkpt lat="42.92792" lon="0.2915">
        <ele>1198</ele>
        <time>2017-02-09T10:08:27.104Z</time>
      </trkpt>
      <trkpt lat="42.92792" lon="0.2915">
        <ele>1198</ele>
        <time>2017-02-09T10:08:28.104Z</time>
      </trkpt>
      <trkpt lat="42.92791" lon="0.29149">
        <ele>1198</ele>
        <time>2017-02-09T10:08:29.104Z</time>
      </trkpt>
      <trkpt lat="42.92791" lon="0.29149">
        <ele>1199</ele>
        <time>2017-02-09T10:08:30.104Z</time>
      </trkpt>
      <trkpt lat="42.9279" lon="0.29149">
        <ele>1199</ele>
        <time>2017-02-09T10:08:31.104Z</time>
      </trkpt>
      <trkpt lat="42.9279" lon="0.29148">
        <ele>1199</ele>
        <time>2017-02-09T10:08:32.104Z</time>
      </trkpt>
      <trkpt lat="42.92789" lon="0.29148">
        <ele>1199</ele>
        <time>2017-02-09T10:08:33.104Z</time>
      </trkpt>
      <trkpt lat="42.92789" lon="0.29148">
        <ele>1199</ele>
        <time>2017-02-09T10:08:34.104Z</time>
      </trkpt>
      <trkpt lat="42.92788" lon="0.29148">
        <ele>1199</ele>
        <time>2017-02-09T10:08:35.104Z</time>
      </trkpt>
      <trkpt lat="42.92788" lon="0.29147">
        <ele>1198</ele>
        <time>2017-02-09T10:08:36.104Z</time>
      </trkpt>
      <trkpt lat="42.92787" lon="0.29147">
        <ele>1198</ele>
        <time>2017-02-09T10:08:37.104Z</time>
      </trkpt>
      <trkpt lat="42.92786" lon="0.29147">
        <ele>1199</ele>
        <time>2017-02-09T10:08:38.104Z</time>
      </trkpt>
      <trkpt lat="42.92786" lon="0.29146">
        <ele>1200</ele>
        <time>2017-02-09T10:08:39.104Z</time>
      </trkpt>
      <trkpt lat="42.92786" lon="0.29146">
        <ele>1200</ele>
        <time>2017-02-09T10:08:40.104Z</time>
      </trkpt>
      <trkpt lat="42.92785" lon="0.29146">
        <ele>1200</ele>
        <time>2017-02-09T10:08:41.104Z</time>
      </trkpt>
      <trkpt lat="42.92785" lon="0.29145">
        <ele>1200</ele>
        <time>2017-02-09T10:08:42.104Z</time>
      </trkpt>
      <trkpt lat="42.92784" lon="0.29145">
        <ele>1200</ele>
        <time>2017-02-09T10:08:43.104Z</time>
      </trkpt>
      <trkpt lat="42.92784" lon="0.29145">
        <ele>1199</ele>
        <time>2017-02-09T10:08:44.104Z</time>
      </trkpt>
      <trkpt lat="42.92783" lon="0.29145">
        <ele>1198</ele>
        <time>2017-02-09T10:08:45.104Z</time>
      </trkpt>
      <trkpt lat="42.92782" lon="0.29145">
        <ele>1198</ele>
        <time>2017-02-09T10:08:46.104Z</time>
      </trkpt>
      <trkpt lat="42.92782" lon="0.29145">
        <ele>1197</ele>
        <time>2017-02-09T10:08:47.104Z</time>
      </trkpt>
      <trkpt lat="42.92781" lon="0.29145">
        <ele>1197</ele>
        <time>2017-02-09T10:08:48.104Z</time>
      </trkpt>
      <trkpt lat="42.9278" lon="0.29145">
        <ele>1197</ele>
        <time>2017-02-09T10:08:49.104Z</time>
      </trkpt>
      <trkpt lat="42.9278" lon="0.29144">
        <ele>1197</ele>
        <time>2017-02-09T10:08:50.104Z</time>
      </trkpt>
      <trkpt lat="42.92779" lon="0.29144">
        <ele>1198</ele>
        <time>2017-02-09T10:08:51.104Z</time>
      </trkpt>
      <trkpt lat="42.92779" lon="0.29144">
        <ele>1198</ele>
        <time>2017-02-09T10:08:52.104Z</time>
      </trkpt>
      <trkpt lat="42.92778" lon="0.29144">
        <ele>1199</ele>
        <time>2017-02-09T10:08:53.104Z</time>
      </trkpt>
      <trkpt lat="42.92777" lon="0.29144">
        <ele>1199</ele>
        <time>2017-02-09T10:08:54.104Z</time>
      </trkpt>
      <trkpt lat="42.92777" lon="0.29144">
        <ele>1200</ele>
        <time>2017-02-09T10:08:55.104Z</time>
      </trkpt>
      <trkpt lat="42.92776" lon="0.29143">
        <ele>1200</ele>
        <time>2017-02-09T10:08:56.104Z</time>
      </trkpt>
      <trkpt lat="42.92775" lon="0.29143">
        <ele>1200</ele>
        <time>2017-02-09T10:08:57.104Z</time>
      </trkpt>
      <trkpt lat="42.92775" lon="0.29143">
        <ele>1200</ele>
        <time>2017-02-09T10:08:58.104Z</time>
      </trkpt>
      <trkpt lat="42.92774" lon="0.29143">
        <ele>1201</ele>
        <time>2017-02-09T10:08:59.104Z</time>
      </trkpt>
      <trkpt lat="42.92774" lon="0.29143">
        <ele>1201</ele>
        <time>2017-02-09T10:09:00.104Z</time>
      </trkpt>
      <trkpt lat="42.92773" lon="0.29143">
        <ele>1201</ele>
        <time>2017-02-09T10:09:01.104Z</time>
      </trkpt>
      <trkpt lat="42.92772" lon="0.29143">
        <ele>1201</ele>
        <time>2017-02-09T10:09:02.104Z</time>
      </trkpt>
      <trkpt lat="42.92772" lon="0.29143">
        <ele>1201</ele>
        <time>2017-02-09T10:09:03.104Z</time>
      </trkpt>
      <trkpt lat="42.92771" lon="0.29143">
        <ele>1201</ele>
        <time>2017-02-09T10:09:04.104Z</time>
      </trkpt>
      <trkpt lat="42.92771" lon="0.29143">
        <ele>1201</ele>
        <time>2017-02-09T10:09:05.104Z</time>
      </trkpt>
      <trkpt lat="42.9277" lon="0.29143">
        <ele>1201</ele>
        <time>2017-02-09T10:09:06.104Z</time>
      </trkpt>
      <trkpt lat="42.92769" lon="0.29142">
        <ele>1201</ele>
        <time>2017-02-09T10:09:07.104Z</time>
      </trkpt>
      <trkpt lat="42.92769" lon="0.29142">
        <ele>1201</ele>
        <time>2017-02-09T10:09:08.104Z</time>
      </trkpt>
      <trkpt lat="42.92768" lon="0.29142">
        <ele>1201</ele>
        <time>2017-02-09T10:09:09.104Z</time>
      </trkpt>
      <trkpt lat="42.92768" lon="0.29141">
        <ele>1201</ele>
        <time>2017-02-09T10:09:10.104Z</time>
      </trkpt>
      <trkpt lat="42.92767" lon="0.29141">
        <ele>1200</ele>
        <time>2017-02-09T10:09:11.104Z</time>
      </trkpt>
      <trkpt lat="42.92767" lon="0.2914">
        <ele>1201</ele>
        <time>2017-02-09T10:09:12.104Z</time>
      </trkpt>
      <trkpt lat="42.92766" lon="0.29139">
        <ele>1201</ele>
        <time>2017-02-09T10:09:13.104Z</time>
      </trkpt>
      <trkpt lat="42.92766" lon="0.29139">
        <ele>1200</ele>
        <time>2017-02-09T10:09:14.104Z</time>
      </trkpt>
      <trkpt lat="42.92765" lon="0.29139">
        <ele>1200</ele>
        <time>2017-02-09T10:09:15.104Z</time>
      </trkpt>
      <trkpt lat="42.92765" lon="0.29139">
        <ele>1200</ele>
        <time>2017-02-09T10:09:16.104Z</time>
      </trkpt>
      <trkpt lat="42.92764" lon="0.29139">
        <ele>1200</ele>
        <time>2017-02-09T10:09:17.104Z</time>
      </trkpt>
      <trkpt lat="42.92764" lon="0.29138">
        <ele>1200</ele>
        <time>2017-02-09T10:09:18.104Z</time>
      </trkpt>
      <trkpt lat="42.92763" lon="0.29138">
        <ele>1199</ele>
        <time>2017-02-09T10:09:19.104Z</time>
      </trkpt>
      <trkpt lat="42.92763" lon="0.29138">
        <ele>1199</ele>
        <time>2017-02-09T10:09:20.104Z</time>
      </trkpt>
      <trkpt lat="42.92762" lon="0.29137">
        <ele>1199</ele>
        <time>2017-02-09T10:09:21.104Z</time>
      </trkpt>
      <trkpt lat="42.92762" lon="0.29136">
        <ele>1199</ele>
        <time>2017-02-09T10:09:22.104Z</time>
      </trkpt>
      <trkpt lat="42.92762" lon="0.29136">
        <ele>1199</ele>
        <time>2017-02-09T10:09:23.104Z</time>
      </trkpt>
      <trkpt lat="42.92761" lon="0.29136">
        <ele>1199</ele>
        <time>2017-02-09T10:09:24.104Z</time>
      </trkpt>
      <trkpt lat="42.92761" lon="0.29136">
        <ele>1199</ele>
        <time>2017-02-09T10:09:25.104Z</time>
      </trkpt>
      <trkpt lat="42.9276" lon="0.29136">
        <ele>1198</ele>
        <time>2017-02-09T10:09:26.104Z</time>
      </trkpt>
      <trkpt lat="42.92759" lon="0.29136">
        <ele>1199</ele>
        <time>2017-02-09T10:09:27.104Z</time>
      </trkpt>
      <trkpt lat="42.92759" lon="0.29136">
        <ele>1199</ele>
        <time>2017-02-09T10:09:28.104Z</time>
      </trkpt>
      <trkpt lat="42.92759" lon="0.29135">
        <ele>1198</ele>
        <time>2017-02-09T10:09:29.104Z</time>
      </trkpt>
      <trkpt lat="42.92758" lon="0.29135">
        <ele>1198</ele>
        <time>2017-02-09T10:09:30.104Z</time>
      </trkpt>
      <trkpt lat="42.92758" lon="0.29135">
        <ele>1199</ele>
        <time>2017-02-09T10:09:31.104Z</time>
      </trkpt>
      <trkpt lat="42.92757" lon="0.29134">
        <ele>1199</ele>
        <time>2017-02-09T10:09:32.104Z</time>
      </trkpt>
      <trkpt lat="42.92757" lon="0.29133">
        <ele>1200</ele>
        <time>2017-02-09T10:09:33.104Z</time>
      </trkpt>
      <trkpt lat="42.92756" lon="0.29133">
        <ele>1199</ele>
        <time>2017-02-09T10:09:34.104Z</time>
      </trkpt>
      <trkpt lat="42.92756" lon="0.29133">
        <ele>1199</ele>
        <time>2017-02-09T10:09:35.104Z</time>
      </trkpt>
      <trkpt lat="42.92755" lon="0.29133">
        <ele>1199</ele>
        <time>2017-02-09T10:09:36.104Z</time>
      </trkpt>
      <trkpt lat="42.92755" lon="0.29132">
        <ele>1199</ele>
        <time>2017-02-09T10:09:37.104Z</time>
      </trkpt>
      <trkpt lat="42.92754" lon="0.29132">
        <ele>1199</ele>
        <time>2017-02-09T10:09:38.104Z</time>
      </trkpt>
      <trkpt lat="42.92753" lon="0.29132">
        <ele>1200</ele>
        <time>2017-02-09T10:09:39.104Z</time>
      </trkpt>
      <trkpt lat="42.92753" lon="0.29131">
        <ele>1200</ele>
        <time>2017-02-09T10:09:40.104Z</time>
      </trkpt>
      <trkpt lat="42.92752" lon="0.29131">
        <ele>1200</ele>
        <time>2017-02-09T10:09:41.104Z</time>
      </trkpt>
      <trkpt lat="42.92751" lon="0.2913">
        <ele>1200</ele>
        <time>2017-02-09T10:09:42.104Z</time>
      </trkpt>
      <trkpt lat="42.92751" lon="0.2913">
        <ele>1200</ele>
        <time>2017-02-09T10:09:43.104Z</time>
      </trkpt>
      <trkpt lat="42.9275" lon="0.2913">
        <ele>1200</ele>
        <time>2017-02-09T10:09:44.104Z</time>
      </trkpt>
      <trkpt lat="42.92749" lon="0.29129">
        <ele>1200</ele>
        <time>2017-02-09T10:09:45.104Z</time>
      </trkpt>
      <trkpt lat="42.92749" lon="0.29129">
        <ele>1201</ele>
        <time>2017-02-09T10:09:46.104Z</time>
      </trkpt>
      <trkpt lat="42.92748" lon="0.29128">
        <ele>1201</ele>
        <time>2017-02-09T10:09:47.104Z</time>
      </trkpt>
      <trkpt lat="42.92748" lon="0.29128">
        <ele>1201</ele>
        <time>2017-02-09T10:09:48.104Z</time>
      </trkpt>
      <trkpt lat="42.92747" lon="0.29127">
        <ele>1201</ele>
        <time>2017-02-09T10:09:49.104Z</time>
      </trkpt>
      <trkpt lat="42.92747" lon="0.29127">
        <ele>1201</ele>
        <time>2017-02-09T10:09:50.104Z</time>
      </trkpt>
      <trkpt lat="42.92746" lon="0.29126">
        <ele>1200</ele>
        <time>2017-02-09T10:09:51.104Z</time>
      </trkpt>
      <trkpt lat="42.92746" lon="0.29125">
        <ele>1202</ele>
        <time>2017-02-09T10:09:52.104Z</time>
      </trkpt>
      <trkpt lat="42.92745" lon="0.29125">
        <ele>1202</ele>
        <time>2017-02-09T10:09:53.104Z</time>
      </trkpt>
      <trkpt lat="42.92745" lon="0.29124">
        <ele>1202</ele>
        <time>2017-02-09T10:09:54.104Z</time>
      </trkpt>
      <trkpt lat="42.92744" lon="0.29124">
        <ele>1202</ele>
        <time>2017-02-09T10:09:55.104Z</time>
      </trkpt>
      <trkpt lat="42.92743" lon="0.29124">
        <ele>1203</ele>
        <time>2017-02-09T10:09:56.104Z</time>
      </trkpt>
      <trkpt lat="42.92743" lon="0.29123">
        <ele>1203</ele>
        <time>2017-02-09T10:09:57.104Z</time>
      </trkpt>
      <trkpt lat="42.92742" lon="0.29122">
        <ele>1203</ele>
        <time>2017-02-09T10:09:58.104Z</time>
      </trkpt>
      <trkpt lat="42.92742" lon="0.29122">
        <ele>1203</ele>
        <time>2017-02-09T10:09:59.104Z</time>
      </trkpt>
      <trkpt lat="42.92741" lon="0.29122">
        <ele>1203</ele>
        <time>2017-02-09T10:10:00.104Z</time>
      </trkpt>
      <trkpt lat="42.92741" lon="0.29121">
        <ele>1203</ele>
        <time>2017-02-09T10:10:01.104Z</time>
      </trkpt>
      <trkpt lat="42.9274" lon="0.29121">
        <ele>1203</ele>
        <time>2017-02-09T10:10:02.104Z</time>
      </trkpt>
      <trkpt lat="42.92739" lon="0.29121">
        <ele>1203</ele>
        <time>2017-02-09T10:10:03.104Z</time>
      </trkpt>
      <trkpt lat="42.92739" lon="0.2912">
        <ele>1203</ele>
        <time>2017-02-09T10:10:04.104Z</time>
      </trkpt>
      <trkpt lat="42.92738" lon="0.2912">
        <ele>1203</ele>
        <time>2017-02-09T10:10:05.104Z</time>
      </trkpt>
      <trkpt lat="42.92737" lon="0.2912">
        <ele>1203</ele>
        <time>2017-02-09T10:10:06.104Z</time>
      </trkpt>
      <trkpt lat="42.92737" lon="0.2912">
        <ele>1203</ele>
        <time>2017-02-09T10:10:07.104Z</time>
      </trkpt>
      <trkpt lat="42.92736" lon="0.2912">
        <ele>1203</ele>
        <time>2017-02-09T10:10:08.104Z</time>
      </trkpt>
      <trkpt lat="42.92735" lon="0.29119">
        <ele>1203</ele>
        <time>2017-02-09T10:10:09.104Z</time>
      </trkpt>
      <trkpt lat="42.92734" lon="0.29119">
        <ele>1204</ele>
        <time>2017-02-09T10:10:10.104Z</time>
      </trkpt>
      <trkpt lat="42.92734" lon="0.29119">
        <ele>1204</ele>
        <time>2017-02-09T10:10:11.104Z</time>
      </trkpt>
      <trkpt lat="42.92733" lon="0.29119">
        <ele>1204</ele>
        <time>2017-02-09T10:10:12.104Z</time>
      </trkpt>
      <trkpt lat="42.92733" lon="0.29118">
        <ele>1204</ele>
        <time>2017-02-09T10:10:13.104Z</time>
      </trkpt>
      <trkpt lat="42.92732" lon="0.29118">
        <ele>1204</ele>
        <time>2017-02-09T10:10:14.104Z</time>
      </trkpt>
      <trkpt lat="42.92731" lon="0.29118">
        <ele>1204</ele>
        <time>2017-02-09T10:10:15.104Z</time>
      </trkpt>
      <trkpt lat="42.9273" lon="0.29118">
        <ele>1204</ele>
        <time>2017-02-09T10:10:16.104Z</time>
      </trkpt>
      <trkpt lat="42.9273" lon="0.29117">
        <ele>1204</ele>
        <time>2017-02-09T10:10:17.104Z</time>
      </trkpt>
      <trkpt lat="42.92729" lon="0.29117">
        <ele>1204</ele>
        <time>2017-02-09T10:10:18.104Z</time>
      </trkpt>
      <trkpt lat="42.92728" lon="0.29117">
        <ele>1204</ele>
        <time>2017-02-09T10:10:19.104Z</time>
      </trkpt>
      <trkpt lat="42.92728" lon="0.29117">
        <ele>1205</ele>
        <time>2017-02-09T10:10:20.104Z</time>
      </trkpt>
      <trkpt lat="42.92727" lon="0.29117">
        <ele>1205</ele>
        <time>2017-02-09T10:10:21.104Z</time>
      </trkpt>
      <trkpt lat="42.92726" lon="0.29116">
        <ele>1206</ele>
        <time>2017-02-09T10:10:22.104Z</time>
      </trkpt>
      <trkpt lat="42.92726" lon="0.29116">
        <ele>1205</ele>
        <time>2017-02-09T10:10:23.104Z</time>
      </trkpt>
      <trkpt lat="42.92726" lon="0.29115">
        <ele>1205</ele>
        <time>2017-02-09T10:10:24.104Z</time>
      </trkpt>
      <trkpt lat="42.92725" lon="0.29115">
        <ele>1205</ele>
        <time>2017-02-09T10:10:25.104Z</time>
      </trkpt>
      <trkpt lat="42.92725" lon="0.29114">
        <ele>1206</ele>
        <time>2017-02-09T10:10:26.104Z</time>
      </trkpt>
      <trkpt lat="42.92724" lon="0.29114">
        <ele>1206</ele>
        <time>2017-02-09T10:10:27.104Z</time>
      </trkpt>
      <trkpt lat="42.92724" lon="0.29114">
        <ele>1206</ele>
        <time>2017-02-09T10:10:28.104Z</time>
      </trkpt>
      <trkpt lat="42.92723" lon="0.29114">
        <ele>1207</ele>
        <time>2017-02-09T10:10:29.104Z</time>
      </trkpt>
      <trkpt lat="42.92722" lon="0.29114">
        <ele>1207</ele>
        <time>2017-02-09T10:10:30.104Z</time>
      </trkpt>
      <trkpt lat="42.92722" lon="0.29114">
        <ele>1207</ele>
        <time>2017-02-09T10:10:31.104Z</time>
      </trkpt>
      <trkpt lat="42.92721" lon="0.29114">
        <ele>1207</ele>
        <time>2017-02-09T10:10:32.104Z</time>
      </trkpt>
      <trkpt lat="42.9272" lon="0.29114">
        <ele>1207</ele>
        <time>2017-02-09T10:10:33.104Z</time>
      </trkpt>
      <trkpt lat="42.9272" lon="0.29114">
        <ele>1206</ele>
        <time>2017-02-09T10:10:34.104Z</time>
      </trkpt>
      <trkpt lat="42.92719" lon="0.29114">
        <ele>1206</ele>
        <time>2017-02-09T10:10:35.104Z</time>
      </trkpt>
      <trkpt lat="42.92719" lon="0.29114">
        <ele>1206</ele>
        <time>2017-02-09T10:10:36.104Z</time>
      </trkpt>
      <trkpt lat="42.92718" lon="0.29114">
        <ele>1206</ele>
        <time>2017-02-09T10:10:37.104Z</time>
      </trkpt>
      <trkpt lat="42.92718" lon="0.29114">
        <ele>1206</ele>
        <time>2017-02-09T10:10:38.104Z</time>
      </trkpt>
      <trkpt lat="42.92717" lon="0.29113">
        <ele>1206</ele>
        <time>2017-02-09T10:10:39.104Z</time>
      </trkpt>
      <trkpt lat="42.92716" lon="0.29113">
        <ele>1206</ele>
        <time>2017-02-09T10:10:40.104Z</time>
      </trkpt>
      <trkpt lat="42.92716" lon="0.29113">
        <ele>1206</ele>
        <time>2017-02-09T10:10:41.104Z</time>
      </trkpt>
      <trkpt lat="42.92715" lon="0.29113">
        <ele>1206</ele>
        <time>2017-02-09T10:10:42.104Z</time>
      </trkpt>
      <trkpt lat="42.92714" lon="0.29113">
        <ele>1207</ele>
        <time>2017-02-09T10:10:43.104Z</time>
      </trkpt>
      <trkpt lat="42.92714" lon="0.29113">
        <ele>1206</ele>
        <time>2017-02-09T10:10:44.104Z</time>
      </trkpt>
      <trkpt lat="42.92713" lon="0.29113">
        <ele>1206</ele>
        <time>2017-02-09T10:10:45.104Z</time>
      </trkpt>
      <trkpt lat="42.92712" lon="0.29113">
        <ele>1207</ele>
        <time>2017-02-09T10:10:46.104Z</time>
      </trkpt>
      <trkpt lat="42.92712" lon="0.29113">
        <ele>1206</ele>
        <time>2017-02-09T10:10:47.104Z</time>
      </trkpt>
      <trkpt lat="42.92711" lon="0.29113">
        <ele>1207</ele>
        <time>2017-02-09T10:10:48.104Z</time>
      </trkpt>
      <trkpt lat="42.92711" lon="0.29113">
        <ele>1207</ele>
        <time>2017-02-09T10:10:49.104Z</time>
      </trkpt>
      <trkpt lat="42.9271" lon="0.29113">
        <ele>1207</ele>
        <time>2017-02-09T10:10:50.104Z</time>
      </trkpt>
      <trkpt lat="42.92709" lon="0.29113">
        <ele>1207</ele>
        <time>2017-02-09T10:10:51.104Z</time>
      </trkpt>
      <trkpt lat="42.92709" lon="0.29113">
        <ele>1207</ele>
        <time>2017-02-09T10:10:52.104Z</time>
      </trkpt>
      <trkpt lat="42.92708" lon="0.29112">
        <ele>1207</ele>
        <time>2017-02-09T10:10:53.104Z</time>
      </trkpt>
      <trkpt lat="42.92707" lon="0.29112">
        <ele>1207</ele>
        <time>2017-02-09T10:10:54.104Z</time>
      </trkpt>
      <trkpt lat="42.92707" lon="0.29112">
        <ele>1206</ele>
        <time>2017-02-09T10:10:55.104Z</time>
      </trkpt>
      <trkpt lat="42.92706" lon="0.29111">
        <ele>1207</ele>
        <time>2017-02-09T10:10:56.104Z</time>
      </trkpt>
      <trkpt lat="42.92705" lon="0.29111">
        <ele>1206</ele>
        <time>2017-02-09T10:10:57.104Z</time>
      </trkpt>
      <trkpt lat="42.92705" lon="0.29111">
        <ele>1205</ele>
        <time>2017-02-09T10:10:58.104Z</time>
      </trkpt>
      <trkpt lat="42.92704" lon="0.2911">
        <ele>1205</ele>
        <time>2017-02-09T10:10:59.104Z</time>
      </trkpt>
      <trkpt lat="42.92703" lon="0.2911">
        <ele>1205</ele>
        <time>2017-02-09T10:11:00.104Z</time>
      </trkpt>
      <trkpt lat="42.92703" lon="0.29109">
        <ele>1205</ele>
        <time>2017-02-09T10:11:01.104Z</time>
      </trkpt>
      <trkpt lat="42.92702" lon="0.29109">
        <ele>1205</ele>
        <time>2017-02-09T10:11:02.104Z</time>
      </trkpt>
      <trkpt lat="42.92702" lon="0.29108">
        <ele>1205</ele>
        <time>2017-02-09T10:11:03.104Z</time>
      </trkpt>
      <trkpt lat="42.92701" lon="0.29108">
        <ele>1205</ele>
        <time>2017-02-09T10:11:04.104Z</time>
      </trkpt>
      <trkpt lat="42.927" lon="0.29108">
        <ele>1205</ele>
        <time>2017-02-09T10:11:05.104Z</time>
      </trkpt>
      <trkpt lat="42.927" lon="0.29107">
        <ele>1205</ele>
        <time>2017-02-09T10:11:06.104Z</time>
      </trkpt>
      <trkpt lat="42.92699" lon="0.29107">
        <ele>1205</ele>
        <time>2017-02-09T10:11:07.104Z</time>
      </trkpt>
      <trkpt lat="42.92698" lon="0.29106">
        <ele>1205</ele>
        <time>2017-02-09T10:11:08.104Z</time>
      </trkpt>
      <trkpt lat="42.92698" lon="0.29106">
        <ele>1206</ele>
        <time>2017-02-09T10:11:09.104Z</time>
      </trkpt>
      <trkpt lat="42.92697" lon="0.29106">
        <ele>1206</ele>
        <time>2017-02-09T10:11:10.104Z</time>
      </trkpt>
      <trkpt lat="42.92697" lon="0.29105">
        <ele>1206</ele>
        <time>2017-02-09T10:11:11.104Z</time>
      </trkpt>
      <trkpt lat="42.92696" lon="0.29105">
        <ele>1206</ele>
        <time>2017-02-09T10:11:12.104Z</time>
      </trkpt>
      <trkpt lat="42.92695" lon="0.29105">
        <ele>1207</ele>
        <time>2017-02-09T10:11:13.104Z</time>
      </trkpt>
      <trkpt lat="42.92695" lon="0.29104">
        <ele>1207</ele>
        <time>2017-02-09T10:11:14.104Z</time>
      </trkpt>
      <trkpt lat="42.92695" lon="0.29103">
        <ele>1207</ele>
        <time>2017-02-09T10:11:15.104Z</time>
      </trkpt>
      <trkpt lat="42.92694" lon="0.29103">
        <ele>1207</ele>
        <time>2017-02-09T10:11:16.104Z</time>
      </trkpt>
      <trkpt lat="42.92694" lon="0.29103">
        <ele>1207</ele>
        <time>2017-02-09T10:11:17.104Z</time>
      </trkpt>
      <trkpt lat="42.92693" lon="0.29102">
        <ele>1208</ele>
        <time>2017-02-09T10:11:18.104Z</time>
      </trkpt>
      <trkpt lat="42.92692" lon="0.29102">
        <ele>1208</ele>
        <time>2017-02-09T10:11:19.104Z</time>
      </trkpt>
      <trkpt lat="42.92692" lon="0.29102">
        <ele>1209</ele>
        <time>2017-02-09T10:11:20.104Z</time>
      </trkpt>
      <trkpt lat="42.92691" lon="0.29102">
        <ele>1210</ele>
        <time>2017-02-09T10:11:21.104Z</time>
      </trkpt>
      <trkpt lat="42.92691" lon="0.29102">
        <ele>1210</ele>
        <time>2017-02-09T10:11:22.104Z</time>
      </trkpt>
      <trkpt lat="42.9269" lon="0.29102">
        <ele>1210</ele>
        <time>2017-02-09T10:11:23.104Z</time>
      </trkpt>
      <trkpt lat="42.92689" lon="0.29102">
        <ele>1210</ele>
        <time>2017-02-09T10:11:24.104Z</time>
      </trkpt>
      <trkpt lat="42.92689" lon="0.29102">
        <ele>1211</ele>
        <time>2017-02-09T10:11:25.104Z</time>
      </trkpt>
      <trkpt lat="42.92688" lon="0.29102">
        <ele>1211</ele>
        <time>2017-02-09T10:11:26.104Z</time>
      </trkpt>
      <trkpt lat="42.92687" lon="0.29102">
        <ele>1211</ele>
        <time>2017-02-09T10:11:27.104Z</time>
      </trkpt>
      <trkpt lat="42.92687" lon="0.29102">
        <ele>1212</ele>
        <time>2017-02-09T10:11:28.104Z</time>
      </trkpt>
      <trkpt lat="42.92686" lon="0.29102">
        <ele>1212</ele>
        <time>2017-02-09T10:11:29.104Z</time>
      </trkpt>
      <trkpt lat="42.92686" lon="0.29102">
        <ele>1213</ele>
        <time>2017-02-09T10:11:30.104Z</time>
      </trkpt>
      <trkpt lat="42.92685" lon="0.29102">
        <ele>1214</ele>
        <time>2017-02-09T10:11:31.104Z</time>
      </trkpt>
      <trkpt lat="42.92684" lon="0.29101">
        <ele>1214</ele>
        <time>2017-02-09T10:11:32.104Z</time>
      </trkpt>
      <trkpt lat="42.92684" lon="0.29101">
        <ele>1214</ele>
        <time>2017-02-09T10:11:33.104Z</time>
      </trkpt>
      <trkpt lat="42.92683" lon="0.29101">
        <ele>1215</ele>
        <time>2017-02-09T10:11:34.104Z</time>
      </trkpt>
      <trkpt lat="42.92683" lon="0.29101">
        <ele>1215</ele>
        <time>2017-02-09T10:11:35.104Z</time>
      </trkpt>
      <trkpt lat="42.92682" lon="0.29101">
        <ele>1215</ele>
        <time>2017-02-09T10:11:36.104Z</time>
      </trkpt>
      <trkpt lat="42.92682" lon="0.291">
        <ele>1215</ele>
        <time>2017-02-09T10:11:37.104Z</time>
      </trkpt>
      <trkpt lat="42.92681" lon="0.291">
        <ele>1215</ele>
        <time>2017-02-09T10:11:38.104Z</time>
      </trkpt>
      <trkpt lat="42.92681" lon="0.291">
        <ele>1215</ele>
        <time>2017-02-09T10:11:39.104Z</time>
      </trkpt>
      <trkpt lat="42.9268" lon="0.291">
        <ele>1216</ele>
        <time>2017-02-09T10:11:40.104Z</time>
      </trkpt>
      <trkpt lat="42.9268" lon="0.29099">
        <ele>1216</ele>
        <time>2017-02-09T10:11:41.104Z</time>
      </trkpt>
      <trkpt lat="42.92679" lon="0.29099">
        <ele>1216</ele>
        <time>2017-02-09T10:11:42.104Z</time>
      </trkpt>
      <trkpt lat="42.92679" lon="0.29099">
        <ele>1217</ele>
        <time>2017-02-09T10:11:43.104Z</time>
      </trkpt>
      <trkpt lat="42.92678" lon="0.29099">
        <ele>1217</ele>
        <time>2017-02-09T10:11:44.104Z</time>
      </trkpt>
      <trkpt lat="42.92678" lon="0.29098">
        <ele>1217</ele>
        <time>2017-02-09T10:11:45.104Z</time>
      </trkpt>
      <trkpt lat="42.92677" lon="0.29098">
        <ele>1218</ele>
        <time>2017-02-09T10:11:46.104Z</time>
      </trkpt>
      <trkpt lat="42.92677" lon="0.29098">
        <ele>1218</ele>
        <time>2017-02-09T10:11:47.104Z</time>
      </trkpt>
      <trkpt lat="42.92676" lon="0.29098">
        <ele>1218</ele>
        <time>2017-02-09T10:11:48.104Z</time>
      </trkpt>
      <trkpt lat="42.92676" lon="0.29097">
        <ele>1218</ele>
        <time>2017-02-09T10:11:49.104Z</time>
      </trkpt>
      <trkpt lat="42.92675" lon="0.29097">
        <ele>1219</ele>
        <time>2017-02-09T10:11:50.104Z</time>
      </trkpt>
      <trkpt lat="42.92675" lon="0.29097">
        <ele>1218</ele>
        <time>2017-02-09T10:11:51.104Z</time>
      </trkpt>
      <trkpt lat="42.92674" lon="0.29096">
        <ele>1218</ele>
        <time>2017-02-09T10:11:52.104Z</time>
      </trkpt>
      <trkpt lat="42.92674" lon="0.29096">
        <ele>1217</ele>
        <time>2017-02-09T10:11:53.104Z</time>
      </trkpt>
      <trkpt lat="42.92674" lon="0.29096">
        <ele>1216</ele>
        <time>2017-02-09T10:11:54.104Z</time>
      </trkpt>
      <trkpt lat="42.92673" lon="0.29096">
        <ele>1216</ele>
        <time>2017-02-09T10:11:55.104Z</time>
      </trkpt>
      <trkpt lat="42.92673" lon="0.29096">
        <ele>1216</ele>
        <time>2017-02-09T10:11:56.104Z</time>
      </trkpt>
      <trkpt lat="42.92672" lon="0.29095">
        <ele>1215</ele>
        <time>2017-02-09T10:11:57.104Z</time>
      </trkpt>
      <trkpt lat="42.92671" lon="0.29095">
        <ele>1214</ele>
        <time>2017-02-09T10:11:58.104Z</time>
      </trkpt>
      <trkpt lat="42.9267" lon="0.29095">
        <ele>1214</ele>
        <time>2017-02-09T10:11:59.104Z</time>
      </trkpt>
      <trkpt lat="42.9267" lon="0.29095">
        <ele>1214</ele>
        <time>2017-02-09T10:12:00.104Z</time>
      </trkpt>
      <trkpt lat="42.92669" lon="0.29094">
        <ele>1213</ele>
        <time>2017-02-09T10:12:01.104Z</time>
      </trkpt>
      <trkpt lat="42.92668" lon="0.29094">
        <ele>1213</ele>
        <time>2017-02-09T10:12:02.104Z</time>
      </trkpt>
      <trkpt lat="42.92667" lon="0.29094">
        <ele>1212</ele>
        <time>2017-02-09T10:12:03.104Z</time>
      </trkpt>
      <trkpt lat="42.92667" lon="0.29094">
        <ele>1212</ele>
        <time>2017-02-09T10:12:04.104Z</time>
      </trkpt>
      <trkpt lat="42.92666" lon="0.29094">
        <ele>1211</ele>
        <time>2017-02-09T10:12:05.104Z</time>
      </trkpt>
      <trkpt lat="42.92665" lon="0.29094">
        <ele>1211</ele>
        <time>2017-02-09T10:12:06.104Z</time>
      </trkpt>
      <trkpt lat="42.92665" lon="0.29094">
        <ele>1211</ele>
        <time>2017-02-09T10:12:07.104Z</time>
      </trkpt>
      <trkpt lat="42.92664" lon="0.29094">
        <ele>1211</ele>
        <time>2017-02-09T10:12:08.104Z</time>
      </trkpt>
      <trkpt lat="42.92663" lon="0.29094">
        <ele>1211</ele>
        <time>2017-02-09T10:12:09.104Z</time>
      </trkpt>
      <trkpt lat="42.92663" lon="0.29093">
        <ele>1212</ele>
        <time>2017-02-09T10:12:10.104Z</time>
      </trkpt>
      <trkpt lat="42.92662" lon="0.29093">
        <ele>1211</ele>
        <time>2017-02-09T10:12:11.104Z</time>
      </trkpt>
      <trkpt lat="42.92661" lon="0.29093">
        <ele>1212</ele>
        <time>2017-02-09T10:12:12.104Z</time>
      </trkpt>
      <trkpt lat="42.92661" lon="0.29092">
        <ele>1212</ele>
        <time>2017-02-09T10:12:13.104Z</time>
      </trkpt>
      <trkpt lat="42.9266" lon="0.29092">
        <ele>1213</ele>
        <time>2017-02-09T10:12:14.104Z</time>
      </trkpt>
      <trkpt lat="42.9266" lon="0.29092">
        <ele>1213</ele>
        <time>2017-02-09T10:12:15.104Z</time>
      </trkpt>
      <trkpt lat="42.92659" lon="0.29091">
        <ele>1213</ele>
        <time>2017-02-09T10:12:16.104Z</time>
      </trkpt>
      <trkpt lat="42.92659" lon="0.29091">
        <ele>1213</ele>
        <time>2017-02-09T10:12:17.104Z</time>
      </trkpt>
      <trkpt lat="42.92658" lon="0.2909">
        <ele>1213</ele>
        <time>2017-02-09T10:12:18.104Z</time>
      </trkpt>
      <trkpt lat="42.92658" lon="0.2909">
        <ele>1212</ele>
        <time>2017-02-09T10:12:19.104Z</time>
      </trkpt>
      <trkpt lat="42.92657" lon="0.2909">
        <ele>1211</ele>
        <time>2017-02-09T10:12:20.104Z</time>
      </trkpt>
      <trkpt lat="42.92657" lon="0.2909">
        <ele>1212</ele>
        <time>2017-02-09T10:12:21.104Z</time>
      </trkpt>
      <trkpt lat="42.92656" lon="0.2909">
        <ele>1211</ele>
        <time>2017-02-09T10:12:22.104Z</time>
      </trkpt>
      <trkpt lat="42.92656" lon="0.2909">
        <ele>1213</ele>
        <time>2017-02-09T10:12:23.104Z</time>
      </trkpt>
      <trkpt lat="42.92655" lon="0.29089">
        <ele>1213</ele>
        <time>2017-02-09T10:12:24.104Z</time>
      </trkpt>
      <trkpt lat="42.92655" lon="0.29089">
        <ele>1213</ele>
        <time>2017-02-09T10:12:25.104Z</time>
      </trkpt>
      <trkpt lat="42.92654" lon="0.29089">
        <ele>1213</ele>
        <time>2017-02-09T10:12:26.104Z</time>
      </trkpt>
      <trkpt lat="42.92654" lon="0.29089">
        <ele>1214</ele>
        <time>2017-02-09T10:12:27.104Z</time>
      </trkpt>
      <trkpt lat="42.92653" lon="0.29088">
        <ele>1214</ele>
        <time>2017-02-09T10:12:28.104Z</time>
      </trkpt>
      <trkpt lat="42.92653" lon="0.29088">
        <ele>1215</ele>
        <time>2017-02-09T10:12:29.104Z</time>
      </trkpt>
      <trkpt lat="42.92652" lon="0.29088">
        <ele>1215</ele>
        <time>2017-02-09T10:12:30.104Z</time>
      </trkpt>
      <trkpt lat="42.92652" lon="0.29088">
        <ele>1216</ele>
        <time>2017-02-09T10:12:31.104Z</time>
      </trkpt>
      <trkpt lat="42.92651" lon="0.29088">
        <ele>1216</ele>
        <time>2017-02-09T10:12:32.104Z</time>
      </trkpt>
      <trkpt lat="42.92651" lon="0.29087">
        <ele>1216</ele>
        <time>2017-02-09T10:12:33.104Z</time>
      </trkpt>
      <trkpt lat="42.92651" lon="0.29087">
        <ele>1216</ele>
        <time>2017-02-09T10:12:34.104Z</time>
      </trkpt>
      <trkpt lat="42.9265" lon="0.29087">
        <ele>1216</ele>
        <time>2017-02-09T10:12:35.104Z</time>
      </trkpt>
      <trkpt lat="42.9265" lon="0.29087">
        <ele>1217</ele>
        <time>2017-02-09T10:12:36.104Z</time>
      </trkpt>
      <trkpt lat="42.92649" lon="0.29086">
        <ele>1217</ele>
        <time>2017-02-09T10:12:37.104Z</time>
      </trkpt>
      <trkpt lat="42.92649" lon="0.29086">
        <ele>1217</ele>
        <time>2017-02-09T10:12:38.104Z</time>
      </trkpt>
      <trkpt lat="42.92648" lon="0.29085">
        <ele>1217</ele>
        <time>2017-02-09T10:12:39.104Z</time>
      </trkpt>
      <trkpt lat="42.92648" lon="0.29085">
        <ele>1218</ele>
        <time>2017-02-09T10:12:40.104Z</time>
      </trkpt>
      <trkpt lat="42.92648" lon="0.29085">
        <ele>1218</ele>
        <time>2017-02-09T10:12:41.104Z</time>
      </trkpt>
      <trkpt lat="42.92647" lon="0.29085">
        <ele>1218</ele>
        <time>2017-02-09T10:12:42.104Z</time>
      </trkpt>
      <trkpt lat="42.92647" lon="0.29085">
        <ele>1218</ele>
        <time>2017-02-09T10:12:43.104Z</time>
      </trkpt>
      <trkpt lat="42.92646" lon="0.29084">
        <ele>1218</ele>
        <time>2017-02-09T10:12:44.104Z</time>
      </trkpt>
      <trkpt lat="42.92646" lon="0.29084">
        <ele>1218</ele>
        <time>2017-02-09T10:12:45.104Z</time>
      </trkpt>
      <trkpt lat="42.92645" lon="0.29084">
        <ele>1218</ele>
        <time>2017-02-09T10:12:46.104Z</time>
      </trkpt>
      <trkpt lat="42.92645" lon="0.29083">
        <ele>1218</ele>
        <time>2017-02-09T10:12:47.104Z</time>
      </trkpt>
      <trkpt lat="42.92644" lon="0.29083">
        <ele>1219</ele>
        <time>2017-02-09T10:12:48.104Z</time>
      </trkpt>
      <trkpt lat="42.92644" lon="0.29083">
        <ele>1219</ele>
        <time>2017-02-09T10:12:49.104Z</time>
      </trkpt>
      <trkpt lat="42.92643" lon="0.29083">
        <ele>1219</ele>
        <time>2017-02-09T10:12:50.104Z</time>
      </trkpt>
      <trkpt lat="42.92643" lon="0.29082">
        <ele>1218</ele>
        <time>2017-02-09T10:12:51.104Z</time>
      </trkpt>
      <trkpt lat="42.92642" lon="0.29082">
        <ele>1218</ele>
        <time>2017-02-09T10:12:52.104Z</time>
      </trkpt>
      <trkpt lat="42.92641" lon="0.29082">
        <ele>1218</ele>
        <time>2017-02-09T10:12:53.104Z</time>
      </trkpt>
      <trkpt lat="42.9264" lon="0.29081">
        <ele>1218</ele>
        <time>2017-02-09T10:12:54.104Z</time>
      </trkpt>
      <trkpt lat="42.9264" lon="0.29081">
        <ele>1217</ele>
        <time>2017-02-09T10:12:55.104Z</time>
      </trkpt>
      <trkpt lat="42.92639" lon="0.29081">
        <ele>1217</ele>
        <time>2017-02-09T10:12:56.104Z</time>
      </trkpt>
      <trkpt lat="42.92639" lon="0.29081">
        <ele>1217</ele>
        <time>2017-02-09T10:12:57.104Z</time>
      </trkpt>
      <trkpt lat="42.92638" lon="0.29081">
        <ele>1217</ele>
        <time>2017-02-09T10:12:58.104Z</time>
      </trkpt>
      <trkpt lat="42.92638" lon="0.2908">
        <ele>1215</ele>
        <time>2017-02-09T10:12:59.104Z</time>
      </trkpt>
      <trkpt lat="42.92637" lon="0.2908">
        <ele>1215</ele>
        <time>2017-02-09T10:13:00.104Z</time>
      </trkpt>
      <trkpt lat="42.92636" lon="0.29079">
        <ele>1215</ele>
        <time>2017-02-09T10:13:01.104Z</time>
      </trkpt>
      <trkpt lat="42.92636" lon="0.29079">
        <ele>1215</ele>
        <time>2017-02-09T10:13:02.104Z</time>
      </trkpt>
      <trkpt lat="42.92635" lon="0.29078">
        <ele>1218</ele>
        <time>2017-02-09T10:13:03.104Z</time>
      </trkpt>
      <trkpt lat="42.92635" lon="0.29078">
        <ele>1218</ele>
        <time>2017-02-09T10:13:04.104Z</time>
      </trkpt>
      <trkpt lat="42.92634" lon="0.29078">
        <ele>1218</ele>
        <time>2017-02-09T10:13:05.104Z</time>
      </trkpt>
      <trkpt lat="42.92634" lon="0.29077">
        <ele>1219</ele>
        <time>2017-02-09T10:13:06.104Z</time>
      </trkpt>
      <trkpt lat="42.92633" lon="0.29077">
        <ele>1219</ele>
        <time>2017-02-09T10:13:07.104Z</time>
      </trkpt>
      <trkpt lat="42.92633" lon="0.29077">
        <ele>1219</ele>
        <time>2017-02-09T10:13:08.104Z</time>
      </trkpt>
      <trkpt lat="42.92632" lon="0.29077">
        <ele>1219</ele>
        <time>2017-02-09T10:13:09.104Z</time>
      </trkpt>
      <trkpt lat="42.92631" lon="0.29076">
        <ele>1219</ele>
        <time>2017-02-09T10:13:10.104Z</time>
      </trkpt>
      <trkpt lat="42.92631" lon="0.29076">
        <ele>1219</ele>
        <time>2017-02-09T10:13:11.104Z</time>
      </trkpt>
      <trkpt lat="42.9263" lon="0.29075">
        <ele>1219</ele>
        <time>2017-02-09T10:13:12.104Z</time>
      </trkpt>
      <trkpt lat="42.9263" lon="0.29075">
        <ele>1221</ele>
        <time>2017-02-09T10:13:13.104Z</time>
      </trkpt>
      <trkpt lat="42.9263" lon="0.29074">
        <ele>1220</ele>
        <time>2017-02-09T10:13:14.104Z</time>
      </trkpt>
      <trkpt lat="42.92629" lon="0.29073">
        <ele>1220</ele>
        <time>2017-02-09T10:13:15.104Z</time>
      </trkpt>
      <trkpt lat="42.92629" lon="0.29073">
        <ele>1220</ele>
        <time>2017-02-09T10:13:16.104Z</time>
      </trkpt>
      <trkpt lat="42.92628" lon="0.29072">
        <ele>1220</ele>
        <time>2017-02-09T10:13:17.104Z</time>
      </trkpt>
      <trkpt lat="42.92628" lon="0.29072">
        <ele>1220</ele>
        <time>2017-02-09T10:13:18.104Z</time>
      </trkpt>
      <trkpt lat="42.92627" lon="0.29071">
        <ele>1220</ele>
        <time>2017-02-09T10:13:19.104Z</time>
      </trkpt>
      <trkpt lat="42.92627" lon="0.29071">
        <ele>1220</ele>
        <time>2017-02-09T10:13:20.104Z</time>
      </trkpt>
      <trkpt lat="42.92626" lon="0.29071">
        <ele>1220</ele>
        <time>2017-02-09T10:13:21.104Z</time>
      </trkpt>
      <trkpt lat="42.92626" lon="0.2907">
        <ele>1220</ele>
        <time>2017-02-09T10:13:22.104Z</time>
      </trkpt>
      <trkpt lat="42.92625" lon="0.2907">
        <ele>1219</ele>
        <time>2017-02-09T10:13:23.104Z</time>
      </trkpt>
      <trkpt lat="42.92625" lon="0.2907">
        <ele>1219</ele>
        <time>2017-02-09T10:13:24.104Z</time>
      </trkpt>
      <trkpt lat="42.92624" lon="0.2907">
        <ele>1219</ele>
        <time>2017-02-09T10:13:25.104Z</time>
      </trkpt>
      <trkpt lat="42.92623" lon="0.2907">
        <ele>1219</ele>
        <time>2017-02-09T10:13:26.104Z</time>
      </trkpt>
      <trkpt lat="42.92623" lon="0.2907">
        <ele>1219</ele>
        <time>2017-02-09T10:13:27.104Z</time>
      </trkpt>
      <trkpt lat="42.92622" lon="0.2907">
        <ele>1218</ele>
        <time>2017-02-09T10:13:28.104Z</time>
      </trkpt>
      <trkpt lat="42.92622" lon="0.2907">
        <ele>1218</ele>
        <time>2017-02-09T10:13:29.104Z</time>
      </trkpt>
      <trkpt lat="42.92621" lon="0.2907">
        <ele>1219</ele>
        <time>2017-02-09T10:13:30.104Z</time>
      </trkpt>
      <trkpt lat="42.9262" lon="0.2907">
        <ele>1219</ele>
        <time>2017-02-09T10:13:31.104Z</time>
      </trkpt>
      <trkpt lat="42.9262" lon="0.2907">
        <ele>1219</ele>
        <time>2017-02-09T10:13:32.104Z</time>
      </trkpt>
      <trkpt lat="42.92619" lon="0.29069">
        <ele>1219</ele>
        <time>2017-02-09T10:13:33.104Z</time>
      </trkpt>
      <trkpt lat="42.92619" lon="0.29069">
        <ele>1219</ele>
        <time>2017-02-09T10:13:34.104Z</time>
      </trkpt>
      <trkpt lat="42.92618" lon="0.29069">
        <ele>1219</ele>
        <time>2017-02-09T10:13:35.104Z</time>
      </trkpt>
      <trkpt lat="42.92617" lon="0.29069">
        <ele>1218</ele>
        <time>2017-02-09T10:13:36.104Z</time>
      </trkpt>
      <trkpt lat="42.92617" lon="0.29069">
        <ele>1219</ele>
        <time>2017-02-09T10:13:37.104Z</time>
      </trkpt>
      <trkpt lat="42.92616" lon="0.29069">
        <ele>1218</ele>
        <time>2017-02-09T10:13:38.104Z</time>
      </trkpt>
      <trkpt lat="42.92615" lon="0.29069">
        <ele>1218</ele>
        <time>2017-02-09T10:13:39.104Z</time>
      </trkpt>
      <trkpt lat="42.92615" lon="0.29069">
        <ele>1218</ele>
        <time>2017-02-09T10:13:40.104Z</time>
      </trkpt>
      <trkpt lat="42.92614" lon="0.29069">
        <ele>1218</ele>
        <time>2017-02-09T10:13:41.104Z</time>
      </trkpt>
      <trkpt lat="42.92614" lon="0.29069">
        <ele>1218</ele>
        <time>2017-02-09T10:13:42.104Z</time>
      </trkpt>
      <trkpt lat="42.92613" lon="0.29069">
        <ele>1219</ele>
        <time>2017-02-09T10:13:43.104Z</time>
      </trkpt>
      <trkpt lat="42.92612" lon="0.29069">
        <ele>1219</ele>
        <time>2017-02-09T10:13:44.104Z</time>
      </trkpt>
      <trkpt lat="42.92611" lon="0.29068">
        <ele>1220</ele>
        <time>2017-02-09T10:13:45.104Z</time>
      </trkpt>
      <trkpt lat="42.92611" lon="0.29068">
        <ele>1220</ele>
        <time>2017-02-09T10:13:46.104Z</time>
      </trkpt>
      <trkpt lat="42.9261" lon="0.29068">
        <ele>1220</ele>
        <time>2017-02-09T10:13:47.104Z</time>
      </trkpt>
      <trkpt lat="42.9261" lon="0.29067">
        <ele>1221</ele>
        <time>2017-02-09T10:13:48.104Z</time>
      </trkpt>
      <trkpt lat="42.92609" lon="0.29067">
        <ele>1222</ele>
        <time>2017-02-09T10:13:49.104Z</time>
      </trkpt>
      <trkpt lat="42.92609" lon="0.29067">
        <ele>1223</ele>
        <time>2017-02-09T10:13:50.104Z</time>
      </trkpt>
      <trkpt lat="42.92608" lon="0.29067">
        <ele>1223</ele>
        <time>2017-02-09T10:13:51.104Z</time>
      </trkpt>
      <trkpt lat="42.92607" lon="0.29067">
        <ele>1223</ele>
        <time>2017-02-09T10:13:52.104Z</time>
      </trkpt>
      <trkpt lat="42.92607" lon="0.29067">
        <ele>1224</ele>
        <time>2017-02-09T10:13:53.104Z</time>
      </trkpt>
      <trkpt lat="42.92606" lon="0.29066">
        <ele>1224</ele>
        <time>2017-02-09T10:13:54.104Z</time>
      </trkpt>
      <trkpt lat="42.92606" lon="0.29066">
        <ele>1225</ele>
        <time>2017-02-09T10:13:55.104Z</time>
      </trkpt>
      <trkpt lat="42.92606" lon="0.29066">
        <ele>1225</ele>
        <time>2017-02-09T10:13:56.104Z</time>
      </trkpt>
      <trkpt lat="42.92605" lon="0.29066">
        <ele>1225</ele>
        <time>2017-02-09T10:13:57.104Z</time>
      </trkpt>
      <trkpt lat="42.92605" lon="0.29065">
        <ele>1225</ele>
        <time>2017-02-09T10:13:58.104Z</time>
      </trkpt>
      <trkpt lat="42.92604" lon="0.29065">
        <ele>1225</ele>
        <time>2017-02-09T10:13:59.104Z</time>
      </trkpt>
      <trkpt lat="42.92603" lon="0.29065">
        <ele>1226</ele>
        <time>2017-02-09T10:14:00.104Z</time>
      </trkpt>
      <trkpt lat="42.92603" lon="0.29065">
        <ele>1226</ele>
        <time>2017-02-09T10:14:01.104Z</time>
      </trkpt>
      <trkpt lat="42.92602" lon="0.29065">
        <ele>1226</ele>
        <time>2017-02-09T10:14:02.104Z</time>
      </trkpt>
      <trkpt lat="42.92601" lon="0.29065">
        <ele>1225</ele>
        <time>2017-02-09T10:14:03.104Z</time>
      </trkpt>
      <trkpt lat="42.92601" lon="0.29065">
        <ele>1225</ele>
        <time>2017-02-09T10:14:04.104Z</time>
      </trkpt>
      <trkpt lat="42.926" lon="0.29066">
        <ele>1225</ele>
        <time>2017-02-09T10:14:05.104Z</time>
      </trkpt>
      <trkpt lat="42.92599" lon="0.29066">
        <ele>1225</ele>
        <time>2017-02-09T10:14:06.104Z</time>
      </trkpt>
      <trkpt lat="42.92599" lon="0.29066">
        <ele>1226</ele>
        <time>2017-02-09T10:14:07.104Z</time>
      </trkpt>
      <trkpt lat="42.92598" lon="0.29066">
        <ele>1226</ele>
        <time>2017-02-09T10:14:08.104Z</time>
      </trkpt>
      <trkpt lat="42.92598" lon="0.29065">
        <ele>1226</ele>
        <time>2017-02-09T10:14:09.104Z</time>
      </trkpt>
      <trkpt lat="42.92597" lon="0.29065">
        <ele>1226</ele>
        <time>2017-02-09T10:14:10.104Z</time>
      </trkpt>
      <trkpt lat="42.92596" lon="0.29065">
        <ele>1226</ele>
        <time>2017-02-09T10:14:11.104Z</time>
      </trkpt>
      <trkpt lat="42.92595" lon="0.29065">
        <ele>1226</ele>
        <time>2017-02-09T10:14:12.104Z</time>
      </trkpt>
      <trkpt lat="42.92595" lon="0.29065">
        <ele>1226</ele>
        <time>2017-02-09T10:14:13.104Z</time>
      </trkpt>
      <trkpt lat="42.92594" lon="0.29064">
        <ele>1227</ele>
        <time>2017-02-09T10:14:14.104Z</time>
      </trkpt>
      <trkpt lat="42.92593" lon="0.29064">
        <ele>1228</ele>
        <time>2017-02-09T10:14:15.104Z</time>
      </trkpt>
      <trkpt lat="42.92593" lon="0.29064">
        <ele>1228</ele>
        <time>2017-02-09T10:14:16.104Z</time>
      </trkpt>
      <trkpt lat="42.92592" lon="0.29063">
        <ele>1228</ele>
        <time>2017-02-09T10:14:17.104Z</time>
      </trkpt>
      <trkpt lat="42.92591" lon="0.29062">
        <ele>1228</ele>
        <time>2017-02-09T10:14:18.104Z</time>
      </trkpt>
      <trkpt lat="42.92591" lon="0.29062">
        <ele>1229</ele>
        <time>2017-02-09T10:14:19.104Z</time>
      </trkpt>
      <trkpt lat="42.92591" lon="0.2906">
        <ele>1229</ele>
        <time>2017-02-09T10:14:20.104Z</time>
      </trkpt>
      <trkpt lat="42.92591" lon="0.29059">
        <ele>1230</ele>
        <time>2017-02-09T10:14:21.104Z</time>
      </trkpt>
      <trkpt lat="42.9259" lon="0.29057">
        <ele>1230</ele>
        <time>2017-02-09T10:14:22.104Z</time>
      </trkpt>
      <trkpt lat="42.9259" lon="0.29056">
        <ele>1229</ele>
        <time>2017-02-09T10:14:23.104Z</time>
      </trkpt>
      <trkpt lat="42.9259" lon="0.29056">
        <ele>1230</ele>
        <time>2017-02-09T10:14:24.104Z</time>
      </trkpt>
      <trkpt lat="42.92589" lon="0.29055">
        <ele>1229</ele>
        <time>2017-02-09T10:14:25.104Z</time>
      </trkpt>
      <trkpt lat="42.92589" lon="0.29054">
        <ele>1229</ele>
        <time>2017-02-09T10:14:26.104Z</time>
      </trkpt>
      <trkpt lat="42.92588" lon="0.29054">
        <ele>1229</ele>
        <time>2017-02-09T10:14:27.104Z</time>
      </trkpt>
      <trkpt lat="42.92588" lon="0.29053">
        <ele>1230</ele>
        <time>2017-02-09T10:14:28.104Z</time>
      </trkpt>
      <trkpt lat="42.92587" lon="0.29052">
        <ele>1230</ele>
        <time>2017-02-09T10:14:29.104Z</time>
      </trkpt>
      <trkpt lat="42.92587" lon="0.29052">
        <ele>1230</ele>
        <time>2017-02-09T10:14:30.104Z</time>
      </trkpt>
      <trkpt lat="42.92586" lon="0.29051">
        <ele>1231</ele>
        <time>2017-02-09T10:14:31.104Z</time>
      </trkpt>
      <trkpt lat="42.92586" lon="0.29051">
        <ele>1231</ele>
        <time>2017-02-09T10:14:32.104Z</time>
      </trkpt>
      <trkpt lat="42.92585" lon="0.29051">
        <ele>1231</ele>
        <time>2017-02-09T10:14:33.104Z</time>
      </trkpt>
      <trkpt lat="42.92585" lon="0.2905">
        <ele>1231</ele>
        <time>2017-02-09T10:14:34.104Z</time>
      </trkpt>
      <trkpt lat="42.92585" lon="0.29049">
        <ele>1231</ele>
        <time>2017-02-09T10:14:35.104Z</time>
      </trkpt>
      <trkpt lat="42.92584" lon="0.29049">
        <ele>1232</ele>
        <time>2017-02-09T10:14:36.104Z</time>
      </trkpt>
      <trkpt lat="42.92584" lon="0.29048">
        <ele>1233</ele>
        <time>2017-02-09T10:14:37.104Z</time>
      </trkpt>
      <trkpt lat="42.92584" lon="0.29048">
        <ele>1233</ele>
        <time>2017-02-09T10:14:38.104Z</time>
      </trkpt>
      <trkpt lat="42.92584" lon="0.29047">
        <ele>1233</ele>
        <time>2017-02-09T10:14:39.104Z</time>
      </trkpt>
      <trkpt lat="42.92584" lon="0.29047">
        <ele>1233</ele>
        <time>2017-02-09T10:14:40.104Z</time>
      </trkpt>
      <trkpt lat="42.92584" lon="0.29047">
        <ele>1234</ele>
        <time>2017-02-09T10:14:41.104Z</time>
      </trkpt>
      <trkpt lat="42.92584" lon="0.29047">
        <ele>1234</ele>
        <time>2017-02-09T10:14:42.104Z</time>
      </trkpt>
      <trkpt lat="42.92584" lon="0.29047">
        <ele>1234</ele>
        <time>2017-02-09T10:14:43.104Z</time>
      </trkpt>
      <trkpt lat="42.92584" lon="0.29047">
        <ele>1234</ele>
        <time>2017-02-09T10:14:44.104Z</time>
      </trkpt>
      <trkpt lat="42.92584" lon="0.29047">
        <ele>1234</ele>
        <time>2017-02-09T10:14:45.104Z</time>
      </trkpt>
      <trkpt lat="42.9258" lon="0.29044">
        <ele>1235</ele>
        <time>2017-02-09T10:14:46.096Z</time>
      </trkpt>
      <trkpt lat="42.92579" lon="0.29043">
        <ele>1234</ele>
        <time>2017-02-09T10:14:47.096Z</time>
      </trkpt>
      <trkpt lat="42.92578" lon="0.29043">
        <ele>1234</ele>
        <time>2017-02-09T10:14:48.096Z</time>
      </trkpt>
      <trkpt lat="42.92578" lon="0.29042">
        <ele>1233</ele>
        <time>2017-02-09T10:14:49.096Z</time>
      </trkpt>
      <trkpt lat="42.92577" lon="0.29042">
        <ele>1233</ele>
        <time>2017-02-09T10:14:50.096Z</time>
      </trkpt>
      <trkpt lat="42.92576" lon="0.29041">
        <ele>1232</ele>
        <time>2017-02-09T10:14:51.096Z</time>
      </trkpt>
      <trkpt lat="42.92576" lon="0.29041">
        <ele>1231</ele>
        <time>2017-02-09T10:14:52.096Z</time>
      </trkpt>
      <trkpt lat="42.92575" lon="0.29041">
        <ele>1230</ele>
        <time>2017-02-09T10:14:53.096Z</time>
      </trkpt>
      <trkpt lat="42.92574" lon="0.2904">
        <ele>1229</ele>
        <time>2017-02-09T10:14:54.096Z</time>
      </trkpt>
      <trkpt lat="42.92573" lon="0.2904">
        <ele>1229</ele>
        <time>2017-02-09T10:14:55.096Z</time>
      </trkpt>
      <trkpt lat="42.92573" lon="0.2904">
        <ele>1229</ele>
        <time>2017-02-09T10:14:56.096Z</time>
      </trkpt>
      <trkpt lat="42.92572" lon="0.29039">
        <ele>1229</ele>
        <time>2017-02-09T10:14:57.096Z</time>
      </trkpt>
      <trkpt lat="42.92572" lon="0.29039">
        <ele>1229</ele>
        <time>2017-02-09T10:14:58.096Z</time>
      </trkpt>
      <trkpt lat="42.92571" lon="0.29038">
        <ele>1229</ele>
        <time>2017-02-09T10:14:59.096Z</time>
      </trkpt>
      <trkpt lat="42.9257" lon="0.29038">
        <ele>1229</ele>
        <time>2017-02-09T10:15:00.096Z</time>
      </trkpt>
      <trkpt lat="42.9257" lon="0.29038">
        <ele>1230</ele>
        <time>2017-02-09T10:15:01.096Z</time>
      </trkpt>
      <trkpt lat="42.92569" lon="0.29038">
        <ele>1230</ele>
        <time>2017-02-09T10:15:02.096Z</time>
      </trkpt>
      <trkpt lat="42.92568" lon="0.29037">
        <ele>1230</ele>
        <time>2017-02-09T10:15:03.096Z</time>
      </trkpt>
      <trkpt lat="42.92568" lon="0.29037">
        <ele>1229</ele>
        <time>2017-02-09T10:15:04.096Z</time>
      </trkpt>
      <trkpt lat="42.92567" lon="0.29036">
        <ele>1230</ele>
        <time>2017-02-09T10:15:05.096Z</time>
      </trkpt>
      <trkpt lat="42.92567" lon="0.29036">
        <ele>1231</ele>
        <time>2017-02-09T10:15:06.096Z</time>
      </trkpt>
      <trkpt lat="42.92566" lon="0.29036">
        <ele>1232</ele>
        <time>2017-02-09T10:15:07.096Z</time>
      </trkpt>
      <trkpt lat="42.92565" lon="0.29036">
        <ele>1231</ele>
        <time>2017-02-09T10:15:08.096Z</time>
      </trkpt>
      <trkpt lat="42.92565" lon="0.29036">
        <ele>1231</ele>
        <time>2017-02-09T10:15:09.096Z</time>
      </trkpt>
      <trkpt lat="42.92564" lon="0.29035">
        <ele>1230</ele>
        <time>2017-02-09T10:15:10.096Z</time>
      </trkpt>
      <trkpt lat="42.92563" lon="0.29035">
        <ele>1230</ele>
        <time>2017-02-09T10:15:11.096Z</time>
      </trkpt>
      <trkpt lat="42.92563" lon="0.29035">
        <ele>1230</ele>
        <time>2017-02-09T10:15:12.096Z</time>
      </trkpt>
      <trkpt lat="42.92562" lon="0.29034">
        <ele>1230</ele>
        <time>2017-02-09T10:15:13.096Z</time>
      </trkpt>
      <trkpt lat="42.92561" lon="0.29034">
        <ele>1230</ele>
        <time>2017-02-09T10:15:14.096Z</time>
      </trkpt>
      <trkpt lat="42.92561" lon="0.29034">
        <ele>1230</ele>
        <time>2017-02-09T10:15:15.096Z</time>
      </trkpt>
      <trkpt lat="42.9256" lon="0.29034">
        <ele>1230</ele>
        <time>2017-02-09T10:15:16.096Z</time>
      </trkpt>
      <trkpt lat="42.9256" lon="0.29034">
        <ele>1230</ele>
        <time>2017-02-09T10:15:17.096Z</time>
      </trkpt>
      <trkpt lat="42.9256" lon="0.29034">
        <ele>1230</ele>
        <time>2017-02-09T10:15:18.096Z</time>
      </trkpt>
      <trkpt lat="42.92559" lon="0.29034">
        <ele>1230</ele>
        <time>2017-02-09T10:15:19.096Z</time>
      </trkpt>
      <trkpt lat="42.92559" lon="0.29034">
        <ele>1230</ele>
        <time>2017-02-09T10:15:20.096Z</time>
      </trkpt>
      <trkpt lat="42.92558" lon="0.29034">
        <ele>1230</ele>
        <time>2017-02-09T10:15:21.096Z</time>
      </trkpt>
      <trkpt lat="42.92557" lon="0.29034">
        <ele>1230</ele>
        <time>2017-02-09T10:15:22.096Z</time>
      </trkpt>
      <trkpt lat="42.92557" lon="0.29034">
        <ele>1231</ele>
        <time>2017-02-09T10:15:23.096Z</time>
      </trkpt>
      <trkpt lat="42.92556" lon="0.29034">
        <ele>1231</ele>
        <time>2017-02-09T10:15:24.096Z</time>
      </trkpt>
      <trkpt lat="42.92556" lon="0.29034">
        <ele>1231</ele>
        <time>2017-02-09T10:15:25.096Z</time>
      </trkpt>
      <trkpt lat="42.92555" lon="0.29033">
        <ele>1231</ele>
        <time>2017-02-09T10:15:26.096Z</time>
      </trkpt>
      <trkpt lat="42.92555" lon="0.29033">
        <ele>1232</ele>
        <time>2017-02-09T10:15:27.096Z</time>
      </trkpt>
      <trkpt lat="42.92554" lon="0.29033">
        <ele>1232</ele>
        <time>2017-02-09T10:15:28.096Z</time>
      </trkpt>
      <trkpt lat="42.92554" lon="0.29033">
        <ele>1233</ele>
        <time>2017-02-09T10:15:29.096Z</time>
      </trkpt>
      <trkpt lat="42.92553" lon="0.29033">
        <ele>1233</ele>
        <time>2017-02-09T10:15:30.096Z</time>
      </trkpt>
      <trkpt lat="42.92553" lon="0.29033">
        <ele>1234</ele>
        <time>2017-02-09T10:15:31.096Z</time>
      </trkpt>
      <trkpt lat="42.92553" lon="0.29033">
        <ele>1235</ele>
        <time>2017-02-09T10:15:32.096Z</time>
      </trkpt>
      <trkpt lat="42.92552" lon="0.29033">
        <ele>1235</ele>
        <time>2017-02-09T10:15:33.096Z</time>
      </trkpt>
      <trkpt lat="42.92552" lon="0.29033">
        <ele>1235</ele>
        <time>2017-02-09T10:15:34.096Z</time>
      </trkpt>
      <trkpt lat="42.92551" lon="0.29033">
        <ele>1236</ele>
        <time>2017-02-09T10:15:35.096Z</time>
      </trkpt>
      <trkpt lat="42.92551" lon="0.29032">
        <ele>1236</ele>
        <time>2017-02-09T10:15:36.096Z</time>
      </trkpt>
      <trkpt lat="42.9255" lon="0.29032">
        <ele>1236</ele>
        <time>2017-02-09T10:15:37.096Z</time>
      </trkpt>
      <trkpt lat="42.9255" lon="0.29032">
        <ele>1236</ele>
        <time>2017-02-09T10:15:38.096Z</time>
      </trkpt>
      <trkpt lat="42.92549" lon="0.29032">
        <ele>1236</ele>
        <time>2017-02-09T10:15:39.096Z</time>
      </trkpt>
      <trkpt lat="42.92549" lon="0.29032">
        <ele>1237</ele>
        <time>2017-02-09T10:15:40.096Z</time>
      </trkpt>
      <trkpt lat="42.92549" lon="0.29032">
        <ele>1237</ele>
        <time>2017-02-09T10:15:41.096Z</time>
      </trkpt>
      <trkpt lat="42.92548" lon="0.29031">
        <ele>1236</ele>
        <time>2017-02-09T10:15:42.096Z</time>
      </trkpt>
      <trkpt lat="42.92547" lon="0.29031">
        <ele>1238</ele>
        <time>2017-02-09T10:15:43.096Z</time>
      </trkpt>
      <trkpt lat="42.92547" lon="0.29031">
        <ele>1238</ele>
        <time>2017-02-09T10:15:44.096Z</time>
      </trkpt>
      <trkpt lat="42.92547" lon="0.29031">
        <ele>1238</ele>
        <time>2017-02-09T10:15:45.096Z</time>
      </trkpt>
      <trkpt lat="42.92546" lon="0.29031">
        <ele>1238</ele>
        <time>2017-02-09T10:15:46.096Z</time>
      </trkpt>
      <trkpt lat="42.92546" lon="0.29031">
        <ele>1238</ele>
        <time>2017-02-09T10:15:47.096Z</time>
      </trkpt>
      <trkpt lat="42.92545" lon="0.29031">
        <ele>1239</ele>
        <time>2017-02-09T10:15:48.096Z</time>
      </trkpt>
      <trkpt lat="42.92545" lon="0.2903">
        <ele>1239</ele>
        <time>2017-02-09T10:15:49.096Z</time>
      </trkpt>
      <trkpt lat="42.92545" lon="0.2903">
        <ele>1239</ele>
        <time>2017-02-09T10:15:50.096Z</time>
      </trkpt>
      <trkpt lat="42.92544" lon="0.2903">
        <ele>1239</ele>
        <time>2017-02-09T10:15:51.096Z</time>
      </trkpt>
      <trkpt lat="42.92544" lon="0.29029">
        <ele>1239</ele>
        <time>2017-02-09T10:15:52.096Z</time>
      </trkpt>
      <trkpt lat="42.92544" lon="0.29029">
        <ele>1239</ele>
        <time>2017-02-09T10:15:53.096Z</time>
      </trkpt>
      <trkpt lat="42.92543" lon="0.29029">
        <ele>1240</ele>
        <time>2017-02-09T10:15:54.096Z</time>
      </trkpt>
      <trkpt lat="42.92543" lon="0.29028">
        <ele>1239</ele>
        <time>2017-02-09T10:15:55.096Z</time>
      </trkpt>
      <trkpt lat="42.92542" lon="0.29028">
        <ele>1239</ele>
        <time>2017-02-09T10:15:56.096Z</time>
      </trkpt>
      <trkpt lat="42.92542" lon="0.29028">
        <ele>1239</ele>
        <time>2017-02-09T10:15:57.096Z</time>
      </trkpt>
      <trkpt lat="42.92541" lon="0.29027">
        <ele>1239</ele>
        <time>2017-02-09T10:15:58.096Z</time>
      </trkpt>
      <trkpt lat="42.92541" lon="0.29027">
        <ele>1239</ele>
        <time>2017-02-09T10:15:59.096Z</time>
      </trkpt>
      <trkpt lat="42.92541" lon="0.29027">
        <ele>1239</ele>
        <time>2017-02-09T10:16:00.096Z</time>
      </trkpt>
      <trkpt lat="42.9254" lon="0.29026">
        <ele>1239</ele>
        <time>2017-02-09T10:16:01.096Z</time>
      </trkpt>
      <trkpt lat="42.9254" lon="0.29026">
        <ele>1240</ele>
        <time>2017-02-09T10:16:02.096Z</time>
      </trkpt>
      <trkpt lat="42.92539" lon="0.29026">
        <ele>1240</ele>
        <time>2017-02-09T10:16:03.096Z</time>
      </trkpt>
      <trkpt lat="42.92539" lon="0.29026">
        <ele>1241</ele>
        <time>2017-02-09T10:16:04.096Z</time>
      </trkpt>
      <trkpt lat="42.92538" lon="0.29025">
        <ele>1240</ele>
        <time>2017-02-09T10:16:05.096Z</time>
      </trkpt>
      <trkpt lat="42.92538" lon="0.29025">
        <ele>1240</ele>
        <time>2017-02-09T10:16:06.096Z</time>
      </trkpt>
      <trkpt lat="42.92537" lon="0.29025">
        <ele>1240</ele>
        <time>2017-02-09T10:16:07.096Z</time>
      </trkpt>
      <trkpt lat="42.92537" lon="0.29025">
        <ele>1240</ele>
        <time>2017-02-09T10:16:08.096Z</time>
      </trkpt>
      <trkpt lat="42.92537" lon="0.29024">
        <ele>1240</ele>
        <time>2017-02-09T10:16:09.096Z</time>
      </trkpt>
      <trkpt lat="42.92536" lon="0.29024">
        <ele>1239</ele>
        <time>2017-02-09T10:16:10.096Z</time>
      </trkpt>
      <trkpt lat="42.92536" lon="0.29023">
        <ele>1240</ele>
        <time>2017-02-09T10:16:11.096Z</time>
      </trkpt>
      <trkpt lat="42.92535" lon="0.29023">
        <ele>1240</ele>
        <time>2017-02-09T10:16:12.096Z</time>
      </trkpt>
      <trkpt lat="42.92535" lon="0.29023">
        <ele>1240</ele>
        <time>2017-02-09T10:16:13.096Z</time>
      </trkpt>
      <trkpt lat="42.92534" lon="0.29022">
        <ele>1240</ele>
        <time>2017-02-09T10:16:14.096Z</time>
      </trkpt>
      <trkpt lat="42.92534" lon="0.29022">
        <ele>1239</ele>
        <time>2017-02-09T10:16:15.096Z</time>
      </trkpt>
      <trkpt lat="42.92533" lon="0.29021">
        <ele>1239</ele>
        <time>2017-02-09T10:16:16.096Z</time>
      </trkpt>
      <trkpt lat="42.92533" lon="0.29021">
        <ele>1239</ele>
        <time>2017-02-09T10:16:17.096Z</time>
      </trkpt>
      <trkpt lat="42.92532" lon="0.2902">
        <ele>1238</ele>
        <time>2017-02-09T10:16:18.096Z</time>
      </trkpt>
      <trkpt lat="42.92532" lon="0.2902">
        <ele>1239</ele>
        <time>2017-02-09T10:16:19.096Z</time>
      </trkpt>
      <trkpt lat="42.92531" lon="0.2902">
        <ele>1239</ele>
        <time>2017-02-09T10:16:20.096Z</time>
      </trkpt>
      <trkpt lat="42.92531" lon="0.2902">
        <ele>1239</ele>
        <time>2017-02-09T10:16:21.096Z</time>
      </trkpt>
      <trkpt lat="42.92531" lon="0.29019">
        <ele>1239</ele>
        <time>2017-02-09T10:16:22.096Z</time>
      </trkpt>
      <trkpt lat="42.9253" lon="0.29019">
        <ele>1240</ele>
        <time>2017-02-09T10:16:23.096Z</time>
      </trkpt>
      <trkpt lat="42.9253" lon="0.29019">
        <ele>1240</ele>
        <time>2017-02-09T10:16:24.096Z</time>
      </trkpt>
      <trkpt lat="42.92529" lon="0.29019">
        <ele>1239</ele>
        <time>2017-02-09T10:16:25.096Z</time>
      </trkpt>
      <trkpt lat="42.92528" lon="0.29018">
        <ele>1240</ele>
        <time>2017-02-09T10:16:26.096Z</time>
      </trkpt>
      <trkpt lat="42.92528" lon="0.29018">
        <ele>1240</ele>
        <time>2017-02-09T10:16:27.096Z</time>
      </trkpt>
      <trkpt lat="42.92527" lon="0.29018">
        <ele>1240</ele>
        <time>2017-02-09T10:16:28.096Z</time>
      </trkpt>
      <trkpt lat="42.92527" lon="0.29018">
        <ele>1240</ele>
        <time>2017-02-09T10:16:29.096Z</time>
      </trkpt>
      <trkpt lat="42.92526" lon="0.29018">
        <ele>1239</ele>
        <time>2017-02-09T10:16:30.096Z</time>
      </trkpt>
      <trkpt lat="42.92526" lon="0.29017">
        <ele>1240</ele>
        <time>2017-02-09T10:16:31.096Z</time>
      </trkpt>
      <trkpt lat="42.92525" lon="0.29017">
        <ele>1240</ele>
        <time>2017-02-09T10:16:32.096Z</time>
      </trkpt>
      <trkpt lat="42.92524" lon="0.29017">
        <ele>1240</ele>
        <time>2017-02-09T10:16:33.096Z</time>
      </trkpt>
      <trkpt lat="42.92524" lon="0.29017">
        <ele>1240</ele>
        <time>2017-02-09T10:16:34.096Z</time>
      </trkpt>
      <trkpt lat="42.92523" lon="0.29017">
        <ele>1240</ele>
        <time>2017-02-09T10:16:35.096Z</time>
      </trkpt>
      <trkpt lat="42.92522" lon="0.29016">
        <ele>1239</ele>
        <time>2017-02-09T10:16:36.096Z</time>
      </trkpt>
      <trkpt lat="42.92522" lon="0.29016">
        <ele>1240</ele>
        <time>2017-02-09T10:16:37.096Z</time>
      </trkpt>
      <trkpt lat="42.92521" lon="0.29016">
        <ele>1240</ele>
        <time>2017-02-09T10:16:38.096Z</time>
      </trkpt>
      <trkpt lat="42.92521" lon="0.29016">
        <ele>1240</ele>
        <time>2017-02-09T10:16:39.096Z</time>
      </trkpt>
      <trkpt lat="42.9252" lon="0.29016">
        <ele>1241</ele>
        <time>2017-02-09T10:16:40.096Z</time>
      </trkpt>
      <trkpt lat="42.9252" lon="0.29015">
        <ele>1242</ele>
        <time>2017-02-09T10:16:41.096Z</time>
      </trkpt>
      <trkpt lat="42.9252" lon="0.29015">
        <ele>1242</ele>
        <time>2017-02-09T10:16:42.096Z</time>
      </trkpt>
      <trkpt lat="42.9252" lon="0.29014">
        <ele>1242</ele>
        <time>2017-02-09T10:16:43.096Z</time>
      </trkpt>
      <trkpt lat="42.92519" lon="0.29014">
        <ele>1242</ele>
        <time>2017-02-09T10:16:44.096Z</time>
      </trkpt>
      <trkpt lat="42.92519" lon="0.29014">
        <ele>1242</ele>
        <time>2017-02-09T10:16:45.096Z</time>
      </trkpt>
      <trkpt lat="42.92518" lon="0.29013">
        <ele>1242</ele>
        <time>2017-02-09T10:16:46.096Z</time>
      </trkpt>
      <trkpt lat="42.92518" lon="0.29013">
        <ele>1242</ele>
        <time>2017-02-09T10:16:47.096Z</time>
      </trkpt>
      <trkpt lat="42.92517" lon="0.29012">
        <ele>1243</ele>
        <time>2017-02-09T10:16:48.096Z</time>
      </trkpt>
      <trkpt lat="42.92517" lon="0.29012">
        <ele>1242</ele>
        <time>2017-02-09T10:16:49.096Z</time>
      </trkpt>
      <trkpt lat="42.92517" lon="0.29011">
        <ele>1243</ele>
        <time>2017-02-09T10:16:50.096Z</time>
      </trkpt>
      <trkpt lat="42.92517" lon="0.29011">
        <ele>1241</ele>
        <time>2017-02-09T10:16:51.096Z</time>
      </trkpt>
      <trkpt lat="42.92517" lon="0.2901">
        <ele>1242</ele>
        <time>2017-02-09T10:16:52.096Z</time>
      </trkpt>
      <trkpt lat="42.92517" lon="0.2901">
        <ele>1242</ele>
        <time>2017-02-09T10:16:53.096Z</time>
      </trkpt>
      <trkpt lat="42.92516" lon="0.29011">
        <ele>1242</ele>
        <time>2017-02-09T10:16:54.096Z</time>
      </trkpt>
      <trkpt lat="42.92516" lon="0.29011">
        <ele>1242</ele>
        <time>2017-02-09T10:16:55.096Z</time>
      </trkpt>
      <trkpt lat="42.92516" lon="0.29011">
        <ele>1243</ele>
        <time>2017-02-09T10:16:56.096Z</time>
      </trkpt>
      <trkpt lat="42.92515" lon="0.29011">
        <ele>1243</ele>
        <time>2017-02-09T10:16:57.096Z</time>
      </trkpt>
      <trkpt lat="42.92515" lon="0.29012">
        <ele>1243</ele>
        <time>2017-02-09T10:16:58.096Z</time>
      </trkpt>
      <trkpt lat="42.92515" lon="0.29012">
        <ele>1243</ele>
        <time>2017-02-09T10:16:59.096Z</time>
      </trkpt>
      <trkpt lat="42.92515" lon="0.29013">
        <ele>1243</ele>
        <time>2017-02-09T10:17:00.096Z</time>
      </trkpt>
      <trkpt lat="42.92514" lon="0.29013">
        <ele>1243</ele>
        <time>2017-02-09T10:17:01.096Z</time>
      </trkpt>
      <trkpt lat="42.92514" lon="0.29014">
        <ele>1244</ele>
        <time>2017-02-09T10:17:02.096Z</time>
      </trkpt>
      <trkpt lat="42.92513" lon="0.29014">
        <ele>1244</ele>
        <time>2017-02-09T10:17:03.096Z</time>
      </trkpt>
      <trkpt lat="42.92513" lon="0.29014">
        <ele>1244</ele>
        <time>2017-02-09T10:17:04.096Z</time>
      </trkpt>
      <trkpt lat="42.92512" lon="0.29015">
        <ele>1245</ele>
        <time>2017-02-09T10:17:05.096Z</time>
      </trkpt>
      <trkpt lat="42.92512" lon="0.29015">
        <ele>1245</ele>
        <time>2017-02-09T10:17:06.096Z</time>
      </trkpt>
      <trkpt lat="42.92511" lon="0.29015">
        <ele>1245</ele>
        <time>2017-02-09T10:17:07.096Z</time>
      </trkpt>
      <trkpt lat="42.92511" lon="0.29015">
        <ele>1245</ele>
        <time>2017-02-09T10:17:08.096Z</time>
      </trkpt>
      <trkpt lat="42.9251" lon="0.29016">
        <ele>1245</ele>
        <time>2017-02-09T10:17:09.096Z</time>
      </trkpt>
      <trkpt lat="42.9251" lon="0.29016">
        <ele>1245</ele>
        <time>2017-02-09T10:17:10.096Z</time>
      </trkpt>
      <trkpt lat="42.92509" lon="0.29016">
        <ele>1245</ele>
        <time>2017-02-09T10:17:11.096Z</time>
      </trkpt>
      <trkpt lat="42.92509" lon="0.29016">
        <ele>1246</ele>
        <time>2017-02-09T10:17:12.096Z</time>
      </trkpt>
      <trkpt lat="42.92509" lon="0.29016">
        <ele>1246</ele>
        <time>2017-02-09T10:17:13.096Z</time>
      </trkpt>
      <trkpt lat="42.92508" lon="0.29016">
        <ele>1246</ele>
        <time>2017-02-09T10:17:14.096Z</time>
      </trkpt>
      <trkpt lat="42.92508" lon="0.29017">
        <ele>1246</ele>
        <time>2017-02-09T10:17:15.096Z</time>
      </trkpt>
      <trkpt lat="42.92508" lon="0.29017">
        <ele>1246</ele>
        <time>2017-02-09T10:17:16.096Z</time>
      </trkpt>
      <trkpt lat="42.92507" lon="0.29017">
        <ele>1246</ele>
        <time>2017-02-09T10:17:17.096Z</time>
      </trkpt>
      <trkpt lat="42.92507" lon="0.29017">
        <ele>1246</ele>
        <time>2017-02-09T10:17:18.096Z</time>
      </trkpt>
      <trkpt lat="42.92507" lon="0.29018">
        <ele>1246</ele>
        <time>2017-02-09T10:17:19.096Z</time>
      </trkpt>
      <trkpt lat="42.92507" lon="0.29018">
        <ele>1246</ele>
        <time>2017-02-09T10:17:20.096Z</time>
      </trkpt>
      <trkpt lat="42.92504" lon="0.2902">
        <ele>1248</ele>
        <time>2017-02-09T10:17:21.100Z</time>
      </trkpt>
      <trkpt lat="42.92504" lon="0.2902">
        <ele>1248</ele>
        <time>2017-02-09T10:17:22.100Z</time>
      </trkpt>
      <trkpt lat="42.92503" lon="0.2902">
        <ele>1249</ele>
        <time>2017-02-09T10:17:23.100Z</time>
      </trkpt>
      <trkpt lat="42.92503" lon="0.2902">
        <ele>1249</ele>
        <time>2017-02-09T10:17:24.100Z</time>
      </trkpt>
      <trkpt lat="42.92503" lon="0.2902">
        <ele>1249</ele>
        <time>2017-02-09T10:17:25.100Z</time>
      </trkpt>
      <trkpt lat="42.92502" lon="0.2902">
        <ele>1249</ele>
        <time>2017-02-09T10:17:26.100Z</time>
      </trkpt>
      <trkpt lat="42.92501" lon="0.2902">
        <ele>1250</ele>
        <time>2017-02-09T10:17:27.100Z</time>
      </trkpt>
      <trkpt lat="42.92501" lon="0.29021">
        <ele>1250</ele>
        <time>2017-02-09T10:17:28.100Z</time>
      </trkpt>
      <trkpt lat="42.92501" lon="0.29021">
        <ele>1250</ele>
        <time>2017-02-09T10:17:29.100Z</time>
      </trkpt>
      <trkpt lat="42.925" lon="0.29021">
        <ele>1250</ele>
        <time>2017-02-09T10:17:30.100Z</time>
      </trkpt>
      <trkpt lat="42.925" lon="0.29021">
        <ele>1249</ele>
        <time>2017-02-09T10:17:31.100Z</time>
      </trkpt>
      <trkpt lat="42.92499" lon="0.29021">
        <ele>1249</ele>
        <time>2017-02-09T10:17:32.100Z</time>
      </trkpt>
      <trkpt lat="42.92499" lon="0.29021">
        <ele>1249</ele>
        <time>2017-02-09T10:17:33.100Z</time>
      </trkpt>
      <trkpt lat="42.92498" lon="0.29021">
        <ele>1250</ele>
        <time>2017-02-09T10:17:34.100Z</time>
      </trkpt>
      <trkpt lat="42.92498" lon="0.29021">
        <ele>1248</ele>
        <time>2017-02-09T10:17:35.100Z</time>
      </trkpt>
      <trkpt lat="42.92497" lon="0.29021">
        <ele>1247</ele>
        <time>2017-02-09T10:17:36.100Z</time>
      </trkpt>
      <trkpt lat="42.92497" lon="0.29021">
        <ele>1247</ele>
        <time>2017-02-09T10:17:37.100Z</time>
      </trkpt>
      <trkpt lat="42.92496" lon="0.29021">
        <ele>1248</ele>
        <time>2017-02-09T10:17:38.100Z</time>
      </trkpt>
      <trkpt lat="42.92496" lon="0.29021">
        <ele>1248</ele>
        <time>2017-02-09T10:17:39.100Z</time>
      </trkpt>
      <trkpt lat="42.92496" lon="0.29021">
        <ele>1248</ele>
        <time>2017-02-09T10:17:40.100Z</time>
      </trkpt>
      <trkpt lat="42.92496" lon="0.29022">
        <ele>1248</ele>
        <time>2017-02-09T10:17:41.100Z</time>
      </trkpt>
      <trkpt lat="42.92496" lon="0.29022">
        <ele>1248</ele>
        <time>2017-02-09T10:17:42.100Z</time>
      </trkpt>
      <trkpt lat="42.92496" lon="0.29022">
        <ele>1248</ele>
        <time>2017-02-09T10:17:43.100Z</time>
      </trkpt>
      <trkpt lat="42.92496" lon="0.29022">
        <ele>1248</ele>
        <time>2017-02-09T10:17:44.100Z</time>
      </trkpt>
      <trkpt lat="42.92491" lon="0.2902">
        <ele>1256</ele>
        <time>2017-02-09T10:17:45.100Z</time>
      </trkpt>
      <trkpt lat="42.92491" lon="0.29021">
        <ele>1255</ele>
        <time>2017-02-09T10:17:46.100Z</time>
      </trkpt>
      <trkpt lat="42.9249" lon="0.29021">
        <ele>1255</ele>
        <time>2017-02-09T10:17:47.100Z</time>
      </trkpt>
      <trkpt lat="42.9249" lon="0.29021">
        <ele>1255</ele>
        <time>2017-02-09T10:17:48.100Z</time>
      </trkpt>
      <trkpt lat="42.92489" lon="0.29021">
        <ele>1254</ele>
        <time>2017-02-09T10:17:49.100Z</time>
      </trkpt>
      <trkpt lat="42.92488" lon="0.29021">
        <ele>1254</ele>
        <time>2017-02-09T10:17:50.100Z</time>
      </trkpt>
      <trkpt lat="42.92488" lon="0.29021">
        <ele>1254</ele>
        <time>2017-02-09T10:17:51.100Z</time>
      </trkpt>
      <trkpt lat="42.92487" lon="0.29021">
        <ele>1254</ele>
        <time>2017-02-09T10:17:52.100Z</time>
      </trkpt>
      <trkpt lat="42.92487" lon="0.29021">
        <ele>1255</ele>
        <time>2017-02-09T10:17:53.100Z</time>
      </trkpt>
      <trkpt lat="42.92487" lon="0.2902">
        <ele>1255</ele>
        <time>2017-02-09T10:17:54.100Z</time>
      </trkpt>
      <trkpt lat="42.92486" lon="0.2902">
        <ele>1255</ele>
        <time>2017-02-09T10:17:55.100Z</time>
      </trkpt>
      <trkpt lat="42.92486" lon="0.2902">
        <ele>1255</ele>
        <time>2017-02-09T10:17:56.100Z</time>
      </trkpt>
      <trkpt lat="42.92485" lon="0.2902">
        <ele>1255</ele>
        <time>2017-02-09T10:17:57.100Z</time>
      </trkpt>
      <trkpt lat="42.92485" lon="0.29021">
        <ele>1255</ele>
        <time>2017-02-09T10:17:58.100Z</time>
      </trkpt>
      <trkpt lat="42.92484" lon="0.29021">
        <ele>1254</ele>
        <time>2017-02-09T10:17:59.100Z</time>
      </trkpt>
      <trkpt lat="42.92484" lon="0.29021">
        <ele>1254</ele>
        <time>2017-02-09T10:18:00.100Z</time>
      </trkpt>
      <trkpt lat="42.92483" lon="0.29021">
        <ele>1254</ele>
        <time>2017-02-09T10:18:01.100Z</time>
      </trkpt>
      <trkpt lat="42.92483" lon="0.29021">
        <ele>1254</ele>
        <time>2017-02-09T10:18:02.100Z</time>
      </trkpt>
      <trkpt lat="42.92482" lon="0.29021">
        <ele>1255</ele>
        <time>2017-02-09T10:18:03.100Z</time>
      </trkpt>
      <trkpt lat="42.92482" lon="0.29021">
        <ele>1255</ele>
        <time>2017-02-09T10:18:04.100Z</time>
      </trkpt>
      <trkpt lat="42.92481" lon="0.29021">
        <ele>1255</ele>
        <time>2017-02-09T10:18:05.100Z</time>
      </trkpt>
      <trkpt lat="42.92481" lon="0.29021">
        <ele>1255</ele>
        <time>2017-02-09T10:18:06.100Z</time>
      </trkpt>
      <trkpt lat="42.92481" lon="0.29022">
        <ele>1255</ele>
        <time>2017-02-09T10:18:07.100Z</time>
      </trkpt>
      <trkpt lat="42.9248" lon="0.29021">
        <ele>1255</ele>
        <time>2017-02-09T10:18:08.100Z</time>
      </trkpt>
      <trkpt lat="42.9248" lon="0.29021">
        <ele>1255</ele>
        <time>2017-02-09T10:18:09.100Z</time>
      </trkpt>
      <trkpt lat="42.9248" lon="0.2902">
        <ele>1255</ele>
        <time>2017-02-09T10:18:10.100Z</time>
      </trkpt>
      <trkpt lat="42.9248" lon="0.2902">
        <ele>1255</ele>
        <time>2017-02-09T10:18:11.100Z</time>
      </trkpt>
      <trkpt lat="42.9248" lon="0.2902">
        <ele>1255</ele>
        <time>2017-02-09T10:18:12.100Z</time>
      </trkpt>
      <trkpt lat="42.92479" lon="0.29021">
        <ele>1255</ele>
        <time>2017-02-09T10:18:13.100Z</time>
      </trkpt>
      <trkpt lat="42.92478" lon="0.29021">
        <ele>1255</ele>
        <time>2017-02-09T10:18:14.100Z</time>
      </trkpt>
      <trkpt lat="42.92477" lon="0.29022">
        <ele>1253</ele>
        <time>2017-02-09T10:18:15.100Z</time>
      </trkpt>
      <trkpt lat="42.92477" lon="0.29022">
        <ele>1253</ele>
        <time>2017-02-09T10:18:16.100Z</time>
      </trkpt>
      <trkpt lat="42.92476" lon="0.29022">
        <ele>1254</ele>
        <time>2017-02-09T10:18:17.100Z</time>
      </trkpt>
      <trkpt lat="42.92475" lon="0.29022">
        <ele>1253</ele>
        <time>2017-02-09T10:18:18.100Z</time>
      </trkpt>
      <trkpt lat="42.92475" lon="0.29022">
        <ele>1252</ele>
        <time>2017-02-09T10:18:19.100Z</time>
      </trkpt>
      <trkpt lat="42.92474" lon="0.29022">
        <ele>1252</ele>
        <time>2017-02-09T10:18:20.100Z</time>
      </trkpt>
      <trkpt lat="42.92473" lon="0.29022">
        <ele>1252</ele>
        <time>2017-02-09T10:18:21.100Z</time>
      </trkpt>
      <trkpt lat="42.92473" lon="0.29023">
        <ele>1252</ele>
        <time>2017-02-09T10:18:22.100Z</time>
      </trkpt>
      <trkpt lat="42.92472" lon="0.29023">
        <ele>1253</ele>
        <time>2017-02-09T10:18:23.100Z</time>
      </trkpt>
      <trkpt lat="42.92471" lon="0.29023">
        <ele>1253</ele>
        <time>2017-02-09T10:18:24.100Z</time>
      </trkpt>
      <trkpt lat="42.92471" lon="0.29023">
        <ele>1253</ele>
        <time>2017-02-09T10:18:25.100Z</time>
      </trkpt>
      <trkpt lat="42.9247" lon="0.29023">
        <ele>1253</ele>
        <time>2017-02-09T10:18:26.100Z</time>
      </trkpt>
      <trkpt lat="42.92469" lon="0.29023">
        <ele>1252</ele>
        <time>2017-02-09T10:18:27.100Z</time>
      </trkpt>
      <trkpt lat="42.92468" lon="0.29023">
        <ele>1253</ele>
        <time>2017-02-09T10:18:28.100Z</time>
      </trkpt>
      <trkpt lat="42.92468" lon="0.29023">
        <ele>1252</ele>
        <time>2017-02-09T10:18:29.100Z</time>
      </trkpt>
      <trkpt lat="42.92467" lon="0.29023">
        <ele>1253</ele>
        <time>2017-02-09T10:18:30.100Z</time>
      </trkpt>
      <trkpt lat="42.92467" lon="0.29023">
        <ele>1253</ele>
        <time>2017-02-09T10:18:31.100Z</time>
      </trkpt>
      <trkpt lat="42.92466" lon="0.29023">
        <ele>1254</ele>
        <time>2017-02-09T10:18:32.100Z</time>
      </trkpt>
      <trkpt lat="42.92466" lon="0.29023">
        <ele>1254</ele>
        <time>2017-02-09T10:18:33.100Z</time>
      </trkpt>
      <trkpt lat="42.92465" lon="0.29023">
        <ele>1254</ele>
        <time>2017-02-09T10:18:34.100Z</time>
      </trkpt>
      <trkpt lat="42.92464" lon="0.29023">
        <ele>1254</ele>
        <time>2017-02-09T10:18:35.100Z</time>
      </trkpt>
      <trkpt lat="42.92464" lon="0.29023">
        <ele>1255</ele>
        <time>2017-02-09T10:18:36.100Z</time>
      </trkpt>
      <trkpt lat="42.92463" lon="0.29023">
        <ele>1255</ele>
        <time>2017-02-09T10:18:37.100Z</time>
      </trkpt>
      <trkpt lat="42.92463" lon="0.29023">
        <ele>1255</ele>
        <time>2017-02-09T10:18:38.100Z</time>
      </trkpt>
      <trkpt lat="42.92462" lon="0.29023">
        <ele>1255</ele>
        <time>2017-02-09T10:18:39.100Z</time>
      </trkpt>
      <trkpt lat="42.92462" lon="0.29023">
        <ele>1255</ele>
        <time>2017-02-09T10:18:40.100Z</time>
      </trkpt>
      <trkpt lat="42.92461" lon="0.29023">
        <ele>1255</ele>
        <time>2017-02-09T10:18:41.100Z</time>
      </trkpt>
      <trkpt lat="42.92461" lon="0.29023">
        <ele>1255</ele>
        <time>2017-02-09T10:18:42.100Z</time>
      </trkpt>
      <trkpt lat="42.9246" lon="0.29023">
        <ele>1255</ele>
        <time>2017-02-09T10:18:43.100Z</time>
      </trkpt>
      <trkpt lat="42.9246" lon="0.29022">
        <ele>1255</ele>
        <time>2017-02-09T10:18:44.100Z</time>
      </trkpt>
      <trkpt lat="42.9246" lon="0.29022">
        <ele>1255</ele>
        <time>2017-02-09T10:18:45.100Z</time>
      </trkpt>
      <trkpt lat="42.92459" lon="0.29022">
        <ele>1255</ele>
        <time>2017-02-09T10:18:46.100Z</time>
      </trkpt>
      <trkpt lat="42.92458" lon="0.29021">
        <ele>1255</ele>
        <time>2017-02-09T10:18:47.100Z</time>
      </trkpt>
      <trkpt lat="42.92457" lon="0.29021">
        <ele>1255</ele>
        <time>2017-02-09T10:18:48.100Z</time>
      </trkpt>
      <trkpt lat="42.92457" lon="0.2902">
        <ele>1255</ele>
        <time>2017-02-09T10:18:49.100Z</time>
      </trkpt>
      <trkpt lat="42.92457" lon="0.2902">
        <ele>1255</ele>
        <time>2017-02-09T10:18:50.100Z</time>
      </trkpt>
      <trkpt lat="42.92456" lon="0.29019">
        <ele>1255</ele>
        <time>2017-02-09T10:18:51.100Z</time>
      </trkpt>
      <trkpt lat="42.92456" lon="0.29019">
        <ele>1255</ele>
        <time>2017-02-09T10:18:52.100Z</time>
      </trkpt>
      <trkpt lat="42.92455" lon="0.29018">
        <ele>1256</ele>
        <time>2017-02-09T10:18:53.100Z</time>
      </trkpt>
      <trkpt lat="42.92455" lon="0.29017">
        <ele>1255</ele>
        <time>2017-02-09T10:18:54.100Z</time>
      </trkpt>
      <trkpt lat="42.92454" lon="0.29017">
        <ele>1255</ele>
        <time>2017-02-09T10:18:55.100Z</time>
      </trkpt>
      <trkpt lat="42.92454" lon="0.29016">
        <ele>1255</ele>
        <time>2017-02-09T10:18:56.100Z</time>
      </trkpt>
      <trkpt lat="42.92453" lon="0.29015">
        <ele>1255</ele>
        <time>2017-02-09T10:18:57.100Z</time>
      </trkpt>
      <trkpt lat="42.92453" lon="0.29014">
        <ele>1256</ele>
        <time>2017-02-09T10:18:58.100Z</time>
      </trkpt>
      <trkpt lat="42.92453" lon="0.29013">
        <ele>1256</ele>
        <time>2017-02-09T10:18:59.100Z</time>
      </trkpt>
      <trkpt lat="42.92453" lon="0.29012">
        <ele>1257</ele>
        <time>2017-02-09T10:19:00.100Z</time>
      </trkpt>
      <trkpt lat="42.92453" lon="0.29011">
        <ele>1257</ele>
        <time>2017-02-09T10:19:01.100Z</time>
      </trkpt>
      <trkpt lat="42.92453" lon="0.2901">
        <ele>1256</ele>
        <time>2017-02-09T10:19:02.100Z</time>
      </trkpt>
      <trkpt lat="42.92453" lon="0.29009">
        <ele>1257</ele>
        <time>2017-02-09T10:19:03.100Z</time>
      </trkpt>
      <trkpt lat="42.92452" lon="0.29009">
        <ele>1257</ele>
        <time>2017-02-09T10:19:04.100Z</time>
      </trkpt>
      <trkpt lat="42.92452" lon="0.29008">
        <ele>1257</ele>
        <time>2017-02-09T10:19:05.100Z</time>
      </trkpt>
      <trkpt lat="42.92451" lon="0.29008">
        <ele>1257</ele>
        <time>2017-02-09T10:19:06.100Z</time>
      </trkpt>
      <trkpt lat="42.92451" lon="0.29007">
        <ele>1257</ele>
        <time>2017-02-09T10:19:07.100Z</time>
      </trkpt>
      <trkpt lat="42.9245" lon="0.29007">
        <ele>1257</ele>
        <time>2017-02-09T10:19:08.100Z</time>
      </trkpt>
      <trkpt lat="42.9245" lon="0.29006">
        <ele>1257</ele>
        <time>2017-02-09T10:19:09.100Z</time>
      </trkpt>
      <trkpt lat="42.9245" lon="0.29005">
        <ele>1257</ele>
        <time>2017-02-09T10:19:10.100Z</time>
      </trkpt>
      <trkpt lat="42.92449" lon="0.29005">
        <ele>1258</ele>
        <time>2017-02-09T10:19:11.100Z</time>
      </trkpt>
      <trkpt lat="42.92449" lon="0.29004">
        <ele>1258</ele>
        <time>2017-02-09T10:19:12.100Z</time>
      </trkpt>
      <trkpt lat="42.92449" lon="0.29004">
        <ele>1258</ele>
        <time>2017-02-09T10:19:13.100Z</time>
      </trkpt>
      <trkpt lat="42.92448" lon="0.29003">
        <ele>1258</ele>
        <time>2017-02-09T10:19:14.100Z</time>
      </trkpt>
      <trkpt lat="42.92448" lon="0.29003">
        <ele>1258</ele>
        <time>2017-02-09T10:19:15.100Z</time>
      </trkpt>
      <trkpt lat="42.92448" lon="0.29002">
        <ele>1258</ele>
        <time>2017-02-09T10:19:16.100Z</time>
      </trkpt>
      <trkpt lat="42.92447" lon="0.29002">
        <ele>1258</ele>
        <time>2017-02-09T10:19:17.100Z</time>
      </trkpt>
      <trkpt lat="42.92447" lon="0.29001">
        <ele>1258</ele>
        <time>2017-02-09T10:19:18.100Z</time>
      </trkpt>
      <trkpt lat="42.92447" lon="0.29">
        <ele>1259</ele>
        <time>2017-02-09T10:19:19.100Z</time>
      </trkpt>
      <trkpt lat="42.92447" lon="0.28999">
        <ele>1258</ele>
        <time>2017-02-09T10:19:20.100Z</time>
      </trkpt>
      <trkpt lat="42.92447" lon="0.28999">
        <ele>1259</ele>
        <time>2017-02-09T10:19:21.100Z</time>
      </trkpt>
      <trkpt lat="42.92446" lon="0.28998">
        <ele>1259</ele>
        <time>2017-02-09T10:19:22.100Z</time>
      </trkpt>
      <trkpt lat="42.92446" lon="0.28998">
        <ele>1259</ele>
        <time>2017-02-09T10:19:23.100Z</time>
      </trkpt>
      <trkpt lat="42.92445" lon="0.28997">
        <ele>1259</ele>
        <time>2017-02-09T10:19:24.100Z</time>
      </trkpt>
      <trkpt lat="42.92445" lon="0.28997">
        <ele>1259</ele>
        <time>2017-02-09T10:19:25.100Z</time>
      </trkpt>
      <trkpt lat="42.92445" lon="0.28996">
        <ele>1259</ele>
        <time>2017-02-09T10:19:26.100Z</time>
      </trkpt>
      <trkpt lat="42.92444" lon="0.28996">
        <ele>1258</ele>
        <time>2017-02-09T10:19:27.100Z</time>
      </trkpt>
      <trkpt lat="42.92444" lon="0.28995">
        <ele>1259</ele>
        <time>2017-02-09T10:19:28.100Z</time>
      </trkpt>
      <trkpt lat="42.92444" lon="0.28995">
        <ele>1259</ele>
        <time>2017-02-09T10:19:29.100Z</time>
      </trkpt>
      <trkpt lat="42.92443" lon="0.28994">
        <ele>1259</ele>
        <time>2017-02-09T10:19:30.100Z</time>
      </trkpt>
      <trkpt lat="42.92443" lon="0.28993">
        <ele>1259</ele>
        <time>2017-02-09T10:19:31.100Z</time>
      </trkpt>
      <trkpt lat="42.92443" lon="0.28993">
        <ele>1260</ele>
        <time>2017-02-09T10:19:32.100Z</time>
      </trkpt>
      <trkpt lat="42.92442" lon="0.28992">
        <ele>1260</ele>
        <time>2017-02-09T10:19:33.100Z</time>
      </trkpt>
      <trkpt lat="42.92442" lon="0.28992">
        <ele>1261</ele>
        <time>2017-02-09T10:19:34.100Z</time>
      </trkpt>
      <trkpt lat="42.92442" lon="0.28991">
        <ele>1261</ele>
        <time>2017-02-09T10:19:35.100Z</time>
      </trkpt>
      <trkpt lat="42.92442" lon="0.2899">
        <ele>1260</ele>
        <time>2017-02-09T10:19:36.100Z</time>
      </trkpt>
      <trkpt lat="42.92441" lon="0.28989">
        <ele>1261</ele>
        <time>2017-02-09T10:19:37.100Z</time>
      </trkpt>
      <trkpt lat="42.92441" lon="0.28989">
        <ele>1260</ele>
        <time>2017-02-09T10:19:38.100Z</time>
      </trkpt>
      <trkpt lat="42.92441" lon="0.28988">
        <ele>1261</ele>
        <time>2017-02-09T10:19:39.100Z</time>
      </trkpt>
      <trkpt lat="42.9244" lon="0.28987">
        <ele>1260</ele>
        <time>2017-02-09T10:19:40.100Z</time>
      </trkpt>
      <trkpt lat="42.9244" lon="0.28986">
        <ele>1260</ele>
        <time>2017-02-09T10:19:41.100Z</time>
      </trkpt>
      <trkpt lat="42.92439" lon="0.28986">
        <ele>1260</ele>
        <time>2017-02-09T10:19:42.100Z</time>
      </trkpt>
      <trkpt lat="42.92439" lon="0.28986">
        <ele>1260</ele>
        <time>2017-02-09T10:19:43.100Z</time>
      </trkpt>
      <trkpt lat="42.92438" lon="0.28985">
        <ele>1259</ele>
        <time>2017-02-09T10:19:44.100Z</time>
      </trkpt>
      <trkpt lat="42.92437" lon="0.28985">
        <ele>1259</ele>
        <time>2017-02-09T10:19:45.100Z</time>
      </trkpt>
      <trkpt lat="42.92437" lon="0.28984">
        <ele>1259</ele>
        <time>2017-02-09T10:19:46.100Z</time>
      </trkpt>
      <trkpt lat="42.92436" lon="0.28984">
        <ele>1259</ele>
        <time>2017-02-09T10:19:47.100Z</time>
      </trkpt>
      <trkpt lat="42.92435" lon="0.28984">
        <ele>1258</ele>
        <time>2017-02-09T10:19:48.100Z</time>
      </trkpt>
      <trkpt lat="42.92435" lon="0.28983">
        <ele>1259</ele>
        <time>2017-02-09T10:19:49.100Z</time>
      </trkpt>
      <trkpt lat="42.92434" lon="0.28983">
        <ele>1258</ele>
        <time>2017-02-09T10:19:50.100Z</time>
      </trkpt>
      <trkpt lat="42.92434" lon="0.28982">
        <ele>1258</ele>
        <time>2017-02-09T10:19:51.100Z</time>
      </trkpt>
      <trkpt lat="42.92434" lon="0.28981">
        <ele>1258</ele>
        <time>2017-02-09T10:19:52.100Z</time>
      </trkpt>
      <trkpt lat="42.92433" lon="0.28981">
        <ele>1258</ele>
        <time>2017-02-09T10:19:53.100Z</time>
      </trkpt>
      <trkpt lat="42.92433" lon="0.2898">
        <ele>1258</ele>
        <time>2017-02-09T10:19:54.100Z</time>
      </trkpt>
      <trkpt lat="42.92432" lon="0.2898">
        <ele>1257</ele>
        <time>2017-02-09T10:19:55.100Z</time>
      </trkpt>
      <trkpt lat="42.92432" lon="0.28979">
        <ele>1257</ele>
        <time>2017-02-09T10:19:56.100Z</time>
      </trkpt>
      <trkpt lat="42.92431" lon="0.28979">
        <ele>1258</ele>
        <time>2017-02-09T10:19:57.100Z</time>
      </trkpt>
      <trkpt lat="42.92431" lon="0.28979">
        <ele>1258</ele>
        <time>2017-02-09T10:19:58.100Z</time>
      </trkpt>
      <trkpt lat="42.9243" lon="0.28978">
        <ele>1257</ele>
        <time>2017-02-09T10:19:59.100Z</time>
      </trkpt>
      <trkpt lat="42.9243" lon="0.28978">
        <ele>1258</ele>
        <time>2017-02-09T10:20:00.100Z</time>
      </trkpt>
      <trkpt lat="42.92429" lon="0.28977">
        <ele>1258</ele>
        <time>2017-02-09T10:20:01.100Z</time>
      </trkpt>
      <trkpt lat="42.92428" lon="0.28977">
        <ele>1258</ele>
        <time>2017-02-09T10:20:02.100Z</time>
      </trkpt>
      <trkpt lat="42.92428" lon="0.28976">
        <ele>1258</ele>
        <time>2017-02-09T10:20:03.100Z</time>
      </trkpt>
      <trkpt lat="42.92427" lon="0.28976">
        <ele>1259</ele>
        <time>2017-02-09T10:20:04.100Z</time>
      </trkpt>
      <trkpt lat="42.92427" lon="0.28975">
        <ele>1259</ele>
        <time>2017-02-09T10:20:05.100Z</time>
      </trkpt>
      <trkpt lat="42.92426" lon="0.28975">
        <ele>1259</ele>
        <time>2017-02-09T10:20:06.100Z</time>
      </trkpt>
      <trkpt lat="42.92426" lon="0.28974">
        <ele>1260</ele>
        <time>2017-02-09T10:20:07.100Z</time>
      </trkpt>
      <trkpt lat="42.92425" lon="0.28974">
        <ele>1260</ele>
        <time>2017-02-09T10:20:08.100Z</time>
      </trkpt>
      <trkpt lat="42.92425" lon="0.28973">
        <ele>1260</ele>
        <time>2017-02-09T10:20:09.100Z</time>
      </trkpt>
      <trkpt lat="42.92424" lon="0.28973">
        <ele>1260</ele>
        <time>2017-02-09T10:20:10.100Z</time>
      </trkpt>
      <trkpt lat="42.92424" lon="0.28972">
        <ele>1260</ele>
        <time>2017-02-09T10:20:11.100Z</time>
      </trkpt>
      <trkpt lat="42.92423" lon="0.28972">
        <ele>1261</ele>
        <time>2017-02-09T10:20:12.100Z</time>
      </trkpt>
      <trkpt lat="42.92423" lon="0.28971">
        <ele>1261</ele>
        <time>2017-02-09T10:20:13.100Z</time>
      </trkpt>
      <trkpt lat="42.92422" lon="0.28971">
        <ele>1261</ele>
        <time>2017-02-09T10:20:14.100Z</time>
      </trkpt>
      <trkpt lat="42.92422" lon="0.2897">
        <ele>1261</ele>
        <time>2017-02-09T10:20:15.100Z</time>
      </trkpt>
      <trkpt lat="42.92421" lon="0.2897">
        <ele>1262</ele>
        <time>2017-02-09T10:20:16.100Z</time>
      </trkpt>
      <trkpt lat="42.92421" lon="0.2897">
        <ele>1262</ele>
        <time>2017-02-09T10:20:17.100Z</time>
      </trkpt>
      <trkpt lat="42.9242" lon="0.2897">
        <ele>1262</ele>
        <time>2017-02-09T10:20:18.100Z</time>
      </trkpt>
      <trkpt lat="42.92419" lon="0.2897">
        <ele>1261</ele>
        <time>2017-02-09T10:20:19.100Z</time>
      </trkpt>
      <trkpt lat="42.92419" lon="0.2897">
        <ele>1262</ele>
        <time>2017-02-09T10:20:20.100Z</time>
      </trkpt>
      <trkpt lat="42.92418" lon="0.2897">
        <ele>1262</ele>
        <time>2017-02-09T10:20:21.100Z</time>
      </trkpt>
      <trkpt lat="42.92418" lon="0.28969">
        <ele>1262</ele>
        <time>2017-02-09T10:20:22.100Z</time>
      </trkpt>
      <trkpt lat="42.92417" lon="0.28969">
        <ele>1262</ele>
        <time>2017-02-09T10:20:23.100Z</time>
      </trkpt>
      <trkpt lat="42.92417" lon="0.28969">
        <ele>1263</ele>
        <time>2017-02-09T10:20:24.100Z</time>
      </trkpt>
      <trkpt lat="42.92416" lon="0.28969">
        <ele>1263</ele>
        <time>2017-02-09T10:20:25.100Z</time>
      </trkpt>
      <trkpt lat="42.92416" lon="0.28969">
        <ele>1262</ele>
        <time>2017-02-09T10:20:26.100Z</time>
      </trkpt>
      <trkpt lat="42.92415" lon="0.2897">
        <ele>1262</ele>
        <time>2017-02-09T10:20:27.100Z</time>
      </trkpt>
      <trkpt lat="42.92415" lon="0.2897">
        <ele>1262</ele>
        <time>2017-02-09T10:20:28.100Z</time>
      </trkpt>
      <trkpt lat="42.92414" lon="0.2897">
        <ele>1262</ele>
        <time>2017-02-09T10:20:29.100Z</time>
      </trkpt>
      <trkpt lat="42.92413" lon="0.2897">
        <ele>1263</ele>
        <time>2017-02-09T10:20:30.100Z</time>
      </trkpt>
      <trkpt lat="42.92413" lon="0.2897">
        <ele>1265</ele>
        <time>2017-02-09T10:20:31.100Z</time>
      </trkpt>
      <trkpt lat="42.92412" lon="0.2897">
        <ele>1264</ele>
        <time>2017-02-09T10:20:32.100Z</time>
      </trkpt>
      <trkpt lat="42.92411" lon="0.2897">
        <ele>1263</ele>
        <time>2017-02-09T10:20:33.100Z</time>
      </trkpt>
      <trkpt lat="42.92411" lon="0.2897">
        <ele>1263</ele>
        <time>2017-02-09T10:20:34.100Z</time>
      </trkpt>
      <trkpt lat="42.9241" lon="0.2897">
        <ele>1263</ele>
        <time>2017-02-09T10:20:35.100Z</time>
      </trkpt>
      <trkpt lat="42.92409" lon="0.2897">
        <ele>1263</ele>
        <time>2017-02-09T10:20:36.100Z</time>
      </trkpt>
      <trkpt lat="42.92409" lon="0.2897">
        <ele>1263</ele>
        <time>2017-02-09T10:20:37.100Z</time>
      </trkpt>
      <trkpt lat="42.92408" lon="0.2897">
        <ele>1263</ele>
        <time>2017-02-09T10:20:38.100Z</time>
      </trkpt>
      <trkpt lat="42.92408" lon="0.2897">
        <ele>1264</ele>
        <time>2017-02-09T10:20:39.100Z</time>
      </trkpt>
      <trkpt lat="42.92407" lon="0.2897">
        <ele>1265</ele>
        <time>2017-02-09T10:20:40.100Z</time>
      </trkpt>
      <trkpt lat="42.92407" lon="0.2897">
        <ele>1266</ele>
        <time>2017-02-09T10:20:41.100Z</time>
      </trkpt>
      <trkpt lat="42.92406" lon="0.28969">
        <ele>1266</ele>
        <time>2017-02-09T10:20:42.100Z</time>
      </trkpt>
      <trkpt lat="42.92406" lon="0.28969">
        <ele>1267</ele>
        <time>2017-02-09T10:20:43.100Z</time>
      </trkpt>
      <trkpt lat="42.92405" lon="0.28969">
        <ele>1267</ele>
        <time>2017-02-09T10:20:44.100Z</time>
      </trkpt>
      <trkpt lat="42.92405" lon="0.28969">
        <ele>1267</ele>
        <time>2017-02-09T10:20:45.100Z</time>
      </trkpt>
      <trkpt lat="42.92404" lon="0.28969">
        <ele>1268</ele>
        <time>2017-02-09T10:20:46.100Z</time>
      </trkpt>
      <trkpt lat="42.92404" lon="0.28968">
        <ele>1268</ele>
        <time>2017-02-09T10:20:47.100Z</time>
      </trkpt>
      <trkpt lat="42.92404" lon="0.28968">
        <ele>1268</ele>
        <time>2017-02-09T10:20:48.100Z</time>
      </trkpt>
      <trkpt lat="42.92403" lon="0.28967">
        <ele>1269</ele>
        <time>2017-02-09T10:20:49.100Z</time>
      </trkpt>
      <trkpt lat="42.92403" lon="0.28967">
        <ele>1270</ele>
        <time>2017-02-09T10:20:50.100Z</time>
      </trkpt>
      <trkpt lat="42.92402" lon="0.28967">
        <ele>1270</ele>
        <time>2017-02-09T10:20:51.100Z</time>
      </trkpt>
      <trkpt lat="42.92402" lon="0.28967">
        <ele>1270</ele>
        <time>2017-02-09T10:20:52.100Z</time>
      </trkpt>
      <trkpt lat="42.92401" lon="0.28967">
        <ele>1271</ele>
        <time>2017-02-09T10:20:53.100Z</time>
      </trkpt>
      <trkpt lat="42.92401" lon="0.28967">
        <ele>1271</ele>
        <time>2017-02-09T10:20:54.100Z</time>
      </trkpt>
      <trkpt lat="42.924" lon="0.28967">
        <ele>1271</ele>
        <time>2017-02-09T10:20:55.100Z</time>
      </trkpt>
      <trkpt lat="42.92399" lon="0.28967">
        <ele>1271</ele>
        <time>2017-02-09T10:20:56.100Z</time>
      </trkpt>
      <trkpt lat="42.92399" lon="0.28967">
        <ele>1271</ele>
        <time>2017-02-09T10:20:57.100Z</time>
      </trkpt>
      <trkpt lat="42.92398" lon="0.28967">
        <ele>1270</ele>
        <time>2017-02-09T10:20:58.100Z</time>
      </trkpt>
      <trkpt lat="42.92397" lon="0.28967">
        <ele>1270</ele>
        <time>2017-02-09T10:20:59.100Z</time>
      </trkpt>
      <trkpt lat="42.92397" lon="0.28967">
        <ele>1270</ele>
        <time>2017-02-09T10:21:00.100Z</time>
      </trkpt>
      <trkpt lat="42.92397" lon="0.28966">
        <ele>1268</ele>
        <time>2017-02-09T10:21:01.100Z</time>
      </trkpt>
      <trkpt lat="42.92397" lon="0.28966">
        <ele>1268</ele>
        <time>2017-02-09T10:21:02.100Z</time>
      </trkpt>
      <trkpt lat="42.92396" lon="0.28966">
        <ele>1268</ele>
        <time>2017-02-09T10:21:03.100Z</time>
      </trkpt>
      <trkpt lat="42.92396" lon="0.28966">
        <ele>1268</ele>
        <time>2017-02-09T10:21:04.100Z</time>
      </trkpt>
      <trkpt lat="42.92395" lon="0.28966">
        <ele>1269</ele>
        <time>2017-02-09T10:21:05.100Z</time>
      </trkpt>
      <trkpt lat="42.92395" lon="0.28965">
        <ele>1269</ele>
        <time>2017-02-09T10:21:06.100Z</time>
      </trkpt>
      <trkpt lat="42.92395" lon="0.28964">
        <ele>1269</ele>
        <time>2017-02-09T10:21:07.100Z</time>
      </trkpt>
      <trkpt lat="42.92395" lon="0.28964">
        <ele>1269</ele>
        <time>2017-02-09T10:21:08.100Z</time>
      </trkpt>
      <trkpt lat="42.92394" lon="0.28963">
        <ele>1270</ele>
        <time>2017-02-09T10:21:09.100Z</time>
      </trkpt>
      <trkpt lat="42.92394" lon="0.28963">
        <ele>1270</ele>
        <time>2017-02-09T10:21:10.100Z</time>
      </trkpt>
      <trkpt lat="42.92394" lon="0.28963">
        <ele>1270</ele>
        <time>2017-02-09T10:21:11.100Z</time>
      </trkpt>
      <trkpt lat="42.92393" lon="0.28962">
        <ele>1270</ele>
        <time>2017-02-09T10:21:12.100Z</time>
      </trkpt>
      <trkpt lat="42.92393" lon="0.28962">
        <ele>1270</ele>
        <time>2017-02-09T10:21:13.100Z</time>
      </trkpt>
      <trkpt lat="42.92392" lon="0.28962">
        <ele>1270</ele>
        <time>2017-02-09T10:21:14.100Z</time>
      </trkpt>
      <trkpt lat="42.92391" lon="0.28962">
        <ele>1270</ele>
        <time>2017-02-09T10:21:15.100Z</time>
      </trkpt>
      <trkpt lat="42.9239" lon="0.28962">
        <ele>1268</ele>
        <time>2017-02-09T10:21:16.100Z</time>
      </trkpt>
      <trkpt lat="42.92389" lon="0.28961">
        <ele>1267</ele>
        <time>2017-02-09T10:21:17.100Z</time>
      </trkpt>
      <trkpt lat="42.92389" lon="0.28961">
        <ele>1267</ele>
        <time>2017-02-09T10:21:18.100Z</time>
      </trkpt>
      <trkpt lat="42.92388" lon="0.2896">
        <ele>1267</ele>
        <time>2017-02-09T10:21:19.100Z</time>
      </trkpt>
      <trkpt lat="42.92388" lon="0.2896">
        <ele>1267</ele>
        <time>2017-02-09T10:21:20.100Z</time>
      </trkpt>
      <trkpt lat="42.92387" lon="0.28959">
        <ele>1267</ele>
        <time>2017-02-09T10:21:21.100Z</time>
      </trkpt>
      <trkpt lat="42.92387" lon="0.28959">
        <ele>1267</ele>
        <time>2017-02-09T10:21:22.100Z</time>
      </trkpt>
      <trkpt lat="42.92386" lon="0.28958">
        <ele>1267</ele>
        <time>2017-02-09T10:21:23.100Z</time>
      </trkpt>
      <trkpt lat="42.92386" lon="0.28958">
        <ele>1266</ele>
        <time>2017-02-09T10:21:24.100Z</time>
      </trkpt>
      <trkpt lat="42.92385" lon="0.28957">
        <ele>1266</ele>
        <time>2017-02-09T10:21:25.100Z</time>
      </trkpt>
      <trkpt lat="42.92385" lon="0.28957">
        <ele>1266</ele>
        <time>2017-02-09T10:21:26.100Z</time>
      </trkpt>
      <trkpt lat="42.92385" lon="0.28956">
        <ele>1265</ele>
        <time>2017-02-09T10:21:27.100Z</time>
      </trkpt>
      <trkpt lat="42.92385" lon="0.28956">
        <ele>1266</ele>
        <time>2017-02-09T10:21:28.100Z</time>
      </trkpt>
      <trkpt lat="42.92384" lon="0.28955">
        <ele>1266</ele>
        <time>2017-02-09T10:21:29.100Z</time>
      </trkpt>
      <trkpt lat="42.92384" lon="0.28955">
        <ele>1266</ele>
        <time>2017-02-09T10:21:30.100Z</time>
      </trkpt>
      <trkpt lat="42.92383" lon="0.28954">
        <ele>1266</ele>
        <time>2017-02-09T10:21:31.100Z</time>
      </trkpt>
      <trkpt lat="42.92382" lon="0.28954">
        <ele>1266</ele>
        <time>2017-02-09T10:21:32.100Z</time>
      </trkpt>
      <trkpt lat="42.92382" lon="0.28953">
        <ele>1267</ele>
        <time>2017-02-09T10:21:33.100Z</time>
      </trkpt>
      <trkpt lat="42.92381" lon="0.28953">
        <ele>1267</ele>
        <time>2017-02-09T10:21:34.100Z</time>
      </trkpt>
      <trkpt lat="42.92381" lon="0.28952">
        <ele>1267</ele>
        <time>2017-02-09T10:21:35.100Z</time>
      </trkpt>
      <trkpt lat="42.92381" lon="0.28952">
        <ele>1267</ele>
        <time>2017-02-09T10:21:36.100Z</time>
      </trkpt>
      <trkpt lat="42.9238" lon="0.28951">
        <ele>1267</ele>
        <time>2017-02-09T10:21:37.100Z</time>
      </trkpt>
      <trkpt lat="42.9238" lon="0.2895">
        <ele>1267</ele>
        <time>2017-02-09T10:21:38.100Z</time>
      </trkpt>
      <trkpt lat="42.92379" lon="0.28949">
        <ele>1267</ele>
        <time>2017-02-09T10:21:39.100Z</time>
      </trkpt>
      <trkpt lat="42.92379" lon="0.28949">
        <ele>1267</ele>
        <time>2017-02-09T10:21:40.100Z</time>
      </trkpt>
      <trkpt lat="42.92379" lon="0.28948">
        <ele>1266</ele>
        <time>2017-02-09T10:21:41.100Z</time>
      </trkpt>
      <trkpt lat="42.92379" lon="0.28948">
        <ele>1266</ele>
        <time>2017-02-09T10:21:42.100Z</time>
      </trkpt>
      <trkpt lat="42.92379" lon="0.28947">
        <ele>1265</ele>
        <time>2017-02-09T10:21:43.100Z</time>
      </trkpt>
      <trkpt lat="42.92379" lon="0.28947">
        <ele>1265</ele>
        <time>2017-02-09T10:21:44.100Z</time>
      </trkpt>
      <trkpt lat="42.92379" lon="0.28947">
        <ele>1265</ele>
        <time>2017-02-09T10:21:45.100Z</time>
      </trkpt>
      <trkpt lat="42.92377" lon="0.28944">
        <ele>1263</ele>
        <time>2017-02-09T10:21:46.104Z</time>
      </trkpt>
      <trkpt lat="42.92377" lon="0.28944">
        <ele>1263</ele>
        <time>2017-02-09T10:21:47.104Z</time>
      </trkpt>
      <trkpt lat="42.92376" lon="0.28943">
        <ele>1264</ele>
        <time>2017-02-09T10:21:48.104Z</time>
      </trkpt>
      <trkpt lat="42.92376" lon="0.28943">
        <ele>1265</ele>
        <time>2017-02-09T10:21:49.104Z</time>
      </trkpt>
      <trkpt lat="42.92375" lon="0.28943">
        <ele>1264</ele>
        <time>2017-02-09T10:21:50.104Z</time>
      </trkpt>
      <trkpt lat="42.92375" lon="0.28942">
        <ele>1264</ele>
        <time>2017-02-09T10:21:51.104Z</time>
      </trkpt>
      <trkpt lat="42.92375" lon="0.28942">
        <ele>1265</ele>
        <time>2017-02-09T10:21:52.104Z</time>
      </trkpt>
      <trkpt lat="42.92374" lon="0.28942">
        <ele>1265</ele>
        <time>2017-02-09T10:21:53.104Z</time>
      </trkpt>
      <trkpt lat="42.92374" lon="0.28942">
        <ele>1265</ele>
        <time>2017-02-09T10:21:54.104Z</time>
      </trkpt>
      <trkpt lat="42.92373" lon="0.28941">
        <ele>1265</ele>
        <time>2017-02-09T10:21:55.104Z</time>
      </trkpt>
      <trkpt lat="42.92373" lon="0.28941">
        <ele>1266</ele>
        <time>2017-02-09T10:21:56.104Z</time>
      </trkpt>
      <trkpt lat="42.92373" lon="0.28941">
        <ele>1266</ele>
        <time>2017-02-09T10:21:57.104Z</time>
      </trkpt>
      <trkpt lat="42.92372" lon="0.28941">
        <ele>1267</ele>
        <time>2017-02-09T10:21:58.104Z</time>
      </trkpt>
      <trkpt lat="42.92372" lon="0.2894">
        <ele>1267</ele>
        <time>2017-02-09T10:21:59.104Z</time>
      </trkpt>
      <trkpt lat="42.92371" lon="0.2894">
        <ele>1267</ele>
        <time>2017-02-09T10:22:00.104Z</time>
      </trkpt>
      <trkpt lat="42.92371" lon="0.2894">
        <ele>1268</ele>
        <time>2017-02-09T10:22:01.104Z</time>
      </trkpt>
      <trkpt lat="42.9237" lon="0.2894">
        <ele>1268</ele>
        <time>2017-02-09T10:22:02.104Z</time>
      </trkpt>
      <trkpt lat="42.9237" lon="0.2894">
        <ele>1269</ele>
        <time>2017-02-09T10:22:03.104Z</time>
      </trkpt>
      <trkpt lat="42.92369" lon="0.2894">
        <ele>1269</ele>
        <time>2017-02-09T10:22:04.104Z</time>
      </trkpt>
      <trkpt lat="42.92368" lon="0.2894">
        <ele>1269</ele>
        <time>2017-02-09T10:22:05.104Z</time>
      </trkpt>
      <trkpt lat="42.92368" lon="0.2894">
        <ele>1270</ele>
        <time>2017-02-09T10:22:06.104Z</time>
      </trkpt>
      <trkpt lat="42.92367" lon="0.2894">
        <ele>1270</ele>
        <time>2017-02-09T10:22:07.104Z</time>
      </trkpt>
      <trkpt lat="42.92367" lon="0.28939">
        <ele>1270</ele>
        <time>2017-02-09T10:22:08.104Z</time>
      </trkpt>
      <trkpt lat="42.92366" lon="0.28939">
        <ele>1270</ele>
        <time>2017-02-09T10:22:09.104Z</time>
      </trkpt>
      <trkpt lat="42.92366" lon="0.28939">
        <ele>1271</ele>
        <time>2017-02-09T10:22:10.104Z</time>
      </trkpt>
      <trkpt lat="42.92365" lon="0.28939">
        <ele>1271</ele>
        <time>2017-02-09T10:22:11.104Z</time>
      </trkpt>
      <trkpt lat="42.92365" lon="0.28939">
        <ele>1272</ele>
        <time>2017-02-09T10:22:12.104Z</time>
      </trkpt>
      <trkpt lat="42.92364" lon="0.28939">
        <ele>1273</ele>
        <time>2017-02-09T10:22:13.104Z</time>
      </trkpt>
      <trkpt lat="42.92363" lon="0.28939">
        <ele>1273</ele>
        <time>2017-02-09T10:22:14.104Z</time>
      </trkpt>
      <trkpt lat="42.92363" lon="0.28939">
        <ele>1274</ele>
        <time>2017-02-09T10:22:15.104Z</time>
      </trkpt>
      <trkpt lat="42.92362" lon="0.28939">
        <ele>1274</ele>
        <time>2017-02-09T10:22:16.104Z</time>
      </trkpt>
      <trkpt lat="42.92362" lon="0.28939">
        <ele>1275</ele>
        <time>2017-02-09T10:22:17.104Z</time>
      </trkpt>
      <trkpt lat="42.92361" lon="0.28939">
        <ele>1276</ele>
        <time>2017-02-09T10:22:18.104Z</time>
      </trkpt>
      <trkpt lat="42.92361" lon="0.28939">
        <ele>1278</ele>
        <time>2017-02-09T10:22:19.104Z</time>
      </trkpt>
      <trkpt lat="42.92361" lon="0.28939">
        <ele>1278</ele>
        <time>2017-02-09T10:22:20.104Z</time>
      </trkpt>
      <trkpt lat="42.92361" lon="0.28939">
        <ele>1278</ele>
        <time>2017-02-09T10:22:21.104Z</time>
      </trkpt>
      <trkpt lat="42.9236" lon="0.28939">
        <ele>1278</ele>
        <time>2017-02-09T10:22:22.104Z</time>
      </trkpt>
      <trkpt lat="42.9236" lon="0.28939">
        <ele>1277</ele>
        <time>2017-02-09T10:22:23.104Z</time>
      </trkpt>
      <trkpt lat="42.92359" lon="0.28939">
        <ele>1275</ele>
        <time>2017-02-09T10:22:24.104Z</time>
      </trkpt>
      <trkpt lat="42.92358" lon="0.28939">
        <ele>1275</ele>
        <time>2017-02-09T10:22:25.104Z</time>
      </trkpt>
      <trkpt lat="42.92358" lon="0.28939">
        <ele>1275</ele>
        <time>2017-02-09T10:22:26.104Z</time>
      </trkpt>
      <trkpt lat="42.92357" lon="0.28939">
        <ele>1275</ele>
        <time>2017-02-09T10:22:27.104Z</time>
      </trkpt>
      <trkpt lat="42.92357" lon="0.28939">
        <ele>1272</ele>
        <time>2017-02-09T10:22:28.104Z</time>
      </trkpt>
      <trkpt lat="42.92356" lon="0.28939">
        <ele>1273</ele>
        <time>2017-02-09T10:22:29.104Z</time>
      </trkpt>
      <trkpt lat="42.92356" lon="0.28939">
        <ele>1273</ele>
        <time>2017-02-09T10:22:30.104Z</time>
      </trkpt>
      <trkpt lat="42.92355" lon="0.28939">
        <ele>1273</ele>
        <time>2017-02-09T10:22:31.104Z</time>
      </trkpt>
      <trkpt lat="42.92354" lon="0.2894">
        <ele>1273</ele>
        <time>2017-02-09T10:22:32.104Z</time>
      </trkpt>
      <trkpt lat="42.92354" lon="0.2894">
        <ele>1273</ele>
        <time>2017-02-09T10:22:33.104Z</time>
      </trkpt>
      <trkpt lat="42.92353" lon="0.2894">
        <ele>1274</ele>
        <time>2017-02-09T10:22:34.104Z</time>
      </trkpt>
      <trkpt lat="42.92352" lon="0.2894">
        <ele>1274</ele>
        <time>2017-02-09T10:22:35.104Z</time>
      </trkpt>
      <trkpt lat="42.92351" lon="0.2894">
        <ele>1273</ele>
        <time>2017-02-09T10:22:36.104Z</time>
      </trkpt>
      <trkpt lat="42.92351" lon="0.2894">
        <ele>1272</ele>
        <time>2017-02-09T10:22:37.104Z</time>
      </trkpt>
      <trkpt lat="42.9235" lon="0.2894">
        <ele>1272</ele>
        <time>2017-02-09T10:22:38.104Z</time>
      </trkpt>
      <trkpt lat="42.92349" lon="0.2894">
        <ele>1272</ele>
        <time>2017-02-09T10:22:39.104Z</time>
      </trkpt>
      <trkpt lat="42.92349" lon="0.28941">
        <ele>1270</ele>
        <time>2017-02-09T10:22:40.104Z</time>
      </trkpt>
      <trkpt lat="42.92348" lon="0.28941">
        <ele>1271</ele>
        <time>2017-02-09T10:22:41.104Z</time>
      </trkpt>
      <trkpt lat="42.92347" lon="0.28941">
        <ele>1270</ele>
        <time>2017-02-09T10:22:42.104Z</time>
      </trkpt>
      <trkpt lat="42.92347" lon="0.28941">
        <ele>1270</ele>
        <time>2017-02-09T10:22:43.104Z</time>
      </trkpt>
      <trkpt lat="42.92346" lon="0.28941">
        <ele>1271</ele>
        <time>2017-02-09T10:22:44.104Z</time>
      </trkpt>
      <trkpt lat="42.92345" lon="0.28941">
        <ele>1271</ele>
        <time>2017-02-09T10:22:45.104Z</time>
      </trkpt>
      <trkpt lat="42.92345" lon="0.28941">
        <ele>1272</ele>
        <time>2017-02-09T10:22:46.104Z</time>
      </trkpt>
      <trkpt lat="42.92344" lon="0.28941">
        <ele>1272</ele>
        <time>2017-02-09T10:22:47.104Z</time>
      </trkpt>
      <trkpt lat="42.92344" lon="0.28941">
        <ele>1272</ele>
        <time>2017-02-09T10:22:48.104Z</time>
      </trkpt>
      <trkpt lat="42.92343" lon="0.28942">
        <ele>1272</ele>
        <time>2017-02-09T10:22:49.104Z</time>
      </trkpt>
      <trkpt lat="42.92343" lon="0.28941">
        <ele>1271</ele>
        <time>2017-02-09T10:22:50.104Z</time>
      </trkpt>
      <trkpt lat="42.92342" lon="0.28941">
        <ele>1271</ele>
        <time>2017-02-09T10:22:51.104Z</time>
      </trkpt>
      <trkpt lat="42.92342" lon="0.28941">
        <ele>1272</ele>
        <time>2017-02-09T10:22:52.104Z</time>
      </trkpt>
      <trkpt lat="42.92341" lon="0.28941">
        <ele>1272</ele>
        <time>2017-02-09T10:22:53.104Z</time>
      </trkpt>
      <trkpt lat="42.9234" lon="0.2894">
        <ele>1272</ele>
        <time>2017-02-09T10:22:54.104Z</time>
      </trkpt>
      <trkpt lat="42.9234" lon="0.2894">
        <ele>1271</ele>
        <time>2017-02-09T10:22:55.104Z</time>
      </trkpt>
      <trkpt lat="42.9234" lon="0.28939">
        <ele>1273</ele>
        <time>2017-02-09T10:22:56.104Z</time>
      </trkpt>
      <trkpt lat="42.92339" lon="0.28939">
        <ele>1272</ele>
        <time>2017-02-09T10:22:57.104Z</time>
      </trkpt>
      <trkpt lat="42.92339" lon="0.28939">
        <ele>1272</ele>
        <time>2017-02-09T10:22:58.104Z</time>
      </trkpt>
      <trkpt lat="42.92338" lon="0.28939">
        <ele>1273</ele>
        <time>2017-02-09T10:22:59.104Z</time>
      </trkpt>
      <trkpt lat="42.92338" lon="0.28939">
        <ele>1273</ele>
        <time>2017-02-09T10:23:00.104Z</time>
      </trkpt>
      <trkpt lat="42.92337" lon="0.28938">
        <ele>1274</ele>
        <time>2017-02-09T10:23:01.104Z</time>
      </trkpt>
      <trkpt lat="42.92337" lon="0.28938">
        <ele>1274</ele>
        <time>2017-02-09T10:23:02.104Z</time>
      </trkpt>
      <trkpt lat="42.92336" lon="0.28938">
        <ele>1274</ele>
        <time>2017-02-09T10:23:03.104Z</time>
      </trkpt>
      <trkpt lat="42.92336" lon="0.28938">
        <ele>1274</ele>
        <time>2017-02-09T10:23:04.104Z</time>
      </trkpt>
      <trkpt lat="42.92335" lon="0.28937">
        <ele>1274</ele>
        <time>2017-02-09T10:23:05.104Z</time>
      </trkpt>
      <trkpt lat="42.92335" lon="0.28937">
        <ele>1275</ele>
        <time>2017-02-09T10:23:06.104Z</time>
      </trkpt>
      <trkpt lat="42.92334" lon="0.28937">
        <ele>1276</ele>
        <time>2017-02-09T10:23:07.104Z</time>
      </trkpt>
      <trkpt lat="42.92334" lon="0.28936">
        <ele>1275</ele>
        <time>2017-02-09T10:23:08.104Z</time>
      </trkpt>
      <trkpt lat="42.92334" lon="0.28935">
        <ele>1276</ele>
        <time>2017-02-09T10:23:09.104Z</time>
      </trkpt>
      <trkpt lat="42.92333" lon="0.28935">
        <ele>1276</ele>
        <time>2017-02-09T10:23:10.104Z</time>
      </trkpt>
      <trkpt lat="42.92333" lon="0.28934">
        <ele>1276</ele>
        <time>2017-02-09T10:23:11.104Z</time>
      </trkpt>
      <trkpt lat="42.92332" lon="0.28933">
        <ele>1277</ele>
        <time>2017-02-09T10:23:12.104Z</time>
      </trkpt>
      <trkpt lat="42.92332" lon="0.28933">
        <ele>1277</ele>
        <time>2017-02-09T10:23:13.104Z</time>
      </trkpt>
      <trkpt lat="42.92332" lon="0.28933">
        <ele>1277</ele>
        <time>2017-02-09T10:23:14.104Z</time>
      </trkpt>
      <trkpt lat="42.92331" lon="0.28932">
        <ele>1277</ele>
        <time>2017-02-09T10:23:15.104Z</time>
      </trkpt>
      <trkpt lat="42.92331" lon="0.28932">
        <ele>1277</ele>
        <time>2017-02-09T10:23:16.104Z</time>
      </trkpt>
      <trkpt lat="42.92331" lon="0.28932">
        <ele>1277</ele>
        <time>2017-02-09T10:23:17.104Z</time>
      </trkpt>
      <trkpt lat="42.92331" lon="0.28931">
        <ele>1277</ele>
        <time>2017-02-09T10:23:18.104Z</time>
      </trkpt>
      <trkpt lat="42.9233" lon="0.28931">
        <ele>1277</ele>
        <time>2017-02-09T10:23:19.104Z</time>
      </trkpt>
      <trkpt lat="42.9233" lon="0.28931">
        <ele>1277</ele>
        <time>2017-02-09T10:23:20.104Z</time>
      </trkpt>
      <trkpt lat="42.9233" lon="0.28931">
        <ele>1277</ele>
        <time>2017-02-09T10:23:21.104Z</time>
      </trkpt>
      <trkpt lat="42.92329" lon="0.28931">
        <ele>1277</ele>
        <time>2017-02-09T10:23:22.104Z</time>
      </trkpt>
      <trkpt lat="42.92329" lon="0.28931">
        <ele>1278</ele>
        <time>2017-02-09T10:23:23.104Z</time>
      </trkpt>
      <trkpt lat="42.92328" lon="0.28931">
        <ele>1278</ele>
        <time>2017-02-09T10:23:24.104Z</time>
      </trkpt>
      <trkpt lat="42.92328" lon="0.28931">
        <ele>1278</ele>
        <time>2017-02-09T10:23:25.104Z</time>
      </trkpt>
      <trkpt lat="42.92328" lon="0.28931">
        <ele>1278</ele>
        <time>2017-02-09T10:23:26.104Z</time>
      </trkpt>
      <trkpt lat="42.92327" lon="0.28931">
        <ele>1278</ele>
        <time>2017-02-09T10:23:27.104Z</time>
      </trkpt>
      <trkpt lat="42.92327" lon="0.28931">
        <ele>1277</ele>
        <time>2017-02-09T10:23:28.104Z</time>
      </trkpt>
      <trkpt lat="42.92327" lon="0.28931">
        <ele>1277</ele>
        <time>2017-02-09T10:23:29.104Z</time>
      </trkpt>
      <trkpt lat="42.92326" lon="0.28931">
        <ele>1277</ele>
        <time>2017-02-09T10:23:30.104Z</time>
      </trkpt>
      <trkpt lat="42.92326" lon="0.28931">
        <ele>1277</ele>
        <time>2017-02-09T10:23:31.104Z</time>
      </trkpt>
      <trkpt lat="42.92326" lon="0.28932">
        <ele>1278</ele>
        <time>2017-02-09T10:23:32.104Z</time>
      </trkpt>
      <trkpt lat="42.92325" lon="0.28932">
        <ele>1278</ele>
        <time>2017-02-09T10:23:33.104Z</time>
      </trkpt>
      <trkpt lat="42.92325" lon="0.28932">
        <ele>1278</ele>
        <time>2017-02-09T10:23:34.104Z</time>
      </trkpt>
      <trkpt lat="42.92325" lon="0.28932">
        <ele>1278</ele>
        <time>2017-02-09T10:23:35.104Z</time>
      </trkpt>
      <trkpt lat="42.92325" lon="0.28932">
        <ele>1278</ele>
        <time>2017-02-09T10:23:36.104Z</time>
      </trkpt>
      <trkpt lat="42.92324" lon="0.28932">
        <ele>1278</ele>
        <time>2017-02-09T10:23:37.104Z</time>
      </trkpt>
      <trkpt lat="42.92324" lon="0.28931">
        <ele>1278</ele>
        <time>2017-02-09T10:23:38.104Z</time>
      </trkpt>
      <trkpt lat="42.92323" lon="0.2893">
        <ele>1278</ele>
        <time>2017-02-09T10:23:39.104Z</time>
      </trkpt>
      <trkpt lat="42.92323" lon="0.28929">
        <ele>1279</ele>
        <time>2017-02-09T10:23:40.104Z</time>
      </trkpt>
      <trkpt lat="42.92322" lon="0.28928">
        <ele>1279</ele>
        <time>2017-02-09T10:23:41.104Z</time>
      </trkpt>
      <trkpt lat="42.92322" lon="0.28927">
        <ele>1279</ele>
        <time>2017-02-09T10:23:42.104Z</time>
      </trkpt>
      <trkpt lat="42.92322" lon="0.28926">
        <ele>1279</ele>
        <time>2017-02-09T10:23:43.104Z</time>
      </trkpt>
      <trkpt lat="42.92321" lon="0.28925">
        <ele>1279</ele>
        <time>2017-02-09T10:23:44.104Z</time>
      </trkpt>
      <trkpt lat="42.92321" lon="0.28924">
        <ele>1279</ele>
        <time>2017-02-09T10:23:45.104Z</time>
      </trkpt>
      <trkpt lat="42.9232" lon="0.28924">
        <ele>1279</ele>
        <time>2017-02-09T10:23:46.104Z</time>
      </trkpt>
      <trkpt lat="42.9232" lon="0.28923">
        <ele>1279</ele>
        <time>2017-02-09T10:23:47.104Z</time>
      </trkpt>
      <trkpt lat="42.92319" lon="0.28922">
        <ele>1279</ele>
        <time>2017-02-09T10:23:48.104Z</time>
      </trkpt>
      <trkpt lat="42.92319" lon="0.28921">
        <ele>1279</ele>
        <time>2017-02-09T10:23:49.104Z</time>
      </trkpt>
      <trkpt lat="42.92318" lon="0.2892">
        <ele>1279</ele>
        <time>2017-02-09T10:23:50.104Z</time>
      </trkpt>
      <trkpt lat="42.92318" lon="0.2892">
        <ele>1279</ele>
        <time>2017-02-09T10:23:51.104Z</time>
      </trkpt>
      <trkpt lat="42.92317" lon="0.28919">
        <ele>1279</ele>
        <time>2017-02-09T10:23:52.104Z</time>
      </trkpt>
      <trkpt lat="42.92317" lon="0.28918">
        <ele>1279</ele>
        <time>2017-02-09T10:23:53.104Z</time>
      </trkpt>
      <trkpt lat="42.92316" lon="0.28917">
        <ele>1279</ele>
        <time>2017-02-09T10:23:54.104Z</time>
      </trkpt>
      <trkpt lat="42.92316" lon="0.28916">
        <ele>1279</ele>
        <time>2017-02-09T10:23:55.104Z</time>
      </trkpt>
      <trkpt lat="42.92315" lon="0.28915">
        <ele>1279</ele>
        <time>2017-02-09T10:23:56.104Z</time>
      </trkpt>
      <trkpt lat="42.92315" lon="0.28914">
        <ele>1279</ele>
        <time>2017-02-09T10:23:57.104Z</time>
      </trkpt>
      <trkpt lat="42.92314" lon="0.28914">
        <ele>1279</ele>
        <time>2017-02-09T10:23:58.104Z</time>
      </trkpt>
      <trkpt lat="42.92314" lon="0.28913">
        <ele>1280</ele>
        <time>2017-02-09T10:23:59.104Z</time>
      </trkpt>
      <trkpt lat="42.92313" lon="0.28912">
        <ele>1280</ele>
        <time>2017-02-09T10:24:00.104Z</time>
      </trkpt>
      <trkpt lat="42.92313" lon="0.28911">
        <ele>1280</ele>
        <time>2017-02-09T10:24:01.104Z</time>
      </trkpt>
      <trkpt lat="42.92313" lon="0.2891">
        <ele>1280</ele>
        <time>2017-02-09T10:24:02.104Z</time>
      </trkpt>
      <trkpt lat="42.92312" lon="0.2891">
        <ele>1280</ele>
        <time>2017-02-09T10:24:03.104Z</time>
      </trkpt>
      <trkpt lat="42.92312" lon="0.28909">
        <ele>1280</ele>
        <time>2017-02-09T10:24:04.104Z</time>
      </trkpt>
      <trkpt lat="42.92312" lon="0.28909">
        <ele>1280</ele>
        <time>2017-02-09T10:24:05.104Z</time>
      </trkpt>
      <trkpt lat="42.92312" lon="0.28909">
        <ele>1280</ele>
        <time>2017-02-09T10:24:06.104Z</time>
      </trkpt>
      <trkpt lat="42.92312" lon="0.28909">
        <ele>1281</ele>
        <time>2017-02-09T10:24:07.104Z</time>
      </trkpt>
      <trkpt lat="42.92311" lon="0.2891">
        <ele>1281</ele>
        <time>2017-02-09T10:24:08.104Z</time>
      </trkpt>
      <trkpt lat="42.92311" lon="0.2891">
        <ele>1281</ele>
        <time>2017-02-09T10:24:09.104Z</time>
      </trkpt>
      <trkpt lat="42.92311" lon="0.2891">
        <ele>1281</ele>
        <time>2017-02-09T10:24:10.104Z</time>
      </trkpt>
      <trkpt lat="42.92309" lon="0.28907">
        <ele>1284</ele>
        <time>2017-02-09T10:24:11.112Z</time>
      </trkpt>
      <trkpt lat="42.92309" lon="0.28907">
        <ele>1284</ele>
        <time>2017-02-09T10:24:12.112Z</time>
      </trkpt>
      <trkpt lat="42.92308" lon="0.28906">
        <ele>1283</ele>
        <time>2017-02-09T10:24:13.112Z</time>
      </trkpt>
      <trkpt lat="42.92307" lon="0.28906">
        <ele>1283</ele>
        <time>2017-02-09T10:24:14.112Z</time>
      </trkpt>
      <trkpt lat="42.92307" lon="0.28905">
        <ele>1282</ele>
        <time>2017-02-09T10:24:15.112Z</time>
      </trkpt>
      <trkpt lat="42.92306" lon="0.28904">
        <ele>1282</ele>
        <time>2017-02-09T10:24:16.112Z</time>
      </trkpt>
      <trkpt lat="42.92306" lon="0.28903">
        <ele>1282</ele>
        <time>2017-02-09T10:24:17.112Z</time>
      </trkpt>
      <trkpt lat="42.92305" lon="0.28903">
        <ele>1282</ele>
        <time>2017-02-09T10:24:18.112Z</time>
      </trkpt>
      <trkpt lat="42.92305" lon="0.28902">
        <ele>1282</ele>
        <time>2017-02-09T10:24:19.112Z</time>
      </trkpt>
      <trkpt lat="42.92304" lon="0.28901">
        <ele>1282</ele>
        <time>2017-02-09T10:24:20.112Z</time>
      </trkpt>
      <trkpt lat="42.92304" lon="0.289">
        <ele>1282</ele>
        <time>2017-02-09T10:24:21.112Z</time>
      </trkpt>
      <trkpt lat="42.92303" lon="0.289">
        <ele>1282</ele>
        <time>2017-02-09T10:24:22.112Z</time>
      </trkpt>
      <trkpt lat="42.92303" lon="0.28899">
        <ele>1282</ele>
        <time>2017-02-09T10:24:23.112Z</time>
      </trkpt>
      <trkpt lat="42.92302" lon="0.28899">
        <ele>1282</ele>
        <time>2017-02-09T10:24:24.112Z</time>
      </trkpt>
      <trkpt lat="42.92302" lon="0.28898">
        <ele>1282</ele>
        <time>2017-02-09T10:24:25.112Z</time>
      </trkpt>
      <trkpt lat="42.92301" lon="0.28898">
        <ele>1282</ele>
        <time>2017-02-09T10:24:26.112Z</time>
      </trkpt>
      <trkpt lat="42.92301" lon="0.28898">
        <ele>1282</ele>
        <time>2017-02-09T10:24:27.112Z</time>
      </trkpt>
      <trkpt lat="42.92301" lon="0.28898">
        <ele>1283</ele>
        <time>2017-02-09T10:24:28.112Z</time>
      </trkpt>
      <trkpt lat="42.92301" lon="0.28898">
        <ele>1283</ele>
        <time>2017-02-09T10:24:29.112Z</time>
      </trkpt>
      <trkpt lat="42.92301" lon="0.28898">
        <ele>1284</ele>
        <time>2017-02-09T10:24:30.112Z</time>
      </trkpt>
      <trkpt lat="42.92301" lon="0.28898">
        <ele>1284</ele>
        <time>2017-02-09T10:24:31.112Z</time>
      </trkpt>
      <trkpt lat="42.92298" lon="0.28895">
        <ele>1284</ele>
        <time>2017-02-09T10:24:32.124Z</time>
      </trkpt>
      <trkpt lat="42.92297" lon="0.28895">
        <ele>1284</ele>
        <time>2017-02-09T10:24:33.124Z</time>
      </trkpt>
      <trkpt lat="42.92296" lon="0.28895">
        <ele>1284</ele>
        <time>2017-02-09T10:24:34.124Z</time>
      </trkpt>
      <trkpt lat="42.92296" lon="0.28894">
        <ele>1284</ele>
        <time>2017-02-09T10:24:35.124Z</time>
      </trkpt>
      <trkpt lat="42.92295" lon="0.28893">
        <ele>1284</ele>
        <time>2017-02-09T10:24:36.124Z</time>
      </trkpt>
      <trkpt lat="42.92294" lon="0.28893">
        <ele>1284</ele>
        <time>2017-02-09T10:24:37.124Z</time>
      </trkpt>
      <trkpt lat="42.92294" lon="0.28892">
        <ele>1284</ele>
        <time>2017-02-09T10:24:38.124Z</time>
      </trkpt>
      <trkpt lat="42.92293" lon="0.28892">
        <ele>1284</ele>
        <time>2017-02-09T10:24:39.124Z</time>
      </trkpt>
      <trkpt lat="42.92293" lon="0.28892">
        <ele>1284</ele>
        <time>2017-02-09T10:24:40.124Z</time>
      </trkpt>
      <trkpt lat="42.92292" lon="0.28891">
        <ele>1284</ele>
        <time>2017-02-09T10:24:41.124Z</time>
      </trkpt>
      <trkpt lat="42.92292" lon="0.28891">
        <ele>1284</ele>
        <time>2017-02-09T10:24:42.124Z</time>
      </trkpt>
      <trkpt lat="42.92291" lon="0.2889">
        <ele>1284</ele>
        <time>2017-02-09T10:24:43.124Z</time>
      </trkpt>
      <trkpt lat="42.92291" lon="0.2889">
        <ele>1284</ele>
        <time>2017-02-09T10:24:44.124Z</time>
      </trkpt>
      <trkpt lat="42.9229" lon="0.28889">
        <ele>1284</ele>
        <time>2017-02-09T10:24:45.124Z</time>
      </trkpt>
      <trkpt lat="42.9229" lon="0.28888">
        <ele>1284</ele>
        <time>2017-02-09T10:24:46.124Z</time>
      </trkpt>
      <trkpt lat="42.92289" lon="0.28887">
        <ele>1284</ele>
        <time>2017-02-09T10:24:47.124Z</time>
      </trkpt>
      <trkpt lat="42.92289" lon="0.28886">
        <ele>1284</ele>
        <time>2017-02-09T10:24:48.124Z</time>
      </trkpt>
      <trkpt lat="42.92289" lon="0.28885">
        <ele>1285</ele>
        <time>2017-02-09T10:24:49.124Z</time>
      </trkpt>
      <trkpt lat="42.92288" lon="0.28883">
        <ele>1285</ele>
        <time>2017-02-09T10:24:50.124Z</time>
      </trkpt>
      <trkpt lat="42.92288" lon="0.28883">
        <ele>1285</ele>
        <time>2017-02-09T10:24:51.124Z</time>
      </trkpt>
      <trkpt lat="42.92287" lon="0.28882">
        <ele>1285</ele>
        <time>2017-02-09T10:24:52.124Z</time>
      </trkpt>
      <trkpt lat="42.92286" lon="0.28881">
        <ele>1286</ele>
        <time>2017-02-09T10:24:53.124Z</time>
      </trkpt>
      <trkpt lat="42.92286" lon="0.2888">
        <ele>1286</ele>
        <time>2017-02-09T10:24:54.124Z</time>
      </trkpt>
      <trkpt lat="42.92285" lon="0.2888">
        <ele>1286</ele>
        <time>2017-02-09T10:24:55.124Z</time>
      </trkpt>
      <trkpt lat="42.92285" lon="0.28879">
        <ele>1286</ele>
        <time>2017-02-09T10:24:56.124Z</time>
      </trkpt>
      <trkpt lat="42.92284" lon="0.28878">
        <ele>1286</ele>
        <time>2017-02-09T10:24:57.124Z</time>
      </trkpt>
      <trkpt lat="42.92283" lon="0.28878">
        <ele>1285</ele>
        <time>2017-02-09T10:24:58.124Z</time>
      </trkpt>
      <trkpt lat="42.92283" lon="0.28877">
        <ele>1285</ele>
        <time>2017-02-09T10:24:59.124Z</time>
      </trkpt>
      <trkpt lat="42.92282" lon="0.28876">
        <ele>1285</ele>
        <time>2017-02-09T10:25:00.124Z</time>
      </trkpt>
      <trkpt lat="42.92282" lon="0.28876">
        <ele>1285</ele>
        <time>2017-02-09T10:25:01.124Z</time>
      </trkpt>
      <trkpt lat="42.92281" lon="0.28875">
        <ele>1285</ele>
        <time>2017-02-09T10:25:02.124Z</time>
      </trkpt>
      <trkpt lat="42.9228" lon="0.28875">
        <ele>1285</ele>
        <time>2017-02-09T10:25:03.124Z</time>
      </trkpt>
      <trkpt lat="42.9228" lon="0.28874">
        <ele>1285</ele>
        <time>2017-02-09T10:25:04.124Z</time>
      </trkpt>
      <trkpt lat="42.92279" lon="0.28874">
        <ele>1286</ele>
        <time>2017-02-09T10:25:05.124Z</time>
      </trkpt>
      <trkpt lat="42.92278" lon="0.28873">
        <ele>1286</ele>
        <time>2017-02-09T10:25:06.124Z</time>
      </trkpt>
      <trkpt lat="42.92278" lon="0.28872">
        <ele>1286</ele>
        <time>2017-02-09T10:25:07.124Z</time>
      </trkpt>
      <trkpt lat="42.92277" lon="0.28872">
        <ele>1286</ele>
        <time>2017-02-09T10:25:08.124Z</time>
      </trkpt>
      <trkpt lat="42.92277" lon="0.28871">
        <ele>1287</ele>
        <time>2017-02-09T10:25:09.124Z</time>
      </trkpt>
      <trkpt lat="42.92276" lon="0.28871">
        <ele>1287</ele>
        <time>2017-02-09T10:25:10.124Z</time>
      </trkpt>
      <trkpt lat="42.92275" lon="0.2887">
        <ele>1287</ele>
        <time>2017-02-09T10:25:11.124Z</time>
      </trkpt>
      <trkpt lat="42.92275" lon="0.28869">
        <ele>1287</ele>
        <time>2017-02-09T10:25:12.124Z</time>
      </trkpt>
      <trkpt lat="42.92274" lon="0.28869">
        <ele>1287</ele>
        <time>2017-02-09T10:25:13.124Z</time>
      </trkpt>
      <trkpt lat="42.92273" lon="0.28868">
        <ele>1287</ele>
        <time>2017-02-09T10:25:14.124Z</time>
      </trkpt>
      <trkpt lat="42.92273" lon="0.28868">
        <ele>1287</ele>
        <time>2017-02-09T10:25:15.124Z</time>
      </trkpt>
      <trkpt lat="42.92272" lon="0.28867">
        <ele>1287</ele>
        <time>2017-02-09T10:25:16.124Z</time>
      </trkpt>
      <trkpt lat="42.92271" lon="0.28867">
        <ele>1287</ele>
        <time>2017-02-09T10:25:17.124Z</time>
      </trkpt>
      <trkpt lat="42.92271" lon="0.28866">
        <ele>1287</ele>
        <time>2017-02-09T10:25:18.124Z</time>
      </trkpt>
      <trkpt lat="42.9227" lon="0.28866">
        <ele>1287</ele>
        <time>2017-02-09T10:25:19.124Z</time>
      </trkpt>
      <trkpt lat="42.92269" lon="0.28865">
        <ele>1287</ele>
        <time>2017-02-09T10:25:20.124Z</time>
      </trkpt>
      <trkpt lat="42.92268" lon="0.28865">
        <ele>1287</ele>
        <time>2017-02-09T10:25:21.124Z</time>
      </trkpt>
      <trkpt lat="42.92268" lon="0.28865">
        <ele>1286</ele>
        <time>2017-02-09T10:25:22.124Z</time>
      </trkpt>
      <trkpt lat="42.92267" lon="0.28865">
        <ele>1286</ele>
        <time>2017-02-09T10:25:23.124Z</time>
      </trkpt>
      <trkpt lat="42.92266" lon="0.28864">
        <ele>1286</ele>
        <time>2017-02-09T10:25:24.124Z</time>
      </trkpt>
      <trkpt lat="42.92265" lon="0.28864">
        <ele>1286</ele>
        <time>2017-02-09T10:25:25.124Z</time>
      </trkpt>
      <trkpt lat="42.92264" lon="0.28864">
        <ele>1286</ele>
        <time>2017-02-09T10:25:26.124Z</time>
      </trkpt>
      <trkpt lat="42.92264" lon="0.28863">
        <ele>1286</ele>
        <time>2017-02-09T10:25:27.124Z</time>
      </trkpt>
      <trkpt lat="42.92263" lon="0.28862">
        <ele>1286</ele>
        <time>2017-02-09T10:25:28.124Z</time>
      </trkpt>
      <trkpt lat="42.92263" lon="0.28862">
        <ele>1286</ele>
        <time>2017-02-09T10:25:29.124Z</time>
      </trkpt>
      <trkpt lat="42.92262" lon="0.28861">
        <ele>1286</ele>
        <time>2017-02-09T10:25:30.124Z</time>
      </trkpt>
      <trkpt lat="42.92261" lon="0.2886">
        <ele>1286</ele>
        <time>2017-02-09T10:25:31.124Z</time>
      </trkpt>
      <trkpt lat="42.92261" lon="0.2886">
        <ele>1286</ele>
        <time>2017-02-09T10:25:32.124Z</time>
      </trkpt>
      <trkpt lat="42.9226" lon="0.2886">
        <ele>1286</ele>
        <time>2017-02-09T10:25:33.124Z</time>
      </trkpt>
      <trkpt lat="42.9226" lon="0.28859">
        <ele>1286</ele>
        <time>2017-02-09T10:25:34.124Z</time>
      </trkpt>
      <trkpt lat="42.92259" lon="0.28859">
        <ele>1286</ele>
        <time>2017-02-09T10:25:35.124Z</time>
      </trkpt>
      <trkpt lat="42.92258" lon="0.28858">
        <ele>1286</ele>
        <time>2017-02-09T10:25:36.124Z</time>
      </trkpt>
      <trkpt lat="42.92258" lon="0.28857">
        <ele>1286</ele>
        <time>2017-02-09T10:25:37.124Z</time>
      </trkpt>
      <trkpt lat="42.92257" lon="0.28857">
        <ele>1286</ele>
        <time>2017-02-09T10:25:38.124Z</time>
      </trkpt>
      <trkpt lat="42.92257" lon="0.28856">
        <ele>1286</ele>
        <time>2017-02-09T10:25:39.124Z</time>
      </trkpt>
      <trkpt lat="42.92256" lon="0.28855">
        <ele>1286</ele>
        <time>2017-02-09T10:25:40.124Z</time>
      </trkpt>
      <trkpt lat="42.92256" lon="0.28855">
        <ele>1287</ele>
        <time>2017-02-09T10:25:41.124Z</time>
      </trkpt>
      <trkpt lat="42.92255" lon="0.28855">
        <ele>1286</ele>
        <time>2017-02-09T10:25:42.124Z</time>
      </trkpt>
      <trkpt lat="42.92254" lon="0.28854">
        <ele>1286</ele>
        <time>2017-02-09T10:25:43.124Z</time>
      </trkpt>
      <trkpt lat="42.92254" lon="0.28854">
        <ele>1287</ele>
        <time>2017-02-09T10:25:44.124Z</time>
      </trkpt>
      <trkpt lat="42.92253" lon="0.28853">
        <ele>1287</ele>
        <time>2017-02-09T10:25:45.124Z</time>
      </trkpt>
      <trkpt lat="42.92252" lon="0.28853">
        <ele>1287</ele>
        <time>2017-02-09T10:25:46.124Z</time>
      </trkpt>
      <trkpt lat="42.92252" lon="0.28852">
        <ele>1287</ele>
        <time>2017-02-09T10:25:47.124Z</time>
      </trkpt>
      <trkpt lat="42.92251" lon="0.28852">
        <ele>1287</ele>
        <time>2017-02-09T10:25:48.124Z</time>
      </trkpt>
      <trkpt lat="42.9225" lon="0.28851">
        <ele>1287</ele>
        <time>2017-02-09T10:25:49.124Z</time>
      </trkpt>
      <trkpt lat="42.9225" lon="0.28851">
        <ele>1287</ele>
        <time>2017-02-09T10:25:50.124Z</time>
      </trkpt>
      <trkpt lat="42.92249" lon="0.2885">
        <ele>1287</ele>
        <time>2017-02-09T10:25:51.124Z</time>
      </trkpt>
      <trkpt lat="42.92249" lon="0.2885">
        <ele>1287</ele>
        <time>2017-02-09T10:25:52.124Z</time>
      </trkpt>
      <trkpt lat="42.92248" lon="0.28849">
        <ele>1288</ele>
        <time>2017-02-09T10:25:53.124Z</time>
      </trkpt>
      <trkpt lat="42.92247" lon="0.28849">
        <ele>1288</ele>
        <time>2017-02-09T10:25:54.124Z</time>
      </trkpt>
      <trkpt lat="42.92247" lon="0.28848">
        <ele>1288</ele>
        <time>2017-02-09T10:25:55.124Z</time>
      </trkpt>
      <trkpt lat="42.92246" lon="0.28847">
        <ele>1288</ele>
        <time>2017-02-09T10:25:56.124Z</time>
      </trkpt>
      <trkpt lat="42.92246" lon="0.28847">
        <ele>1288</ele>
        <time>2017-02-09T10:25:57.124Z</time>
      </trkpt>
      <trkpt lat="42.92245" lon="0.28846">
        <ele>1287</ele>
        <time>2017-02-09T10:25:58.124Z</time>
      </trkpt>
      <trkpt lat="42.92245" lon="0.28846">
        <ele>1287</ele>
        <time>2017-02-09T10:25:59.124Z</time>
      </trkpt>
      <trkpt lat="42.92244" lon="0.28845">
        <ele>1288</ele>
        <time>2017-02-09T10:26:00.124Z</time>
      </trkpt>
      <trkpt lat="42.92244" lon="0.28845">
        <ele>1287</ele>
        <time>2017-02-09T10:26:01.124Z</time>
      </trkpt>
      <trkpt lat="42.92243" lon="0.28844">
        <ele>1287</ele>
        <time>2017-02-09T10:26:02.124Z</time>
      </trkpt>
      <trkpt lat="42.92243" lon="0.28844">
        <ele>1287</ele>
        <time>2017-02-09T10:26:03.124Z</time>
      </trkpt>
      <trkpt lat="42.92242" lon="0.28843">
        <ele>1287</ele>
        <time>2017-02-09T10:26:04.124Z</time>
      </trkpt>
      <trkpt lat="42.92241" lon="0.28843">
        <ele>1288</ele>
        <time>2017-02-09T10:26:05.124Z</time>
      </trkpt>
      <trkpt lat="42.92241" lon="0.28842">
        <ele>1288</ele>
        <time>2017-02-09T10:26:06.124Z</time>
      </trkpt>
      <trkpt lat="42.9224" lon="0.28842">
        <ele>1288</ele>
        <time>2017-02-09T10:26:07.124Z</time>
      </trkpt>
      <trkpt lat="42.92239" lon="0.28841">
        <ele>1288</ele>
        <time>2017-02-09T10:26:08.124Z</time>
      </trkpt>
      <trkpt lat="42.92239" lon="0.28841">
        <ele>1288</ele>
        <time>2017-02-09T10:26:09.124Z</time>
      </trkpt>
      <trkpt lat="42.92238" lon="0.2884">
        <ele>1288</ele>
        <time>2017-02-09T10:26:10.124Z</time>
      </trkpt>
      <trkpt lat="42.92238" lon="0.28839">
        <ele>1289</ele>
        <time>2017-02-09T10:26:11.124Z</time>
      </trkpt>
      <trkpt lat="42.92237" lon="0.28839">
        <ele>1289</ele>
        <time>2017-02-09T10:26:12.124Z</time>
      </trkpt>
      <trkpt lat="42.92236" lon="0.28838">
        <ele>1289</ele>
        <time>2017-02-09T10:26:13.124Z</time>
      </trkpt>
      <trkpt lat="42.92235" lon="0.28838">
        <ele>1289</ele>
        <time>2017-02-09T10:26:14.124Z</time>
      </trkpt>
      <trkpt lat="42.92235" lon="0.28837">
        <ele>1289</ele>
        <time>2017-02-09T10:26:15.124Z</time>
      </trkpt>
      <trkpt lat="42.92234" lon="0.28837">
        <ele>1289</ele>
        <time>2017-02-09T10:26:16.124Z</time>
      </trkpt>
      <trkpt lat="42.92233" lon="0.28836">
        <ele>1289</ele>
        <time>2017-02-09T10:26:17.124Z</time>
      </trkpt>
      <trkpt lat="42.92233" lon="0.28835">
        <ele>1290</ele>
        <time>2017-02-09T10:26:18.124Z</time>
      </trkpt>
      <trkpt lat="42.92232" lon="0.28835">
        <ele>1289</ele>
        <time>2017-02-09T10:26:19.124Z</time>
      </trkpt>
      <trkpt lat="42.92232" lon="0.28835">
        <ele>1289</ele>
        <time>2017-02-09T10:26:20.124Z</time>
      </trkpt>
      <trkpt lat="42.92232" lon="0.28835">
        <ele>1289</ele>
        <time>2017-02-09T10:26:21.124Z</time>
      </trkpt>
      <trkpt lat="42.92231" lon="0.28835">
        <ele>1289</ele>
        <time>2017-02-09T10:26:22.124Z</time>
      </trkpt>
      <trkpt lat="42.92231" lon="0.28835">
        <ele>1288</ele>
        <time>2017-02-09T10:26:23.124Z</time>
      </trkpt>
      <trkpt lat="42.92232" lon="0.28835">
        <ele>1288</ele>
        <time>2017-02-09T10:26:24.124Z</time>
      </trkpt>
      <trkpt lat="42.92232" lon="0.28835">
        <ele>1288</ele>
        <time>2017-02-09T10:26:25.124Z</time>
      </trkpt>
      <trkpt lat="42.92232" lon="0.28835">
        <ele>1288</ele>
        <time>2017-02-09T10:26:26.124Z</time>
      </trkpt>
      <trkpt lat="42.92228" lon="0.28836">
        <ele>1287</ele>
        <time>2017-02-09T10:26:27.007Z</time>
      </trkpt>
      <trkpt lat="42.92228" lon="0.28835">
        <ele>1287</ele>
        <time>2017-02-09T10:26:28.007Z</time>
      </trkpt>
      <trkpt lat="42.92227" lon="0.28834">
        <ele>1288</ele>
        <time>2017-02-09T10:26:29.007Z</time>
      </trkpt>
      <trkpt lat="42.92226" lon="0.28834">
        <ele>1288</ele>
        <time>2017-02-09T10:26:30.007Z</time>
      </trkpt>
      <trkpt lat="42.92226" lon="0.28833">
        <ele>1288</ele>
        <time>2017-02-09T10:26:31.007Z</time>
      </trkpt>
      <trkpt lat="42.92225" lon="0.28832">
        <ele>1288</ele>
        <time>2017-02-09T10:26:32.007Z</time>
      </trkpt>
      <trkpt lat="42.92225" lon="0.28832">
        <ele>1288</ele>
        <time>2017-02-09T10:26:33.007Z</time>
      </trkpt>
      <trkpt lat="42.92224" lon="0.28831">
        <ele>1288</ele>
        <time>2017-02-09T10:26:34.007Z</time>
      </trkpt>
      <trkpt lat="42.92224" lon="0.2883">
        <ele>1288</ele>
        <time>2017-02-09T10:26:35.007Z</time>
      </trkpt>
      <trkpt lat="42.92223" lon="0.28829">
        <ele>1288</ele>
        <time>2017-02-09T10:26:36.007Z</time>
      </trkpt>
      <trkpt lat="42.92223" lon="0.28829">
        <ele>1288</ele>
        <time>2017-02-09T10:26:37.007Z</time>
      </trkpt>
      <trkpt lat="42.92223" lon="0.28829">
        <ele>1288</ele>
        <time>2017-02-09T10:26:38.007Z</time>
      </trkpt>
      <trkpt lat="42.92223" lon="0.28829">
        <ele>1288</ele>
        <time>2017-02-09T10:26:39.007Z</time>
      </trkpt>
      <trkpt lat="42.92223" lon="0.28829">
        <ele>1288</ele>
        <time>2017-02-09T10:26:40.007Z</time>
      </trkpt>
      <trkpt lat="42.92223" lon="0.28829">
        <ele>1288</ele>
        <time>2017-02-09T10:26:41.007Z</time>
      </trkpt>
      <trkpt lat="42.92223" lon="0.28829">
        <ele>1287</ele>
        <time>2017-02-09T10:26:42.007Z</time>
      </trkpt>
      <trkpt lat="42.92222" lon="0.28825">
        <ele>1289</ele>
        <time>2017-02-09T10:26:43.015Z</time>
      </trkpt>
      <trkpt lat="42.92222" lon="0.28825">
        <ele>1289</ele>
        <time>2017-02-09T10:26:44.015Z</time>
      </trkpt>
      <trkpt lat="42.92221" lon="0.28824">
        <ele>1290</ele>
        <time>2017-02-09T10:26:45.015Z</time>
      </trkpt>
      <trkpt lat="42.9222" lon="0.28824">
        <ele>1290</ele>
        <time>2017-02-09T10:26:46.015Z</time>
      </trkpt>
      <trkpt lat="42.9222" lon="0.28823">
        <ele>1290</ele>
        <time>2017-02-09T10:26:47.015Z</time>
      </trkpt>
      <trkpt lat="42.92219" lon="0.28822">
        <ele>1290</ele>
        <time>2017-02-09T10:26:48.015Z</time>
      </trkpt>
      <trkpt lat="42.92219" lon="0.28822">
        <ele>1290</ele>
        <time>2017-02-09T10:26:49.015Z</time>
      </trkpt>
      <trkpt lat="42.92218" lon="0.28821">
        <ele>1291</ele>
        <time>2017-02-09T10:26:50.015Z</time>
      </trkpt>
      <trkpt lat="42.92217" lon="0.28821">
        <ele>1291</ele>
        <time>2017-02-09T10:26:51.015Z</time>
      </trkpt>
      <trkpt lat="42.92217" lon="0.2882">
        <ele>1290</ele>
        <time>2017-02-09T10:26:52.015Z</time>
      </trkpt>
      <trkpt lat="42.92216" lon="0.2882">
        <ele>1290</ele>
        <time>2017-02-09T10:26:53.015Z</time>
      </trkpt>
      <trkpt lat="42.92215" lon="0.28819">
        <ele>1290</ele>
        <time>2017-02-09T10:26:54.015Z</time>
      </trkpt>
      <trkpt lat="42.92215" lon="0.28819">
        <ele>1291</ele>
        <time>2017-02-09T10:26:55.015Z</time>
      </trkpt>
      <trkpt lat="42.92214" lon="0.28818">
        <ele>1291</ele>
        <time>2017-02-09T10:26:56.015Z</time>
      </trkpt>
      <trkpt lat="42.92213" lon="0.28818">
        <ele>1291</ele>
        <time>2017-02-09T10:26:57.015Z</time>
      </trkpt>
      <trkpt lat="42.92213" lon="0.28817">
        <ele>1291</ele>
        <time>2017-02-09T10:26:58.015Z</time>
      </trkpt>
      <trkpt lat="42.92212" lon="0.28817">
        <ele>1290</ele>
        <time>2017-02-09T10:26:59.015Z</time>
      </trkpt>
      <trkpt lat="42.92211" lon="0.28816">
        <ele>1290</ele>
        <time>2017-02-09T10:27:00.015Z</time>
      </trkpt>
      <trkpt lat="42.92211" lon="0.28816">
        <ele>1290</ele>
        <time>2017-02-09T10:27:01.015Z</time>
      </trkpt>
      <trkpt lat="42.9221" lon="0.28815">
        <ele>1291</ele>
        <time>2017-02-09T10:27:02.015Z</time>
      </trkpt>
      <trkpt lat="42.92209" lon="0.28815">
        <ele>1290</ele>
        <time>2017-02-09T10:27:03.015Z</time>
      </trkpt>
      <trkpt lat="42.92208" lon="0.28815">
        <ele>1290</ele>
        <time>2017-02-09T10:27:04.015Z</time>
      </trkpt>
      <trkpt lat="42.92207" lon="0.28814">
        <ele>1290</ele>
        <time>2017-02-09T10:27:05.015Z</time>
      </trkpt>
      <trkpt lat="42.92207" lon="0.28814">
        <ele>1290</ele>
        <time>2017-02-09T10:27:06.015Z</time>
      </trkpt>
      <trkpt lat="42.92206" lon="0.28814">
        <ele>1290</ele>
        <time>2017-02-09T10:27:07.015Z</time>
      </trkpt>
      <trkpt lat="42.92205" lon="0.28813">
        <ele>1290</ele>
        <time>2017-02-09T10:27:08.015Z</time>
      </trkpt>
      <trkpt lat="42.92205" lon="0.28812">
        <ele>1290</ele>
        <time>2017-02-09T10:27:09.015Z</time>
      </trkpt>
      <trkpt lat="42.92204" lon="0.28812">
        <ele>1290</ele>
        <time>2017-02-09T10:27:10.015Z</time>
      </trkpt>
      <trkpt lat="42.92203" lon="0.28811">
        <ele>1290</ele>
        <time>2017-02-09T10:27:11.015Z</time>
      </trkpt>
      <trkpt lat="42.92203" lon="0.28811">
        <ele>1291</ele>
        <time>2017-02-09T10:27:12.015Z</time>
      </trkpt>
      <trkpt lat="42.92202" lon="0.2881">
        <ele>1290</ele>
        <time>2017-02-09T10:27:13.015Z</time>
      </trkpt>
      <trkpt lat="42.92201" lon="0.2881">
        <ele>1291</ele>
        <time>2017-02-09T10:27:14.015Z</time>
      </trkpt>
      <trkpt lat="42.922" lon="0.2881">
        <ele>1291</ele>
        <time>2017-02-09T10:27:15.015Z</time>
      </trkpt>
      <trkpt lat="42.922" lon="0.28809">
        <ele>1291</ele>
        <time>2017-02-09T10:27:16.015Z</time>
      </trkpt>
      <trkpt lat="42.92199" lon="0.28809">
        <ele>1291</ele>
        <time>2017-02-09T10:27:17.015Z</time>
      </trkpt>
      <trkpt lat="42.92198" lon="0.28808">
        <ele>1291</ele>
        <time>2017-02-09T10:27:18.015Z</time>
      </trkpt>
      <trkpt lat="42.92197" lon="0.28808">
        <ele>1291</ele>
        <time>2017-02-09T10:27:19.015Z</time>
      </trkpt>
      <trkpt lat="42.92197" lon="0.28807">
        <ele>1291</ele>
        <time>2017-02-09T10:27:20.015Z</time>
      </trkpt>
      <trkpt lat="42.92196" lon="0.28807">
        <ele>1291</ele>
        <time>2017-02-09T10:27:21.015Z</time>
      </trkpt>
      <trkpt lat="42.92196" lon="0.28806">
        <ele>1291</ele>
        <time>2017-02-09T10:27:22.015Z</time>
      </trkpt>
      <trkpt lat="42.92195" lon="0.28806">
        <ele>1290</ele>
        <time>2017-02-09T10:27:23.015Z</time>
      </trkpt>
      <trkpt lat="42.92194" lon="0.28805">
        <ele>1290</ele>
        <time>2017-02-09T10:27:24.015Z</time>
      </trkpt>
      <trkpt lat="42.92194" lon="0.28805">
        <ele>1290</ele>
        <time>2017-02-09T10:27:25.015Z</time>
      </trkpt>
      <trkpt lat="42.92193" lon="0.28804">
        <ele>1290</ele>
        <time>2017-02-09T10:27:26.015Z</time>
      </trkpt>
      <trkpt lat="42.92192" lon="0.28803">
        <ele>1291</ele>
        <time>2017-02-09T10:27:27.015Z</time>
      </trkpt>
      <trkpt lat="42.92192" lon="0.28803">
        <ele>1291</ele>
        <time>2017-02-09T10:27:28.015Z</time>
      </trkpt>
      <trkpt lat="42.92191" lon="0.28802">
        <ele>1291</ele>
        <time>2017-02-09T10:27:29.015Z</time>
      </trkpt>
      <trkpt lat="42.9219" lon="0.28802">
        <ele>1291</ele>
        <time>2017-02-09T10:27:30.015Z</time>
      </trkpt>
      <trkpt lat="42.92189" lon="0.28801">
        <ele>1291</ele>
        <time>2017-02-09T10:27:31.015Z</time>
      </trkpt>
      <trkpt lat="42.92189" lon="0.28801">
        <ele>1291</ele>
        <time>2017-02-09T10:27:32.015Z</time>
      </trkpt>
      <trkpt lat="42.92188" lon="0.288">
        <ele>1291</ele>
        <time>2017-02-09T10:27:33.015Z</time>
      </trkpt>
      <trkpt lat="42.92187" lon="0.288">
        <ele>1291</ele>
        <time>2017-02-09T10:27:34.015Z</time>
      </trkpt>
      <trkpt lat="42.92186" lon="0.28799">
        <ele>1291</ele>
        <time>2017-02-09T10:27:35.015Z</time>
      </trkpt>
      <trkpt lat="42.92186" lon="0.28799">
        <ele>1291</ele>
        <time>2017-02-09T10:27:36.015Z</time>
      </trkpt>
      <trkpt lat="42.92185" lon="0.28798">
        <ele>1291</ele>
        <time>2017-02-09T10:27:37.015Z</time>
      </trkpt>
      <trkpt lat="42.92184" lon="0.28798">
        <ele>1291</ele>
        <time>2017-02-09T10:27:38.015Z</time>
      </trkpt>
      <trkpt lat="42.92184" lon="0.28797">
        <ele>1291</ele>
        <time>2017-02-09T10:27:39.015Z</time>
      </trkpt>
      <trkpt lat="42.92183" lon="0.28797">
        <ele>1291</ele>
        <time>2017-02-09T10:27:40.015Z</time>
      </trkpt>
      <trkpt lat="42.92182" lon="0.28796">
        <ele>1292</ele>
        <time>2017-02-09T10:27:41.015Z</time>
      </trkpt>
      <trkpt lat="42.92182" lon="0.28795">
        <ele>1291</ele>
        <time>2017-02-09T10:27:42.015Z</time>
      </trkpt>
      <trkpt lat="42.92181" lon="0.28795">
        <ele>1292</ele>
        <time>2017-02-09T10:27:43.015Z</time>
      </trkpt>
      <trkpt lat="42.9218" lon="0.28795">
        <ele>1291</ele>
        <time>2017-02-09T10:27:44.015Z</time>
      </trkpt>
      <trkpt lat="42.9218" lon="0.28794">
        <ele>1291</ele>
        <time>2017-02-09T10:27:45.015Z</time>
      </trkpt>
      <trkpt lat="42.92179" lon="0.28794">
        <ele>1291</ele>
        <time>2017-02-09T10:27:46.015Z</time>
      </trkpt>
      <trkpt lat="42.92179" lon="0.28793">
        <ele>1292</ele>
        <time>2017-02-09T10:27:47.015Z</time>
      </trkpt>
      <trkpt lat="42.92178" lon="0.28793">
        <ele>1291</ele>
        <time>2017-02-09T10:27:48.015Z</time>
      </trkpt>
      <trkpt lat="42.92177" lon="0.28792">
        <ele>1292</ele>
        <time>2017-02-09T10:27:49.015Z</time>
      </trkpt>
      <trkpt lat="42.92176" lon="0.28791">
        <ele>1292</ele>
        <time>2017-02-09T10:27:50.015Z</time>
      </trkpt>
      <trkpt lat="42.92176" lon="0.28791">
        <ele>1292</ele>
        <time>2017-02-09T10:27:51.015Z</time>
      </trkpt>
      <trkpt lat="42.92175" lon="0.2879">
        <ele>1292</ele>
        <time>2017-02-09T10:27:52.015Z</time>
      </trkpt>
      <trkpt lat="42.92175" lon="0.28789">
        <ele>1292</ele>
        <time>2017-02-09T10:27:53.015Z</time>
      </trkpt>
      <trkpt lat="42.92174" lon="0.28788">
        <ele>1292</ele>
        <time>2017-02-09T10:27:54.015Z</time>
      </trkpt>
      <trkpt lat="42.92173" lon="0.28788">
        <ele>1292</ele>
        <time>2017-02-09T10:27:55.015Z</time>
      </trkpt>
      <trkpt lat="42.92173" lon="0.28787">
        <ele>1293</ele>
        <time>2017-02-09T10:27:56.015Z</time>
      </trkpt>
      <trkpt lat="42.92172" lon="0.28787">
        <ele>1293</ele>
        <time>2017-02-09T10:27:57.015Z</time>
      </trkpt>
      <trkpt lat="42.92171" lon="0.28787">
        <ele>1293</ele>
        <time>2017-02-09T10:27:58.015Z</time>
      </trkpt>
      <trkpt lat="42.9217" lon="0.28786">
        <ele>1293</ele>
        <time>2017-02-09T10:27:59.015Z</time>
      </trkpt>
      <trkpt lat="42.92169" lon="0.28786">
        <ele>1293</ele>
        <time>2017-02-09T10:28:00.015Z</time>
      </trkpt>
      <trkpt lat="42.92169" lon="0.28786">
        <ele>1293</ele>
        <time>2017-02-09T10:28:01.015Z</time>
      </trkpt>
      <trkpt lat="42.92168" lon="0.28785">
        <ele>1293</ele>
        <time>2017-02-09T10:28:02.015Z</time>
      </trkpt>
      <trkpt lat="42.92167" lon="0.28785">
        <ele>1293</ele>
        <time>2017-02-09T10:28:03.015Z</time>
      </trkpt>
      <trkpt lat="42.92166" lon="0.28784">
        <ele>1293</ele>
        <time>2017-02-09T10:28:04.015Z</time>
      </trkpt>
      <trkpt lat="42.92166" lon="0.28784">
        <ele>1293</ele>
        <time>2017-02-09T10:28:05.015Z</time>
      </trkpt>
      <trkpt lat="42.92165" lon="0.28784">
        <ele>1293</ele>
        <time>2017-02-09T10:28:06.015Z</time>
      </trkpt>
      <trkpt lat="42.92164" lon="0.28783">
        <ele>1293</ele>
        <time>2017-02-09T10:28:07.015Z</time>
      </trkpt>
      <trkpt lat="42.92163" lon="0.28783">
        <ele>1293</ele>
        <time>2017-02-09T10:28:08.015Z</time>
      </trkpt>
      <trkpt lat="42.92162" lon="0.28783">
        <ele>1293</ele>
        <time>2017-02-09T10:28:09.015Z</time>
      </trkpt>
      <trkpt lat="42.92162" lon="0.28782">
        <ele>1293</ele>
        <time>2017-02-09T10:28:10.015Z</time>
      </trkpt>
      <trkpt lat="42.92161" lon="0.28782">
        <ele>1293</ele>
        <time>2017-02-09T10:28:11.015Z</time>
      </trkpt>
      <trkpt lat="42.9216" lon="0.28782">
        <ele>1293</ele>
        <time>2017-02-09T10:28:12.015Z</time>
      </trkpt>
      <trkpt lat="42.9216" lon="0.28781">
        <ele>1293</ele>
        <time>2017-02-09T10:28:13.015Z</time>
      </trkpt>
      <trkpt lat="42.92159" lon="0.28781">
        <ele>1293</ele>
        <time>2017-02-09T10:28:14.015Z</time>
      </trkpt>
      <trkpt lat="42.92158" lon="0.2878">
        <ele>1293</ele>
        <time>2017-02-09T10:28:15.015Z</time>
      </trkpt>
      <trkpt lat="42.92157" lon="0.2878">
        <ele>1294</ele>
        <time>2017-02-09T10:28:16.015Z</time>
      </trkpt>
      <trkpt lat="42.92156" lon="0.2878">
        <ele>1294</ele>
        <time>2017-02-09T10:28:17.015Z</time>
      </trkpt>
      <trkpt lat="42.92156" lon="0.28779">
        <ele>1294</ele>
        <time>2017-02-09T10:28:18.015Z</time>
      </trkpt>
      <trkpt lat="42.92155" lon="0.28779">
        <ele>1294</ele>
        <time>2017-02-09T10:28:19.015Z</time>
      </trkpt>
      <trkpt lat="42.92154" lon="0.28778">
        <ele>1294</ele>
        <time>2017-02-09T10:28:20.015Z</time>
      </trkpt>
      <trkpt lat="42.92153" lon="0.28778">
        <ele>1294</ele>
        <time>2017-02-09T10:28:21.015Z</time>
      </trkpt>
      <trkpt lat="42.92152" lon="0.28778">
        <ele>1294</ele>
        <time>2017-02-09T10:28:22.015Z</time>
      </trkpt>
      <trkpt lat="42.92152" lon="0.28777">
        <ele>1294</ele>
        <time>2017-02-09T10:28:23.015Z</time>
      </trkpt>
      <trkpt lat="42.92151" lon="0.28777">
        <ele>1294</ele>
        <time>2017-02-09T10:28:24.015Z</time>
      </trkpt>
      <trkpt lat="42.9215" lon="0.28777">
        <ele>1294</ele>
        <time>2017-02-09T10:28:25.015Z</time>
      </trkpt>
      <trkpt lat="42.92149" lon="0.28776">
        <ele>1294</ele>
        <time>2017-02-09T10:28:26.015Z</time>
      </trkpt>
      <trkpt lat="42.92148" lon="0.28776">
        <ele>1294</ele>
        <time>2017-02-09T10:28:27.015Z</time>
      </trkpt>
      <trkpt lat="42.92148" lon="0.28776">
        <ele>1293</ele>
        <time>2017-02-09T10:28:28.015Z</time>
      </trkpt>
      <trkpt lat="42.92147" lon="0.28775">
        <ele>1294</ele>
        <time>2017-02-09T10:28:29.015Z</time>
      </trkpt>
      <trkpt lat="42.92147" lon="0.28774">
        <ele>1294</ele>
        <time>2017-02-09T10:28:30.015Z</time>
      </trkpt>
      <trkpt lat="42.92146" lon="0.28774">
        <ele>1294</ele>
        <time>2017-02-09T10:28:31.015Z</time>
      </trkpt>
      <trkpt lat="42.92145" lon="0.28773">
        <ele>1294</ele>
        <time>2017-02-09T10:28:32.015Z</time>
      </trkpt>
      <trkpt lat="42.92145" lon="0.28772">
        <ele>1294</ele>
        <time>2017-02-09T10:28:33.015Z</time>
      </trkpt>
      <trkpt lat="42.92144" lon="0.28772">
        <ele>1294</ele>
        <time>2017-02-09T10:28:34.015Z</time>
      </trkpt>
      <trkpt lat="42.92143" lon="0.28771">
        <ele>1294</ele>
        <time>2017-02-09T10:28:35.015Z</time>
      </trkpt>
      <trkpt lat="42.92143" lon="0.28771">
        <ele>1294</ele>
        <time>2017-02-09T10:28:36.015Z</time>
      </trkpt>
      <trkpt lat="42.92142" lon="0.2877">
        <ele>1294</ele>
        <time>2017-02-09T10:28:37.015Z</time>
      </trkpt>
      <trkpt lat="42.92141" lon="0.2877">
        <ele>1295</ele>
        <time>2017-02-09T10:28:38.015Z</time>
      </trkpt>
      <trkpt lat="42.9214" lon="0.28769">
        <ele>1295</ele>
        <time>2017-02-09T10:28:39.015Z</time>
      </trkpt>
      <trkpt lat="42.92139" lon="0.28769">
        <ele>1295</ele>
        <time>2017-02-09T10:28:40.015Z</time>
      </trkpt>
      <trkpt lat="42.92139" lon="0.28768">
        <ele>1294</ele>
        <time>2017-02-09T10:28:41.015Z</time>
      </trkpt>
      <trkpt lat="42.92138" lon="0.28767">
        <ele>1295</ele>
        <time>2017-02-09T10:28:42.015Z</time>
      </trkpt>
      <trkpt lat="42.92138" lon="0.28767">
        <ele>1294</ele>
        <time>2017-02-09T10:28:43.015Z</time>
      </trkpt>
      <trkpt lat="42.92137" lon="0.28766">
        <ele>1294</ele>
        <time>2017-02-09T10:28:44.015Z</time>
      </trkpt>
      <trkpt lat="42.92136" lon="0.28766">
        <ele>1294</ele>
        <time>2017-02-09T10:28:45.015Z</time>
      </trkpt>
      <trkpt lat="42.92135" lon="0.28765">
        <ele>1294</ele>
        <time>2017-02-09T10:28:46.015Z</time>
      </trkpt>
      <trkpt lat="42.92135" lon="0.28765">
        <ele>1294</ele>
        <time>2017-02-09T10:28:47.015Z</time>
      </trkpt>
      <trkpt lat="42.92134" lon="0.28764">
        <ele>1294</ele>
        <time>2017-02-09T10:28:48.015Z</time>
      </trkpt>
      <trkpt lat="42.92133" lon="0.28764">
        <ele>1294</ele>
        <time>2017-02-09T10:28:49.015Z</time>
      </trkpt>
      <trkpt lat="42.92132" lon="0.28763">
        <ele>1294</ele>
        <time>2017-02-09T10:28:50.015Z</time>
      </trkpt>
      <trkpt lat="42.92131" lon="0.28763">
        <ele>1294</ele>
        <time>2017-02-09T10:28:51.015Z</time>
      </trkpt>
      <trkpt lat="42.92131" lon="0.28762">
        <ele>1294</ele>
        <time>2017-02-09T10:28:52.015Z</time>
      </trkpt>
      <trkpt lat="42.9213" lon="0.28762">
        <ele>1294</ele>
        <time>2017-02-09T10:28:53.015Z</time>
      </trkpt>
      <trkpt lat="42.92129" lon="0.28761">
        <ele>1294</ele>
        <time>2017-02-09T10:28:54.015Z</time>
      </trkpt>
      <trkpt lat="42.92129" lon="0.28761">
        <ele>1294</ele>
        <time>2017-02-09T10:28:55.015Z</time>
      </trkpt>
      <trkpt lat="42.92128" lon="0.2876">
        <ele>1293</ele>
        <time>2017-02-09T10:28:56.015Z</time>
      </trkpt>
      <trkpt lat="42.92127" lon="0.2876">
        <ele>1293</ele>
        <time>2017-02-09T10:28:57.015Z</time>
      </trkpt>
      <trkpt lat="42.92127" lon="0.28759">
        <ele>1294</ele>
        <time>2017-02-09T10:28:58.015Z</time>
      </trkpt>
      <trkpt lat="42.92126" lon="0.28759">
        <ele>1294</ele>
        <time>2017-02-09T10:28:59.015Z</time>
      </trkpt>
      <trkpt lat="42.92125" lon="0.28758">
        <ele>1294</ele>
        <time>2017-02-09T10:29:00.015Z</time>
      </trkpt>
      <trkpt lat="42.92125" lon="0.28758">
        <ele>1294</ele>
        <time>2017-02-09T10:29:01.015Z</time>
      </trkpt>
      <trkpt lat="42.92124" lon="0.28757">
        <ele>1294</ele>
        <time>2017-02-09T10:29:02.015Z</time>
      </trkpt>
      <trkpt lat="42.92124" lon="0.28757">
        <ele>1294</ele>
        <time>2017-02-09T10:29:03.015Z</time>
      </trkpt>
      <trkpt lat="42.92123" lon="0.28756">
        <ele>1294</ele>
        <time>2017-02-09T10:29:04.015Z</time>
      </trkpt>
      <trkpt lat="42.92122" lon="0.28755">
        <ele>1294</ele>
        <time>2017-02-09T10:29:05.015Z</time>
      </trkpt>
      <trkpt lat="42.92122" lon="0.28754">
        <ele>1294</ele>
        <time>2017-02-09T10:29:06.015Z</time>
      </trkpt>
      <trkpt lat="42.92122" lon="0.28754">
        <ele>1294</ele>
        <time>2017-02-09T10:29:07.015Z</time>
      </trkpt>
      <trkpt lat="42.92121" lon="0.28753">
        <ele>1294</ele>
        <time>2017-02-09T10:29:08.015Z</time>
      </trkpt>
      <trkpt lat="42.92121" lon="0.28753">
        <ele>1294</ele>
        <time>2017-02-09T10:29:09.015Z</time>
      </trkpt>
      <trkpt lat="42.9212" lon="0.28752">
        <ele>1294</ele>
        <time>2017-02-09T10:29:10.015Z</time>
      </trkpt>
      <trkpt lat="42.9212" lon="0.28751">
        <ele>1294</ele>
        <time>2017-02-09T10:29:11.015Z</time>
      </trkpt>
      <trkpt lat="42.92119" lon="0.28751">
        <ele>1294</ele>
        <time>2017-02-09T10:29:12.015Z</time>
      </trkpt>
      <trkpt lat="42.92118" lon="0.2875">
        <ele>1294</ele>
        <time>2017-02-09T10:29:13.015Z</time>
      </trkpt>
      <trkpt lat="42.92118" lon="0.28749">
        <ele>1294</ele>
        <time>2017-02-09T10:29:14.015Z</time>
      </trkpt>
      <trkpt lat="42.92117" lon="0.28748">
        <ele>1294</ele>
        <time>2017-02-09T10:29:15.015Z</time>
      </trkpt>
      <trkpt lat="42.92117" lon="0.28747">
        <ele>1295</ele>
        <time>2017-02-09T10:29:16.015Z</time>
      </trkpt>
      <trkpt lat="42.92116" lon="0.28746">
        <ele>1294</ele>
        <time>2017-02-09T10:29:17.015Z</time>
      </trkpt>
      <trkpt lat="42.92116" lon="0.28745">
        <ele>1295</ele>
        <time>2017-02-09T10:29:18.015Z</time>
      </trkpt>
      <trkpt lat="42.92115" lon="0.28745">
        <ele>1295</ele>
        <time>2017-02-09T10:29:19.015Z</time>
      </trkpt>
      <trkpt lat="42.92114" lon="0.28744">
        <ele>1295</ele>
        <time>2017-02-09T10:29:20.015Z</time>
      </trkpt>
      <trkpt lat="42.92114" lon="0.28743">
        <ele>1294</ele>
        <time>2017-02-09T10:29:21.015Z</time>
      </trkpt>
      <trkpt lat="42.92113" lon="0.28742">
        <ele>1295</ele>
        <time>2017-02-09T10:29:22.015Z</time>
      </trkpt>
      <trkpt lat="42.92113" lon="0.28741">
        <ele>1295</ele>
        <time>2017-02-09T10:29:23.015Z</time>
      </trkpt>
      <trkpt lat="42.92112" lon="0.2874">
        <ele>1295</ele>
        <time>2017-02-09T10:29:24.015Z</time>
      </trkpt>
      <trkpt lat="42.92112" lon="0.28739">
        <ele>1295</ele>
        <time>2017-02-09T10:29:25.015Z</time>
      </trkpt>
      <trkpt lat="42.92111" lon="0.28739">
        <ele>1295</ele>
        <time>2017-02-09T10:29:26.015Z</time>
      </trkpt>
      <trkpt lat="42.92111" lon="0.28738">
        <ele>1295</ele>
        <time>2017-02-09T10:29:27.015Z</time>
      </trkpt>
      <trkpt lat="42.92111" lon="0.28737">
        <ele>1295</ele>
        <time>2017-02-09T10:29:28.015Z</time>
      </trkpt>
      <trkpt lat="42.92112" lon="0.28736">
        <ele>1295</ele>
        <time>2017-02-09T10:29:29.015Z</time>
      </trkpt>
      <trkpt lat="42.92112" lon="0.28735">
        <ele>1295</ele>
        <time>2017-02-09T10:29:30.015Z</time>
      </trkpt>
      <trkpt lat="42.92112" lon="0.28735">
        <ele>1295</ele>
        <time>2017-02-09T10:29:31.015Z</time>
      </trkpt>
      <trkpt lat="42.92112" lon="0.28735">
        <ele>1295</ele>
        <time>2017-02-09T10:29:32.015Z</time>
      </trkpt>
      <trkpt lat="42.92112" lon="0.28735">
        <ele>1295</ele>
        <time>2017-02-09T10:29:33.015Z</time>
      </trkpt>
      <trkpt lat="42.92112" lon="0.28734">
        <ele>1294</ele>
        <time>2017-02-09T10:29:34.015Z</time>
      </trkpt>
      <trkpt lat="42.92111" lon="0.28734">
        <ele>1294</ele>
        <time>2017-02-09T10:29:35.015Z</time>
      </trkpt>
      <trkpt lat="42.9211" lon="0.28733">
        <ele>1295</ele>
        <time>2017-02-09T10:29:36.015Z</time>
      </trkpt>
      <trkpt lat="42.92109" lon="0.28733">
        <ele>1295</ele>
        <time>2017-02-09T10:29:37.015Z</time>
      </trkpt>
      <trkpt lat="42.92109" lon="0.28732">
        <ele>1295</ele>
        <time>2017-02-09T10:29:38.015Z</time>
      </trkpt>
      <trkpt lat="42.92108" lon="0.28732">
        <ele>1296</ele>
        <time>2017-02-09T10:29:39.015Z</time>
      </trkpt>
      <trkpt lat="42.92107" lon="0.28731">
        <ele>1296</ele>
        <time>2017-02-09T10:29:40.015Z</time>
      </trkpt>
      <trkpt lat="42.92107" lon="0.28731">
        <ele>1295</ele>
        <time>2017-02-09T10:29:41.015Z</time>
      </trkpt>
      <trkpt lat="42.92106" lon="0.2873">
        <ele>1295</ele>
        <time>2017-02-09T10:29:42.015Z</time>
      </trkpt>
      <trkpt lat="42.92105" lon="0.2873">
        <ele>1296</ele>
        <time>2017-02-09T10:29:43.015Z</time>
      </trkpt>
      <trkpt lat="42.92105" lon="0.28729">
        <ele>1296</ele>
        <time>2017-02-09T10:29:44.015Z</time>
      </trkpt>
      <trkpt lat="42.92104" lon="0.28728">
        <ele>1296</ele>
        <time>2017-02-09T10:29:45.015Z</time>
      </trkpt>
      <trkpt lat="42.92103" lon="0.28728">
        <ele>1296</ele>
        <time>2017-02-09T10:29:46.015Z</time>
      </trkpt>
      <trkpt lat="42.92103" lon="0.28727">
        <ele>1296</ele>
        <time>2017-02-09T10:29:47.015Z</time>
      </trkpt>
      <trkpt lat="42.92102" lon="0.28726">
        <ele>1297</ele>
        <time>2017-02-09T10:29:48.015Z</time>
      </trkpt>
      <trkpt lat="42.92101" lon="0.28726">
        <ele>1297</ele>
        <time>2017-02-09T10:29:49.015Z</time>
      </trkpt>
      <trkpt lat="42.92101" lon="0.28725">
        <ele>1297</ele>
        <time>2017-02-09T10:29:50.015Z</time>
      </trkpt>
      <trkpt lat="42.921" lon="0.28724">
        <ele>1297</ele>
        <time>2017-02-09T10:29:51.015Z</time>
      </trkpt>
      <trkpt lat="42.92099" lon="0.28724">
        <ele>1297</ele>
        <time>2017-02-09T10:29:52.015Z</time>
      </trkpt>
      <trkpt lat="42.92098" lon="0.28723">
        <ele>1297</ele>
        <time>2017-02-09T10:29:53.015Z</time>
      </trkpt>
      <trkpt lat="42.92097" lon="0.28722">
        <ele>1297</ele>
        <time>2017-02-09T10:29:54.015Z</time>
      </trkpt>
      <trkpt lat="42.92097" lon="0.28722">
        <ele>1297</ele>
        <time>2017-02-09T10:29:55.015Z</time>
      </trkpt>
      <trkpt lat="42.92096" lon="0.28721">
        <ele>1297</ele>
        <time>2017-02-09T10:29:56.015Z</time>
      </trkpt>
      <trkpt lat="42.92095" lon="0.28721">
        <ele>1297</ele>
        <time>2017-02-09T10:29:57.015Z</time>
      </trkpt>
      <trkpt lat="42.92094" lon="0.2872">
        <ele>1297</ele>
        <time>2017-02-09T10:29:58.015Z</time>
      </trkpt>
      <trkpt lat="42.92094" lon="0.2872">
        <ele>1297</ele>
        <time>2017-02-09T10:29:59.015Z</time>
      </trkpt>
      <trkpt lat="42.92093" lon="0.28719">
        <ele>1297</ele>
        <time>2017-02-09T10:30:00.015Z</time>
      </trkpt>
      <trkpt lat="42.92092" lon="0.28719">
        <ele>1297</ele>
        <time>2017-02-09T10:30:01.015Z</time>
      </trkpt>
      <trkpt lat="42.92091" lon="0.28718">
        <ele>1297</ele>
        <time>2017-02-09T10:30:02.015Z</time>
      </trkpt>
      <trkpt lat="42.92091" lon="0.28718">
        <ele>1297</ele>
        <time>2017-02-09T10:30:03.015Z</time>
      </trkpt>
      <trkpt lat="42.9209" lon="0.28717">
        <ele>1297</ele>
        <time>2017-02-09T10:30:04.015Z</time>
      </trkpt>
      <trkpt lat="42.92089" lon="0.28717">
        <ele>1297</ele>
        <time>2017-02-09T10:30:05.015Z</time>
      </trkpt>
      <trkpt lat="42.92088" lon="0.28717">
        <ele>1297</ele>
        <time>2017-02-09T10:30:06.015Z</time>
      </trkpt>
      <trkpt lat="42.92088" lon="0.28716">
        <ele>1297</ele>
        <time>2017-02-09T10:30:07.015Z</time>
      </trkpt>
      <trkpt lat="42.92087" lon="0.28716">
        <ele>1297</ele>
        <time>2017-02-09T10:30:08.015Z</time>
      </trkpt>
      <trkpt lat="42.92086" lon="0.28716">
        <ele>1297</ele>
        <time>2017-02-09T10:30:09.015Z</time>
      </trkpt>
      <trkpt lat="42.92085" lon="0.28715">
        <ele>1297</ele>
        <time>2017-02-09T10:30:10.015Z</time>
      </trkpt>
      <trkpt lat="42.92084" lon="0.28715">
        <ele>1297</ele>
        <time>2017-02-09T10:30:11.015Z</time>
      </trkpt>
      <trkpt lat="42.92084" lon="0.28715">
        <ele>1297</ele>
        <time>2017-02-09T10:30:12.015Z</time>
      </trkpt>
      <trkpt lat="42.92083" lon="0.28714">
        <ele>1297</ele>
        <time>2017-02-09T10:30:13.015Z</time>
      </trkpt>
      <trkpt lat="42.92082" lon="0.28714">
        <ele>1297</ele>
        <time>2017-02-09T10:30:14.015Z</time>
      </trkpt>
      <trkpt lat="42.92081" lon="0.28713">
        <ele>1297</ele>
        <time>2017-02-09T10:30:15.015Z</time>
      </trkpt>
      <trkpt lat="42.92081" lon="0.28713">
        <ele>1297</ele>
        <time>2017-02-09T10:30:16.015Z</time>
      </trkpt>
      <trkpt lat="42.9208" lon="0.28712">
        <ele>1297</ele>
        <time>2017-02-09T10:30:17.015Z</time>
      </trkpt>
      <trkpt lat="42.92079" lon="0.28712">
        <ele>1298</ele>
        <time>2017-02-09T10:30:18.015Z</time>
      </trkpt>
      <trkpt lat="42.92078" lon="0.28712">
        <ele>1298</ele>
        <time>2017-02-09T10:30:19.015Z</time>
      </trkpt>
      <trkpt lat="42.92077" lon="0.28711">
        <ele>1298</ele>
        <time>2017-02-09T10:30:20.015Z</time>
      </trkpt>
      <trkpt lat="42.92077" lon="0.28711">
        <ele>1298</ele>
        <time>2017-02-09T10:30:21.015Z</time>
      </trkpt>
      <trkpt lat="42.92076" lon="0.2871">
        <ele>1298</ele>
        <time>2017-02-09T10:30:22.015Z</time>
      </trkpt>
      <trkpt lat="42.92075" lon="0.2871">
        <ele>1298</ele>
        <time>2017-02-09T10:30:23.015Z</time>
      </trkpt>
      <trkpt lat="42.92074" lon="0.28709">
        <ele>1298</ele>
        <time>2017-02-09T10:30:24.015Z</time>
      </trkpt>
      <trkpt lat="42.92074" lon="0.28709">
        <ele>1298</ele>
        <time>2017-02-09T10:30:25.015Z</time>
      </trkpt>
      <trkpt lat="42.92073" lon="0.28708">
        <ele>1298</ele>
        <time>2017-02-09T10:30:26.015Z</time>
      </trkpt>
      <trkpt lat="42.92072" lon="0.28708">
        <ele>1299</ele>
        <time>2017-02-09T10:30:27.015Z</time>
      </trkpt>
      <trkpt lat="42.92071" lon="0.28707">
        <ele>1298</ele>
        <time>2017-02-09T10:30:28.015Z</time>
      </trkpt>
      <trkpt lat="42.92071" lon="0.28707">
        <ele>1299</ele>
        <time>2017-02-09T10:30:29.015Z</time>
      </trkpt>
      <trkpt lat="42.9207" lon="0.28707">
        <ele>1299</ele>
        <time>2017-02-09T10:30:30.015Z</time>
      </trkpt>
      <trkpt lat="42.92069" lon="0.28706">
        <ele>1299</ele>
        <time>2017-02-09T10:30:31.015Z</time>
      </trkpt>
      <trkpt lat="42.92068" lon="0.28706">
        <ele>1299</ele>
        <time>2017-02-09T10:30:32.015Z</time>
      </trkpt>
      <trkpt lat="42.92067" lon="0.28706">
        <ele>1299</ele>
        <time>2017-02-09T10:30:33.015Z</time>
      </trkpt>
      <trkpt lat="42.92066" lon="0.28705">
        <ele>1299</ele>
        <time>2017-02-09T10:30:34.015Z</time>
      </trkpt>
      <trkpt lat="42.92066" lon="0.28705">
        <ele>1299</ele>
        <time>2017-02-09T10:30:35.015Z</time>
      </trkpt>
      <trkpt lat="42.92065" lon="0.28704">
        <ele>1299</ele>
        <time>2017-02-09T10:30:36.015Z</time>
      </trkpt>
      <trkpt lat="42.92064" lon="0.28704">
        <ele>1299</ele>
        <time>2017-02-09T10:30:37.015Z</time>
      </trkpt>
      <trkpt lat="42.92063" lon="0.28704">
        <ele>1299</ele>
        <time>2017-02-09T10:30:38.015Z</time>
      </trkpt>
      <trkpt lat="42.92063" lon="0.28703">
        <ele>1299</ele>
        <time>2017-02-09T10:30:39.015Z</time>
      </trkpt>
      <trkpt lat="42.92062" lon="0.28703">
        <ele>1299</ele>
        <time>2017-02-09T10:30:40.015Z</time>
      </trkpt>
      <trkpt lat="42.92061" lon="0.28703">
        <ele>1299</ele>
        <time>2017-02-09T10:30:41.015Z</time>
      </trkpt>
      <trkpt lat="42.9206" lon="0.28703">
        <ele>1299</ele>
        <time>2017-02-09T10:30:42.015Z</time>
      </trkpt>
      <trkpt lat="42.92059" lon="0.28702">
        <ele>1299</ele>
        <time>2017-02-09T10:30:43.015Z</time>
      </trkpt>
      <trkpt lat="42.92058" lon="0.28702">
        <ele>1299</ele>
        <time>2017-02-09T10:30:44.015Z</time>
      </trkpt>
      <trkpt lat="42.92057" lon="0.28702">
        <ele>1299</ele>
        <time>2017-02-09T10:30:45.015Z</time>
      </trkpt>
      <trkpt lat="42.92057" lon="0.28701">
        <ele>1299</ele>
        <time>2017-02-09T10:30:46.015Z</time>
      </trkpt>
      <trkpt lat="42.92056" lon="0.28701">
        <ele>1300</ele>
        <time>2017-02-09T10:30:47.015Z</time>
      </trkpt>
      <trkpt lat="42.92055" lon="0.287">
        <ele>1300</ele>
        <time>2017-02-09T10:30:48.015Z</time>
      </trkpt>
      <trkpt lat="42.92054" lon="0.287">
        <ele>1300</ele>
        <time>2017-02-09T10:30:49.015Z</time>
      </trkpt>
      <trkpt lat="42.92053" lon="0.287">
        <ele>1299</ele>
        <time>2017-02-09T10:30:50.015Z</time>
      </trkpt>
      <trkpt lat="42.92053" lon="0.287">
        <ele>1299</ele>
        <time>2017-02-09T10:30:51.015Z</time>
      </trkpt>
      <trkpt lat="42.92052" lon="0.28699">
        <ele>1299</ele>
        <time>2017-02-09T10:30:52.015Z</time>
      </trkpt>
      <trkpt lat="42.92051" lon="0.28699">
        <ele>1299</ele>
        <time>2017-02-09T10:30:53.015Z</time>
      </trkpt>
      <trkpt lat="42.9205" lon="0.28699">
        <ele>1299</ele>
        <time>2017-02-09T10:30:54.015Z</time>
      </trkpt>
      <trkpt lat="42.9205" lon="0.28698">
        <ele>1299</ele>
        <time>2017-02-09T10:30:55.015Z</time>
      </trkpt>
      <trkpt lat="42.92049" lon="0.28698">
        <ele>1299</ele>
        <time>2017-02-09T10:30:56.015Z</time>
      </trkpt>
      <trkpt lat="42.92048" lon="0.28697">
        <ele>1299</ele>
        <time>2017-02-09T10:30:57.015Z</time>
      </trkpt>
      <trkpt lat="42.92047" lon="0.28697">
        <ele>1299</ele>
        <time>2017-02-09T10:30:58.015Z</time>
      </trkpt>
      <trkpt lat="42.92046" lon="0.28697">
        <ele>1299</ele>
        <time>2017-02-09T10:30:59.015Z</time>
      </trkpt>
      <trkpt lat="42.92046" lon="0.28696">
        <ele>1298</ele>
        <time>2017-02-09T10:31:00.015Z</time>
      </trkpt>
      <trkpt lat="42.92045" lon="0.28696">
        <ele>1299</ele>
        <time>2017-02-09T10:31:01.015Z</time>
      </trkpt>
      <trkpt lat="42.92044" lon="0.28696">
        <ele>1299</ele>
        <time>2017-02-09T10:31:02.015Z</time>
      </trkpt>
      <trkpt lat="42.92043" lon="0.28696">
        <ele>1298</ele>
        <time>2017-02-09T10:31:03.015Z</time>
      </trkpt>
      <trkpt lat="42.92043" lon="0.28696">
        <ele>1298</ele>
        <time>2017-02-09T10:31:04.015Z</time>
      </trkpt>
      <trkpt lat="42.92042" lon="0.28696">
        <ele>1298</ele>
        <time>2017-02-09T10:31:05.015Z</time>
      </trkpt>
      <trkpt lat="42.92041" lon="0.28695">
        <ele>1298</ele>
        <time>2017-02-09T10:31:06.015Z</time>
      </trkpt>
      <trkpt lat="42.92041" lon="0.28695">
        <ele>1298</ele>
        <time>2017-02-09T10:31:07.015Z</time>
      </trkpt>
      <trkpt lat="42.92041" lon="0.28695">
        <ele>1298</ele>
        <time>2017-02-09T10:31:08.015Z</time>
      </trkpt>
      <trkpt lat="42.92041" lon="0.28695">
        <ele>1298</ele>
        <time>2017-02-09T10:31:09.015Z</time>
      </trkpt>
      <trkpt lat="42.92041" lon="0.28694">
        <ele>1297</ele>
        <time>2017-02-09T10:31:10.015Z</time>
      </trkpt>
      <trkpt lat="42.92041" lon="0.28694">
        <ele>1297</ele>
        <time>2017-02-09T10:31:11.015Z</time>
      </trkpt>
      <trkpt lat="42.9204" lon="0.28694">
        <ele>1297</ele>
        <time>2017-02-09T10:31:12.015Z</time>
      </trkpt>
      <trkpt lat="42.9204" lon="0.28694">
        <ele>1297</ele>
        <time>2017-02-09T10:31:13.015Z</time>
      </trkpt>
      <trkpt lat="42.92039" lon="0.28691">
        <ele>1299</ele>
        <time>2017-02-09T10:31:14.023Z</time>
      </trkpt>
      <trkpt lat="42.92039" lon="0.28691">
        <ele>1300</ele>
        <time>2017-02-09T10:31:15.023Z</time>
      </trkpt>
      <trkpt lat="42.92039" lon="0.28691">
        <ele>1300</ele>
        <time>2017-02-09T10:31:16.023Z</time>
      </trkpt>
      <trkpt lat="42.92038" lon="0.28692">
        <ele>1300</ele>
        <time>2017-02-09T10:31:17.023Z</time>
      </trkpt>
      <trkpt lat="42.92038" lon="0.28692">
        <ele>1300</ele>
        <time>2017-02-09T10:31:18.023Z</time>
      </trkpt>
      <trkpt lat="42.92037" lon="0.28692">
        <ele>1300</ele>
        <time>2017-02-09T10:31:19.023Z</time>
      </trkpt>
      <trkpt lat="42.92036" lon="0.28692">
        <ele>1300</ele>
        <time>2017-02-09T10:31:20.023Z</time>
      </trkpt>
      <trkpt lat="42.92035" lon="0.28691">
        <ele>1299</ele>
        <time>2017-02-09T10:31:21.023Z</time>
      </trkpt>
      <trkpt lat="42.92034" lon="0.28691">
        <ele>1299</ele>
        <time>2017-02-09T10:31:22.023Z</time>
      </trkpt>
      <trkpt lat="42.92034" lon="0.28691">
        <ele>1299</ele>
        <time>2017-02-09T10:31:23.023Z</time>
      </trkpt>
      <trkpt lat="42.92033" lon="0.2869">
        <ele>1299</ele>
        <time>2017-02-09T10:31:24.023Z</time>
      </trkpt>
      <trkpt lat="42.92032" lon="0.2869">
        <ele>1299</ele>
        <time>2017-02-09T10:31:25.023Z</time>
      </trkpt>
      <trkpt lat="42.92031" lon="0.28689">
        <ele>1300</ele>
        <time>2017-02-09T10:31:26.023Z</time>
      </trkpt>
      <trkpt lat="42.9203" lon="0.28689">
        <ele>1300</ele>
        <time>2017-02-09T10:31:27.023Z</time>
      </trkpt>
      <trkpt lat="42.92029" lon="0.28689">
        <ele>1300</ele>
        <time>2017-02-09T10:31:28.023Z</time>
      </trkpt>
      <trkpt lat="42.92029" lon="0.28688">
        <ele>1300</ele>
        <time>2017-02-09T10:31:29.023Z</time>
      </trkpt>
      <trkpt lat="42.92028" lon="0.28688">
        <ele>1300</ele>
        <time>2017-02-09T10:31:30.023Z</time>
      </trkpt>
      <trkpt lat="42.92027" lon="0.28687">
        <ele>1300</ele>
        <time>2017-02-09T10:31:31.023Z</time>
      </trkpt>
      <trkpt lat="42.92026" lon="0.28687">
        <ele>1300</ele>
        <time>2017-02-09T10:31:32.023Z</time>
      </trkpt>
      <trkpt lat="42.92025" lon="0.28687">
        <ele>1300</ele>
        <time>2017-02-09T10:31:33.023Z</time>
      </trkpt>
      <trkpt lat="42.92024" lon="0.28686">
        <ele>1300</ele>
        <time>2017-02-09T10:31:34.023Z</time>
      </trkpt>
      <trkpt lat="42.92023" lon="0.28686">
        <ele>1301</ele>
        <time>2017-02-09T10:31:35.023Z</time>
      </trkpt>
      <trkpt lat="42.92022" lon="0.28685">
        <ele>1300</ele>
        <time>2017-02-09T10:31:36.023Z</time>
      </trkpt>
      <trkpt lat="42.92021" lon="0.28685">
        <ele>1300</ele>
        <time>2017-02-09T10:31:37.023Z</time>
      </trkpt>
      <trkpt lat="42.9202" lon="0.28685">
        <ele>1300</ele>
        <time>2017-02-09T10:31:38.023Z</time>
      </trkpt>
      <trkpt lat="42.92019" lon="0.28684">
        <ele>1300</ele>
        <time>2017-02-09T10:31:39.023Z</time>
      </trkpt>
      <trkpt lat="42.92018" lon="0.28684">
        <ele>1300</ele>
        <time>2017-02-09T10:31:40.023Z</time>
      </trkpt>
      <trkpt lat="42.92017" lon="0.28684">
        <ele>1300</ele>
        <time>2017-02-09T10:31:41.023Z</time>
      </trkpt>
      <trkpt lat="42.92016" lon="0.28683">
        <ele>1300</ele>
        <time>2017-02-09T10:31:42.023Z</time>
      </trkpt>
      <trkpt lat="42.92015" lon="0.28683">
        <ele>1300</ele>
        <time>2017-02-09T10:31:43.023Z</time>
      </trkpt>
      <trkpt lat="42.92014" lon="0.28682">
        <ele>1300</ele>
        <time>2017-02-09T10:31:44.023Z</time>
      </trkpt>
      <trkpt lat="42.92013" lon="0.28682">
        <ele>1300</ele>
        <time>2017-02-09T10:31:45.023Z</time>
      </trkpt>
      <trkpt lat="42.92012" lon="0.28681">
        <ele>1300</ele>
        <time>2017-02-09T10:31:46.023Z</time>
      </trkpt>
      <trkpt lat="42.92011" lon="0.28681">
        <ele>1300</ele>
        <time>2017-02-09T10:31:47.023Z</time>
      </trkpt>
      <trkpt lat="42.9201" lon="0.2868">
        <ele>1300</ele>
        <time>2017-02-09T10:31:48.023Z</time>
      </trkpt>
      <trkpt lat="42.92009" lon="0.2868">
        <ele>1300</ele>
        <time>2017-02-09T10:31:49.023Z</time>
      </trkpt>
      <trkpt lat="42.92009" lon="0.28679">
        <ele>1300</ele>
        <time>2017-02-09T10:31:50.023Z</time>
      </trkpt>
      <trkpt lat="42.92008" lon="0.28679">
        <ele>1300</ele>
        <time>2017-02-09T10:31:51.023Z</time>
      </trkpt>
      <trkpt lat="42.92007" lon="0.28678">
        <ele>1300</ele>
        <time>2017-02-09T10:31:52.023Z</time>
      </trkpt>
      <trkpt lat="42.92006" lon="0.28678">
        <ele>1301</ele>
        <time>2017-02-09T10:31:53.023Z</time>
      </trkpt>
      <trkpt lat="42.92005" lon="0.28678">
        <ele>1301</ele>
        <time>2017-02-09T10:31:54.023Z</time>
      </trkpt>
      <trkpt lat="42.92004" lon="0.28677">
        <ele>1301</ele>
        <time>2017-02-09T10:31:55.023Z</time>
      </trkpt>
      <trkpt lat="42.92003" lon="0.28677">
        <ele>1301</ele>
        <time>2017-02-09T10:31:56.023Z</time>
      </trkpt>
      <trkpt lat="42.92002" lon="0.28677">
        <ele>1301</ele>
        <time>2017-02-09T10:31:57.023Z</time>
      </trkpt>
      <trkpt lat="42.92001" lon="0.28676">
        <ele>1301</ele>
        <time>2017-02-09T10:31:58.023Z</time>
      </trkpt>
      <trkpt lat="42.92" lon="0.28676">
        <ele>1301</ele>
        <time>2017-02-09T10:31:59.023Z</time>
      </trkpt>
      <trkpt lat="42.91999" lon="0.28675">
        <ele>1301</ele>
        <time>2017-02-09T10:32:00.023Z</time>
      </trkpt>
      <trkpt lat="42.91998" lon="0.28675">
        <ele>1301</ele>
        <time>2017-02-09T10:32:01.023Z</time>
      </trkpt>
      <trkpt lat="42.91997" lon="0.28674">
        <ele>1301</ele>
        <time>2017-02-09T10:32:02.023Z</time>
      </trkpt>
      <trkpt lat="42.91996" lon="0.28674">
        <ele>1302</ele>
        <time>2017-02-09T10:32:03.023Z</time>
      </trkpt>
      <trkpt lat="42.91995" lon="0.28673">
        <ele>1302</ele>
        <time>2017-02-09T10:32:04.023Z</time>
      </trkpt>
      <trkpt lat="42.91994" lon="0.28673">
        <ele>1302</ele>
        <time>2017-02-09T10:32:05.023Z</time>
      </trkpt>
      <trkpt lat="42.91993" lon="0.28673">
        <ele>1302</ele>
        <time>2017-02-09T10:32:06.023Z</time>
      </trkpt>
      <trkpt lat="42.91992" lon="0.28672">
        <ele>1302</ele>
        <time>2017-02-09T10:32:07.023Z</time>
      </trkpt>
      <trkpt lat="42.91991" lon="0.28672">
        <ele>1302</ele>
        <time>2017-02-09T10:32:08.023Z</time>
      </trkpt>
      <trkpt lat="42.9199" lon="0.28671">
        <ele>1302</ele>
        <time>2017-02-09T10:32:09.023Z</time>
      </trkpt>
      <trkpt lat="42.9199" lon="0.28671">
        <ele>1302</ele>
        <time>2017-02-09T10:32:10.023Z</time>
      </trkpt>
      <trkpt lat="42.91989" lon="0.2867">
        <ele>1302</ele>
        <time>2017-02-09T10:32:11.023Z</time>
      </trkpt>
      <trkpt lat="42.91988" lon="0.2867">
        <ele>1302</ele>
        <time>2017-02-09T10:32:12.023Z</time>
      </trkpt>
      <trkpt lat="42.91987" lon="0.28669">
        <ele>1303</ele>
        <time>2017-02-09T10:32:13.023Z</time>
      </trkpt>
      <trkpt lat="42.91986" lon="0.28669">
        <ele>1303</ele>
        <time>2017-02-09T10:32:14.023Z</time>
      </trkpt>
      <trkpt lat="42.91985" lon="0.28669">
        <ele>1303</ele>
        <time>2017-02-09T10:32:15.023Z</time>
      </trkpt>
      <trkpt lat="42.91984" lon="0.28668">
        <ele>1303</ele>
        <time>2017-02-09T10:32:16.023Z</time>
      </trkpt>
      <trkpt lat="42.91983" lon="0.28668">
        <ele>1303</ele>
        <time>2017-02-09T10:32:17.023Z</time>
      </trkpt>
      <trkpt lat="42.91982" lon="0.28667">
        <ele>1303</ele>
        <time>2017-02-09T10:32:18.023Z</time>
      </trkpt>
      <trkpt lat="42.91981" lon="0.28667">
        <ele>1302</ele>
        <time>2017-02-09T10:32:19.023Z</time>
      </trkpt>
      <trkpt lat="42.9198" lon="0.28667">
        <ele>1302</ele>
        <time>2017-02-09T10:32:20.023Z</time>
      </trkpt>
      <trkpt lat="42.91979" lon="0.28666">
        <ele>1303</ele>
        <time>2017-02-09T10:32:21.023Z</time>
      </trkpt>
      <trkpt lat="42.91978" lon="0.28666">
        <ele>1303</ele>
        <time>2017-02-09T10:32:22.023Z</time>
      </trkpt>
      <trkpt lat="42.91977" lon="0.28666">
        <ele>1303</ele>
        <time>2017-02-09T10:32:23.023Z</time>
      </trkpt>
      <trkpt lat="42.91976" lon="0.28665">
        <ele>1303</ele>
        <time>2017-02-09T10:32:24.023Z</time>
      </trkpt>
      <trkpt lat="42.91975" lon="0.28665">
        <ele>1303</ele>
        <time>2017-02-09T10:32:25.023Z</time>
      </trkpt>
      <trkpt lat="42.91974" lon="0.28665">
        <ele>1303</ele>
        <time>2017-02-09T10:32:26.023Z</time>
      </trkpt>
      <trkpt lat="42.91973" lon="0.28664">
        <ele>1303</ele>
        <time>2017-02-09T10:32:27.023Z</time>
      </trkpt>
      <trkpt lat="42.91972" lon="0.28664">
        <ele>1303</ele>
        <time>2017-02-09T10:32:28.023Z</time>
      </trkpt>
      <trkpt lat="42.91972" lon="0.28664">
        <ele>1303</ele>
        <time>2017-02-09T10:32:29.023Z</time>
      </trkpt>
      <trkpt lat="42.91971" lon="0.28663">
        <ele>1303</ele>
        <time>2017-02-09T10:32:30.023Z</time>
      </trkpt>
      <trkpt lat="42.9197" lon="0.28663">
        <ele>1303</ele>
        <time>2017-02-09T10:32:31.023Z</time>
      </trkpt>
      <trkpt lat="42.9197" lon="0.28663">
        <ele>1303</ele>
        <time>2017-02-09T10:32:32.023Z</time>
      </trkpt>
      <trkpt lat="42.91969" lon="0.28662">
        <ele>1303</ele>
        <time>2017-02-09T10:32:33.023Z</time>
      </trkpt>
      <trkpt lat="42.91969" lon="0.28662">
        <ele>1303</ele>
        <time>2017-02-09T10:32:34.023Z</time>
      </trkpt>
      <trkpt lat="42.91969" lon="0.28661">
        <ele>1303</ele>
        <time>2017-02-09T10:32:35.023Z</time>
      </trkpt>
      <trkpt lat="42.91969" lon="0.28661">
        <ele>1303</ele>
        <time>2017-02-09T10:32:36.023Z</time>
      </trkpt>
      <trkpt lat="42.91969" lon="0.28661">
        <ele>1303</ele>
        <time>2017-02-09T10:32:37.023Z</time>
      </trkpt>
      <trkpt lat="42.91969" lon="0.28661">
        <ele>1303</ele>
        <time>2017-02-09T10:32:38.023Z</time>
      </trkpt>
      <trkpt lat="42.91969" lon="0.28661">
        <ele>1303</ele>
        <time>2017-02-09T10:32:39.023Z</time>
      </trkpt>
      <trkpt lat="42.91969" lon="0.28661">
        <ele>1302</ele>
        <time>2017-02-09T10:32:40.023Z</time>
      </trkpt>
      <trkpt lat="42.91968" lon="0.28661">
        <ele>1304</ele>
        <time>2017-02-09T10:32:41.027Z</time>
      </trkpt>
      <trkpt lat="42.91968" lon="0.28661">
        <ele>1304</ele>
        <time>2017-02-09T10:32:42.027Z</time>
      </trkpt>
      <trkpt lat="42.91968" lon="0.28662">
        <ele>1303</ele>
        <time>2017-02-09T10:32:43.027Z</time>
      </trkpt>
      <trkpt lat="42.91968" lon="0.28662">
        <ele>1304</ele>
        <time>2017-02-09T10:32:44.027Z</time>
      </trkpt>
      <trkpt lat="42.91968" lon="0.28662">
        <ele>1304</ele>
        <time>2017-02-09T10:32:45.027Z</time>
      </trkpt>
      <trkpt lat="42.91966" lon="0.28661">
        <ele>1304</ele>
        <time>2017-02-09T10:32:46.038Z</time>
      </trkpt>
      <trkpt lat="42.91965" lon="0.28661">
        <ele>1304</ele>
        <time>2017-02-09T10:32:47.038Z</time>
      </trkpt>
      <trkpt lat="42.91964" lon="0.2866">
        <ele>1304</ele>
        <time>2017-02-09T10:32:48.038Z</time>
      </trkpt>
      <trkpt lat="42.91963" lon="0.2866">
        <ele>1305</ele>
        <time>2017-02-09T10:32:49.038Z</time>
      </trkpt>
      <trkpt lat="42.91962" lon="0.28659">
        <ele>1305</ele>
        <time>2017-02-09T10:32:50.038Z</time>
      </trkpt>
      <trkpt lat="42.91962" lon="0.28659">
        <ele>1305</ele>
        <time>2017-02-09T10:32:51.038Z</time>
      </trkpt>
      <trkpt lat="42.91961" lon="0.28659">
        <ele>1306</ele>
        <time>2017-02-09T10:32:52.038Z</time>
      </trkpt>
      <trkpt lat="42.9196" lon="0.28658">
        <ele>1305</ele>
        <time>2017-02-09T10:32:53.038Z</time>
      </trkpt>
      <trkpt lat="42.91959" lon="0.28658">
        <ele>1306</ele>
        <time>2017-02-09T10:32:54.038Z</time>
      </trkpt>
      <trkpt lat="42.91958" lon="0.28658">
        <ele>1306</ele>
        <time>2017-02-09T10:32:55.038Z</time>
      </trkpt>
      <trkpt lat="42.91957" lon="0.28657">
        <ele>1306</ele>
        <time>2017-02-09T10:32:56.038Z</time>
      </trkpt>
      <trkpt lat="42.91957" lon="0.28657">
        <ele>1306</ele>
        <time>2017-02-09T10:32:57.038Z</time>
      </trkpt>
      <trkpt lat="42.91956" lon="0.28657">
        <ele>1306</ele>
        <time>2017-02-09T10:32:58.038Z</time>
      </trkpt>
      <trkpt lat="42.91955" lon="0.28657">
        <ele>1306</ele>
        <time>2017-02-09T10:32:59.038Z</time>
      </trkpt>
      <trkpt lat="42.91954" lon="0.28656">
        <ele>1306</ele>
        <time>2017-02-09T10:33:00.038Z</time>
      </trkpt>
      <trkpt lat="42.91954" lon="0.28656">
        <ele>1306</ele>
        <time>2017-02-09T10:33:01.038Z</time>
      </trkpt>
      <trkpt lat="42.91953" lon="0.28656">
        <ele>1306</ele>
        <time>2017-02-09T10:33:02.038Z</time>
      </trkpt>
      <trkpt lat="42.91952" lon="0.28656">
        <ele>1306</ele>
        <time>2017-02-09T10:33:03.038Z</time>
      </trkpt>
      <trkpt lat="42.91951" lon="0.28656">
        <ele>1306</ele>
        <time>2017-02-09T10:33:04.038Z</time>
      </trkpt>
      <trkpt lat="42.9195" lon="0.28656">
        <ele>1306</ele>
        <time>2017-02-09T10:33:05.038Z</time>
      </trkpt>
      <trkpt lat="42.91949" lon="0.28656">
        <ele>1307</ele>
        <time>2017-02-09T10:33:06.038Z</time>
      </trkpt>
      <trkpt lat="42.91949" lon="0.28655">
        <ele>1307</ele>
        <time>2017-02-09T10:33:07.038Z</time>
      </trkpt>
      <trkpt lat="42.91948" lon="0.28655">
        <ele>1307</ele>
        <time>2017-02-09T10:33:08.038Z</time>
      </trkpt>
      <trkpt lat="42.91947" lon="0.28655">
        <ele>1307</ele>
        <time>2017-02-09T10:33:09.038Z</time>
      </trkpt>
      <trkpt lat="42.91946" lon="0.28654">
        <ele>1307</ele>
        <time>2017-02-09T10:33:10.038Z</time>
      </trkpt>
      <trkpt lat="42.91945" lon="0.28654">
        <ele>1307</ele>
        <time>2017-02-09T10:33:11.038Z</time>
      </trkpt>
      <trkpt lat="42.91945" lon="0.28654">
        <ele>1307</ele>
        <time>2017-02-09T10:33:12.038Z</time>
      </trkpt>
      <trkpt lat="42.91944" lon="0.28653">
        <ele>1307</ele>
        <time>2017-02-09T10:33:13.038Z</time>
      </trkpt>
      <trkpt lat="42.91943" lon="0.28653">
        <ele>1307</ele>
        <time>2017-02-09T10:33:14.038Z</time>
      </trkpt>
      <trkpt lat="42.91942" lon="0.28653">
        <ele>1307</ele>
        <time>2017-02-09T10:33:15.038Z</time>
      </trkpt>
      <trkpt lat="42.91942" lon="0.28652">
        <ele>1308</ele>
        <time>2017-02-09T10:33:16.038Z</time>
      </trkpt>
      <trkpt lat="42.91941" lon="0.28652">
        <ele>1307</ele>
        <time>2017-02-09T10:33:17.038Z</time>
      </trkpt>
      <trkpt lat="42.9194" lon="0.28652">
        <ele>1307</ele>
        <time>2017-02-09T10:33:18.038Z</time>
      </trkpt>
      <trkpt lat="42.91939" lon="0.28651">
        <ele>1307</ele>
        <time>2017-02-09T10:33:19.038Z</time>
      </trkpt>
      <trkpt lat="42.91939" lon="0.28651">
        <ele>1307</ele>
        <time>2017-02-09T10:33:20.038Z</time>
      </trkpt>
      <trkpt lat="42.91938" lon="0.28651">
        <ele>1307</ele>
        <time>2017-02-09T10:33:21.038Z</time>
      </trkpt>
      <trkpt lat="42.91937" lon="0.28651">
        <ele>1307</ele>
        <time>2017-02-09T10:33:22.038Z</time>
      </trkpt>
      <trkpt lat="42.91937" lon="0.2865">
        <ele>1307</ele>
        <time>2017-02-09T10:33:23.038Z</time>
      </trkpt>
      <trkpt lat="42.91936" lon="0.2865">
        <ele>1307</ele>
        <time>2017-02-09T10:33:24.038Z</time>
      </trkpt>
      <trkpt lat="42.91935" lon="0.28649">
        <ele>1307</ele>
        <time>2017-02-09T10:33:25.038Z</time>
      </trkpt>
      <trkpt lat="42.91934" lon="0.28649">
        <ele>1307</ele>
        <time>2017-02-09T10:33:26.038Z</time>
      </trkpt>
      <trkpt lat="42.91933" lon="0.28649">
        <ele>1307</ele>
        <time>2017-02-09T10:33:27.038Z</time>
      </trkpt>
      <trkpt lat="42.91933" lon="0.28649">
        <ele>1307</ele>
        <time>2017-02-09T10:33:28.038Z</time>
      </trkpt>
      <trkpt lat="42.91932" lon="0.28649">
        <ele>1306</ele>
        <time>2017-02-09T10:33:29.038Z</time>
      </trkpt>
      <trkpt lat="42.91931" lon="0.28648">
        <ele>1306</ele>
        <time>2017-02-09T10:33:30.038Z</time>
      </trkpt>
      <trkpt lat="42.9193" lon="0.28648">
        <ele>1307</ele>
        <time>2017-02-09T10:33:31.038Z</time>
      </trkpt>
      <trkpt lat="42.91929" lon="0.28648">
        <ele>1306</ele>
        <time>2017-02-09T10:33:32.038Z</time>
      </trkpt>
      <trkpt lat="42.91929" lon="0.28647">
        <ele>1307</ele>
        <time>2017-02-09T10:33:33.038Z</time>
      </trkpt>
      <trkpt lat="42.91928" lon="0.28647">
        <ele>1307</ele>
        <time>2017-02-09T10:33:34.038Z</time>
      </trkpt>
      <trkpt lat="42.91928" lon="0.28646">
        <ele>1307</ele>
        <time>2017-02-09T10:33:35.038Z</time>
      </trkpt>
      <trkpt lat="42.91927" lon="0.28646">
        <ele>1307</ele>
        <time>2017-02-09T10:33:36.038Z</time>
      </trkpt>
      <trkpt lat="42.91926" lon="0.28646">
        <ele>1307</ele>
        <time>2017-02-09T10:33:37.038Z</time>
      </trkpt>
      <trkpt lat="42.91925" lon="0.28645">
        <ele>1307</ele>
        <time>2017-02-09T10:33:38.038Z</time>
      </trkpt>
      <trkpt lat="42.91925" lon="0.28645">
        <ele>1307</ele>
        <time>2017-02-09T10:33:39.038Z</time>
      </trkpt>
      <trkpt lat="42.91924" lon="0.28645">
        <ele>1307</ele>
        <time>2017-02-09T10:33:40.038Z</time>
      </trkpt>
      <trkpt lat="42.91923" lon="0.28644">
        <ele>1307</ele>
        <time>2017-02-09T10:33:41.038Z</time>
      </trkpt>
      <trkpt lat="42.91922" lon="0.28644">
        <ele>1307</ele>
        <time>2017-02-09T10:33:42.038Z</time>
      </trkpt>
      <trkpt lat="42.91921" lon="0.28644">
        <ele>1307</ele>
        <time>2017-02-09T10:33:43.038Z</time>
      </trkpt>
      <trkpt lat="42.91921" lon="0.28643">
        <ele>1307</ele>
        <time>2017-02-09T10:33:44.038Z</time>
      </trkpt>
      <trkpt lat="42.9192" lon="0.28643">
        <ele>1307</ele>
        <time>2017-02-09T10:33:45.038Z</time>
      </trkpt>
      <trkpt lat="42.91919" lon="0.28643">
        <ele>1307</ele>
        <time>2017-02-09T10:33:46.038Z</time>
      </trkpt>
      <trkpt lat="42.91918" lon="0.28643">
        <ele>1308</ele>
        <time>2017-02-09T10:33:47.038Z</time>
      </trkpt>
      <trkpt lat="42.91917" lon="0.28642">
        <ele>1308</ele>
        <time>2017-02-09T10:33:48.038Z</time>
      </trkpt>
      <trkpt lat="42.91917" lon="0.28642">
        <ele>1308</ele>
        <time>2017-02-09T10:33:49.038Z</time>
      </trkpt>
      <trkpt lat="42.91916" lon="0.28642">
        <ele>1308</ele>
        <time>2017-02-09T10:33:50.038Z</time>
      </trkpt>
      <trkpt lat="42.91915" lon="0.28641">
        <ele>1308</ele>
        <time>2017-02-09T10:33:51.038Z</time>
      </trkpt>
      <trkpt lat="42.91914" lon="0.28641">
        <ele>1308</ele>
        <time>2017-02-09T10:33:52.038Z</time>
      </trkpt>
      <trkpt lat="42.91914" lon="0.28641">
        <ele>1308</ele>
        <time>2017-02-09T10:33:53.038Z</time>
      </trkpt>
      <trkpt lat="42.91913" lon="0.2864">
        <ele>1308</ele>
        <time>2017-02-09T10:33:54.038Z</time>
      </trkpt>
      <trkpt lat="42.91912" lon="0.2864">
        <ele>1308</ele>
        <time>2017-02-09T10:33:55.038Z</time>
      </trkpt>
      <trkpt lat="42.91911" lon="0.2864">
        <ele>1308</ele>
        <time>2017-02-09T10:33:56.038Z</time>
      </trkpt>
      <trkpt lat="42.91911" lon="0.2864">
        <ele>1308</ele>
        <time>2017-02-09T10:33:57.038Z</time>
      </trkpt>
      <trkpt lat="42.9191" lon="0.28639">
        <ele>1308</ele>
        <time>2017-02-09T10:33:58.038Z</time>
      </trkpt>
      <trkpt lat="42.91909" lon="0.28639">
        <ele>1308</ele>
        <time>2017-02-09T10:33:59.038Z</time>
      </trkpt>
      <trkpt lat="42.91908" lon="0.28639">
        <ele>1309</ele>
        <time>2017-02-09T10:34:00.038Z</time>
      </trkpt>
      <trkpt lat="42.91907" lon="0.28638">
        <ele>1309</ele>
        <time>2017-02-09T10:34:01.038Z</time>
      </trkpt>
      <trkpt lat="42.91907" lon="0.28638">
        <ele>1308</ele>
        <time>2017-02-09T10:34:02.038Z</time>
      </trkpt>
      <trkpt lat="42.91906" lon="0.28638">
        <ele>1308</ele>
        <time>2017-02-09T10:34:03.038Z</time>
      </trkpt>
      <trkpt lat="42.91905" lon="0.28638">
        <ele>1308</ele>
        <time>2017-02-09T10:34:04.038Z</time>
      </trkpt>
      <trkpt lat="42.91904" lon="0.28638">
        <ele>1308</ele>
        <time>2017-02-09T10:34:05.038Z</time>
      </trkpt>
      <trkpt lat="42.91903" lon="0.28637">
        <ele>1308</ele>
        <time>2017-02-09T10:34:06.038Z</time>
      </trkpt>
      <trkpt lat="42.91903" lon="0.28637">
        <ele>1308</ele>
        <time>2017-02-09T10:34:07.038Z</time>
      </trkpt>
      <trkpt lat="42.91902" lon="0.28637">
        <ele>1309</ele>
        <time>2017-02-09T10:34:08.038Z</time>
      </trkpt>
      <trkpt lat="42.91901" lon="0.28636">
        <ele>1309</ele>
        <time>2017-02-09T10:34:09.038Z</time>
      </trkpt>
      <trkpt lat="42.919" lon="0.28636">
        <ele>1309</ele>
        <time>2017-02-09T10:34:10.038Z</time>
      </trkpt>
      <trkpt lat="42.91899" lon="0.28636">
        <ele>1309</ele>
        <time>2017-02-09T10:34:11.038Z</time>
      </trkpt>
      <trkpt lat="42.91898" lon="0.28636">
        <ele>1309</ele>
        <time>2017-02-09T10:34:12.038Z</time>
      </trkpt>
      <trkpt lat="42.91898" lon="0.28635">
        <ele>1309</ele>
        <time>2017-02-09T10:34:13.038Z</time>
      </trkpt>
      <trkpt lat="42.91897" lon="0.28635">
        <ele>1310</ele>
        <time>2017-02-09T10:34:14.038Z</time>
      </trkpt>
      <trkpt lat="42.91896" lon="0.28635">
        <ele>1310</ele>
        <time>2017-02-09T10:34:15.038Z</time>
      </trkpt>
      <trkpt lat="42.91895" lon="0.28635">
        <ele>1310</ele>
        <time>2017-02-09T10:34:16.038Z</time>
      </trkpt>
      <trkpt lat="42.91895" lon="0.28634">
        <ele>1310</ele>
        <time>2017-02-09T10:34:17.038Z</time>
      </trkpt>
      <trkpt lat="42.91894" lon="0.28634">
        <ele>1310</ele>
        <time>2017-02-09T10:34:18.038Z</time>
      </trkpt>
      <trkpt lat="42.91893" lon="0.28634">
        <ele>1310</ele>
        <time>2017-02-09T10:34:19.038Z</time>
      </trkpt>
      <trkpt lat="42.91892" lon="0.28634">
        <ele>1310</ele>
        <time>2017-02-09T10:34:20.038Z</time>
      </trkpt>
      <trkpt lat="42.91891" lon="0.28634">
        <ele>1310</ele>
        <time>2017-02-09T10:34:21.038Z</time>
      </trkpt>
      <trkpt lat="42.9189" lon="0.28634">
        <ele>1310</ele>
        <time>2017-02-09T10:34:22.038Z</time>
      </trkpt>
      <trkpt lat="42.9189" lon="0.28634">
        <ele>1310</ele>
        <time>2017-02-09T10:34:23.038Z</time>
      </trkpt>
      <trkpt lat="42.91889" lon="0.28634">
        <ele>1310</ele>
        <time>2017-02-09T10:34:24.038Z</time>
      </trkpt>
      <trkpt lat="42.91888" lon="0.28633">
        <ele>1310</ele>
        <time>2017-02-09T10:34:25.038Z</time>
      </trkpt>
      <trkpt lat="42.91887" lon="0.28633">
        <ele>1310</ele>
        <time>2017-02-09T10:34:26.038Z</time>
      </trkpt>
      <trkpt lat="42.91887" lon="0.28633">
        <ele>1310</ele>
        <time>2017-02-09T10:34:27.038Z</time>
      </trkpt>
      <trkpt lat="42.91886" lon="0.28632">
        <ele>1310</ele>
        <time>2017-02-09T10:34:28.038Z</time>
      </trkpt>
      <trkpt lat="42.91885" lon="0.28632">
        <ele>1310</ele>
        <time>2017-02-09T10:34:29.038Z</time>
      </trkpt>
      <trkpt lat="42.91885" lon="0.28632">
        <ele>1311</ele>
        <time>2017-02-09T10:34:30.038Z</time>
      </trkpt>
      <trkpt lat="42.91884" lon="0.28632">
        <ele>1310</ele>
        <time>2017-02-09T10:34:31.038Z</time>
      </trkpt>
      <trkpt lat="42.91883" lon="0.28631">
        <ele>1310</ele>
        <time>2017-02-09T10:34:32.038Z</time>
      </trkpt>
      <trkpt lat="42.91882" lon="0.28631">
        <ele>1310</ele>
        <time>2017-02-09T10:34:33.038Z</time>
      </trkpt>
      <trkpt lat="42.91882" lon="0.28631">
        <ele>1310</ele>
        <time>2017-02-09T10:34:34.038Z</time>
      </trkpt>
      <trkpt lat="42.91881" lon="0.2863">
        <ele>1311</ele>
        <time>2017-02-09T10:34:35.038Z</time>
      </trkpt>
      <trkpt lat="42.9188" lon="0.2863">
        <ele>1311</ele>
        <time>2017-02-09T10:34:36.038Z</time>
      </trkpt>
      <trkpt lat="42.91879" lon="0.2863">
        <ele>1311</ele>
        <time>2017-02-09T10:34:37.038Z</time>
      </trkpt>
      <trkpt lat="42.91879" lon="0.2863">
        <ele>1311</ele>
        <time>2017-02-09T10:34:38.038Z</time>
      </trkpt>
      <trkpt lat="42.91878" lon="0.2863">
        <ele>1311</ele>
        <time>2017-02-09T10:34:39.038Z</time>
      </trkpt>
      <trkpt lat="42.91877" lon="0.28629">
        <ele>1311</ele>
        <time>2017-02-09T10:34:40.038Z</time>
      </trkpt>
      <trkpt lat="42.91876" lon="0.28629">
        <ele>1312</ele>
        <time>2017-02-09T10:34:41.038Z</time>
      </trkpt>
      <trkpt lat="42.91876" lon="0.28628">
        <ele>1312</ele>
        <time>2017-02-09T10:34:42.038Z</time>
      </trkpt>
      <trkpt lat="42.91875" lon="0.28628">
        <ele>1312</ele>
        <time>2017-02-09T10:34:43.038Z</time>
      </trkpt>
      <trkpt lat="42.91874" lon="0.28628">
        <ele>1312</ele>
        <time>2017-02-09T10:34:44.038Z</time>
      </trkpt>
      <trkpt lat="42.91874" lon="0.28627">
        <ele>1312</ele>
        <time>2017-02-09T10:34:45.038Z</time>
      </trkpt>
      <trkpt lat="42.91873" lon="0.28627">
        <ele>1312</ele>
        <time>2017-02-09T10:34:46.038Z</time>
      </trkpt>
      <trkpt lat="42.91872" lon="0.28627">
        <ele>1313</ele>
        <time>2017-02-09T10:34:47.038Z</time>
      </trkpt>
      <trkpt lat="42.91871" lon="0.28626">
        <ele>1313</ele>
        <time>2017-02-09T10:34:48.038Z</time>
      </trkpt>
      <trkpt lat="42.91871" lon="0.28626">
        <ele>1313</ele>
        <time>2017-02-09T10:34:49.038Z</time>
      </trkpt>
      <trkpt lat="42.9187" lon="0.28626">
        <ele>1313</ele>
        <time>2017-02-09T10:34:50.038Z</time>
      </trkpt>
      <trkpt lat="42.91869" lon="0.28625">
        <ele>1313</ele>
        <time>2017-02-09T10:34:51.038Z</time>
      </trkpt>
      <trkpt lat="42.91869" lon="0.28625">
        <ele>1313</ele>
        <time>2017-02-09T10:34:52.038Z</time>
      </trkpt>
      <trkpt lat="42.91868" lon="0.28625">
        <ele>1313</ele>
        <time>2017-02-09T10:34:53.038Z</time>
      </trkpt>
      <trkpt lat="42.91867" lon="0.28624">
        <ele>1313</ele>
        <time>2017-02-09T10:34:54.038Z</time>
      </trkpt>
      <trkpt lat="42.91867" lon="0.28624">
        <ele>1313</ele>
        <time>2017-02-09T10:34:55.038Z</time>
      </trkpt>
      <trkpt lat="42.91866" lon="0.28624">
        <ele>1313</ele>
        <time>2017-02-09T10:34:56.038Z</time>
      </trkpt>
      <trkpt lat="42.91865" lon="0.28624">
        <ele>1313</ele>
        <time>2017-02-09T10:34:57.038Z</time>
      </trkpt>
      <trkpt lat="42.91864" lon="0.28623">
        <ele>1313</ele>
        <time>2017-02-09T10:34:58.038Z</time>
      </trkpt>
      <trkpt lat="42.91864" lon="0.28623">
        <ele>1313</ele>
        <time>2017-02-09T10:34:59.038Z</time>
      </trkpt>
      <trkpt lat="42.91863" lon="0.28623">
        <ele>1313</ele>
        <time>2017-02-09T10:35:00.038Z</time>
      </trkpt>
      <trkpt lat="42.91862" lon="0.28622">
        <ele>1313</ele>
        <time>2017-02-09T10:35:01.038Z</time>
      </trkpt>
      <trkpt lat="42.91861" lon="0.28622">
        <ele>1313</ele>
        <time>2017-02-09T10:35:02.038Z</time>
      </trkpt>
      <trkpt lat="42.91861" lon="0.28622">
        <ele>1313</ele>
        <time>2017-02-09T10:35:03.038Z</time>
      </trkpt>
      <trkpt lat="42.9186" lon="0.28621">
        <ele>1313</ele>
        <time>2017-02-09T10:35:04.038Z</time>
      </trkpt>
      <trkpt lat="42.91859" lon="0.28621">
        <ele>1313</ele>
        <time>2017-02-09T10:35:05.038Z</time>
      </trkpt>
      <trkpt lat="42.91858" lon="0.28621">
        <ele>1313</ele>
        <time>2017-02-09T10:35:06.038Z</time>
      </trkpt>
      <trkpt lat="42.91858" lon="0.2862">
        <ele>1313</ele>
        <time>2017-02-09T10:35:07.038Z</time>
      </trkpt>
      <trkpt lat="42.91857" lon="0.2862">
        <ele>1313</ele>
        <time>2017-02-09T10:35:08.038Z</time>
      </trkpt>
      <trkpt lat="42.91856" lon="0.2862">
        <ele>1314</ele>
        <time>2017-02-09T10:35:09.038Z</time>
      </trkpt>
      <trkpt lat="42.91855" lon="0.2862">
        <ele>1314</ele>
        <time>2017-02-09T10:35:10.038Z</time>
      </trkpt>
      <trkpt lat="42.91855" lon="0.28619">
        <ele>1314</ele>
        <time>2017-02-09T10:35:11.038Z</time>
      </trkpt>
      <trkpt lat="42.91854" lon="0.28619">
        <ele>1314</ele>
        <time>2017-02-09T10:35:12.038Z</time>
      </trkpt>
      <trkpt lat="42.91853" lon="0.28619">
        <ele>1314</ele>
        <time>2017-02-09T10:35:13.038Z</time>
      </trkpt>
      <trkpt lat="42.91852" lon="0.28618">
        <ele>1314</ele>
        <time>2017-02-09T10:35:14.038Z</time>
      </trkpt>
      <trkpt lat="42.91852" lon="0.28618">
        <ele>1314</ele>
        <time>2017-02-09T10:35:15.038Z</time>
      </trkpt>
      <trkpt lat="42.91851" lon="0.28618">
        <ele>1314</ele>
        <time>2017-02-09T10:35:16.038Z</time>
      </trkpt>
      <trkpt lat="42.9185" lon="0.28618">
        <ele>1315</ele>
        <time>2017-02-09T10:35:17.038Z</time>
      </trkpt>
      <trkpt lat="42.91849" lon="0.28617">
        <ele>1315</ele>
        <time>2017-02-09T10:35:18.038Z</time>
      </trkpt>
      <trkpt lat="42.91848" lon="0.28617">
        <ele>1315</ele>
        <time>2017-02-09T10:35:19.038Z</time>
      </trkpt>
      <trkpt lat="42.91847" lon="0.28617">
        <ele>1315</ele>
        <time>2017-02-09T10:35:20.038Z</time>
      </trkpt>
      <trkpt lat="42.91846" lon="0.28617">
        <ele>1315</ele>
        <time>2017-02-09T10:35:21.038Z</time>
      </trkpt>
      <trkpt lat="42.91846" lon="0.28617">
        <ele>1316</ele>
        <time>2017-02-09T10:35:22.038Z</time>
      </trkpt>
      <trkpt lat="42.91845" lon="0.28616">
        <ele>1315</ele>
        <time>2017-02-09T10:35:23.038Z</time>
      </trkpt>
      <trkpt lat="42.91844" lon="0.28616">
        <ele>1315</ele>
        <time>2017-02-09T10:35:24.038Z</time>
      </trkpt>
      <trkpt lat="42.91843" lon="0.28616">
        <ele>1315</ele>
        <time>2017-02-09T10:35:25.038Z</time>
      </trkpt>
      <trkpt lat="42.91843" lon="0.28616">
        <ele>1315</ele>
        <time>2017-02-09T10:35:26.038Z</time>
      </trkpt>
      <trkpt lat="42.91842" lon="0.28615">
        <ele>1316</ele>
        <time>2017-02-09T10:35:27.038Z</time>
      </trkpt>
      <trkpt lat="42.91841" lon="0.28615">
        <ele>1316</ele>
        <time>2017-02-09T10:35:28.038Z</time>
      </trkpt>
      <trkpt lat="42.9184" lon="0.28615">
        <ele>1316</ele>
        <time>2017-02-09T10:35:29.038Z</time>
      </trkpt>
      <trkpt lat="42.91839" lon="0.28614">
        <ele>1317</ele>
        <time>2017-02-09T10:35:30.038Z</time>
      </trkpt>
      <trkpt lat="42.91838" lon="0.28614">
        <ele>1317</ele>
        <time>2017-02-09T10:35:31.038Z</time>
      </trkpt>
      <trkpt lat="42.91838" lon="0.28613">
        <ele>1317</ele>
        <time>2017-02-09T10:35:32.038Z</time>
      </trkpt>
      <trkpt lat="42.91837" lon="0.28613">
        <ele>1317</ele>
        <time>2017-02-09T10:35:33.038Z</time>
      </trkpt>
      <trkpt lat="42.91836" lon="0.28613">
        <ele>1316</ele>
        <time>2017-02-09T10:35:34.038Z</time>
      </trkpt>
      <trkpt lat="42.91836" lon="0.28613">
        <ele>1316</ele>
        <time>2017-02-09T10:35:35.038Z</time>
      </trkpt>
      <trkpt lat="42.91835" lon="0.28612">
        <ele>1317</ele>
        <time>2017-02-09T10:35:36.038Z</time>
      </trkpt>
      <trkpt lat="42.91834" lon="0.28612">
        <ele>1317</ele>
        <time>2017-02-09T10:35:37.038Z</time>
      </trkpt>
      <trkpt lat="42.91833" lon="0.28612">
        <ele>1317</ele>
        <time>2017-02-09T10:35:38.038Z</time>
      </trkpt>
      <trkpt lat="42.91833" lon="0.28611">
        <ele>1317</ele>
        <time>2017-02-09T10:35:39.038Z</time>
      </trkpt>
      <trkpt lat="42.91832" lon="0.28611">
        <ele>1317</ele>
        <time>2017-02-09T10:35:40.038Z</time>
      </trkpt>
      <trkpt lat="42.91831" lon="0.28611">
        <ele>1317</ele>
        <time>2017-02-09T10:35:41.038Z</time>
      </trkpt>
      <trkpt lat="42.9183" lon="0.28611">
        <ele>1317</ele>
        <time>2017-02-09T10:35:42.038Z</time>
      </trkpt>
      <trkpt lat="42.9183" lon="0.2861">
        <ele>1317</ele>
        <time>2017-02-09T10:35:43.038Z</time>
      </trkpt>
      <trkpt lat="42.91829" lon="0.2861">
        <ele>1317</ele>
        <time>2017-02-09T10:35:44.038Z</time>
      </trkpt>
      <trkpt lat="42.91828" lon="0.2861">
        <ele>1317</ele>
        <time>2017-02-09T10:35:45.038Z</time>
      </trkpt>
      <trkpt lat="42.91828" lon="0.28609">
        <ele>1318</ele>
        <time>2017-02-09T10:35:46.038Z</time>
      </trkpt>
      <trkpt lat="42.91827" lon="0.28609">
        <ele>1318</ele>
        <time>2017-02-09T10:35:47.038Z</time>
      </trkpt>
      <trkpt lat="42.91826" lon="0.28609">
        <ele>1318</ele>
        <time>2017-02-09T10:35:48.038Z</time>
      </trkpt>
      <trkpt lat="42.91826" lon="0.28609">
        <ele>1318</ele>
        <time>2017-02-09T10:35:49.038Z</time>
      </trkpt>
      <trkpt lat="42.91825" lon="0.28608">
        <ele>1318</ele>
        <time>2017-02-09T10:35:50.038Z</time>
      </trkpt>
      <trkpt lat="42.91824" lon="0.28608">
        <ele>1318</ele>
        <time>2017-02-09T10:35:51.038Z</time>
      </trkpt>
      <trkpt lat="42.91824" lon="0.28608">
        <ele>1318</ele>
        <time>2017-02-09T10:35:52.038Z</time>
      </trkpt>
      <trkpt lat="42.91823" lon="0.28608">
        <ele>1318</ele>
        <time>2017-02-09T10:35:53.038Z</time>
      </trkpt>
      <trkpt lat="42.91822" lon="0.28608">
        <ele>1318</ele>
        <time>2017-02-09T10:35:54.038Z</time>
      </trkpt>
      <trkpt lat="42.91821" lon="0.28608">
        <ele>1318</ele>
        <time>2017-02-09T10:35:55.038Z</time>
      </trkpt>
      <trkpt lat="42.91821" lon="0.28608">
        <ele>1319</ele>
        <time>2017-02-09T10:35:56.038Z</time>
      </trkpt>
      <trkpt lat="42.9182" lon="0.28607">
        <ele>1318</ele>
        <time>2017-02-09T10:35:57.038Z</time>
      </trkpt>
      <trkpt lat="42.91819" lon="0.28607">
        <ele>1319</ele>
        <time>2017-02-09T10:35:58.038Z</time>
      </trkpt>
      <trkpt lat="42.91819" lon="0.28607">
        <ele>1319</ele>
        <time>2017-02-09T10:35:59.038Z</time>
      </trkpt>
      <trkpt lat="42.91818" lon="0.28607">
        <ele>1319</ele>
        <time>2017-02-09T10:36:00.038Z</time>
      </trkpt>
      <trkpt lat="42.91817" lon="0.28607">
        <ele>1319</ele>
        <time>2017-02-09T10:36:01.038Z</time>
      </trkpt>
      <trkpt lat="42.91816" lon="0.28607">
        <ele>1319</ele>
        <time>2017-02-09T10:36:02.038Z</time>
      </trkpt>
      <trkpt lat="42.91816" lon="0.28607">
        <ele>1319</ele>
        <time>2017-02-09T10:36:03.038Z</time>
      </trkpt>
      <trkpt lat="42.91815" lon="0.28607">
        <ele>1319</ele>
        <time>2017-02-09T10:36:04.038Z</time>
      </trkpt>
      <trkpt lat="42.91814" lon="0.28607">
        <ele>1319</ele>
        <time>2017-02-09T10:36:05.038Z</time>
      </trkpt>
      <trkpt lat="42.91813" lon="0.28607">
        <ele>1319</ele>
        <time>2017-02-09T10:36:06.038Z</time>
      </trkpt>
      <trkpt lat="42.91812" lon="0.28607">
        <ele>1319</ele>
        <time>2017-02-09T10:36:07.038Z</time>
      </trkpt>
      <trkpt lat="42.91812" lon="0.28607">
        <ele>1319</ele>
        <time>2017-02-09T10:36:08.038Z</time>
      </trkpt>
      <trkpt lat="42.91811" lon="0.28607">
        <ele>1319</ele>
        <time>2017-02-09T10:36:09.038Z</time>
      </trkpt>
      <trkpt lat="42.9181" lon="0.28607">
        <ele>1319</ele>
        <time>2017-02-09T10:36:10.038Z</time>
      </trkpt>
      <trkpt lat="42.91809" lon="0.28607">
        <ele>1319</ele>
        <time>2017-02-09T10:36:11.038Z</time>
      </trkpt>
      <trkpt lat="42.91808" lon="0.28607">
        <ele>1319</ele>
        <time>2017-02-09T10:36:12.038Z</time>
      </trkpt>
      <trkpt lat="42.91807" lon="0.28607">
        <ele>1319</ele>
        <time>2017-02-09T10:36:13.038Z</time>
      </trkpt>
      <trkpt lat="42.91807" lon="0.28607">
        <ele>1319</ele>
        <time>2017-02-09T10:36:14.038Z</time>
      </trkpt>
      <trkpt lat="42.91806" lon="0.28607">
        <ele>1319</ele>
        <time>2017-02-09T10:36:15.038Z</time>
      </trkpt>
      <trkpt lat="42.91805" lon="0.28607">
        <ele>1319</ele>
        <time>2017-02-09T10:36:16.038Z</time>
      </trkpt>
      <trkpt lat="42.91804" lon="0.28607">
        <ele>1320</ele>
        <time>2017-02-09T10:36:17.038Z</time>
      </trkpt>
      <trkpt lat="42.91803" lon="0.28607">
        <ele>1320</ele>
        <time>2017-02-09T10:36:18.038Z</time>
      </trkpt>
      <trkpt lat="42.91802" lon="0.28607">
        <ele>1320</ele>
        <time>2017-02-09T10:36:19.038Z</time>
      </trkpt>
      <trkpt lat="42.91802" lon="0.28607">
        <ele>1320</ele>
        <time>2017-02-09T10:36:20.038Z</time>
      </trkpt>
      <trkpt lat="42.91801" lon="0.28607">
        <ele>1320</ele>
        <time>2017-02-09T10:36:21.038Z</time>
      </trkpt>
      <trkpt lat="42.918" lon="0.28607">
        <ele>1320</ele>
        <time>2017-02-09T10:36:22.038Z</time>
      </trkpt>
      <trkpt lat="42.91799" lon="0.28607">
        <ele>1320</ele>
        <time>2017-02-09T10:36:23.038Z</time>
      </trkpt>
      <trkpt lat="42.91798" lon="0.28607">
        <ele>1321</ele>
        <time>2017-02-09T10:36:24.038Z</time>
      </trkpt>
      <trkpt lat="42.91797" lon="0.28607">
        <ele>1321</ele>
        <time>2017-02-09T10:36:25.038Z</time>
      </trkpt>
      <trkpt lat="42.91797" lon="0.28607">
        <ele>1321</ele>
        <time>2017-02-09T10:36:26.038Z</time>
      </trkpt>
      <trkpt lat="42.91796" lon="0.28607">
        <ele>1321</ele>
        <time>2017-02-09T10:36:27.038Z</time>
      </trkpt>
      <trkpt lat="42.91795" lon="0.28607">
        <ele>1321</ele>
        <time>2017-02-09T10:36:28.038Z</time>
      </trkpt>
      <trkpt lat="42.91794" lon="0.28607">
        <ele>1321</ele>
        <time>2017-02-09T10:36:29.038Z</time>
      </trkpt>
      <trkpt lat="42.91794" lon="0.28608">
        <ele>1321</ele>
        <time>2017-02-09T10:36:30.038Z</time>
      </trkpt>
      <trkpt lat="42.91793" lon="0.28608">
        <ele>1321</ele>
        <time>2017-02-09T10:36:31.038Z</time>
      </trkpt>
      <trkpt lat="42.91792" lon="0.28608">
        <ele>1321</ele>
        <time>2017-02-09T10:36:32.038Z</time>
      </trkpt>
      <trkpt lat="42.91791" lon="0.28608">
        <ele>1321</ele>
        <time>2017-02-09T10:36:33.038Z</time>
      </trkpt>
      <trkpt lat="42.91791" lon="0.28608">
        <ele>1321</ele>
        <time>2017-02-09T10:36:34.038Z</time>
      </trkpt>
      <trkpt lat="42.9179" lon="0.28608">
        <ele>1321</ele>
        <time>2017-02-09T10:36:35.038Z</time>
      </trkpt>
      <trkpt lat="42.91789" lon="0.28608">
        <ele>1321</ele>
        <time>2017-02-09T10:36:36.038Z</time>
      </trkpt>
      <trkpt lat="42.91788" lon="0.28608">
        <ele>1321</ele>
        <time>2017-02-09T10:36:37.038Z</time>
      </trkpt>
      <trkpt lat="42.91787" lon="0.28609">
        <ele>1321</ele>
        <time>2017-02-09T10:36:38.038Z</time>
      </trkpt>
      <trkpt lat="42.91786" lon="0.28609">
        <ele>1321</ele>
        <time>2017-02-09T10:36:39.038Z</time>
      </trkpt>
      <trkpt lat="42.91785" lon="0.28609">
        <ele>1322</ele>
        <time>2017-02-09T10:36:40.038Z</time>
      </trkpt>
      <trkpt lat="42.91784" lon="0.28609">
        <ele>1322</ele>
        <time>2017-02-09T10:36:41.038Z</time>
      </trkpt>
      <trkpt lat="42.91784" lon="0.28609">
        <ele>1321</ele>
        <time>2017-02-09T10:36:42.038Z</time>
      </trkpt>
      <trkpt lat="42.91783" lon="0.2861">
        <ele>1321</ele>
        <time>2017-02-09T10:36:43.038Z</time>
      </trkpt>
      <trkpt lat="42.91782" lon="0.2861">
        <ele>1322</ele>
        <time>2017-02-09T10:36:44.038Z</time>
      </trkpt>
      <trkpt lat="42.91781" lon="0.2861">
        <ele>1322</ele>
        <time>2017-02-09T10:36:45.038Z</time>
      </trkpt>
      <trkpt lat="42.9178" lon="0.2861">
        <ele>1322</ele>
        <time>2017-02-09T10:36:46.038Z</time>
      </trkpt>
      <trkpt lat="42.9178" lon="0.2861">
        <ele>1322</ele>
        <time>2017-02-09T10:36:47.038Z</time>
      </trkpt>
      <trkpt lat="42.91779" lon="0.2861">
        <ele>1322</ele>
        <time>2017-02-09T10:36:48.038Z</time>
      </trkpt>
      <trkpt lat="42.91778" lon="0.28611">
        <ele>1322</ele>
        <time>2017-02-09T10:36:49.038Z</time>
      </trkpt>
      <trkpt lat="42.91777" lon="0.28611">
        <ele>1322</ele>
        <time>2017-02-09T10:36:50.038Z</time>
      </trkpt>
      <trkpt lat="42.91776" lon="0.28611">
        <ele>1322</ele>
        <time>2017-02-09T10:36:51.038Z</time>
      </trkpt>
      <trkpt lat="42.91776" lon="0.28611">
        <ele>1322</ele>
        <time>2017-02-09T10:36:52.038Z</time>
      </trkpt>
      <trkpt lat="42.91775" lon="0.28611">
        <ele>1322</ele>
        <time>2017-02-09T10:36:53.038Z</time>
      </trkpt>
      <trkpt lat="42.91774" lon="0.28612">
        <ele>1322</ele>
        <time>2017-02-09T10:36:54.038Z</time>
      </trkpt>
      <trkpt lat="42.91773" lon="0.28612">
        <ele>1322</ele>
        <time>2017-02-09T10:36:55.038Z</time>
      </trkpt>
      <trkpt lat="42.91772" lon="0.28612">
        <ele>1322</ele>
        <time>2017-02-09T10:36:56.038Z</time>
      </trkpt>
      <trkpt lat="42.91771" lon="0.28612">
        <ele>1322</ele>
        <time>2017-02-09T10:36:57.038Z</time>
      </trkpt>
      <trkpt lat="42.91771" lon="0.28613">
        <ele>1322</ele>
        <time>2017-02-09T10:36:58.038Z</time>
      </trkpt>
      <trkpt lat="42.9177" lon="0.28613">
        <ele>1322</ele>
        <time>2017-02-09T10:36:59.038Z</time>
      </trkpt>
      <trkpt lat="42.91769" lon="0.28613">
        <ele>1322</ele>
        <time>2017-02-09T10:37:00.038Z</time>
      </trkpt>
      <trkpt lat="42.91768" lon="0.28614">
        <ele>1322</ele>
        <time>2017-02-09T10:37:01.038Z</time>
      </trkpt>
      <trkpt lat="42.91767" lon="0.28614">
        <ele>1322</ele>
        <time>2017-02-09T10:37:02.038Z</time>
      </trkpt>
      <trkpt lat="42.91766" lon="0.28614">
        <ele>1322</ele>
        <time>2017-02-09T10:37:03.038Z</time>
      </trkpt>
      <trkpt lat="42.91765" lon="0.28614">
        <ele>1322</ele>
        <time>2017-02-09T10:37:04.038Z</time>
      </trkpt>
      <trkpt lat="42.91765" lon="0.28614">
        <ele>1323</ele>
        <time>2017-02-09T10:37:05.038Z</time>
      </trkpt>
      <trkpt lat="42.91764" lon="0.28614">
        <ele>1323</ele>
        <time>2017-02-09T10:37:06.038Z</time>
      </trkpt>
      <trkpt lat="42.91763" lon="0.28615">
        <ele>1323</ele>
        <time>2017-02-09T10:37:07.038Z</time>
      </trkpt>
      <trkpt lat="42.91762" lon="0.28615">
        <ele>1323</ele>
        <time>2017-02-09T10:37:08.038Z</time>
      </trkpt>
      <trkpt lat="42.91761" lon="0.28615">
        <ele>1323</ele>
        <time>2017-02-09T10:37:09.038Z</time>
      </trkpt>
      <trkpt lat="42.91761" lon="0.28615">
        <ele>1323</ele>
        <time>2017-02-09T10:37:10.038Z</time>
      </trkpt>
      <trkpt lat="42.9176" lon="0.28615">
        <ele>1323</ele>
        <time>2017-02-09T10:37:11.038Z</time>
      </trkpt>
      <trkpt lat="42.91759" lon="0.28615">
        <ele>1323</ele>
        <time>2017-02-09T10:37:12.038Z</time>
      </trkpt>
      <trkpt lat="42.91759" lon="0.28615">
        <ele>1324</ele>
        <time>2017-02-09T10:37:13.038Z</time>
      </trkpt>
      <trkpt lat="42.91758" lon="0.28616">
        <ele>1324</ele>
        <time>2017-02-09T10:37:14.038Z</time>
      </trkpt>
      <trkpt lat="42.91757" lon="0.28616">
        <ele>1324</ele>
        <time>2017-02-09T10:37:15.038Z</time>
      </trkpt>
      <trkpt lat="42.91756" lon="0.28616">
        <ele>1325</ele>
        <time>2017-02-09T10:37:16.038Z</time>
      </trkpt>
      <trkpt lat="42.91755" lon="0.28616">
        <ele>1325</ele>
        <time>2017-02-09T10:37:17.038Z</time>
      </trkpt>
      <trkpt lat="42.91755" lon="0.28616">
        <ele>1325</ele>
        <time>2017-02-09T10:37:18.038Z</time>
      </trkpt>
      <trkpt lat="42.91754" lon="0.28616">
        <ele>1325</ele>
        <time>2017-02-09T10:37:19.038Z</time>
      </trkpt>
      <trkpt lat="42.91753" lon="0.28616">
        <ele>1325</ele>
        <time>2017-02-09T10:37:20.038Z</time>
      </trkpt>
      <trkpt lat="42.91753" lon="0.28617">
        <ele>1325</ele>
        <time>2017-02-09T10:37:21.038Z</time>
      </trkpt>
      <trkpt lat="42.91752" lon="0.28617">
        <ele>1325</ele>
        <time>2017-02-09T10:37:22.038Z</time>
      </trkpt>
      <trkpt lat="42.91751" lon="0.28617">
        <ele>1325</ele>
        <time>2017-02-09T10:37:23.038Z</time>
      </trkpt>
      <trkpt lat="42.9175" lon="0.28617">
        <ele>1325</ele>
        <time>2017-02-09T10:37:24.038Z</time>
      </trkpt>
      <trkpt lat="42.91749" lon="0.28618">
        <ele>1325</ele>
        <time>2017-02-09T10:37:25.038Z</time>
      </trkpt>
      <trkpt lat="42.91749" lon="0.28618">
        <ele>1325</ele>
        <time>2017-02-09T10:37:26.038Z</time>
      </trkpt>
      <trkpt lat="42.91748" lon="0.28618">
        <ele>1325</ele>
        <time>2017-02-09T10:37:27.038Z</time>
      </trkpt>
      <trkpt lat="42.91747" lon="0.28618">
        <ele>1326</ele>
        <time>2017-02-09T10:37:28.038Z</time>
      </trkpt>
      <trkpt lat="42.91746" lon="0.28618">
        <ele>1326</ele>
        <time>2017-02-09T10:37:29.038Z</time>
      </trkpt>
      <trkpt lat="42.91746" lon="0.28618">
        <ele>1326</ele>
        <time>2017-02-09T10:37:30.038Z</time>
      </trkpt>
      <trkpt lat="42.91745" lon="0.28618">
        <ele>1326</ele>
        <time>2017-02-09T10:37:31.038Z</time>
      </trkpt>
      <trkpt lat="42.91744" lon="0.28619">
        <ele>1326</ele>
        <time>2017-02-09T10:37:32.038Z</time>
      </trkpt>
      <trkpt lat="42.91743" lon="0.28619">
        <ele>1326</ele>
        <time>2017-02-09T10:37:33.038Z</time>
      </trkpt>
      <trkpt lat="42.91743" lon="0.28619">
        <ele>1326</ele>
        <time>2017-02-09T10:37:34.038Z</time>
      </trkpt>
      <trkpt lat="42.91742" lon="0.28619">
        <ele>1327</ele>
        <time>2017-02-09T10:37:35.038Z</time>
      </trkpt>
      <trkpt lat="42.91741" lon="0.28619">
        <ele>1327</ele>
        <time>2017-02-09T10:37:36.038Z</time>
      </trkpt>
      <trkpt lat="42.9174" lon="0.2862">
        <ele>1327</ele>
        <time>2017-02-09T10:37:37.038Z</time>
      </trkpt>
      <trkpt lat="42.91739" lon="0.2862">
        <ele>1327</ele>
        <time>2017-02-09T10:37:38.038Z</time>
      </trkpt>
      <trkpt lat="42.91739" lon="0.2862">
        <ele>1327</ele>
        <time>2017-02-09T10:37:39.038Z</time>
      </trkpt>
      <trkpt lat="42.91738" lon="0.2862">
        <ele>1327</ele>
        <time>2017-02-09T10:37:40.038Z</time>
      </trkpt>
      <trkpt lat="42.91737" lon="0.2862">
        <ele>1328</ele>
        <time>2017-02-09T10:37:41.038Z</time>
      </trkpt>
      <trkpt lat="42.91737" lon="0.2862">
        <ele>1328</ele>
        <time>2017-02-09T10:37:42.038Z</time>
      </trkpt>
      <trkpt lat="42.91736" lon="0.2862">
        <ele>1327</ele>
        <time>2017-02-09T10:37:43.038Z</time>
      </trkpt>
      <trkpt lat="42.91736" lon="0.2862">
        <ele>1327</ele>
        <time>2017-02-09T10:37:44.038Z</time>
      </trkpt>
      <trkpt lat="42.91736" lon="0.2862">
        <ele>1327</ele>
        <time>2017-02-09T10:37:45.038Z</time>
      </trkpt>
      <trkpt lat="42.91736" lon="0.2862">
        <ele>1327</ele>
        <time>2017-02-09T10:37:46.038Z</time>
      </trkpt>
      <trkpt lat="42.91736" lon="0.2862">
        <ele>1327</ele>
        <time>2017-02-09T10:37:47.038Z</time>
      </trkpt>
      <trkpt lat="42.91736" lon="0.2862">
        <ele>1327</ele>
        <time>2017-02-09T10:37:48.038Z</time>
      </trkpt>
      <trkpt lat="42.91736" lon="0.2862">
        <ele>1327</ele>
        <time>2017-02-09T10:37:49.038Z</time>
      </trkpt>
      <trkpt lat="42.91736" lon="0.2862">
        <ele>1327</ele>
        <time>2017-02-09T10:37:50.038Z</time>
      </trkpt>
      <trkpt lat="42.91736" lon="0.2862">
        <ele>1328</ele>
        <time>2017-02-09T10:37:51.038Z</time>
      </trkpt>
      <trkpt lat="42.91735" lon="0.28621">
        <ele>1328</ele>
        <time>2017-02-09T10:37:52.038Z</time>
      </trkpt>
      <trkpt lat="42.91735" lon="0.28621">
        <ele>1328</ele>
        <time>2017-02-09T10:37:53.038Z</time>
      </trkpt>
      <trkpt lat="42.91734" lon="0.28621">
        <ele>1328</ele>
        <time>2017-02-09T10:37:54.038Z</time>
      </trkpt>
      <trkpt lat="42.91733" lon="0.28621">
        <ele>1328</ele>
        <time>2017-02-09T10:37:55.038Z</time>
      </trkpt>
      <trkpt lat="42.91733" lon="0.28621">
        <ele>1328</ele>
        <time>2017-02-09T10:37:56.038Z</time>
      </trkpt>
      <trkpt lat="42.91732" lon="0.28621">
        <ele>1328</ele>
        <time>2017-02-09T10:37:57.038Z</time>
      </trkpt>
      <trkpt lat="42.91731" lon="0.28621">
        <ele>1328</ele>
        <time>2017-02-09T10:37:58.038Z</time>
      </trkpt>
      <trkpt lat="42.9173" lon="0.28621">
        <ele>1329</ele>
        <time>2017-02-09T10:37:59.038Z</time>
      </trkpt>
      <trkpt lat="42.91729" lon="0.28621">
        <ele>1329</ele>
        <time>2017-02-09T10:38:00.038Z</time>
      </trkpt>
      <trkpt lat="42.91729" lon="0.28622">
        <ele>1329</ele>
        <time>2017-02-09T10:38:01.038Z</time>
      </trkpt>
      <trkpt lat="42.91728" lon="0.28622">
        <ele>1329</ele>
        <time>2017-02-09T10:38:02.038Z</time>
      </trkpt>
      <trkpt lat="42.91727" lon="0.28622">
        <ele>1329</ele>
        <time>2017-02-09T10:38:03.038Z</time>
      </trkpt>
      <trkpt lat="42.91726" lon="0.28622">
        <ele>1329</ele>
        <time>2017-02-09T10:38:04.038Z</time>
      </trkpt>
      <trkpt lat="42.91725" lon="0.28622">
        <ele>1329</ele>
        <time>2017-02-09T10:38:05.038Z</time>
      </trkpt>
      <trkpt lat="42.91724" lon="0.28623">
        <ele>1329</ele>
        <time>2017-02-09T10:38:06.038Z</time>
      </trkpt>
      <trkpt lat="42.91724" lon="0.28623">
        <ele>1329</ele>
        <time>2017-02-09T10:38:07.038Z</time>
      </trkpt>
      <trkpt lat="42.91723" lon="0.28623">
        <ele>1329</ele>
        <time>2017-02-09T10:38:08.038Z</time>
      </trkpt>
      <trkpt lat="42.91722" lon="0.28623">
        <ele>1329</ele>
        <time>2017-02-09T10:38:09.038Z</time>
      </trkpt>
      <trkpt lat="42.91721" lon="0.28623">
        <ele>1329</ele>
        <time>2017-02-09T10:38:10.038Z</time>
      </trkpt>
      <trkpt lat="42.9172" lon="0.28623">
        <ele>1329</ele>
        <time>2017-02-09T10:38:11.038Z</time>
      </trkpt>
      <trkpt lat="42.9172" lon="0.28624">
        <ele>1329</ele>
        <time>2017-02-09T10:38:12.038Z</time>
      </trkpt>
      <trkpt lat="42.91719" lon="0.28624">
        <ele>1329</ele>
        <time>2017-02-09T10:38:13.038Z</time>
      </trkpt>
      <trkpt lat="42.91718" lon="0.28624">
        <ele>1330</ele>
        <time>2017-02-09T10:38:14.038Z</time>
      </trkpt>
      <trkpt lat="42.91717" lon="0.28624">
        <ele>1330</ele>
        <time>2017-02-09T10:38:15.038Z</time>
      </trkpt>
      <trkpt lat="42.91716" lon="0.28625">
        <ele>1329</ele>
        <time>2017-02-09T10:38:16.038Z</time>
      </trkpt>
      <trkpt lat="42.91715" lon="0.28625">
        <ele>1329</ele>
        <time>2017-02-09T10:38:17.038Z</time>
      </trkpt>
      <trkpt lat="42.91714" lon="0.28625">
        <ele>1330</ele>
        <time>2017-02-09T10:38:18.038Z</time>
      </trkpt>
      <trkpt lat="42.91713" lon="0.28625">
        <ele>1330</ele>
        <time>2017-02-09T10:38:19.038Z</time>
      </trkpt>
      <trkpt lat="42.91712" lon="0.28625">
        <ele>1330</ele>
        <time>2017-02-09T10:38:20.038Z</time>
      </trkpt>
      <trkpt lat="42.91712" lon="0.28626">
        <ele>1330</ele>
        <time>2017-02-09T10:38:21.038Z</time>
      </trkpt>
      <trkpt lat="42.91711" lon="0.28626">
        <ele>1330</ele>
        <time>2017-02-09T10:38:22.038Z</time>
      </trkpt>
      <trkpt lat="42.9171" lon="0.28626">
        <ele>1330</ele>
        <time>2017-02-09T10:38:23.038Z</time>
      </trkpt>
      <trkpt lat="42.91709" lon="0.28627">
        <ele>1330</ele>
        <time>2017-02-09T10:38:24.038Z</time>
      </trkpt>
      <trkpt lat="42.91708" lon="0.28627">
        <ele>1330</ele>
        <time>2017-02-09T10:38:25.038Z</time>
      </trkpt>
      <trkpt lat="42.91708" lon="0.28627">
        <ele>1330</ele>
        <time>2017-02-09T10:38:26.038Z</time>
      </trkpt>
      <trkpt lat="42.91707" lon="0.28628">
        <ele>1330</ele>
        <time>2017-02-09T10:38:27.038Z</time>
      </trkpt>
      <trkpt lat="42.91706" lon="0.28628">
        <ele>1330</ele>
        <time>2017-02-09T10:38:28.038Z</time>
      </trkpt>
      <trkpt lat="42.91705" lon="0.28628">
        <ele>1331</ele>
        <time>2017-02-09T10:38:29.038Z</time>
      </trkpt>
      <trkpt lat="42.91704" lon="0.28628">
        <ele>1331</ele>
        <time>2017-02-09T10:38:30.038Z</time>
      </trkpt>
      <trkpt lat="42.91704" lon="0.28628">
        <ele>1331</ele>
        <time>2017-02-09T10:38:31.038Z</time>
      </trkpt>
      <trkpt lat="42.91703" lon="0.28629">
        <ele>1331</ele>
        <time>2017-02-09T10:38:32.038Z</time>
      </trkpt>
      <trkpt lat="42.91702" lon="0.28629">
        <ele>1331</ele>
        <time>2017-02-09T10:38:33.038Z</time>
      </trkpt>
      <trkpt lat="42.91701" lon="0.28629">
        <ele>1331</ele>
        <time>2017-02-09T10:38:34.038Z</time>
      </trkpt>
      <trkpt lat="42.917" lon="0.28629">
        <ele>1331</ele>
        <time>2017-02-09T10:38:35.038Z</time>
      </trkpt>
      <trkpt lat="42.917" lon="0.2863">
        <ele>1331</ele>
        <time>2017-02-09T10:38:36.038Z</time>
      </trkpt>
      <trkpt lat="42.91699" lon="0.2863">
        <ele>1331</ele>
        <time>2017-02-09T10:38:37.038Z</time>
      </trkpt>
      <trkpt lat="42.91698" lon="0.2863">
        <ele>1331</ele>
        <time>2017-02-09T10:38:38.038Z</time>
      </trkpt>
      <trkpt lat="42.91697" lon="0.2863">
        <ele>1330</ele>
        <time>2017-02-09T10:38:39.038Z</time>
      </trkpt>
      <trkpt lat="42.91696" lon="0.28631">
        <ele>1330</ele>
        <time>2017-02-09T10:38:40.038Z</time>
      </trkpt>
      <trkpt lat="42.91696" lon="0.28631">
        <ele>1331</ele>
        <time>2017-02-09T10:38:41.038Z</time>
      </trkpt>
      <trkpt lat="42.91695" lon="0.28631">
        <ele>1331</ele>
        <time>2017-02-09T10:38:42.038Z</time>
      </trkpt>
      <trkpt lat="42.91694" lon="0.28632">
        <ele>1331</ele>
        <time>2017-02-09T10:38:43.038Z</time>
      </trkpt>
      <trkpt lat="42.91693" lon="0.28632">
        <ele>1331</ele>
        <time>2017-02-09T10:38:44.038Z</time>
      </trkpt>
      <trkpt lat="42.91692" lon="0.28632">
        <ele>1331</ele>
        <time>2017-02-09T10:38:45.038Z</time>
      </trkpt>
      <trkpt lat="42.91692" lon="0.28633">
        <ele>1331</ele>
        <time>2017-02-09T10:38:46.038Z</time>
      </trkpt>
      <trkpt lat="42.91691" lon="0.28633">
        <ele>1331</ele>
        <time>2017-02-09T10:38:47.038Z</time>
      </trkpt>
      <trkpt lat="42.9169" lon="0.28633">
        <ele>1331</ele>
        <time>2017-02-09T10:38:48.038Z</time>
      </trkpt>
      <trkpt lat="42.91689" lon="0.28633">
        <ele>1331</ele>
        <time>2017-02-09T10:38:49.038Z</time>
      </trkpt>
      <trkpt lat="42.91689" lon="0.28634">
        <ele>1331</ele>
        <time>2017-02-09T10:38:50.038Z</time>
      </trkpt>
      <trkpt lat="42.91688" lon="0.28634">
        <ele>1331</ele>
        <time>2017-02-09T10:38:51.038Z</time>
      </trkpt>
      <trkpt lat="42.91688" lon="0.28634">
        <ele>1331</ele>
        <time>2017-02-09T10:38:52.038Z</time>
      </trkpt>
      <trkpt lat="42.91687" lon="0.28634">
        <ele>1331</ele>
        <time>2017-02-09T10:38:53.038Z</time>
      </trkpt>
      <trkpt lat="42.91686" lon="0.28635">
        <ele>1331</ele>
        <time>2017-02-09T10:38:54.038Z</time>
      </trkpt>
      <trkpt lat="42.91685" lon="0.28635">
        <ele>1331</ele>
        <time>2017-02-09T10:38:55.038Z</time>
      </trkpt>
      <trkpt lat="42.91685" lon="0.28635">
        <ele>1332</ele>
        <time>2017-02-09T10:38:56.038Z</time>
      </trkpt>
      <trkpt lat="42.91684" lon="0.28635">
        <ele>1332</ele>
        <time>2017-02-09T10:38:57.038Z</time>
      </trkpt>
      <trkpt lat="42.91683" lon="0.28635">
        <ele>1332</ele>
        <time>2017-02-09T10:38:58.038Z</time>
      </trkpt>
      <trkpt lat="42.91683" lon="0.28635">
        <ele>1332</ele>
        <time>2017-02-09T10:38:59.038Z</time>
      </trkpt>
      <trkpt lat="42.91682" lon="0.28636">
        <ele>1332</ele>
        <time>2017-02-09T10:39:00.038Z</time>
      </trkpt>
      <trkpt lat="42.91681" lon="0.28636">
        <ele>1332</ele>
        <time>2017-02-09T10:39:01.038Z</time>
      </trkpt>
      <trkpt lat="42.9168" lon="0.28636">
        <ele>1332</ele>
        <time>2017-02-09T10:39:02.038Z</time>
      </trkpt>
      <trkpt lat="42.9168" lon="0.28637">
        <ele>1333</ele>
        <time>2017-02-09T10:39:03.038Z</time>
      </trkpt>
      <trkpt lat="42.91679" lon="0.28637">
        <ele>1333</ele>
        <time>2017-02-09T10:39:04.038Z</time>
      </trkpt>
      <trkpt lat="42.91678" lon="0.28637">
        <ele>1333</ele>
        <time>2017-02-09T10:39:05.038Z</time>
      </trkpt>
      <trkpt lat="42.91678" lon="0.28637">
        <ele>1333</ele>
        <time>2017-02-09T10:39:06.038Z</time>
      </trkpt>
      <trkpt lat="42.91677" lon="0.28637">
        <ele>1334</ele>
        <time>2017-02-09T10:39:07.038Z</time>
      </trkpt>
      <trkpt lat="42.91676" lon="0.28638">
        <ele>1334</ele>
        <time>2017-02-09T10:39:08.038Z</time>
      </trkpt>
      <trkpt lat="42.91675" lon="0.28638">
        <ele>1334</ele>
        <time>2017-02-09T10:39:09.038Z</time>
      </trkpt>
      <trkpt lat="42.91675" lon="0.28638">
        <ele>1334</ele>
        <time>2017-02-09T10:39:10.038Z</time>
      </trkpt>
      <trkpt lat="42.91674" lon="0.28638">
        <ele>1334</ele>
        <time>2017-02-09T10:39:11.038Z</time>
      </trkpt>
      <trkpt lat="42.91673" lon="0.28639">
        <ele>1334</ele>
        <time>2017-02-09T10:39:12.038Z</time>
      </trkpt>
      <trkpt lat="42.91672" lon="0.28639">
        <ele>1334</ele>
        <time>2017-02-09T10:39:13.038Z</time>
      </trkpt>
      <trkpt lat="42.91672" lon="0.28639">
        <ele>1335</ele>
        <time>2017-02-09T10:39:14.038Z</time>
      </trkpt>
      <trkpt lat="42.91671" lon="0.28639">
        <ele>1335</ele>
        <time>2017-02-09T10:39:15.038Z</time>
      </trkpt>
      <trkpt lat="42.9167" lon="0.2864">
        <ele>1335</ele>
        <time>2017-02-09T10:39:16.038Z</time>
      </trkpt>
      <trkpt lat="42.91669" lon="0.2864">
        <ele>1335</ele>
        <time>2017-02-09T10:39:17.038Z</time>
      </trkpt>
      <trkpt lat="42.91669" lon="0.2864">
        <ele>1335</ele>
        <time>2017-02-09T10:39:18.038Z</time>
      </trkpt>
      <trkpt lat="42.91668" lon="0.28641">
        <ele>1336</ele>
        <time>2017-02-09T10:39:19.038Z</time>
      </trkpt>
      <trkpt lat="42.91667" lon="0.28641">
        <ele>1336</ele>
        <time>2017-02-09T10:39:20.038Z</time>
      </trkpt>
      <trkpt lat="42.91666" lon="0.28642">
        <ele>1336</ele>
        <time>2017-02-09T10:39:21.038Z</time>
      </trkpt>
      <trkpt lat="42.91665" lon="0.28642">
        <ele>1336</ele>
        <time>2017-02-09T10:39:22.038Z</time>
      </trkpt>
      <trkpt lat="42.91665" lon="0.28642">
        <ele>1336</ele>
        <time>2017-02-09T10:39:23.038Z</time>
      </trkpt>
      <trkpt lat="42.91664" lon="0.28642">
        <ele>1336</ele>
        <time>2017-02-09T10:39:24.038Z</time>
      </trkpt>
      <trkpt lat="42.91664" lon="0.28643">
        <ele>1336</ele>
        <time>2017-02-09T10:39:25.038Z</time>
      </trkpt>
      <trkpt lat="42.91663" lon="0.28643">
        <ele>1336</ele>
        <time>2017-02-09T10:39:26.038Z</time>
      </trkpt>
      <trkpt lat="42.91662" lon="0.28643">
        <ele>1336</ele>
        <time>2017-02-09T10:39:27.038Z</time>
      </trkpt>
      <trkpt lat="42.91662" lon="0.28644">
        <ele>1337</ele>
        <time>2017-02-09T10:39:28.038Z</time>
      </trkpt>
      <trkpt lat="42.91661" lon="0.28644">
        <ele>1337</ele>
        <time>2017-02-09T10:39:29.038Z</time>
      </trkpt>
      <trkpt lat="42.9166" lon="0.28645">
        <ele>1337</ele>
        <time>2017-02-09T10:39:30.038Z</time>
      </trkpt>
      <trkpt lat="42.9166" lon="0.28645">
        <ele>1337</ele>
        <time>2017-02-09T10:39:31.038Z</time>
      </trkpt>
      <trkpt lat="42.91659" lon="0.28645">
        <ele>1338</ele>
        <time>2017-02-09T10:39:32.038Z</time>
      </trkpt>
      <trkpt lat="42.91658" lon="0.28646">
        <ele>1338</ele>
        <time>2017-02-09T10:39:33.038Z</time>
      </trkpt>
      <trkpt lat="42.91657" lon="0.28646">
        <ele>1338</ele>
        <time>2017-02-09T10:39:34.038Z</time>
      </trkpt>
      <trkpt lat="42.91657" lon="0.28646">
        <ele>1338</ele>
        <time>2017-02-09T10:39:35.038Z</time>
      </trkpt>
      <trkpt lat="42.91656" lon="0.28647">
        <ele>1338</ele>
        <time>2017-02-09T10:39:36.038Z</time>
      </trkpt>
      <trkpt lat="42.91655" lon="0.28647">
        <ele>1337</ele>
        <time>2017-02-09T10:39:37.038Z</time>
      </trkpt>
      <trkpt lat="42.91654" lon="0.28648">
        <ele>1337</ele>
        <time>2017-02-09T10:39:38.038Z</time>
      </trkpt>
      <trkpt lat="42.91653" lon="0.28648">
        <ele>1336</ele>
        <time>2017-02-09T10:39:39.038Z</time>
      </trkpt>
      <trkpt lat="42.91653" lon="0.28649">
        <ele>1336</ele>
        <time>2017-02-09T10:39:40.038Z</time>
      </trkpt>
      <trkpt lat="42.91652" lon="0.28649">
        <ele>1336</ele>
        <time>2017-02-09T10:39:41.038Z</time>
      </trkpt>
      <trkpt lat="42.91651" lon="0.2865">
        <ele>1337</ele>
        <time>2017-02-09T10:39:42.038Z</time>
      </trkpt>
      <trkpt lat="42.9165" lon="0.2865">
        <ele>1337</ele>
        <time>2017-02-09T10:39:43.038Z</time>
      </trkpt>
      <trkpt lat="42.9165" lon="0.2865">
        <ele>1336</ele>
        <time>2017-02-09T10:39:44.038Z</time>
      </trkpt>
      <trkpt lat="42.91649" lon="0.2865">
        <ele>1335</ele>
        <time>2017-02-09T10:39:45.038Z</time>
      </trkpt>
      <trkpt lat="42.91648" lon="0.28651">
        <ele>1335</ele>
        <time>2017-02-09T10:39:46.038Z</time>
      </trkpt>
      <trkpt lat="42.91648" lon="0.28651">
        <ele>1335</ele>
        <time>2017-02-09T10:39:47.038Z</time>
      </trkpt>
      <trkpt lat="42.91647" lon="0.28651">
        <ele>1335</ele>
        <time>2017-02-09T10:39:48.038Z</time>
      </trkpt>
      <trkpt lat="42.91646" lon="0.28652">
        <ele>1335</ele>
        <time>2017-02-09T10:39:49.038Z</time>
      </trkpt>
      <trkpt lat="42.91645" lon="0.28652">
        <ele>1335</ele>
        <time>2017-02-09T10:39:50.038Z</time>
      </trkpt>
      <trkpt lat="42.91644" lon="0.28652">
        <ele>1335</ele>
        <time>2017-02-09T10:39:51.038Z</time>
      </trkpt>
      <trkpt lat="42.91643" lon="0.28653">
        <ele>1335</ele>
        <time>2017-02-09T10:39:52.038Z</time>
      </trkpt>
      <trkpt lat="42.91642" lon="0.28653">
        <ele>1335</ele>
        <time>2017-02-09T10:39:53.038Z</time>
      </trkpt>
      <trkpt lat="42.91642" lon="0.28654">
        <ele>1336</ele>
        <time>2017-02-09T10:39:54.038Z</time>
      </trkpt>
      <trkpt lat="42.91641" lon="0.28654">
        <ele>1336</ele>
        <time>2017-02-09T10:39:55.038Z</time>
      </trkpt>
      <trkpt lat="42.9164" lon="0.28654">
        <ele>1336</ele>
        <time>2017-02-09T10:39:56.038Z</time>
      </trkpt>
      <trkpt lat="42.91639" lon="0.28655">
        <ele>1336</ele>
        <time>2017-02-09T10:39:57.038Z</time>
      </trkpt>
      <trkpt lat="42.91638" lon="0.28655">
        <ele>1337</ele>
        <time>2017-02-09T10:39:58.038Z</time>
      </trkpt>
      <trkpt lat="42.91638" lon="0.28655">
        <ele>1337</ele>
        <time>2017-02-09T10:39:59.038Z</time>
      </trkpt>
      <trkpt lat="42.91637" lon="0.28656">
        <ele>1337</ele>
        <time>2017-02-09T10:40:00.038Z</time>
      </trkpt>
      <trkpt lat="42.91636" lon="0.28656">
        <ele>1337</ele>
        <time>2017-02-09T10:40:01.038Z</time>
      </trkpt>
      <trkpt lat="42.91635" lon="0.28656">
        <ele>1337</ele>
        <time>2017-02-09T10:40:02.038Z</time>
      </trkpt>
      <trkpt lat="42.91634" lon="0.28657">
        <ele>1337</ele>
        <time>2017-02-09T10:40:03.038Z</time>
      </trkpt>
      <trkpt lat="42.91633" lon="0.28657">
        <ele>1337</ele>
        <time>2017-02-09T10:40:04.038Z</time>
      </trkpt>
      <trkpt lat="42.91633" lon="0.28657">
        <ele>1337</ele>
        <time>2017-02-09T10:40:05.038Z</time>
      </trkpt>
      <trkpt lat="42.91632" lon="0.28658">
        <ele>1338</ele>
        <time>2017-02-09T10:40:06.038Z</time>
      </trkpt>
      <trkpt lat="42.91631" lon="0.28658">
        <ele>1338</ele>
        <time>2017-02-09T10:40:07.038Z</time>
      </trkpt>
      <trkpt lat="42.91631" lon="0.28658">
        <ele>1338</ele>
        <time>2017-02-09T10:40:08.038Z</time>
      </trkpt>
      <trkpt lat="42.9163" lon="0.28658">
        <ele>1338</ele>
        <time>2017-02-09T10:40:09.038Z</time>
      </trkpt>
      <trkpt lat="42.91629" lon="0.28658">
        <ele>1338</ele>
        <time>2017-02-09T10:40:10.038Z</time>
      </trkpt>
      <trkpt lat="42.91629" lon="0.28658">
        <ele>1338</ele>
        <time>2017-02-09T10:40:11.038Z</time>
      </trkpt>
      <trkpt lat="42.91628" lon="0.28659">
        <ele>1338</ele>
        <time>2017-02-09T10:40:12.038Z</time>
      </trkpt>
      <trkpt lat="42.91627" lon="0.28659">
        <ele>1339</ele>
        <time>2017-02-09T10:40:13.038Z</time>
      </trkpt>
      <trkpt lat="42.91626" lon="0.28659">
        <ele>1339</ele>
        <time>2017-02-09T10:40:14.038Z</time>
      </trkpt>
      <trkpt lat="42.91626" lon="0.28659">
        <ele>1339</ele>
        <time>2017-02-09T10:40:15.038Z</time>
      </trkpt>
      <trkpt lat="42.91625" lon="0.2866">
        <ele>1339</ele>
        <time>2017-02-09T10:40:16.038Z</time>
      </trkpt>
      <trkpt lat="42.91624" lon="0.2866">
        <ele>1340</ele>
        <time>2017-02-09T10:40:17.038Z</time>
      </trkpt>
      <trkpt lat="42.91623" lon="0.2866">
        <ele>1339</ele>
        <time>2017-02-09T10:40:18.038Z</time>
      </trkpt>
      <trkpt lat="42.91623" lon="0.2866">
        <ele>1340</ele>
        <time>2017-02-09T10:40:19.038Z</time>
      </trkpt>
      <trkpt lat="42.91622" lon="0.2866">
        <ele>1340</ele>
        <time>2017-02-09T10:40:20.038Z</time>
      </trkpt>
      <trkpt lat="42.91621" lon="0.2866">
        <ele>1340</ele>
        <time>2017-02-09T10:40:21.038Z</time>
      </trkpt>
      <trkpt lat="42.9162" lon="0.28661">
        <ele>1341</ele>
        <time>2017-02-09T10:40:22.038Z</time>
      </trkpt>
      <trkpt lat="42.9162" lon="0.28661">
        <ele>1341</ele>
        <time>2017-02-09T10:40:23.038Z</time>
      </trkpt>
      <trkpt lat="42.91619" lon="0.28661">
        <ele>1341</ele>
        <time>2017-02-09T10:40:24.038Z</time>
      </trkpt>
      <trkpt lat="42.91618" lon="0.28661">
        <ele>1341</ele>
        <time>2017-02-09T10:40:25.038Z</time>
      </trkpt>
      <trkpt lat="42.91618" lon="0.28661">
        <ele>1341</ele>
        <time>2017-02-09T10:40:26.038Z</time>
      </trkpt>
      <trkpt lat="42.91617" lon="0.28661">
        <ele>1341</ele>
        <time>2017-02-09T10:40:27.038Z</time>
      </trkpt>
      <trkpt lat="42.91616" lon="0.28661">
        <ele>1341</ele>
        <time>2017-02-09T10:40:28.038Z</time>
      </trkpt>
      <trkpt lat="42.91616" lon="0.28661">
        <ele>1341</ele>
        <time>2017-02-09T10:40:29.038Z</time>
      </trkpt>
      <trkpt lat="42.91615" lon="0.28661">
        <ele>1341</ele>
        <time>2017-02-09T10:40:30.038Z</time>
      </trkpt>
      <trkpt lat="42.91615" lon="0.28661">
        <ele>1341</ele>
        <time>2017-02-09T10:40:31.038Z</time>
      </trkpt>
      <trkpt lat="42.91614" lon="0.28661">
        <ele>1341</ele>
        <time>2017-02-09T10:40:32.038Z</time>
      </trkpt>
      <trkpt lat="42.91613" lon="0.28661">
        <ele>1341</ele>
        <time>2017-02-09T10:40:33.038Z</time>
      </trkpt>
      <trkpt lat="42.91613" lon="0.28661">
        <ele>1341</ele>
        <time>2017-02-09T10:40:34.038Z</time>
      </trkpt>
      <trkpt lat="42.91612" lon="0.28661">
        <ele>1341</ele>
        <time>2017-02-09T10:40:35.038Z</time>
      </trkpt>
      <trkpt lat="42.91611" lon="0.28661">
        <ele>1341</ele>
        <time>2017-02-09T10:40:36.038Z</time>
      </trkpt>
      <trkpt lat="42.9161" lon="0.28661">
        <ele>1341</ele>
        <time>2017-02-09T10:40:37.038Z</time>
      </trkpt>
      <trkpt lat="42.91609" lon="0.28661">
        <ele>1342</ele>
        <time>2017-02-09T10:40:38.038Z</time>
      </trkpt>
      <trkpt lat="42.91609" lon="0.28661">
        <ele>1342</ele>
        <time>2017-02-09T10:40:39.038Z</time>
      </trkpt>
      <trkpt lat="42.91608" lon="0.28661">
        <ele>1342</ele>
        <time>2017-02-09T10:40:40.038Z</time>
      </trkpt>
      <trkpt lat="42.91607" lon="0.28661">
        <ele>1342</ele>
        <time>2017-02-09T10:40:41.038Z</time>
      </trkpt>
      <trkpt lat="42.91606" lon="0.28661">
        <ele>1343</ele>
        <time>2017-02-09T10:40:42.038Z</time>
      </trkpt>
      <trkpt lat="42.91605" lon="0.28661">
        <ele>1343</ele>
        <time>2017-02-09T10:40:43.038Z</time>
      </trkpt>
      <trkpt lat="42.91605" lon="0.28661">
        <ele>1343</ele>
        <time>2017-02-09T10:40:44.038Z</time>
      </trkpt>
      <trkpt lat="42.91604" lon="0.28661">
        <ele>1343</ele>
        <time>2017-02-09T10:40:45.038Z</time>
      </trkpt>
      <trkpt lat="42.91603" lon="0.28661">
        <ele>1343</ele>
        <time>2017-02-09T10:40:46.038Z</time>
      </trkpt>
      <trkpt lat="42.91602" lon="0.28661">
        <ele>1343</ele>
        <time>2017-02-09T10:40:47.038Z</time>
      </trkpt>
      <trkpt lat="42.91602" lon="0.2866">
        <ele>1344</ele>
        <time>2017-02-09T10:40:48.038Z</time>
      </trkpt>
      <trkpt lat="42.91601" lon="0.2866">
        <ele>1344</ele>
        <time>2017-02-09T10:40:49.038Z</time>
      </trkpt>
      <trkpt lat="42.916" lon="0.2866">
        <ele>1343</ele>
        <time>2017-02-09T10:40:50.038Z</time>
      </trkpt>
      <trkpt lat="42.916" lon="0.2866">
        <ele>1344</ele>
        <time>2017-02-09T10:40:51.038Z</time>
      </trkpt>
      <trkpt lat="42.91599" lon="0.28659">
        <ele>1344</ele>
        <time>2017-02-09T10:40:52.038Z</time>
      </trkpt>
      <trkpt lat="42.91598" lon="0.28659">
        <ele>1344</ele>
        <time>2017-02-09T10:40:53.038Z</time>
      </trkpt>
      <trkpt lat="42.91597" lon="0.28659">
        <ele>1344</ele>
        <time>2017-02-09T10:40:54.038Z</time>
      </trkpt>
      <trkpt lat="42.91597" lon="0.28659">
        <ele>1344</ele>
        <time>2017-02-09T10:40:55.038Z</time>
      </trkpt>
      <trkpt lat="42.91596" lon="0.28659">
        <ele>1344</ele>
        <time>2017-02-09T10:40:56.038Z</time>
      </trkpt>
      <trkpt lat="42.91595" lon="0.28659">
        <ele>1344</ele>
        <time>2017-02-09T10:40:57.038Z</time>
      </trkpt>
      <trkpt lat="42.91595" lon="0.28659">
        <ele>1344</ele>
        <time>2017-02-09T10:40:58.038Z</time>
      </trkpt>
      <trkpt lat="42.91594" lon="0.28659">
        <ele>1344</ele>
        <time>2017-02-09T10:40:59.038Z</time>
      </trkpt>
      <trkpt lat="42.91593" lon="0.28658">
        <ele>1344</ele>
        <time>2017-02-09T10:41:00.038Z</time>
      </trkpt>
      <trkpt lat="42.91593" lon="0.28658">
        <ele>1344</ele>
        <time>2017-02-09T10:41:01.038Z</time>
      </trkpt>
      <trkpt lat="42.91592" lon="0.28658">
        <ele>1344</ele>
        <time>2017-02-09T10:41:02.038Z</time>
      </trkpt>
      <trkpt lat="42.91591" lon="0.28658">
        <ele>1344</ele>
        <time>2017-02-09T10:41:03.038Z</time>
      </trkpt>
      <trkpt lat="42.9159" lon="0.28658">
        <ele>1344</ele>
        <time>2017-02-09T10:41:04.038Z</time>
      </trkpt>
      <trkpt lat="42.9159" lon="0.28658">
        <ele>1344</ele>
        <time>2017-02-09T10:41:05.038Z</time>
      </trkpt>
      <trkpt lat="42.91589" lon="0.28658">
        <ele>1344</ele>
        <time>2017-02-09T10:41:06.038Z</time>
      </trkpt>
      <trkpt lat="42.91588" lon="0.28658">
        <ele>1344</ele>
        <time>2017-02-09T10:41:07.038Z</time>
      </trkpt>
      <trkpt lat="42.91587" lon="0.28657">
        <ele>1344</ele>
        <time>2017-02-09T10:41:08.038Z</time>
      </trkpt>
      <trkpt lat="42.91587" lon="0.28657">
        <ele>1344</ele>
        <time>2017-02-09T10:41:09.038Z</time>
      </trkpt>
      <trkpt lat="42.91586" lon="0.28657">
        <ele>1344</ele>
        <time>2017-02-09T10:41:10.038Z</time>
      </trkpt>
      <trkpt lat="42.91585" lon="0.28657">
        <ele>1344</ele>
        <time>2017-02-09T10:41:11.038Z</time>
      </trkpt>
      <trkpt lat="42.91585" lon="0.28657">
        <ele>1344</ele>
        <time>2017-02-09T10:41:12.038Z</time>
      </trkpt>
      <trkpt lat="42.91584" lon="0.28656">
        <ele>1344</ele>
        <time>2017-02-09T10:41:13.038Z</time>
      </trkpt>
      <trkpt lat="42.91583" lon="0.28656">
        <ele>1344</ele>
        <time>2017-02-09T10:41:14.038Z</time>
      </trkpt>
      <trkpt lat="42.91582" lon="0.28656">
        <ele>1344</ele>
        <time>2017-02-09T10:41:15.038Z</time>
      </trkpt>
      <trkpt lat="42.91582" lon="0.28655">
        <ele>1344</ele>
        <time>2017-02-09T10:41:16.038Z</time>
      </trkpt>
      <trkpt lat="42.91581" lon="0.28655">
        <ele>1344</ele>
        <time>2017-02-09T10:41:17.038Z</time>
      </trkpt>
      <trkpt lat="42.9158" lon="0.28655">
        <ele>1344</ele>
        <time>2017-02-09T10:41:18.038Z</time>
      </trkpt>
      <trkpt lat="42.91579" lon="0.28655">
        <ele>1344</ele>
        <time>2017-02-09T10:41:19.038Z</time>
      </trkpt>
      <trkpt lat="42.91579" lon="0.28654">
        <ele>1345</ele>
        <time>2017-02-09T10:41:20.038Z</time>
      </trkpt>
      <trkpt lat="42.91578" lon="0.28654">
        <ele>1345</ele>
        <time>2017-02-09T10:41:21.038Z</time>
      </trkpt>
      <trkpt lat="42.91577" lon="0.28654">
        <ele>1345</ele>
        <time>2017-02-09T10:41:22.038Z</time>
      </trkpt>
      <trkpt lat="42.91577" lon="0.28653">
        <ele>1345</ele>
        <time>2017-02-09T10:41:23.038Z</time>
      </trkpt>
      <trkpt lat="42.91576" lon="0.28653">
        <ele>1345</ele>
        <time>2017-02-09T10:41:24.038Z</time>
      </trkpt>
      <trkpt lat="42.91575" lon="0.28652">
        <ele>1345</ele>
        <time>2017-02-09T10:41:25.038Z</time>
      </trkpt>
      <trkpt lat="42.91575" lon="0.28652">
        <ele>1345</ele>
        <time>2017-02-09T10:41:26.038Z</time>
      </trkpt>
      <trkpt lat="42.91574" lon="0.28651">
        <ele>1346</ele>
        <time>2017-02-09T10:41:27.038Z</time>
      </trkpt>
      <trkpt lat="42.91573" lon="0.28651">
        <ele>1346</ele>
        <time>2017-02-09T10:41:28.038Z</time>
      </trkpt>
      <trkpt lat="42.91573" lon="0.28651">
        <ele>1346</ele>
        <time>2017-02-09T10:41:29.038Z</time>
      </trkpt>
      <trkpt lat="42.91572" lon="0.2865">
        <ele>1346</ele>
        <time>2017-02-09T10:41:30.038Z</time>
      </trkpt>
      <trkpt lat="42.91572" lon="0.2865">
        <ele>1346</ele>
        <time>2017-02-09T10:41:31.038Z</time>
      </trkpt>
      <trkpt lat="42.91571" lon="0.2865">
        <ele>1346</ele>
        <time>2017-02-09T10:41:32.038Z</time>
      </trkpt>
      <trkpt lat="42.9157" lon="0.28649">
        <ele>1346</ele>
        <time>2017-02-09T10:41:33.038Z</time>
      </trkpt>
      <trkpt lat="42.91569" lon="0.28649">
        <ele>1347</ele>
        <time>2017-02-09T10:41:34.038Z</time>
      </trkpt>
      <trkpt lat="42.91569" lon="0.28649">
        <ele>1346</ele>
        <time>2017-02-09T10:41:35.038Z</time>
      </trkpt>
      <trkpt lat="42.91568" lon="0.28648">
        <ele>1347</ele>
        <time>2017-02-09T10:41:36.038Z</time>
      </trkpt>
      <trkpt lat="42.91567" lon="0.28648">
        <ele>1347</ele>
        <time>2017-02-09T10:41:37.038Z</time>
      </trkpt>
      <trkpt lat="42.91566" lon="0.28648">
        <ele>1347</ele>
        <time>2017-02-09T10:41:38.038Z</time>
      </trkpt>
      <trkpt lat="42.91565" lon="0.28648">
        <ele>1347</ele>
        <time>2017-02-09T10:41:39.038Z</time>
      </trkpt>
      <trkpt lat="42.91565" lon="0.28648">
        <ele>1348</ele>
        <time>2017-02-09T10:41:40.038Z</time>
      </trkpt>
      <trkpt lat="42.91564" lon="0.28647">
        <ele>1348</ele>
        <time>2017-02-09T10:41:41.038Z</time>
      </trkpt>
      <trkpt lat="42.91563" lon="0.28647">
        <ele>1348</ele>
        <time>2017-02-09T10:41:42.038Z</time>
      </trkpt>
      <trkpt lat="42.91563" lon="0.28646">
        <ele>1348</ele>
        <time>2017-02-09T10:41:43.038Z</time>
      </trkpt>
      <trkpt lat="42.91562" lon="0.28646">
        <ele>1348</ele>
        <time>2017-02-09T10:41:44.038Z</time>
      </trkpt>
      <trkpt lat="42.91561" lon="0.28646">
        <ele>1348</ele>
        <time>2017-02-09T10:41:45.038Z</time>
      </trkpt>
      <trkpt lat="42.9156" lon="0.28646">
        <ele>1349</ele>
        <time>2017-02-09T10:41:46.038Z</time>
      </trkpt>
      <trkpt lat="42.9156" lon="0.28646">
        <ele>1349</ele>
        <time>2017-02-09T10:41:47.038Z</time>
      </trkpt>
      <trkpt lat="42.91559" lon="0.28645">
        <ele>1349</ele>
        <time>2017-02-09T10:41:48.038Z</time>
      </trkpt>
      <trkpt lat="42.91558" lon="0.28645">
        <ele>1349</ele>
        <time>2017-02-09T10:41:49.038Z</time>
      </trkpt>
      <trkpt lat="42.91557" lon="0.28645">
        <ele>1349</ele>
        <time>2017-02-09T10:41:50.038Z</time>
      </trkpt>
      <trkpt lat="42.91557" lon="0.28645">
        <ele>1349</ele>
        <time>2017-02-09T10:41:51.038Z</time>
      </trkpt>
      <trkpt lat="42.91556" lon="0.28644">
        <ele>1350</ele>
        <time>2017-02-09T10:41:52.038Z</time>
      </trkpt>
      <trkpt lat="42.91555" lon="0.28644">
        <ele>1350</ele>
        <time>2017-02-09T10:41:53.038Z</time>
      </trkpt>
      <trkpt lat="42.91555" lon="0.28644">
        <ele>1350</ele>
        <time>2017-02-09T10:41:54.038Z</time>
      </trkpt>
      <trkpt lat="42.91554" lon="0.28644">
        <ele>1350</ele>
        <time>2017-02-09T10:41:55.038Z</time>
      </trkpt>
      <trkpt lat="42.91553" lon="0.28643">
        <ele>1350</ele>
        <time>2017-02-09T10:41:56.038Z</time>
      </trkpt>
      <trkpt lat="42.91553" lon="0.28643">
        <ele>1351</ele>
        <time>2017-02-09T10:41:57.038Z</time>
      </trkpt>
      <trkpt lat="42.91552" lon="0.28643">
        <ele>1351</ele>
        <time>2017-02-09T10:41:58.038Z</time>
      </trkpt>
      <trkpt lat="42.91551" lon="0.28643">
        <ele>1351</ele>
        <time>2017-02-09T10:41:59.038Z</time>
      </trkpt>
      <trkpt lat="42.91551" lon="0.28642">
        <ele>1351</ele>
        <time>2017-02-09T10:42:00.038Z</time>
      </trkpt>
      <trkpt lat="42.91551" lon="0.28642">
        <ele>1351</ele>
        <time>2017-02-09T10:42:01.038Z</time>
      </trkpt>
      <trkpt lat="42.91551" lon="0.28642">
        <ele>1351</ele>
        <time>2017-02-09T10:42:02.038Z</time>
      </trkpt>
      <trkpt lat="42.91551" lon="0.28642">
        <ele>1351</ele>
        <time>2017-02-09T10:42:03.038Z</time>
      </trkpt>
      <trkpt lat="42.91549" lon="0.28641">
        <ele>1351</ele>
        <time>2017-02-09T10:42:04.046Z</time>
      </trkpt>
      <trkpt lat="42.91548" lon="0.28641">
        <ele>1351</ele>
        <time>2017-02-09T10:42:05.046Z</time>
      </trkpt>
      <trkpt lat="42.91548" lon="0.28641">
        <ele>1351</ele>
        <time>2017-02-09T10:42:06.046Z</time>
      </trkpt>
      <trkpt lat="42.91547" lon="0.28641">
        <ele>1351</ele>
        <time>2017-02-09T10:42:07.046Z</time>
      </trkpt>
      <trkpt lat="42.91546" lon="0.28641">
        <ele>1351</ele>
        <time>2017-02-09T10:42:08.046Z</time>
      </trkpt>
      <trkpt lat="42.91545" lon="0.2864">
        <ele>1351</ele>
        <time>2017-02-09T10:42:09.046Z</time>
      </trkpt>
      <trkpt lat="42.91545" lon="0.2864">
        <ele>1352</ele>
        <time>2017-02-09T10:42:10.046Z</time>
      </trkpt>
      <trkpt lat="42.91544" lon="0.2864">
        <ele>1351</ele>
        <time>2017-02-09T10:42:11.046Z</time>
      </trkpt>
      <trkpt lat="42.91543" lon="0.2864">
        <ele>1351</ele>
        <time>2017-02-09T10:42:12.046Z</time>
      </trkpt>
      <trkpt lat="42.91542" lon="0.2864">
        <ele>1351</ele>
        <time>2017-02-09T10:42:13.046Z</time>
      </trkpt>
      <trkpt lat="42.91542" lon="0.2864">
        <ele>1351</ele>
        <time>2017-02-09T10:42:14.046Z</time>
      </trkpt>
      <trkpt lat="42.91541" lon="0.2864">
        <ele>1351</ele>
        <time>2017-02-09T10:42:15.046Z</time>
      </trkpt>
      <trkpt lat="42.9154" lon="0.2864">
        <ele>1351</ele>
        <time>2017-02-09T10:42:16.046Z</time>
      </trkpt>
      <trkpt lat="42.9154" lon="0.2864">
        <ele>1352</ele>
        <time>2017-02-09T10:42:17.046Z</time>
      </trkpt>
      <trkpt lat="42.91539" lon="0.2864">
        <ele>1352</ele>
        <time>2017-02-09T10:42:18.046Z</time>
      </trkpt>
      <trkpt lat="42.91538" lon="0.2864">
        <ele>1352</ele>
        <time>2017-02-09T10:42:19.046Z</time>
      </trkpt>
      <trkpt lat="42.91537" lon="0.2864">
        <ele>1352</ele>
        <time>2017-02-09T10:42:20.046Z</time>
      </trkpt>
      <trkpt lat="42.91536" lon="0.2864">
        <ele>1352</ele>
        <time>2017-02-09T10:42:21.046Z</time>
      </trkpt>
      <trkpt lat="42.91535" lon="0.2864">
        <ele>1352</ele>
        <time>2017-02-09T10:42:22.046Z</time>
      </trkpt>
      <trkpt lat="42.91535" lon="0.2864">
        <ele>1353</ele>
        <time>2017-02-09T10:42:23.046Z</time>
      </trkpt>
      <trkpt lat="42.91534" lon="0.2864">
        <ele>1353</ele>
        <time>2017-02-09T10:42:24.046Z</time>
      </trkpt>
      <trkpt lat="42.91533" lon="0.2864">
        <ele>1353</ele>
        <time>2017-02-09T10:42:25.046Z</time>
      </trkpt>
      <trkpt lat="42.91532" lon="0.2864">
        <ele>1353</ele>
        <time>2017-02-09T10:42:26.046Z</time>
      </trkpt>
      <trkpt lat="42.91532" lon="0.28639">
        <ele>1353</ele>
        <time>2017-02-09T10:42:27.046Z</time>
      </trkpt>
      <trkpt lat="42.91531" lon="0.28639">
        <ele>1353</ele>
        <time>2017-02-09T10:42:28.046Z</time>
      </trkpt>
      <trkpt lat="42.9153" lon="0.28639">
        <ele>1353</ele>
        <time>2017-02-09T10:42:29.046Z</time>
      </trkpt>
      <trkpt lat="42.91529" lon="0.28639">
        <ele>1353</ele>
        <time>2017-02-09T10:42:30.046Z</time>
      </trkpt>
      <trkpt lat="42.91528" lon="0.28639">
        <ele>1353</ele>
        <time>2017-02-09T10:42:31.046Z</time>
      </trkpt>
      <trkpt lat="42.91528" lon="0.28639">
        <ele>1353</ele>
        <time>2017-02-09T10:42:32.046Z</time>
      </trkpt>
      <trkpt lat="42.91527" lon="0.28639">
        <ele>1353</ele>
        <time>2017-02-09T10:42:33.046Z</time>
      </trkpt>
      <trkpt lat="42.91526" lon="0.28639">
        <ele>1352</ele>
        <time>2017-02-09T10:42:34.046Z</time>
      </trkpt>
      <trkpt lat="42.91525" lon="0.28639">
        <ele>1352</ele>
        <time>2017-02-09T10:42:35.046Z</time>
      </trkpt>
      <trkpt lat="42.91524" lon="0.28638">
        <ele>1352</ele>
        <time>2017-02-09T10:42:36.046Z</time>
      </trkpt>
      <trkpt lat="42.91524" lon="0.28639">
        <ele>1352</ele>
        <time>2017-02-09T10:42:37.046Z</time>
      </trkpt>
      <trkpt lat="42.91523" lon="0.28639">
        <ele>1353</ele>
        <time>2017-02-09T10:42:38.046Z</time>
      </trkpt>
      <trkpt lat="42.91522" lon="0.28639">
        <ele>1352</ele>
        <time>2017-02-09T10:42:39.046Z</time>
      </trkpt>
      <trkpt lat="42.91521" lon="0.28638">
        <ele>1352</ele>
        <time>2017-02-09T10:42:40.046Z</time>
      </trkpt>
      <trkpt lat="42.9152" lon="0.28638">
        <ele>1352</ele>
        <time>2017-02-09T10:42:41.046Z</time>
      </trkpt>
      <trkpt lat="42.91519" lon="0.28638">
        <ele>1352</ele>
        <time>2017-02-09T10:42:42.046Z</time>
      </trkpt>
      <trkpt lat="42.91518" lon="0.28638">
        <ele>1352</ele>
        <time>2017-02-09T10:42:43.046Z</time>
      </trkpt>
      <trkpt lat="42.91517" lon="0.28638">
        <ele>1352</ele>
        <time>2017-02-09T10:42:44.046Z</time>
      </trkpt>
      <trkpt lat="42.91517" lon="0.28638">
        <ele>1352</ele>
        <time>2017-02-09T10:42:45.046Z</time>
      </trkpt>
      <trkpt lat="42.91516" lon="0.28637">
        <ele>1352</ele>
        <time>2017-02-09T10:42:46.046Z</time>
      </trkpt>
      <trkpt lat="42.91515" lon="0.28637">
        <ele>1352</ele>
        <time>2017-02-09T10:42:47.046Z</time>
      </trkpt>
      <trkpt lat="42.91514" lon="0.28637">
        <ele>1352</ele>
        <time>2017-02-09T10:42:48.046Z</time>
      </trkpt>
      <trkpt lat="42.91513" lon="0.28638">
        <ele>1352</ele>
        <time>2017-02-09T10:42:49.046Z</time>
      </trkpt>
      <trkpt lat="42.91512" lon="0.28637">
        <ele>1352</ele>
        <time>2017-02-09T10:42:50.046Z</time>
      </trkpt>
      <trkpt lat="42.91512" lon="0.28637">
        <ele>1353</ele>
        <time>2017-02-09T10:42:51.046Z</time>
      </trkpt>
      <trkpt lat="42.91511" lon="0.28637">
        <ele>1352</ele>
        <time>2017-02-09T10:42:52.046Z</time>
      </trkpt>
      <trkpt lat="42.9151" lon="0.28637">
        <ele>1352</ele>
        <time>2017-02-09T10:42:53.046Z</time>
      </trkpt>
      <trkpt lat="42.91509" lon="0.28637">
        <ele>1352</ele>
        <time>2017-02-09T10:42:54.046Z</time>
      </trkpt>
      <trkpt lat="42.91509" lon="0.28637">
        <ele>1353</ele>
        <time>2017-02-09T10:42:55.046Z</time>
      </trkpt>
      <trkpt lat="42.91508" lon="0.28636">
        <ele>1353</ele>
        <time>2017-02-09T10:42:56.046Z</time>
      </trkpt>
      <trkpt lat="42.91507" lon="0.28636">
        <ele>1353</ele>
        <time>2017-02-09T10:42:57.046Z</time>
      </trkpt>
      <trkpt lat="42.91506" lon="0.28635">
        <ele>1354</ele>
        <time>2017-02-09T10:42:58.046Z</time>
      </trkpt>
      <trkpt lat="42.91505" lon="0.28635">
        <ele>1354</ele>
        <time>2017-02-09T10:42:59.046Z</time>
      </trkpt>
      <trkpt lat="42.91505" lon="0.28635">
        <ele>1354</ele>
        <time>2017-02-09T10:43:00.046Z</time>
      </trkpt>
      <trkpt lat="42.91504" lon="0.28635">
        <ele>1354</ele>
        <time>2017-02-09T10:43:01.046Z</time>
      </trkpt>
      <trkpt lat="42.91503" lon="0.28634">
        <ele>1354</ele>
        <time>2017-02-09T10:43:02.046Z</time>
      </trkpt>
      <trkpt lat="42.91502" lon="0.28634">
        <ele>1354</ele>
        <time>2017-02-09T10:43:03.046Z</time>
      </trkpt>
      <trkpt lat="42.91502" lon="0.28634">
        <ele>1354</ele>
        <time>2017-02-09T10:43:04.046Z</time>
      </trkpt>
      <trkpt lat="42.91501" lon="0.28634">
        <ele>1354</ele>
        <time>2017-02-09T10:43:05.046Z</time>
      </trkpt>
      <trkpt lat="42.915" lon="0.28634">
        <ele>1354</ele>
        <time>2017-02-09T10:43:06.046Z</time>
      </trkpt>
      <trkpt lat="42.91499" lon="0.28633">
        <ele>1354</ele>
        <time>2017-02-09T10:43:07.046Z</time>
      </trkpt>
      <trkpt lat="42.91498" lon="0.28633">
        <ele>1354</ele>
        <time>2017-02-09T10:43:08.046Z</time>
      </trkpt>
      <trkpt lat="42.91497" lon="0.28633">
        <ele>1354</ele>
        <time>2017-02-09T10:43:09.046Z</time>
      </trkpt>
      <trkpt lat="42.91497" lon="0.28632">
        <ele>1355</ele>
        <time>2017-02-09T10:43:10.046Z</time>
      </trkpt>
      <trkpt lat="42.91496" lon="0.28632">
        <ele>1355</ele>
        <time>2017-02-09T10:43:11.046Z</time>
      </trkpt>
      <trkpt lat="42.91495" lon="0.28632">
        <ele>1355</ele>
        <time>2017-02-09T10:43:12.046Z</time>
      </trkpt>
      <trkpt lat="42.91494" lon="0.28632">
        <ele>1355</ele>
        <time>2017-02-09T10:43:13.046Z</time>
      </trkpt>
      <trkpt lat="42.91493" lon="0.28632">
        <ele>1355</ele>
        <time>2017-02-09T10:43:14.046Z</time>
      </trkpt>
      <trkpt lat="42.91492" lon="0.28631">
        <ele>1355</ele>
        <time>2017-02-09T10:43:15.046Z</time>
      </trkpt>
      <trkpt lat="42.91492" lon="0.28631">
        <ele>1355</ele>
        <time>2017-02-09T10:43:16.046Z</time>
      </trkpt>
      <trkpt lat="42.91491" lon="0.28631">
        <ele>1355</ele>
        <time>2017-02-09T10:43:17.046Z</time>
      </trkpt>
      <trkpt lat="42.9149" lon="0.2863">
        <ele>1354</ele>
        <time>2017-02-09T10:43:18.046Z</time>
      </trkpt>
      <trkpt lat="42.9149" lon="0.2863">
        <ele>1354</ele>
        <time>2017-02-09T10:43:19.046Z</time>
      </trkpt>
      <trkpt lat="42.91489" lon="0.2863">
        <ele>1354</ele>
        <time>2017-02-09T10:43:20.046Z</time>
      </trkpt>
      <trkpt lat="42.91488" lon="0.28629">
        <ele>1354</ele>
        <time>2017-02-09T10:43:21.046Z</time>
      </trkpt>
      <trkpt lat="42.91488" lon="0.28629">
        <ele>1355</ele>
        <time>2017-02-09T10:43:22.046Z</time>
      </trkpt>
      <trkpt lat="42.91488" lon="0.28629">
        <ele>1354</ele>
        <time>2017-02-09T10:43:23.046Z</time>
      </trkpt>
      <trkpt lat="42.91488" lon="0.28629">
        <ele>1354</ele>
        <time>2017-02-09T10:43:24.046Z</time>
      </trkpt>
      <trkpt lat="42.91488" lon="0.2863">
        <ele>1354</ele>
        <time>2017-02-09T10:43:25.046Z</time>
      </trkpt>
      <trkpt lat="42.91488" lon="0.2863">
        <ele>1354</ele>
        <time>2017-02-09T10:43:26.046Z</time>
      </trkpt>
      <trkpt lat="42.91488" lon="0.2863">
        <ele>1354</ele>
        <time>2017-02-09T10:43:27.046Z</time>
      </trkpt>
      <trkpt lat="42.91488" lon="0.2863">
        <ele>1353</ele>
        <time>2017-02-09T10:43:28.046Z</time>
      </trkpt>
      <trkpt lat="42.91488" lon="0.2863">
        <ele>1353</ele>
        <time>2017-02-09T10:43:29.046Z</time>
      </trkpt>
      <trkpt lat="42.91488" lon="0.2863">
        <ele>1353</ele>
        <time>2017-02-09T10:43:30.046Z</time>
      </trkpt>
      <trkpt lat="42.91487" lon="0.2863">
        <ele>1353</ele>
        <time>2017-02-09T10:43:31.046Z</time>
      </trkpt>
      <trkpt lat="42.91486" lon="0.28629">
        <ele>1353</ele>
        <time>2017-02-09T10:43:32.046Z</time>
      </trkpt>
      <trkpt lat="42.91486" lon="0.28629">
        <ele>1353</ele>
        <time>2017-02-09T10:43:33.046Z</time>
      </trkpt>
      <trkpt lat="42.91485" lon="0.28629">
        <ele>1352</ele>
        <time>2017-02-09T10:43:34.046Z</time>
      </trkpt>
      <trkpt lat="42.91484" lon="0.28629">
        <ele>1352</ele>
        <time>2017-02-09T10:43:35.046Z</time>
      </trkpt>
      <trkpt lat="42.91484" lon="0.28628">
        <ele>1353</ele>
        <time>2017-02-09T10:43:36.046Z</time>
      </trkpt>
      <trkpt lat="42.91483" lon="0.28628">
        <ele>1353</ele>
        <time>2017-02-09T10:43:37.046Z</time>
      </trkpt>
      <trkpt lat="42.91482" lon="0.28628">
        <ele>1352</ele>
        <time>2017-02-09T10:43:38.046Z</time>
      </trkpt>
      <trkpt lat="42.91482" lon="0.28627">
        <ele>1353</ele>
        <time>2017-02-09T10:43:39.046Z</time>
      </trkpt>
      <trkpt lat="42.91481" lon="0.28627">
        <ele>1353</ele>
        <time>2017-02-09T10:43:40.046Z</time>
      </trkpt>
      <trkpt lat="42.9148" lon="0.28627">
        <ele>1353</ele>
        <time>2017-02-09T10:43:41.046Z</time>
      </trkpt>
      <trkpt lat="42.9148" lon="0.28627">
        <ele>1353</ele>
        <time>2017-02-09T10:43:42.046Z</time>
      </trkpt>
      <trkpt lat="42.9148" lon="0.28626">
        <ele>1353</ele>
        <time>2017-02-09T10:43:43.046Z</time>
      </trkpt>
      <trkpt lat="42.91479" lon="0.28626">
        <ele>1354</ele>
        <time>2017-02-09T10:43:44.046Z</time>
      </trkpt>
      <trkpt lat="42.91479" lon="0.28626">
        <ele>1354</ele>
        <time>2017-02-09T10:43:45.046Z</time>
      </trkpt>
      <trkpt lat="42.91475" lon="0.28626">
        <ele>1358</ele>
        <time>2017-02-09T10:43:46.050Z</time>
      </trkpt>
      <trkpt lat="42.91474" lon="0.28626">
        <ele>1358</ele>
        <time>2017-02-09T10:43:47.050Z</time>
      </trkpt>
      <trkpt lat="42.91473" lon="0.28626">
        <ele>1358</ele>
        <time>2017-02-09T10:43:48.050Z</time>
      </trkpt>
      <trkpt lat="42.91473" lon="0.28625">
        <ele>1358</ele>
        <time>2017-02-09T10:43:49.050Z</time>
      </trkpt>
      <trkpt lat="42.91472" lon="0.28625">
        <ele>1358</ele>
        <time>2017-02-09T10:43:50.050Z</time>
      </trkpt>
      <trkpt lat="42.91471" lon="0.28625">
        <ele>1358</ele>
        <time>2017-02-09T10:43:51.050Z</time>
      </trkpt>
      <trkpt lat="42.91471" lon="0.28625">
        <ele>1357</ele>
        <time>2017-02-09T10:43:52.050Z</time>
      </trkpt>
      <trkpt lat="42.9147" lon="0.28624">
        <ele>1357</ele>
        <time>2017-02-09T10:43:53.050Z</time>
      </trkpt>
      <trkpt lat="42.91469" lon="0.28624">
        <ele>1357</ele>
        <time>2017-02-09T10:43:54.050Z</time>
      </trkpt>
      <trkpt lat="42.91469" lon="0.28624">
        <ele>1358</ele>
        <time>2017-02-09T10:43:55.050Z</time>
      </trkpt>
      <trkpt lat="42.91468" lon="0.28624">
        <ele>1357</ele>
        <time>2017-02-09T10:43:56.050Z</time>
      </trkpt>
      <trkpt lat="42.91467" lon="0.28623">
        <ele>1357</ele>
        <time>2017-02-09T10:43:57.050Z</time>
      </trkpt>
      <trkpt lat="42.91467" lon="0.28623">
        <ele>1357</ele>
        <time>2017-02-09T10:43:58.050Z</time>
      </trkpt>
      <trkpt lat="42.91466" lon="0.28623">
        <ele>1357</ele>
        <time>2017-02-09T10:43:59.050Z</time>
      </trkpt>
      <trkpt lat="42.91465" lon="0.28623">
        <ele>1358</ele>
        <time>2017-02-09T10:44:00.050Z</time>
      </trkpt>
      <trkpt lat="42.91464" lon="0.28622">
        <ele>1358</ele>
        <time>2017-02-09T10:44:01.050Z</time>
      </trkpt>
      <trkpt lat="42.91464" lon="0.28622">
        <ele>1357</ele>
        <time>2017-02-09T10:44:02.050Z</time>
      </trkpt>
      <trkpt lat="42.91463" lon="0.28622">
        <ele>1357</ele>
        <time>2017-02-09T10:44:03.050Z</time>
      </trkpt>
      <trkpt lat="42.91462" lon="0.28622">
        <ele>1357</ele>
        <time>2017-02-09T10:44:04.050Z</time>
      </trkpt>
      <trkpt lat="42.91462" lon="0.28622">
        <ele>1357</ele>
        <time>2017-02-09T10:44:05.050Z</time>
      </trkpt>
      <trkpt lat="42.91461" lon="0.28622">
        <ele>1357</ele>
        <time>2017-02-09T10:44:06.050Z</time>
      </trkpt>
      <trkpt lat="42.9146" lon="0.28621">
        <ele>1357</ele>
        <time>2017-02-09T10:44:07.050Z</time>
      </trkpt>
      <trkpt lat="42.91459" lon="0.28621">
        <ele>1357</ele>
        <time>2017-02-09T10:44:08.050Z</time>
      </trkpt>
      <trkpt lat="42.91458" lon="0.28621">
        <ele>1357</ele>
        <time>2017-02-09T10:44:09.050Z</time>
      </trkpt>
      <trkpt lat="42.91458" lon="0.28621">
        <ele>1357</ele>
        <time>2017-02-09T10:44:10.050Z</time>
      </trkpt>
      <trkpt lat="42.91457" lon="0.28621">
        <ele>1356</ele>
        <time>2017-02-09T10:44:11.050Z</time>
      </trkpt>
      <trkpt lat="42.91456" lon="0.28621">
        <ele>1356</ele>
        <time>2017-02-09T10:44:12.050Z</time>
      </trkpt>
      <trkpt lat="42.91456" lon="0.2862">
        <ele>1356</ele>
        <time>2017-02-09T10:44:13.050Z</time>
      </trkpt>
      <trkpt lat="42.91455" lon="0.2862">
        <ele>1356</ele>
        <time>2017-02-09T10:44:14.050Z</time>
      </trkpt>
      <trkpt lat="42.91454" lon="0.2862">
        <ele>1356</ele>
        <time>2017-02-09T10:44:15.050Z</time>
      </trkpt>
      <trkpt lat="42.91454" lon="0.28619">
        <ele>1356</ele>
        <time>2017-02-09T10:44:16.050Z</time>
      </trkpt>
      <trkpt lat="42.91453" lon="0.28619">
        <ele>1356</ele>
        <time>2017-02-09T10:44:17.050Z</time>
      </trkpt>
      <trkpt lat="42.91452" lon="0.28619">
        <ele>1356</ele>
        <time>2017-02-09T10:44:18.050Z</time>
      </trkpt>
      <trkpt lat="42.91452" lon="0.28619">
        <ele>1355</ele>
        <time>2017-02-09T10:44:19.050Z</time>
      </trkpt>
      <trkpt lat="42.91451" lon="0.28619">
        <ele>1356</ele>
        <time>2017-02-09T10:44:20.050Z</time>
      </trkpt>
      <trkpt lat="42.91451" lon="0.28618">
        <ele>1356</ele>
        <time>2017-02-09T10:44:21.050Z</time>
      </trkpt>
      <trkpt lat="42.9145" lon="0.28618">
        <ele>1355</ele>
        <time>2017-02-09T10:44:22.050Z</time>
      </trkpt>
      <trkpt lat="42.91449" lon="0.28618">
        <ele>1356</ele>
        <time>2017-02-09T10:44:23.050Z</time>
      </trkpt>
      <trkpt lat="42.91449" lon="0.28617">
        <ele>1356</ele>
        <time>2017-02-09T10:44:24.050Z</time>
      </trkpt>
      <trkpt lat="42.91448" lon="0.28617">
        <ele>1356</ele>
        <time>2017-02-09T10:44:25.050Z</time>
      </trkpt>
      <trkpt lat="42.91447" lon="0.28617">
        <ele>1356</ele>
        <time>2017-02-09T10:44:26.050Z</time>
      </trkpt>
      <trkpt lat="42.91447" lon="0.28617">
        <ele>1356</ele>
        <time>2017-02-09T10:44:27.050Z</time>
      </trkpt>
      <trkpt lat="42.91446" lon="0.28616">
        <ele>1356</ele>
        <time>2017-02-09T10:44:28.050Z</time>
      </trkpt>
      <trkpt lat="42.91445" lon="0.28616">
        <ele>1356</ele>
        <time>2017-02-09T10:44:29.050Z</time>
      </trkpt>
      <trkpt lat="42.91444" lon="0.28616">
        <ele>1356</ele>
        <time>2017-02-09T10:44:30.050Z</time>
      </trkpt>
      <trkpt lat="42.91444" lon="0.28615">
        <ele>1356</ele>
        <time>2017-02-09T10:44:31.050Z</time>
      </trkpt>
      <trkpt lat="42.91443" lon="0.28615">
        <ele>1356</ele>
        <time>2017-02-09T10:44:32.050Z</time>
      </trkpt>
      <trkpt lat="42.91442" lon="0.28615">
        <ele>1357</ele>
        <time>2017-02-09T10:44:33.050Z</time>
      </trkpt>
      <trkpt lat="42.91441" lon="0.28614">
        <ele>1357</ele>
        <time>2017-02-09T10:44:34.050Z</time>
      </trkpt>
      <trkpt lat="42.91441" lon="0.28614">
        <ele>1357</ele>
        <time>2017-02-09T10:44:35.050Z</time>
      </trkpt>
      <trkpt lat="42.9144" lon="0.28613">
        <ele>1357</ele>
        <time>2017-02-09T10:44:36.050Z</time>
      </trkpt>
      <trkpt lat="42.91439" lon="0.28613">
        <ele>1357</ele>
        <time>2017-02-09T10:44:37.050Z</time>
      </trkpt>
      <trkpt lat="42.91438" lon="0.28613">
        <ele>1357</ele>
        <time>2017-02-09T10:44:38.050Z</time>
      </trkpt>
      <trkpt lat="42.91438" lon="0.28613">
        <ele>1357</ele>
        <time>2017-02-09T10:44:39.050Z</time>
      </trkpt>
      <trkpt lat="42.91437" lon="0.28612">
        <ele>1357</ele>
        <time>2017-02-09T10:44:40.050Z</time>
      </trkpt>
      <trkpt lat="42.91436" lon="0.28612">
        <ele>1358</ele>
        <time>2017-02-09T10:44:41.050Z</time>
      </trkpt>
      <trkpt lat="42.91435" lon="0.28612">
        <ele>1358</ele>
        <time>2017-02-09T10:44:42.050Z</time>
      </trkpt>
      <trkpt lat="42.91434" lon="0.28611">
        <ele>1357</ele>
        <time>2017-02-09T10:44:43.050Z</time>
      </trkpt>
      <trkpt lat="42.91434" lon="0.28611">
        <ele>1358</ele>
        <time>2017-02-09T10:44:44.050Z</time>
      </trkpt>
      <trkpt lat="42.91433" lon="0.28611">
        <ele>1358</ele>
        <time>2017-02-09T10:44:45.050Z</time>
      </trkpt>
      <trkpt lat="42.91432" lon="0.2861">
        <ele>1358</ele>
        <time>2017-02-09T10:44:46.050Z</time>
      </trkpt>
      <trkpt lat="42.91432" lon="0.2861">
        <ele>1358</ele>
        <time>2017-02-09T10:44:47.050Z</time>
      </trkpt>
      <trkpt lat="42.91431" lon="0.28609">
        <ele>1358</ele>
        <time>2017-02-09T10:44:48.050Z</time>
      </trkpt>
      <trkpt lat="42.9143" lon="0.28609">
        <ele>1358</ele>
        <time>2017-02-09T10:44:49.050Z</time>
      </trkpt>
      <trkpt lat="42.91429" lon="0.28609">
        <ele>1359</ele>
        <time>2017-02-09T10:44:50.050Z</time>
      </trkpt>
      <trkpt lat="42.91429" lon="0.28608">
        <ele>1359</ele>
        <time>2017-02-09T10:44:51.050Z</time>
      </trkpt>
      <trkpt lat="42.91428" lon="0.28608">
        <ele>1359</ele>
        <time>2017-02-09T10:44:52.050Z</time>
      </trkpt>
      <trkpt lat="42.91427" lon="0.28608">
        <ele>1359</ele>
        <time>2017-02-09T10:44:53.050Z</time>
      </trkpt>
      <trkpt lat="42.91426" lon="0.28607">
        <ele>1359</ele>
        <time>2017-02-09T10:44:54.050Z</time>
      </trkpt>
      <trkpt lat="42.91426" lon="0.28607">
        <ele>1359</ele>
        <time>2017-02-09T10:44:55.050Z</time>
      </trkpt>
      <trkpt lat="42.91425" lon="0.28607">
        <ele>1359</ele>
        <time>2017-02-09T10:44:56.050Z</time>
      </trkpt>
      <trkpt lat="42.91424" lon="0.28606">
        <ele>1360</ele>
        <time>2017-02-09T10:44:57.050Z</time>
      </trkpt>
      <trkpt lat="42.91423" lon="0.28606">
        <ele>1360</ele>
        <time>2017-02-09T10:44:58.050Z</time>
      </trkpt>
      <trkpt lat="42.91423" lon="0.28606">
        <ele>1360</ele>
        <time>2017-02-09T10:44:59.050Z</time>
      </trkpt>
      <trkpt lat="42.91422" lon="0.28605">
        <ele>1360</ele>
        <time>2017-02-09T10:45:00.050Z</time>
      </trkpt>
      <trkpt lat="42.91421" lon="0.28605">
        <ele>1360</ele>
        <time>2017-02-09T10:45:01.050Z</time>
      </trkpt>
      <trkpt lat="42.9142" lon="0.28605">
        <ele>1360</ele>
        <time>2017-02-09T10:45:02.050Z</time>
      </trkpt>
      <trkpt lat="42.9142" lon="0.28604">
        <ele>1360</ele>
        <time>2017-02-09T10:45:03.050Z</time>
      </trkpt>
      <trkpt lat="42.91419" lon="0.28603">
        <ele>1360</ele>
        <time>2017-02-09T10:45:04.050Z</time>
      </trkpt>
      <trkpt lat="42.91419" lon="0.28603">
        <ele>1360</ele>
        <time>2017-02-09T10:45:05.050Z</time>
      </trkpt>
      <trkpt lat="42.91418" lon="0.28603">
        <ele>1360</ele>
        <time>2017-02-09T10:45:06.050Z</time>
      </trkpt>
      <trkpt lat="42.91417" lon="0.28602">
        <ele>1360</ele>
        <time>2017-02-09T10:45:07.050Z</time>
      </trkpt>
      <trkpt lat="42.91417" lon="0.28602">
        <ele>1360</ele>
        <time>2017-02-09T10:45:08.050Z</time>
      </trkpt>
      <trkpt lat="42.91416" lon="0.28601">
        <ele>1360</ele>
        <time>2017-02-09T10:45:09.050Z</time>
      </trkpt>
      <trkpt lat="42.91415" lon="0.286">
        <ele>1360</ele>
        <time>2017-02-09T10:45:10.050Z</time>
      </trkpt>
      <trkpt lat="42.91415" lon="0.286">
        <ele>1360</ele>
        <time>2017-02-09T10:45:11.050Z</time>
      </trkpt>
      <trkpt lat="42.91414" lon="0.28599">
        <ele>1360</ele>
        <time>2017-02-09T10:45:12.050Z</time>
      </trkpt>
      <trkpt lat="42.91414" lon="0.28599">
        <ele>1360</ele>
        <time>2017-02-09T10:45:13.050Z</time>
      </trkpt>
      <trkpt lat="42.91413" lon="0.28598">
        <ele>1360</ele>
        <time>2017-02-09T10:45:14.050Z</time>
      </trkpt>
      <trkpt lat="42.91413" lon="0.28597">
        <ele>1359</ele>
        <time>2017-02-09T10:45:15.050Z</time>
      </trkpt>
      <trkpt lat="42.91412" lon="0.28597">
        <ele>1359</ele>
        <time>2017-02-09T10:45:16.050Z</time>
      </trkpt>
      <trkpt lat="42.91411" lon="0.28596">
        <ele>1360</ele>
        <time>2017-02-09T10:45:17.050Z</time>
      </trkpt>
      <trkpt lat="42.91411" lon="0.28595">
        <ele>1359</ele>
        <time>2017-02-09T10:45:18.050Z</time>
      </trkpt>
      <trkpt lat="42.9141" lon="0.28594">
        <ele>1359</ele>
        <time>2017-02-09T10:45:19.050Z</time>
      </trkpt>
      <trkpt lat="42.9141" lon="0.28594">
        <ele>1359</ele>
        <time>2017-02-09T10:45:20.050Z</time>
      </trkpt>
      <trkpt lat="42.91409" lon="0.28593">
        <ele>1359</ele>
        <time>2017-02-09T10:45:21.050Z</time>
      </trkpt>
      <trkpt lat="42.91409" lon="0.28592">
        <ele>1359</ele>
        <time>2017-02-09T10:45:22.050Z</time>
      </trkpt>
      <trkpt lat="42.91408" lon="0.28591">
        <ele>1359</ele>
        <time>2017-02-09T10:45:23.050Z</time>
      </trkpt>
      <trkpt lat="42.91408" lon="0.28591">
        <ele>1360</ele>
        <time>2017-02-09T10:45:24.050Z</time>
      </trkpt>
      <trkpt lat="42.91407" lon="0.2859">
        <ele>1360</ele>
        <time>2017-02-09T10:45:25.050Z</time>
      </trkpt>
      <trkpt lat="42.91407" lon="0.28589">
        <ele>1360</ele>
        <time>2017-02-09T10:45:26.050Z</time>
      </trkpt>
      <trkpt lat="42.91406" lon="0.28588">
        <ele>1360</ele>
        <time>2017-02-09T10:45:27.050Z</time>
      </trkpt>
      <trkpt lat="42.91406" lon="0.28587">
        <ele>1360</ele>
        <time>2017-02-09T10:45:28.050Z</time>
      </trkpt>
      <trkpt lat="42.91405" lon="0.28586">
        <ele>1360</ele>
        <time>2017-02-09T10:45:29.050Z</time>
      </trkpt>
      <trkpt lat="42.91405" lon="0.28585">
        <ele>1360</ele>
        <time>2017-02-09T10:45:30.050Z</time>
      </trkpt>
      <trkpt lat="42.91404" lon="0.28584">
        <ele>1360</ele>
        <time>2017-02-09T10:45:31.050Z</time>
      </trkpt>
      <trkpt lat="42.91404" lon="0.28583">
        <ele>1360</ele>
        <time>2017-02-09T10:45:32.050Z</time>
      </trkpt>
      <trkpt lat="42.91403" lon="0.28583">
        <ele>1361</ele>
        <time>2017-02-09T10:45:33.050Z</time>
      </trkpt>
      <trkpt lat="42.91403" lon="0.28582">
        <ele>1360</ele>
        <time>2017-02-09T10:45:34.050Z</time>
      </trkpt>
      <trkpt lat="42.91402" lon="0.28581">
        <ele>1361</ele>
        <time>2017-02-09T10:45:35.050Z</time>
      </trkpt>
      <trkpt lat="42.91402" lon="0.2858">
        <ele>1361</ele>
        <time>2017-02-09T10:45:36.050Z</time>
      </trkpt>
      <trkpt lat="42.91401" lon="0.2858">
        <ele>1361</ele>
        <time>2017-02-09T10:45:37.050Z</time>
      </trkpt>
      <trkpt lat="42.91401" lon="0.28579">
        <ele>1361</ele>
        <time>2017-02-09T10:45:38.050Z</time>
      </trkpt>
      <trkpt lat="42.914" lon="0.28578">
        <ele>1361</ele>
        <time>2017-02-09T10:45:39.050Z</time>
      </trkpt>
      <trkpt lat="42.914" lon="0.28577">
        <ele>1361</ele>
        <time>2017-02-09T10:45:40.050Z</time>
      </trkpt>
      <trkpt lat="42.91399" lon="0.28577">
        <ele>1361</ele>
        <time>2017-02-09T10:45:41.050Z</time>
      </trkpt>
      <trkpt lat="42.91399" lon="0.28576">
        <ele>1361</ele>
        <time>2017-02-09T10:45:42.050Z</time>
      </trkpt>
      <trkpt lat="42.91398" lon="0.28575">
        <ele>1361</ele>
        <time>2017-02-09T10:45:43.050Z</time>
      </trkpt>
      <trkpt lat="42.91397" lon="0.28575">
        <ele>1362</ele>
        <time>2017-02-09T10:45:44.050Z</time>
      </trkpt>
      <trkpt lat="42.91397" lon="0.28574">
        <ele>1362</ele>
        <time>2017-02-09T10:45:45.050Z</time>
      </trkpt>
      <trkpt lat="42.91396" lon="0.28573">
        <ele>1362</ele>
        <time>2017-02-09T10:45:46.050Z</time>
      </trkpt>
      <trkpt lat="42.91396" lon="0.28572">
        <ele>1362</ele>
        <time>2017-02-09T10:45:47.050Z</time>
      </trkpt>
      <trkpt lat="42.91395" lon="0.28572">
        <ele>1362</ele>
        <time>2017-02-09T10:45:48.050Z</time>
      </trkpt>
      <trkpt lat="42.91395" lon="0.28571">
        <ele>1362</ele>
        <time>2017-02-09T10:45:49.050Z</time>
      </trkpt>
      <trkpt lat="42.91394" lon="0.2857">
        <ele>1362</ele>
        <time>2017-02-09T10:45:50.050Z</time>
      </trkpt>
      <trkpt lat="42.91393" lon="0.2857">
        <ele>1362</ele>
        <time>2017-02-09T10:45:51.050Z</time>
      </trkpt>
      <trkpt lat="42.91393" lon="0.28569">
        <ele>1362</ele>
        <time>2017-02-09T10:45:52.050Z</time>
      </trkpt>
      <trkpt lat="42.91392" lon="0.28568">
        <ele>1363</ele>
        <time>2017-02-09T10:45:53.050Z</time>
      </trkpt>
      <trkpt lat="42.91391" lon="0.28567">
        <ele>1363</ele>
        <time>2017-02-09T10:45:54.050Z</time>
      </trkpt>
      <trkpt lat="42.91391" lon="0.28567">
        <ele>1363</ele>
        <time>2017-02-09T10:45:55.050Z</time>
      </trkpt>
      <trkpt lat="42.9139" lon="0.28566">
        <ele>1363</ele>
        <time>2017-02-09T10:45:56.050Z</time>
      </trkpt>
      <trkpt lat="42.91389" lon="0.28565">
        <ele>1363</ele>
        <time>2017-02-09T10:45:57.050Z</time>
      </trkpt>
      <trkpt lat="42.91389" lon="0.28565">
        <ele>1364</ele>
        <time>2017-02-09T10:45:58.050Z</time>
      </trkpt>
      <trkpt lat="42.91388" lon="0.28564">
        <ele>1364</ele>
        <time>2017-02-09T10:45:59.050Z</time>
      </trkpt>
      <trkpt lat="42.91387" lon="0.28564">
        <ele>1364</ele>
        <time>2017-02-09T10:46:00.050Z</time>
      </trkpt>
      <trkpt lat="42.91387" lon="0.28563">
        <ele>1364</ele>
        <time>2017-02-09T10:46:01.050Z</time>
      </trkpt>
      <trkpt lat="42.91386" lon="0.28562">
        <ele>1364</ele>
        <time>2017-02-09T10:46:02.050Z</time>
      </trkpt>
      <trkpt lat="42.91385" lon="0.28562">
        <ele>1364</ele>
        <time>2017-02-09T10:46:03.050Z</time>
      </trkpt>
      <trkpt lat="42.91385" lon="0.28561">
        <ele>1364</ele>
        <time>2017-02-09T10:46:04.050Z</time>
      </trkpt>
      <trkpt lat="42.91384" lon="0.2856">
        <ele>1364</ele>
        <time>2017-02-09T10:46:05.050Z</time>
      </trkpt>
      <trkpt lat="42.91383" lon="0.2856">
        <ele>1364</ele>
        <time>2017-02-09T10:46:06.050Z</time>
      </trkpt>
      <trkpt lat="42.91382" lon="0.28559">
        <ele>1364</ele>
        <time>2017-02-09T10:46:07.050Z</time>
      </trkpt>
      <trkpt lat="42.91382" lon="0.28559">
        <ele>1365</ele>
        <time>2017-02-09T10:46:08.050Z</time>
      </trkpt>
      <trkpt lat="42.91381" lon="0.28558">
        <ele>1365</ele>
        <time>2017-02-09T10:46:09.050Z</time>
      </trkpt>
      <trkpt lat="42.9138" lon="0.28558">
        <ele>1365</ele>
        <time>2017-02-09T10:46:10.050Z</time>
      </trkpt>
      <trkpt lat="42.9138" lon="0.28557">
        <ele>1365</ele>
        <time>2017-02-09T10:46:11.050Z</time>
      </trkpt>
      <trkpt lat="42.91379" lon="0.28557">
        <ele>1365</ele>
        <time>2017-02-09T10:46:12.050Z</time>
      </trkpt>
      <trkpt lat="42.91378" lon="0.28556">
        <ele>1365</ele>
        <time>2017-02-09T10:46:13.050Z</time>
      </trkpt>
      <trkpt lat="42.91378" lon="0.28555">
        <ele>1365</ele>
        <time>2017-02-09T10:46:14.050Z</time>
      </trkpt>
      <trkpt lat="42.91377" lon="0.28555">
        <ele>1365</ele>
        <time>2017-02-09T10:46:15.050Z</time>
      </trkpt>
      <trkpt lat="42.91376" lon="0.28554">
        <ele>1365</ele>
        <time>2017-02-09T10:46:16.050Z</time>
      </trkpt>
      <trkpt lat="42.91376" lon="0.28554">
        <ele>1365</ele>
        <time>2017-02-09T10:46:17.050Z</time>
      </trkpt>
      <trkpt lat="42.91375" lon="0.28553">
        <ele>1365</ele>
        <time>2017-02-09T10:46:18.050Z</time>
      </trkpt>
      <trkpt lat="42.91375" lon="0.28553">
        <ele>1365</ele>
        <time>2017-02-09T10:46:19.050Z</time>
      </trkpt>
      <trkpt lat="42.91374" lon="0.28552">
        <ele>1365</ele>
        <time>2017-02-09T10:46:20.050Z</time>
      </trkpt>
      <trkpt lat="42.91373" lon="0.28552">
        <ele>1365</ele>
        <time>2017-02-09T10:46:21.050Z</time>
      </trkpt>
      <trkpt lat="42.91373" lon="0.28551">
        <ele>1365</ele>
        <time>2017-02-09T10:46:22.050Z</time>
      </trkpt>
      <trkpt lat="42.91372" lon="0.28551">
        <ele>1365</ele>
        <time>2017-02-09T10:46:23.050Z</time>
      </trkpt>
      <trkpt lat="42.91371" lon="0.2855">
        <ele>1365</ele>
        <time>2017-02-09T10:46:24.050Z</time>
      </trkpt>
      <trkpt lat="42.9137" lon="0.2855">
        <ele>1365</ele>
        <time>2017-02-09T10:46:25.050Z</time>
      </trkpt>
      <trkpt lat="42.9137" lon="0.28549">
        <ele>1365</ele>
        <time>2017-02-09T10:46:26.050Z</time>
      </trkpt>
      <trkpt lat="42.91369" lon="0.28549">
        <ele>1365</ele>
        <time>2017-02-09T10:46:27.050Z</time>
      </trkpt>
      <trkpt lat="42.91368" lon="0.28548">
        <ele>1365</ele>
        <time>2017-02-09T10:46:28.050Z</time>
      </trkpt>
      <trkpt lat="42.91368" lon="0.28548">
        <ele>1365</ele>
        <time>2017-02-09T10:46:29.050Z</time>
      </trkpt>
      <trkpt lat="42.91367" lon="0.28547">
        <ele>1365</ele>
        <time>2017-02-09T10:46:30.050Z</time>
      </trkpt>
      <trkpt lat="42.91366" lon="0.28547">
        <ele>1365</ele>
        <time>2017-02-09T10:46:31.050Z</time>
      </trkpt>
      <trkpt lat="42.91366" lon="0.28546">
        <ele>1365</ele>
        <time>2017-02-09T10:46:32.050Z</time>
      </trkpt>
      <trkpt lat="42.91366" lon="0.28546">
        <ele>1365</ele>
        <time>2017-02-09T10:46:33.050Z</time>
      </trkpt>
      <trkpt lat="42.91366" lon="0.28546">
        <ele>1365</ele>
        <time>2017-02-09T10:46:34.050Z</time>
      </trkpt>
      <trkpt lat="42.91365" lon="0.28546">
        <ele>1365</ele>
        <time>2017-02-09T10:46:35.050Z</time>
      </trkpt>
      <trkpt lat="42.91365" lon="0.28546">
        <ele>1365</ele>
        <time>2017-02-09T10:46:36.050Z</time>
      </trkpt>
      <trkpt lat="42.91365" lon="0.28546">
        <ele>1365</ele>
        <time>2017-02-09T10:46:37.050Z</time>
      </trkpt>
      <trkpt lat="42.91366" lon="0.28546">
        <ele>1365</ele>
        <time>2017-02-09T10:46:38.050Z</time>
      </trkpt>
      <trkpt lat="42.91366" lon="0.28546">
        <ele>1365</ele>
        <time>2017-02-09T10:46:39.050Z</time>
      </trkpt>
      <trkpt lat="42.91365" lon="0.28546">
        <ele>1365</ele>
        <time>2017-02-09T10:46:40.050Z</time>
      </trkpt>
      <trkpt lat="42.91365" lon="0.28544">
        <ele>1365</ele>
        <time>2017-02-09T10:46:41.046Z</time>
      </trkpt>
      <trkpt lat="42.91365" lon="0.28544">
        <ele>1365</ele>
        <time>2017-02-09T10:46:42.046Z</time>
      </trkpt>
      <trkpt lat="42.91365" lon="0.28544">
        <ele>1365</ele>
        <time>2017-02-09T10:46:43.046Z</time>
      </trkpt>
      <trkpt lat="42.91365" lon="0.28544">
        <ele>1365</ele>
        <time>2017-02-09T10:46:44.046Z</time>
      </trkpt>
      <trkpt lat="42.91365" lon="0.28544">
        <ele>1365</ele>
        <time>2017-02-09T10:46:45.046Z</time>
      </trkpt>
      <trkpt lat="42.91363" lon="0.28543">
        <ele>1368</ele>
        <time>2017-02-09T10:46:46.058Z</time>
      </trkpt>
      <trkpt lat="42.91362" lon="0.28542">
        <ele>1368</ele>
        <time>2017-02-09T10:46:47.058Z</time>
      </trkpt>
      <trkpt lat="42.91361" lon="0.28542">
        <ele>1368</ele>
        <time>2017-02-09T10:46:48.058Z</time>
      </trkpt>
      <trkpt lat="42.9136" lon="0.28542">
        <ele>1368</ele>
        <time>2017-02-09T10:46:49.058Z</time>
      </trkpt>
      <trkpt lat="42.9136" lon="0.28541">
        <ele>1368</ele>
        <time>2017-02-09T10:46:50.058Z</time>
      </trkpt>
      <trkpt lat="42.91359" lon="0.28541">
        <ele>1368</ele>
        <time>2017-02-09T10:46:51.058Z</time>
      </trkpt>
      <trkpt lat="42.91358" lon="0.2854">
        <ele>1369</ele>
        <time>2017-02-09T10:46:52.058Z</time>
      </trkpt>
      <trkpt lat="42.91357" lon="0.2854">
        <ele>1369</ele>
        <time>2017-02-09T10:46:53.058Z</time>
      </trkpt>
      <trkpt lat="42.91357" lon="0.28539">
        <ele>1369</ele>
        <time>2017-02-09T10:46:54.058Z</time>
      </trkpt>
      <trkpt lat="42.91356" lon="0.28539">
        <ele>1369</ele>
        <time>2017-02-09T10:46:55.058Z</time>
      </trkpt>
      <trkpt lat="42.91355" lon="0.28539">
        <ele>1369</ele>
        <time>2017-02-09T10:46:56.058Z</time>
      </trkpt>
      <trkpt lat="42.91354" lon="0.28538">
        <ele>1369</ele>
        <time>2017-02-09T10:46:57.058Z</time>
      </trkpt>
      <trkpt lat="42.91353" lon="0.28538">
        <ele>1369</ele>
        <time>2017-02-09T10:46:58.058Z</time>
      </trkpt>
      <trkpt lat="42.91353" lon="0.28537">
        <ele>1369</ele>
        <time>2017-02-09T10:46:59.058Z</time>
      </trkpt>
      <trkpt lat="42.91352" lon="0.28537">
        <ele>1369</ele>
        <time>2017-02-09T10:47:00.058Z</time>
      </trkpt>
      <trkpt lat="42.91351" lon="0.28536">
        <ele>1369</ele>
        <time>2017-02-09T10:47:01.058Z</time>
      </trkpt>
      <trkpt lat="42.91351" lon="0.28536">
        <ele>1369</ele>
        <time>2017-02-09T10:47:02.058Z</time>
      </trkpt>
      <trkpt lat="42.9135" lon="0.28536">
        <ele>1369</ele>
        <time>2017-02-09T10:47:03.058Z</time>
      </trkpt>
      <trkpt lat="42.9135" lon="0.28535">
        <ele>1369</ele>
        <time>2017-02-09T10:47:04.058Z</time>
      </trkpt>
      <trkpt lat="42.9135" lon="0.28535">
        <ele>1369</ele>
        <time>2017-02-09T10:47:05.058Z</time>
      </trkpt>
      <trkpt lat="42.9135" lon="0.28535">
        <ele>1368</ele>
        <time>2017-02-09T10:47:06.058Z</time>
      </trkpt>
      <trkpt lat="42.91349" lon="0.28535">
        <ele>1369</ele>
        <time>2017-02-09T10:47:07.058Z</time>
      </trkpt>
      <trkpt lat="42.91348" lon="0.28535">
        <ele>1369</ele>
        <time>2017-02-09T10:47:08.058Z</time>
      </trkpt>
      <trkpt lat="42.91347" lon="0.28534">
        <ele>1369</ele>
        <time>2017-02-09T10:47:09.058Z</time>
      </trkpt>
      <trkpt lat="42.91347" lon="0.28534">
        <ele>1369</ele>
        <time>2017-02-09T10:47:10.058Z</time>
      </trkpt>
      <trkpt lat="42.91346" lon="0.28533">
        <ele>1369</ele>
        <time>2017-02-09T10:47:11.058Z</time>
      </trkpt>
      <trkpt lat="42.91345" lon="0.28533">
        <ele>1369</ele>
        <time>2017-02-09T10:47:12.058Z</time>
      </trkpt>
      <trkpt lat="42.91344" lon="0.28533">
        <ele>1369</ele>
        <time>2017-02-09T10:47:13.058Z</time>
      </trkpt>
      <trkpt lat="42.91343" lon="0.28532">
        <ele>1369</ele>
        <time>2017-02-09T10:47:14.058Z</time>
      </trkpt>
      <trkpt lat="42.91343" lon="0.28532">
        <ele>1369</ele>
        <time>2017-02-09T10:47:15.058Z</time>
      </trkpt>
      <trkpt lat="42.91342" lon="0.28532">
        <ele>1369</ele>
        <time>2017-02-09T10:47:16.058Z</time>
      </trkpt>
      <trkpt lat="42.91341" lon="0.28531">
        <ele>1370</ele>
        <time>2017-02-09T10:47:17.058Z</time>
      </trkpt>
      <trkpt lat="42.91341" lon="0.28531">
        <ele>1370</ele>
        <time>2017-02-09T10:47:18.058Z</time>
      </trkpt>
      <trkpt lat="42.9134" lon="0.2853">
        <ele>1370</ele>
        <time>2017-02-09T10:47:19.058Z</time>
      </trkpt>
      <trkpt lat="42.9134" lon="0.2853">
        <ele>1370</ele>
        <time>2017-02-09T10:47:20.058Z</time>
      </trkpt>
      <trkpt lat="42.91339" lon="0.28529">
        <ele>1370</ele>
        <time>2017-02-09T10:47:21.058Z</time>
      </trkpt>
      <trkpt lat="42.91338" lon="0.28529">
        <ele>1370</ele>
        <time>2017-02-09T10:47:22.058Z</time>
      </trkpt>
      <trkpt lat="42.91337" lon="0.28529">
        <ele>1370</ele>
        <time>2017-02-09T10:47:23.058Z</time>
      </trkpt>
      <trkpt lat="42.91337" lon="0.28528">
        <ele>1370</ele>
        <time>2017-02-09T10:47:24.058Z</time>
      </trkpt>
      <trkpt lat="42.91336" lon="0.28528">
        <ele>1370</ele>
        <time>2017-02-09T10:47:25.058Z</time>
      </trkpt>
      <trkpt lat="42.91335" lon="0.28528">
        <ele>1370</ele>
        <time>2017-02-09T10:47:26.058Z</time>
      </trkpt>
      <trkpt lat="42.91335" lon="0.28527">
        <ele>1370</ele>
        <time>2017-02-09T10:47:27.058Z</time>
      </trkpt>
      <trkpt lat="42.91334" lon="0.28527">
        <ele>1370</ele>
        <time>2017-02-09T10:47:28.058Z</time>
      </trkpt>
      <trkpt lat="42.91333" lon="0.28526">
        <ele>1370</ele>
        <time>2017-02-09T10:47:29.058Z</time>
      </trkpt>
      <trkpt lat="42.91332" lon="0.28526">
        <ele>1370</ele>
        <time>2017-02-09T10:47:30.058Z</time>
      </trkpt>
      <trkpt lat="42.91331" lon="0.28526">
        <ele>1370</ele>
        <time>2017-02-09T10:47:31.058Z</time>
      </trkpt>
      <trkpt lat="42.91331" lon="0.28525">
        <ele>1371</ele>
        <time>2017-02-09T10:47:32.058Z</time>
      </trkpt>
      <trkpt lat="42.9133" lon="0.28525">
        <ele>1370</ele>
        <time>2017-02-09T10:47:33.058Z</time>
      </trkpt>
      <trkpt lat="42.91329" lon="0.28525">
        <ele>1370</ele>
        <time>2017-02-09T10:47:34.058Z</time>
      </trkpt>
      <trkpt lat="42.91328" lon="0.28524">
        <ele>1371</ele>
        <time>2017-02-09T10:47:35.058Z</time>
      </trkpt>
      <trkpt lat="42.91328" lon="0.28524">
        <ele>1371</ele>
        <time>2017-02-09T10:47:36.058Z</time>
      </trkpt>
      <trkpt lat="42.91327" lon="0.28523">
        <ele>1370</ele>
        <time>2017-02-09T10:47:37.058Z</time>
      </trkpt>
      <trkpt lat="42.91326" lon="0.28523">
        <ele>1370</ele>
        <time>2017-02-09T10:47:38.058Z</time>
      </trkpt>
      <trkpt lat="42.91325" lon="0.28523">
        <ele>1370</ele>
        <time>2017-02-09T10:47:39.058Z</time>
      </trkpt>
      <trkpt lat="42.91324" lon="0.28522">
        <ele>1370</ele>
        <time>2017-02-09T10:47:40.058Z</time>
      </trkpt>
      <trkpt lat="42.91324" lon="0.28522">
        <ele>1370</ele>
        <time>2017-02-09T10:47:41.058Z</time>
      </trkpt>
      <trkpt lat="42.91323" lon="0.28521">
        <ele>1370</ele>
        <time>2017-02-09T10:47:42.058Z</time>
      </trkpt>
      <trkpt lat="42.91322" lon="0.28521">
        <ele>1370</ele>
        <time>2017-02-09T10:47:43.058Z</time>
      </trkpt>
      <trkpt lat="42.91321" lon="0.2852">
        <ele>1370</ele>
        <time>2017-02-09T10:47:44.058Z</time>
      </trkpt>
      <trkpt lat="42.9132" lon="0.2852">
        <ele>1370</ele>
        <time>2017-02-09T10:47:45.058Z</time>
      </trkpt>
      <trkpt lat="42.9132" lon="0.28519">
        <ele>1370</ele>
        <time>2017-02-09T10:47:46.058Z</time>
      </trkpt>
      <trkpt lat="42.91319" lon="0.28519">
        <ele>1370</ele>
        <time>2017-02-09T10:47:47.058Z</time>
      </trkpt>
      <trkpt lat="42.91318" lon="0.28519">
        <ele>1370</ele>
        <time>2017-02-09T10:47:48.058Z</time>
      </trkpt>
      <trkpt lat="42.91317" lon="0.28518">
        <ele>1370</ele>
        <time>2017-02-09T10:47:49.058Z</time>
      </trkpt>
      <trkpt lat="42.91316" lon="0.28518">
        <ele>1370</ele>
        <time>2017-02-09T10:47:50.058Z</time>
      </trkpt>
      <trkpt lat="42.91316" lon="0.28517">
        <ele>1370</ele>
        <time>2017-02-09T10:47:51.058Z</time>
      </trkpt>
      <trkpt lat="42.91315" lon="0.28517">
        <ele>1370</ele>
        <time>2017-02-09T10:47:52.058Z</time>
      </trkpt>
      <trkpt lat="42.91314" lon="0.28517">
        <ele>1370</ele>
        <time>2017-02-09T10:47:53.058Z</time>
      </trkpt>
      <trkpt lat="42.91313" lon="0.28516">
        <ele>1371</ele>
        <time>2017-02-09T10:47:54.058Z</time>
      </trkpt>
      <trkpt lat="42.91312" lon="0.28516">
        <ele>1371</ele>
        <time>2017-02-09T10:47:55.058Z</time>
      </trkpt>
      <trkpt lat="42.91312" lon="0.28515">
        <ele>1371</ele>
        <time>2017-02-09T10:47:56.058Z</time>
      </trkpt>
      <trkpt lat="42.91311" lon="0.28515">
        <ele>1371</ele>
        <time>2017-02-09T10:47:57.058Z</time>
      </trkpt>
      <trkpt lat="42.9131" lon="0.28514">
        <ele>1371</ele>
        <time>2017-02-09T10:47:58.058Z</time>
      </trkpt>
      <trkpt lat="42.91309" lon="0.28514">
        <ele>1371</ele>
        <time>2017-02-09T10:47:59.058Z</time>
      </trkpt>
      <trkpt lat="42.91308" lon="0.28513">
        <ele>1371</ele>
        <time>2017-02-09T10:48:00.058Z</time>
      </trkpt>
      <trkpt lat="42.91308" lon="0.28513">
        <ele>1371</ele>
        <time>2017-02-09T10:48:01.058Z</time>
      </trkpt>
      <trkpt lat="42.91307" lon="0.28512">
        <ele>1371</ele>
        <time>2017-02-09T10:48:02.058Z</time>
      </trkpt>
      <trkpt lat="42.91306" lon="0.28512">
        <ele>1371</ele>
        <time>2017-02-09T10:48:03.058Z</time>
      </trkpt>
      <trkpt lat="42.91305" lon="0.28511">
        <ele>1371</ele>
        <time>2017-02-09T10:48:04.058Z</time>
      </trkpt>
      <trkpt lat="42.91304" lon="0.28511">
        <ele>1371</ele>
        <time>2017-02-09T10:48:05.058Z</time>
      </trkpt>
      <trkpt lat="42.91304" lon="0.2851">
        <ele>1370</ele>
        <time>2017-02-09T10:48:06.058Z</time>
      </trkpt>
      <trkpt lat="42.91303" lon="0.28509">
        <ele>1370</ele>
        <time>2017-02-09T10:48:07.058Z</time>
      </trkpt>
      <trkpt lat="42.91302" lon="0.28509">
        <ele>1370</ele>
        <time>2017-02-09T10:48:08.058Z</time>
      </trkpt>
      <trkpt lat="42.91301" lon="0.28508">
        <ele>1370</ele>
        <time>2017-02-09T10:48:09.058Z</time>
      </trkpt>
      <trkpt lat="42.913" lon="0.28508">
        <ele>1370</ele>
        <time>2017-02-09T10:48:10.058Z</time>
      </trkpt>
      <trkpt lat="42.913" lon="0.28507">
        <ele>1371</ele>
        <time>2017-02-09T10:48:11.058Z</time>
      </trkpt>
      <trkpt lat="42.91299" lon="0.28507">
        <ele>1371</ele>
        <time>2017-02-09T10:48:12.058Z</time>
      </trkpt>
      <trkpt lat="42.91298" lon="0.28506">
        <ele>1371</ele>
        <time>2017-02-09T10:48:13.058Z</time>
      </trkpt>
      <trkpt lat="42.91298" lon="0.28506">
        <ele>1371</ele>
        <time>2017-02-09T10:48:14.058Z</time>
      </trkpt>
      <trkpt lat="42.91297" lon="0.28505">
        <ele>1371</ele>
        <time>2017-02-09T10:48:15.058Z</time>
      </trkpt>
      <trkpt lat="42.91296" lon="0.28505">
        <ele>1372</ele>
        <time>2017-02-09T10:48:16.058Z</time>
      </trkpt>
      <trkpt lat="42.91295" lon="0.28504">
        <ele>1372</ele>
        <time>2017-02-09T10:48:17.058Z</time>
      </trkpt>
      <trkpt lat="42.91295" lon="0.28504">
        <ele>1372</ele>
        <time>2017-02-09T10:48:18.058Z</time>
      </trkpt>
      <trkpt lat="42.91294" lon="0.28503">
        <ele>1372</ele>
        <time>2017-02-09T10:48:19.058Z</time>
      </trkpt>
      <trkpt lat="42.91293" lon="0.28503">
        <ele>1372</ele>
        <time>2017-02-09T10:48:20.058Z</time>
      </trkpt>
      <trkpt lat="42.91292" lon="0.28502">
        <ele>1372</ele>
        <time>2017-02-09T10:48:21.058Z</time>
      </trkpt>
      <trkpt lat="42.91291" lon="0.28502">
        <ele>1372</ele>
        <time>2017-02-09T10:48:22.058Z</time>
      </trkpt>
      <trkpt lat="42.91291" lon="0.28501">
        <ele>1372</ele>
        <time>2017-02-09T10:48:23.058Z</time>
      </trkpt>
      <trkpt lat="42.9129" lon="0.285">
        <ele>1372</ele>
        <time>2017-02-09T10:48:24.058Z</time>
      </trkpt>
      <trkpt lat="42.91289" lon="0.285">
        <ele>1372</ele>
        <time>2017-02-09T10:48:25.058Z</time>
      </trkpt>
      <trkpt lat="42.91288" lon="0.28499">
        <ele>1372</ele>
        <time>2017-02-09T10:48:26.058Z</time>
      </trkpt>
      <trkpt lat="42.91288" lon="0.28499">
        <ele>1373</ele>
        <time>2017-02-09T10:48:27.058Z</time>
      </trkpt>
      <trkpt lat="42.91287" lon="0.28498">
        <ele>1373</ele>
        <time>2017-02-09T10:48:28.058Z</time>
      </trkpt>
      <trkpt lat="42.91286" lon="0.28497">
        <ele>1373</ele>
        <time>2017-02-09T10:48:29.058Z</time>
      </trkpt>
      <trkpt lat="42.91285" lon="0.28497">
        <ele>1373</ele>
        <time>2017-02-09T10:48:30.058Z</time>
      </trkpt>
      <trkpt lat="42.91285" lon="0.28496">
        <ele>1373</ele>
        <time>2017-02-09T10:48:31.058Z</time>
      </trkpt>
      <trkpt lat="42.91284" lon="0.28496">
        <ele>1373</ele>
        <time>2017-02-09T10:48:32.058Z</time>
      </trkpt>
      <trkpt lat="42.91283" lon="0.28495">
        <ele>1373</ele>
        <time>2017-02-09T10:48:33.058Z</time>
      </trkpt>
      <trkpt lat="42.91282" lon="0.28495">
        <ele>1373</ele>
        <time>2017-02-09T10:48:34.058Z</time>
      </trkpt>
      <trkpt lat="42.91281" lon="0.28494">
        <ele>1373</ele>
        <time>2017-02-09T10:48:35.058Z</time>
      </trkpt>
      <trkpt lat="42.91281" lon="0.28494">
        <ele>1373</ele>
        <time>2017-02-09T10:48:36.058Z</time>
      </trkpt>
      <trkpt lat="42.9128" lon="0.28493">
        <ele>1373</ele>
        <time>2017-02-09T10:48:37.058Z</time>
      </trkpt>
      <trkpt lat="42.91279" lon="0.28492">
        <ele>1373</ele>
        <time>2017-02-09T10:48:38.058Z</time>
      </trkpt>
      <trkpt lat="42.91279" lon="0.28492">
        <ele>1373</ele>
        <time>2017-02-09T10:48:39.058Z</time>
      </trkpt>
      <trkpt lat="42.91278" lon="0.28491">
        <ele>1374</ele>
        <time>2017-02-09T10:48:40.058Z</time>
      </trkpt>
      <trkpt lat="42.91277" lon="0.2849">
        <ele>1374</ele>
        <time>2017-02-09T10:48:41.058Z</time>
      </trkpt>
      <trkpt lat="42.91277" lon="0.2849">
        <ele>1374</ele>
        <time>2017-02-09T10:48:42.058Z</time>
      </trkpt>
      <trkpt lat="42.91276" lon="0.28489">
        <ele>1374</ele>
        <time>2017-02-09T10:48:43.058Z</time>
      </trkpt>
      <trkpt lat="42.91275" lon="0.28489">
        <ele>1374</ele>
        <time>2017-02-09T10:48:44.058Z</time>
      </trkpt>
      <trkpt lat="42.91275" lon="0.28488">
        <ele>1374</ele>
        <time>2017-02-09T10:48:45.058Z</time>
      </trkpt>
      <trkpt lat="42.91274" lon="0.28487">
        <ele>1374</ele>
        <time>2017-02-09T10:48:46.058Z</time>
      </trkpt>
      <trkpt lat="42.91273" lon="0.28487">
        <ele>1374</ele>
        <time>2017-02-09T10:48:47.058Z</time>
      </trkpt>
      <trkpt lat="42.91272" lon="0.28486">
        <ele>1374</ele>
        <time>2017-02-09T10:48:48.058Z</time>
      </trkpt>
      <trkpt lat="42.91271" lon="0.28486">
        <ele>1374</ele>
        <time>2017-02-09T10:48:49.058Z</time>
      </trkpt>
      <trkpt lat="42.9127" lon="0.28485">
        <ele>1374</ele>
        <time>2017-02-09T10:48:50.058Z</time>
      </trkpt>
      <trkpt lat="42.9127" lon="0.28485">
        <ele>1374</ele>
        <time>2017-02-09T10:48:51.058Z</time>
      </trkpt>
      <trkpt lat="42.91269" lon="0.28484">
        <ele>1374</ele>
        <time>2017-02-09T10:48:52.058Z</time>
      </trkpt>
      <trkpt lat="42.91268" lon="0.28483">
        <ele>1374</ele>
        <time>2017-02-09T10:48:53.058Z</time>
      </trkpt>
      <trkpt lat="42.91267" lon="0.28483">
        <ele>1374</ele>
        <time>2017-02-09T10:48:54.058Z</time>
      </trkpt>
      <trkpt lat="42.91267" lon="0.28482">
        <ele>1374</ele>
        <time>2017-02-09T10:48:55.058Z</time>
      </trkpt>
      <trkpt lat="42.91266" lon="0.28482">
        <ele>1374</ele>
        <time>2017-02-09T10:48:56.058Z</time>
      </trkpt>
      <trkpt lat="42.91265" lon="0.28481">
        <ele>1374</ele>
        <time>2017-02-09T10:48:57.058Z</time>
      </trkpt>
      <trkpt lat="42.91265" lon="0.28481">
        <ele>1374</ele>
        <time>2017-02-09T10:48:58.058Z</time>
      </trkpt>
      <trkpt lat="42.91264" lon="0.2848">
        <ele>1374</ele>
        <time>2017-02-09T10:48:59.058Z</time>
      </trkpt>
      <trkpt lat="42.91263" lon="0.2848">
        <ele>1374</ele>
        <time>2017-02-09T10:49:00.058Z</time>
      </trkpt>
      <trkpt lat="42.91262" lon="0.28479">
        <ele>1374</ele>
        <time>2017-02-09T10:49:01.058Z</time>
      </trkpt>
      <trkpt lat="42.91262" lon="0.28479">
        <ele>1374</ele>
        <time>2017-02-09T10:49:02.058Z</time>
      </trkpt>
      <trkpt lat="42.91261" lon="0.28478">
        <ele>1374</ele>
        <time>2017-02-09T10:49:03.058Z</time>
      </trkpt>
      <trkpt lat="42.9126" lon="0.28477">
        <ele>1374</ele>
        <time>2017-02-09T10:49:04.058Z</time>
      </trkpt>
      <trkpt lat="42.91259" lon="0.28477">
        <ele>1374</ele>
        <time>2017-02-09T10:49:05.058Z</time>
      </trkpt>
      <trkpt lat="42.91258" lon="0.28476">
        <ele>1374</ele>
        <time>2017-02-09T10:49:06.058Z</time>
      </trkpt>
      <trkpt lat="42.91258" lon="0.28476">
        <ele>1374</ele>
        <time>2017-02-09T10:49:07.058Z</time>
      </trkpt>
      <trkpt lat="42.91257" lon="0.28475">
        <ele>1374</ele>
        <time>2017-02-09T10:49:08.058Z</time>
      </trkpt>
      <trkpt lat="42.91256" lon="0.28475">
        <ele>1374</ele>
        <time>2017-02-09T10:49:09.058Z</time>
      </trkpt>
      <trkpt lat="42.91255" lon="0.28474">
        <ele>1374</ele>
        <time>2017-02-09T10:49:10.058Z</time>
      </trkpt>
      <trkpt lat="42.91254" lon="0.28474">
        <ele>1374</ele>
        <time>2017-02-09T10:49:11.058Z</time>
      </trkpt>
      <trkpt lat="42.91253" lon="0.28473">
        <ele>1374</ele>
        <time>2017-02-09T10:49:12.058Z</time>
      </trkpt>
      <trkpt lat="42.91253" lon="0.28472">
        <ele>1374</ele>
        <time>2017-02-09T10:49:13.058Z</time>
      </trkpt>
      <trkpt lat="42.91252" lon="0.28472">
        <ele>1374</ele>
        <time>2017-02-09T10:49:14.058Z</time>
      </trkpt>
      <trkpt lat="42.91251" lon="0.28471">
        <ele>1374</ele>
        <time>2017-02-09T10:49:15.058Z</time>
      </trkpt>
      <trkpt lat="42.91251" lon="0.28471">
        <ele>1374</ele>
        <time>2017-02-09T10:49:16.058Z</time>
      </trkpt>
      <trkpt lat="42.9125" lon="0.2847">
        <ele>1374</ele>
        <time>2017-02-09T10:49:17.058Z</time>
      </trkpt>
      <trkpt lat="42.91249" lon="0.2847">
        <ele>1374</ele>
        <time>2017-02-09T10:49:18.058Z</time>
      </trkpt>
      <trkpt lat="42.91248" lon="0.28469">
        <ele>1374</ele>
        <time>2017-02-09T10:49:19.058Z</time>
      </trkpt>
      <trkpt lat="42.91248" lon="0.28469">
        <ele>1375</ele>
        <time>2017-02-09T10:49:20.058Z</time>
      </trkpt>
      <trkpt lat="42.91247" lon="0.28468">
        <ele>1375</ele>
        <time>2017-02-09T10:49:21.058Z</time>
      </trkpt>
      <trkpt lat="42.91247" lon="0.28468">
        <ele>1375</ele>
        <time>2017-02-09T10:49:22.058Z</time>
      </trkpt>
      <trkpt lat="42.91246" lon="0.28467">
        <ele>1375</ele>
        <time>2017-02-09T10:49:23.058Z</time>
      </trkpt>
      <trkpt lat="42.91245" lon="0.28467">
        <ele>1375</ele>
        <time>2017-02-09T10:49:24.058Z</time>
      </trkpt>
      <trkpt lat="42.91245" lon="0.28466">
        <ele>1375</ele>
        <time>2017-02-09T10:49:25.058Z</time>
      </trkpt>
      <trkpt lat="42.91244" lon="0.28466">
        <ele>1375</ele>
        <time>2017-02-09T10:49:26.058Z</time>
      </trkpt>
      <trkpt lat="42.91243" lon="0.28465">
        <ele>1375</ele>
        <time>2017-02-09T10:49:27.058Z</time>
      </trkpt>
      <trkpt lat="42.91242" lon="0.28465">
        <ele>1375</ele>
        <time>2017-02-09T10:49:28.058Z</time>
      </trkpt>
      <trkpt lat="42.91241" lon="0.28464">
        <ele>1375</ele>
        <time>2017-02-09T10:49:29.058Z</time>
      </trkpt>
      <trkpt lat="42.91241" lon="0.28464">
        <ele>1375</ele>
        <time>2017-02-09T10:49:30.058Z</time>
      </trkpt>
      <trkpt lat="42.9124" lon="0.28463">
        <ele>1375</ele>
        <time>2017-02-09T10:49:31.058Z</time>
      </trkpt>
      <trkpt lat="42.91239" lon="0.28463">
        <ele>1375</ele>
        <time>2017-02-09T10:49:32.058Z</time>
      </trkpt>
      <trkpt lat="42.91238" lon="0.28462">
        <ele>1375</ele>
        <time>2017-02-09T10:49:33.058Z</time>
      </trkpt>
      <trkpt lat="42.91238" lon="0.28462">
        <ele>1375</ele>
        <time>2017-02-09T10:49:34.058Z</time>
      </trkpt>
      <trkpt lat="42.91237" lon="0.28461">
        <ele>1375</ele>
        <time>2017-02-09T10:49:35.058Z</time>
      </trkpt>
      <trkpt lat="42.91236" lon="0.28461">
        <ele>1375</ele>
        <time>2017-02-09T10:49:36.058Z</time>
      </trkpt>
      <trkpt lat="42.91236" lon="0.2846">
        <ele>1375</ele>
        <time>2017-02-09T10:49:37.058Z</time>
      </trkpt>
      <trkpt lat="42.91235" lon="0.2846">
        <ele>1375</ele>
        <time>2017-02-09T10:49:38.058Z</time>
      </trkpt>
      <trkpt lat="42.91234" lon="0.28459">
        <ele>1375</ele>
        <time>2017-02-09T10:49:39.058Z</time>
      </trkpt>
      <trkpt lat="42.91234" lon="0.28459">
        <ele>1375</ele>
        <time>2017-02-09T10:49:40.058Z</time>
      </trkpt>
      <trkpt lat="42.91233" lon="0.28458">
        <ele>1375</ele>
        <time>2017-02-09T10:49:41.058Z</time>
      </trkpt>
      <trkpt lat="42.91232" lon="0.28457">
        <ele>1375</ele>
        <time>2017-02-09T10:49:42.058Z</time>
      </trkpt>
      <trkpt lat="42.91232" lon="0.28457">
        <ele>1375</ele>
        <time>2017-02-09T10:49:43.058Z</time>
      </trkpt>
      <trkpt lat="42.91231" lon="0.28456">
        <ele>1375</ele>
        <time>2017-02-09T10:49:44.058Z</time>
      </trkpt>
      <trkpt lat="42.9123" lon="0.28456">
        <ele>1375</ele>
        <time>2017-02-09T10:49:45.058Z</time>
      </trkpt>
      <trkpt lat="42.91229" lon="0.28455">
        <ele>1375</ele>
        <time>2017-02-09T10:49:46.058Z</time>
      </trkpt>
      <trkpt lat="42.91229" lon="0.28455">
        <ele>1375</ele>
        <time>2017-02-09T10:49:47.058Z</time>
      </trkpt>
      <trkpt lat="42.91228" lon="0.28454">
        <ele>1375</ele>
        <time>2017-02-09T10:49:48.058Z</time>
      </trkpt>
      <trkpt lat="42.91227" lon="0.28454">
        <ele>1375</ele>
        <time>2017-02-09T10:49:49.058Z</time>
      </trkpt>
      <trkpt lat="42.91227" lon="0.28453">
        <ele>1376</ele>
        <time>2017-02-09T10:49:50.058Z</time>
      </trkpt>
      <trkpt lat="42.91226" lon="0.28452">
        <ele>1375</ele>
        <time>2017-02-09T10:49:51.058Z</time>
      </trkpt>
      <trkpt lat="42.91226" lon="0.28452">
        <ele>1375</ele>
        <time>2017-02-09T10:49:52.058Z</time>
      </trkpt>
      <trkpt lat="42.91225" lon="0.28451">
        <ele>1375</ele>
        <time>2017-02-09T10:49:53.058Z</time>
      </trkpt>
      <trkpt lat="42.91224" lon="0.28451">
        <ele>1375</ele>
        <time>2017-02-09T10:49:54.058Z</time>
      </trkpt>
      <trkpt lat="42.91223" lon="0.2845">
        <ele>1375</ele>
        <time>2017-02-09T10:49:55.058Z</time>
      </trkpt>
      <trkpt lat="42.91223" lon="0.2845">
        <ele>1375</ele>
        <time>2017-02-09T10:49:56.058Z</time>
      </trkpt>
      <trkpt lat="42.91222" lon="0.2845">
        <ele>1375</ele>
        <time>2017-02-09T10:49:57.058Z</time>
      </trkpt>
      <trkpt lat="42.91221" lon="0.28449">
        <ele>1375</ele>
        <time>2017-02-09T10:49:58.058Z</time>
      </trkpt>
      <trkpt lat="42.91221" lon="0.28449">
        <ele>1375</ele>
        <time>2017-02-09T10:49:59.058Z</time>
      </trkpt>
      <trkpt lat="42.9122" lon="0.28448">
        <ele>1375</ele>
        <time>2017-02-09T10:50:00.058Z</time>
      </trkpt>
      <trkpt lat="42.91219" lon="0.28448">
        <ele>1375</ele>
        <time>2017-02-09T10:50:01.058Z</time>
      </trkpt>
      <trkpt lat="42.91218" lon="0.28447">
        <ele>1376</ele>
        <time>2017-02-09T10:50:02.058Z</time>
      </trkpt>
      <trkpt lat="42.91218" lon="0.28447">
        <ele>1376</ele>
        <time>2017-02-09T10:50:03.058Z</time>
      </trkpt>
      <trkpt lat="42.91217" lon="0.28447">
        <ele>1376</ele>
        <time>2017-02-09T10:50:04.058Z</time>
      </trkpt>
      <trkpt lat="42.91216" lon="0.28446">
        <ele>1376</ele>
        <time>2017-02-09T10:50:05.058Z</time>
      </trkpt>
      <trkpt lat="42.91216" lon="0.28446">
        <ele>1376</ele>
        <time>2017-02-09T10:50:06.058Z</time>
      </trkpt>
      <trkpt lat="42.91215" lon="0.28445">
        <ele>1376</ele>
        <time>2017-02-09T10:50:07.058Z</time>
      </trkpt>
      <trkpt lat="42.91214" lon="0.28445">
        <ele>1377</ele>
        <time>2017-02-09T10:50:08.058Z</time>
      </trkpt>
      <trkpt lat="42.91213" lon="0.28445">
        <ele>1377</ele>
        <time>2017-02-09T10:50:09.058Z</time>
      </trkpt>
      <trkpt lat="42.91212" lon="0.28445">
        <ele>1377</ele>
        <time>2017-02-09T10:50:10.058Z</time>
      </trkpt>
      <trkpt lat="42.91211" lon="0.28444">
        <ele>1377</ele>
        <time>2017-02-09T10:50:11.058Z</time>
      </trkpt>
      <trkpt lat="42.91211" lon="0.28444">
        <ele>1377</ele>
        <time>2017-02-09T10:50:12.058Z</time>
      </trkpt>
      <trkpt lat="42.9121" lon="0.28443">
        <ele>1377</ele>
        <time>2017-02-09T10:50:13.058Z</time>
      </trkpt>
      <trkpt lat="42.91209" lon="0.28443">
        <ele>1378</ele>
        <time>2017-02-09T10:50:14.058Z</time>
      </trkpt>
      <trkpt lat="42.91208" lon="0.28443">
        <ele>1378</ele>
        <time>2017-02-09T10:50:15.058Z</time>
      </trkpt>
      <trkpt lat="42.91208" lon="0.28443">
        <ele>1378</ele>
        <time>2017-02-09T10:50:16.058Z</time>
      </trkpt>
      <trkpt lat="42.91207" lon="0.28442">
        <ele>1378</ele>
        <time>2017-02-09T10:50:17.058Z</time>
      </trkpt>
      <trkpt lat="42.91206" lon="0.28442">
        <ele>1378</ele>
        <time>2017-02-09T10:50:18.058Z</time>
      </trkpt>
      <trkpt lat="42.91205" lon="0.28442">
        <ele>1378</ele>
        <time>2017-02-09T10:50:19.058Z</time>
      </trkpt>
      <trkpt lat="42.91204" lon="0.28441">
        <ele>1378</ele>
        <time>2017-02-09T10:50:20.058Z</time>
      </trkpt>
      <trkpt lat="42.91204" lon="0.28441">
        <ele>1378</ele>
        <time>2017-02-09T10:50:21.058Z</time>
      </trkpt>
      <trkpt lat="42.91203" lon="0.28441">
        <ele>1378</ele>
        <time>2017-02-09T10:50:22.058Z</time>
      </trkpt>
      <trkpt lat="42.91202" lon="0.2844">
        <ele>1378</ele>
        <time>2017-02-09T10:50:23.058Z</time>
      </trkpt>
      <trkpt lat="42.91201" lon="0.2844">
        <ele>1379</ele>
        <time>2017-02-09T10:50:24.058Z</time>
      </trkpt>
      <trkpt lat="42.912" lon="0.28439">
        <ele>1379</ele>
        <time>2017-02-09T10:50:25.058Z</time>
      </trkpt>
      <trkpt lat="42.912" lon="0.28439">
        <ele>1379</ele>
        <time>2017-02-09T10:50:26.058Z</time>
      </trkpt>
      <trkpt lat="42.91199" lon="0.28439">
        <ele>1379</ele>
        <time>2017-02-09T10:50:27.058Z</time>
      </trkpt>
      <trkpt lat="42.91198" lon="0.28439">
        <ele>1379</ele>
        <time>2017-02-09T10:50:28.058Z</time>
      </trkpt>
      <trkpt lat="42.91197" lon="0.28438">
        <ele>1379</ele>
        <time>2017-02-09T10:50:29.058Z</time>
      </trkpt>
      <trkpt lat="42.91197" lon="0.28438">
        <ele>1379</ele>
        <time>2017-02-09T10:50:30.058Z</time>
      </trkpt>
      <trkpt lat="42.91196" lon="0.28438">
        <ele>1379</ele>
        <time>2017-02-09T10:50:31.058Z</time>
      </trkpt>
      <trkpt lat="42.91195" lon="0.28437">
        <ele>1379</ele>
        <time>2017-02-09T10:50:32.058Z</time>
      </trkpt>
      <trkpt lat="42.91194" lon="0.28437">
        <ele>1379</ele>
        <time>2017-02-09T10:50:33.058Z</time>
      </trkpt>
      <trkpt lat="42.91193" lon="0.28437">
        <ele>1379</ele>
        <time>2017-02-09T10:50:34.058Z</time>
      </trkpt>
      <trkpt lat="42.91193" lon="0.28436">
        <ele>1379</ele>
        <time>2017-02-09T10:50:35.058Z</time>
      </trkpt>
      <trkpt lat="42.91192" lon="0.28436">
        <ele>1379</ele>
        <time>2017-02-09T10:50:36.058Z</time>
      </trkpt>
      <trkpt lat="42.91191" lon="0.28435">
        <ele>1379</ele>
        <time>2017-02-09T10:50:37.058Z</time>
      </trkpt>
      <trkpt lat="42.9119" lon="0.28435">
        <ele>1379</ele>
        <time>2017-02-09T10:50:38.058Z</time>
      </trkpt>
      <trkpt lat="42.91189" lon="0.28434">
        <ele>1379</ele>
        <time>2017-02-09T10:50:39.058Z</time>
      </trkpt>
      <trkpt lat="42.91188" lon="0.28434">
        <ele>1380</ele>
        <time>2017-02-09T10:50:40.058Z</time>
      </trkpt>
      <trkpt lat="42.91188" lon="0.28434">
        <ele>1379</ele>
        <time>2017-02-09T10:50:41.058Z</time>
      </trkpt>
      <trkpt lat="42.91187" lon="0.28433">
        <ele>1379</ele>
        <time>2017-02-09T10:50:42.058Z</time>
      </trkpt>
      <trkpt lat="42.91186" lon="0.28433">
        <ele>1379</ele>
        <time>2017-02-09T10:50:43.058Z</time>
      </trkpt>
      <trkpt lat="42.91185" lon="0.28432">
        <ele>1379</ele>
        <time>2017-02-09T10:50:44.058Z</time>
      </trkpt>
      <trkpt lat="42.91185" lon="0.28432">
        <ele>1379</ele>
        <time>2017-02-09T10:50:45.058Z</time>
      </trkpt>
      <trkpt lat="42.91184" lon="0.28432">
        <ele>1380</ele>
        <time>2017-02-09T10:50:46.058Z</time>
      </trkpt>
      <trkpt lat="42.91184" lon="0.28431">
        <ele>1380</ele>
        <time>2017-02-09T10:50:47.058Z</time>
      </trkpt>
      <trkpt lat="42.91183" lon="0.28431">
        <ele>1380</ele>
        <time>2017-02-09T10:50:48.058Z</time>
      </trkpt>
      <trkpt lat="42.91182" lon="0.2843">
        <ele>1380</ele>
        <time>2017-02-09T10:50:49.058Z</time>
      </trkpt>
      <trkpt lat="42.91182" lon="0.2843">
        <ele>1380</ele>
        <time>2017-02-09T10:50:50.058Z</time>
      </trkpt>
      <trkpt lat="42.91181" lon="0.28429">
        <ele>1380</ele>
        <time>2017-02-09T10:50:51.058Z</time>
      </trkpt>
      <trkpt lat="42.9118" lon="0.28429">
        <ele>1381</ele>
        <time>2017-02-09T10:50:52.058Z</time>
      </trkpt>
      <trkpt lat="42.91179" lon="0.28429">
        <ele>1381</ele>
        <time>2017-02-09T10:50:53.058Z</time>
      </trkpt>
      <trkpt lat="42.91178" lon="0.28428">
        <ele>1381</ele>
        <time>2017-02-09T10:50:54.058Z</time>
      </trkpt>
      <trkpt lat="42.91177" lon="0.28428">
        <ele>1381</ele>
        <time>2017-02-09T10:50:55.058Z</time>
      </trkpt>
      <trkpt lat="42.91177" lon="0.28427">
        <ele>1381</ele>
        <time>2017-02-09T10:50:56.058Z</time>
      </trkpt>
      <trkpt lat="42.91176" lon="0.28427">
        <ele>1381</ele>
        <time>2017-02-09T10:50:57.058Z</time>
      </trkpt>
      <trkpt lat="42.91175" lon="0.28426">
        <ele>1381</ele>
        <time>2017-02-09T10:50:58.058Z</time>
      </trkpt>
      <trkpt lat="42.91174" lon="0.28426">
        <ele>1381</ele>
        <time>2017-02-09T10:50:59.058Z</time>
      </trkpt>
      <trkpt lat="42.91173" lon="0.28425">
        <ele>1381</ele>
        <time>2017-02-09T10:51:00.058Z</time>
      </trkpt>
      <trkpt lat="42.91173" lon="0.28425">
        <ele>1381</ele>
        <time>2017-02-09T10:51:01.058Z</time>
      </trkpt>
      <trkpt lat="42.91172" lon="0.28424">
        <ele>1381</ele>
        <time>2017-02-09T10:51:02.058Z</time>
      </trkpt>
      <trkpt lat="42.91171" lon="0.28424">
        <ele>1381</ele>
        <time>2017-02-09T10:51:03.058Z</time>
      </trkpt>
      <trkpt lat="42.91171" lon="0.28423">
        <ele>1381</ele>
        <time>2017-02-09T10:51:04.058Z</time>
      </trkpt>
      <trkpt lat="42.9117" lon="0.28423">
        <ele>1382</ele>
        <time>2017-02-09T10:51:05.058Z</time>
      </trkpt>
      <trkpt lat="42.91169" lon="0.28422">
        <ele>1382</ele>
        <time>2017-02-09T10:51:06.058Z</time>
      </trkpt>
      <trkpt lat="42.91168" lon="0.28422">
        <ele>1381</ele>
        <time>2017-02-09T10:51:07.058Z</time>
      </trkpt>
      <trkpt lat="42.91168" lon="0.28421">
        <ele>1381</ele>
        <time>2017-02-09T10:51:08.058Z</time>
      </trkpt>
      <trkpt lat="42.91167" lon="0.28421">
        <ele>1381</ele>
        <time>2017-02-09T10:51:09.058Z</time>
      </trkpt>
      <trkpt lat="42.91166" lon="0.28421">
        <ele>1381</ele>
        <time>2017-02-09T10:51:10.058Z</time>
      </trkpt>
      <trkpt lat="42.91165" lon="0.2842">
        <ele>1381</ele>
        <time>2017-02-09T10:51:11.058Z</time>
      </trkpt>
      <trkpt lat="42.91164" lon="0.2842">
        <ele>1381</ele>
        <time>2017-02-09T10:51:12.058Z</time>
      </trkpt>
      <trkpt lat="42.91164" lon="0.28419">
        <ele>1381</ele>
        <time>2017-02-09T10:51:13.058Z</time>
      </trkpt>
      <trkpt lat="42.91163" lon="0.28419">
        <ele>1381</ele>
        <time>2017-02-09T10:51:14.058Z</time>
      </trkpt>
      <trkpt lat="42.91162" lon="0.28418">
        <ele>1382</ele>
        <time>2017-02-09T10:51:15.058Z</time>
      </trkpt>
      <trkpt lat="42.91162" lon="0.28418">
        <ele>1382</ele>
        <time>2017-02-09T10:51:16.058Z</time>
      </trkpt>
      <trkpt lat="42.91161" lon="0.28418">
        <ele>1382</ele>
        <time>2017-02-09T10:51:17.058Z</time>
      </trkpt>
      <trkpt lat="42.9116" lon="0.28417">
        <ele>1382</ele>
        <time>2017-02-09T10:51:18.058Z</time>
      </trkpt>
      <trkpt lat="42.91159" lon="0.28417">
        <ele>1382</ele>
        <time>2017-02-09T10:51:19.058Z</time>
      </trkpt>
      <trkpt lat="42.91159" lon="0.28416">
        <ele>1382</ele>
        <time>2017-02-09T10:51:20.058Z</time>
      </trkpt>
      <trkpt lat="42.91158" lon="0.28416">
        <ele>1382</ele>
        <time>2017-02-09T10:51:21.058Z</time>
      </trkpt>
      <trkpt lat="42.91157" lon="0.28415">
        <ele>1382</ele>
        <time>2017-02-09T10:51:22.058Z</time>
      </trkpt>
      <trkpt lat="42.91156" lon="0.28415">
        <ele>1382</ele>
        <time>2017-02-09T10:51:23.058Z</time>
      </trkpt>
      <trkpt lat="42.91155" lon="0.28414">
        <ele>1382</ele>
        <time>2017-02-09T10:51:24.058Z</time>
      </trkpt>
      <trkpt lat="42.91154" lon="0.28414">
        <ele>1382</ele>
        <time>2017-02-09T10:51:25.058Z</time>
      </trkpt>
      <trkpt lat="42.91154" lon="0.28413">
        <ele>1382</ele>
        <time>2017-02-09T10:51:26.058Z</time>
      </trkpt>
      <trkpt lat="42.91153" lon="0.28413">
        <ele>1382</ele>
        <time>2017-02-09T10:51:27.058Z</time>
      </trkpt>
      <trkpt lat="42.91152" lon="0.28412">
        <ele>1382</ele>
        <time>2017-02-09T10:51:28.058Z</time>
      </trkpt>
      <trkpt lat="42.91151" lon="0.28412">
        <ele>1382</ele>
        <time>2017-02-09T10:51:29.058Z</time>
      </trkpt>
      <trkpt lat="42.91151" lon="0.28411">
        <ele>1382</ele>
        <time>2017-02-09T10:51:30.058Z</time>
      </trkpt>
      <trkpt lat="42.9115" lon="0.28411">
        <ele>1382</ele>
        <time>2017-02-09T10:51:31.058Z</time>
      </trkpt>
      <trkpt lat="42.91149" lon="0.2841">
        <ele>1382</ele>
        <time>2017-02-09T10:51:32.058Z</time>
      </trkpt>
      <trkpt lat="42.91149" lon="0.2841">
        <ele>1382</ele>
        <time>2017-02-09T10:51:33.058Z</time>
      </trkpt>
      <trkpt lat="42.91148" lon="0.28409">
        <ele>1382</ele>
        <time>2017-02-09T10:51:34.058Z</time>
      </trkpt>
      <trkpt lat="42.91147" lon="0.28409">
        <ele>1382</ele>
        <time>2017-02-09T10:51:35.058Z</time>
      </trkpt>
      <trkpt lat="42.91146" lon="0.28409">
        <ele>1383</ele>
        <time>2017-02-09T10:51:36.058Z</time>
      </trkpt>
      <trkpt lat="42.91146" lon="0.28408">
        <ele>1383</ele>
        <time>2017-02-09T10:51:37.058Z</time>
      </trkpt>
      <trkpt lat="42.91145" lon="0.28408">
        <ele>1383</ele>
        <time>2017-02-09T10:51:38.058Z</time>
      </trkpt>
      <trkpt lat="42.91144" lon="0.28407">
        <ele>1383</ele>
        <time>2017-02-09T10:51:39.058Z</time>
      </trkpt>
      <trkpt lat="42.91144" lon="0.28406">
        <ele>1383</ele>
        <time>2017-02-09T10:51:40.058Z</time>
      </trkpt>
      <trkpt lat="42.91143" lon="0.28406">
        <ele>1383</ele>
        <time>2017-02-09T10:51:41.058Z</time>
      </trkpt>
      <trkpt lat="42.91142" lon="0.28405">
        <ele>1383</ele>
        <time>2017-02-09T10:51:42.058Z</time>
      </trkpt>
      <trkpt lat="42.91142" lon="0.28405">
        <ele>1383</ele>
        <time>2017-02-09T10:51:43.058Z</time>
      </trkpt>
      <trkpt lat="42.91141" lon="0.28405">
        <ele>1383</ele>
        <time>2017-02-09T10:51:44.058Z</time>
      </trkpt>
      <trkpt lat="42.9114" lon="0.28404">
        <ele>1383</ele>
        <time>2017-02-09T10:51:45.058Z</time>
      </trkpt>
      <trkpt lat="42.91139" lon="0.28404">
        <ele>1383</ele>
        <time>2017-02-09T10:51:46.058Z</time>
      </trkpt>
      <trkpt lat="42.91139" lon="0.28403">
        <ele>1383</ele>
        <time>2017-02-09T10:51:47.058Z</time>
      </trkpt>
      <trkpt lat="42.91138" lon="0.28403">
        <ele>1383</ele>
        <time>2017-02-09T10:51:48.058Z</time>
      </trkpt>
      <trkpt lat="42.91137" lon="0.28402">
        <ele>1383</ele>
        <time>2017-02-09T10:51:49.058Z</time>
      </trkpt>
      <trkpt lat="42.91136" lon="0.28402">
        <ele>1383</ele>
        <time>2017-02-09T10:51:50.058Z</time>
      </trkpt>
      <trkpt lat="42.91136" lon="0.28401">
        <ele>1383</ele>
        <time>2017-02-09T10:51:51.058Z</time>
      </trkpt>
      <trkpt lat="42.91135" lon="0.28401">
        <ele>1382</ele>
        <time>2017-02-09T10:51:52.058Z</time>
      </trkpt>
      <trkpt lat="42.91134" lon="0.28401">
        <ele>1382</ele>
        <time>2017-02-09T10:51:53.058Z</time>
      </trkpt>
      <trkpt lat="42.91133" lon="0.284">
        <ele>1382</ele>
        <time>2017-02-09T10:51:54.058Z</time>
      </trkpt>
      <trkpt lat="42.91133" lon="0.284">
        <ele>1383</ele>
        <time>2017-02-09T10:51:55.058Z</time>
      </trkpt>
      <trkpt lat="42.91132" lon="0.28399">
        <ele>1383</ele>
        <time>2017-02-09T10:51:56.058Z</time>
      </trkpt>
      <trkpt lat="42.91131" lon="0.28399">
        <ele>1383</ele>
        <time>2017-02-09T10:51:57.058Z</time>
      </trkpt>
      <trkpt lat="42.91131" lon="0.28399">
        <ele>1383</ele>
        <time>2017-02-09T10:51:58.058Z</time>
      </trkpt>
      <trkpt lat="42.9113" lon="0.28398">
        <ele>1383</ele>
        <time>2017-02-09T10:51:59.058Z</time>
      </trkpt>
      <trkpt lat="42.91129" lon="0.28398">
        <ele>1383</ele>
        <time>2017-02-09T10:52:00.058Z</time>
      </trkpt>
      <trkpt lat="42.91128" lon="0.28397">
        <ele>1383</ele>
        <time>2017-02-09T10:52:01.058Z</time>
      </trkpt>
      <trkpt lat="42.91128" lon="0.28397">
        <ele>1383</ele>
        <time>2017-02-09T10:52:02.058Z</time>
      </trkpt>
      <trkpt lat="42.91127" lon="0.28396">
        <ele>1383</ele>
        <time>2017-02-09T10:52:03.058Z</time>
      </trkpt>
      <trkpt lat="42.91126" lon="0.28396">
        <ele>1383</ele>
        <time>2017-02-09T10:52:04.058Z</time>
      </trkpt>
      <trkpt lat="42.91125" lon="0.28396">
        <ele>1383</ele>
        <time>2017-02-09T10:52:05.058Z</time>
      </trkpt>
      <trkpt lat="42.91124" lon="0.28395">
        <ele>1383</ele>
        <time>2017-02-09T10:52:06.058Z</time>
      </trkpt>
      <trkpt lat="42.91123" lon="0.28395">
        <ele>1383</ele>
        <time>2017-02-09T10:52:07.058Z</time>
      </trkpt>
      <trkpt lat="42.91122" lon="0.28395">
        <ele>1383</ele>
        <time>2017-02-09T10:52:08.058Z</time>
      </trkpt>
      <trkpt lat="42.91122" lon="0.28394">
        <ele>1383</ele>
        <time>2017-02-09T10:52:09.058Z</time>
      </trkpt>
      <trkpt lat="42.91121" lon="0.28394">
        <ele>1383</ele>
        <time>2017-02-09T10:52:10.058Z</time>
      </trkpt>
      <trkpt lat="42.9112" lon="0.28393">
        <ele>1383</ele>
        <time>2017-02-09T10:52:11.058Z</time>
      </trkpt>
      <trkpt lat="42.91119" lon="0.28393">
        <ele>1383</ele>
        <time>2017-02-09T10:52:12.058Z</time>
      </trkpt>
      <trkpt lat="42.91119" lon="0.28392">
        <ele>1383</ele>
        <time>2017-02-09T10:52:13.058Z</time>
      </trkpt>
      <trkpt lat="42.91119" lon="0.28392">
        <ele>1383</ele>
        <time>2017-02-09T10:52:14.058Z</time>
      </trkpt>
      <trkpt lat="42.91119" lon="0.28392">
        <ele>1383</ele>
        <time>2017-02-09T10:52:15.058Z</time>
      </trkpt>
      <trkpt lat="42.91118" lon="0.28392">
        <ele>1383</ele>
        <time>2017-02-09T10:52:16.058Z</time>
      </trkpt>
      <trkpt lat="42.91118" lon="0.28392">
        <ele>1383</ele>
        <time>2017-02-09T10:52:17.058Z</time>
      </trkpt>
      <trkpt lat="42.91118" lon="0.28392">
        <ele>1383</ele>
        <time>2017-02-09T10:52:18.058Z</time>
      </trkpt>
      <trkpt lat="42.91118" lon="0.28393">
        <ele>1382</ele>
        <time>2017-02-09T10:52:19.058Z</time>
      </trkpt>
      <trkpt lat="42.91118" lon="0.28393">
        <ele>1382</ele>
        <time>2017-02-09T10:52:20.058Z</time>
      </trkpt>
      <trkpt lat="42.91118" lon="0.28393">
        <ele>1382</ele>
        <time>2017-02-09T10:52:21.058Z</time>
      </trkpt>
      <trkpt lat="42.91119" lon="0.2839">
        <ele>1386</ele>
        <time>2017-02-09T10:52:22.062Z</time>
      </trkpt>
      <trkpt lat="42.91118" lon="0.28389">
        <ele>1386</ele>
        <time>2017-02-09T10:52:23.062Z</time>
      </trkpt>
      <trkpt lat="42.91117" lon="0.28389">
        <ele>1386</ele>
        <time>2017-02-09T10:52:24.062Z</time>
      </trkpt>
      <trkpt lat="42.91117" lon="0.28388">
        <ele>1386</ele>
        <time>2017-02-09T10:52:25.062Z</time>
      </trkpt>
      <trkpt lat="42.91116" lon="0.28388">
        <ele>1386</ele>
        <time>2017-02-09T10:52:26.062Z</time>
      </trkpt>
      <trkpt lat="42.91115" lon="0.28387">
        <ele>1386</ele>
        <time>2017-02-09T10:52:27.062Z</time>
      </trkpt>
      <trkpt lat="42.91114" lon="0.28387">
        <ele>1386</ele>
        <time>2017-02-09T10:52:28.062Z</time>
      </trkpt>
      <trkpt lat="42.91113" lon="0.28387">
        <ele>1386</ele>
        <time>2017-02-09T10:52:29.062Z</time>
      </trkpt>
      <trkpt lat="42.91112" lon="0.28386">
        <ele>1386</ele>
        <time>2017-02-09T10:52:30.062Z</time>
      </trkpt>
      <trkpt lat="42.91112" lon="0.28386">
        <ele>1386</ele>
        <time>2017-02-09T10:52:31.062Z</time>
      </trkpt>
      <trkpt lat="42.91111" lon="0.28385">
        <ele>1386</ele>
        <time>2017-02-09T10:52:32.062Z</time>
      </trkpt>
      <trkpt lat="42.9111" lon="0.28385">
        <ele>1386</ele>
        <time>2017-02-09T10:52:33.062Z</time>
      </trkpt>
      <trkpt lat="42.91109" lon="0.28384">
        <ele>1386</ele>
        <time>2017-02-09T10:52:34.062Z</time>
      </trkpt>
      <trkpt lat="42.91108" lon="0.28384">
        <ele>1387</ele>
        <time>2017-02-09T10:52:35.062Z</time>
      </trkpt>
      <trkpt lat="42.91108" lon="0.28384">
        <ele>1387</ele>
        <time>2017-02-09T10:52:36.062Z</time>
      </trkpt>
      <trkpt lat="42.91107" lon="0.28383">
        <ele>1387</ele>
        <time>2017-02-09T10:52:37.062Z</time>
      </trkpt>
      <trkpt lat="42.91106" lon="0.28383">
        <ele>1386</ele>
        <time>2017-02-09T10:52:38.062Z</time>
      </trkpt>
      <trkpt lat="42.91105" lon="0.28382">
        <ele>1387</ele>
        <time>2017-02-09T10:52:39.062Z</time>
      </trkpt>
      <trkpt lat="42.91104" lon="0.28382">
        <ele>1387</ele>
        <time>2017-02-09T10:52:40.062Z</time>
      </trkpt>
      <trkpt lat="42.91104" lon="0.28382">
        <ele>1387</ele>
        <time>2017-02-09T10:52:41.062Z</time>
      </trkpt>
      <trkpt lat="42.91103" lon="0.28381">
        <ele>1388</ele>
        <time>2017-02-09T10:52:42.062Z</time>
      </trkpt>
      <trkpt lat="42.91102" lon="0.28381">
        <ele>1388</ele>
        <time>2017-02-09T10:52:43.062Z</time>
      </trkpt>
      <trkpt lat="42.91101" lon="0.2838">
        <ele>1388</ele>
        <time>2017-02-09T10:52:44.062Z</time>
      </trkpt>
      <trkpt lat="42.911" lon="0.2838">
        <ele>1388</ele>
        <time>2017-02-09T10:52:45.062Z</time>
      </trkpt>
      <trkpt lat="42.911" lon="0.2838">
        <ele>1388</ele>
        <time>2017-02-09T10:52:46.062Z</time>
      </trkpt>
      <trkpt lat="42.91099" lon="0.28379">
        <ele>1388</ele>
        <time>2017-02-09T10:52:47.062Z</time>
      </trkpt>
      <trkpt lat="42.91098" lon="0.28379">
        <ele>1388</ele>
        <time>2017-02-09T10:52:48.062Z</time>
      </trkpt>
      <trkpt lat="42.91097" lon="0.28378">
        <ele>1387</ele>
        <time>2017-02-09T10:52:49.062Z</time>
      </trkpt>
      <trkpt lat="42.91097" lon="0.28378">
        <ele>1387</ele>
        <time>2017-02-09T10:52:50.062Z</time>
      </trkpt>
      <trkpt lat="42.91096" lon="0.28377">
        <ele>1388</ele>
        <time>2017-02-09T10:52:51.062Z</time>
      </trkpt>
      <trkpt lat="42.91095" lon="0.28377">
        <ele>1387</ele>
        <time>2017-02-09T10:52:52.062Z</time>
      </trkpt>
      <trkpt lat="42.91094" lon="0.28376">
        <ele>1387</ele>
        <time>2017-02-09T10:52:53.062Z</time>
      </trkpt>
      <trkpt lat="42.91093" lon="0.28376">
        <ele>1388</ele>
        <time>2017-02-09T10:52:54.062Z</time>
      </trkpt>
      <trkpt lat="42.91093" lon="0.28375">
        <ele>1388</ele>
        <time>2017-02-09T10:52:55.062Z</time>
      </trkpt>
      <trkpt lat="42.91092" lon="0.28375">
        <ele>1387</ele>
        <time>2017-02-09T10:52:56.062Z</time>
      </trkpt>
      <trkpt lat="42.91091" lon="0.28374">
        <ele>1388</ele>
        <time>2017-02-09T10:52:57.062Z</time>
      </trkpt>
      <trkpt lat="42.9109" lon="0.28374">
        <ele>1388</ele>
        <time>2017-02-09T10:52:58.062Z</time>
      </trkpt>
      <trkpt lat="42.91089" lon="0.28373">
        <ele>1388</ele>
        <time>2017-02-09T10:52:59.062Z</time>
      </trkpt>
      <trkpt lat="42.91089" lon="0.28373">
        <ele>1388</ele>
        <time>2017-02-09T10:53:00.062Z</time>
      </trkpt>
      <trkpt lat="42.91088" lon="0.28372">
        <ele>1388</ele>
        <time>2017-02-09T10:53:01.062Z</time>
      </trkpt>
      <trkpt lat="42.91087" lon="0.28372">
        <ele>1388</ele>
        <time>2017-02-09T10:53:02.062Z</time>
      </trkpt>
      <trkpt lat="42.91086" lon="0.28371">
        <ele>1388</ele>
        <time>2017-02-09T10:53:03.062Z</time>
      </trkpt>
      <trkpt lat="42.91085" lon="0.2837">
        <ele>1388</ele>
        <time>2017-02-09T10:53:04.062Z</time>
      </trkpt>
      <trkpt lat="42.91085" lon="0.2837">
        <ele>1388</ele>
        <time>2017-02-09T10:53:05.062Z</time>
      </trkpt>
      <trkpt lat="42.91084" lon="0.28369">
        <ele>1388</ele>
        <time>2017-02-09T10:53:06.062Z</time>
      </trkpt>
      <trkpt lat="42.91083" lon="0.28369">
        <ele>1388</ele>
        <time>2017-02-09T10:53:07.062Z</time>
      </trkpt>
      <trkpt lat="42.91083" lon="0.28368">
        <ele>1388</ele>
        <time>2017-02-09T10:53:08.062Z</time>
      </trkpt>
      <trkpt lat="42.91082" lon="0.28367">
        <ele>1388</ele>
        <time>2017-02-09T10:53:09.062Z</time>
      </trkpt>
      <trkpt lat="42.91081" lon="0.28366">
        <ele>1388</ele>
        <time>2017-02-09T10:53:10.062Z</time>
      </trkpt>
      <trkpt lat="42.91081" lon="0.28366">
        <ele>1388</ele>
        <time>2017-02-09T10:53:11.062Z</time>
      </trkpt>
      <trkpt lat="42.9108" lon="0.28365">
        <ele>1388</ele>
        <time>2017-02-09T10:53:12.062Z</time>
      </trkpt>
      <trkpt lat="42.91079" lon="0.28365">
        <ele>1388</ele>
        <time>2017-02-09T10:53:13.062Z</time>
      </trkpt>
      <trkpt lat="42.91079" lon="0.28364">
        <ele>1388</ele>
        <time>2017-02-09T10:53:14.062Z</time>
      </trkpt>
      <trkpt lat="42.91078" lon="0.28363">
        <ele>1388</ele>
        <time>2017-02-09T10:53:15.062Z</time>
      </trkpt>
      <trkpt lat="42.91077" lon="0.28362">
        <ele>1388</ele>
        <time>2017-02-09T10:53:16.062Z</time>
      </trkpt>
      <trkpt lat="42.91077" lon="0.28362">
        <ele>1388</ele>
        <time>2017-02-09T10:53:17.062Z</time>
      </trkpt>
      <trkpt lat="42.91076" lon="0.28361">
        <ele>1388</ele>
        <time>2017-02-09T10:53:18.062Z</time>
      </trkpt>
      <trkpt lat="42.91075" lon="0.28361">
        <ele>1388</ele>
        <time>2017-02-09T10:53:19.062Z</time>
      </trkpt>
      <trkpt lat="42.91075" lon="0.2836">
        <ele>1388</ele>
        <time>2017-02-09T10:53:20.062Z</time>
      </trkpt>
      <trkpt lat="42.91074" lon="0.28359">
        <ele>1388</ele>
        <time>2017-02-09T10:53:21.062Z</time>
      </trkpt>
      <trkpt lat="42.91073" lon="0.28359">
        <ele>1388</ele>
        <time>2017-02-09T10:53:22.062Z</time>
      </trkpt>
      <trkpt lat="42.91073" lon="0.28358">
        <ele>1388</ele>
        <time>2017-02-09T10:53:23.062Z</time>
      </trkpt>
      <trkpt lat="42.91072" lon="0.28357">
        <ele>1388</ele>
        <time>2017-02-09T10:53:24.062Z</time>
      </trkpt>
      <trkpt lat="42.91071" lon="0.28356">
        <ele>1388</ele>
        <time>2017-02-09T10:53:25.062Z</time>
      </trkpt>
      <trkpt lat="42.9107" lon="0.28356">
        <ele>1388</ele>
        <time>2017-02-09T10:53:26.062Z</time>
      </trkpt>
      <trkpt lat="42.9107" lon="0.28355">
        <ele>1389</ele>
        <time>2017-02-09T10:53:27.062Z</time>
      </trkpt>
      <trkpt lat="42.91069" lon="0.28354">
        <ele>1389</ele>
        <time>2017-02-09T10:53:28.062Z</time>
      </trkpt>
      <trkpt lat="42.91069" lon="0.28354">
        <ele>1389</ele>
        <time>2017-02-09T10:53:29.062Z</time>
      </trkpt>
      <trkpt lat="42.91068" lon="0.28353">
        <ele>1389</ele>
        <time>2017-02-09T10:53:30.062Z</time>
      </trkpt>
      <trkpt lat="42.91067" lon="0.28353">
        <ele>1389</ele>
        <time>2017-02-09T10:53:31.062Z</time>
      </trkpt>
      <trkpt lat="42.91067" lon="0.28352">
        <ele>1389</ele>
        <time>2017-02-09T10:53:32.062Z</time>
      </trkpt>
      <trkpt lat="42.91066" lon="0.28351">
        <ele>1389</ele>
        <time>2017-02-09T10:53:33.062Z</time>
      </trkpt>
      <trkpt lat="42.91065" lon="0.28351">
        <ele>1389</ele>
        <time>2017-02-09T10:53:34.062Z</time>
      </trkpt>
      <trkpt lat="42.91064" lon="0.2835">
        <ele>1389</ele>
        <time>2017-02-09T10:53:35.062Z</time>
      </trkpt>
      <trkpt lat="42.91064" lon="0.2835">
        <ele>1389</ele>
        <time>2017-02-09T10:53:36.062Z</time>
      </trkpt>
      <trkpt lat="42.91063" lon="0.28349">
        <ele>1389</ele>
        <time>2017-02-09T10:53:37.062Z</time>
      </trkpt>
      <trkpt lat="42.91062" lon="0.28348">
        <ele>1389</ele>
        <time>2017-02-09T10:53:38.062Z</time>
      </trkpt>
      <trkpt lat="42.91062" lon="0.28348">
        <ele>1389</ele>
        <time>2017-02-09T10:53:39.062Z</time>
      </trkpt>
      <trkpt lat="42.91061" lon="0.28347">
        <ele>1390</ele>
        <time>2017-02-09T10:53:40.062Z</time>
      </trkpt>
      <trkpt lat="42.9106" lon="0.28346">
        <ele>1390</ele>
        <time>2017-02-09T10:53:41.062Z</time>
      </trkpt>
      <trkpt lat="42.9106" lon="0.28346">
        <ele>1390</ele>
        <time>2017-02-09T10:53:42.062Z</time>
      </trkpt>
      <trkpt lat="42.91059" lon="0.28345">
        <ele>1390</ele>
        <time>2017-02-09T10:53:43.062Z</time>
      </trkpt>
      <trkpt lat="42.91058" lon="0.28345">
        <ele>1390</ele>
        <time>2017-02-09T10:53:44.062Z</time>
      </trkpt>
      <trkpt lat="42.91058" lon="0.28344">
        <ele>1390</ele>
        <time>2017-02-09T10:53:45.062Z</time>
      </trkpt>
      <trkpt lat="42.91057" lon="0.28344">
        <ele>1390</ele>
        <time>2017-02-09T10:53:46.062Z</time>
      </trkpt>
      <trkpt lat="42.91057" lon="0.28343">
        <ele>1390</ele>
        <time>2017-02-09T10:53:47.062Z</time>
      </trkpt>
      <trkpt lat="42.91056" lon="0.28342">
        <ele>1390</ele>
        <time>2017-02-09T10:53:48.062Z</time>
      </trkpt>
      <trkpt lat="42.91055" lon="0.28342">
        <ele>1391</ele>
        <time>2017-02-09T10:53:49.062Z</time>
      </trkpt>
      <trkpt lat="42.91054" lon="0.28341">
        <ele>1391</ele>
        <time>2017-02-09T10:53:50.062Z</time>
      </trkpt>
      <trkpt lat="42.91054" lon="0.28341">
        <ele>1391</ele>
        <time>2017-02-09T10:53:51.062Z</time>
      </trkpt>
      <trkpt lat="42.91053" lon="0.2834">
        <ele>1391</ele>
        <time>2017-02-09T10:53:52.062Z</time>
      </trkpt>
      <trkpt lat="42.91053" lon="0.2834">
        <ele>1391</ele>
        <time>2017-02-09T10:53:53.062Z</time>
      </trkpt>
      <trkpt lat="42.91052" lon="0.28339">
        <ele>1391</ele>
        <time>2017-02-09T10:53:54.062Z</time>
      </trkpt>
      <trkpt lat="42.91051" lon="0.28338">
        <ele>1391</ele>
        <time>2017-02-09T10:53:55.062Z</time>
      </trkpt>
      <trkpt lat="42.91051" lon="0.28338">
        <ele>1391</ele>
        <time>2017-02-09T10:53:56.062Z</time>
      </trkpt>
      <trkpt lat="42.9105" lon="0.28337">
        <ele>1391</ele>
        <time>2017-02-09T10:53:57.062Z</time>
      </trkpt>
      <trkpt lat="42.91049" lon="0.28336">
        <ele>1391</ele>
        <time>2017-02-09T10:53:58.062Z</time>
      </trkpt>
      <trkpt lat="42.91049" lon="0.28336">
        <ele>1391</ele>
        <time>2017-02-09T10:53:59.062Z</time>
      </trkpt>
      <trkpt lat="42.91048" lon="0.28335">
        <ele>1391</ele>
        <time>2017-02-09T10:54:00.062Z</time>
      </trkpt>
      <trkpt lat="42.91047" lon="0.28335">
        <ele>1391</ele>
        <time>2017-02-09T10:54:01.062Z</time>
      </trkpt>
      <trkpt lat="42.91047" lon="0.28334">
        <ele>1391</ele>
        <time>2017-02-09T10:54:02.062Z</time>
      </trkpt>
      <trkpt lat="42.91046" lon="0.28333">
        <ele>1391</ele>
        <time>2017-02-09T10:54:03.062Z</time>
      </trkpt>
      <trkpt lat="42.91045" lon="0.28333">
        <ele>1391</ele>
        <time>2017-02-09T10:54:04.062Z</time>
      </trkpt>
      <trkpt lat="42.91045" lon="0.28332">
        <ele>1391</ele>
        <time>2017-02-09T10:54:05.062Z</time>
      </trkpt>
      <trkpt lat="42.91044" lon="0.28331">
        <ele>1391</ele>
        <time>2017-02-09T10:54:06.062Z</time>
      </trkpt>
      <trkpt lat="42.91043" lon="0.2833">
        <ele>1391</ele>
        <time>2017-02-09T10:54:07.062Z</time>
      </trkpt>
      <trkpt lat="42.91043" lon="0.2833">
        <ele>1392</ele>
        <time>2017-02-09T10:54:08.062Z</time>
      </trkpt>
      <trkpt lat="42.91042" lon="0.28329">
        <ele>1392</ele>
        <time>2017-02-09T10:54:09.062Z</time>
      </trkpt>
      <trkpt lat="42.91041" lon="0.28328">
        <ele>1392</ele>
        <time>2017-02-09T10:54:10.062Z</time>
      </trkpt>
      <trkpt lat="42.91041" lon="0.28327">
        <ele>1392</ele>
        <time>2017-02-09T10:54:11.062Z</time>
      </trkpt>
      <trkpt lat="42.9104" lon="0.28327">
        <ele>1392</ele>
        <time>2017-02-09T10:54:12.062Z</time>
      </trkpt>
      <trkpt lat="42.9104" lon="0.28326">
        <ele>1393</ele>
        <time>2017-02-09T10:54:13.062Z</time>
      </trkpt>
      <trkpt lat="42.91039" lon="0.28325">
        <ele>1393</ele>
        <time>2017-02-09T10:54:14.062Z</time>
      </trkpt>
      <trkpt lat="42.91038" lon="0.28325">
        <ele>1393</ele>
        <time>2017-02-09T10:54:15.062Z</time>
      </trkpt>
      <trkpt lat="42.91038" lon="0.28324">
        <ele>1393</ele>
        <time>2017-02-09T10:54:16.062Z</time>
      </trkpt>
      <trkpt lat="42.91037" lon="0.28324">
        <ele>1393</ele>
        <time>2017-02-09T10:54:17.062Z</time>
      </trkpt>
      <trkpt lat="42.91036" lon="0.28323">
        <ele>1393</ele>
        <time>2017-02-09T10:54:18.062Z</time>
      </trkpt>
      <trkpt lat="42.91035" lon="0.28322">
        <ele>1393</ele>
        <time>2017-02-09T10:54:19.062Z</time>
      </trkpt>
      <trkpt lat="42.91035" lon="0.28322">
        <ele>1393</ele>
        <time>2017-02-09T10:54:20.062Z</time>
      </trkpt>
      <trkpt lat="42.91034" lon="0.28321">
        <ele>1393</ele>
        <time>2017-02-09T10:54:21.062Z</time>
      </trkpt>
      <trkpt lat="42.91034" lon="0.28321">
        <ele>1393</ele>
        <time>2017-02-09T10:54:22.062Z</time>
      </trkpt>
      <trkpt lat="42.91033" lon="0.2832">
        <ele>1393</ele>
        <time>2017-02-09T10:54:23.062Z</time>
      </trkpt>
      <trkpt lat="42.91032" lon="0.28319">
        <ele>1393</ele>
        <time>2017-02-09T10:54:24.062Z</time>
      </trkpt>
      <trkpt lat="42.91032" lon="0.28319">
        <ele>1393</ele>
        <time>2017-02-09T10:54:25.062Z</time>
      </trkpt>
      <trkpt lat="42.91031" lon="0.28318">
        <ele>1393</ele>
        <time>2017-02-09T10:54:26.062Z</time>
      </trkpt>
      <trkpt lat="42.91031" lon="0.28317">
        <ele>1393</ele>
        <time>2017-02-09T10:54:27.062Z</time>
      </trkpt>
      <trkpt lat="42.9103" lon="0.28317">
        <ele>1393</ele>
        <time>2017-02-09T10:54:28.062Z</time>
      </trkpt>
      <trkpt lat="42.9103" lon="0.28316">
        <ele>1393</ele>
        <time>2017-02-09T10:54:29.062Z</time>
      </trkpt>
      <trkpt lat="42.91029" lon="0.28315">
        <ele>1393</ele>
        <time>2017-02-09T10:54:30.062Z</time>
      </trkpt>
      <trkpt lat="42.91029" lon="0.28315">
        <ele>1394</ele>
        <time>2017-02-09T10:54:31.062Z</time>
      </trkpt>
      <trkpt lat="42.91028" lon="0.28314">
        <ele>1394</ele>
        <time>2017-02-09T10:54:32.062Z</time>
      </trkpt>
      <trkpt lat="42.91028" lon="0.28313">
        <ele>1394</ele>
        <time>2017-02-09T10:54:33.062Z</time>
      </trkpt>
      <trkpt lat="42.91027" lon="0.28313">
        <ele>1394</ele>
        <time>2017-02-09T10:54:34.062Z</time>
      </trkpt>
      <trkpt lat="42.91026" lon="0.28312">
        <ele>1394</ele>
        <time>2017-02-09T10:54:35.062Z</time>
      </trkpt>
      <trkpt lat="42.91025" lon="0.28312">
        <ele>1393</ele>
        <time>2017-02-09T10:54:36.062Z</time>
      </trkpt>
      <trkpt lat="42.91025" lon="0.28311">
        <ele>1393</ele>
        <time>2017-02-09T10:54:37.062Z</time>
      </trkpt>
      <trkpt lat="42.91024" lon="0.2831">
        <ele>1393</ele>
        <time>2017-02-09T10:54:38.062Z</time>
      </trkpt>
      <trkpt lat="42.91023" lon="0.2831">
        <ele>1393</ele>
        <time>2017-02-09T10:54:39.062Z</time>
      </trkpt>
      <trkpt lat="42.91022" lon="0.28309">
        <ele>1393</ele>
        <time>2017-02-09T10:54:40.062Z</time>
      </trkpt>
      <trkpt lat="42.91022" lon="0.28308">
        <ele>1394</ele>
        <time>2017-02-09T10:54:41.062Z</time>
      </trkpt>
      <trkpt lat="42.91021" lon="0.28307">
        <ele>1393</ele>
        <time>2017-02-09T10:54:42.062Z</time>
      </trkpt>
      <trkpt lat="42.91021" lon="0.28307">
        <ele>1394</ele>
        <time>2017-02-09T10:54:43.062Z</time>
      </trkpt>
      <trkpt lat="42.9102" lon="0.28306">
        <ele>1394</ele>
        <time>2017-02-09T10:54:44.062Z</time>
      </trkpt>
      <trkpt lat="42.9102" lon="0.28305">
        <ele>1394</ele>
        <time>2017-02-09T10:54:45.062Z</time>
      </trkpt>
      <trkpt lat="42.91019" lon="0.28305">
        <ele>1394</ele>
        <time>2017-02-09T10:54:46.062Z</time>
      </trkpt>
      <trkpt lat="42.91018" lon="0.28304">
        <ele>1394</ele>
        <time>2017-02-09T10:54:47.062Z</time>
      </trkpt>
      <trkpt lat="42.91018" lon="0.28303">
        <ele>1394</ele>
        <time>2017-02-09T10:54:48.062Z</time>
      </trkpt>
      <trkpt lat="42.91017" lon="0.28303">
        <ele>1394</ele>
        <time>2017-02-09T10:54:49.062Z</time>
      </trkpt>
      <trkpt lat="42.91017" lon="0.28302">
        <ele>1394</ele>
        <time>2017-02-09T10:54:50.062Z</time>
      </trkpt>
      <trkpt lat="42.91016" lon="0.28301">
        <ele>1394</ele>
        <time>2017-02-09T10:54:51.062Z</time>
      </trkpt>
      <trkpt lat="42.91016" lon="0.283">
        <ele>1394</ele>
        <time>2017-02-09T10:54:52.062Z</time>
      </trkpt>
      <trkpt lat="42.91015" lon="0.283">
        <ele>1394</ele>
        <time>2017-02-09T10:54:53.062Z</time>
      </trkpt>
      <trkpt lat="42.91014" lon="0.28299">
        <ele>1394</ele>
        <time>2017-02-09T10:54:54.062Z</time>
      </trkpt>
      <trkpt lat="42.91014" lon="0.28298">
        <ele>1394</ele>
        <time>2017-02-09T10:54:55.062Z</time>
      </trkpt>
      <trkpt lat="42.91013" lon="0.28298">
        <ele>1394</ele>
        <time>2017-02-09T10:54:56.062Z</time>
      </trkpt>
      <trkpt lat="42.91013" lon="0.28297">
        <ele>1394</ele>
        <time>2017-02-09T10:54:57.062Z</time>
      </trkpt>
      <trkpt lat="42.91012" lon="0.28297">
        <ele>1394</ele>
        <time>2017-02-09T10:54:58.062Z</time>
      </trkpt>
      <trkpt lat="42.91011" lon="0.28296">
        <ele>1394</ele>
        <time>2017-02-09T10:54:59.062Z</time>
      </trkpt>
      <trkpt lat="42.91011" lon="0.28295">
        <ele>1394</ele>
        <time>2017-02-09T10:55:00.062Z</time>
      </trkpt>
      <trkpt lat="42.9101" lon="0.28295">
        <ele>1394</ele>
        <time>2017-02-09T10:55:01.062Z</time>
      </trkpt>
      <trkpt lat="42.9101" lon="0.28294">
        <ele>1394</ele>
        <time>2017-02-09T10:55:02.062Z</time>
      </trkpt>
      <trkpt lat="42.91009" lon="0.28293">
        <ele>1394</ele>
        <time>2017-02-09T10:55:03.062Z</time>
      </trkpt>
      <trkpt lat="42.91008" lon="0.28293">
        <ele>1394</ele>
        <time>2017-02-09T10:55:04.062Z</time>
      </trkpt>
      <trkpt lat="42.91008" lon="0.28292">
        <ele>1394</ele>
        <time>2017-02-09T10:55:05.062Z</time>
      </trkpt>
      <trkpt lat="42.91007" lon="0.28291">
        <ele>1394</ele>
        <time>2017-02-09T10:55:06.062Z</time>
      </trkpt>
      <trkpt lat="42.91007" lon="0.28291">
        <ele>1394</ele>
        <time>2017-02-09T10:55:07.062Z</time>
      </trkpt>
      <trkpt lat="42.91006" lon="0.2829">
        <ele>1394</ele>
        <time>2017-02-09T10:55:08.062Z</time>
      </trkpt>
      <trkpt lat="42.91005" lon="0.28289">
        <ele>1395</ele>
        <time>2017-02-09T10:55:09.062Z</time>
      </trkpt>
      <trkpt lat="42.91005" lon="0.28289">
        <ele>1395</ele>
        <time>2017-02-09T10:55:10.062Z</time>
      </trkpt>
      <trkpt lat="42.91004" lon="0.28288">
        <ele>1395</ele>
        <time>2017-02-09T10:55:11.062Z</time>
      </trkpt>
      <trkpt lat="42.91004" lon="0.28287">
        <ele>1395</ele>
        <time>2017-02-09T10:55:12.062Z</time>
      </trkpt>
      <trkpt lat="42.91003" lon="0.28287">
        <ele>1395</ele>
        <time>2017-02-09T10:55:13.062Z</time>
      </trkpt>
      <trkpt lat="42.91003" lon="0.28286">
        <ele>1395</ele>
        <time>2017-02-09T10:55:14.062Z</time>
      </trkpt>
      <trkpt lat="42.91002" lon="0.28285">
        <ele>1395</ele>
        <time>2017-02-09T10:55:15.062Z</time>
      </trkpt>
      <trkpt lat="42.91002" lon="0.28285">
        <ele>1396</ele>
        <time>2017-02-09T10:55:16.062Z</time>
      </trkpt>
      <trkpt lat="42.91001" lon="0.28284">
        <ele>1396</ele>
        <time>2017-02-09T10:55:17.062Z</time>
      </trkpt>
      <trkpt lat="42.91" lon="0.28284">
        <ele>1396</ele>
        <time>2017-02-09T10:55:18.062Z</time>
      </trkpt>
      <trkpt lat="42.91" lon="0.28283">
        <ele>1396</ele>
        <time>2017-02-09T10:55:19.062Z</time>
      </trkpt>
      <trkpt lat="42.90999" lon="0.28282">
        <ele>1396</ele>
        <time>2017-02-09T10:55:20.062Z</time>
      </trkpt>
      <trkpt lat="42.90998" lon="0.28282">
        <ele>1396</ele>
        <time>2017-02-09T10:55:21.062Z</time>
      </trkpt>
      <trkpt lat="42.90998" lon="0.28281">
        <ele>1396</ele>
        <time>2017-02-09T10:55:22.062Z</time>
      </trkpt>
      <trkpt lat="42.90997" lon="0.28281">
        <ele>1396</ele>
        <time>2017-02-09T10:55:23.062Z</time>
      </trkpt>
      <trkpt lat="42.90997" lon="0.2828">
        <ele>1396</ele>
        <time>2017-02-09T10:55:24.062Z</time>
      </trkpt>
      <trkpt lat="42.90996" lon="0.28279">
        <ele>1396</ele>
        <time>2017-02-09T10:55:25.062Z</time>
      </trkpt>
      <trkpt lat="42.90995" lon="0.28279">
        <ele>1396</ele>
        <time>2017-02-09T10:55:26.062Z</time>
      </trkpt>
      <trkpt lat="42.90995" lon="0.28278">
        <ele>1396</ele>
        <time>2017-02-09T10:55:27.062Z</time>
      </trkpt>
      <trkpt lat="42.90994" lon="0.28277">
        <ele>1396</ele>
        <time>2017-02-09T10:55:28.062Z</time>
      </trkpt>
      <trkpt lat="42.90993" lon="0.28277">
        <ele>1397</ele>
        <time>2017-02-09T10:55:29.062Z</time>
      </trkpt>
      <trkpt lat="42.90992" lon="0.28276">
        <ele>1397</ele>
        <time>2017-02-09T10:55:30.062Z</time>
      </trkpt>
      <trkpt lat="42.90992" lon="0.28276">
        <ele>1397</ele>
        <time>2017-02-09T10:55:31.062Z</time>
      </trkpt>
      <trkpt lat="42.90991" lon="0.28275">
        <ele>1397</ele>
        <time>2017-02-09T10:55:32.062Z</time>
      </trkpt>
      <trkpt lat="42.90991" lon="0.28274">
        <ele>1397</ele>
        <time>2017-02-09T10:55:33.062Z</time>
      </trkpt>
      <trkpt lat="42.9099" lon="0.28274">
        <ele>1397</ele>
        <time>2017-02-09T10:55:34.062Z</time>
      </trkpt>
      <trkpt lat="42.9099" lon="0.28273">
        <ele>1397</ele>
        <time>2017-02-09T10:55:35.062Z</time>
      </trkpt>
      <trkpt lat="42.90989" lon="0.28272">
        <ele>1397</ele>
        <time>2017-02-09T10:55:36.062Z</time>
      </trkpt>
      <trkpt lat="42.90988" lon="0.28271">
        <ele>1397</ele>
        <time>2017-02-09T10:55:37.062Z</time>
      </trkpt>
      <trkpt lat="42.90988" lon="0.28271">
        <ele>1397</ele>
        <time>2017-02-09T10:55:38.062Z</time>
      </trkpt>
      <trkpt lat="42.90987" lon="0.2827">
        <ele>1397</ele>
        <time>2017-02-09T10:55:39.062Z</time>
      </trkpt>
      <trkpt lat="42.90986" lon="0.2827">
        <ele>1398</ele>
        <time>2017-02-09T10:55:40.062Z</time>
      </trkpt>
      <trkpt lat="42.90986" lon="0.28269">
        <ele>1398</ele>
        <time>2017-02-09T10:55:41.062Z</time>
      </trkpt>
      <trkpt lat="42.90985" lon="0.28268">
        <ele>1398</ele>
        <time>2017-02-09T10:55:42.062Z</time>
      </trkpt>
      <trkpt lat="42.90984" lon="0.28268">
        <ele>1398</ele>
        <time>2017-02-09T10:55:43.062Z</time>
      </trkpt>
      <trkpt lat="42.90984" lon="0.28267">
        <ele>1398</ele>
        <time>2017-02-09T10:55:44.062Z</time>
      </trkpt>
      <trkpt lat="42.90983" lon="0.28266">
        <ele>1398</ele>
        <time>2017-02-09T10:55:45.062Z</time>
      </trkpt>
      <trkpt lat="42.90983" lon="0.28266">
        <ele>1399</ele>
        <time>2017-02-09T10:55:46.062Z</time>
      </trkpt>
      <trkpt lat="42.90982" lon="0.28265">
        <ele>1399</ele>
        <time>2017-02-09T10:55:47.062Z</time>
      </trkpt>
      <trkpt lat="42.90981" lon="0.28264">
        <ele>1399</ele>
        <time>2017-02-09T10:55:48.062Z</time>
      </trkpt>
      <trkpt lat="42.90981" lon="0.28264">
        <ele>1400</ele>
        <time>2017-02-09T10:55:49.062Z</time>
      </trkpt>
      <trkpt lat="42.9098" lon="0.28263">
        <ele>1400</ele>
        <time>2017-02-09T10:55:50.062Z</time>
      </trkpt>
      <trkpt lat="42.9098" lon="0.28262">
        <ele>1400</ele>
        <time>2017-02-09T10:55:51.062Z</time>
      </trkpt>
      <trkpt lat="42.90979" lon="0.28261">
        <ele>1400</ele>
        <time>2017-02-09T10:55:52.062Z</time>
      </trkpt>
      <trkpt lat="42.90979" lon="0.28261">
        <ele>1400</ele>
        <time>2017-02-09T10:55:53.062Z</time>
      </trkpt>
      <trkpt lat="42.90978" lon="0.2826">
        <ele>1400</ele>
        <time>2017-02-09T10:55:54.062Z</time>
      </trkpt>
      <trkpt lat="42.90977" lon="0.28259">
        <ele>1400</ele>
        <time>2017-02-09T10:55:55.062Z</time>
      </trkpt>
      <trkpt lat="42.90977" lon="0.28258">
        <ele>1400</ele>
        <time>2017-02-09T10:55:56.062Z</time>
      </trkpt>
      <trkpt lat="42.90976" lon="0.28258">
        <ele>1400</ele>
        <time>2017-02-09T10:55:57.062Z</time>
      </trkpt>
      <trkpt lat="42.90976" lon="0.28257">
        <ele>1400</ele>
        <time>2017-02-09T10:55:58.062Z</time>
      </trkpt>
      <trkpt lat="42.90975" lon="0.28257">
        <ele>1400</ele>
        <time>2017-02-09T10:55:59.062Z</time>
      </trkpt>
      <trkpt lat="42.90975" lon="0.28256">
        <ele>1400</ele>
        <time>2017-02-09T10:56:00.062Z</time>
      </trkpt>
      <trkpt lat="42.90974" lon="0.28255">
        <ele>1400</ele>
        <time>2017-02-09T10:56:01.062Z</time>
      </trkpt>
      <trkpt lat="42.90973" lon="0.28254">
        <ele>1401</ele>
        <time>2017-02-09T10:56:02.062Z</time>
      </trkpt>
      <trkpt lat="42.90973" lon="0.28254">
        <ele>1401</ele>
        <time>2017-02-09T10:56:03.062Z</time>
      </trkpt>
      <trkpt lat="42.90972" lon="0.28253">
        <ele>1401</ele>
        <time>2017-02-09T10:56:04.062Z</time>
      </trkpt>
      <trkpt lat="42.90972" lon="0.28252">
        <ele>1401</ele>
        <time>2017-02-09T10:56:05.062Z</time>
      </trkpt>
      <trkpt lat="42.90971" lon="0.28252">
        <ele>1401</ele>
        <time>2017-02-09T10:56:06.062Z</time>
      </trkpt>
      <trkpt lat="42.90971" lon="0.28251">
        <ele>1401</ele>
        <time>2017-02-09T10:56:07.062Z</time>
      </trkpt>
      <trkpt lat="42.9097" lon="0.2825">
        <ele>1401</ele>
        <time>2017-02-09T10:56:08.062Z</time>
      </trkpt>
      <trkpt lat="42.9097" lon="0.2825">
        <ele>1400</ele>
        <time>2017-02-09T10:56:09.062Z</time>
      </trkpt>
      <trkpt lat="42.90969" lon="0.28249">
        <ele>1400</ele>
        <time>2017-02-09T10:56:10.062Z</time>
      </trkpt>
      <trkpt lat="42.90968" lon="0.28248">
        <ele>1400</ele>
        <time>2017-02-09T10:56:11.062Z</time>
      </trkpt>
      <trkpt lat="42.90968" lon="0.28247">
        <ele>1401</ele>
        <time>2017-02-09T10:56:12.062Z</time>
      </trkpt>
      <trkpt lat="42.90967" lon="0.28247">
        <ele>1401</ele>
        <time>2017-02-09T10:56:13.062Z</time>
      </trkpt>
      <trkpt lat="42.90967" lon="0.28246">
        <ele>1401</ele>
        <time>2017-02-09T10:56:14.062Z</time>
      </trkpt>
      <trkpt lat="42.90966" lon="0.28245">
        <ele>1401</ele>
        <time>2017-02-09T10:56:15.062Z</time>
      </trkpt>
      <trkpt lat="42.90965" lon="0.28244">
        <ele>1401</ele>
        <time>2017-02-09T10:56:16.062Z</time>
      </trkpt>
      <trkpt lat="42.90965" lon="0.28244">
        <ele>1401</ele>
        <time>2017-02-09T10:56:17.062Z</time>
      </trkpt>
      <trkpt lat="42.90964" lon="0.28243">
        <ele>1401</ele>
        <time>2017-02-09T10:56:18.062Z</time>
      </trkpt>
      <trkpt lat="42.90964" lon="0.28242">
        <ele>1402</ele>
        <time>2017-02-09T10:56:19.062Z</time>
      </trkpt>
      <trkpt lat="42.90963" lon="0.28242">
        <ele>1401</ele>
        <time>2017-02-09T10:56:20.062Z</time>
      </trkpt>
      <trkpt lat="42.90963" lon="0.28241">
        <ele>1401</ele>
        <time>2017-02-09T10:56:21.062Z</time>
      </trkpt>
      <trkpt lat="42.90962" lon="0.2824">
        <ele>1401</ele>
        <time>2017-02-09T10:56:22.062Z</time>
      </trkpt>
      <trkpt lat="42.90962" lon="0.28239">
        <ele>1401</ele>
        <time>2017-02-09T10:56:23.062Z</time>
      </trkpt>
      <trkpt lat="42.90961" lon="0.28239">
        <ele>1401</ele>
        <time>2017-02-09T10:56:24.062Z</time>
      </trkpt>
      <trkpt lat="42.9096" lon="0.28238">
        <ele>1402</ele>
        <time>2017-02-09T10:56:25.062Z</time>
      </trkpt>
      <trkpt lat="42.9096" lon="0.28238">
        <ele>1401</ele>
        <time>2017-02-09T10:56:26.062Z</time>
      </trkpt>
      <trkpt lat="42.90959" lon="0.28237">
        <ele>1402</ele>
        <time>2017-02-09T10:56:27.062Z</time>
      </trkpt>
      <trkpt lat="42.90959" lon="0.28237">
        <ele>1402</ele>
        <time>2017-02-09T10:56:28.062Z</time>
      </trkpt>
      <trkpt lat="42.90959" lon="0.28236">
        <ele>1402</ele>
        <time>2017-02-09T10:56:29.062Z</time>
      </trkpt>
      <trkpt lat="42.90958" lon="0.28236">
        <ele>1402</ele>
        <time>2017-02-09T10:56:30.062Z</time>
      </trkpt>
      <trkpt lat="42.90958" lon="0.28236">
        <ele>1402</ele>
        <time>2017-02-09T10:56:31.062Z</time>
      </trkpt>
      <trkpt lat="42.90958" lon="0.28236">
        <ele>1402</ele>
        <time>2017-02-09T10:56:32.062Z</time>
      </trkpt>
      <trkpt lat="42.90958" lon="0.28236">
        <ele>1403</ele>
        <time>2017-02-09T10:56:33.062Z</time>
      </trkpt>
      <trkpt lat="42.90958" lon="0.28236">
        <ele>1403</ele>
        <time>2017-02-09T10:56:34.062Z</time>
      </trkpt>
      <trkpt lat="42.90958" lon="0.28232">
        <ele>1402</ele>
        <time>2017-02-09T10:56:35.062Z</time>
      </trkpt>
      <trkpt lat="42.90958" lon="0.28231">
        <ele>1402</ele>
        <time>2017-02-09T10:56:36.062Z</time>
      </trkpt>
      <trkpt lat="42.90958" lon="0.2823">
        <ele>1402</ele>
        <time>2017-02-09T10:56:37.062Z</time>
      </trkpt>
      <trkpt lat="42.90958" lon="0.2823">
        <ele>1401</ele>
        <time>2017-02-09T10:56:38.062Z</time>
      </trkpt>
      <trkpt lat="42.90958" lon="0.28229">
        <ele>1401</ele>
        <time>2017-02-09T10:56:39.062Z</time>
      </trkpt>
      <trkpt lat="42.90958" lon="0.28227">
        <ele>1401</ele>
        <time>2017-02-09T10:56:40.062Z</time>
      </trkpt>
      <trkpt lat="42.90958" lon="0.28227">
        <ele>1401</ele>
        <time>2017-02-09T10:56:41.062Z</time>
      </trkpt>
      <trkpt lat="42.90957" lon="0.28226">
        <ele>1401</ele>
        <time>2017-02-09T10:56:42.062Z</time>
      </trkpt>
      <trkpt lat="42.90957" lon="0.28225">
        <ele>1401</ele>
        <time>2017-02-09T10:56:43.062Z</time>
      </trkpt>
      <trkpt lat="42.90957" lon="0.28224">
        <ele>1401</ele>
        <time>2017-02-09T10:56:44.062Z</time>
      </trkpt>
      <trkpt lat="42.90957" lon="0.28223">
        <ele>1401</ele>
        <time>2017-02-09T10:56:45.062Z</time>
      </trkpt>
      <trkpt lat="42.90956" lon="0.28222">
        <ele>1402</ele>
        <time>2017-02-09T10:56:46.062Z</time>
      </trkpt>
      <trkpt lat="42.90956" lon="0.28221">
        <ele>1402</ele>
        <time>2017-02-09T10:56:47.062Z</time>
      </trkpt>
      <trkpt lat="42.90956" lon="0.2822">
        <ele>1402</ele>
        <time>2017-02-09T10:56:48.062Z</time>
      </trkpt>
      <trkpt lat="42.90956" lon="0.28219">
        <ele>1402</ele>
        <time>2017-02-09T10:56:49.062Z</time>
      </trkpt>
      <trkpt lat="42.90955" lon="0.28218">
        <ele>1402</ele>
        <time>2017-02-09T10:56:50.062Z</time>
      </trkpt>
      <trkpt lat="42.90955" lon="0.28217">
        <ele>1402</ele>
        <time>2017-02-09T10:56:51.062Z</time>
      </trkpt>
      <trkpt lat="42.90955" lon="0.28216">
        <ele>1402</ele>
        <time>2017-02-09T10:56:52.062Z</time>
      </trkpt>
      <trkpt lat="42.90955" lon="0.28215">
        <ele>1403</ele>
        <time>2017-02-09T10:56:53.062Z</time>
      </trkpt>
      <trkpt lat="42.90955" lon="0.28215">
        <ele>1403</ele>
        <time>2017-02-09T10:56:54.062Z</time>
      </trkpt>
      <trkpt lat="42.90954" lon="0.28214">
        <ele>1403</ele>
        <time>2017-02-09T10:56:55.062Z</time>
      </trkpt>
      <trkpt lat="42.90954" lon="0.28213">
        <ele>1403</ele>
        <time>2017-02-09T10:56:56.062Z</time>
      </trkpt>
      <trkpt lat="42.90954" lon="0.28212">
        <ele>1403</ele>
        <time>2017-02-09T10:56:57.062Z</time>
      </trkpt>
      <trkpt lat="42.90954" lon="0.28211">
        <ele>1403</ele>
        <time>2017-02-09T10:56:58.062Z</time>
      </trkpt>
      <trkpt lat="42.90954" lon="0.2821">
        <ele>1403</ele>
        <time>2017-02-09T10:56:59.062Z</time>
      </trkpt>
      <trkpt lat="42.90954" lon="0.28209">
        <ele>1403</ele>
        <time>2017-02-09T10:57:00.062Z</time>
      </trkpt>
      <trkpt lat="42.90953" lon="0.28209">
        <ele>1403</ele>
        <time>2017-02-09T10:57:01.062Z</time>
      </trkpt>
      <trkpt lat="42.90953" lon="0.28208">
        <ele>1403</ele>
        <time>2017-02-09T10:57:02.062Z</time>
      </trkpt>
      <trkpt lat="42.90953" lon="0.28207">
        <ele>1403</ele>
        <time>2017-02-09T10:57:03.062Z</time>
      </trkpt>
      <trkpt lat="42.90953" lon="0.28206">
        <ele>1403</ele>
        <time>2017-02-09T10:57:04.062Z</time>
      </trkpt>
      <trkpt lat="42.90953" lon="0.28205">
        <ele>1403</ele>
        <time>2017-02-09T10:57:05.062Z</time>
      </trkpt>
      <trkpt lat="42.90953" lon="0.28204">
        <ele>1403</ele>
        <time>2017-02-09T10:57:06.062Z</time>
      </trkpt>
      <trkpt lat="42.90953" lon="0.28203">
        <ele>1403</ele>
        <time>2017-02-09T10:57:07.062Z</time>
      </trkpt>
      <trkpt lat="42.90952" lon="0.28203">
        <ele>1403</ele>
        <time>2017-02-09T10:57:08.062Z</time>
      </trkpt>
      <trkpt lat="42.90952" lon="0.28202">
        <ele>1403</ele>
        <time>2017-02-09T10:57:09.062Z</time>
      </trkpt>
      <trkpt lat="42.90952" lon="0.28201">
        <ele>1403</ele>
        <time>2017-02-09T10:57:10.062Z</time>
      </trkpt>
      <trkpt lat="42.90952" lon="0.282">
        <ele>1403</ele>
        <time>2017-02-09T10:57:11.062Z</time>
      </trkpt>
      <trkpt lat="42.90952" lon="0.28199">
        <ele>1403</ele>
        <time>2017-02-09T10:57:12.062Z</time>
      </trkpt>
      <trkpt lat="42.90951" lon="0.28199">
        <ele>1403</ele>
        <time>2017-02-09T10:57:13.062Z</time>
      </trkpt>
      <trkpt lat="42.90951" lon="0.28198">
        <ele>1403</ele>
        <time>2017-02-09T10:57:14.062Z</time>
      </trkpt>
      <trkpt lat="42.90951" lon="0.28197">
        <ele>1403</ele>
        <time>2017-02-09T10:57:15.062Z</time>
      </trkpt>
      <trkpt lat="42.90951" lon="0.28196">
        <ele>1403</ele>
        <time>2017-02-09T10:57:16.062Z</time>
      </trkpt>
      <trkpt lat="42.90951" lon="0.28195">
        <ele>1403</ele>
        <time>2017-02-09T10:57:17.062Z</time>
      </trkpt>
      <trkpt lat="42.90951" lon="0.28194">
        <ele>1404</ele>
        <time>2017-02-09T10:57:18.062Z</time>
      </trkpt>
      <trkpt lat="42.90951" lon="0.28193">
        <ele>1403</ele>
        <time>2017-02-09T10:57:19.062Z</time>
      </trkpt>
      <trkpt lat="42.90951" lon="0.28192">
        <ele>1404</ele>
        <time>2017-02-09T10:57:20.062Z</time>
      </trkpt>
      <trkpt lat="42.90951" lon="0.28191">
        <ele>1403</ele>
        <time>2017-02-09T10:57:21.062Z</time>
      </trkpt>
      <trkpt lat="42.90951" lon="0.2819">
        <ele>1404</ele>
        <time>2017-02-09T10:57:22.062Z</time>
      </trkpt>
      <trkpt lat="42.9095" lon="0.28189">
        <ele>1404</ele>
        <time>2017-02-09T10:57:23.062Z</time>
      </trkpt>
      <trkpt lat="42.9095" lon="0.28188">
        <ele>1404</ele>
        <time>2017-02-09T10:57:24.062Z</time>
      </trkpt>
      <trkpt lat="42.9095" lon="0.28188">
        <ele>1404</ele>
        <time>2017-02-09T10:57:25.062Z</time>
      </trkpt>
      <trkpt lat="42.9095" lon="0.28187">
        <ele>1404</ele>
        <time>2017-02-09T10:57:26.062Z</time>
      </trkpt>
      <trkpt lat="42.9095" lon="0.28186">
        <ele>1404</ele>
        <time>2017-02-09T10:57:27.062Z</time>
      </trkpt>
      <trkpt lat="42.9095" lon="0.28186">
        <ele>1404</ele>
        <time>2017-02-09T10:57:28.062Z</time>
      </trkpt>
      <trkpt lat="42.9095" lon="0.28185">
        <ele>1404</ele>
        <time>2017-02-09T10:57:29.062Z</time>
      </trkpt>
      <trkpt lat="42.9095" lon="0.28185">
        <ele>1404</ele>
        <time>2017-02-09T10:57:30.062Z</time>
      </trkpt>
      <trkpt lat="42.9095" lon="0.28185">
        <ele>1404</ele>
        <time>2017-02-09T10:57:31.062Z</time>
      </trkpt>
      <trkpt lat="42.9095" lon="0.28185">
        <ele>1404</ele>
        <time>2017-02-09T10:57:32.062Z</time>
      </trkpt>
      <trkpt lat="42.9095" lon="0.28185">
        <ele>1404</ele>
        <time>2017-02-09T10:57:33.062Z</time>
      </trkpt>
      <trkpt lat="42.9095" lon="0.28184">
        <ele>1404</ele>
        <time>2017-02-09T10:57:34.062Z</time>
      </trkpt>
      <trkpt lat="42.90949" lon="0.28184">
        <ele>1404</ele>
        <time>2017-02-09T10:57:35.062Z</time>
      </trkpt>
      <trkpt lat="42.90949" lon="0.28184">
        <ele>1404</ele>
        <time>2017-02-09T10:57:36.062Z</time>
      </trkpt>
      <trkpt lat="42.90948" lon="0.28182">
        <ele>1404</ele>
        <time>2017-02-09T10:57:37.062Z</time>
      </trkpt>
      <trkpt lat="42.90949" lon="0.28182">
        <ele>1404</ele>
        <time>2017-02-09T10:57:38.062Z</time>
      </trkpt>
      <trkpt lat="42.90949" lon="0.28182">
        <ele>1404</ele>
        <time>2017-02-09T10:57:39.062Z</time>
      </trkpt>
      <trkpt lat="42.90949" lon="0.28182">
        <ele>1404</ele>
        <time>2017-02-09T10:57:40.062Z</time>
      </trkpt>
      <trkpt lat="42.90949" lon="0.28182">
        <ele>1404</ele>
        <time>2017-02-09T10:57:41.062Z</time>
      </trkpt>
      <trkpt lat="42.90948" lon="0.28183">
        <ele>1404</ele>
        <time>2017-02-09T10:57:42.074Z</time>
      </trkpt>
      <trkpt lat="42.90948" lon="0.28183">
        <ele>1404</ele>
        <time>2017-02-09T10:57:43.074Z</time>
      </trkpt>
      <trkpt lat="42.90948" lon="0.28183">
        <ele>1404</ele>
        <time>2017-02-09T10:57:44.074Z</time>
      </trkpt>
      <trkpt lat="42.90948" lon="0.28183">
        <ele>1404</ele>
        <time>2017-02-09T10:57:45.074Z</time>
      </trkpt>
      <trkpt lat="42.90948" lon="0.28183">
        <ele>1404</ele>
        <time>2017-02-09T10:57:46.074Z</time>
      </trkpt>
      <trkpt lat="42.90948" lon="0.28183">
        <ele>1404</ele>
        <time>2017-02-09T10:57:47.074Z</time>
      </trkpt>
      <trkpt lat="42.90948" lon="0.28182">
        <ele>1403</ele>
        <time>2017-02-09T10:57:48.086Z</time>
      </trkpt>
      <trkpt lat="42.90948" lon="0.28182">
        <ele>1403</ele>
        <time>2017-02-09T10:57:49.086Z</time>
      </trkpt>
      <trkpt lat="42.90948" lon="0.28182">
        <ele>1403</ele>
        <time>2017-02-09T10:57:50.086Z</time>
      </trkpt>
      <trkpt lat="42.90948" lon="0.28182">
        <ele>1403</ele>
        <time>2017-02-09T10:57:51.086Z</time>
      </trkpt>
      <trkpt lat="42.90948" lon="0.28182">
        <ele>1403</ele>
        <time>2017-02-09T10:57:52.086Z</time>
      </trkpt>
      <trkpt lat="42.90948" lon="0.28182">
        <ele>1403</ele>
        <time>2017-02-09T10:57:53.098Z</time>
      </trkpt>
      <trkpt lat="42.90949" lon="0.28182">
        <ele>1403</ele>
        <time>2017-02-09T10:57:54.098Z</time>
      </trkpt>
      <trkpt lat="42.90949" lon="0.28182">
        <ele>1402</ele>
        <time>2017-02-09T10:57:55.098Z</time>
      </trkpt>
      <trkpt lat="42.90949" lon="0.28181">
        <ele>1403</ele>
        <time>2017-02-09T10:57:56.098Z</time>
      </trkpt>
      <trkpt lat="42.90949" lon="0.28181">
        <ele>1403</ele>
        <time>2017-02-09T10:57:57.098Z</time>
      </trkpt>
      <trkpt lat="42.90949" lon="0.28181">
        <ele>1403</ele>
        <time>2017-02-09T10:57:58.098Z</time>
      </trkpt>
      <trkpt lat="42.90948" lon="0.28181">
        <ele>1405</ele>
        <time>2017-02-09T10:57:59.110Z</time>
      </trkpt>
      <trkpt lat="42.90948" lon="0.28181">
        <ele>1405</ele>
        <time>2017-02-09T10:58:00.110Z</time>
      </trkpt>
      <trkpt lat="42.90948" lon="0.28182">
        <ele>1405</ele>
        <time>2017-02-09T10:58:01.110Z</time>
      </trkpt>
      <trkpt lat="42.90948" lon="0.28182">
        <ele>1405</ele>
        <time>2017-02-09T10:58:02.110Z</time>
      </trkpt>
      <trkpt lat="42.90948" lon="0.28182">
        <ele>1405</ele>
        <time>2017-02-09T10:58:03.110Z</time>
      </trkpt>
      <trkpt lat="42.90948" lon="0.28181">
        <ele>1405</ele>
        <time>2017-02-09T10:58:04.110Z</time>
      </trkpt>
      <trkpt lat="42.90948" lon="0.28181">
        <ele>1405</ele>
        <time>2017-02-09T10:58:05.110Z</time>
      </trkpt>
      <trkpt lat="42.90947" lon="0.28182">
        <ele>1404</ele>
        <time>2017-02-09T10:58:06.118Z</time>
      </trkpt>
      <trkpt lat="42.90947" lon="0.28181">
        <ele>1403</ele>
        <time>2017-02-09T10:58:07.118Z</time>
      </trkpt>
      <trkpt lat="42.90947" lon="0.28181">
        <ele>1403</ele>
        <time>2017-02-09T10:58:08.118Z</time>
      </trkpt>
      <trkpt lat="42.90947" lon="0.28181">
        <ele>1403</ele>
        <time>2017-02-09T10:58:09.118Z</time>
      </trkpt>
      <trkpt lat="42.90947" lon="0.28181">
        <ele>1402</ele>
        <time>2017-02-09T10:58:10.118Z</time>
      </trkpt>
      <trkpt lat="42.90947" lon="0.28181">
        <ele>1403</ele>
        <time>2017-02-09T10:58:11.118Z</time>
      </trkpt>
      <trkpt lat="42.90948" lon="0.28182">
        <ele>1404</ele>
        <time>2017-02-09T10:58:12.001Z</time>
      </trkpt>
      <trkpt lat="42.90948" lon="0.28182">
        <ele>1404</ele>
        <time>2017-02-09T10:58:13.001Z</time>
      </trkpt>
      <trkpt lat="42.90948" lon="0.28182">
        <ele>1404</ele>
        <time>2017-02-09T10:58:14.001Z</time>
      </trkpt>
      <trkpt lat="42.90948" lon="0.28182">
        <ele>1404</ele>
        <time>2017-02-09T10:58:15.001Z</time>
      </trkpt>
      <trkpt lat="42.90948" lon="0.28182">
        <ele>1405</ele>
        <time>2017-02-09T10:58:16.001Z</time>
      </trkpt>
      <trkpt lat="42.90948" lon="0.28182">
        <ele>1404</ele>
        <time>2017-02-09T10:58:17.001Z</time>
      </trkpt>
      <trkpt lat="42.90949" lon="0.28181">
        <ele>1405</ele>
        <time>2017-02-09T10:58:18.005Z</time>
      </trkpt>
      <trkpt lat="42.90949" lon="0.28182">
        <ele>1405</ele>
        <time>2017-02-09T10:58:19.005Z</time>
      </trkpt>
      <trkpt lat="42.90949" lon="0.28181">
        <ele>1405</ele>
        <time>2017-02-09T10:58:20.005Z</time>
      </trkpt>
      <trkpt lat="42.90949" lon="0.28181">
        <ele>1405</ele>
        <time>2017-02-09T10:58:21.005Z</time>
      </trkpt>
      <trkpt lat="42.90949" lon="0.28181">
        <ele>1406</ele>
        <time>2017-02-09T10:58:22.005Z</time>
      </trkpt>
      <trkpt lat="42.90949" lon="0.28181">
        <ele>1406</ele>
        <time>2017-02-09T10:58:23.005Z</time>
      </trkpt>
      <trkpt lat="42.90948" lon="0.28182">
        <ele>1404</ele>
        <time>2017-02-09T10:58:24.020Z</time>
      </trkpt>
      <trkpt lat="42.90948" lon="0.28182">
        <ele>1404</ele>
        <time>2017-02-09T10:58:25.020Z</time>
      </trkpt>
      <trkpt lat="42.90948" lon="0.28182">
        <ele>1404</ele>
        <time>2017-02-09T10:58:26.020Z</time>
      </trkpt>
      <trkpt lat="42.90948" lon="0.28182">
        <ele>1404</ele>
        <time>2017-02-09T10:58:27.020Z</time>
      </trkpt>
      <trkpt lat="42.90948" lon="0.28182">
        <ele>1404</ele>
        <time>2017-02-09T10:58:28.020Z</time>
      </trkpt>
      <trkpt lat="42.90948" lon="0.28182">
        <ele>1404</ele>
        <time>2017-02-09T10:58:29.020Z</time>
      </trkpt>
      <trkpt lat="42.90948" lon="0.28182">
        <ele>1404</ele>
        <time>2017-02-09T10:58:30.020Z</time>
      </trkpt>
      <trkpt lat="42.90948" lon="0.28182">
        <ele>1404</ele>
        <time>2017-02-09T10:58:31.020Z</time>
      </trkpt>
      <trkpt lat="42.90948" lon="0.28183">
        <ele>1406</ele>
        <time>2017-02-09T10:58:32.024Z</time>
      </trkpt>
      <trkpt lat="42.90948" lon="0.28183">
        <ele>1406</ele>
        <time>2017-02-09T10:58:33.024Z</time>
      </trkpt>
      <trkpt lat="42.90948" lon="0.28183">
        <ele>1406</ele>
        <time>2017-02-09T10:58:34.024Z</time>
      </trkpt>
      <trkpt lat="42.90948" lon="0.28183">
        <ele>1406</ele>
        <time>2017-02-09T10:58:35.024Z</time>
      </trkpt>
      <trkpt lat="42.90948" lon="0.28183">
        <ele>1406</ele>
        <time>2017-02-09T10:58:36.024Z</time>
      </trkpt>
      <trkpt lat="42.90948" lon="0.28183">
        <ele>1406</ele>
        <time>2017-02-09T10:58:37.024Z</time>
      </trkpt>
      <trkpt lat="42.90948" lon="0.28183">
        <ele>1406</ele>
        <time>2017-02-09T10:58:38.024Z</time>
      </trkpt>
      <trkpt lat="42.90947" lon="0.28183">
        <ele>1405</ele>
        <time>2017-02-09T10:58:39.032Z</time>
      </trkpt>
      <trkpt lat="42.90947" lon="0.28183">
        <ele>1405</ele>
        <time>2017-02-09T10:58:40.032Z</time>
      </trkpt>
      <trkpt lat="42.90947" lon="0.28183">
        <ele>1405</ele>
        <time>2017-02-09T10:58:41.032Z</time>
      </trkpt>
      <trkpt lat="42.90947" lon="0.28184">
        <ele>1405</ele>
        <time>2017-02-09T10:58:42.032Z</time>
      </trkpt>
      <trkpt lat="42.90947" lon="0.28184">
        <ele>1405</ele>
        <time>2017-02-09T10:58:43.032Z</time>
      </trkpt>
      <trkpt lat="42.90947" lon="0.28184">
        <ele>1406</ele>
        <time>2017-02-09T10:58:44.032Z</time>
      </trkpt>
      <trkpt lat="42.90947" lon="0.28184">
        <ele>1406</ele>
        <time>2017-02-09T10:58:45.032Z</time>
      </trkpt>
      <trkpt lat="42.90947" lon="0.28184">
        <ele>1405</ele>
        <time>2017-02-09T10:58:46.032Z</time>
      </trkpt>
      <trkpt lat="42.90947" lon="0.28183">
        <ele>1405</ele>
        <time>2017-02-09T10:58:47.044Z</time>
      </trkpt>
      <trkpt lat="42.90947" lon="0.28183">
        <ele>1405</ele>
        <time>2017-02-09T10:58:48.044Z</time>
      </trkpt>
      <trkpt lat="42.90947" lon="0.28183">
        <ele>1405</ele>
        <time>2017-02-09T10:58:49.044Z</time>
      </trkpt>
      <trkpt lat="42.90947" lon="0.28183">
        <ele>1405</ele>
        <time>2017-02-09T10:58:50.044Z</time>
      </trkpt>
      <trkpt lat="42.90947" lon="0.28183">
        <ele>1405</ele>
        <time>2017-02-09T10:58:51.044Z</time>
      </trkpt>
      <trkpt lat="42.90947" lon="0.28183">
        <ele>1406</ele>
        <time>2017-02-09T10:58:52.044Z</time>
      </trkpt>
      <trkpt lat="42.90947" lon="0.28183">
        <ele>1406</ele>
        <time>2017-02-09T10:58:53.044Z</time>
      </trkpt>
      <trkpt lat="42.90947" lon="0.28183">
        <ele>1405</ele>
        <time>2017-02-09T10:58:54.044Z</time>
      </trkpt>
      <trkpt lat="42.90947" lon="0.28182">
        <ele>1405</ele>
        <time>2017-02-09T10:58:55.044Z</time>
      </trkpt>
      <trkpt lat="42.90948" lon="0.28183">
        <ele>1404</ele>
        <time>2017-02-09T10:58:56.048Z</time>
      </trkpt>
      <trkpt lat="42.90948" lon="0.28183">
        <ele>1404</ele>
        <time>2017-02-09T10:58:57.048Z</time>
      </trkpt>
      <trkpt lat="42.90948" lon="0.28183">
        <ele>1405</ele>
        <time>2017-02-09T10:58:58.048Z</time>
      </trkpt>
      <trkpt lat="42.90948" lon="0.28183">
        <ele>1406</ele>
        <time>2017-02-09T10:58:59.048Z</time>
      </trkpt>
      <trkpt lat="42.90948" lon="0.28183">
        <ele>1406</ele>
        <time>2017-02-09T10:59:00.048Z</time>
      </trkpt>
      <trkpt lat="42.90948" lon="0.28183">
        <ele>1406</ele>
        <time>2017-02-09T10:59:01.048Z</time>
      </trkpt>
      <trkpt lat="42.90948" lon="0.28183">
        <ele>1406</ele>
        <time>2017-02-09T10:59:02.048Z</time>
      </trkpt>
      <trkpt lat="42.90947" lon="0.28183">
        <ele>1404</ele>
        <time>2017-02-09T10:59:03.052Z</time>
      </trkpt>
      <trkpt lat="42.90947" lon="0.28183">
        <ele>1404</ele>
        <time>2017-02-09T10:59:04.052Z</time>
      </trkpt>
      <trkpt lat="42.90946" lon="0.28183">
        <ele>1404</ele>
        <time>2017-02-09T10:59:05.052Z</time>
      </trkpt>
      <trkpt lat="42.90946" lon="0.28183">
        <ele>1404</ele>
        <time>2017-02-09T10:59:06.052Z</time>
      </trkpt>
      <trkpt lat="42.90947" lon="0.28182">
        <ele>1404</ele>
        <time>2017-02-09T10:59:07.052Z</time>
      </trkpt>
      <trkpt lat="42.90947" lon="0.28182">
        <ele>1404</ele>
        <time>2017-02-09T10:59:08.052Z</time>
      </trkpt>
      <trkpt lat="42.90947" lon="0.28182">
        <ele>1404</ele>
        <time>2017-02-09T10:59:09.052Z</time>
      </trkpt>
      <trkpt lat="42.90947" lon="0.28182">
        <ele>1404</ele>
        <time>2017-02-09T10:59:10.052Z</time>
      </trkpt>
      <trkpt lat="42.90946" lon="0.28184">
        <ele>1406</ele>
        <time>2017-02-09T10:59:11.056Z</time>
      </trkpt>
      <trkpt lat="42.90946" lon="0.28184">
        <ele>1405</ele>
        <time>2017-02-09T10:59:12.056Z</time>
      </trkpt>
      <trkpt lat="42.90946" lon="0.28184">
        <ele>1405</ele>
        <time>2017-02-09T10:59:13.056Z</time>
      </trkpt>
      <trkpt lat="42.90946" lon="0.28184">
        <ele>1405</ele>
        <time>2017-02-09T10:59:14.056Z</time>
      </trkpt>
      <trkpt lat="42.90946" lon="0.28184">
        <ele>1405</ele>
        <time>2017-02-09T10:59:15.056Z</time>
      </trkpt>
      <trkpt lat="42.90947" lon="0.28182">
        <ele>1406</ele>
        <time>2017-02-09T10:59:16.068Z</time>
      </trkpt>
      <trkpt lat="42.90947" lon="0.28182">
        <ele>1406</ele>
        <time>2017-02-09T10:59:17.068Z</time>
      </trkpt>
      <trkpt lat="42.90947" lon="0.28182">
        <ele>1406</ele>
        <time>2017-02-09T10:59:18.068Z</time>
      </trkpt>
      <trkpt lat="42.90947" lon="0.28183">
        <ele>1406</ele>
        <time>2017-02-09T10:59:19.068Z</time>
      </trkpt>
      <trkpt lat="42.90947" lon="0.28183">
        <ele>1406</ele>
        <time>2017-02-09T10:59:20.068Z</time>
      </trkpt>
      <trkpt lat="42.90947" lon="0.28183">
        <ele>1406</ele>
        <time>2017-02-09T10:59:21.068Z</time>
      </trkpt>
      <trkpt lat="42.90947" lon="0.28183">
        <ele>1406</ele>
        <time>2017-02-09T10:59:22.068Z</time>
      </trkpt>
      <trkpt lat="42.90947" lon="0.28183">
        <ele>1406</ele>
        <time>2017-02-09T10:59:23.068Z</time>
      </trkpt>
      <trkpt lat="42.90947" lon="0.28183">
        <ele>1406</ele>
        <time>2017-02-09T10:59:24.068Z</time>
      </trkpt>
      <trkpt lat="42.90947" lon="0.28183">
        <ele>1406</ele>
        <time>2017-02-09T10:59:25.080Z</time>
      </trkpt>
      <trkpt lat="42.90947" lon="0.28183">
        <ele>1406</ele>
        <time>2017-02-09T10:59:26.080Z</time>
      </trkpt>
      <trkpt lat="42.90947" lon="0.28183">
        <ele>1406</ele>
        <time>2017-02-09T10:59:27.080Z</time>
      </trkpt>
      <trkpt lat="42.90947" lon="0.28183">
        <ele>1406</ele>
        <time>2017-02-09T10:59:28.080Z</time>
      </trkpt>
      <trkpt lat="42.90947" lon="0.28183">
        <ele>1406</ele>
        <time>2017-02-09T10:59:29.080Z</time>
      </trkpt>
      <trkpt lat="42.90947" lon="0.28183">
        <ele>1406</ele>
        <time>2017-02-09T10:59:30.080Z</time>
      </trkpt>
      <trkpt lat="42.90946" lon="0.28184">
        <ele>1406</ele>
        <time>2017-02-09T10:59:31.092Z</time>
      </trkpt>
      <trkpt lat="42.90946" lon="0.28184">
        <ele>1406</ele>
        <time>2017-02-09T10:59:32.092Z</time>
      </trkpt>
      <trkpt lat="42.90946" lon="0.28184">
        <ele>1406</ele>
        <time>2017-02-09T10:59:33.092Z</time>
      </trkpt>
      <trkpt lat="42.90946" lon="0.28184">
        <ele>1406</ele>
        <time>2017-02-09T10:59:34.092Z</time>
      </trkpt>
      <trkpt lat="42.90946" lon="0.28184">
        <ele>1406</ele>
        <time>2017-02-09T10:59:35.092Z</time>
      </trkpt>
      <trkpt lat="42.90947" lon="0.28184">
        <ele>1406</ele>
        <time>2017-02-09T10:59:36.092Z</time>
      </trkpt>
      <trkpt lat="42.90947" lon="0.28183">
        <ele>1407</ele>
        <time>2017-02-09T10:59:37.104Z</time>
      </trkpt>
      <trkpt lat="42.90947" lon="0.28183">
        <ele>1407</ele>
        <time>2017-02-09T10:59:38.104Z</time>
      </trkpt>
      <trkpt lat="42.90946" lon="0.28183">
        <ele>1407</ele>
        <time>2017-02-09T10:59:39.104Z</time>
      </trkpt>
      <trkpt lat="42.90946" lon="0.28183">
        <ele>1407</ele>
        <time>2017-02-09T10:59:40.104Z</time>
      </trkpt>
      <trkpt lat="42.90946" lon="0.28183">
        <ele>1407</ele>
        <time>2017-02-09T10:59:41.104Z</time>
      </trkpt>
      <trkpt lat="42.90946" lon="0.28183">
        <ele>1407</ele>
        <time>2017-02-09T10:59:42.104Z</time>
      </trkpt>
      <trkpt lat="42.90946" lon="0.28184">
        <ele>1407</ele>
        <time>2017-02-09T10:59:43.104Z</time>
      </trkpt>
      <trkpt lat="42.90945" lon="0.28184">
        <ele>1407</ele>
        <time>2017-02-09T10:59:44.116Z</time>
      </trkpt>
      <trkpt lat="42.90945" lon="0.28184">
        <ele>1407</ele>
        <time>2017-02-09T10:59:45.116Z</time>
      </trkpt>
      <trkpt lat="42.90945" lon="0.28184">
        <ele>1407</ele>
        <time>2017-02-09T10:59:46.116Z</time>
      </trkpt>
      <trkpt lat="42.90944" lon="0.28184">
        <ele>1407</ele>
        <time>2017-02-09T10:59:47.116Z</time>
      </trkpt>
      <trkpt lat="42.90944" lon="0.28185">
        <ele>1407</ele>
        <time>2017-02-09T10:59:48.116Z</time>
      </trkpt>
      <trkpt lat="42.90944" lon="0.28183">
        <ele>1407</ele>
        <time>2017-02-09T10:59:49.003Z</time>
      </trkpt>
      <trkpt lat="42.90944" lon="0.28183">
        <ele>1407</ele>
        <time>2017-02-09T10:59:50.003Z</time>
      </trkpt>
      <trkpt lat="42.90944" lon="0.28183">
        <ele>1407</ele>
        <time>2017-02-09T10:59:51.003Z</time>
      </trkpt>
      <trkpt lat="42.90944" lon="0.28183">
        <ele>1407</ele>
        <time>2017-02-09T10:59:52.003Z</time>
      </trkpt>
      <trkpt lat="42.90944" lon="0.28183">
        <ele>1407</ele>
        <time>2017-02-09T10:59:53.003Z</time>
      </trkpt>
      <trkpt lat="42.90947" lon="0.28183">
        <ele>1405</ele>
        <time>2017-02-09T10:59:54.011Z</time>
      </trkpt>
      <trkpt lat="42.90947" lon="0.28183">
        <ele>1405</ele>
        <time>2017-02-09T10:59:55.011Z</time>
      </trkpt>
      <trkpt lat="42.90947" lon="0.28182">
        <ele>1405</ele>
        <time>2017-02-09T10:59:56.011Z</time>
      </trkpt>
      <trkpt lat="42.90947" lon="0.28182">
        <ele>1405</ele>
        <time>2017-02-09T10:59:57.011Z</time>
      </trkpt>
      <trkpt lat="42.90947" lon="0.28182">
        <ele>1405</ele>
        <time>2017-02-09T10:59:58.011Z</time>
      </trkpt>
      <trkpt lat="42.90947" lon="0.28182">
        <ele>1405</ele>
        <time>2017-02-09T10:59:59.011Z</time>
      </trkpt>
      <trkpt lat="42.90947" lon="0.28182">
        <ele>1405</ele>
        <time>2017-02-09T11:00:00.011Z</time>
      </trkpt>
      <trkpt lat="42.90947" lon="0.28183">
        <ele>1406</ele>
        <time>2017-02-09T11:00:01.019Z</time>
      </trkpt>
      <trkpt lat="42.90947" lon="0.28183">
        <ele>1406</ele>
        <time>2017-02-09T11:00:02.019Z</time>
      </trkpt>
      <trkpt lat="42.90947" lon="0.28183">
        <ele>1406</ele>
        <time>2017-02-09T11:00:03.019Z</time>
      </trkpt>
      <trkpt lat="42.90947" lon="0.28183">
        <ele>1406</ele>
        <time>2017-02-09T11:00:04.019Z</time>
      </trkpt>
      <trkpt lat="42.90947" lon="0.28183">
        <ele>1406</ele>
        <time>2017-02-09T11:00:05.019Z</time>
      </trkpt>
      <trkpt lat="42.90947" lon="0.28183">
        <ele>1405</ele>
        <time>2017-02-09T11:00:06.019Z</time>
      </trkpt>
      <trkpt lat="42.90948" lon="0.28184">
        <ele>1405</ele>
        <time>2017-02-09T11:00:07.031Z</time>
      </trkpt>
      <trkpt lat="42.90948" lon="0.28184">
        <ele>1405</ele>
        <time>2017-02-09T11:00:08.031Z</time>
      </trkpt>
      <trkpt lat="42.90948" lon="0.28183">
        <ele>1405</ele>
        <time>2017-02-09T11:00:09.031Z</time>
      </trkpt>
      <trkpt lat="42.90948" lon="0.28183">
        <ele>1405</ele>
        <time>2017-02-09T11:00:10.031Z</time>
      </trkpt>
      <trkpt lat="42.90948" lon="0.28183">
        <ele>1405</ele>
        <time>2017-02-09T11:00:11.031Z</time>
      </trkpt>
      <trkpt lat="42.90948" lon="0.28183">
        <ele>1405</ele>
        <time>2017-02-09T11:00:12.031Z</time>
      </trkpt>
      <trkpt lat="42.90949" lon="0.28185">
        <ele>1407</ele>
        <time>2017-02-09T11:00:13.039Z</time>
      </trkpt>
      <trkpt lat="42.90949" lon="0.28186">
        <ele>1407</ele>
        <time>2017-02-09T11:00:14.039Z</time>
      </trkpt>
      <trkpt lat="42.9095" lon="0.28187">
        <ele>1407</ele>
        <time>2017-02-09T11:00:15.039Z</time>
      </trkpt>
      <trkpt lat="42.9095" lon="0.28188">
        <ele>1407</ele>
        <time>2017-02-09T11:00:16.039Z</time>
      </trkpt>
      <trkpt lat="42.9095" lon="0.28189">
        <ele>1407</ele>
        <time>2017-02-09T11:00:17.039Z</time>
      </trkpt>
      <trkpt lat="42.9095" lon="0.2819">
        <ele>1407</ele>
        <time>2017-02-09T11:00:18.039Z</time>
      </trkpt>
      <trkpt lat="42.9095" lon="0.28191">
        <ele>1407</ele>
        <time>2017-02-09T11:00:19.039Z</time>
      </trkpt>
      <trkpt lat="42.9095" lon="0.28192">
        <ele>1406</ele>
        <time>2017-02-09T11:00:20.039Z</time>
      </trkpt>
      <trkpt lat="42.90951" lon="0.28193">
        <ele>1406</ele>
        <time>2017-02-09T11:00:21.039Z</time>
      </trkpt>
      <trkpt lat="42.90951" lon="0.28194">
        <ele>1406</ele>
        <time>2017-02-09T11:00:22.039Z</time>
      </trkpt>
      <trkpt lat="42.90951" lon="0.28195">
        <ele>1406</ele>
        <time>2017-02-09T11:00:23.039Z</time>
      </trkpt>
      <trkpt lat="42.90951" lon="0.28196">
        <ele>1407</ele>
        <time>2017-02-09T11:00:24.039Z</time>
      </trkpt>
      <trkpt lat="42.90951" lon="0.28197">
        <ele>1406</ele>
        <time>2017-02-09T11:00:25.039Z</time>
      </trkpt>
      <trkpt lat="42.90951" lon="0.28199">
        <ele>1406</ele>
        <time>2017-02-09T11:00:26.039Z</time>
      </trkpt>
      <trkpt lat="42.90952" lon="0.282">
        <ele>1406</ele>
        <time>2017-02-09T11:00:27.039Z</time>
      </trkpt>
      <trkpt lat="42.90952" lon="0.28201">
        <ele>1406</ele>
        <time>2017-02-09T11:00:28.039Z</time>
      </trkpt>
      <trkpt lat="42.90952" lon="0.28202">
        <ele>1406</ele>
        <time>2017-02-09T11:00:29.039Z</time>
      </trkpt>
      <trkpt lat="42.90953" lon="0.28203">
        <ele>1406</ele>
        <time>2017-02-09T11:00:30.039Z</time>
      </trkpt>
      <trkpt lat="42.90953" lon="0.28204">
        <ele>1406</ele>
        <time>2017-02-09T11:00:31.039Z</time>
      </trkpt>
      <trkpt lat="42.90953" lon="0.28205">
        <ele>1406</ele>
        <time>2017-02-09T11:00:32.039Z</time>
      </trkpt>
      <trkpt lat="42.90953" lon="0.28206">
        <ele>1405</ele>
        <time>2017-02-09T11:00:33.039Z</time>
      </trkpt>
      <trkpt lat="42.90953" lon="0.28207">
        <ele>1405</ele>
        <time>2017-02-09T11:00:34.039Z</time>
      </trkpt>
      <trkpt lat="42.90953" lon="0.28208">
        <ele>1405</ele>
        <time>2017-02-09T11:00:35.039Z</time>
      </trkpt>
      <trkpt lat="42.90953" lon="0.28209">
        <ele>1405</ele>
        <time>2017-02-09T11:00:36.039Z</time>
      </trkpt>
      <trkpt lat="42.90954" lon="0.2821">
        <ele>1405</ele>
        <time>2017-02-09T11:00:37.039Z</time>
      </trkpt>
      <trkpt lat="42.90954" lon="0.28211">
        <ele>1405</ele>
        <time>2017-02-09T11:00:38.039Z</time>
      </trkpt>
      <trkpt lat="42.90954" lon="0.28212">
        <ele>1405</ele>
        <time>2017-02-09T11:00:39.039Z</time>
      </trkpt>
      <trkpt lat="42.90954" lon="0.28213">
        <ele>1405</ele>
        <time>2017-02-09T11:00:40.039Z</time>
      </trkpt>
      <trkpt lat="42.90955" lon="0.28215">
        <ele>1405</ele>
        <time>2017-02-09T11:00:41.039Z</time>
      </trkpt>
      <trkpt lat="42.90955" lon="0.28216">
        <ele>1405</ele>
        <time>2017-02-09T11:00:42.039Z</time>
      </trkpt>
      <trkpt lat="42.90955" lon="0.28217">
        <ele>1405</ele>
        <time>2017-02-09T11:00:43.039Z</time>
      </trkpt>
      <trkpt lat="42.90956" lon="0.28218">
        <ele>1405</ele>
        <time>2017-02-09T11:00:44.039Z</time>
      </trkpt>
      <trkpt lat="42.90956" lon="0.28219">
        <ele>1405</ele>
        <time>2017-02-09T11:00:45.039Z</time>
      </trkpt>
      <trkpt lat="42.90956" lon="0.2822">
        <ele>1405</ele>
        <time>2017-02-09T11:00:46.039Z</time>
      </trkpt>
      <trkpt lat="42.90957" lon="0.28221">
        <ele>1405</ele>
        <time>2017-02-09T11:00:47.039Z</time>
      </trkpt>
      <trkpt lat="42.90957" lon="0.28222">
        <ele>1405</ele>
        <time>2017-02-09T11:00:48.039Z</time>
      </trkpt>
      <trkpt lat="42.90957" lon="0.28224">
        <ele>1405</ele>
        <time>2017-02-09T11:00:49.039Z</time>
      </trkpt>
      <trkpt lat="42.90957" lon="0.28225">
        <ele>1405</ele>
        <time>2017-02-09T11:00:50.039Z</time>
      </trkpt>
      <trkpt lat="42.90958" lon="0.28226">
        <ele>1405</ele>
        <time>2017-02-09T11:00:51.039Z</time>
      </trkpt>
      <trkpt lat="42.90958" lon="0.28227">
        <ele>1405</ele>
        <time>2017-02-09T11:00:52.039Z</time>
      </trkpt>
      <trkpt lat="42.90958" lon="0.28228">
        <ele>1405</ele>
        <time>2017-02-09T11:00:53.039Z</time>
      </trkpt>
      <trkpt lat="42.90958" lon="0.28229">
        <ele>1405</ele>
        <time>2017-02-09T11:00:54.039Z</time>
      </trkpt>
      <trkpt lat="42.90958" lon="0.2823">
        <ele>1405</ele>
        <time>2017-02-09T11:00:55.039Z</time>
      </trkpt>
      <trkpt lat="42.90959" lon="0.28231">
        <ele>1405</ele>
        <time>2017-02-09T11:00:56.039Z</time>
      </trkpt>
      <trkpt lat="42.90959" lon="0.28232">
        <ele>1405</ele>
        <time>2017-02-09T11:00:57.039Z</time>
      </trkpt>
      <trkpt lat="42.90959" lon="0.28233">
        <ele>1405</ele>
        <time>2017-02-09T11:00:58.039Z</time>
      </trkpt>
      <trkpt lat="42.90959" lon="0.28234">
        <ele>1405</ele>
        <time>2017-02-09T11:00:59.039Z</time>
      </trkpt>
      <trkpt lat="42.90959" lon="0.28235">
        <ele>1405</ele>
        <time>2017-02-09T11:01:00.039Z</time>
      </trkpt>
      <trkpt lat="42.9096" lon="0.28236">
        <ele>1404</ele>
        <time>2017-02-09T11:01:01.039Z</time>
      </trkpt>
      <trkpt lat="42.90961" lon="0.28237">
        <ele>1404</ele>
        <time>2017-02-09T11:01:02.039Z</time>
      </trkpt>
      <trkpt lat="42.90961" lon="0.28237">
        <ele>1404</ele>
        <time>2017-02-09T11:01:03.039Z</time>
      </trkpt>
      <trkpt lat="42.90962" lon="0.28238">
        <ele>1404</ele>
        <time>2017-02-09T11:01:04.039Z</time>
      </trkpt>
      <trkpt lat="42.90963" lon="0.28239">
        <ele>1404</ele>
        <time>2017-02-09T11:01:05.039Z</time>
      </trkpt>
      <trkpt lat="42.90963" lon="0.2824">
        <ele>1404</ele>
        <time>2017-02-09T11:01:06.039Z</time>
      </trkpt>
      <trkpt lat="42.90964" lon="0.28241">
        <ele>1404</ele>
        <time>2017-02-09T11:01:07.039Z</time>
      </trkpt>
      <trkpt lat="42.90965" lon="0.28242">
        <ele>1404</ele>
        <time>2017-02-09T11:01:08.039Z</time>
      </trkpt>
      <trkpt lat="42.90965" lon="0.28243">
        <ele>1403</ele>
        <time>2017-02-09T11:01:09.039Z</time>
      </trkpt>
      <trkpt lat="42.90966" lon="0.28244">
        <ele>1403</ele>
        <time>2017-02-09T11:01:10.039Z</time>
      </trkpt>
      <trkpt lat="42.90967" lon="0.28244">
        <ele>1403</ele>
        <time>2017-02-09T11:01:11.039Z</time>
      </trkpt>
      <trkpt lat="42.90967" lon="0.28245">
        <ele>1403</ele>
        <time>2017-02-09T11:01:12.039Z</time>
      </trkpt>
      <trkpt lat="42.90968" lon="0.28246">
        <ele>1403</ele>
        <time>2017-02-09T11:01:13.039Z</time>
      </trkpt>
      <trkpt lat="42.90969" lon="0.28247">
        <ele>1403</ele>
        <time>2017-02-09T11:01:14.039Z</time>
      </trkpt>
      <trkpt lat="42.90969" lon="0.28248">
        <ele>1403</ele>
        <time>2017-02-09T11:01:15.039Z</time>
      </trkpt>
      <trkpt lat="42.9097" lon="0.28249">
        <ele>1402</ele>
        <time>2017-02-09T11:01:16.039Z</time>
      </trkpt>
      <trkpt lat="42.9097" lon="0.2825">
        <ele>1402</ele>
        <time>2017-02-09T11:01:17.039Z</time>
      </trkpt>
      <trkpt lat="42.90971" lon="0.28251">
        <ele>1402</ele>
        <time>2017-02-09T11:01:18.039Z</time>
      </trkpt>
      <trkpt lat="42.90972" lon="0.28252">
        <ele>1402</ele>
        <time>2017-02-09T11:01:19.039Z</time>
      </trkpt>
      <trkpt lat="42.90972" lon="0.28252">
        <ele>1402</ele>
        <time>2017-02-09T11:01:20.039Z</time>
      </trkpt>
      <trkpt lat="42.90973" lon="0.28253">
        <ele>1402</ele>
        <time>2017-02-09T11:01:21.039Z</time>
      </trkpt>
      <trkpt lat="42.90974" lon="0.28254">
        <ele>1402</ele>
        <time>2017-02-09T11:01:22.039Z</time>
      </trkpt>
      <trkpt lat="42.90975" lon="0.28255">
        <ele>1401</ele>
        <time>2017-02-09T11:01:23.039Z</time>
      </trkpt>
      <trkpt lat="42.90975" lon="0.28255">
        <ele>1401</ele>
        <time>2017-02-09T11:01:24.039Z</time>
      </trkpt>
      <trkpt lat="42.90976" lon="0.28256">
        <ele>1401</ele>
        <time>2017-02-09T11:01:25.039Z</time>
      </trkpt>
      <trkpt lat="42.90977" lon="0.28257">
        <ele>1401</ele>
        <time>2017-02-09T11:01:26.039Z</time>
      </trkpt>
      <trkpt lat="42.90977" lon="0.28258">
        <ele>1401</ele>
        <time>2017-02-09T11:01:27.039Z</time>
      </trkpt>
      <trkpt lat="42.90978" lon="0.28259">
        <ele>1401</ele>
        <time>2017-02-09T11:01:28.039Z</time>
      </trkpt>
      <trkpt lat="42.90979" lon="0.2826">
        <ele>1400</ele>
        <time>2017-02-09T11:01:29.039Z</time>
      </trkpt>
      <trkpt lat="42.90979" lon="0.28261">
        <ele>1400</ele>
        <time>2017-02-09T11:01:30.039Z</time>
      </trkpt>
      <trkpt lat="42.9098" lon="0.28261">
        <ele>1400</ele>
        <time>2017-02-09T11:01:31.039Z</time>
      </trkpt>
      <trkpt lat="42.90981" lon="0.28262">
        <ele>1400</ele>
        <time>2017-02-09T11:01:32.039Z</time>
      </trkpt>
      <trkpt lat="42.90981" lon="0.28263">
        <ele>1400</ele>
        <time>2017-02-09T11:01:33.039Z</time>
      </trkpt>
      <trkpt lat="42.90982" lon="0.28264">
        <ele>1400</ele>
        <time>2017-02-09T11:01:34.039Z</time>
      </trkpt>
      <trkpt lat="42.90983" lon="0.28265">
        <ele>1399</ele>
        <time>2017-02-09T11:01:35.039Z</time>
      </trkpt>
      <trkpt lat="42.90984" lon="0.28266">
        <ele>1400</ele>
        <time>2017-02-09T11:01:36.039Z</time>
      </trkpt>
      <trkpt lat="42.90985" lon="0.28266">
        <ele>1399</ele>
        <time>2017-02-09T11:01:37.039Z</time>
      </trkpt>
      <trkpt lat="42.90985" lon="0.28267">
        <ele>1399</ele>
        <time>2017-02-09T11:01:38.039Z</time>
      </trkpt>
      <trkpt lat="42.90986" lon="0.28268">
        <ele>1399</ele>
        <time>2017-02-09T11:01:39.039Z</time>
      </trkpt>
      <trkpt lat="42.90987" lon="0.28269">
        <ele>1399</ele>
        <time>2017-02-09T11:01:40.039Z</time>
      </trkpt>
      <trkpt lat="42.90988" lon="0.2827">
        <ele>1399</ele>
        <time>2017-02-09T11:01:41.039Z</time>
      </trkpt>
      <trkpt lat="42.90988" lon="0.28271">
        <ele>1399</ele>
        <time>2017-02-09T11:01:42.039Z</time>
      </trkpt>
      <trkpt lat="42.90989" lon="0.28272">
        <ele>1399</ele>
        <time>2017-02-09T11:01:43.039Z</time>
      </trkpt>
      <trkpt lat="42.9099" lon="0.28272">
        <ele>1399</ele>
        <time>2017-02-09T11:01:44.039Z</time>
      </trkpt>
      <trkpt lat="42.9099" lon="0.28273">
        <ele>1399</ele>
        <time>2017-02-09T11:01:45.039Z</time>
      </trkpt>
      <trkpt lat="42.90991" lon="0.28274">
        <ele>1399</ele>
        <time>2017-02-09T11:01:46.039Z</time>
      </trkpt>
      <trkpt lat="42.90992" lon="0.28275">
        <ele>1399</ele>
        <time>2017-02-09T11:01:47.039Z</time>
      </trkpt>
      <trkpt lat="42.90993" lon="0.28276">
        <ele>1399</ele>
        <time>2017-02-09T11:01:48.039Z</time>
      </trkpt>
      <trkpt lat="42.90993" lon="0.28276">
        <ele>1398</ele>
        <time>2017-02-09T11:01:49.039Z</time>
      </trkpt>
      <trkpt lat="42.90994" lon="0.28277">
        <ele>1398</ele>
        <time>2017-02-09T11:01:50.039Z</time>
      </trkpt>
      <trkpt lat="42.90995" lon="0.28278">
        <ele>1398</ele>
        <time>2017-02-09T11:01:51.039Z</time>
      </trkpt>
      <trkpt lat="42.90996" lon="0.28279">
        <ele>1398</ele>
        <time>2017-02-09T11:01:52.039Z</time>
      </trkpt>
      <trkpt lat="42.90997" lon="0.2828">
        <ele>1398</ele>
        <time>2017-02-09T11:01:53.039Z</time>
      </trkpt>
      <trkpt lat="42.90997" lon="0.28281">
        <ele>1398</ele>
        <time>2017-02-09T11:01:54.039Z</time>
      </trkpt>
      <trkpt lat="42.90998" lon="0.28281">
        <ele>1398</ele>
        <time>2017-02-09T11:01:55.039Z</time>
      </trkpt>
      <trkpt lat="42.90999" lon="0.28282">
        <ele>1398</ele>
        <time>2017-02-09T11:01:56.039Z</time>
      </trkpt>
      <trkpt lat="42.90999" lon="0.28283">
        <ele>1397</ele>
        <time>2017-02-09T11:01:57.039Z</time>
      </trkpt>
      <trkpt lat="42.91" lon="0.28284">
        <ele>1397</ele>
        <time>2017-02-09T11:01:58.039Z</time>
      </trkpt>
      <trkpt lat="42.91001" lon="0.28285">
        <ele>1397</ele>
        <time>2017-02-09T11:01:59.039Z</time>
      </trkpt>
      <trkpt lat="42.91002" lon="0.28285">
        <ele>1397</ele>
        <time>2017-02-09T11:02:00.039Z</time>
      </trkpt>
      <trkpt lat="42.91003" lon="0.28286">
        <ele>1397</ele>
        <time>2017-02-09T11:02:01.039Z</time>
      </trkpt>
      <trkpt lat="42.91004" lon="0.28287">
        <ele>1397</ele>
        <time>2017-02-09T11:02:02.039Z</time>
      </trkpt>
      <trkpt lat="42.91004" lon="0.28288">
        <ele>1397</ele>
        <time>2017-02-09T11:02:03.039Z</time>
      </trkpt>
      <trkpt lat="42.91005" lon="0.28289">
        <ele>1397</ele>
        <time>2017-02-09T11:02:04.039Z</time>
      </trkpt>
      <trkpt lat="42.91006" lon="0.2829">
        <ele>1397</ele>
        <time>2017-02-09T11:02:05.039Z</time>
      </trkpt>
      <trkpt lat="42.91007" lon="0.2829">
        <ele>1396</ele>
        <time>2017-02-09T11:02:06.039Z</time>
      </trkpt>
      <trkpt lat="42.91007" lon="0.28291">
        <ele>1396</ele>
        <time>2017-02-09T11:02:07.039Z</time>
      </trkpt>
      <trkpt lat="42.91008" lon="0.28292">
        <ele>1396</ele>
        <time>2017-02-09T11:02:08.039Z</time>
      </trkpt>
      <trkpt lat="42.91009" lon="0.28293">
        <ele>1396</ele>
        <time>2017-02-09T11:02:09.039Z</time>
      </trkpt>
      <trkpt lat="42.91009" lon="0.28294">
        <ele>1396</ele>
        <time>2017-02-09T11:02:10.039Z</time>
      </trkpt>
      <trkpt lat="42.9101" lon="0.28295">
        <ele>1396</ele>
        <time>2017-02-09T11:02:11.039Z</time>
      </trkpt>
      <trkpt lat="42.91011" lon="0.28296">
        <ele>1396</ele>
        <time>2017-02-09T11:02:12.039Z</time>
      </trkpt>
      <trkpt lat="42.91012" lon="0.28296">
        <ele>1395</ele>
        <time>2017-02-09T11:02:13.039Z</time>
      </trkpt>
      <trkpt lat="42.91013" lon="0.28297">
        <ele>1395</ele>
        <time>2017-02-09T11:02:14.039Z</time>
      </trkpt>
      <trkpt lat="42.91013" lon="0.28298">
        <ele>1395</ele>
        <time>2017-02-09T11:02:15.039Z</time>
      </trkpt>
      <trkpt lat="42.91014" lon="0.28299">
        <ele>1395</ele>
        <time>2017-02-09T11:02:16.039Z</time>
      </trkpt>
      <trkpt lat="42.91015" lon="0.283">
        <ele>1395</ele>
        <time>2017-02-09T11:02:17.039Z</time>
      </trkpt>
      <trkpt lat="42.91016" lon="0.28301">
        <ele>1394</ele>
        <time>2017-02-09T11:02:18.039Z</time>
      </trkpt>
      <trkpt lat="42.91016" lon="0.28302">
        <ele>1394</ele>
        <time>2017-02-09T11:02:19.039Z</time>
      </trkpt>
      <trkpt lat="42.91017" lon="0.28302">
        <ele>1394</ele>
        <time>2017-02-09T11:02:20.039Z</time>
      </trkpt>
      <trkpt lat="42.91018" lon="0.28303">
        <ele>1394</ele>
        <time>2017-02-09T11:02:21.039Z</time>
      </trkpt>
      <trkpt lat="42.91019" lon="0.28304">
        <ele>1394</ele>
        <time>2017-02-09T11:02:22.039Z</time>
      </trkpt>
      <trkpt lat="42.91019" lon="0.28305">
        <ele>1394</ele>
        <time>2017-02-09T11:02:23.039Z</time>
      </trkpt>
      <trkpt lat="42.9102" lon="0.28306">
        <ele>1393</ele>
        <time>2017-02-09T11:02:24.039Z</time>
      </trkpt>
      <trkpt lat="42.91021" lon="0.28307">
        <ele>1393</ele>
        <time>2017-02-09T11:02:25.039Z</time>
      </trkpt>
      <trkpt lat="42.91022" lon="0.28308">
        <ele>1393</ele>
        <time>2017-02-09T11:02:26.039Z</time>
      </trkpt>
      <trkpt lat="42.91022" lon="0.28309">
        <ele>1393</ele>
        <time>2017-02-09T11:02:27.039Z</time>
      </trkpt>
      <trkpt lat="42.91023" lon="0.2831">
        <ele>1393</ele>
        <time>2017-02-09T11:02:28.039Z</time>
      </trkpt>
      <trkpt lat="42.91024" lon="0.28311">
        <ele>1393</ele>
        <time>2017-02-09T11:02:29.039Z</time>
      </trkpt>
      <trkpt lat="42.91025" lon="0.28311">
        <ele>1393</ele>
        <time>2017-02-09T11:02:30.039Z</time>
      </trkpt>
      <trkpt lat="42.91025" lon="0.28312">
        <ele>1393</ele>
        <time>2017-02-09T11:02:31.039Z</time>
      </trkpt>
      <trkpt lat="42.91026" lon="0.28313">
        <ele>1392</ele>
        <time>2017-02-09T11:02:32.039Z</time>
      </trkpt>
      <trkpt lat="42.91027" lon="0.28314">
        <ele>1393</ele>
        <time>2017-02-09T11:02:33.039Z</time>
      </trkpt>
      <trkpt lat="42.91027" lon="0.28315">
        <ele>1393</ele>
        <time>2017-02-09T11:02:34.039Z</time>
      </trkpt>
      <trkpt lat="42.91028" lon="0.28316">
        <ele>1393</ele>
        <time>2017-02-09T11:02:35.039Z</time>
      </trkpt>
      <trkpt lat="42.91029" lon="0.28317">
        <ele>1392</ele>
        <time>2017-02-09T11:02:36.039Z</time>
      </trkpt>
      <trkpt lat="42.9103" lon="0.28318">
        <ele>1392</ele>
        <time>2017-02-09T11:02:37.039Z</time>
      </trkpt>
      <trkpt lat="42.91031" lon="0.28318">
        <ele>1392</ele>
        <time>2017-02-09T11:02:38.039Z</time>
      </trkpt>
      <trkpt lat="42.91032" lon="0.28319">
        <ele>1392</ele>
        <time>2017-02-09T11:02:39.039Z</time>
      </trkpt>
      <trkpt lat="42.91032" lon="0.2832">
        <ele>1392</ele>
        <time>2017-02-09T11:02:40.039Z</time>
      </trkpt>
      <trkpt lat="42.91033" lon="0.28321">
        <ele>1392</ele>
        <time>2017-02-09T11:02:41.039Z</time>
      </trkpt>
      <trkpt lat="42.91034" lon="0.28322">
        <ele>1392</ele>
        <time>2017-02-09T11:02:42.039Z</time>
      </trkpt>
      <trkpt lat="42.91034" lon="0.28323">
        <ele>1391</ele>
        <time>2017-02-09T11:02:43.039Z</time>
      </trkpt>
      <trkpt lat="42.91035" lon="0.28324">
        <ele>1391</ele>
        <time>2017-02-09T11:02:44.039Z</time>
      </trkpt>
      <trkpt lat="42.91036" lon="0.28325">
        <ele>1391</ele>
        <time>2017-02-09T11:02:45.039Z</time>
      </trkpt>
      <trkpt lat="42.91036" lon="0.28325">
        <ele>1391</ele>
        <time>2017-02-09T11:02:46.039Z</time>
      </trkpt>
      <trkpt lat="42.91037" lon="0.28326">
        <ele>1391</ele>
        <time>2017-02-09T11:02:47.039Z</time>
      </trkpt>
      <trkpt lat="42.91038" lon="0.28327">
        <ele>1391</ele>
        <time>2017-02-09T11:02:48.039Z</time>
      </trkpt>
      <trkpt lat="42.91039" lon="0.28328">
        <ele>1390</ele>
        <time>2017-02-09T11:02:49.039Z</time>
      </trkpt>
      <trkpt lat="42.9104" lon="0.28328">
        <ele>1390</ele>
        <time>2017-02-09T11:02:50.039Z</time>
      </trkpt>
      <trkpt lat="42.9104" lon="0.28329">
        <ele>1390</ele>
        <time>2017-02-09T11:02:51.039Z</time>
      </trkpt>
      <trkpt lat="42.91041" lon="0.2833">
        <ele>1390</ele>
        <time>2017-02-09T11:02:52.039Z</time>
      </trkpt>
      <trkpt lat="42.91042" lon="0.28331">
        <ele>1390</ele>
        <time>2017-02-09T11:02:53.039Z</time>
      </trkpt>
      <trkpt lat="42.91043" lon="0.28332">
        <ele>1390</ele>
        <time>2017-02-09T11:02:54.039Z</time>
      </trkpt>
      <trkpt lat="42.91044" lon="0.28333">
        <ele>1390</ele>
        <time>2017-02-09T11:02:55.039Z</time>
      </trkpt>
      <trkpt lat="42.91045" lon="0.28333">
        <ele>1390</ele>
        <time>2017-02-09T11:02:56.039Z</time>
      </trkpt>
      <trkpt lat="42.91045" lon="0.28334">
        <ele>1390</ele>
        <time>2017-02-09T11:02:57.039Z</time>
      </trkpt>
      <trkpt lat="42.91046" lon="0.28335">
        <ele>1390</ele>
        <time>2017-02-09T11:02:58.039Z</time>
      </trkpt>
      <trkpt lat="42.91047" lon="0.28336">
        <ele>1390</ele>
        <time>2017-02-09T11:02:59.039Z</time>
      </trkpt>
      <trkpt lat="42.91047" lon="0.28337">
        <ele>1389</ele>
        <time>2017-02-09T11:03:00.039Z</time>
      </trkpt>
      <trkpt lat="42.91048" lon="0.28337">
        <ele>1389</ele>
        <time>2017-02-09T11:03:01.039Z</time>
      </trkpt>
      <trkpt lat="42.91049" lon="0.28338">
        <ele>1389</ele>
        <time>2017-02-09T11:03:02.039Z</time>
      </trkpt>
      <trkpt lat="42.9105" lon="0.28339">
        <ele>1389</ele>
        <time>2017-02-09T11:03:03.039Z</time>
      </trkpt>
      <trkpt lat="42.9105" lon="0.2834">
        <ele>1389</ele>
        <time>2017-02-09T11:03:04.039Z</time>
      </trkpt>
      <trkpt lat="42.91051" lon="0.28341">
        <ele>1389</ele>
        <time>2017-02-09T11:03:05.039Z</time>
      </trkpt>
      <trkpt lat="42.91052" lon="0.28341">
        <ele>1388</ele>
        <time>2017-02-09T11:03:06.039Z</time>
      </trkpt>
      <trkpt lat="42.91053" lon="0.28342">
        <ele>1388</ele>
        <time>2017-02-09T11:03:07.039Z</time>
      </trkpt>
      <trkpt lat="42.91053" lon="0.28343">
        <ele>1388</ele>
        <time>2017-02-09T11:03:08.039Z</time>
      </trkpt>
      <trkpt lat="42.91054" lon="0.28344">
        <ele>1388</ele>
        <time>2017-02-09T11:03:09.039Z</time>
      </trkpt>
      <trkpt lat="42.91055" lon="0.28345">
        <ele>1387</ele>
        <time>2017-02-09T11:03:10.039Z</time>
      </trkpt>
      <trkpt lat="42.91056" lon="0.28345">
        <ele>1387</ele>
        <time>2017-02-09T11:03:11.039Z</time>
      </trkpt>
      <trkpt lat="42.91056" lon="0.28346">
        <ele>1387</ele>
        <time>2017-02-09T11:03:12.039Z</time>
      </trkpt>
      <trkpt lat="42.91057" lon="0.28347">
        <ele>1387</ele>
        <time>2017-02-09T11:03:13.039Z</time>
      </trkpt>
      <trkpt lat="42.91058" lon="0.28348">
        <ele>1387</ele>
        <time>2017-02-09T11:03:14.039Z</time>
      </trkpt>
      <trkpt lat="42.91059" lon="0.28349">
        <ele>1387</ele>
        <time>2017-02-09T11:03:15.039Z</time>
      </trkpt>
      <trkpt lat="42.9106" lon="0.28349">
        <ele>1387</ele>
        <time>2017-02-09T11:03:16.039Z</time>
      </trkpt>
      <trkpt lat="42.91061" lon="0.2835">
        <ele>1387</ele>
        <time>2017-02-09T11:03:17.039Z</time>
      </trkpt>
      <trkpt lat="42.91062" lon="0.28351">
        <ele>1386</ele>
        <time>2017-02-09T11:03:18.039Z</time>
      </trkpt>
      <trkpt lat="42.91062" lon="0.28352">
        <ele>1386</ele>
        <time>2017-02-09T11:03:19.039Z</time>
      </trkpt>
      <trkpt lat="42.91063" lon="0.28353">
        <ele>1386</ele>
        <time>2017-02-09T11:03:20.039Z</time>
      </trkpt>
      <trkpt lat="42.91063" lon="0.28353">
        <ele>1386</ele>
        <time>2017-02-09T11:03:21.039Z</time>
      </trkpt>
      <trkpt lat="42.91064" lon="0.28354">
        <ele>1386</ele>
        <time>2017-02-09T11:03:22.039Z</time>
      </trkpt>
      <trkpt lat="42.91065" lon="0.28355">
        <ele>1386</ele>
        <time>2017-02-09T11:03:23.039Z</time>
      </trkpt>
      <trkpt lat="42.91066" lon="0.28356">
        <ele>1386</ele>
        <time>2017-02-09T11:03:24.039Z</time>
      </trkpt>
      <trkpt lat="42.91067" lon="0.28357">
        <ele>1386</ele>
        <time>2017-02-09T11:03:25.039Z</time>
      </trkpt>
      <trkpt lat="42.91068" lon="0.28357">
        <ele>1387</ele>
        <time>2017-02-09T11:03:26.039Z</time>
      </trkpt>
      <trkpt lat="42.9107" lon="0.28358">
        <ele>1387</ele>
        <time>2017-02-09T11:03:27.039Z</time>
      </trkpt>
      <trkpt lat="42.91071" lon="0.28359">
        <ele>1387</ele>
        <time>2017-02-09T11:03:28.039Z</time>
      </trkpt>
      <trkpt lat="42.91071" lon="0.28359">
        <ele>1387</ele>
        <time>2017-02-09T11:03:29.039Z</time>
      </trkpt>
      <trkpt lat="42.91072" lon="0.2836">
        <ele>1388</ele>
        <time>2017-02-09T11:03:30.039Z</time>
      </trkpt>
      <trkpt lat="42.91072" lon="0.2836">
        <ele>1388</ele>
        <time>2017-02-09T11:03:31.039Z</time>
      </trkpt>
      <trkpt lat="42.91072" lon="0.2836">
        <ele>1388</ele>
        <time>2017-02-09T11:03:32.039Z</time>
      </trkpt>
      <trkpt lat="42.91073" lon="0.2836">
        <ele>1388</ele>
        <time>2017-02-09T11:03:33.039Z</time>
      </trkpt>
      <trkpt lat="42.91073" lon="0.2836">
        <ele>1388</ele>
        <time>2017-02-09T11:03:34.039Z</time>
      </trkpt>
      <trkpt lat="42.91073" lon="0.2836">
        <ele>1387</ele>
        <time>2017-02-09T11:03:35.039Z</time>
      </trkpt>
      <trkpt lat="42.91074" lon="0.28361">
        <ele>1388</ele>
        <time>2017-02-09T11:03:36.039Z</time>
      </trkpt>
      <trkpt lat="42.91074" lon="0.28362">
        <ele>1388</ele>
        <time>2017-02-09T11:03:37.039Z</time>
      </trkpt>
      <trkpt lat="42.91075" lon="0.28362">
        <ele>1388</ele>
        <time>2017-02-09T11:03:38.039Z</time>
      </trkpt>
      <trkpt lat="42.91076" lon="0.28363">
        <ele>1388</ele>
        <time>2017-02-09T11:03:39.039Z</time>
      </trkpt>
      <trkpt lat="42.91076" lon="0.28363">
        <ele>1387</ele>
        <time>2017-02-09T11:03:40.039Z</time>
      </trkpt>
      <trkpt lat="42.91077" lon="0.28364">
        <ele>1387</ele>
        <time>2017-02-09T11:03:41.039Z</time>
      </trkpt>
      <trkpt lat="42.91078" lon="0.28365">
        <ele>1387</ele>
        <time>2017-02-09T11:03:42.039Z</time>
      </trkpt>
      <trkpt lat="42.91078" lon="0.28365">
        <ele>1387</ele>
        <time>2017-02-09T11:03:43.039Z</time>
      </trkpt>
      <trkpt lat="42.91079" lon="0.28366">
        <ele>1387</ele>
        <time>2017-02-09T11:03:44.039Z</time>
      </trkpt>
      <trkpt lat="42.91079" lon="0.28366">
        <ele>1387</ele>
        <time>2017-02-09T11:03:45.039Z</time>
      </trkpt>
      <trkpt lat="42.91079" lon="0.28366">
        <ele>1387</ele>
        <time>2017-02-09T11:03:46.039Z</time>
      </trkpt>
      <trkpt lat="42.91079" lon="0.28366">
        <ele>1387</ele>
        <time>2017-02-09T11:03:47.039Z</time>
      </trkpt>
      <trkpt lat="42.9108" lon="0.28365">
        <ele>1388</ele>
        <time>2017-02-09T11:03:48.039Z</time>
      </trkpt>
      <trkpt lat="42.9108" lon="0.28365">
        <ele>1387</ele>
        <time>2017-02-09T11:03:49.039Z</time>
      </trkpt>
      <trkpt lat="42.9108" lon="0.28366">
        <ele>1387</ele>
        <time>2017-02-09T11:03:50.039Z</time>
      </trkpt>
      <trkpt lat="42.9108" lon="0.28366">
        <ele>1386</ele>
        <time>2017-02-09T11:03:51.039Z</time>
      </trkpt>
      <trkpt lat="42.91082" lon="0.28369">
        <ele>1388</ele>
        <time>2017-02-09T11:03:52.043Z</time>
      </trkpt>
      <trkpt lat="42.91083" lon="0.2837">
        <ele>1387</ele>
        <time>2017-02-09T11:03:53.043Z</time>
      </trkpt>
      <trkpt lat="42.91083" lon="0.2837">
        <ele>1387</ele>
        <time>2017-02-09T11:03:54.043Z</time>
      </trkpt>
      <trkpt lat="42.91084" lon="0.28371">
        <ele>1387</ele>
        <time>2017-02-09T11:03:55.043Z</time>
      </trkpt>
      <trkpt lat="42.91085" lon="0.28372">
        <ele>1387</ele>
        <time>2017-02-09T11:03:56.043Z</time>
      </trkpt>
      <trkpt lat="42.91086" lon="0.28373">
        <ele>1387</ele>
        <time>2017-02-09T11:03:57.043Z</time>
      </trkpt>
      <trkpt lat="42.91087" lon="0.28373">
        <ele>1387</ele>
        <time>2017-02-09T11:03:58.043Z</time>
      </trkpt>
      <trkpt lat="42.91087" lon="0.28374">
        <ele>1387</ele>
        <time>2017-02-09T11:03:59.043Z</time>
      </trkpt>
      <trkpt lat="42.91088" lon="0.28374">
        <ele>1387</ele>
        <time>2017-02-09T11:04:00.043Z</time>
      </trkpt>
      <trkpt lat="42.91089" lon="0.28375">
        <ele>1386</ele>
        <time>2017-02-09T11:04:01.043Z</time>
      </trkpt>
      <trkpt lat="42.9109" lon="0.28376">
        <ele>1386</ele>
        <time>2017-02-09T11:04:02.043Z</time>
      </trkpt>
      <trkpt lat="42.91091" lon="0.28376">
        <ele>1386</ele>
        <time>2017-02-09T11:04:03.043Z</time>
      </trkpt>
      <trkpt lat="42.91091" lon="0.28377">
        <ele>1385</ele>
        <time>2017-02-09T11:04:04.043Z</time>
      </trkpt>
      <trkpt lat="42.91092" lon="0.28377">
        <ele>1385</ele>
        <time>2017-02-09T11:04:05.043Z</time>
      </trkpt>
      <trkpt lat="42.91093" lon="0.28378">
        <ele>1385</ele>
        <time>2017-02-09T11:04:06.043Z</time>
      </trkpt>
      <trkpt lat="42.91094" lon="0.28379">
        <ele>1385</ele>
        <time>2017-02-09T11:04:07.043Z</time>
      </trkpt>
      <trkpt lat="42.91095" lon="0.28379">
        <ele>1384</ele>
        <time>2017-02-09T11:04:08.043Z</time>
      </trkpt>
      <trkpt lat="42.91096" lon="0.2838">
        <ele>1385</ele>
        <time>2017-02-09T11:04:09.043Z</time>
      </trkpt>
      <trkpt lat="42.91097" lon="0.2838">
        <ele>1384</ele>
        <time>2017-02-09T11:04:10.043Z</time>
      </trkpt>
      <trkpt lat="42.91098" lon="0.28381">
        <ele>1385</ele>
        <time>2017-02-09T11:04:11.043Z</time>
      </trkpt>
      <trkpt lat="42.91099" lon="0.28381">
        <ele>1385</ele>
        <time>2017-02-09T11:04:12.043Z</time>
      </trkpt>
      <trkpt lat="42.911" lon="0.28382">
        <ele>1385</ele>
        <time>2017-02-09T11:04:13.043Z</time>
      </trkpt>
      <trkpt lat="42.91101" lon="0.28382">
        <ele>1385</ele>
        <time>2017-02-09T11:04:14.043Z</time>
      </trkpt>
      <trkpt lat="42.91102" lon="0.28383">
        <ele>1385</ele>
        <time>2017-02-09T11:04:15.043Z</time>
      </trkpt>
      <trkpt lat="42.91103" lon="0.28384">
        <ele>1385</ele>
        <time>2017-02-09T11:04:16.043Z</time>
      </trkpt>
      <trkpt lat="42.91104" lon="0.28384">
        <ele>1385</ele>
        <time>2017-02-09T11:04:17.043Z</time>
      </trkpt>
      <trkpt lat="42.91105" lon="0.28385">
        <ele>1384</ele>
        <time>2017-02-09T11:04:18.043Z</time>
      </trkpt>
      <trkpt lat="42.91105" lon="0.28385">
        <ele>1385</ele>
        <time>2017-02-09T11:04:19.043Z</time>
      </trkpt>
      <trkpt lat="42.91106" lon="0.28386">
        <ele>1385</ele>
        <time>2017-02-09T11:04:20.043Z</time>
      </trkpt>
      <trkpt lat="42.91107" lon="0.28386">
        <ele>1384</ele>
        <time>2017-02-09T11:04:21.043Z</time>
      </trkpt>
      <trkpt lat="42.91108" lon="0.28387">
        <ele>1384</ele>
        <time>2017-02-09T11:04:22.043Z</time>
      </trkpt>
      <trkpt lat="42.91109" lon="0.28387">
        <ele>1384</ele>
        <time>2017-02-09T11:04:23.043Z</time>
      </trkpt>
      <trkpt lat="42.9111" lon="0.28388">
        <ele>1385</ele>
        <time>2017-02-09T11:04:24.043Z</time>
      </trkpt>
      <trkpt lat="42.91111" lon="0.28388">
        <ele>1385</ele>
        <time>2017-02-09T11:04:25.043Z</time>
      </trkpt>
      <trkpt lat="42.91112" lon="0.28389">
        <ele>1384</ele>
        <time>2017-02-09T11:04:26.043Z</time>
      </trkpt>
      <trkpt lat="42.91113" lon="0.28389">
        <ele>1384</ele>
        <time>2017-02-09T11:04:27.043Z</time>
      </trkpt>
      <trkpt lat="42.91114" lon="0.2839">
        <ele>1384</ele>
        <time>2017-02-09T11:04:28.043Z</time>
      </trkpt>
      <trkpt lat="42.91115" lon="0.28391">
        <ele>1384</ele>
        <time>2017-02-09T11:04:29.043Z</time>
      </trkpt>
      <trkpt lat="42.91116" lon="0.28391">
        <ele>1385</ele>
        <time>2017-02-09T11:04:30.043Z</time>
      </trkpt>
      <trkpt lat="42.91117" lon="0.28391">
        <ele>1384</ele>
        <time>2017-02-09T11:04:31.043Z</time>
      </trkpt>
      <trkpt lat="42.91118" lon="0.28392">
        <ele>1385</ele>
        <time>2017-02-09T11:04:32.043Z</time>
      </trkpt>
      <trkpt lat="42.91119" lon="0.28392">
        <ele>1385</ele>
        <time>2017-02-09T11:04:33.043Z</time>
      </trkpt>
      <trkpt lat="42.9112" lon="0.28393">
        <ele>1385</ele>
        <time>2017-02-09T11:04:34.043Z</time>
      </trkpt>
      <trkpt lat="42.9112" lon="0.28393">
        <ele>1385</ele>
        <time>2017-02-09T11:04:35.043Z</time>
      </trkpt>
      <trkpt lat="42.91121" lon="0.28394">
        <ele>1384</ele>
        <time>2017-02-09T11:04:36.043Z</time>
      </trkpt>
      <trkpt lat="42.91122" lon="0.28394">
        <ele>1385</ele>
        <time>2017-02-09T11:04:37.043Z</time>
      </trkpt>
      <trkpt lat="42.91123" lon="0.28395">
        <ele>1385</ele>
        <time>2017-02-09T11:04:38.043Z</time>
      </trkpt>
      <trkpt lat="42.91124" lon="0.28395">
        <ele>1385</ele>
        <time>2017-02-09T11:04:39.043Z</time>
      </trkpt>
      <trkpt lat="42.91125" lon="0.28396">
        <ele>1385</ele>
        <time>2017-02-09T11:04:40.043Z</time>
      </trkpt>
      <trkpt lat="42.91126" lon="0.28396">
        <ele>1385</ele>
        <time>2017-02-09T11:04:41.043Z</time>
      </trkpt>
      <trkpt lat="42.91127" lon="0.28397">
        <ele>1384</ele>
        <time>2017-02-09T11:04:42.043Z</time>
      </trkpt>
      <trkpt lat="42.91128" lon="0.28397">
        <ele>1383</ele>
        <time>2017-02-09T11:04:43.043Z</time>
      </trkpt>
      <trkpt lat="42.91128" lon="0.28398">
        <ele>1383</ele>
        <time>2017-02-09T11:04:44.043Z</time>
      </trkpt>
      <trkpt lat="42.91129" lon="0.28399">
        <ele>1383</ele>
        <time>2017-02-09T11:04:45.043Z</time>
      </trkpt>
      <trkpt lat="42.9113" lon="0.28399">
        <ele>1383</ele>
        <time>2017-02-09T11:04:46.043Z</time>
      </trkpt>
      <trkpt lat="42.91131" lon="0.28399">
        <ele>1383</ele>
        <time>2017-02-09T11:04:47.043Z</time>
      </trkpt>
      <trkpt lat="42.91132" lon="0.284">
        <ele>1383</ele>
        <time>2017-02-09T11:04:48.043Z</time>
      </trkpt>
      <trkpt lat="42.91133" lon="0.284">
        <ele>1382</ele>
        <time>2017-02-09T11:04:49.043Z</time>
      </trkpt>
      <trkpt lat="42.91133" lon="0.28401">
        <ele>1382</ele>
        <time>2017-02-09T11:04:50.043Z</time>
      </trkpt>
      <trkpt lat="42.91134" lon="0.28401">
        <ele>1382</ele>
        <time>2017-02-09T11:04:51.043Z</time>
      </trkpt>
      <trkpt lat="42.91135" lon="0.28402">
        <ele>1382</ele>
        <time>2017-02-09T11:04:52.043Z</time>
      </trkpt>
      <trkpt lat="42.91136" lon="0.28402">
        <ele>1382</ele>
        <time>2017-02-09T11:04:53.043Z</time>
      </trkpt>
      <trkpt lat="42.91137" lon="0.28403">
        <ele>1382</ele>
        <time>2017-02-09T11:04:54.043Z</time>
      </trkpt>
      <trkpt lat="42.91138" lon="0.28404">
        <ele>1381</ele>
        <time>2017-02-09T11:04:55.043Z</time>
      </trkpt>
      <trkpt lat="42.91139" lon="0.28404">
        <ele>1381</ele>
        <time>2017-02-09T11:04:56.043Z</time>
      </trkpt>
      <trkpt lat="42.91139" lon="0.28405">
        <ele>1381</ele>
        <time>2017-02-09T11:04:57.043Z</time>
      </trkpt>
      <trkpt lat="42.9114" lon="0.28405">
        <ele>1380</ele>
        <time>2017-02-09T11:04:58.043Z</time>
      </trkpt>
      <trkpt lat="42.91141" lon="0.28406">
        <ele>1380</ele>
        <time>2017-02-09T11:04:59.043Z</time>
      </trkpt>
      <trkpt lat="42.91142" lon="0.28407">
        <ele>1380</ele>
        <time>2017-02-09T11:05:00.043Z</time>
      </trkpt>
      <trkpt lat="42.91143" lon="0.28407">
        <ele>1380</ele>
        <time>2017-02-09T11:05:01.043Z</time>
      </trkpt>
      <trkpt lat="42.91144" lon="0.28408">
        <ele>1380</ele>
        <time>2017-02-09T11:05:02.043Z</time>
      </trkpt>
      <trkpt lat="42.91144" lon="0.28408">
        <ele>1380</ele>
        <time>2017-02-09T11:05:03.043Z</time>
      </trkpt>
      <trkpt lat="42.91145" lon="0.28409">
        <ele>1379</ele>
        <time>2017-02-09T11:05:04.043Z</time>
      </trkpt>
      <trkpt lat="42.91146" lon="0.2841">
        <ele>1379</ele>
        <time>2017-02-09T11:05:05.043Z</time>
      </trkpt>
      <trkpt lat="42.91146" lon="0.2841">
        <ele>1379</ele>
        <time>2017-02-09T11:05:06.043Z</time>
      </trkpt>
      <trkpt lat="42.91147" lon="0.28411">
        <ele>1379</ele>
        <time>2017-02-09T11:05:07.043Z</time>
      </trkpt>
      <trkpt lat="42.91148" lon="0.28411">
        <ele>1379</ele>
        <time>2017-02-09T11:05:08.043Z</time>
      </trkpt>
      <trkpt lat="42.91149" lon="0.28412">
        <ele>1378</ele>
        <time>2017-02-09T11:05:09.043Z</time>
      </trkpt>
      <trkpt lat="42.9115" lon="0.28413">
        <ele>1378</ele>
        <time>2017-02-09T11:05:10.043Z</time>
      </trkpt>
      <trkpt lat="42.91151" lon="0.28413">
        <ele>1378</ele>
        <time>2017-02-09T11:05:11.043Z</time>
      </trkpt>
      <trkpt lat="42.91152" lon="0.28414">
        <ele>1378</ele>
        <time>2017-02-09T11:05:12.043Z</time>
      </trkpt>
      <trkpt lat="42.91153" lon="0.28414">
        <ele>1379</ele>
        <time>2017-02-09T11:05:13.043Z</time>
      </trkpt>
      <trkpt lat="42.91154" lon="0.28415">
        <ele>1379</ele>
        <time>2017-02-09T11:05:14.043Z</time>
      </trkpt>
      <trkpt lat="42.91155" lon="0.28416">
        <ele>1379</ele>
        <time>2017-02-09T11:05:15.043Z</time>
      </trkpt>
      <trkpt lat="42.91156" lon="0.28416">
        <ele>1379</ele>
        <time>2017-02-09T11:05:16.043Z</time>
      </trkpt>
      <trkpt lat="42.91157" lon="0.28417">
        <ele>1379</ele>
        <time>2017-02-09T11:05:17.043Z</time>
      </trkpt>
      <trkpt lat="42.91158" lon="0.28417">
        <ele>1379</ele>
        <time>2017-02-09T11:05:18.043Z</time>
      </trkpt>
      <trkpt lat="42.91159" lon="0.28418">
        <ele>1379</ele>
        <time>2017-02-09T11:05:19.043Z</time>
      </trkpt>
      <trkpt lat="42.9116" lon="0.28419">
        <ele>1379</ele>
        <time>2017-02-09T11:05:20.043Z</time>
      </trkpt>
      <trkpt lat="42.91161" lon="0.28419">
        <ele>1379</ele>
        <time>2017-02-09T11:05:21.043Z</time>
      </trkpt>
      <trkpt lat="42.91162" lon="0.2842">
        <ele>1379</ele>
        <time>2017-02-09T11:05:22.043Z</time>
      </trkpt>
      <trkpt lat="42.91163" lon="0.2842">
        <ele>1379</ele>
        <time>2017-02-09T11:05:23.043Z</time>
      </trkpt>
      <trkpt lat="42.91164" lon="0.28421">
        <ele>1380</ele>
        <time>2017-02-09T11:05:24.043Z</time>
      </trkpt>
      <trkpt lat="42.91165" lon="0.28421">
        <ele>1380</ele>
        <time>2017-02-09T11:05:25.043Z</time>
      </trkpt>
      <trkpt lat="42.91165" lon="0.28421">
        <ele>1380</ele>
        <time>2017-02-09T11:05:26.043Z</time>
      </trkpt>
      <trkpt lat="42.91165" lon="0.28421">
        <ele>1380</ele>
        <time>2017-02-09T11:05:27.043Z</time>
      </trkpt>
      <trkpt lat="42.91165" lon="0.28421">
        <ele>1380</ele>
        <time>2017-02-09T11:05:28.043Z</time>
      </trkpt>
      <trkpt lat="42.91165" lon="0.28421">
        <ele>1380</ele>
        <time>2017-02-09T11:05:29.043Z</time>
      </trkpt>
      <trkpt lat="42.91166" lon="0.28421">
        <ele>1380</ele>
        <time>2017-02-09T11:05:30.043Z</time>
      </trkpt>
      <trkpt lat="42.91166" lon="0.28421">
        <ele>1380</ele>
        <time>2017-02-09T11:05:31.043Z</time>
      </trkpt>
      <trkpt lat="42.91166" lon="0.28421">
        <ele>1380</ele>
        <time>2017-02-09T11:05:32.043Z</time>
      </trkpt>
      <trkpt lat="42.9117" lon="0.28423">
        <ele>1380</ele>
        <time>2017-02-09T11:05:33.039Z</time>
      </trkpt>
      <trkpt lat="42.9117" lon="0.28424">
        <ele>1380</ele>
        <time>2017-02-09T11:05:34.039Z</time>
      </trkpt>
      <trkpt lat="42.91171" lon="0.28424">
        <ele>1380</ele>
        <time>2017-02-09T11:05:35.039Z</time>
      </trkpt>
      <trkpt lat="42.91172" lon="0.28425">
        <ele>1379</ele>
        <time>2017-02-09T11:05:36.039Z</time>
      </trkpt>
      <trkpt lat="42.91173" lon="0.28426">
        <ele>1379</ele>
        <time>2017-02-09T11:05:37.039Z</time>
      </trkpt>
      <trkpt lat="42.91174" lon="0.28426">
        <ele>1380</ele>
        <time>2017-02-09T11:05:38.039Z</time>
      </trkpt>
      <trkpt lat="42.91175" lon="0.28427">
        <ele>1379</ele>
        <time>2017-02-09T11:05:39.039Z</time>
      </trkpt>
      <trkpt lat="42.91175" lon="0.28427">
        <ele>1379</ele>
        <time>2017-02-09T11:05:40.039Z</time>
      </trkpt>
      <trkpt lat="42.91176" lon="0.28428">
        <ele>1379</ele>
        <time>2017-02-09T11:05:41.039Z</time>
      </trkpt>
      <trkpt lat="42.91177" lon="0.28428">
        <ele>1379</ele>
        <time>2017-02-09T11:05:42.039Z</time>
      </trkpt>
      <trkpt lat="42.91178" lon="0.28429">
        <ele>1379</ele>
        <time>2017-02-09T11:05:43.039Z</time>
      </trkpt>
      <trkpt lat="42.91179" lon="0.28429">
        <ele>1378</ele>
        <time>2017-02-09T11:05:44.039Z</time>
      </trkpt>
      <trkpt lat="42.91179" lon="0.2843">
        <ele>1378</ele>
        <time>2017-02-09T11:05:45.039Z</time>
      </trkpt>
      <trkpt lat="42.9118" lon="0.2843">
        <ele>1378</ele>
        <time>2017-02-09T11:05:46.039Z</time>
      </trkpt>
      <trkpt lat="42.91181" lon="0.28431">
        <ele>1378</ele>
        <time>2017-02-09T11:05:47.039Z</time>
      </trkpt>
      <trkpt lat="42.91182" lon="0.28431">
        <ele>1378</ele>
        <time>2017-02-09T11:05:48.039Z</time>
      </trkpt>
      <trkpt lat="42.91183" lon="0.28431">
        <ele>1378</ele>
        <time>2017-02-09T11:05:49.039Z</time>
      </trkpt>
      <trkpt lat="42.91183" lon="0.28432">
        <ele>1378</ele>
        <time>2017-02-09T11:05:50.039Z</time>
      </trkpt>
      <trkpt lat="42.91183" lon="0.28432">
        <ele>1378</ele>
        <time>2017-02-09T11:05:51.039Z</time>
      </trkpt>
      <trkpt lat="42.91184" lon="0.28432">
        <ele>1378</ele>
        <time>2017-02-09T11:05:52.039Z</time>
      </trkpt>
      <trkpt lat="42.91183" lon="0.28432">
        <ele>1377</ele>
        <time>2017-02-09T11:05:53.039Z</time>
      </trkpt>
      <trkpt lat="42.91183" lon="0.28432">
        <ele>1377</ele>
        <time>2017-02-09T11:05:54.039Z</time>
      </trkpt>
      <trkpt lat="42.91183" lon="0.28432">
        <ele>1377</ele>
        <time>2017-02-09T11:05:55.039Z</time>
      </trkpt>
      <trkpt lat="42.91183" lon="0.28432">
        <ele>1376</ele>
        <time>2017-02-09T11:05:56.039Z</time>
      </trkpt>
      <trkpt lat="42.91183" lon="0.28432">
        <ele>1376</ele>
        <time>2017-02-09T11:05:57.039Z</time>
      </trkpt>
      <trkpt lat="42.91183" lon="0.28432">
        <ele>1376</ele>
        <time>2017-02-09T11:05:58.039Z</time>
      </trkpt>
      <trkpt lat="42.91185" lon="0.28434">
        <ele>1376</ele>
        <time>2017-02-09T11:05:59.054Z</time>
      </trkpt>
      <trkpt lat="42.91186" lon="0.28434">
        <ele>1376</ele>
        <time>2017-02-09T11:06:00.054Z</time>
      </trkpt>
      <trkpt lat="42.91187" lon="0.28435">
        <ele>1376</ele>
        <time>2017-02-09T11:06:01.054Z</time>
      </trkpt>
      <trkpt lat="42.91188" lon="0.28435">
        <ele>1376</ele>
        <time>2017-02-09T11:06:02.054Z</time>
      </trkpt>
      <trkpt lat="42.91189" lon="0.28436">
        <ele>1376</ele>
        <time>2017-02-09T11:06:03.054Z</time>
      </trkpt>
      <trkpt lat="42.91189" lon="0.28436">
        <ele>1376</ele>
        <time>2017-02-09T11:06:04.054Z</time>
      </trkpt>
      <trkpt lat="42.9119" lon="0.28436">
        <ele>1376</ele>
        <time>2017-02-09T11:06:05.054Z</time>
      </trkpt>
      <trkpt lat="42.91191" lon="0.28437">
        <ele>1376</ele>
        <time>2017-02-09T11:06:06.054Z</time>
      </trkpt>
      <trkpt lat="42.91192" lon="0.28437">
        <ele>1376</ele>
        <time>2017-02-09T11:06:07.054Z</time>
      </trkpt>
      <trkpt lat="42.91193" lon="0.28437">
        <ele>1376</ele>
        <time>2017-02-09T11:06:08.054Z</time>
      </trkpt>
      <trkpt lat="42.91193" lon="0.28437">
        <ele>1376</ele>
        <time>2017-02-09T11:06:09.054Z</time>
      </trkpt>
      <trkpt lat="42.91193" lon="0.28437">
        <ele>1377</ele>
        <time>2017-02-09T11:06:10.054Z</time>
      </trkpt>
      <trkpt lat="42.91194" lon="0.28437">
        <ele>1377</ele>
        <time>2017-02-09T11:06:11.054Z</time>
      </trkpt>
      <trkpt lat="42.91194" lon="0.28438">
        <ele>1377</ele>
        <time>2017-02-09T11:06:12.054Z</time>
      </trkpt>
      <trkpt lat="42.91194" lon="0.28438">
        <ele>1377</ele>
        <time>2017-02-09T11:06:13.054Z</time>
      </trkpt>
      <trkpt lat="42.91194" lon="0.28438">
        <ele>1377</ele>
        <time>2017-02-09T11:06:14.054Z</time>
      </trkpt>
      <trkpt lat="42.91194" lon="0.28438">
        <ele>1377</ele>
        <time>2017-02-09T11:06:15.054Z</time>
      </trkpt>
      <trkpt lat="42.91197" lon="0.28438">
        <ele>1379</ele>
        <time>2017-02-09T11:06:16.065Z</time>
      </trkpt>
      <trkpt lat="42.91197" lon="0.28438">
        <ele>1379</ele>
        <time>2017-02-09T11:06:17.065Z</time>
      </trkpt>
      <trkpt lat="42.91198" lon="0.28439">
        <ele>1378</ele>
        <time>2017-02-09T11:06:18.065Z</time>
      </trkpt>
      <trkpt lat="42.91199" lon="0.28439">
        <ele>1378</ele>
        <time>2017-02-09T11:06:19.065Z</time>
      </trkpt>
      <trkpt lat="42.91199" lon="0.28439">
        <ele>1378</ele>
        <time>2017-02-09T11:06:20.065Z</time>
      </trkpt>
      <trkpt lat="42.912" lon="0.2844">
        <ele>1378</ele>
        <time>2017-02-09T11:06:21.065Z</time>
      </trkpt>
      <trkpt lat="42.91201" lon="0.2844">
        <ele>1378</ele>
        <time>2017-02-09T11:06:22.065Z</time>
      </trkpt>
      <trkpt lat="42.91202" lon="0.28441">
        <ele>1378</ele>
        <time>2017-02-09T11:06:23.065Z</time>
      </trkpt>
      <trkpt lat="42.91203" lon="0.28441">
        <ele>1377</ele>
        <time>2017-02-09T11:06:24.065Z</time>
      </trkpt>
      <trkpt lat="42.91204" lon="0.28442">
        <ele>1378</ele>
        <time>2017-02-09T11:06:25.065Z</time>
      </trkpt>
      <trkpt lat="42.91204" lon="0.28442">
        <ele>1377</ele>
        <time>2017-02-09T11:06:26.065Z</time>
      </trkpt>
      <trkpt lat="42.91205" lon="0.28443">
        <ele>1377</ele>
        <time>2017-02-09T11:06:27.065Z</time>
      </trkpt>
      <trkpt lat="42.91206" lon="0.28443">
        <ele>1377</ele>
        <time>2017-02-09T11:06:28.065Z</time>
      </trkpt>
      <trkpt lat="42.91207" lon="0.28444">
        <ele>1377</ele>
        <time>2017-02-09T11:06:29.065Z</time>
      </trkpt>
      <trkpt lat="42.91208" lon="0.28444">
        <ele>1377</ele>
        <time>2017-02-09T11:06:30.065Z</time>
      </trkpt>
      <trkpt lat="42.91209" lon="0.28445">
        <ele>1377</ele>
        <time>2017-02-09T11:06:31.065Z</time>
      </trkpt>
      <trkpt lat="42.9121" lon="0.28445">
        <ele>1376</ele>
        <time>2017-02-09T11:06:32.065Z</time>
      </trkpt>
      <trkpt lat="42.91211" lon="0.28446">
        <ele>1376</ele>
        <time>2017-02-09T11:06:33.065Z</time>
      </trkpt>
      <trkpt lat="42.91212" lon="0.28446">
        <ele>1376</ele>
        <time>2017-02-09T11:06:34.065Z</time>
      </trkpt>
      <trkpt lat="42.91213" lon="0.28447">
        <ele>1376</ele>
        <time>2017-02-09T11:06:35.065Z</time>
      </trkpt>
      <trkpt lat="42.91214" lon="0.28447">
        <ele>1376</ele>
        <time>2017-02-09T11:06:36.065Z</time>
      </trkpt>
      <trkpt lat="42.91215" lon="0.28448">
        <ele>1376</ele>
        <time>2017-02-09T11:06:37.065Z</time>
      </trkpt>
      <trkpt lat="42.91215" lon="0.28448">
        <ele>1376</ele>
        <time>2017-02-09T11:06:38.065Z</time>
      </trkpt>
      <trkpt lat="42.91216" lon="0.28449">
        <ele>1376</ele>
        <time>2017-02-09T11:06:39.065Z</time>
      </trkpt>
      <trkpt lat="42.91217" lon="0.28449">
        <ele>1375</ele>
        <time>2017-02-09T11:06:40.065Z</time>
      </trkpt>
      <trkpt lat="42.91218" lon="0.28449">
        <ele>1375</ele>
        <time>2017-02-09T11:06:41.065Z</time>
      </trkpt>
      <trkpt lat="42.91219" lon="0.2845">
        <ele>1375</ele>
        <time>2017-02-09T11:06:42.065Z</time>
      </trkpt>
      <trkpt lat="42.9122" lon="0.2845">
        <ele>1375</ele>
        <time>2017-02-09T11:06:43.065Z</time>
      </trkpt>
      <trkpt lat="42.91221" lon="0.28451">
        <ele>1375</ele>
        <time>2017-02-09T11:06:44.065Z</time>
      </trkpt>
      <trkpt lat="42.91222" lon="0.28452">
        <ele>1376</ele>
        <time>2017-02-09T11:06:45.065Z</time>
      </trkpt>
      <trkpt lat="42.91223" lon="0.28452">
        <ele>1375</ele>
        <time>2017-02-09T11:06:46.065Z</time>
      </trkpt>
      <trkpt lat="42.91224" lon="0.28453">
        <ele>1375</ele>
        <time>2017-02-09T11:06:47.065Z</time>
      </trkpt>
      <trkpt lat="42.91225" lon="0.28453">
        <ele>1375</ele>
        <time>2017-02-09T11:06:48.065Z</time>
      </trkpt>
      <trkpt lat="42.91226" lon="0.28454">
        <ele>1375</ele>
        <time>2017-02-09T11:06:49.065Z</time>
      </trkpt>
      <trkpt lat="42.91227" lon="0.28455">
        <ele>1375</ele>
        <time>2017-02-09T11:06:50.065Z</time>
      </trkpt>
      <trkpt lat="42.91228" lon="0.28455">
        <ele>1375</ele>
        <time>2017-02-09T11:06:51.065Z</time>
      </trkpt>
      <trkpt lat="42.91229" lon="0.28456">
        <ele>1374</ele>
        <time>2017-02-09T11:06:52.065Z</time>
      </trkpt>
      <trkpt lat="42.9123" lon="0.28457">
        <ele>1374</ele>
        <time>2017-02-09T11:06:53.065Z</time>
      </trkpt>
      <trkpt lat="42.91231" lon="0.28457">
        <ele>1374</ele>
        <time>2017-02-09T11:06:54.065Z</time>
      </trkpt>
      <trkpt lat="42.91232" lon="0.28458">
        <ele>1374</ele>
        <time>2017-02-09T11:06:55.065Z</time>
      </trkpt>
      <trkpt lat="42.91233" lon="0.28458">
        <ele>1374</ele>
        <time>2017-02-09T11:06:56.065Z</time>
      </trkpt>
      <trkpt lat="42.91234" lon="0.28459">
        <ele>1373</ele>
        <time>2017-02-09T11:06:57.065Z</time>
      </trkpt>
      <trkpt lat="42.91235" lon="0.2846">
        <ele>1373</ele>
        <time>2017-02-09T11:06:58.065Z</time>
      </trkpt>
      <trkpt lat="42.91236" lon="0.2846">
        <ele>1373</ele>
        <time>2017-02-09T11:06:59.065Z</time>
      </trkpt>
      <trkpt lat="42.91236" lon="0.28461">
        <ele>1373</ele>
        <time>2017-02-09T11:07:00.065Z</time>
      </trkpt>
      <trkpt lat="42.91237" lon="0.28462">
        <ele>1373</ele>
        <time>2017-02-09T11:07:01.065Z</time>
      </trkpt>
      <trkpt lat="42.91238" lon="0.28463">
        <ele>1372</ele>
        <time>2017-02-09T11:07:02.065Z</time>
      </trkpt>
      <trkpt lat="42.91239" lon="0.28463">
        <ele>1372</ele>
        <time>2017-02-09T11:07:03.065Z</time>
      </trkpt>
      <trkpt lat="42.9124" lon="0.28464">
        <ele>1372</ele>
        <time>2017-02-09T11:07:04.065Z</time>
      </trkpt>
      <trkpt lat="42.91241" lon="0.28465">
        <ele>1372</ele>
        <time>2017-02-09T11:07:05.065Z</time>
      </trkpt>
      <trkpt lat="42.91242" lon="0.28465">
        <ele>1372</ele>
        <time>2017-02-09T11:07:06.065Z</time>
      </trkpt>
      <trkpt lat="42.91243" lon="0.28466">
        <ele>1372</ele>
        <time>2017-02-09T11:07:07.065Z</time>
      </trkpt>
      <trkpt lat="42.91244" lon="0.28467">
        <ele>1372</ele>
        <time>2017-02-09T11:07:08.065Z</time>
      </trkpt>
      <trkpt lat="42.91245" lon="0.28468">
        <ele>1372</ele>
        <time>2017-02-09T11:07:09.065Z</time>
      </trkpt>
      <trkpt lat="42.91246" lon="0.28469">
        <ele>1372</ele>
        <time>2017-02-09T11:07:10.065Z</time>
      </trkpt>
      <trkpt lat="42.91247" lon="0.28469">
        <ele>1372</ele>
        <time>2017-02-09T11:07:11.065Z</time>
      </trkpt>
      <trkpt lat="42.91247" lon="0.2847">
        <ele>1372</ele>
        <time>2017-02-09T11:07:12.065Z</time>
      </trkpt>
      <trkpt lat="42.91248" lon="0.28471">
        <ele>1372</ele>
        <time>2017-02-09T11:07:13.065Z</time>
      </trkpt>
      <trkpt lat="42.91249" lon="0.28472">
        <ele>1372</ele>
        <time>2017-02-09T11:07:14.065Z</time>
      </trkpt>
      <trkpt lat="42.9125" lon="0.28472">
        <ele>1371</ele>
        <time>2017-02-09T11:07:15.065Z</time>
      </trkpt>
      <trkpt lat="42.91251" lon="0.28473">
        <ele>1372</ele>
        <time>2017-02-09T11:07:16.065Z</time>
      </trkpt>
      <trkpt lat="42.91252" lon="0.28474">
        <ele>1372</ele>
        <time>2017-02-09T11:07:17.065Z</time>
      </trkpt>
      <trkpt lat="42.91254" lon="0.28474">
        <ele>1372</ele>
        <time>2017-02-09T11:07:18.065Z</time>
      </trkpt>
      <trkpt lat="42.91255" lon="0.28475">
        <ele>1373</ele>
        <time>2017-02-09T11:07:19.065Z</time>
      </trkpt>
      <trkpt lat="42.91255" lon="0.28476">
        <ele>1373</ele>
        <time>2017-02-09T11:07:20.065Z</time>
      </trkpt>
      <trkpt lat="42.91256" lon="0.28476">
        <ele>1373</ele>
        <time>2017-02-09T11:07:21.065Z</time>
      </trkpt>
      <trkpt lat="42.91256" lon="0.28476">
        <ele>1372</ele>
        <time>2017-02-09T11:07:22.065Z</time>
      </trkpt>
      <trkpt lat="42.91256" lon="0.28477">
        <ele>1372</ele>
        <time>2017-02-09T11:07:23.065Z</time>
      </trkpt>
      <trkpt lat="42.91256" lon="0.28477">
        <ele>1372</ele>
        <time>2017-02-09T11:07:24.065Z</time>
      </trkpt>
      <trkpt lat="42.91256" lon="0.28477">
        <ele>1373</ele>
        <time>2017-02-09T11:07:25.065Z</time>
      </trkpt>
      <trkpt lat="42.91256" lon="0.28477">
        <ele>1373</ele>
        <time>2017-02-09T11:07:26.065Z</time>
      </trkpt>
      <trkpt lat="42.91256" lon="0.28477">
        <ele>1373</ele>
        <time>2017-02-09T11:07:27.065Z</time>
      </trkpt>
      <trkpt lat="42.91256" lon="0.28477">
        <ele>1373</ele>
        <time>2017-02-09T11:07:28.065Z</time>
      </trkpt>
      <trkpt lat="42.91257" lon="0.28477">
        <ele>1373</ele>
        <time>2017-02-09T11:07:29.065Z</time>
      </trkpt>
      <trkpt lat="42.91257" lon="0.28478">
        <ele>1373</ele>
        <time>2017-02-09T11:07:30.065Z</time>
      </trkpt>
      <trkpt lat="42.91258" lon="0.28479">
        <ele>1372</ele>
        <time>2017-02-09T11:07:31.065Z</time>
      </trkpt>
      <trkpt lat="42.91259" lon="0.28479">
        <ele>1372</ele>
        <time>2017-02-09T11:07:32.065Z</time>
      </trkpt>
      <trkpt lat="42.9126" lon="0.2848">
        <ele>1372</ele>
        <time>2017-02-09T11:07:33.065Z</time>
      </trkpt>
      <trkpt lat="42.9126" lon="0.2848">
        <ele>1372</ele>
        <time>2017-02-09T11:07:34.065Z</time>
      </trkpt>
      <trkpt lat="42.91261" lon="0.28481">
        <ele>1372</ele>
        <time>2017-02-09T11:07:35.065Z</time>
      </trkpt>
      <trkpt lat="42.91262" lon="0.28481">
        <ele>1372</ele>
        <time>2017-02-09T11:07:36.065Z</time>
      </trkpt>
      <trkpt lat="42.91263" lon="0.28482">
        <ele>1371</ele>
        <time>2017-02-09T11:07:37.065Z</time>
      </trkpt>
      <trkpt lat="42.91264" lon="0.28483">
        <ele>1371</ele>
        <time>2017-02-09T11:07:38.065Z</time>
      </trkpt>
      <trkpt lat="42.91264" lon="0.28483">
        <ele>1371</ele>
        <time>2017-02-09T11:07:39.065Z</time>
      </trkpt>
      <trkpt lat="42.91265" lon="0.28484">
        <ele>1371</ele>
        <time>2017-02-09T11:07:40.065Z</time>
      </trkpt>
      <trkpt lat="42.91266" lon="0.28485">
        <ele>1371</ele>
        <time>2017-02-09T11:07:41.065Z</time>
      </trkpt>
      <trkpt lat="42.91267" lon="0.28485">
        <ele>1370</ele>
        <time>2017-02-09T11:07:42.065Z</time>
      </trkpt>
      <trkpt lat="42.91268" lon="0.28486">
        <ele>1370</ele>
        <time>2017-02-09T11:07:43.065Z</time>
      </trkpt>
      <trkpt lat="42.91269" lon="0.28487">
        <ele>1370</ele>
        <time>2017-02-09T11:07:44.065Z</time>
      </trkpt>
      <trkpt lat="42.91269" lon="0.28488">
        <ele>1370</ele>
        <time>2017-02-09T11:07:45.065Z</time>
      </trkpt>
      <trkpt lat="42.9127" lon="0.28488">
        <ele>1370</ele>
        <time>2017-02-09T11:07:46.065Z</time>
      </trkpt>
      <trkpt lat="42.91271" lon="0.28489">
        <ele>1370</ele>
        <time>2017-02-09T11:07:47.065Z</time>
      </trkpt>
      <trkpt lat="42.91272" lon="0.2849">
        <ele>1370</ele>
        <time>2017-02-09T11:07:48.065Z</time>
      </trkpt>
      <trkpt lat="42.91273" lon="0.2849">
        <ele>1370</ele>
        <time>2017-02-09T11:07:49.065Z</time>
      </trkpt>
      <trkpt lat="42.91273" lon="0.28491">
        <ele>1370</ele>
        <time>2017-02-09T11:07:50.065Z</time>
      </trkpt>
      <trkpt lat="42.91274" lon="0.28492">
        <ele>1370</ele>
        <time>2017-02-09T11:07:51.065Z</time>
      </trkpt>
      <trkpt lat="42.91275" lon="0.28492">
        <ele>1370</ele>
        <time>2017-02-09T11:07:52.065Z</time>
      </trkpt>
      <trkpt lat="42.91276" lon="0.28493">
        <ele>1370</ele>
        <time>2017-02-09T11:07:53.065Z</time>
      </trkpt>
      <trkpt lat="42.91277" lon="0.28494">
        <ele>1370</ele>
        <time>2017-02-09T11:07:54.065Z</time>
      </trkpt>
      <trkpt lat="42.91278" lon="0.28494">
        <ele>1371</ele>
        <time>2017-02-09T11:07:55.065Z</time>
      </trkpt>
      <trkpt lat="42.91279" lon="0.28495">
        <ele>1370</ele>
        <time>2017-02-09T11:07:56.065Z</time>
      </trkpt>
      <trkpt lat="42.9128" lon="0.28496">
        <ele>1370</ele>
        <time>2017-02-09T11:07:57.065Z</time>
      </trkpt>
      <trkpt lat="42.91281" lon="0.28496">
        <ele>1370</ele>
        <time>2017-02-09T11:07:58.065Z</time>
      </trkpt>
      <trkpt lat="42.91282" lon="0.28497">
        <ele>1370</ele>
        <time>2017-02-09T11:07:59.065Z</time>
      </trkpt>
      <trkpt lat="42.91283" lon="0.28498">
        <ele>1370</ele>
        <time>2017-02-09T11:08:00.065Z</time>
      </trkpt>
      <trkpt lat="42.91283" lon="0.28498">
        <ele>1370</ele>
        <time>2017-02-09T11:08:01.065Z</time>
      </trkpt>
      <trkpt lat="42.91284" lon="0.28498">
        <ele>1371</ele>
        <time>2017-02-09T11:08:02.065Z</time>
      </trkpt>
      <trkpt lat="42.91284" lon="0.28498">
        <ele>1371</ele>
        <time>2017-02-09T11:08:03.065Z</time>
      </trkpt>
      <trkpt lat="42.91284" lon="0.28498">
        <ele>1371</ele>
        <time>2017-02-09T11:08:04.065Z</time>
      </trkpt>
      <trkpt lat="42.91284" lon="0.28498">
        <ele>1371</ele>
        <time>2017-02-09T11:08:05.065Z</time>
      </trkpt>
      <trkpt lat="42.91284" lon="0.28498">
        <ele>1372</ele>
        <time>2017-02-09T11:08:06.065Z</time>
      </trkpt>
      <trkpt lat="42.91284" lon="0.28498">
        <ele>1371</ele>
        <time>2017-02-09T11:08:07.065Z</time>
      </trkpt>
      <trkpt lat="42.91284" lon="0.28498">
        <ele>1371</ele>
        <time>2017-02-09T11:08:08.065Z</time>
      </trkpt>
      <trkpt lat="42.91284" lon="0.28498">
        <ele>1371</ele>
        <time>2017-02-09T11:08:09.065Z</time>
      </trkpt>
      <trkpt lat="42.91284" lon="0.28499">
        <ele>1370</ele>
        <time>2017-02-09T11:08:10.065Z</time>
      </trkpt>
      <trkpt lat="42.91285" lon="0.28499">
        <ele>1369</ele>
        <time>2017-02-09T11:08:11.065Z</time>
      </trkpt>
      <trkpt lat="42.91285" lon="0.285">
        <ele>1369</ele>
        <time>2017-02-09T11:08:12.065Z</time>
      </trkpt>
      <trkpt lat="42.91286" lon="0.28501">
        <ele>1369</ele>
        <time>2017-02-09T11:08:13.065Z</time>
      </trkpt>
      <trkpt lat="42.91286" lon="0.28501">
        <ele>1368</ele>
        <time>2017-02-09T11:08:14.065Z</time>
      </trkpt>
      <trkpt lat="42.91287" lon="0.28502">
        <ele>1368</ele>
        <time>2017-02-09T11:08:15.065Z</time>
      </trkpt>
      <trkpt lat="42.91288" lon="0.28503">
        <ele>1368</ele>
        <time>2017-02-09T11:08:16.065Z</time>
      </trkpt>
      <trkpt lat="42.91288" lon="0.28503">
        <ele>1367</ele>
        <time>2017-02-09T11:08:17.065Z</time>
      </trkpt>
      <trkpt lat="42.91289" lon="0.28504">
        <ele>1367</ele>
        <time>2017-02-09T11:08:18.065Z</time>
      </trkpt>
      <trkpt lat="42.9129" lon="0.28505">
        <ele>1367</ele>
        <time>2017-02-09T11:08:19.065Z</time>
      </trkpt>
      <trkpt lat="42.91291" lon="0.28506">
        <ele>1367</ele>
        <time>2017-02-09T11:08:20.065Z</time>
      </trkpt>
      <trkpt lat="42.91292" lon="0.28506">
        <ele>1367</ele>
        <time>2017-02-09T11:08:21.065Z</time>
      </trkpt>
      <trkpt lat="42.91292" lon="0.28507">
        <ele>1367</ele>
        <time>2017-02-09T11:08:22.065Z</time>
      </trkpt>
      <trkpt lat="42.91293" lon="0.28508">
        <ele>1367</ele>
        <time>2017-02-09T11:08:23.065Z</time>
      </trkpt>
      <trkpt lat="42.91294" lon="0.28508">
        <ele>1367</ele>
        <time>2017-02-09T11:08:24.065Z</time>
      </trkpt>
      <trkpt lat="42.91295" lon="0.28509">
        <ele>1367</ele>
        <time>2017-02-09T11:08:25.065Z</time>
      </trkpt>
      <trkpt lat="42.91296" lon="0.2851">
        <ele>1367</ele>
        <time>2017-02-09T11:08:26.065Z</time>
      </trkpt>
      <trkpt lat="42.91297" lon="0.2851">
        <ele>1366</ele>
        <time>2017-02-09T11:08:27.065Z</time>
      </trkpt>
      <trkpt lat="42.91298" lon="0.28511">
        <ele>1366</ele>
        <time>2017-02-09T11:08:28.065Z</time>
      </trkpt>
      <trkpt lat="42.91299" lon="0.28511">
        <ele>1367</ele>
        <time>2017-02-09T11:08:29.065Z</time>
      </trkpt>
      <trkpt lat="42.913" lon="0.28512">
        <ele>1366</ele>
        <time>2017-02-09T11:08:30.065Z</time>
      </trkpt>
      <trkpt lat="42.91301" lon="0.28512">
        <ele>1366</ele>
        <time>2017-02-09T11:08:31.065Z</time>
      </trkpt>
      <trkpt lat="42.91302" lon="0.28513">
        <ele>1366</ele>
        <time>2017-02-09T11:08:32.065Z</time>
      </trkpt>
      <trkpt lat="42.91303" lon="0.28514">
        <ele>1366</ele>
        <time>2017-02-09T11:08:33.065Z</time>
      </trkpt>
      <trkpt lat="42.91304" lon="0.28514">
        <ele>1366</ele>
        <time>2017-02-09T11:08:34.065Z</time>
      </trkpt>
      <trkpt lat="42.91305" lon="0.28515">
        <ele>1366</ele>
        <time>2017-02-09T11:08:35.065Z</time>
      </trkpt>
      <trkpt lat="42.91305" lon="0.28515">
        <ele>1365</ele>
        <time>2017-02-09T11:08:36.065Z</time>
      </trkpt>
      <trkpt lat="42.91306" lon="0.28516">
        <ele>1365</ele>
        <time>2017-02-09T11:08:37.065Z</time>
      </trkpt>
      <trkpt lat="42.91307" lon="0.28516">
        <ele>1365</ele>
        <time>2017-02-09T11:08:38.065Z</time>
      </trkpt>
      <trkpt lat="42.91308" lon="0.28517">
        <ele>1365</ele>
        <time>2017-02-09T11:08:39.065Z</time>
      </trkpt>
      <trkpt lat="42.91309" lon="0.28518">
        <ele>1365</ele>
        <time>2017-02-09T11:08:40.065Z</time>
      </trkpt>
      <trkpt lat="42.9131" lon="0.28518">
        <ele>1365</ele>
        <time>2017-02-09T11:08:41.065Z</time>
      </trkpt>
      <trkpt lat="42.91311" lon="0.28519">
        <ele>1365</ele>
        <time>2017-02-09T11:08:42.065Z</time>
      </trkpt>
      <trkpt lat="42.91312" lon="0.28519">
        <ele>1365</ele>
        <time>2017-02-09T11:08:43.065Z</time>
      </trkpt>
      <trkpt lat="42.91313" lon="0.2852">
        <ele>1365</ele>
        <time>2017-02-09T11:08:44.065Z</time>
      </trkpt>
      <trkpt lat="42.91314" lon="0.2852">
        <ele>1365</ele>
        <time>2017-02-09T11:08:45.065Z</time>
      </trkpt>
      <trkpt lat="42.91315" lon="0.28521">
        <ele>1365</ele>
        <time>2017-02-09T11:08:46.065Z</time>
      </trkpt>
      <trkpt lat="42.91316" lon="0.28521">
        <ele>1366</ele>
        <time>2017-02-09T11:08:47.065Z</time>
      </trkpt>
      <trkpt lat="42.91317" lon="0.28521">
        <ele>1366</ele>
        <time>2017-02-09T11:08:48.065Z</time>
      </trkpt>
      <trkpt lat="42.91318" lon="0.28522">
        <ele>1366</ele>
        <time>2017-02-09T11:08:49.065Z</time>
      </trkpt>
      <trkpt lat="42.91319" lon="0.28522">
        <ele>1366</ele>
        <time>2017-02-09T11:08:50.065Z</time>
      </trkpt>
      <trkpt lat="42.91321" lon="0.28523">
        <ele>1366</ele>
        <time>2017-02-09T11:08:51.065Z</time>
      </trkpt>
      <trkpt lat="42.91322" lon="0.28523">
        <ele>1366</ele>
        <time>2017-02-09T11:08:52.065Z</time>
      </trkpt>
      <trkpt lat="42.91323" lon="0.28524">
        <ele>1366</ele>
        <time>2017-02-09T11:08:53.065Z</time>
      </trkpt>
      <trkpt lat="42.91324" lon="0.28524">
        <ele>1366</ele>
        <time>2017-02-09T11:08:54.065Z</time>
      </trkpt>
      <trkpt lat="42.91325" lon="0.28525">
        <ele>1366</ele>
        <time>2017-02-09T11:08:55.065Z</time>
      </trkpt>
      <trkpt lat="42.91325" lon="0.28525">
        <ele>1366</ele>
        <time>2017-02-09T11:08:56.065Z</time>
      </trkpt>
      <trkpt lat="42.91326" lon="0.28525">
        <ele>1365</ele>
        <time>2017-02-09T11:08:57.065Z</time>
      </trkpt>
      <trkpt lat="42.91326" lon="0.28526">
        <ele>1365</ele>
        <time>2017-02-09T11:08:58.065Z</time>
      </trkpt>
      <trkpt lat="42.91326" lon="0.28526">
        <ele>1365</ele>
        <time>2017-02-09T11:08:59.065Z</time>
      </trkpt>
      <trkpt lat="42.91326" lon="0.28526">
        <ele>1366</ele>
        <time>2017-02-09T11:09:00.065Z</time>
      </trkpt>
      <trkpt lat="42.91326" lon="0.28526">
        <ele>1366</ele>
        <time>2017-02-09T11:09:01.065Z</time>
      </trkpt>
      <trkpt lat="42.9133" lon="0.28526">
        <ele>1368</ele>
        <time>2017-02-09T11:09:02.076Z</time>
      </trkpt>
      <trkpt lat="42.91332" lon="0.28527">
        <ele>1368</ele>
        <time>2017-02-09T11:09:03.076Z</time>
      </trkpt>
      <trkpt lat="42.91333" lon="0.28527">
        <ele>1368</ele>
        <time>2017-02-09T11:09:04.076Z</time>
      </trkpt>
      <trkpt lat="42.91334" lon="0.28528">
        <ele>1368</ele>
        <time>2017-02-09T11:09:05.076Z</time>
      </trkpt>
      <trkpt lat="42.91335" lon="0.28528">
        <ele>1368</ele>
        <time>2017-02-09T11:09:06.076Z</time>
      </trkpt>
      <trkpt lat="42.91336" lon="0.28529">
        <ele>1368</ele>
        <time>2017-02-09T11:09:07.076Z</time>
      </trkpt>
      <trkpt lat="42.91337" lon="0.28529">
        <ele>1368</ele>
        <time>2017-02-09T11:09:08.076Z</time>
      </trkpt>
      <trkpt lat="42.91338" lon="0.2853">
        <ele>1368</ele>
        <time>2017-02-09T11:09:09.076Z</time>
      </trkpt>
      <trkpt lat="42.91338" lon="0.28531">
        <ele>1367</ele>
        <time>2017-02-09T11:09:10.076Z</time>
      </trkpt>
      <trkpt lat="42.91339" lon="0.28531">
        <ele>1367</ele>
        <time>2017-02-09T11:09:11.076Z</time>
      </trkpt>
      <trkpt lat="42.9134" lon="0.28531">
        <ele>1367</ele>
        <time>2017-02-09T11:09:12.076Z</time>
      </trkpt>
      <trkpt lat="42.91341" lon="0.28532">
        <ele>1367</ele>
        <time>2017-02-09T11:09:13.076Z</time>
      </trkpt>
      <trkpt lat="42.91342" lon="0.28533">
        <ele>1367</ele>
        <time>2017-02-09T11:09:14.076Z</time>
      </trkpt>
      <trkpt lat="42.91343" lon="0.28533">
        <ele>1367</ele>
        <time>2017-02-09T11:09:15.076Z</time>
      </trkpt>
      <trkpt lat="42.91344" lon="0.28534">
        <ele>1367</ele>
        <time>2017-02-09T11:09:16.076Z</time>
      </trkpt>
      <trkpt lat="42.91345" lon="0.28534">
        <ele>1367</ele>
        <time>2017-02-09T11:09:17.076Z</time>
      </trkpt>
      <trkpt lat="42.91346" lon="0.28535">
        <ele>1367</ele>
        <time>2017-02-09T11:09:18.076Z</time>
      </trkpt>
      <trkpt lat="42.91347" lon="0.28535">
        <ele>1367</ele>
        <time>2017-02-09T11:09:19.076Z</time>
      </trkpt>
      <trkpt lat="42.91348" lon="0.28536">
        <ele>1367</ele>
        <time>2017-02-09T11:09:20.076Z</time>
      </trkpt>
      <trkpt lat="42.91349" lon="0.28536">
        <ele>1367</ele>
        <time>2017-02-09T11:09:21.076Z</time>
      </trkpt>
      <trkpt lat="42.9135" lon="0.28537">
        <ele>1367</ele>
        <time>2017-02-09T11:09:22.076Z</time>
      </trkpt>
      <trkpt lat="42.91351" lon="0.28538">
        <ele>1368</ele>
        <time>2017-02-09T11:09:23.076Z</time>
      </trkpt>
      <trkpt lat="42.91352" lon="0.28538">
        <ele>1368</ele>
        <time>2017-02-09T11:09:24.076Z</time>
      </trkpt>
      <trkpt lat="42.91353" lon="0.28538">
        <ele>1367</ele>
        <time>2017-02-09T11:09:25.076Z</time>
      </trkpt>
      <trkpt lat="42.91353" lon="0.28539">
        <ele>1367</ele>
        <time>2017-02-09T11:09:26.076Z</time>
      </trkpt>
      <trkpt lat="42.91354" lon="0.28539">
        <ele>1367</ele>
        <time>2017-02-09T11:09:27.076Z</time>
      </trkpt>
      <trkpt lat="42.91355" lon="0.2854">
        <ele>1367</ele>
        <time>2017-02-09T11:09:28.076Z</time>
      </trkpt>
      <trkpt lat="42.91356" lon="0.2854">
        <ele>1367</ele>
        <time>2017-02-09T11:09:29.076Z</time>
      </trkpt>
      <trkpt lat="42.91357" lon="0.28541">
        <ele>1367</ele>
        <time>2017-02-09T11:09:30.076Z</time>
      </trkpt>
      <trkpt lat="42.91358" lon="0.28541">
        <ele>1367</ele>
        <time>2017-02-09T11:09:31.076Z</time>
      </trkpt>
      <trkpt lat="42.91358" lon="0.28542">
        <ele>1367</ele>
        <time>2017-02-09T11:09:32.076Z</time>
      </trkpt>
      <trkpt lat="42.91359" lon="0.28542">
        <ele>1367</ele>
        <time>2017-02-09T11:09:33.076Z</time>
      </trkpt>
      <trkpt lat="42.91359" lon="0.28542">
        <ele>1366</ele>
        <time>2017-02-09T11:09:34.076Z</time>
      </trkpt>
      <trkpt lat="42.91359" lon="0.28542">
        <ele>1366</ele>
        <time>2017-02-09T11:09:35.076Z</time>
      </trkpt>
      <trkpt lat="42.91359" lon="0.28542">
        <ele>1366</ele>
        <time>2017-02-09T11:09:36.076Z</time>
      </trkpt>
      <trkpt lat="42.91359" lon="0.28542">
        <ele>1366</ele>
        <time>2017-02-09T11:09:37.076Z</time>
      </trkpt>
      <trkpt lat="42.91359" lon="0.28542">
        <ele>1365</ele>
        <time>2017-02-09T11:09:38.076Z</time>
      </trkpt>
      <trkpt lat="42.91359" lon="0.28542">
        <ele>1366</ele>
        <time>2017-02-09T11:09:39.076Z</time>
      </trkpt>
      <trkpt lat="42.91359" lon="0.28542">
        <ele>1366</ele>
        <time>2017-02-09T11:09:40.076Z</time>
      </trkpt>
      <trkpt lat="42.91363" lon="0.28543">
        <ele>1368</ele>
        <time>2017-02-09T11:09:41.083Z</time>
      </trkpt>
      <trkpt lat="42.91364" lon="0.28544">
        <ele>1368</ele>
        <time>2017-02-09T11:09:42.083Z</time>
      </trkpt>
      <trkpt lat="42.91365" lon="0.28545">
        <ele>1368</ele>
        <time>2017-02-09T11:09:43.083Z</time>
      </trkpt>
      <trkpt lat="42.91365" lon="0.28545">
        <ele>1367</ele>
        <time>2017-02-09T11:09:44.083Z</time>
      </trkpt>
      <trkpt lat="42.91366" lon="0.28546">
        <ele>1367</ele>
        <time>2017-02-09T11:09:45.083Z</time>
      </trkpt>
      <trkpt lat="42.91367" lon="0.28547">
        <ele>1367</ele>
        <time>2017-02-09T11:09:46.083Z</time>
      </trkpt>
      <trkpt lat="42.91368" lon="0.28548">
        <ele>1366</ele>
        <time>2017-02-09T11:09:47.083Z</time>
      </trkpt>
      <trkpt lat="42.91369" lon="0.28548">
        <ele>1366</ele>
        <time>2017-02-09T11:09:48.083Z</time>
      </trkpt>
      <trkpt lat="42.9137" lon="0.28549">
        <ele>1366</ele>
        <time>2017-02-09T11:09:49.083Z</time>
      </trkpt>
      <trkpt lat="42.9137" lon="0.2855">
        <ele>1366</ele>
        <time>2017-02-09T11:09:50.083Z</time>
      </trkpt>
      <trkpt lat="42.91371" lon="0.28551">
        <ele>1366</ele>
        <time>2017-02-09T11:09:51.083Z</time>
      </trkpt>
      <trkpt lat="42.91372" lon="0.28551">
        <ele>1366</ele>
        <time>2017-02-09T11:09:52.083Z</time>
      </trkpt>
      <trkpt lat="42.91373" lon="0.28552">
        <ele>1366</ele>
        <time>2017-02-09T11:09:53.083Z</time>
      </trkpt>
      <trkpt lat="42.91374" lon="0.28553">
        <ele>1365</ele>
        <time>2017-02-09T11:09:54.083Z</time>
      </trkpt>
      <trkpt lat="42.91374" lon="0.28554">
        <ele>1365</ele>
        <time>2017-02-09T11:09:55.083Z</time>
      </trkpt>
      <trkpt lat="42.91375" lon="0.28554">
        <ele>1365</ele>
        <time>2017-02-09T11:09:56.083Z</time>
      </trkpt>
      <trkpt lat="42.91376" lon="0.28555">
        <ele>1365</ele>
        <time>2017-02-09T11:09:57.083Z</time>
      </trkpt>
      <trkpt lat="42.91377" lon="0.28556">
        <ele>1365</ele>
        <time>2017-02-09T11:09:58.083Z</time>
      </trkpt>
      <trkpt lat="42.91378" lon="0.28557">
        <ele>1365</ele>
        <time>2017-02-09T11:09:59.083Z</time>
      </trkpt>
      <trkpt lat="42.91379" lon="0.28557">
        <ele>1365</ele>
        <time>2017-02-09T11:10:00.083Z</time>
      </trkpt>
      <trkpt lat="42.9138" lon="0.28558">
        <ele>1364</ele>
        <time>2017-02-09T11:10:01.083Z</time>
      </trkpt>
      <trkpt lat="42.9138" lon="0.28559">
        <ele>1364</ele>
        <time>2017-02-09T11:10:02.083Z</time>
      </trkpt>
      <trkpt lat="42.91381" lon="0.28559">
        <ele>1364</ele>
        <time>2017-02-09T11:10:03.083Z</time>
      </trkpt>
      <trkpt lat="42.91382" lon="0.2856">
        <ele>1364</ele>
        <time>2017-02-09T11:10:04.083Z</time>
      </trkpt>
      <trkpt lat="42.91383" lon="0.28561">
        <ele>1363</ele>
        <time>2017-02-09T11:10:05.083Z</time>
      </trkpt>
      <trkpt lat="42.91384" lon="0.28562">
        <ele>1363</ele>
        <time>2017-02-09T11:10:06.083Z</time>
      </trkpt>
      <trkpt lat="42.91384" lon="0.28563">
        <ele>1363</ele>
        <time>2017-02-09T11:10:07.083Z</time>
      </trkpt>
      <trkpt lat="42.91385" lon="0.28563">
        <ele>1363</ele>
        <time>2017-02-09T11:10:08.083Z</time>
      </trkpt>
      <trkpt lat="42.91386" lon="0.28564">
        <ele>1363</ele>
        <time>2017-02-09T11:10:09.083Z</time>
      </trkpt>
      <trkpt lat="42.91387" lon="0.28565">
        <ele>1363</ele>
        <time>2017-02-09T11:10:10.083Z</time>
      </trkpt>
      <trkpt lat="42.91388" lon="0.28566">
        <ele>1363</ele>
        <time>2017-02-09T11:10:11.083Z</time>
      </trkpt>
      <trkpt lat="42.91389" lon="0.28567">
        <ele>1363</ele>
        <time>2017-02-09T11:10:12.083Z</time>
      </trkpt>
      <trkpt lat="42.9139" lon="0.28568">
        <ele>1363</ele>
        <time>2017-02-09T11:10:13.083Z</time>
      </trkpt>
      <trkpt lat="42.91391" lon="0.28569">
        <ele>1363</ele>
        <time>2017-02-09T11:10:14.083Z</time>
      </trkpt>
      <trkpt lat="42.91391" lon="0.2857">
        <ele>1363</ele>
        <time>2017-02-09T11:10:15.083Z</time>
      </trkpt>
      <trkpt lat="42.91392" lon="0.28571">
        <ele>1362</ele>
        <time>2017-02-09T11:10:16.083Z</time>
      </trkpt>
      <trkpt lat="42.91393" lon="0.28571">
        <ele>1362</ele>
        <time>2017-02-09T11:10:17.083Z</time>
      </trkpt>
      <trkpt lat="42.91394" lon="0.28572">
        <ele>1362</ele>
        <time>2017-02-09T11:10:18.083Z</time>
      </trkpt>
      <trkpt lat="42.91395" lon="0.28573">
        <ele>1362</ele>
        <time>2017-02-09T11:10:19.083Z</time>
      </trkpt>
      <trkpt lat="42.91395" lon="0.28574">
        <ele>1362</ele>
        <time>2017-02-09T11:10:20.083Z</time>
      </trkpt>
      <trkpt lat="42.91396" lon="0.28575">
        <ele>1362</ele>
        <time>2017-02-09T11:10:21.083Z</time>
      </trkpt>
      <trkpt lat="42.91397" lon="0.28576">
        <ele>1361</ele>
        <time>2017-02-09T11:10:22.083Z</time>
      </trkpt>
      <trkpt lat="42.91398" lon="0.28577">
        <ele>1362</ele>
        <time>2017-02-09T11:10:23.083Z</time>
      </trkpt>
      <trkpt lat="42.91399" lon="0.28578">
        <ele>1361</ele>
        <time>2017-02-09T11:10:24.083Z</time>
      </trkpt>
      <trkpt lat="42.91399" lon="0.28579">
        <ele>1362</ele>
        <time>2017-02-09T11:10:25.083Z</time>
      </trkpt>
      <trkpt lat="42.914" lon="0.2858">
        <ele>1362</ele>
        <time>2017-02-09T11:10:26.083Z</time>
      </trkpt>
      <trkpt lat="42.91401" lon="0.28581">
        <ele>1362</ele>
        <time>2017-02-09T11:10:27.083Z</time>
      </trkpt>
      <trkpt lat="42.91402" lon="0.28582">
        <ele>1361</ele>
        <time>2017-02-09T11:10:28.083Z</time>
      </trkpt>
      <trkpt lat="42.91403" lon="0.28583">
        <ele>1361</ele>
        <time>2017-02-09T11:10:29.083Z</time>
      </trkpt>
      <trkpt lat="42.91403" lon="0.28584">
        <ele>1361</ele>
        <time>2017-02-09T11:10:30.083Z</time>
      </trkpt>
      <trkpt lat="42.91404" lon="0.28585">
        <ele>1361</ele>
        <time>2017-02-09T11:10:31.083Z</time>
      </trkpt>
      <trkpt lat="42.91404" lon="0.28586">
        <ele>1361</ele>
        <time>2017-02-09T11:10:32.083Z</time>
      </trkpt>
      <trkpt lat="42.91405" lon="0.28587">
        <ele>1361</ele>
        <time>2017-02-09T11:10:33.083Z</time>
      </trkpt>
      <trkpt lat="42.91406" lon="0.28588">
        <ele>1361</ele>
        <time>2017-02-09T11:10:34.083Z</time>
      </trkpt>
      <trkpt lat="42.91407" lon="0.28589">
        <ele>1361</ele>
        <time>2017-02-09T11:10:35.083Z</time>
      </trkpt>
      <trkpt lat="42.91408" lon="0.2859">
        <ele>1361</ele>
        <time>2017-02-09T11:10:36.083Z</time>
      </trkpt>
      <trkpt lat="42.91408" lon="0.28591">
        <ele>1360</ele>
        <time>2017-02-09T11:10:37.083Z</time>
      </trkpt>
      <trkpt lat="42.91409" lon="0.28592">
        <ele>1361</ele>
        <time>2017-02-09T11:10:38.083Z</time>
      </trkpt>
      <trkpt lat="42.9141" lon="0.28593">
        <ele>1360</ele>
        <time>2017-02-09T11:10:39.083Z</time>
      </trkpt>
      <trkpt lat="42.91411" lon="0.28594">
        <ele>1360</ele>
        <time>2017-02-09T11:10:40.083Z</time>
      </trkpt>
      <trkpt lat="42.91412" lon="0.28595">
        <ele>1360</ele>
        <time>2017-02-09T11:10:41.083Z</time>
      </trkpt>
      <trkpt lat="42.91413" lon="0.28596">
        <ele>1360</ele>
        <time>2017-02-09T11:10:42.083Z</time>
      </trkpt>
      <trkpt lat="42.91414" lon="0.28597">
        <ele>1360</ele>
        <time>2017-02-09T11:10:43.083Z</time>
      </trkpt>
      <trkpt lat="42.91415" lon="0.28598">
        <ele>1360</ele>
        <time>2017-02-09T11:10:44.083Z</time>
      </trkpt>
      <trkpt lat="42.91416" lon="0.28598">
        <ele>1360</ele>
        <time>2017-02-09T11:10:45.083Z</time>
      </trkpt>
      <trkpt lat="42.91417" lon="0.28599">
        <ele>1360</ele>
        <time>2017-02-09T11:10:46.083Z</time>
      </trkpt>
      <trkpt lat="42.91418" lon="0.286">
        <ele>1360</ele>
        <time>2017-02-09T11:10:47.083Z</time>
      </trkpt>
      <trkpt lat="42.91419" lon="0.28601">
        <ele>1360</ele>
        <time>2017-02-09T11:10:48.083Z</time>
      </trkpt>
      <trkpt lat="42.9142" lon="0.28601">
        <ele>1360</ele>
        <time>2017-02-09T11:10:49.083Z</time>
      </trkpt>
      <trkpt lat="42.91421" lon="0.28602">
        <ele>1360</ele>
        <time>2017-02-09T11:10:50.083Z</time>
      </trkpt>
      <trkpt lat="42.91421" lon="0.28603">
        <ele>1360</ele>
        <time>2017-02-09T11:10:51.083Z</time>
      </trkpt>
      <trkpt lat="42.91422" lon="0.28603">
        <ele>1359</ele>
        <time>2017-02-09T11:10:52.083Z</time>
      </trkpt>
      <trkpt lat="42.91423" lon="0.28604">
        <ele>1359</ele>
        <time>2017-02-09T11:10:53.083Z</time>
      </trkpt>
      <trkpt lat="42.91424" lon="0.28605">
        <ele>1359</ele>
        <time>2017-02-09T11:10:54.083Z</time>
      </trkpt>
      <trkpt lat="42.91425" lon="0.28605">
        <ele>1358</ele>
        <time>2017-02-09T11:10:55.083Z</time>
      </trkpt>
      <trkpt lat="42.91426" lon="0.28605">
        <ele>1358</ele>
        <time>2017-02-09T11:10:56.083Z</time>
      </trkpt>
      <trkpt lat="42.91426" lon="0.28606">
        <ele>1358</ele>
        <time>2017-02-09T11:10:57.083Z</time>
      </trkpt>
      <trkpt lat="42.91427" lon="0.28606">
        <ele>1358</ele>
        <time>2017-02-09T11:10:58.083Z</time>
      </trkpt>
      <trkpt lat="42.91428" lon="0.28607">
        <ele>1358</ele>
        <time>2017-02-09T11:10:59.083Z</time>
      </trkpt>
      <trkpt lat="42.91429" lon="0.28607">
        <ele>1357</ele>
        <time>2017-02-09T11:11:00.083Z</time>
      </trkpt>
      <trkpt lat="42.9143" lon="0.28608">
        <ele>1357</ele>
        <time>2017-02-09T11:11:01.083Z</time>
      </trkpt>
      <trkpt lat="42.91431" lon="0.28608">
        <ele>1357</ele>
        <time>2017-02-09T11:11:02.083Z</time>
      </trkpt>
      <trkpt lat="42.91432" lon="0.28609">
        <ele>1356</ele>
        <time>2017-02-09T11:11:03.083Z</time>
      </trkpt>
      <trkpt lat="42.91433" lon="0.28609">
        <ele>1356</ele>
        <time>2017-02-09T11:11:04.083Z</time>
      </trkpt>
      <trkpt lat="42.91434" lon="0.2861">
        <ele>1356</ele>
        <time>2017-02-09T11:11:05.083Z</time>
      </trkpt>
      <trkpt lat="42.91435" lon="0.2861">
        <ele>1356</ele>
        <time>2017-02-09T11:11:06.083Z</time>
      </trkpt>
      <trkpt lat="42.91436" lon="0.2861">
        <ele>1356</ele>
        <time>2017-02-09T11:11:07.083Z</time>
      </trkpt>
      <trkpt lat="42.91437" lon="0.28611">
        <ele>1356</ele>
        <time>2017-02-09T11:11:08.083Z</time>
      </trkpt>
      <trkpt lat="42.91438" lon="0.28611">
        <ele>1356</ele>
        <time>2017-02-09T11:11:09.083Z</time>
      </trkpt>
      <trkpt lat="42.91439" lon="0.28611">
        <ele>1356</ele>
        <time>2017-02-09T11:11:10.083Z</time>
      </trkpt>
      <trkpt lat="42.9144" lon="0.28612">
        <ele>1355</ele>
        <time>2017-02-09T11:11:11.083Z</time>
      </trkpt>
      <trkpt lat="42.91441" lon="0.28612">
        <ele>1356</ele>
        <time>2017-02-09T11:11:12.083Z</time>
      </trkpt>
      <trkpt lat="42.91442" lon="0.28612">
        <ele>1356</ele>
        <time>2017-02-09T11:11:13.083Z</time>
      </trkpt>
      <trkpt lat="42.91443" lon="0.28613">
        <ele>1356</ele>
        <time>2017-02-09T11:11:14.083Z</time>
      </trkpt>
      <trkpt lat="42.91444" lon="0.28613">
        <ele>1356</ele>
        <time>2017-02-09T11:11:15.083Z</time>
      </trkpt>
      <trkpt lat="42.91445" lon="0.28613">
        <ele>1356</ele>
        <time>2017-02-09T11:11:16.083Z</time>
      </trkpt>
      <trkpt lat="42.91446" lon="0.28614">
        <ele>1356</ele>
        <time>2017-02-09T11:11:17.083Z</time>
      </trkpt>
      <trkpt lat="42.91448" lon="0.28614">
        <ele>1356</ele>
        <time>2017-02-09T11:11:18.083Z</time>
      </trkpt>
      <trkpt lat="42.91449" lon="0.28614">
        <ele>1356</ele>
        <time>2017-02-09T11:11:19.083Z</time>
      </trkpt>
      <trkpt lat="42.9145" lon="0.28614">
        <ele>1357</ele>
        <time>2017-02-09T11:11:20.083Z</time>
      </trkpt>
      <trkpt lat="42.91452" lon="0.28615">
        <ele>1357</ele>
        <time>2017-02-09T11:11:21.083Z</time>
      </trkpt>
      <trkpt lat="42.91453" lon="0.28615">
        <ele>1358</ele>
        <time>2017-02-09T11:11:22.083Z</time>
      </trkpt>
      <trkpt lat="42.91454" lon="0.28615">
        <ele>1357</ele>
        <time>2017-02-09T11:11:23.083Z</time>
      </trkpt>
      <trkpt lat="42.91455" lon="0.28615">
        <ele>1358</ele>
        <time>2017-02-09T11:11:24.083Z</time>
      </trkpt>
      <trkpt lat="42.91457" lon="0.28615">
        <ele>1358</ele>
        <time>2017-02-09T11:11:25.083Z</time>
      </trkpt>
      <trkpt lat="42.91458" lon="0.28616">
        <ele>1358</ele>
        <time>2017-02-09T11:11:26.083Z</time>
      </trkpt>
      <trkpt lat="42.91459" lon="0.28616">
        <ele>1358</ele>
        <time>2017-02-09T11:11:27.083Z</time>
      </trkpt>
      <trkpt lat="42.9146" lon="0.28616">
        <ele>1358</ele>
        <time>2017-02-09T11:11:28.083Z</time>
      </trkpt>
      <trkpt lat="42.91461" lon="0.28617">
        <ele>1358</ele>
        <time>2017-02-09T11:11:29.083Z</time>
      </trkpt>
      <trkpt lat="42.91462" lon="0.28617">
        <ele>1358</ele>
        <time>2017-02-09T11:11:30.083Z</time>
      </trkpt>
      <trkpt lat="42.91463" lon="0.28617">
        <ele>1359</ele>
        <time>2017-02-09T11:11:31.083Z</time>
      </trkpt>
      <trkpt lat="42.91464" lon="0.28617">
        <ele>1360</ele>
        <time>2017-02-09T11:11:32.083Z</time>
      </trkpt>
      <trkpt lat="42.91465" lon="0.28617">
        <ele>1360</ele>
        <time>2017-02-09T11:11:33.083Z</time>
      </trkpt>
      <trkpt lat="42.91467" lon="0.28617">
        <ele>1360</ele>
        <time>2017-02-09T11:11:34.083Z</time>
      </trkpt>
      <trkpt lat="42.91468" lon="0.28618">
        <ele>1360</ele>
        <time>2017-02-09T11:11:35.083Z</time>
      </trkpt>
      <trkpt lat="42.91469" lon="0.28618">
        <ele>1361</ele>
        <time>2017-02-09T11:11:36.083Z</time>
      </trkpt>
      <trkpt lat="42.9147" lon="0.28618">
        <ele>1361</ele>
        <time>2017-02-09T11:11:37.083Z</time>
      </trkpt>
      <trkpt lat="42.91471" lon="0.28618">
        <ele>1361</ele>
        <time>2017-02-09T11:11:38.083Z</time>
      </trkpt>
      <trkpt lat="42.91472" lon="0.28619">
        <ele>1361</ele>
        <time>2017-02-09T11:11:39.083Z</time>
      </trkpt>
      <trkpt lat="42.91473" lon="0.28619">
        <ele>1360</ele>
        <time>2017-02-09T11:11:40.083Z</time>
      </trkpt>
      <trkpt lat="42.91474" lon="0.28619">
        <ele>1361</ele>
        <time>2017-02-09T11:11:41.083Z</time>
      </trkpt>
      <trkpt lat="42.91475" lon="0.28619">
        <ele>1362</ele>
        <time>2017-02-09T11:11:42.083Z</time>
      </trkpt>
      <trkpt lat="42.91476" lon="0.28619">
        <ele>1362</ele>
        <time>2017-02-09T11:11:43.083Z</time>
      </trkpt>
      <trkpt lat="42.91478" lon="0.28619">
        <ele>1363</ele>
        <time>2017-02-09T11:11:44.083Z</time>
      </trkpt>
      <trkpt lat="42.91479" lon="0.28619">
        <ele>1363</ele>
        <time>2017-02-09T11:11:45.083Z</time>
      </trkpt>
      <trkpt lat="42.9148" lon="0.28619">
        <ele>1363</ele>
        <time>2017-02-09T11:11:46.083Z</time>
      </trkpt>
      <trkpt lat="42.91481" lon="0.28619">
        <ele>1363</ele>
        <time>2017-02-09T11:11:47.083Z</time>
      </trkpt>
      <trkpt lat="42.91482" lon="0.2862">
        <ele>1362</ele>
        <time>2017-02-09T11:11:48.083Z</time>
      </trkpt>
      <trkpt lat="42.91482" lon="0.2862">
        <ele>1362</ele>
        <time>2017-02-09T11:11:49.083Z</time>
      </trkpt>
      <trkpt lat="42.91483" lon="0.2862">
        <ele>1361</ele>
        <time>2017-02-09T11:11:50.083Z</time>
      </trkpt>
      <trkpt lat="42.91484" lon="0.28621">
        <ele>1361</ele>
        <time>2017-02-09T11:11:51.083Z</time>
      </trkpt>
      <trkpt lat="42.91485" lon="0.28621">
        <ele>1361</ele>
        <time>2017-02-09T11:11:52.083Z</time>
      </trkpt>
      <trkpt lat="42.91486" lon="0.28621">
        <ele>1362</ele>
        <time>2017-02-09T11:11:53.083Z</time>
      </trkpt>
      <trkpt lat="42.91487" lon="0.28622">
        <ele>1362</ele>
        <time>2017-02-09T11:11:54.083Z</time>
      </trkpt>
      <trkpt lat="42.91489" lon="0.28622">
        <ele>1362</ele>
        <time>2017-02-09T11:11:55.083Z</time>
      </trkpt>
      <trkpt lat="42.9149" lon="0.28622">
        <ele>1363</ele>
        <time>2017-02-09T11:11:56.083Z</time>
      </trkpt>
      <trkpt lat="42.91491" lon="0.28622">
        <ele>1363</ele>
        <time>2017-02-09T11:11:57.083Z</time>
      </trkpt>
      <trkpt lat="42.91492" lon="0.28622">
        <ele>1364</ele>
        <time>2017-02-09T11:11:58.083Z</time>
      </trkpt>
      <trkpt lat="42.91493" lon="0.28622">
        <ele>1364</ele>
        <time>2017-02-09T11:11:59.083Z</time>
      </trkpt>
      <trkpt lat="42.91494" lon="0.28622">
        <ele>1365</ele>
        <time>2017-02-09T11:12:00.083Z</time>
      </trkpt>
      <trkpt lat="42.91496" lon="0.28622">
        <ele>1365</ele>
        <time>2017-02-09T11:12:01.083Z</time>
      </trkpt>
      <trkpt lat="42.91497" lon="0.28622">
        <ele>1366</ele>
        <time>2017-02-09T11:12:02.083Z</time>
      </trkpt>
      <trkpt lat="42.91498" lon="0.28622">
        <ele>1367</ele>
        <time>2017-02-09T11:12:03.083Z</time>
      </trkpt>
      <trkpt lat="42.91499" lon="0.28622">
        <ele>1367</ele>
        <time>2017-02-09T11:12:04.083Z</time>
      </trkpt>
      <trkpt lat="42.915" lon="0.28623">
        <ele>1367</ele>
        <time>2017-02-09T11:12:05.083Z</time>
      </trkpt>
      <trkpt lat="42.91501" lon="0.28623">
        <ele>1367</ele>
        <time>2017-02-09T11:12:06.083Z</time>
      </trkpt>
      <trkpt lat="42.91502" lon="0.28623">
        <ele>1367</ele>
        <time>2017-02-09T11:12:07.083Z</time>
      </trkpt>
      <trkpt lat="42.91503" lon="0.28623">
        <ele>1367</ele>
        <time>2017-02-09T11:12:08.083Z</time>
      </trkpt>
      <trkpt lat="42.91504" lon="0.28623">
        <ele>1367</ele>
        <time>2017-02-09T11:12:09.083Z</time>
      </trkpt>
      <trkpt lat="42.91505" lon="0.28623">
        <ele>1367</ele>
        <time>2017-02-09T11:12:10.083Z</time>
      </trkpt>
      <trkpt lat="42.91506" lon="0.28624">
        <ele>1368</ele>
        <time>2017-02-09T11:12:11.083Z</time>
      </trkpt>
      <trkpt lat="42.91507" lon="0.28624">
        <ele>1368</ele>
        <time>2017-02-09T11:12:12.083Z</time>
      </trkpt>
      <trkpt lat="42.91508" lon="0.28624">
        <ele>1367</ele>
        <time>2017-02-09T11:12:13.083Z</time>
      </trkpt>
      <trkpt lat="42.91509" lon="0.28624">
        <ele>1366</ele>
        <time>2017-02-09T11:12:14.083Z</time>
      </trkpt>
      <trkpt lat="42.9151" lon="0.28624">
        <ele>1366</ele>
        <time>2017-02-09T11:12:15.083Z</time>
      </trkpt>
      <trkpt lat="42.91511" lon="0.28625">
        <ele>1366</ele>
        <time>2017-02-09T11:12:16.083Z</time>
      </trkpt>
      <trkpt lat="42.91512" lon="0.28625">
        <ele>1366</ele>
        <time>2017-02-09T11:12:17.083Z</time>
      </trkpt>
      <trkpt lat="42.91513" lon="0.28625">
        <ele>1366</ele>
        <time>2017-02-09T11:12:18.083Z</time>
      </trkpt>
      <trkpt lat="42.91514" lon="0.28625">
        <ele>1366</ele>
        <time>2017-02-09T11:12:19.083Z</time>
      </trkpt>
      <trkpt lat="42.91515" lon="0.28626">
        <ele>1366</ele>
        <time>2017-02-09T11:12:20.083Z</time>
      </trkpt>
      <trkpt lat="42.91516" lon="0.28626">
        <ele>1367</ele>
        <time>2017-02-09T11:12:21.083Z</time>
      </trkpt>
      <trkpt lat="42.91517" lon="0.28626">
        <ele>1367</ele>
        <time>2017-02-09T11:12:22.083Z</time>
      </trkpt>
      <trkpt lat="42.91519" lon="0.28626">
        <ele>1367</ele>
        <time>2017-02-09T11:12:23.083Z</time>
      </trkpt>
      <trkpt lat="42.9152" lon="0.28626">
        <ele>1367</ele>
        <time>2017-02-09T11:12:24.083Z</time>
      </trkpt>
      <trkpt lat="42.91521" lon="0.28626">
        <ele>1367</ele>
        <time>2017-02-09T11:12:25.083Z</time>
      </trkpt>
      <trkpt lat="42.91522" lon="0.28627">
        <ele>1367</ele>
        <time>2017-02-09T11:12:26.083Z</time>
      </trkpt>
      <trkpt lat="42.91523" lon="0.28627">
        <ele>1369</ele>
        <time>2017-02-09T11:12:27.083Z</time>
      </trkpt>
      <trkpt lat="42.91524" lon="0.28627">
        <ele>1369</ele>
        <time>2017-02-09T11:12:28.083Z</time>
      </trkpt>
      <trkpt lat="42.91525" lon="0.28627">
        <ele>1369</ele>
        <time>2017-02-09T11:12:29.083Z</time>
      </trkpt>
      <trkpt lat="42.91526" lon="0.28627">
        <ele>1368</ele>
        <time>2017-02-09T11:12:30.083Z</time>
      </trkpt>
      <trkpt lat="42.91528" lon="0.28627">
        <ele>1368</ele>
        <time>2017-02-09T11:12:31.083Z</time>
      </trkpt>
      <trkpt lat="42.91529" lon="0.28628">
        <ele>1369</ele>
        <time>2017-02-09T11:12:32.083Z</time>
      </trkpt>
      <trkpt lat="42.9153" lon="0.28628">
        <ele>1369</ele>
        <time>2017-02-09T11:12:33.083Z</time>
      </trkpt>
      <trkpt lat="42.91531" lon="0.28628">
        <ele>1368</ele>
        <time>2017-02-09T11:12:34.083Z</time>
      </trkpt>
      <trkpt lat="42.91531" lon="0.28628">
        <ele>1367</ele>
        <time>2017-02-09T11:12:35.083Z</time>
      </trkpt>
      <trkpt lat="42.91532" lon="0.28629">
        <ele>1366</ele>
        <time>2017-02-09T11:12:36.083Z</time>
      </trkpt>
      <trkpt lat="42.91533" lon="0.28629">
        <ele>1366</ele>
        <time>2017-02-09T11:12:37.083Z</time>
      </trkpt>
      <trkpt lat="42.91534" lon="0.28629">
        <ele>1367</ele>
        <time>2017-02-09T11:12:38.083Z</time>
      </trkpt>
      <trkpt lat="42.91535" lon="0.2863">
        <ele>1366</ele>
        <time>2017-02-09T11:12:39.083Z</time>
      </trkpt>
      <trkpt lat="42.91536" lon="0.2863">
        <ele>1365</ele>
        <time>2017-02-09T11:12:40.083Z</time>
      </trkpt>
      <trkpt lat="42.91537" lon="0.2863">
        <ele>1365</ele>
        <time>2017-02-09T11:12:41.083Z</time>
      </trkpt>
      <trkpt lat="42.91538" lon="0.28631">
        <ele>1365</ele>
        <time>2017-02-09T11:12:42.083Z</time>
      </trkpt>
      <trkpt lat="42.91539" lon="0.28631">
        <ele>1366</ele>
        <time>2017-02-09T11:12:43.083Z</time>
      </trkpt>
      <trkpt lat="42.9154" lon="0.28631">
        <ele>1366</ele>
        <time>2017-02-09T11:12:44.083Z</time>
      </trkpt>
      <trkpt lat="42.91541" lon="0.28631">
        <ele>1366</ele>
        <time>2017-02-09T11:12:45.083Z</time>
      </trkpt>
      <trkpt lat="42.91542" lon="0.28631">
        <ele>1366</ele>
        <time>2017-02-09T11:12:46.083Z</time>
      </trkpt>
      <trkpt lat="42.91543" lon="0.28632">
        <ele>1367</ele>
        <time>2017-02-09T11:12:47.083Z</time>
      </trkpt>
      <trkpt lat="42.91544" lon="0.28632">
        <ele>1367</ele>
        <time>2017-02-09T11:12:48.083Z</time>
      </trkpt>
      <trkpt lat="42.91545" lon="0.28632">
        <ele>1366</ele>
        <time>2017-02-09T11:12:49.083Z</time>
      </trkpt>
      <trkpt lat="42.91546" lon="0.28632">
        <ele>1367</ele>
        <time>2017-02-09T11:12:50.083Z</time>
      </trkpt>
      <trkpt lat="42.91547" lon="0.28632">
        <ele>1368</ele>
        <time>2017-02-09T11:12:51.083Z</time>
      </trkpt>
      <trkpt lat="42.91549" lon="0.28632">
        <ele>1368</ele>
        <time>2017-02-09T11:12:52.083Z</time>
      </trkpt>
      <trkpt lat="42.9155" lon="0.28633">
        <ele>1368</ele>
        <time>2017-02-09T11:12:53.083Z</time>
      </trkpt>
      <trkpt lat="42.91551" lon="0.28633">
        <ele>1369</ele>
        <time>2017-02-09T11:12:54.083Z</time>
      </trkpt>
      <trkpt lat="42.91552" lon="0.28633">
        <ele>1369</ele>
        <time>2017-02-09T11:12:55.083Z</time>
      </trkpt>
      <trkpt lat="42.91553" lon="0.28633">
        <ele>1369</ele>
        <time>2017-02-09T11:12:56.083Z</time>
      </trkpt>
      <trkpt lat="42.91554" lon="0.28633">
        <ele>1370</ele>
        <time>2017-02-09T11:12:57.083Z</time>
      </trkpt>
      <trkpt lat="42.91555" lon="0.28633">
        <ele>1370</ele>
        <time>2017-02-09T11:12:58.083Z</time>
      </trkpt>
      <trkpt lat="42.91556" lon="0.28633">
        <ele>1370</ele>
        <time>2017-02-09T11:12:59.083Z</time>
      </trkpt>
      <trkpt lat="42.91557" lon="0.28634">
        <ele>1371</ele>
        <time>2017-02-09T11:13:00.083Z</time>
      </trkpt>
      <trkpt lat="42.91558" lon="0.28634">
        <ele>1372</ele>
        <time>2017-02-09T11:13:01.083Z</time>
      </trkpt>
      <trkpt lat="42.91559" lon="0.28634">
        <ele>1372</ele>
        <time>2017-02-09T11:13:02.083Z</time>
      </trkpt>
      <trkpt lat="42.91561" lon="0.28634">
        <ele>1371</ele>
        <time>2017-02-09T11:13:03.083Z</time>
      </trkpt>
      <trkpt lat="42.91562" lon="0.28634">
        <ele>1372</ele>
        <time>2017-02-09T11:13:04.083Z</time>
      </trkpt>
      <trkpt lat="42.91563" lon="0.28634">
        <ele>1372</ele>
        <time>2017-02-09T11:13:05.083Z</time>
      </trkpt>
      <trkpt lat="42.91564" lon="0.28634">
        <ele>1372</ele>
        <time>2017-02-09T11:13:06.083Z</time>
      </trkpt>
      <trkpt lat="42.91565" lon="0.28635">
        <ele>1372</ele>
        <time>2017-02-09T11:13:07.083Z</time>
      </trkpt>
      <trkpt lat="42.91566" lon="0.28635">
        <ele>1371</ele>
        <time>2017-02-09T11:13:08.083Z</time>
      </trkpt>
      <trkpt lat="42.91567" lon="0.28635">
        <ele>1372</ele>
        <time>2017-02-09T11:13:09.083Z</time>
      </trkpt>
      <trkpt lat="42.91568" lon="0.28635">
        <ele>1372</ele>
        <time>2017-02-09T11:13:10.083Z</time>
      </trkpt>
      <trkpt lat="42.9157" lon="0.28636">
        <ele>1373</ele>
        <time>2017-02-09T11:13:11.083Z</time>
      </trkpt>
      <trkpt lat="42.91571" lon="0.28636">
        <ele>1374</ele>
        <time>2017-02-09T11:13:12.083Z</time>
      </trkpt>
      <trkpt lat="42.91573" lon="0.28636">
        <ele>1375</ele>
        <time>2017-02-09T11:13:13.083Z</time>
      </trkpt>
      <trkpt lat="42.91575" lon="0.28636">
        <ele>1375</ele>
        <time>2017-02-09T11:13:14.083Z</time>
      </trkpt>
      <trkpt lat="42.91576" lon="0.28637">
        <ele>1374</ele>
        <time>2017-02-09T11:13:15.083Z</time>
      </trkpt>
      <trkpt lat="42.91577" lon="0.28637">
        <ele>1373</ele>
        <time>2017-02-09T11:13:16.083Z</time>
      </trkpt>
      <trkpt lat="42.91577" lon="0.28638">
        <ele>1372</ele>
        <time>2017-02-09T11:13:17.083Z</time>
      </trkpt>
      <trkpt lat="42.91578" lon="0.28639">
        <ele>1370</ele>
        <time>2017-02-09T11:13:18.083Z</time>
      </trkpt>
      <trkpt lat="42.91579" lon="0.28639">
        <ele>1370</ele>
        <time>2017-02-09T11:13:19.083Z</time>
      </trkpt>
      <trkpt lat="42.91579" lon="0.2864">
        <ele>1369</ele>
        <time>2017-02-09T11:13:20.083Z</time>
      </trkpt>
      <trkpt lat="42.9158" lon="0.2864">
        <ele>1368</ele>
        <time>2017-02-09T11:13:21.083Z</time>
      </trkpt>
      <trkpt lat="42.91581" lon="0.28641">
        <ele>1368</ele>
        <time>2017-02-09T11:13:22.083Z</time>
      </trkpt>
      <trkpt lat="42.91582" lon="0.28641">
        <ele>1368</ele>
        <time>2017-02-09T11:13:23.083Z</time>
      </trkpt>
      <trkpt lat="42.91583" lon="0.28642">
        <ele>1367</ele>
        <time>2017-02-09T11:13:24.083Z</time>
      </trkpt>
      <trkpt lat="42.91584" lon="0.28642">
        <ele>1368</ele>
        <time>2017-02-09T11:13:25.083Z</time>
      </trkpt>
      <trkpt lat="42.91585" lon="0.28642">
        <ele>1368</ele>
        <time>2017-02-09T11:13:26.083Z</time>
      </trkpt>
      <trkpt lat="42.91586" lon="0.28643">
        <ele>1368</ele>
        <time>2017-02-09T11:13:27.083Z</time>
      </trkpt>
      <trkpt lat="42.91587" lon="0.28643">
        <ele>1368</ele>
        <time>2017-02-09T11:13:28.083Z</time>
      </trkpt>
      <trkpt lat="42.91588" lon="0.28643">
        <ele>1369</ele>
        <time>2017-02-09T11:13:29.083Z</time>
      </trkpt>
      <trkpt lat="42.91589" lon="0.28644">
        <ele>1369</ele>
        <time>2017-02-09T11:13:30.083Z</time>
      </trkpt>
      <trkpt lat="42.9159" lon="0.28644">
        <ele>1369</ele>
        <time>2017-02-09T11:13:31.083Z</time>
      </trkpt>
      <trkpt lat="42.91592" lon="0.28644">
        <ele>1369</ele>
        <time>2017-02-09T11:13:32.083Z</time>
      </trkpt>
      <trkpt lat="42.91593" lon="0.28645">
        <ele>1370</ele>
        <time>2017-02-09T11:13:33.083Z</time>
      </trkpt>
      <trkpt lat="42.91594" lon="0.28645">
        <ele>1370</ele>
        <time>2017-02-09T11:13:34.083Z</time>
      </trkpt>
      <trkpt lat="42.91596" lon="0.28645">
        <ele>1371</ele>
        <time>2017-02-09T11:13:35.083Z</time>
      </trkpt>
      <trkpt lat="42.91597" lon="0.28646">
        <ele>1371</ele>
        <time>2017-02-09T11:13:36.083Z</time>
      </trkpt>
      <trkpt lat="42.91598" lon="0.28646">
        <ele>1371</ele>
        <time>2017-02-09T11:13:37.083Z</time>
      </trkpt>
      <trkpt lat="42.91599" lon="0.28646">
        <ele>1371</ele>
        <time>2017-02-09T11:13:38.083Z</time>
      </trkpt>
      <trkpt lat="42.916" lon="0.28647">
        <ele>1371</ele>
        <time>2017-02-09T11:13:39.083Z</time>
      </trkpt>
      <trkpt lat="42.91602" lon="0.28647">
        <ele>1371</ele>
        <time>2017-02-09T11:13:40.083Z</time>
      </trkpt>
      <trkpt lat="42.91603" lon="0.28647">
        <ele>1371</ele>
        <time>2017-02-09T11:13:41.083Z</time>
      </trkpt>
      <trkpt lat="42.91604" lon="0.28648">
        <ele>1372</ele>
        <time>2017-02-09T11:13:42.083Z</time>
      </trkpt>
      <trkpt lat="42.91605" lon="0.28648">
        <ele>1371</ele>
        <time>2017-02-09T11:13:43.083Z</time>
      </trkpt>
      <trkpt lat="42.91606" lon="0.28648">
        <ele>1371</ele>
        <time>2017-02-09T11:13:44.083Z</time>
      </trkpt>
      <trkpt lat="42.91607" lon="0.28649">
        <ele>1370</ele>
        <time>2017-02-09T11:13:45.083Z</time>
      </trkpt>
      <trkpt lat="42.91608" lon="0.28649">
        <ele>1369</ele>
        <time>2017-02-09T11:13:46.083Z</time>
      </trkpt>
      <trkpt lat="42.91608" lon="0.2865">
        <ele>1369</ele>
        <time>2017-02-09T11:13:47.083Z</time>
      </trkpt>
      <trkpt lat="42.91609" lon="0.2865">
        <ele>1368</ele>
        <time>2017-02-09T11:13:48.083Z</time>
      </trkpt>
      <trkpt lat="42.9161" lon="0.28651">
        <ele>1367</ele>
        <time>2017-02-09T11:13:49.083Z</time>
      </trkpt>
      <trkpt lat="42.91611" lon="0.28651">
        <ele>1367</ele>
        <time>2017-02-09T11:13:50.083Z</time>
      </trkpt>
      <trkpt lat="42.91611" lon="0.28651">
        <ele>1365</ele>
        <time>2017-02-09T11:13:51.083Z</time>
      </trkpt>
      <trkpt lat="42.91612" lon="0.28652">
        <ele>1364</ele>
        <time>2017-02-09T11:13:52.083Z</time>
      </trkpt>
      <trkpt lat="42.91613" lon="0.28652">
        <ele>1364</ele>
        <time>2017-02-09T11:13:53.083Z</time>
      </trkpt>
      <trkpt lat="42.91614" lon="0.28653">
        <ele>1364</ele>
        <time>2017-02-09T11:13:54.083Z</time>
      </trkpt>
      <trkpt lat="42.91615" lon="0.28653">
        <ele>1364</ele>
        <time>2017-02-09T11:13:55.083Z</time>
      </trkpt>
      <trkpt lat="42.91616" lon="0.28653">
        <ele>1364</ele>
        <time>2017-02-09T11:13:56.083Z</time>
      </trkpt>
      <trkpt lat="42.91617" lon="0.28653">
        <ele>1364</ele>
        <time>2017-02-09T11:13:57.083Z</time>
      </trkpt>
      <trkpt lat="42.91618" lon="0.28653">
        <ele>1364</ele>
        <time>2017-02-09T11:13:58.083Z</time>
      </trkpt>
      <trkpt lat="42.91619" lon="0.28653">
        <ele>1365</ele>
        <time>2017-02-09T11:13:59.083Z</time>
      </trkpt>
      <trkpt lat="42.9162" lon="0.28653">
        <ele>1365</ele>
        <time>2017-02-09T11:14:00.083Z</time>
      </trkpt>
      <trkpt lat="42.91622" lon="0.28653">
        <ele>1367</ele>
        <time>2017-02-09T11:14:01.083Z</time>
      </trkpt>
      <trkpt lat="42.91623" lon="0.28653">
        <ele>1368</ele>
        <time>2017-02-09T11:14:02.083Z</time>
      </trkpt>
      <trkpt lat="42.91625" lon="0.28652">
        <ele>1368</ele>
        <time>2017-02-09T11:14:03.083Z</time>
      </trkpt>
      <trkpt lat="42.91626" lon="0.28652">
        <ele>1368</ele>
        <time>2017-02-09T11:14:04.083Z</time>
      </trkpt>
      <trkpt lat="42.91627" lon="0.28652">
        <ele>1368</ele>
        <time>2017-02-09T11:14:05.083Z</time>
      </trkpt>
      <trkpt lat="42.91628" lon="0.28651">
        <ele>1369</ele>
        <time>2017-02-09T11:14:06.083Z</time>
      </trkpt>
      <trkpt lat="42.91629" lon="0.28651">
        <ele>1369</ele>
        <time>2017-02-09T11:14:07.083Z</time>
      </trkpt>
      <trkpt lat="42.9163" lon="0.28651">
        <ele>1369</ele>
        <time>2017-02-09T11:14:08.083Z</time>
      </trkpt>
      <trkpt lat="42.91632" lon="0.2865">
        <ele>1369</ele>
        <time>2017-02-09T11:14:09.083Z</time>
      </trkpt>
      <trkpt lat="42.91633" lon="0.2865">
        <ele>1369</ele>
        <time>2017-02-09T11:14:10.083Z</time>
      </trkpt>
      <trkpt lat="42.91634" lon="0.2865">
        <ele>1369</ele>
        <time>2017-02-09T11:14:11.083Z</time>
      </trkpt>
      <trkpt lat="42.91635" lon="0.28649">
        <ele>1369</ele>
        <time>2017-02-09T11:14:12.083Z</time>
      </trkpt>
      <trkpt lat="42.91636" lon="0.28649">
        <ele>1368</ele>
        <time>2017-02-09T11:14:13.083Z</time>
      </trkpt>
      <trkpt lat="42.91636" lon="0.28648">
        <ele>1368</ele>
        <time>2017-02-09T11:14:14.083Z</time>
      </trkpt>
      <trkpt lat="42.91637" lon="0.28648">
        <ele>1368</ele>
        <time>2017-02-09T11:14:15.083Z</time>
      </trkpt>
      <trkpt lat="42.91638" lon="0.28647">
        <ele>1368</ele>
        <time>2017-02-09T11:14:16.083Z</time>
      </trkpt>
      <trkpt lat="42.9164" lon="0.28647">
        <ele>1368</ele>
        <time>2017-02-09T11:14:17.083Z</time>
      </trkpt>
      <trkpt lat="42.91641" lon="0.28646">
        <ele>1369</ele>
        <time>2017-02-09T11:14:18.083Z</time>
      </trkpt>
      <trkpt lat="42.91642" lon="0.28646">
        <ele>1369</ele>
        <time>2017-02-09T11:14:19.083Z</time>
      </trkpt>
      <trkpt lat="42.91643" lon="0.28645">
        <ele>1369</ele>
        <time>2017-02-09T11:14:20.083Z</time>
      </trkpt>
      <trkpt lat="42.91644" lon="0.28645">
        <ele>1369</ele>
        <time>2017-02-09T11:14:21.083Z</time>
      </trkpt>
      <trkpt lat="42.91645" lon="0.28644">
        <ele>1368</ele>
        <time>2017-02-09T11:14:22.083Z</time>
      </trkpt>
      <trkpt lat="42.91646" lon="0.28644">
        <ele>1368</ele>
        <time>2017-02-09T11:14:23.083Z</time>
      </trkpt>
      <trkpt lat="42.91647" lon="0.28644">
        <ele>1367</ele>
        <time>2017-02-09T11:14:24.083Z</time>
      </trkpt>
      <trkpt lat="42.91648" lon="0.28643">
        <ele>1367</ele>
        <time>2017-02-09T11:14:25.083Z</time>
      </trkpt>
      <trkpt lat="42.91648" lon="0.28643">
        <ele>1366</ele>
        <time>2017-02-09T11:14:26.083Z</time>
      </trkpt>
      <trkpt lat="42.91649" lon="0.28642">
        <ele>1365</ele>
        <time>2017-02-09T11:14:27.083Z</time>
      </trkpt>
      <trkpt lat="42.9165" lon="0.28642">
        <ele>1364</ele>
        <time>2017-02-09T11:14:28.083Z</time>
      </trkpt>
      <trkpt lat="42.9165" lon="0.28641">
        <ele>1364</ele>
        <time>2017-02-09T11:14:29.083Z</time>
      </trkpt>
      <trkpt lat="42.91651" lon="0.28641">
        <ele>1365</ele>
        <time>2017-02-09T11:14:30.083Z</time>
      </trkpt>
      <trkpt lat="42.91653" lon="0.2864">
        <ele>1365</ele>
        <time>2017-02-09T11:14:31.083Z</time>
      </trkpt>
      <trkpt lat="42.91654" lon="0.2864">
        <ele>1365</ele>
        <time>2017-02-09T11:14:32.083Z</time>
      </trkpt>
      <trkpt lat="42.91654" lon="0.28639">
        <ele>1365</ele>
        <time>2017-02-09T11:14:33.083Z</time>
      </trkpt>
      <trkpt lat="42.91655" lon="0.28638">
        <ele>1364</ele>
        <time>2017-02-09T11:14:34.083Z</time>
      </trkpt>
      <trkpt lat="42.91656" lon="0.28638">
        <ele>1363</ele>
        <time>2017-02-09T11:14:35.083Z</time>
      </trkpt>
      <trkpt lat="42.91656" lon="0.28637">
        <ele>1363</ele>
        <time>2017-02-09T11:14:36.083Z</time>
      </trkpt>
      <trkpt lat="42.91657" lon="0.28637">
        <ele>1363</ele>
        <time>2017-02-09T11:14:37.083Z</time>
      </trkpt>
      <trkpt lat="42.91658" lon="0.28636">
        <ele>1363</ele>
        <time>2017-02-09T11:14:38.083Z</time>
      </trkpt>
      <trkpt lat="42.91659" lon="0.28636">
        <ele>1364</ele>
        <time>2017-02-09T11:14:39.083Z</time>
      </trkpt>
      <trkpt lat="42.91661" lon="0.28635">
        <ele>1364</ele>
        <time>2017-02-09T11:14:40.083Z</time>
      </trkpt>
      <trkpt lat="42.91662" lon="0.28634">
        <ele>1365</ele>
        <time>2017-02-09T11:14:41.083Z</time>
      </trkpt>
      <trkpt lat="42.91663" lon="0.28634">
        <ele>1366</ele>
        <time>2017-02-09T11:14:42.083Z</time>
      </trkpt>
      <trkpt lat="42.91665" lon="0.28633">
        <ele>1367</ele>
        <time>2017-02-09T11:14:43.083Z</time>
      </trkpt>
      <trkpt lat="42.91666" lon="0.28632">
        <ele>1367</ele>
        <time>2017-02-09T11:14:44.083Z</time>
      </trkpt>
      <trkpt lat="42.91667" lon="0.28632">
        <ele>1367</ele>
        <time>2017-02-09T11:14:45.083Z</time>
      </trkpt>
      <trkpt lat="42.91668" lon="0.28631">
        <ele>1367</ele>
        <time>2017-02-09T11:14:46.083Z</time>
      </trkpt>
      <trkpt lat="42.91669" lon="0.28631">
        <ele>1368</ele>
        <time>2017-02-09T11:14:47.083Z</time>
      </trkpt>
      <trkpt lat="42.91671" lon="0.2863">
        <ele>1368</ele>
        <time>2017-02-09T11:14:48.083Z</time>
      </trkpt>
      <trkpt lat="42.91672" lon="0.28629">
        <ele>1370</ele>
        <time>2017-02-09T11:14:49.083Z</time>
      </trkpt>
      <trkpt lat="42.91673" lon="0.28629">
        <ele>1370</ele>
        <time>2017-02-09T11:14:50.083Z</time>
      </trkpt>
      <trkpt lat="42.91675" lon="0.28628">
        <ele>1371</ele>
        <time>2017-02-09T11:14:51.083Z</time>
      </trkpt>
      <trkpt lat="42.91676" lon="0.28627">
        <ele>1371</ele>
        <time>2017-02-09T11:14:52.083Z</time>
      </trkpt>
      <trkpt lat="42.91677" lon="0.28627">
        <ele>1372</ele>
        <time>2017-02-09T11:14:53.083Z</time>
      </trkpt>
      <trkpt lat="42.91679" lon="0.28626">
        <ele>1373</ele>
        <time>2017-02-09T11:14:54.083Z</time>
      </trkpt>
      <trkpt lat="42.9168" lon="0.28626">
        <ele>1373</ele>
        <time>2017-02-09T11:14:55.083Z</time>
      </trkpt>
      <trkpt lat="42.91681" lon="0.28625">
        <ele>1373</ele>
        <time>2017-02-09T11:14:56.083Z</time>
      </trkpt>
      <trkpt lat="42.91682" lon="0.28625">
        <ele>1372</ele>
        <time>2017-02-09T11:14:57.083Z</time>
      </trkpt>
      <trkpt lat="42.91683" lon="0.28625">
        <ele>1371</ele>
        <time>2017-02-09T11:14:58.083Z</time>
      </trkpt>
      <trkpt lat="42.91684" lon="0.28625">
        <ele>1370</ele>
        <time>2017-02-09T11:14:59.083Z</time>
      </trkpt>
      <trkpt lat="42.91684" lon="0.28625">
        <ele>1368</ele>
        <time>2017-02-09T11:15:00.083Z</time>
      </trkpt>
      <trkpt lat="42.91685" lon="0.28624">
        <ele>1367</ele>
        <time>2017-02-09T11:15:01.083Z</time>
      </trkpt>
      <trkpt lat="42.91686" lon="0.28624">
        <ele>1367</ele>
        <time>2017-02-09T11:15:02.083Z</time>
      </trkpt>
      <trkpt lat="42.91687" lon="0.28624">
        <ele>1366</ele>
        <time>2017-02-09T11:15:03.083Z</time>
      </trkpt>
      <trkpt lat="42.91688" lon="0.28624">
        <ele>1366</ele>
        <time>2017-02-09T11:15:04.083Z</time>
      </trkpt>
      <trkpt lat="42.91689" lon="0.28624">
        <ele>1366</ele>
        <time>2017-02-09T11:15:05.083Z</time>
      </trkpt>
      <trkpt lat="42.9169" lon="0.28623">
        <ele>1365</ele>
        <time>2017-02-09T11:15:06.083Z</time>
      </trkpt>
      <trkpt lat="42.91691" lon="0.28623">
        <ele>1365</ele>
        <time>2017-02-09T11:15:07.083Z</time>
      </trkpt>
      <trkpt lat="42.91691" lon="0.28623">
        <ele>1364</ele>
        <time>2017-02-09T11:15:08.083Z</time>
      </trkpt>
      <trkpt lat="42.91692" lon="0.28622">
        <ele>1364</ele>
        <time>2017-02-09T11:15:09.083Z</time>
      </trkpt>
      <trkpt lat="42.91693" lon="0.28622">
        <ele>1363</ele>
        <time>2017-02-09T11:15:10.083Z</time>
      </trkpt>
      <trkpt lat="42.91694" lon="0.28622">
        <ele>1362</ele>
        <time>2017-02-09T11:15:11.083Z</time>
      </trkpt>
      <trkpt lat="42.91694" lon="0.28622">
        <ele>1361</ele>
        <time>2017-02-09T11:15:12.083Z</time>
      </trkpt>
      <trkpt lat="42.91695" lon="0.28621">
        <ele>1360</ele>
        <time>2017-02-09T11:15:13.083Z</time>
      </trkpt>
      <trkpt lat="42.91695" lon="0.28621">
        <ele>1358</ele>
        <time>2017-02-09T11:15:14.083Z</time>
      </trkpt>
      <trkpt lat="42.91696" lon="0.28621">
        <ele>1358</ele>
        <time>2017-02-09T11:15:15.083Z</time>
      </trkpt>
      <trkpt lat="42.91697" lon="0.28621">
        <ele>1357</ele>
        <time>2017-02-09T11:15:16.083Z</time>
      </trkpt>
      <trkpt lat="42.91697" lon="0.28621">
        <ele>1356</ele>
        <time>2017-02-09T11:15:17.083Z</time>
      </trkpt>
      <trkpt lat="42.91698" lon="0.28621">
        <ele>1355</ele>
        <time>2017-02-09T11:15:18.083Z</time>
      </trkpt>
      <trkpt lat="42.91699" lon="0.28621">
        <ele>1353</ele>
        <time>2017-02-09T11:15:19.083Z</time>
      </trkpt>
      <trkpt lat="42.91699" lon="0.28621">
        <ele>1352</ele>
        <time>2017-02-09T11:15:20.083Z</time>
      </trkpt>
      <trkpt lat="42.917" lon="0.2862">
        <ele>1351</ele>
        <time>2017-02-09T11:15:21.083Z</time>
      </trkpt>
      <trkpt lat="42.91701" lon="0.2862">
        <ele>1351</ele>
        <time>2017-02-09T11:15:22.083Z</time>
      </trkpt>
      <trkpt lat="42.91701" lon="0.2862">
        <ele>1351</ele>
        <time>2017-02-09T11:15:23.083Z</time>
      </trkpt>
      <trkpt lat="42.91702" lon="0.2862">
        <ele>1350</ele>
        <time>2017-02-09T11:15:24.083Z</time>
      </trkpt>
      <trkpt lat="42.91703" lon="0.28619">
        <ele>1351</ele>
        <time>2017-02-09T11:15:25.083Z</time>
      </trkpt>
      <trkpt lat="42.91704" lon="0.28619">
        <ele>1350</ele>
        <time>2017-02-09T11:15:26.083Z</time>
      </trkpt>
      <trkpt lat="42.91705" lon="0.28619">
        <ele>1349</ele>
        <time>2017-02-09T11:15:27.083Z</time>
      </trkpt>
      <trkpt lat="42.91706" lon="0.28619">
        <ele>1349</ele>
        <time>2017-02-09T11:15:28.083Z</time>
      </trkpt>
      <trkpt lat="42.91707" lon="0.28619">
        <ele>1348</ele>
        <time>2017-02-09T11:15:29.083Z</time>
      </trkpt>
      <trkpt lat="42.91707" lon="0.28618">
        <ele>1347</ele>
        <time>2017-02-09T11:15:30.083Z</time>
      </trkpt>
      <trkpt lat="42.91708" lon="0.28618">
        <ele>1346</ele>
        <time>2017-02-09T11:15:31.083Z</time>
      </trkpt>
      <trkpt lat="42.91709" lon="0.28618">
        <ele>1345</ele>
        <time>2017-02-09T11:15:32.083Z</time>
      </trkpt>
      <trkpt lat="42.9171" lon="0.28618">
        <ele>1344</ele>
        <time>2017-02-09T11:15:33.083Z</time>
      </trkpt>
      <trkpt lat="42.9171" lon="0.28618">
        <ele>1344</ele>
        <time>2017-02-09T11:15:34.083Z</time>
      </trkpt>
      <trkpt lat="42.91711" lon="0.28618">
        <ele>1343</ele>
        <time>2017-02-09T11:15:35.083Z</time>
      </trkpt>
      <trkpt lat="42.91712" lon="0.28618">
        <ele>1342</ele>
        <time>2017-02-09T11:15:36.083Z</time>
      </trkpt>
      <trkpt lat="42.91713" lon="0.28618">
        <ele>1342</ele>
        <time>2017-02-09T11:15:37.083Z</time>
      </trkpt>
      <trkpt lat="42.91714" lon="0.28618">
        <ele>1341</ele>
        <time>2017-02-09T11:15:38.083Z</time>
      </trkpt>
      <trkpt lat="42.91715" lon="0.28618">
        <ele>1340</ele>
        <time>2017-02-09T11:15:39.083Z</time>
      </trkpt>
      <trkpt lat="42.91715" lon="0.28617">
        <ele>1340</ele>
        <time>2017-02-09T11:15:40.083Z</time>
      </trkpt>
      <trkpt lat="42.91716" lon="0.28617">
        <ele>1340</ele>
        <time>2017-02-09T11:15:41.083Z</time>
      </trkpt>
      <trkpt lat="42.91717" lon="0.28617">
        <ele>1340</ele>
        <time>2017-02-09T11:15:42.083Z</time>
      </trkpt>
      <trkpt lat="42.91719" lon="0.28617">
        <ele>1339</ele>
        <time>2017-02-09T11:15:43.083Z</time>
      </trkpt>
      <trkpt lat="42.91719" lon="0.28617">
        <ele>1339</ele>
        <time>2017-02-09T11:15:44.083Z</time>
      </trkpt>
      <trkpt lat="42.9172" lon="0.28617">
        <ele>1339</ele>
        <time>2017-02-09T11:15:45.083Z</time>
      </trkpt>
      <trkpt lat="42.91721" lon="0.28617">
        <ele>1338</ele>
        <time>2017-02-09T11:15:46.083Z</time>
      </trkpt>
      <trkpt lat="42.91722" lon="0.28617">
        <ele>1338</ele>
        <time>2017-02-09T11:15:47.083Z</time>
      </trkpt>
      <trkpt lat="42.91723" lon="0.28617">
        <ele>1338</ele>
        <time>2017-02-09T11:15:48.083Z</time>
      </trkpt>
      <trkpt lat="42.91724" lon="0.28617">
        <ele>1338</ele>
        <time>2017-02-09T11:15:49.083Z</time>
      </trkpt>
      <trkpt lat="42.91725" lon="0.28616">
        <ele>1338</ele>
        <time>2017-02-09T11:15:50.083Z</time>
      </trkpt>
      <trkpt lat="42.91726" lon="0.28616">
        <ele>1338</ele>
        <time>2017-02-09T11:15:51.083Z</time>
      </trkpt>
      <trkpt lat="42.91727" lon="0.28616">
        <ele>1338</ele>
        <time>2017-02-09T11:15:52.083Z</time>
      </trkpt>
      <trkpt lat="42.91728" lon="0.28616">
        <ele>1337</ele>
        <time>2017-02-09T11:15:53.083Z</time>
      </trkpt>
      <trkpt lat="42.91729" lon="0.28615">
        <ele>1337</ele>
        <time>2017-02-09T11:15:54.083Z</time>
      </trkpt>
      <trkpt lat="42.9173" lon="0.28615">
        <ele>1337</ele>
        <time>2017-02-09T11:15:55.083Z</time>
      </trkpt>
      <trkpt lat="42.91732" lon="0.28614">
        <ele>1337</ele>
        <time>2017-02-09T11:15:56.083Z</time>
      </trkpt>
      <trkpt lat="42.91733" lon="0.28614">
        <ele>1338</ele>
        <time>2017-02-09T11:15:57.083Z</time>
      </trkpt>
      <trkpt lat="42.91734" lon="0.28614">
        <ele>1338</ele>
        <time>2017-02-09T11:15:58.083Z</time>
      </trkpt>
      <trkpt lat="42.91735" lon="0.28613">
        <ele>1338</ele>
        <time>2017-02-09T11:15:59.083Z</time>
      </trkpt>
      <trkpt lat="42.91736" lon="0.28613">
        <ele>1338</ele>
        <time>2017-02-09T11:16:00.083Z</time>
      </trkpt>
      <trkpt lat="42.91737" lon="0.28613">
        <ele>1338</ele>
        <time>2017-02-09T11:16:01.083Z</time>
      </trkpt>
      <trkpt lat="42.91738" lon="0.28613">
        <ele>1338</ele>
        <time>2017-02-09T11:16:02.083Z</time>
      </trkpt>
      <trkpt lat="42.91739" lon="0.28613">
        <ele>1338</ele>
        <time>2017-02-09T11:16:03.083Z</time>
      </trkpt>
      <trkpt lat="42.91741" lon="0.28613">
        <ele>1338</ele>
        <time>2017-02-09T11:16:04.083Z</time>
      </trkpt>
      <trkpt lat="42.91742" lon="0.28613">
        <ele>1338</ele>
        <time>2017-02-09T11:16:05.083Z</time>
      </trkpt>
      <trkpt lat="42.91743" lon="0.28613">
        <ele>1338</ele>
        <time>2017-02-09T11:16:06.083Z</time>
      </trkpt>
      <trkpt lat="42.91744" lon="0.28612">
        <ele>1338</ele>
        <time>2017-02-09T11:16:07.083Z</time>
      </trkpt>
      <trkpt lat="42.91745" lon="0.28612">
        <ele>1338</ele>
        <time>2017-02-09T11:16:08.083Z</time>
      </trkpt>
      <trkpt lat="42.91746" lon="0.28612">
        <ele>1338</ele>
        <time>2017-02-09T11:16:09.083Z</time>
      </trkpt>
      <trkpt lat="42.91747" lon="0.28612">
        <ele>1337</ele>
        <time>2017-02-09T11:16:10.083Z</time>
      </trkpt>
      <trkpt lat="42.91748" lon="0.28611">
        <ele>1337</ele>
        <time>2017-02-09T11:16:11.083Z</time>
      </trkpt>
      <trkpt lat="42.91749" lon="0.28611">
        <ele>1338</ele>
        <time>2017-02-09T11:16:12.083Z</time>
      </trkpt>
      <trkpt lat="42.9175" lon="0.28611">
        <ele>1338</ele>
        <time>2017-02-09T11:16:13.083Z</time>
      </trkpt>
      <trkpt lat="42.91751" lon="0.2861">
        <ele>1338</ele>
        <time>2017-02-09T11:16:14.083Z</time>
      </trkpt>
      <trkpt lat="42.91752" lon="0.2861">
        <ele>1338</ele>
        <time>2017-02-09T11:16:15.083Z</time>
      </trkpt>
      <trkpt lat="42.91753" lon="0.2861">
        <ele>1338</ele>
        <time>2017-02-09T11:16:16.083Z</time>
      </trkpt>
      <trkpt lat="42.91754" lon="0.2861">
        <ele>1338</ele>
        <time>2017-02-09T11:16:17.083Z</time>
      </trkpt>
      <trkpt lat="42.91755" lon="0.28609">
        <ele>1338</ele>
        <time>2017-02-09T11:16:18.083Z</time>
      </trkpt>
      <trkpt lat="42.91756" lon="0.28609">
        <ele>1337</ele>
        <time>2017-02-09T11:16:19.083Z</time>
      </trkpt>
      <trkpt lat="42.91757" lon="0.28609">
        <ele>1337</ele>
        <time>2017-02-09T11:16:20.083Z</time>
      </trkpt>
      <trkpt lat="42.91758" lon="0.28609">
        <ele>1337</ele>
        <time>2017-02-09T11:16:21.083Z</time>
      </trkpt>
      <trkpt lat="42.91759" lon="0.28609">
        <ele>1336</ele>
        <time>2017-02-09T11:16:22.083Z</time>
      </trkpt>
      <trkpt lat="42.9176" lon="0.28609">
        <ele>1336</ele>
        <time>2017-02-09T11:16:23.083Z</time>
      </trkpt>
      <trkpt lat="42.91761" lon="0.28608">
        <ele>1336</ele>
        <time>2017-02-09T11:16:24.083Z</time>
      </trkpt>
      <trkpt lat="42.91762" lon="0.28608">
        <ele>1335</ele>
        <time>2017-02-09T11:16:25.083Z</time>
      </trkpt>
      <trkpt lat="42.91763" lon="0.28608">
        <ele>1335</ele>
        <time>2017-02-09T11:16:26.083Z</time>
      </trkpt>
      <trkpt lat="42.91764" lon="0.28608">
        <ele>1336</ele>
        <time>2017-02-09T11:16:27.083Z</time>
      </trkpt>
      <trkpt lat="42.91765" lon="0.28607">
        <ele>1336</ele>
        <time>2017-02-09T11:16:28.083Z</time>
      </trkpt>
      <trkpt lat="42.91766" lon="0.28607">
        <ele>1336</ele>
        <time>2017-02-09T11:16:29.083Z</time>
      </trkpt>
      <trkpt lat="42.91767" lon="0.28607">
        <ele>1336</ele>
        <time>2017-02-09T11:16:30.083Z</time>
      </trkpt>
      <trkpt lat="42.91769" lon="0.28607">
        <ele>1336</ele>
        <time>2017-02-09T11:16:31.083Z</time>
      </trkpt>
      <trkpt lat="42.9177" lon="0.28606">
        <ele>1337</ele>
        <time>2017-02-09T11:16:32.083Z</time>
      </trkpt>
      <trkpt lat="42.91771" lon="0.28606">
        <ele>1336</ele>
        <time>2017-02-09T11:16:33.083Z</time>
      </trkpt>
      <trkpt lat="42.91772" lon="0.28606">
        <ele>1337</ele>
        <time>2017-02-09T11:16:34.083Z</time>
      </trkpt>
      <trkpt lat="42.91773" lon="0.28606">
        <ele>1337</ele>
        <time>2017-02-09T11:16:35.083Z</time>
      </trkpt>
      <trkpt lat="42.91774" lon="0.28605">
        <ele>1337</ele>
        <time>2017-02-09T11:16:36.083Z</time>
      </trkpt>
      <trkpt lat="42.91776" lon="0.28605">
        <ele>1337</ele>
        <time>2017-02-09T11:16:37.083Z</time>
      </trkpt>
      <trkpt lat="42.91777" lon="0.28605">
        <ele>1336</ele>
        <time>2017-02-09T11:16:38.083Z</time>
      </trkpt>
      <trkpt lat="42.91778" lon="0.28605">
        <ele>1336</ele>
        <time>2017-02-09T11:16:39.083Z</time>
      </trkpt>
      <trkpt lat="42.91779" lon="0.28605">
        <ele>1336</ele>
        <time>2017-02-09T11:16:40.083Z</time>
      </trkpt>
      <trkpt lat="42.9178" lon="0.28605">
        <ele>1335</ele>
        <time>2017-02-09T11:16:41.083Z</time>
      </trkpt>
      <trkpt lat="42.91781" lon="0.28605">
        <ele>1334</ele>
        <time>2017-02-09T11:16:42.083Z</time>
      </trkpt>
      <trkpt lat="42.91781" lon="0.28605">
        <ele>1333</ele>
        <time>2017-02-09T11:16:43.083Z</time>
      </trkpt>
      <trkpt lat="42.91782" lon="0.28605">
        <ele>1333</ele>
        <time>2017-02-09T11:16:44.083Z</time>
      </trkpt>
      <trkpt lat="42.91783" lon="0.28605">
        <ele>1332</ele>
        <time>2017-02-09T11:16:45.083Z</time>
      </trkpt>
      <trkpt lat="42.91784" lon="0.28605">
        <ele>1332</ele>
        <time>2017-02-09T11:16:46.083Z</time>
      </trkpt>
      <trkpt lat="42.91785" lon="0.28605">
        <ele>1332</ele>
        <time>2017-02-09T11:16:47.083Z</time>
      </trkpt>
      <trkpt lat="42.91786" lon="0.28605">
        <ele>1332</ele>
        <time>2017-02-09T11:16:48.083Z</time>
      </trkpt>
      <trkpt lat="42.91787" lon="0.28604">
        <ele>1332</ele>
        <time>2017-02-09T11:16:49.083Z</time>
      </trkpt>
      <trkpt lat="42.91788" lon="0.28604">
        <ele>1331</ele>
        <time>2017-02-09T11:16:50.083Z</time>
      </trkpt>
      <trkpt lat="42.91789" lon="0.28604">
        <ele>1330</ele>
        <time>2017-02-09T11:16:51.083Z</time>
      </trkpt>
      <trkpt lat="42.9179" lon="0.28604">
        <ele>1329</ele>
        <time>2017-02-09T11:16:52.083Z</time>
      </trkpt>
      <trkpt lat="42.91791" lon="0.28605">
        <ele>1329</ele>
        <time>2017-02-09T11:16:53.083Z</time>
      </trkpt>
      <trkpt lat="42.91792" lon="0.28605">
        <ele>1329</ele>
        <time>2017-02-09T11:16:54.083Z</time>
      </trkpt>
      <trkpt lat="42.91793" lon="0.28605">
        <ele>1328</ele>
        <time>2017-02-09T11:16:55.083Z</time>
      </trkpt>
      <trkpt lat="42.91794" lon="0.28604">
        <ele>1328</ele>
        <time>2017-02-09T11:16:56.083Z</time>
      </trkpt>
      <trkpt lat="42.91795" lon="0.28604">
        <ele>1328</ele>
        <time>2017-02-09T11:16:57.083Z</time>
      </trkpt>
      <trkpt lat="42.91796" lon="0.28604">
        <ele>1327</ele>
        <time>2017-02-09T11:16:58.083Z</time>
      </trkpt>
      <trkpt lat="42.91797" lon="0.28604">
        <ele>1327</ele>
        <time>2017-02-09T11:16:59.083Z</time>
      </trkpt>
      <trkpt lat="42.91798" lon="0.28604">
        <ele>1327</ele>
        <time>2017-02-09T11:17:00.083Z</time>
      </trkpt>
      <trkpt lat="42.91799" lon="0.28604">
        <ele>1327</ele>
        <time>2017-02-09T11:17:01.083Z</time>
      </trkpt>
      <trkpt lat="42.918" lon="0.28603">
        <ele>1327</ele>
        <time>2017-02-09T11:17:02.083Z</time>
      </trkpt>
      <trkpt lat="42.91801" lon="0.28603">
        <ele>1327</ele>
        <time>2017-02-09T11:17:03.083Z</time>
      </trkpt>
      <trkpt lat="42.91802" lon="0.28603">
        <ele>1327</ele>
        <time>2017-02-09T11:17:04.083Z</time>
      </trkpt>
      <trkpt lat="42.91804" lon="0.28603">
        <ele>1327</ele>
        <time>2017-02-09T11:17:05.083Z</time>
      </trkpt>
      <trkpt lat="42.91805" lon="0.28603">
        <ele>1326</ele>
        <time>2017-02-09T11:17:06.083Z</time>
      </trkpt>
      <trkpt lat="42.91806" lon="0.28603">
        <ele>1326</ele>
        <time>2017-02-09T11:17:07.083Z</time>
      </trkpt>
      <trkpt lat="42.91807" lon="0.28603">
        <ele>1326</ele>
        <time>2017-02-09T11:17:08.083Z</time>
      </trkpt>
      <trkpt lat="42.91808" lon="0.28603">
        <ele>1326</ele>
        <time>2017-02-09T11:17:09.083Z</time>
      </trkpt>
      <trkpt lat="42.91809" lon="0.28603">
        <ele>1326</ele>
        <time>2017-02-09T11:17:10.083Z</time>
      </trkpt>
      <trkpt lat="42.9181" lon="0.28603">
        <ele>1326</ele>
        <time>2017-02-09T11:17:11.083Z</time>
      </trkpt>
      <trkpt lat="42.91811" lon="0.28603">
        <ele>1325</ele>
        <time>2017-02-09T11:17:12.083Z</time>
      </trkpt>
      <trkpt lat="42.91812" lon="0.28603">
        <ele>1325</ele>
        <time>2017-02-09T11:17:13.083Z</time>
      </trkpt>
      <trkpt lat="42.91813" lon="0.28603">
        <ele>1325</ele>
        <time>2017-02-09T11:17:14.083Z</time>
      </trkpt>
      <trkpt lat="42.91814" lon="0.28603">
        <ele>1325</ele>
        <time>2017-02-09T11:17:15.083Z</time>
      </trkpt>
      <trkpt lat="42.91815" lon="0.28603">
        <ele>1325</ele>
        <time>2017-02-09T11:17:16.083Z</time>
      </trkpt>
      <trkpt lat="42.91816" lon="0.28603">
        <ele>1324</ele>
        <time>2017-02-09T11:17:17.083Z</time>
      </trkpt>
      <trkpt lat="42.91817" lon="0.28604">
        <ele>1324</ele>
        <time>2017-02-09T11:17:18.083Z</time>
      </trkpt>
      <trkpt lat="42.91818" lon="0.28604">
        <ele>1324</ele>
        <time>2017-02-09T11:17:19.083Z</time>
      </trkpt>
      <trkpt lat="42.91819" lon="0.28604">
        <ele>1323</ele>
        <time>2017-02-09T11:17:20.083Z</time>
      </trkpt>
      <trkpt lat="42.9182" lon="0.28604">
        <ele>1323</ele>
        <time>2017-02-09T11:17:21.083Z</time>
      </trkpt>
      <trkpt lat="42.91821" lon="0.28604">
        <ele>1323</ele>
        <time>2017-02-09T11:17:22.083Z</time>
      </trkpt>
      <trkpt lat="42.91822" lon="0.28605">
        <ele>1324</ele>
        <time>2017-02-09T11:17:23.083Z</time>
      </trkpt>
      <trkpt lat="42.91824" lon="0.28605">
        <ele>1324</ele>
        <time>2017-02-09T11:17:24.083Z</time>
      </trkpt>
      <trkpt lat="42.91825" lon="0.28605">
        <ele>1324</ele>
        <time>2017-02-09T11:17:25.083Z</time>
      </trkpt>
      <trkpt lat="42.91826" lon="0.28605">
        <ele>1324</ele>
        <time>2017-02-09T11:17:26.083Z</time>
      </trkpt>
      <trkpt lat="42.91827" lon="0.28605">
        <ele>1324</ele>
        <time>2017-02-09T11:17:27.083Z</time>
      </trkpt>
      <trkpt lat="42.91828" lon="0.28605">
        <ele>1324</ele>
        <time>2017-02-09T11:17:28.083Z</time>
      </trkpt>
      <trkpt lat="42.91829" lon="0.28606">
        <ele>1324</ele>
        <time>2017-02-09T11:17:29.083Z</time>
      </trkpt>
      <trkpt lat="42.91831" lon="0.28606">
        <ele>1325</ele>
        <time>2017-02-09T11:17:30.083Z</time>
      </trkpt>
      <trkpt lat="42.91832" lon="0.28606">
        <ele>1325</ele>
        <time>2017-02-09T11:17:31.083Z</time>
      </trkpt>
      <trkpt lat="42.91833" lon="0.28606">
        <ele>1325</ele>
        <time>2017-02-09T11:17:32.083Z</time>
      </trkpt>
      <trkpt lat="42.91834" lon="0.28606">
        <ele>1324</ele>
        <time>2017-02-09T11:17:33.083Z</time>
      </trkpt>
      <trkpt lat="42.91835" lon="0.28607">
        <ele>1324</ele>
        <time>2017-02-09T11:17:34.083Z</time>
      </trkpt>
      <trkpt lat="42.91836" lon="0.28607">
        <ele>1324</ele>
        <time>2017-02-09T11:17:35.083Z</time>
      </trkpt>
      <trkpt lat="42.91837" lon="0.28607">
        <ele>1324</ele>
        <time>2017-02-09T11:17:36.083Z</time>
      </trkpt>
      <trkpt lat="42.91838" lon="0.28608">
        <ele>1325</ele>
        <time>2017-02-09T11:17:37.083Z</time>
      </trkpt>
      <trkpt lat="42.91839" lon="0.28608">
        <ele>1325</ele>
        <time>2017-02-09T11:17:38.083Z</time>
      </trkpt>
      <trkpt lat="42.9184" lon="0.28608">
        <ele>1325</ele>
        <time>2017-02-09T11:17:39.083Z</time>
      </trkpt>
      <trkpt lat="42.91841" lon="0.28609">
        <ele>1325</ele>
        <time>2017-02-09T11:17:40.083Z</time>
      </trkpt>
      <trkpt lat="42.91842" lon="0.28609">
        <ele>1325</ele>
        <time>2017-02-09T11:17:41.083Z</time>
      </trkpt>
      <trkpt lat="42.91843" lon="0.28609">
        <ele>1325</ele>
        <time>2017-02-09T11:17:42.083Z</time>
      </trkpt>
      <trkpt lat="42.91844" lon="0.2861">
        <ele>1324</ele>
        <time>2017-02-09T11:17:43.083Z</time>
      </trkpt>
      <trkpt lat="42.91845" lon="0.2861">
        <ele>1325</ele>
        <time>2017-02-09T11:17:44.083Z</time>
      </trkpt>
      <trkpt lat="42.91846" lon="0.2861">
        <ele>1324</ele>
        <time>2017-02-09T11:17:45.083Z</time>
      </trkpt>
      <trkpt lat="42.91847" lon="0.28611">
        <ele>1324</ele>
        <time>2017-02-09T11:17:46.083Z</time>
      </trkpt>
      <trkpt lat="42.91848" lon="0.28611">
        <ele>1324</ele>
        <time>2017-02-09T11:17:47.083Z</time>
      </trkpt>
      <trkpt lat="42.91849" lon="0.28612">
        <ele>1324</ele>
        <time>2017-02-09T11:17:48.083Z</time>
      </trkpt>
      <trkpt lat="42.9185" lon="0.28612">
        <ele>1324</ele>
        <time>2017-02-09T11:17:49.083Z</time>
      </trkpt>
      <trkpt lat="42.91851" lon="0.28612">
        <ele>1324</ele>
        <time>2017-02-09T11:17:50.083Z</time>
      </trkpt>
      <trkpt lat="42.91851" lon="0.28612">
        <ele>1324</ele>
        <time>2017-02-09T11:17:51.083Z</time>
      </trkpt>
      <trkpt lat="42.91851" lon="0.28612">
        <ele>1325</ele>
        <time>2017-02-09T11:17:52.083Z</time>
      </trkpt>
      <trkpt lat="42.91851" lon="0.28613">
        <ele>1324</ele>
        <time>2017-02-09T11:17:53.083Z</time>
      </trkpt>
      <trkpt lat="42.91852" lon="0.28613">
        <ele>1324</ele>
        <time>2017-02-09T11:17:54.083Z</time>
      </trkpt>
      <trkpt lat="42.91852" lon="0.28613">
        <ele>1324</ele>
        <time>2017-02-09T11:17:55.083Z</time>
      </trkpt>
      <trkpt lat="42.91853" lon="0.28614">
        <ele>1324</ele>
        <time>2017-02-09T11:17:56.083Z</time>
      </trkpt>
      <trkpt lat="42.91854" lon="0.28614">
        <ele>1324</ele>
        <time>2017-02-09T11:17:57.083Z</time>
      </trkpt>
      <trkpt lat="42.91855" lon="0.28615">
        <ele>1323</ele>
        <time>2017-02-09T11:17:58.083Z</time>
      </trkpt>
      <trkpt lat="42.91856" lon="0.28615">
        <ele>1323</ele>
        <time>2017-02-09T11:17:59.083Z</time>
      </trkpt>
      <trkpt lat="42.91857" lon="0.28615">
        <ele>1323</ele>
        <time>2017-02-09T11:18:00.083Z</time>
      </trkpt>
      <trkpt lat="42.91858" lon="0.28616">
        <ele>1323</ele>
        <time>2017-02-09T11:18:01.083Z</time>
      </trkpt>
      <trkpt lat="42.91859" lon="0.28616">
        <ele>1322</ele>
        <time>2017-02-09T11:18:02.083Z</time>
      </trkpt>
      <trkpt lat="42.9186" lon="0.28617">
        <ele>1322</ele>
        <time>2017-02-09T11:18:03.083Z</time>
      </trkpt>
      <trkpt lat="42.91861" lon="0.28617">
        <ele>1322</ele>
        <time>2017-02-09T11:18:04.083Z</time>
      </trkpt>
      <trkpt lat="42.91862" lon="0.28617">
        <ele>1322</ele>
        <time>2017-02-09T11:18:05.083Z</time>
      </trkpt>
      <trkpt lat="42.91863" lon="0.28617">
        <ele>1323</ele>
        <time>2017-02-09T11:18:06.083Z</time>
      </trkpt>
      <trkpt lat="42.91864" lon="0.28618">
        <ele>1323</ele>
        <time>2017-02-09T11:18:07.083Z</time>
      </trkpt>
      <trkpt lat="42.91865" lon="0.28618">
        <ele>1323</ele>
        <time>2017-02-09T11:18:08.083Z</time>
      </trkpt>
      <trkpt lat="42.91866" lon="0.28618">
        <ele>1323</ele>
        <time>2017-02-09T11:18:09.083Z</time>
      </trkpt>
      <trkpt lat="42.91867" lon="0.28618">
        <ele>1322</ele>
        <time>2017-02-09T11:18:10.083Z</time>
      </trkpt>
      <trkpt lat="42.91868" lon="0.28619">
        <ele>1322</ele>
        <time>2017-02-09T11:18:11.083Z</time>
      </trkpt>
      <trkpt lat="42.91869" lon="0.28619">
        <ele>1322</ele>
        <time>2017-02-09T11:18:12.083Z</time>
      </trkpt>
      <trkpt lat="42.9187" lon="0.28619">
        <ele>1322</ele>
        <time>2017-02-09T11:18:13.083Z</time>
      </trkpt>
      <trkpt lat="42.91871" lon="0.28619">
        <ele>1322</ele>
        <time>2017-02-09T11:18:14.083Z</time>
      </trkpt>
      <trkpt lat="42.91872" lon="0.2862">
        <ele>1323</ele>
        <time>2017-02-09T11:18:15.083Z</time>
      </trkpt>
      <trkpt lat="42.91873" lon="0.2862">
        <ele>1323</ele>
        <time>2017-02-09T11:18:16.083Z</time>
      </trkpt>
      <trkpt lat="42.91874" lon="0.2862">
        <ele>1324</ele>
        <time>2017-02-09T11:18:17.083Z</time>
      </trkpt>
      <trkpt lat="42.91875" lon="0.2862">
        <ele>1324</ele>
        <time>2017-02-09T11:18:18.083Z</time>
      </trkpt>
      <trkpt lat="42.91876" lon="0.28621">
        <ele>1324</ele>
        <time>2017-02-09T11:18:19.083Z</time>
      </trkpt>
      <trkpt lat="42.91877" lon="0.28621">
        <ele>1324</ele>
        <time>2017-02-09T11:18:20.083Z</time>
      </trkpt>
      <trkpt lat="42.91878" lon="0.28621">
        <ele>1325</ele>
        <time>2017-02-09T11:18:21.083Z</time>
      </trkpt>
      <trkpt lat="42.91878" lon="0.28621">
        <ele>1325</ele>
        <time>2017-02-09T11:18:22.083Z</time>
      </trkpt>
      <trkpt lat="42.91879" lon="0.28622">
        <ele>1325</ele>
        <time>2017-02-09T11:18:23.083Z</time>
      </trkpt>
      <trkpt lat="42.91879" lon="0.28622">
        <ele>1325</ele>
        <time>2017-02-09T11:18:24.083Z</time>
      </trkpt>
      <trkpt lat="42.91879" lon="0.28622">
        <ele>1324</ele>
        <time>2017-02-09T11:18:25.083Z</time>
      </trkpt>
      <trkpt lat="42.91879" lon="0.28622">
        <ele>1324</ele>
        <time>2017-02-09T11:18:26.083Z</time>
      </trkpt>
      <trkpt lat="42.91879" lon="0.28622">
        <ele>1324</ele>
        <time>2017-02-09T11:18:27.083Z</time>
      </trkpt>
      <trkpt lat="42.91879" lon="0.28622">
        <ele>1324</ele>
        <time>2017-02-09T11:18:28.083Z</time>
      </trkpt>
      <trkpt lat="42.91879" lon="0.28622">
        <ele>1324</ele>
        <time>2017-02-09T11:18:29.083Z</time>
      </trkpt>
      <trkpt lat="42.91879" lon="0.28622">
        <ele>1324</ele>
        <time>2017-02-09T11:18:30.083Z</time>
      </trkpt>
      <trkpt lat="42.9188" lon="0.28622">
        <ele>1324</ele>
        <time>2017-02-09T11:18:31.083Z</time>
      </trkpt>
      <trkpt lat="42.91881" lon="0.28622">
        <ele>1323</ele>
        <time>2017-02-09T11:18:32.083Z</time>
      </trkpt>
      <trkpt lat="42.91881" lon="0.28622">
        <ele>1324</ele>
        <time>2017-02-09T11:18:33.083Z</time>
      </trkpt>
      <trkpt lat="42.91882" lon="0.28622">
        <ele>1324</ele>
        <time>2017-02-09T11:18:34.083Z</time>
      </trkpt>
      <trkpt lat="42.91883" lon="0.28623">
        <ele>1324</ele>
        <time>2017-02-09T11:18:35.083Z</time>
      </trkpt>
      <trkpt lat="42.91884" lon="0.28623">
        <ele>1324</ele>
        <time>2017-02-09T11:18:36.083Z</time>
      </trkpt>
      <trkpt lat="42.91885" lon="0.28623">
        <ele>1324</ele>
        <time>2017-02-09T11:18:37.083Z</time>
      </trkpt>
      <trkpt lat="42.91886" lon="0.28624">
        <ele>1323</ele>
        <time>2017-02-09T11:18:38.083Z</time>
      </trkpt>
      <trkpt lat="42.91887" lon="0.28624">
        <ele>1323</ele>
        <time>2017-02-09T11:18:39.083Z</time>
      </trkpt>
      <trkpt lat="42.91888" lon="0.28624">
        <ele>1323</ele>
        <time>2017-02-09T11:18:40.083Z</time>
      </trkpt>
      <trkpt lat="42.91889" lon="0.28625">
        <ele>1323</ele>
        <time>2017-02-09T11:18:41.083Z</time>
      </trkpt>
      <trkpt lat="42.9189" lon="0.28625">
        <ele>1323</ele>
        <time>2017-02-09T11:18:42.083Z</time>
      </trkpt>
      <trkpt lat="42.91891" lon="0.28625">
        <ele>1323</ele>
        <time>2017-02-09T11:18:43.083Z</time>
      </trkpt>
      <trkpt lat="42.91892" lon="0.28626">
        <ele>1324</ele>
        <time>2017-02-09T11:18:44.083Z</time>
      </trkpt>
      <trkpt lat="42.91893" lon="0.28626">
        <ele>1324</ele>
        <time>2017-02-09T11:18:45.083Z</time>
      </trkpt>
      <trkpt lat="42.91894" lon="0.28626">
        <ele>1324</ele>
        <time>2017-02-09T11:18:46.083Z</time>
      </trkpt>
      <trkpt lat="42.91895" lon="0.28626">
        <ele>1324</ele>
        <time>2017-02-09T11:18:47.083Z</time>
      </trkpt>
      <trkpt lat="42.91896" lon="0.28627">
        <ele>1323</ele>
        <time>2017-02-09T11:18:48.083Z</time>
      </trkpt>
      <trkpt lat="42.91897" lon="0.28627">
        <ele>1324</ele>
        <time>2017-02-09T11:18:49.083Z</time>
      </trkpt>
      <trkpt lat="42.91898" lon="0.28627">
        <ele>1324</ele>
        <time>2017-02-09T11:18:50.083Z</time>
      </trkpt>
      <trkpt lat="42.91899" lon="0.28628">
        <ele>1324</ele>
        <time>2017-02-09T11:18:51.083Z</time>
      </trkpt>
      <trkpt lat="42.919" lon="0.28628">
        <ele>1323</ele>
        <time>2017-02-09T11:18:52.083Z</time>
      </trkpt>
      <trkpt lat="42.91901" lon="0.28628">
        <ele>1323</ele>
        <time>2017-02-09T11:18:53.083Z</time>
      </trkpt>
      <trkpt lat="42.91902" lon="0.28629">
        <ele>1323</ele>
        <time>2017-02-09T11:18:54.083Z</time>
      </trkpt>
      <trkpt lat="42.91902" lon="0.28629">
        <ele>1322</ele>
        <time>2017-02-09T11:18:55.083Z</time>
      </trkpt>
      <trkpt lat="42.91903" lon="0.2863">
        <ele>1322</ele>
        <time>2017-02-09T11:18:56.083Z</time>
      </trkpt>
      <trkpt lat="42.91904" lon="0.2863">
        <ele>1322</ele>
        <time>2017-02-09T11:18:57.083Z</time>
      </trkpt>
      <trkpt lat="42.91905" lon="0.28631">
        <ele>1322</ele>
        <time>2017-02-09T11:18:58.083Z</time>
      </trkpt>
      <trkpt lat="42.91906" lon="0.28631">
        <ele>1322</ele>
        <time>2017-02-09T11:18:59.083Z</time>
      </trkpt>
      <trkpt lat="42.91907" lon="0.28631">
        <ele>1322</ele>
        <time>2017-02-09T11:19:00.083Z</time>
      </trkpt>
      <trkpt lat="42.91908" lon="0.28632">
        <ele>1320</ele>
        <time>2017-02-09T11:19:01.083Z</time>
      </trkpt>
      <trkpt lat="42.91909" lon="0.28633">
        <ele>1319</ele>
        <time>2017-02-09T11:19:02.083Z</time>
      </trkpt>
      <trkpt lat="42.91909" lon="0.28633">
        <ele>1319</ele>
        <time>2017-02-09T11:19:03.083Z</time>
      </trkpt>
      <trkpt lat="42.9191" lon="0.28634">
        <ele>1318</ele>
        <time>2017-02-09T11:19:04.083Z</time>
      </trkpt>
      <trkpt lat="42.91911" lon="0.28634">
        <ele>1316</ele>
        <time>2017-02-09T11:19:05.083Z</time>
      </trkpt>
      <trkpt lat="42.91911" lon="0.28635">
        <ele>1317</ele>
        <time>2017-02-09T11:19:06.083Z</time>
      </trkpt>
      <trkpt lat="42.91912" lon="0.28635">
        <ele>1317</ele>
        <time>2017-02-09T11:19:07.083Z</time>
      </trkpt>
      <trkpt lat="42.91913" lon="0.28635">
        <ele>1316</ele>
        <time>2017-02-09T11:19:08.083Z</time>
      </trkpt>
      <trkpt lat="42.91913" lon="0.28636">
        <ele>1316</ele>
        <time>2017-02-09T11:19:09.083Z</time>
      </trkpt>
      <trkpt lat="42.91913" lon="0.28636">
        <ele>1316</ele>
        <time>2017-02-09T11:19:10.083Z</time>
      </trkpt>
      <trkpt lat="42.91913" lon="0.28636">
        <ele>1316</ele>
        <time>2017-02-09T11:19:11.083Z</time>
      </trkpt>
      <trkpt lat="42.91913" lon="0.28636">
        <ele>1316</ele>
        <time>2017-02-09T11:19:12.083Z</time>
      </trkpt>
      <trkpt lat="42.91913" lon="0.28636">
        <ele>1316</ele>
        <time>2017-02-09T11:19:13.083Z</time>
      </trkpt>
      <trkpt lat="42.91918" lon="0.28636">
        <ele>1325</ele>
        <time>2017-02-09T11:19:14.079Z</time>
      </trkpt>
      <trkpt lat="42.91918" lon="0.28637">
        <ele>1325</ele>
        <time>2017-02-09T11:19:15.079Z</time>
      </trkpt>
      <trkpt lat="42.91919" lon="0.28637">
        <ele>1325</ele>
        <time>2017-02-09T11:19:16.079Z</time>
      </trkpt>
      <trkpt lat="42.9192" lon="0.28637">
        <ele>1325</ele>
        <time>2017-02-09T11:19:17.079Z</time>
      </trkpt>
      <trkpt lat="42.91921" lon="0.28638">
        <ele>1325</ele>
        <time>2017-02-09T11:19:18.079Z</time>
      </trkpt>
      <trkpt lat="42.91922" lon="0.28638">
        <ele>1325</ele>
        <time>2017-02-09T11:19:19.079Z</time>
      </trkpt>
      <trkpt lat="42.91923" lon="0.28638">
        <ele>1325</ele>
        <time>2017-02-09T11:19:20.079Z</time>
      </trkpt>
      <trkpt lat="42.91923" lon="0.28639">
        <ele>1325</ele>
        <time>2017-02-09T11:19:21.079Z</time>
      </trkpt>
      <trkpt lat="42.91924" lon="0.28639">
        <ele>1325</ele>
        <time>2017-02-09T11:19:22.079Z</time>
      </trkpt>
      <trkpt lat="42.91925" lon="0.28639">
        <ele>1324</ele>
        <time>2017-02-09T11:19:23.079Z</time>
      </trkpt>
      <trkpt lat="42.91926" lon="0.2864">
        <ele>1324</ele>
        <time>2017-02-09T11:19:24.079Z</time>
      </trkpt>
      <trkpt lat="42.91927" lon="0.2864">
        <ele>1324</ele>
        <time>2017-02-09T11:19:25.079Z</time>
      </trkpt>
      <trkpt lat="42.91928" lon="0.2864">
        <ele>1325</ele>
        <time>2017-02-09T11:19:26.079Z</time>
      </trkpt>
      <trkpt lat="42.91929" lon="0.28641">
        <ele>1325</ele>
        <time>2017-02-09T11:19:27.079Z</time>
      </trkpt>
      <trkpt lat="42.9193" lon="0.28641">
        <ele>1325</ele>
        <time>2017-02-09T11:19:28.079Z</time>
      </trkpt>
      <trkpt lat="42.91931" lon="0.28641">
        <ele>1325</ele>
        <time>2017-02-09T11:19:29.079Z</time>
      </trkpt>
      <trkpt lat="42.91931" lon="0.28642">
        <ele>1324</ele>
        <time>2017-02-09T11:19:30.079Z</time>
      </trkpt>
      <trkpt lat="42.91932" lon="0.28642">
        <ele>1324</ele>
        <time>2017-02-09T11:19:31.079Z</time>
      </trkpt>
      <trkpt lat="42.91933" lon="0.28642">
        <ele>1324</ele>
        <time>2017-02-09T11:19:32.079Z</time>
      </trkpt>
      <trkpt lat="42.91934" lon="0.28643">
        <ele>1324</ele>
        <time>2017-02-09T11:19:33.079Z</time>
      </trkpt>
      <trkpt lat="42.91934" lon="0.28643">
        <ele>1323</ele>
        <time>2017-02-09T11:19:34.079Z</time>
      </trkpt>
      <trkpt lat="42.91935" lon="0.28644">
        <ele>1323</ele>
        <time>2017-02-09T11:19:35.079Z</time>
      </trkpt>
      <trkpt lat="42.91936" lon="0.28644">
        <ele>1324</ele>
        <time>2017-02-09T11:19:36.079Z</time>
      </trkpt>
      <trkpt lat="42.91937" lon="0.28644">
        <ele>1324</ele>
        <time>2017-02-09T11:19:37.079Z</time>
      </trkpt>
      <trkpt lat="42.91938" lon="0.28644">
        <ele>1325</ele>
        <time>2017-02-09T11:19:38.079Z</time>
      </trkpt>
      <trkpt lat="42.91939" lon="0.28645">
        <ele>1325</ele>
        <time>2017-02-09T11:19:39.079Z</time>
      </trkpt>
      <trkpt lat="42.9194" lon="0.28645">
        <ele>1324</ele>
        <time>2017-02-09T11:19:40.079Z</time>
      </trkpt>
      <trkpt lat="42.91941" lon="0.28645">
        <ele>1324</ele>
        <time>2017-02-09T11:19:41.079Z</time>
      </trkpt>
      <trkpt lat="42.91942" lon="0.28646">
        <ele>1325</ele>
        <time>2017-02-09T11:19:42.079Z</time>
      </trkpt>
      <trkpt lat="42.91943" lon="0.28646">
        <ele>1326</ele>
        <time>2017-02-09T11:19:43.079Z</time>
      </trkpt>
      <trkpt lat="42.91944" lon="0.28646">
        <ele>1327</ele>
        <time>2017-02-09T11:19:44.079Z</time>
      </trkpt>
      <trkpt lat="42.91946" lon="0.28646">
        <ele>1327</ele>
        <time>2017-02-09T11:19:45.079Z</time>
      </trkpt>
      <trkpt lat="42.91947" lon="0.28646">
        <ele>1327</ele>
        <time>2017-02-09T11:19:46.079Z</time>
      </trkpt>
      <trkpt lat="42.91947" lon="0.28646">
        <ele>1326</ele>
        <time>2017-02-09T11:19:47.079Z</time>
      </trkpt>
      <trkpt lat="42.91948" lon="0.28647">
        <ele>1326</ele>
        <time>2017-02-09T11:19:48.079Z</time>
      </trkpt>
      <trkpt lat="42.91948" lon="0.28647">
        <ele>1325</ele>
        <time>2017-02-09T11:19:49.079Z</time>
      </trkpt>
      <trkpt lat="42.91948" lon="0.28648">
        <ele>1324</ele>
        <time>2017-02-09T11:19:50.079Z</time>
      </trkpt>
      <trkpt lat="42.91948" lon="0.28649">
        <ele>1323</ele>
        <time>2017-02-09T11:19:51.079Z</time>
      </trkpt>
      <trkpt lat="42.91949" lon="0.28649">
        <ele>1321</ele>
        <time>2017-02-09T11:19:52.079Z</time>
      </trkpt>
      <trkpt lat="42.91949" lon="0.2865">
        <ele>1321</ele>
        <time>2017-02-09T11:19:53.079Z</time>
      </trkpt>
      <trkpt lat="42.91949" lon="0.2865">
        <ele>1320</ele>
        <time>2017-02-09T11:19:54.079Z</time>
      </trkpt>
      <trkpt lat="42.9195" lon="0.2865">
        <ele>1320</ele>
        <time>2017-02-09T11:19:55.079Z</time>
      </trkpt>
      <trkpt lat="42.91951" lon="0.28651">
        <ele>1319</ele>
        <time>2017-02-09T11:19:56.079Z</time>
      </trkpt>
      <trkpt lat="42.91951" lon="0.28651">
        <ele>1319</ele>
        <time>2017-02-09T11:19:57.079Z</time>
      </trkpt>
      <trkpt lat="42.91952" lon="0.28651">
        <ele>1318</ele>
        <time>2017-02-09T11:19:58.079Z</time>
      </trkpt>
      <trkpt lat="42.91953" lon="0.28652">
        <ele>1318</ele>
        <time>2017-02-09T11:19:59.079Z</time>
      </trkpt>
      <trkpt lat="42.91954" lon="0.28652">
        <ele>1318</ele>
        <time>2017-02-09T11:20:00.079Z</time>
      </trkpt>
      <trkpt lat="42.91954" lon="0.28653">
        <ele>1317</ele>
        <time>2017-02-09T11:20:01.079Z</time>
      </trkpt>
      <trkpt lat="42.91955" lon="0.28653">
        <ele>1316</ele>
        <time>2017-02-09T11:20:02.079Z</time>
      </trkpt>
      <trkpt lat="42.91956" lon="0.28653">
        <ele>1316</ele>
        <time>2017-02-09T11:20:03.079Z</time>
      </trkpt>
      <trkpt lat="42.91957" lon="0.28654">
        <ele>1316</ele>
        <time>2017-02-09T11:20:04.079Z</time>
      </trkpt>
      <trkpt lat="42.91958" lon="0.28654">
        <ele>1315</ele>
        <time>2017-02-09T11:20:05.079Z</time>
      </trkpt>
      <trkpt lat="42.91958" lon="0.28655">
        <ele>1315</ele>
        <time>2017-02-09T11:20:06.079Z</time>
      </trkpt>
      <trkpt lat="42.91959" lon="0.28655">
        <ele>1314</ele>
        <time>2017-02-09T11:20:07.079Z</time>
      </trkpt>
      <trkpt lat="42.9196" lon="0.28656">
        <ele>1313</ele>
        <time>2017-02-09T11:20:08.079Z</time>
      </trkpt>
      <trkpt lat="42.9196" lon="0.28656">
        <ele>1312</ele>
        <time>2017-02-09T11:20:09.079Z</time>
      </trkpt>
      <trkpt lat="42.91961" lon="0.28657">
        <ele>1312</ele>
        <time>2017-02-09T11:20:10.079Z</time>
      </trkpt>
      <trkpt lat="42.91962" lon="0.28657">
        <ele>1311</ele>
        <time>2017-02-09T11:20:11.079Z</time>
      </trkpt>
      <trkpt lat="42.91963" lon="0.28657">
        <ele>1311</ele>
        <time>2017-02-09T11:20:12.079Z</time>
      </trkpt>
      <trkpt lat="42.91964" lon="0.28658">
        <ele>1310</ele>
        <time>2017-02-09T11:20:13.079Z</time>
      </trkpt>
      <trkpt lat="42.91964" lon="0.28658">
        <ele>1309</ele>
        <time>2017-02-09T11:20:14.079Z</time>
      </trkpt>
      <trkpt lat="42.91965" lon="0.28658">
        <ele>1309</ele>
        <time>2017-02-09T11:20:15.079Z</time>
      </trkpt>
      <trkpt lat="42.91966" lon="0.28659">
        <ele>1308</ele>
        <time>2017-02-09T11:20:16.079Z</time>
      </trkpt>
      <trkpt lat="42.91967" lon="0.28659">
        <ele>1308</ele>
        <time>2017-02-09T11:20:17.079Z</time>
      </trkpt>
      <trkpt lat="42.91968" lon="0.2866">
        <ele>1309</ele>
        <time>2017-02-09T11:20:18.079Z</time>
      </trkpt>
      <trkpt lat="42.91969" lon="0.2866">
        <ele>1308</ele>
        <time>2017-02-09T11:20:19.079Z</time>
      </trkpt>
      <trkpt lat="42.9197" lon="0.2866">
        <ele>1308</ele>
        <time>2017-02-09T11:20:20.079Z</time>
      </trkpt>
      <trkpt lat="42.9197" lon="0.2866">
        <ele>1308</ele>
        <time>2017-02-09T11:20:21.079Z</time>
      </trkpt>
      <trkpt lat="42.91972" lon="0.28661">
        <ele>1308</ele>
        <time>2017-02-09T11:20:22.079Z</time>
      </trkpt>
      <trkpt lat="42.91973" lon="0.28661">
        <ele>1308</ele>
        <time>2017-02-09T11:20:23.079Z</time>
      </trkpt>
      <trkpt lat="42.91974" lon="0.28662">
        <ele>1307</ele>
        <time>2017-02-09T11:20:24.079Z</time>
      </trkpt>
      <trkpt lat="42.91975" lon="0.28662">
        <ele>1307</ele>
        <time>2017-02-09T11:20:25.079Z</time>
      </trkpt>
      <trkpt lat="42.91976" lon="0.28662">
        <ele>1307</ele>
        <time>2017-02-09T11:20:26.079Z</time>
      </trkpt>
      <trkpt lat="42.91977" lon="0.28663">
        <ele>1306</ele>
        <time>2017-02-09T11:20:27.079Z</time>
      </trkpt>
      <trkpt lat="42.91978" lon="0.28663">
        <ele>1306</ele>
        <time>2017-02-09T11:20:28.079Z</time>
      </trkpt>
      <trkpt lat="42.91979" lon="0.28664">
        <ele>1306</ele>
        <time>2017-02-09T11:20:29.079Z</time>
      </trkpt>
      <trkpt lat="42.9198" lon="0.28664">
        <ele>1306</ele>
        <time>2017-02-09T11:20:30.079Z</time>
      </trkpt>
      <trkpt lat="42.91981" lon="0.28665">
        <ele>1306</ele>
        <time>2017-02-09T11:20:31.079Z</time>
      </trkpt>
      <trkpt lat="42.91982" lon="0.28665">
        <ele>1306</ele>
        <time>2017-02-09T11:20:32.079Z</time>
      </trkpt>
      <trkpt lat="42.91983" lon="0.28665">
        <ele>1306</ele>
        <time>2017-02-09T11:20:33.079Z</time>
      </trkpt>
      <trkpt lat="42.91984" lon="0.28666">
        <ele>1306</ele>
        <time>2017-02-09T11:20:34.079Z</time>
      </trkpt>
      <trkpt lat="42.91985" lon="0.28666">
        <ele>1305</ele>
        <time>2017-02-09T11:20:35.079Z</time>
      </trkpt>
      <trkpt lat="42.91986" lon="0.28667">
        <ele>1306</ele>
        <time>2017-02-09T11:20:36.079Z</time>
      </trkpt>
      <trkpt lat="42.91987" lon="0.28667">
        <ele>1305</ele>
        <time>2017-02-09T11:20:37.079Z</time>
      </trkpt>
      <trkpt lat="42.91988" lon="0.28667">
        <ele>1305</ele>
        <time>2017-02-09T11:20:38.079Z</time>
      </trkpt>
      <trkpt lat="42.91989" lon="0.28667">
        <ele>1305</ele>
        <time>2017-02-09T11:20:39.079Z</time>
      </trkpt>
      <trkpt lat="42.9199" lon="0.28668">
        <ele>1305</ele>
        <time>2017-02-09T11:20:40.079Z</time>
      </trkpt>
      <trkpt lat="42.91991" lon="0.28668">
        <ele>1305</ele>
        <time>2017-02-09T11:20:41.079Z</time>
      </trkpt>
      <trkpt lat="42.91992" lon="0.28669">
        <ele>1305</ele>
        <time>2017-02-09T11:20:42.079Z</time>
      </trkpt>
      <trkpt lat="42.91993" lon="0.28669">
        <ele>1305</ele>
        <time>2017-02-09T11:20:43.079Z</time>
      </trkpt>
      <trkpt lat="42.91994" lon="0.2867">
        <ele>1305</ele>
        <time>2017-02-09T11:20:44.079Z</time>
      </trkpt>
      <trkpt lat="42.91995" lon="0.2867">
        <ele>1305</ele>
        <time>2017-02-09T11:20:45.079Z</time>
      </trkpt>
      <trkpt lat="42.91996" lon="0.2867">
        <ele>1305</ele>
        <time>2017-02-09T11:20:46.079Z</time>
      </trkpt>
      <trkpt lat="42.91997" lon="0.28671">
        <ele>1305</ele>
        <time>2017-02-09T11:20:47.079Z</time>
      </trkpt>
      <trkpt lat="42.91998" lon="0.28671">
        <ele>1305</ele>
        <time>2017-02-09T11:20:48.079Z</time>
      </trkpt>
      <trkpt lat="42.91999" lon="0.28672">
        <ele>1305</ele>
        <time>2017-02-09T11:20:49.079Z</time>
      </trkpt>
      <trkpt lat="42.92" lon="0.28672">
        <ele>1305</ele>
        <time>2017-02-09T11:20:50.079Z</time>
      </trkpt>
      <trkpt lat="42.92001" lon="0.28673">
        <ele>1305</ele>
        <time>2017-02-09T11:20:51.079Z</time>
      </trkpt>
      <trkpt lat="42.92002" lon="0.28673">
        <ele>1305</ele>
        <time>2017-02-09T11:20:52.079Z</time>
      </trkpt>
      <trkpt lat="42.92003" lon="0.28673">
        <ele>1306</ele>
        <time>2017-02-09T11:20:53.079Z</time>
      </trkpt>
      <trkpt lat="42.92004" lon="0.28674">
        <ele>1306</ele>
        <time>2017-02-09T11:20:54.079Z</time>
      </trkpt>
      <trkpt lat="42.92005" lon="0.28674">
        <ele>1306</ele>
        <time>2017-02-09T11:20:55.079Z</time>
      </trkpt>
      <trkpt lat="42.92006" lon="0.28675">
        <ele>1307</ele>
        <time>2017-02-09T11:20:56.079Z</time>
      </trkpt>
      <trkpt lat="42.92007" lon="0.28675">
        <ele>1307</ele>
        <time>2017-02-09T11:20:57.079Z</time>
      </trkpt>
      <trkpt lat="42.92009" lon="0.28675">
        <ele>1307</ele>
        <time>2017-02-09T11:20:58.079Z</time>
      </trkpt>
      <trkpt lat="42.9201" lon="0.28676">
        <ele>1307</ele>
        <time>2017-02-09T11:20:59.079Z</time>
      </trkpt>
      <trkpt lat="42.92011" lon="0.28676">
        <ele>1308</ele>
        <time>2017-02-09T11:21:00.079Z</time>
      </trkpt>
      <trkpt lat="42.92012" lon="0.28677">
        <ele>1307</ele>
        <time>2017-02-09T11:21:01.079Z</time>
      </trkpt>
      <trkpt lat="42.92013" lon="0.28677">
        <ele>1308</ele>
        <time>2017-02-09T11:21:02.079Z</time>
      </trkpt>
      <trkpt lat="42.92014" lon="0.28677">
        <ele>1309</ele>
        <time>2017-02-09T11:21:03.079Z</time>
      </trkpt>
      <trkpt lat="42.92015" lon="0.28678">
        <ele>1309</ele>
        <time>2017-02-09T11:21:04.079Z</time>
      </trkpt>
      <trkpt lat="42.92016" lon="0.28678">
        <ele>1308</ele>
        <time>2017-02-09T11:21:05.079Z</time>
      </trkpt>
      <trkpt lat="42.92017" lon="0.28679">
        <ele>1308</ele>
        <time>2017-02-09T11:21:06.079Z</time>
      </trkpt>
      <trkpt lat="42.92018" lon="0.28679">
        <ele>1309</ele>
        <time>2017-02-09T11:21:07.079Z</time>
      </trkpt>
      <trkpt lat="42.92019" lon="0.2868">
        <ele>1309</ele>
        <time>2017-02-09T11:21:08.079Z</time>
      </trkpt>
      <trkpt lat="42.9202" lon="0.2868">
        <ele>1309</ele>
        <time>2017-02-09T11:21:09.079Z</time>
      </trkpt>
      <trkpt lat="42.92021" lon="0.2868">
        <ele>1310</ele>
        <time>2017-02-09T11:21:10.079Z</time>
      </trkpt>
      <trkpt lat="42.92022" lon="0.28681">
        <ele>1309</ele>
        <time>2017-02-09T11:21:11.079Z</time>
      </trkpt>
      <trkpt lat="42.92023" lon="0.28681">
        <ele>1308</ele>
        <time>2017-02-09T11:21:12.079Z</time>
      </trkpt>
      <trkpt lat="42.92024" lon="0.28682">
        <ele>1309</ele>
        <time>2017-02-09T11:21:13.079Z</time>
      </trkpt>
      <trkpt lat="42.92025" lon="0.28682">
        <ele>1308</ele>
        <time>2017-02-09T11:21:14.079Z</time>
      </trkpt>
      <trkpt lat="42.92026" lon="0.28682">
        <ele>1308</ele>
        <time>2017-02-09T11:21:15.079Z</time>
      </trkpt>
      <trkpt lat="42.92027" lon="0.28683">
        <ele>1308</ele>
        <time>2017-02-09T11:21:16.079Z</time>
      </trkpt>
      <trkpt lat="42.92028" lon="0.28683">
        <ele>1308</ele>
        <time>2017-02-09T11:21:17.079Z</time>
      </trkpt>
      <trkpt lat="42.92029" lon="0.28684">
        <ele>1308</ele>
        <time>2017-02-09T11:21:18.079Z</time>
      </trkpt>
      <trkpt lat="42.9203" lon="0.28684">
        <ele>1308</ele>
        <time>2017-02-09T11:21:19.079Z</time>
      </trkpt>
      <trkpt lat="42.92031" lon="0.28685">
        <ele>1308</ele>
        <time>2017-02-09T11:21:20.079Z</time>
      </trkpt>
      <trkpt lat="42.92032" lon="0.28685">
        <ele>1309</ele>
        <time>2017-02-09T11:21:21.079Z</time>
      </trkpt>
      <trkpt lat="42.92033" lon="0.28685">
        <ele>1309</ele>
        <time>2017-02-09T11:21:22.079Z</time>
      </trkpt>
      <trkpt lat="42.92034" lon="0.28686">
        <ele>1309</ele>
        <time>2017-02-09T11:21:23.079Z</time>
      </trkpt>
      <trkpt lat="42.92035" lon="0.28686">
        <ele>1309</ele>
        <time>2017-02-09T11:21:24.079Z</time>
      </trkpt>
      <trkpt lat="42.92036" lon="0.28687">
        <ele>1309</ele>
        <time>2017-02-09T11:21:25.079Z</time>
      </trkpt>
      <trkpt lat="42.92038" lon="0.28687">
        <ele>1310</ele>
        <time>2017-02-09T11:21:26.079Z</time>
      </trkpt>
      <trkpt lat="42.92039" lon="0.28688">
        <ele>1310</ele>
        <time>2017-02-09T11:21:27.079Z</time>
      </trkpt>
      <trkpt lat="42.9204" lon="0.28688">
        <ele>1310</ele>
        <time>2017-02-09T11:21:28.079Z</time>
      </trkpt>
      <trkpt lat="42.92041" lon="0.28688">
        <ele>1310</ele>
        <time>2017-02-09T11:21:29.079Z</time>
      </trkpt>
      <trkpt lat="42.92042" lon="0.28689">
        <ele>1310</ele>
        <time>2017-02-09T11:21:30.079Z</time>
      </trkpt>
      <trkpt lat="42.92043" lon="0.28689">
        <ele>1310</ele>
        <time>2017-02-09T11:21:31.079Z</time>
      </trkpt>
      <trkpt lat="42.92044" lon="0.28689">
        <ele>1311</ele>
        <time>2017-02-09T11:21:32.079Z</time>
      </trkpt>
      <trkpt lat="42.92045" lon="0.2869">
        <ele>1311</ele>
        <time>2017-02-09T11:21:33.079Z</time>
      </trkpt>
      <trkpt lat="42.92046" lon="0.2869">
        <ele>1312</ele>
        <time>2017-02-09T11:21:34.079Z</time>
      </trkpt>
      <trkpt lat="42.92047" lon="0.2869">
        <ele>1312</ele>
        <time>2017-02-09T11:21:35.079Z</time>
      </trkpt>
      <trkpt lat="42.92048" lon="0.28691">
        <ele>1312</ele>
        <time>2017-02-09T11:21:36.079Z</time>
      </trkpt>
      <trkpt lat="42.92049" lon="0.28691">
        <ele>1313</ele>
        <time>2017-02-09T11:21:37.079Z</time>
      </trkpt>
      <trkpt lat="42.9205" lon="0.28692">
        <ele>1313</ele>
        <time>2017-02-09T11:21:38.079Z</time>
      </trkpt>
      <trkpt lat="42.92051" lon="0.28692">
        <ele>1314</ele>
        <time>2017-02-09T11:21:39.079Z</time>
      </trkpt>
      <trkpt lat="42.92052" lon="0.28693">
        <ele>1314</ele>
        <time>2017-02-09T11:21:40.079Z</time>
      </trkpt>
      <trkpt lat="42.92053" lon="0.28693">
        <ele>1315</ele>
        <time>2017-02-09T11:21:41.079Z</time>
      </trkpt>
      <trkpt lat="42.92054" lon="0.28694">
        <ele>1314</ele>
        <time>2017-02-09T11:21:42.079Z</time>
      </trkpt>
      <trkpt lat="42.92055" lon="0.28694">
        <ele>1314</ele>
        <time>2017-02-09T11:21:43.079Z</time>
      </trkpt>
      <trkpt lat="42.92056" lon="0.28694">
        <ele>1314</ele>
        <time>2017-02-09T11:21:44.079Z</time>
      </trkpt>
      <trkpt lat="42.92057" lon="0.28694">
        <ele>1314</ele>
        <time>2017-02-09T11:21:45.079Z</time>
      </trkpt>
      <trkpt lat="42.92058" lon="0.28695">
        <ele>1314</ele>
        <time>2017-02-09T11:21:46.079Z</time>
      </trkpt>
      <trkpt lat="42.92059" lon="0.28695">
        <ele>1314</ele>
        <time>2017-02-09T11:21:47.079Z</time>
      </trkpt>
      <trkpt lat="42.9206" lon="0.28696">
        <ele>1314</ele>
        <time>2017-02-09T11:21:48.079Z</time>
      </trkpt>
      <trkpt lat="42.92061" lon="0.28696">
        <ele>1314</ele>
        <time>2017-02-09T11:21:49.079Z</time>
      </trkpt>
      <trkpt lat="42.92061" lon="0.28696">
        <ele>1313</ele>
        <time>2017-02-09T11:21:50.079Z</time>
      </trkpt>
      <trkpt lat="42.92062" lon="0.28697">
        <ele>1313</ele>
        <time>2017-02-09T11:21:51.079Z</time>
      </trkpt>
      <trkpt lat="42.92062" lon="0.28697">
        <ele>1312</ele>
        <time>2017-02-09T11:21:52.079Z</time>
      </trkpt>
      <trkpt lat="42.92063" lon="0.28698">
        <ele>1312</ele>
        <time>2017-02-09T11:21:53.079Z</time>
      </trkpt>
      <trkpt lat="42.92064" lon="0.28698">
        <ele>1312</ele>
        <time>2017-02-09T11:21:54.079Z</time>
      </trkpt>
      <trkpt lat="42.92064" lon="0.28699">
        <ele>1312</ele>
        <time>2017-02-09T11:21:55.079Z</time>
      </trkpt>
      <trkpt lat="42.92065" lon="0.28699">
        <ele>1312</ele>
        <time>2017-02-09T11:21:56.079Z</time>
      </trkpt>
      <trkpt lat="42.92066" lon="0.28699">
        <ele>1312</ele>
        <time>2017-02-09T11:21:57.079Z</time>
      </trkpt>
      <trkpt lat="42.92067" lon="0.287">
        <ele>1313</ele>
        <time>2017-02-09T11:21:58.079Z</time>
      </trkpt>
      <trkpt lat="42.92068" lon="0.287">
        <ele>1313</ele>
        <time>2017-02-09T11:21:59.079Z</time>
      </trkpt>
      <trkpt lat="42.92069" lon="0.28701">
        <ele>1314</ele>
        <time>2017-02-09T11:22:00.079Z</time>
      </trkpt>
      <trkpt lat="42.9207" lon="0.28701">
        <ele>1314</ele>
        <time>2017-02-09T11:22:01.079Z</time>
      </trkpt>
      <trkpt lat="42.92071" lon="0.28701">
        <ele>1315</ele>
        <time>2017-02-09T11:22:02.079Z</time>
      </trkpt>
      <trkpt lat="42.92072" lon="0.28702">
        <ele>1316</ele>
        <time>2017-02-09T11:22:03.079Z</time>
      </trkpt>
      <trkpt lat="42.92073" lon="0.28702">
        <ele>1316</ele>
        <time>2017-02-09T11:22:04.079Z</time>
      </trkpt>
      <trkpt lat="42.92074" lon="0.28702">
        <ele>1317</ele>
        <time>2017-02-09T11:22:05.079Z</time>
      </trkpt>
      <trkpt lat="42.92075" lon="0.28703">
        <ele>1318</ele>
        <time>2017-02-09T11:22:06.079Z</time>
      </trkpt>
      <trkpt lat="42.92076" lon="0.28703">
        <ele>1319</ele>
        <time>2017-02-09T11:22:07.079Z</time>
      </trkpt>
      <trkpt lat="42.92077" lon="0.28704">
        <ele>1319</ele>
        <time>2017-02-09T11:22:08.079Z</time>
      </trkpt>
      <trkpt lat="42.92078" lon="0.28704">
        <ele>1319</ele>
        <time>2017-02-09T11:22:09.079Z</time>
      </trkpt>
      <trkpt lat="42.92079" lon="0.28705">
        <ele>1318</ele>
        <time>2017-02-09T11:22:10.079Z</time>
      </trkpt>
      <trkpt lat="42.9208" lon="0.28706">
        <ele>1319</ele>
        <time>2017-02-09T11:22:11.079Z</time>
      </trkpt>
      <trkpt lat="42.92081" lon="0.28706">
        <ele>1318</ele>
        <time>2017-02-09T11:22:12.079Z</time>
      </trkpt>
      <trkpt lat="42.92082" lon="0.28707">
        <ele>1319</ele>
        <time>2017-02-09T11:22:13.079Z</time>
      </trkpt>
      <trkpt lat="42.92082" lon="0.28707">
        <ele>1319</ele>
        <time>2017-02-09T11:22:14.079Z</time>
      </trkpt>
      <trkpt lat="42.92083" lon="0.28708">
        <ele>1320</ele>
        <time>2017-02-09T11:22:15.079Z</time>
      </trkpt>
      <trkpt lat="42.92084" lon="0.28708">
        <ele>1319</ele>
        <time>2017-02-09T11:22:16.079Z</time>
      </trkpt>
      <trkpt lat="42.92085" lon="0.28708">
        <ele>1319</ele>
        <time>2017-02-09T11:22:17.079Z</time>
      </trkpt>
      <trkpt lat="42.92086" lon="0.28709">
        <ele>1319</ele>
        <time>2017-02-09T11:22:18.079Z</time>
      </trkpt>
      <trkpt lat="42.92087" lon="0.28709">
        <ele>1318</ele>
        <time>2017-02-09T11:22:19.079Z</time>
      </trkpt>
      <trkpt lat="42.92088" lon="0.2871">
        <ele>1317</ele>
        <time>2017-02-09T11:22:20.079Z</time>
      </trkpt>
      <trkpt lat="42.92089" lon="0.2871">
        <ele>1317</ele>
        <time>2017-02-09T11:22:21.079Z</time>
      </trkpt>
      <trkpt lat="42.92089" lon="0.28711">
        <ele>1317</ele>
        <time>2017-02-09T11:22:22.079Z</time>
      </trkpt>
      <trkpt lat="42.9209" lon="0.28711">
        <ele>1317</ele>
        <time>2017-02-09T11:22:23.079Z</time>
      </trkpt>
      <trkpt lat="42.9209" lon="0.28711">
        <ele>1316</ele>
        <time>2017-02-09T11:22:24.079Z</time>
      </trkpt>
      <trkpt lat="42.9209" lon="0.28711">
        <ele>1316</ele>
        <time>2017-02-09T11:22:25.079Z</time>
      </trkpt>
      <trkpt lat="42.9209" lon="0.28711">
        <ele>1317</ele>
        <time>2017-02-09T11:22:26.079Z</time>
      </trkpt>
      <trkpt lat="42.9209" lon="0.28711">
        <ele>1317</ele>
        <time>2017-02-09T11:22:27.079Z</time>
      </trkpt>
      <trkpt lat="42.9209" lon="0.28711">
        <ele>1317</ele>
        <time>2017-02-09T11:22:28.079Z</time>
      </trkpt>
      <trkpt lat="42.9209" lon="0.28711">
        <ele>1316</ele>
        <time>2017-02-09T11:22:29.079Z</time>
      </trkpt>
      <trkpt lat="42.9209" lon="0.28711">
        <ele>1316</ele>
        <time>2017-02-09T11:22:30.079Z</time>
      </trkpt>
      <trkpt lat="42.9209" lon="0.28711">
        <ele>1315</ele>
        <time>2017-02-09T11:22:31.079Z</time>
      </trkpt>
      <trkpt lat="42.92093" lon="0.28713">
        <ele>1313</ele>
        <time>2017-02-09T11:22:32.087Z</time>
      </trkpt>
      <trkpt lat="42.92094" lon="0.28713">
        <ele>1314</ele>
        <time>2017-02-09T11:22:33.087Z</time>
      </trkpt>
      <trkpt lat="42.92094" lon="0.28714">
        <ele>1314</ele>
        <time>2017-02-09T11:22:34.087Z</time>
      </trkpt>
      <trkpt lat="42.92095" lon="0.28715">
        <ele>1314</ele>
        <time>2017-02-09T11:22:35.087Z</time>
      </trkpt>
      <trkpt lat="42.92096" lon="0.28715">
        <ele>1315</ele>
        <time>2017-02-09T11:22:36.087Z</time>
      </trkpt>
      <trkpt lat="42.92096" lon="0.28715">
        <ele>1315</ele>
        <time>2017-02-09T11:22:37.087Z</time>
      </trkpt>
      <trkpt lat="42.92097" lon="0.28716">
        <ele>1315</ele>
        <time>2017-02-09T11:22:38.087Z</time>
      </trkpt>
      <trkpt lat="42.92098" lon="0.28716">
        <ele>1314</ele>
        <time>2017-02-09T11:22:39.087Z</time>
      </trkpt>
      <trkpt lat="42.92098" lon="0.28717">
        <ele>1314</ele>
        <time>2017-02-09T11:22:40.087Z</time>
      </trkpt>
      <trkpt lat="42.92099" lon="0.28717">
        <ele>1314</ele>
        <time>2017-02-09T11:22:41.087Z</time>
      </trkpt>
      <trkpt lat="42.921" lon="0.28718">
        <ele>1314</ele>
        <time>2017-02-09T11:22:42.087Z</time>
      </trkpt>
      <trkpt lat="42.92101" lon="0.28718">
        <ele>1314</ele>
        <time>2017-02-09T11:22:43.087Z</time>
      </trkpt>
      <trkpt lat="42.92102" lon="0.28719">
        <ele>1314</ele>
        <time>2017-02-09T11:22:44.087Z</time>
      </trkpt>
      <trkpt lat="42.92103" lon="0.28719">
        <ele>1314</ele>
        <time>2017-02-09T11:22:45.087Z</time>
      </trkpt>
      <trkpt lat="42.92104" lon="0.2872">
        <ele>1314</ele>
        <time>2017-02-09T11:22:46.087Z</time>
      </trkpt>
      <trkpt lat="42.92105" lon="0.28721">
        <ele>1315</ele>
        <time>2017-02-09T11:22:47.087Z</time>
      </trkpt>
      <trkpt lat="42.92106" lon="0.28721">
        <ele>1314</ele>
        <time>2017-02-09T11:22:48.087Z</time>
      </trkpt>
      <trkpt lat="42.92106" lon="0.28722">
        <ele>1315</ele>
        <time>2017-02-09T11:22:49.087Z</time>
      </trkpt>
      <trkpt lat="42.92107" lon="0.28723">
        <ele>1315</ele>
        <time>2017-02-09T11:22:50.087Z</time>
      </trkpt>
      <trkpt lat="42.92108" lon="0.28723">
        <ele>1315</ele>
        <time>2017-02-09T11:22:51.087Z</time>
      </trkpt>
      <trkpt lat="42.92109" lon="0.28724">
        <ele>1315</ele>
        <time>2017-02-09T11:22:52.087Z</time>
      </trkpt>
      <trkpt lat="42.9211" lon="0.28725">
        <ele>1316</ele>
        <time>2017-02-09T11:22:53.087Z</time>
      </trkpt>
      <trkpt lat="42.92111" lon="0.28726">
        <ele>1317</ele>
        <time>2017-02-09T11:22:54.087Z</time>
      </trkpt>
      <trkpt lat="42.92112" lon="0.28727">
        <ele>1317</ele>
        <time>2017-02-09T11:22:55.087Z</time>
      </trkpt>
      <trkpt lat="42.92113" lon="0.28727">
        <ele>1317</ele>
        <time>2017-02-09T11:22:56.087Z</time>
      </trkpt>
      <trkpt lat="42.92114" lon="0.28728">
        <ele>1317</ele>
        <time>2017-02-09T11:22:57.087Z</time>
      </trkpt>
      <trkpt lat="42.92115" lon="0.28729">
        <ele>1318</ele>
        <time>2017-02-09T11:22:58.087Z</time>
      </trkpt>
      <trkpt lat="42.92115" lon="0.2873">
        <ele>1318</ele>
        <time>2017-02-09T11:22:59.087Z</time>
      </trkpt>
      <trkpt lat="42.92116" lon="0.2873">
        <ele>1318</ele>
        <time>2017-02-09T11:23:00.087Z</time>
      </trkpt>
      <trkpt lat="42.92117" lon="0.28731">
        <ele>1318</ele>
        <time>2017-02-09T11:23:01.087Z</time>
      </trkpt>
      <trkpt lat="42.92117" lon="0.28731">
        <ele>1319</ele>
        <time>2017-02-09T11:23:02.087Z</time>
      </trkpt>
      <trkpt lat="42.92118" lon="0.28732">
        <ele>1319</ele>
        <time>2017-02-09T11:23:03.087Z</time>
      </trkpt>
      <trkpt lat="42.92118" lon="0.28732">
        <ele>1320</ele>
        <time>2017-02-09T11:23:04.087Z</time>
      </trkpt>
      <trkpt lat="42.92119" lon="0.28733">
        <ele>1321</ele>
        <time>2017-02-09T11:23:05.087Z</time>
      </trkpt>
      <trkpt lat="42.9212" lon="0.28734">
        <ele>1321</ele>
        <time>2017-02-09T11:23:06.087Z</time>
      </trkpt>
      <trkpt lat="42.9212" lon="0.28734">
        <ele>1322</ele>
        <time>2017-02-09T11:23:07.087Z</time>
      </trkpt>
      <trkpt lat="42.92121" lon="0.28735">
        <ele>1323</ele>
        <time>2017-02-09T11:23:08.087Z</time>
      </trkpt>
      <trkpt lat="42.92122" lon="0.28736">
        <ele>1323</ele>
        <time>2017-02-09T11:23:09.087Z</time>
      </trkpt>
      <trkpt lat="42.92123" lon="0.28736">
        <ele>1323</ele>
        <time>2017-02-09T11:23:10.087Z</time>
      </trkpt>
      <trkpt lat="42.92124" lon="0.28737">
        <ele>1324</ele>
        <time>2017-02-09T11:23:11.087Z</time>
      </trkpt>
      <trkpt lat="42.92124" lon="0.28738">
        <ele>1323</ele>
        <time>2017-02-09T11:23:12.087Z</time>
      </trkpt>
      <trkpt lat="42.92125" lon="0.28739">
        <ele>1323</ele>
        <time>2017-02-09T11:23:13.087Z</time>
      </trkpt>
      <trkpt lat="42.92126" lon="0.2874">
        <ele>1322</ele>
        <time>2017-02-09T11:23:14.087Z</time>
      </trkpt>
      <trkpt lat="42.92127" lon="0.28741">
        <ele>1322</ele>
        <time>2017-02-09T11:23:15.087Z</time>
      </trkpt>
      <trkpt lat="42.92128" lon="0.28741">
        <ele>1323</ele>
        <time>2017-02-09T11:23:16.087Z</time>
      </trkpt>
      <trkpt lat="42.92129" lon="0.28742">
        <ele>1324</ele>
        <time>2017-02-09T11:23:17.087Z</time>
      </trkpt>
      <trkpt lat="42.9213" lon="0.28743">
        <ele>1324</ele>
        <time>2017-02-09T11:23:18.087Z</time>
      </trkpt>
      <trkpt lat="42.92131" lon="0.28744">
        <ele>1325</ele>
        <time>2017-02-09T11:23:19.087Z</time>
      </trkpt>
      <trkpt lat="42.92132" lon="0.28745">
        <ele>1323</ele>
        <time>2017-02-09T11:23:20.087Z</time>
      </trkpt>
      <trkpt lat="42.92133" lon="0.28745">
        <ele>1323</ele>
        <time>2017-02-09T11:23:21.087Z</time>
      </trkpt>
      <trkpt lat="42.92134" lon="0.28746">
        <ele>1323</ele>
        <time>2017-02-09T11:23:22.087Z</time>
      </trkpt>
      <trkpt lat="42.92135" lon="0.28747">
        <ele>1322</ele>
        <time>2017-02-09T11:23:23.087Z</time>
      </trkpt>
      <trkpt lat="42.92135" lon="0.28748">
        <ele>1321</ele>
        <time>2017-02-09T11:23:24.087Z</time>
      </trkpt>
      <trkpt lat="42.92136" lon="0.28749">
        <ele>1321</ele>
        <time>2017-02-09T11:23:25.087Z</time>
      </trkpt>
      <trkpt lat="42.92137" lon="0.28749">
        <ele>1321</ele>
        <time>2017-02-09T11:23:26.087Z</time>
      </trkpt>
      <trkpt lat="42.92137" lon="0.2875">
        <ele>1321</ele>
        <time>2017-02-09T11:23:27.087Z</time>
      </trkpt>
      <trkpt lat="42.92138" lon="0.28751">
        <ele>1321</ele>
        <time>2017-02-09T11:23:28.087Z</time>
      </trkpt>
      <trkpt lat="42.92139" lon="0.28752">
        <ele>1321</ele>
        <time>2017-02-09T11:23:29.087Z</time>
      </trkpt>
      <trkpt lat="42.9214" lon="0.28753">
        <ele>1321</ele>
        <time>2017-02-09T11:23:30.087Z</time>
      </trkpt>
      <trkpt lat="42.9214" lon="0.28754">
        <ele>1321</ele>
        <time>2017-02-09T11:23:31.087Z</time>
      </trkpt>
      <trkpt lat="42.92141" lon="0.28754">
        <ele>1320</ele>
        <time>2017-02-09T11:23:32.087Z</time>
      </trkpt>
      <trkpt lat="42.92142" lon="0.28755">
        <ele>1321</ele>
        <time>2017-02-09T11:23:33.087Z</time>
      </trkpt>
      <trkpt lat="42.92143" lon="0.28756">
        <ele>1320</ele>
        <time>2017-02-09T11:23:34.087Z</time>
      </trkpt>
      <trkpt lat="42.92143" lon="0.28756">
        <ele>1321</ele>
        <time>2017-02-09T11:23:35.087Z</time>
      </trkpt>
      <trkpt lat="42.92144" lon="0.28757">
        <ele>1321</ele>
        <time>2017-02-09T11:23:36.087Z</time>
      </trkpt>
      <trkpt lat="42.92145" lon="0.28758">
        <ele>1322</ele>
        <time>2017-02-09T11:23:37.087Z</time>
      </trkpt>
      <trkpt lat="42.92146" lon="0.28758">
        <ele>1322</ele>
        <time>2017-02-09T11:23:38.087Z</time>
      </trkpt>
      <trkpt lat="42.92147" lon="0.28759">
        <ele>1322</ele>
        <time>2017-02-09T11:23:39.087Z</time>
      </trkpt>
      <trkpt lat="42.92148" lon="0.28759">
        <ele>1323</ele>
        <time>2017-02-09T11:23:40.087Z</time>
      </trkpt>
      <trkpt lat="42.92149" lon="0.2876">
        <ele>1322</ele>
        <time>2017-02-09T11:23:41.087Z</time>
      </trkpt>
      <trkpt lat="42.9215" lon="0.2876">
        <ele>1322</ele>
        <time>2017-02-09T11:23:42.087Z</time>
      </trkpt>
      <trkpt lat="42.9215" lon="0.28761">
        <ele>1322</ele>
        <time>2017-02-09T11:23:43.087Z</time>
      </trkpt>
      <trkpt lat="42.92151" lon="0.28761">
        <ele>1322</ele>
        <time>2017-02-09T11:23:44.087Z</time>
      </trkpt>
      <trkpt lat="42.92152" lon="0.28762">
        <ele>1322</ele>
        <time>2017-02-09T11:23:45.087Z</time>
      </trkpt>
      <trkpt lat="42.92153" lon="0.28763">
        <ele>1322</ele>
        <time>2017-02-09T11:23:46.087Z</time>
      </trkpt>
      <trkpt lat="42.92154" lon="0.28763">
        <ele>1323</ele>
        <time>2017-02-09T11:23:47.087Z</time>
      </trkpt>
      <trkpt lat="42.92155" lon="0.28764">
        <ele>1323</ele>
        <time>2017-02-09T11:23:48.087Z</time>
      </trkpt>
      <trkpt lat="42.92156" lon="0.28764">
        <ele>1323</ele>
        <time>2017-02-09T11:23:49.087Z</time>
      </trkpt>
      <trkpt lat="42.92157" lon="0.28765">
        <ele>1324</ele>
        <time>2017-02-09T11:23:50.087Z</time>
      </trkpt>
      <trkpt lat="42.92157" lon="0.28766">
        <ele>1324</ele>
        <time>2017-02-09T11:23:51.087Z</time>
      </trkpt>
      <trkpt lat="42.92158" lon="0.28766">
        <ele>1324</ele>
        <time>2017-02-09T11:23:52.087Z</time>
      </trkpt>
      <trkpt lat="42.92159" lon="0.28767">
        <ele>1325</ele>
        <time>2017-02-09T11:23:53.087Z</time>
      </trkpt>
      <trkpt lat="42.9216" lon="0.28767">
        <ele>1325</ele>
        <time>2017-02-09T11:23:54.087Z</time>
      </trkpt>
      <trkpt lat="42.92161" lon="0.28768">
        <ele>1325</ele>
        <time>2017-02-09T11:23:55.087Z</time>
      </trkpt>
      <trkpt lat="42.92162" lon="0.28768">
        <ele>1323</ele>
        <time>2017-02-09T11:23:56.087Z</time>
      </trkpt>
      <trkpt lat="42.92163" lon="0.28769">
        <ele>1322</ele>
        <time>2017-02-09T11:23:57.087Z</time>
      </trkpt>
      <trkpt lat="42.92164" lon="0.28769">
        <ele>1322</ele>
        <time>2017-02-09T11:23:58.087Z</time>
      </trkpt>
      <trkpt lat="42.92165" lon="0.2877">
        <ele>1321</ele>
        <time>2017-02-09T11:23:59.087Z</time>
      </trkpt>
      <trkpt lat="42.92165" lon="0.2877">
        <ele>1320</ele>
        <time>2017-02-09T11:24:00.087Z</time>
      </trkpt>
      <trkpt lat="42.92166" lon="0.28771">
        <ele>1320</ele>
        <time>2017-02-09T11:24:01.087Z</time>
      </trkpt>
      <trkpt lat="42.92167" lon="0.28771">
        <ele>1319</ele>
        <time>2017-02-09T11:24:02.087Z</time>
      </trkpt>
      <trkpt lat="42.92167" lon="0.28772">
        <ele>1318</ele>
        <time>2017-02-09T11:24:03.087Z</time>
      </trkpt>
      <trkpt lat="42.92168" lon="0.28772">
        <ele>1318</ele>
        <time>2017-02-09T11:24:04.087Z</time>
      </trkpt>
      <trkpt lat="42.92169" lon="0.28773">
        <ele>1318</ele>
        <time>2017-02-09T11:24:05.087Z</time>
      </trkpt>
      <trkpt lat="42.9217" lon="0.28774">
        <ele>1318</ele>
        <time>2017-02-09T11:24:06.087Z</time>
      </trkpt>
      <trkpt lat="42.92171" lon="0.28774">
        <ele>1318</ele>
        <time>2017-02-09T11:24:07.087Z</time>
      </trkpt>
      <trkpt lat="42.92171" lon="0.28774">
        <ele>1318</ele>
        <time>2017-02-09T11:24:08.087Z</time>
      </trkpt>
      <trkpt lat="42.92172" lon="0.28775">
        <ele>1317</ele>
        <time>2017-02-09T11:24:09.087Z</time>
      </trkpt>
      <trkpt lat="42.92173" lon="0.28776">
        <ele>1317</ele>
        <time>2017-02-09T11:24:10.087Z</time>
      </trkpt>
      <trkpt lat="42.92174" lon="0.28776">
        <ele>1318</ele>
        <time>2017-02-09T11:24:11.087Z</time>
      </trkpt>
      <trkpt lat="42.92175" lon="0.28777">
        <ele>1318</ele>
        <time>2017-02-09T11:24:12.087Z</time>
      </trkpt>
      <trkpt lat="42.92176" lon="0.28777">
        <ele>1318</ele>
        <time>2017-02-09T11:24:13.087Z</time>
      </trkpt>
      <trkpt lat="42.92177" lon="0.28778">
        <ele>1318</ele>
        <time>2017-02-09T11:24:14.087Z</time>
      </trkpt>
      <trkpt lat="42.92179" lon="0.28778">
        <ele>1319</ele>
        <time>2017-02-09T11:24:15.087Z</time>
      </trkpt>
      <trkpt lat="42.92179" lon="0.28779">
        <ele>1319</ele>
        <time>2017-02-09T11:24:16.087Z</time>
      </trkpt>
      <trkpt lat="42.9218" lon="0.28779">
        <ele>1320</ele>
        <time>2017-02-09T11:24:17.087Z</time>
      </trkpt>
      <trkpt lat="42.92181" lon="0.2878">
        <ele>1320</ele>
        <time>2017-02-09T11:24:18.087Z</time>
      </trkpt>
      <trkpt lat="42.92182" lon="0.28781">
        <ele>1320</ele>
        <time>2017-02-09T11:24:19.087Z</time>
      </trkpt>
      <trkpt lat="42.92183" lon="0.28781">
        <ele>1321</ele>
        <time>2017-02-09T11:24:20.087Z</time>
      </trkpt>
      <trkpt lat="42.92184" lon="0.28781">
        <ele>1321</ele>
        <time>2017-02-09T11:24:21.087Z</time>
      </trkpt>
      <trkpt lat="42.92185" lon="0.28782">
        <ele>1321</ele>
        <time>2017-02-09T11:24:22.087Z</time>
      </trkpt>
      <trkpt lat="42.92186" lon="0.28783">
        <ele>1319</ele>
        <time>2017-02-09T11:24:23.087Z</time>
      </trkpt>
      <trkpt lat="42.92187" lon="0.28783">
        <ele>1318</ele>
        <time>2017-02-09T11:24:24.087Z</time>
      </trkpt>
      <trkpt lat="42.92188" lon="0.28784">
        <ele>1319</ele>
        <time>2017-02-09T11:24:25.087Z</time>
      </trkpt>
      <trkpt lat="42.92188" lon="0.28785">
        <ele>1319</ele>
        <time>2017-02-09T11:24:26.087Z</time>
      </trkpt>
      <trkpt lat="42.92189" lon="0.28785">
        <ele>1319</ele>
        <time>2017-02-09T11:24:27.087Z</time>
      </trkpt>
      <trkpt lat="42.9219" lon="0.28786">
        <ele>1319</ele>
        <time>2017-02-09T11:24:28.087Z</time>
      </trkpt>
      <trkpt lat="42.92191" lon="0.28786">
        <ele>1319</ele>
        <time>2017-02-09T11:24:29.087Z</time>
      </trkpt>
      <trkpt lat="42.92191" lon="0.28787">
        <ele>1318</ele>
        <time>2017-02-09T11:24:30.087Z</time>
      </trkpt>
      <trkpt lat="42.92192" lon="0.28788">
        <ele>1318</ele>
        <time>2017-02-09T11:24:31.087Z</time>
      </trkpt>
      <trkpt lat="42.92193" lon="0.28788">
        <ele>1318</ele>
        <time>2017-02-09T11:24:32.087Z</time>
      </trkpt>
      <trkpt lat="42.92194" lon="0.28789">
        <ele>1318</ele>
        <time>2017-02-09T11:24:33.087Z</time>
      </trkpt>
      <trkpt lat="42.92195" lon="0.2879">
        <ele>1318</ele>
        <time>2017-02-09T11:24:34.087Z</time>
      </trkpt>
      <trkpt lat="42.92196" lon="0.2879">
        <ele>1318</ele>
        <time>2017-02-09T11:24:35.087Z</time>
      </trkpt>
      <trkpt lat="42.92197" lon="0.28791">
        <ele>1319</ele>
        <time>2017-02-09T11:24:36.087Z</time>
      </trkpt>
      <trkpt lat="42.92197" lon="0.28791">
        <ele>1318</ele>
        <time>2017-02-09T11:24:37.087Z</time>
      </trkpt>
      <trkpt lat="42.92198" lon="0.28792">
        <ele>1318</ele>
        <time>2017-02-09T11:24:38.087Z</time>
      </trkpt>
      <trkpt lat="42.92199" lon="0.28793">
        <ele>1319</ele>
        <time>2017-02-09T11:24:39.087Z</time>
      </trkpt>
      <trkpt lat="42.922" lon="0.28793">
        <ele>1320</ele>
        <time>2017-02-09T11:24:40.087Z</time>
      </trkpt>
      <trkpt lat="42.92201" lon="0.28794">
        <ele>1320</ele>
        <time>2017-02-09T11:24:41.087Z</time>
      </trkpt>
      <trkpt lat="42.92202" lon="0.28795">
        <ele>1320</ele>
        <time>2017-02-09T11:24:42.087Z</time>
      </trkpt>
      <trkpt lat="42.92203" lon="0.28796">
        <ele>1320</ele>
        <time>2017-02-09T11:24:43.087Z</time>
      </trkpt>
      <trkpt lat="42.92204" lon="0.28796">
        <ele>1321</ele>
        <time>2017-02-09T11:24:44.087Z</time>
      </trkpt>
      <trkpt lat="42.92205" lon="0.28797">
        <ele>1321</ele>
        <time>2017-02-09T11:24:45.087Z</time>
      </trkpt>
      <trkpt lat="42.92206" lon="0.28798">
        <ele>1321</ele>
        <time>2017-02-09T11:24:46.087Z</time>
      </trkpt>
      <trkpt lat="42.92206" lon="0.28799">
        <ele>1319</ele>
        <time>2017-02-09T11:24:47.087Z</time>
      </trkpt>
      <trkpt lat="42.92207" lon="0.288">
        <ele>1319</ele>
        <time>2017-02-09T11:24:48.087Z</time>
      </trkpt>
      <trkpt lat="42.92208" lon="0.288">
        <ele>1317</ele>
        <time>2017-02-09T11:24:49.087Z</time>
      </trkpt>
      <trkpt lat="42.92208" lon="0.28801">
        <ele>1316</ele>
        <time>2017-02-09T11:24:50.087Z</time>
      </trkpt>
      <trkpt lat="42.92209" lon="0.28802">
        <ele>1315</ele>
        <time>2017-02-09T11:24:51.087Z</time>
      </trkpt>
      <trkpt lat="42.92209" lon="0.28802">
        <ele>1314</ele>
        <time>2017-02-09T11:24:52.087Z</time>
      </trkpt>
      <trkpt lat="42.9221" lon="0.28803">
        <ele>1314</ele>
        <time>2017-02-09T11:24:53.087Z</time>
      </trkpt>
      <trkpt lat="42.92211" lon="0.28804">
        <ele>1314</ele>
        <time>2017-02-09T11:24:54.087Z</time>
      </trkpt>
      <trkpt lat="42.92212" lon="0.28804">
        <ele>1313</ele>
        <time>2017-02-09T11:24:55.087Z</time>
      </trkpt>
      <trkpt lat="42.92212" lon="0.28805">
        <ele>1309</ele>
        <time>2017-02-09T11:24:56.087Z</time>
      </trkpt>
      <trkpt lat="42.92213" lon="0.28806">
        <ele>1309</ele>
        <time>2017-02-09T11:24:57.087Z</time>
      </trkpt>
      <trkpt lat="42.92213" lon="0.28807">
        <ele>1309</ele>
        <time>2017-02-09T11:24:58.087Z</time>
      </trkpt>
      <trkpt lat="42.92214" lon="0.28808">
        <ele>1309</ele>
        <time>2017-02-09T11:24:59.087Z</time>
      </trkpt>
      <trkpt lat="42.92215" lon="0.28808">
        <ele>1308</ele>
        <time>2017-02-09T11:25:00.087Z</time>
      </trkpt>
      <trkpt lat="42.92216" lon="0.28809">
        <ele>1309</ele>
        <time>2017-02-09T11:25:01.087Z</time>
      </trkpt>
      <trkpt lat="42.92217" lon="0.2881">
        <ele>1309</ele>
        <time>2017-02-09T11:25:02.087Z</time>
      </trkpt>
      <trkpt lat="42.92218" lon="0.28811">
        <ele>1309</ele>
        <time>2017-02-09T11:25:03.087Z</time>
      </trkpt>
      <trkpt lat="42.92218" lon="0.28811">
        <ele>1309</ele>
        <time>2017-02-09T11:25:04.087Z</time>
      </trkpt>
      <trkpt lat="42.92219" lon="0.28812">
        <ele>1309</ele>
        <time>2017-02-09T11:25:05.087Z</time>
      </trkpt>
      <trkpt lat="42.9222" lon="0.28812">
        <ele>1310</ele>
        <time>2017-02-09T11:25:06.087Z</time>
      </trkpt>
      <trkpt lat="42.92221" lon="0.28813">
        <ele>1309</ele>
        <time>2017-02-09T11:25:07.087Z</time>
      </trkpt>
      <trkpt lat="42.92222" lon="0.28814">
        <ele>1309</ele>
        <time>2017-02-09T11:25:08.087Z</time>
      </trkpt>
      <trkpt lat="42.92223" lon="0.28814">
        <ele>1310</ele>
        <time>2017-02-09T11:25:09.087Z</time>
      </trkpt>
      <trkpt lat="42.92224" lon="0.28815">
        <ele>1310</ele>
        <time>2017-02-09T11:25:10.087Z</time>
      </trkpt>
      <trkpt lat="42.92225" lon="0.28816">
        <ele>1310</ele>
        <time>2017-02-09T11:25:11.087Z</time>
      </trkpt>
      <trkpt lat="42.92226" lon="0.28816">
        <ele>1310</ele>
        <time>2017-02-09T11:25:12.087Z</time>
      </trkpt>
      <trkpt lat="42.92227" lon="0.28817">
        <ele>1310</ele>
        <time>2017-02-09T11:25:13.087Z</time>
      </trkpt>
      <trkpt lat="42.92228" lon="0.28818">
        <ele>1311</ele>
        <time>2017-02-09T11:25:14.087Z</time>
      </trkpt>
      <trkpt lat="42.92229" lon="0.28818">
        <ele>1311</ele>
        <time>2017-02-09T11:25:15.087Z</time>
      </trkpt>
      <trkpt lat="42.9223" lon="0.28819">
        <ele>1312</ele>
        <time>2017-02-09T11:25:16.087Z</time>
      </trkpt>
      <trkpt lat="42.9223" lon="0.28819">
        <ele>1312</ele>
        <time>2017-02-09T11:25:17.087Z</time>
      </trkpt>
      <trkpt lat="42.92231" lon="0.2882">
        <ele>1313</ele>
        <time>2017-02-09T11:25:18.087Z</time>
      </trkpt>
      <trkpt lat="42.92232" lon="0.28821">
        <ele>1313</ele>
        <time>2017-02-09T11:25:19.087Z</time>
      </trkpt>
      <trkpt lat="42.92233" lon="0.28821">
        <ele>1313</ele>
        <time>2017-02-09T11:25:20.087Z</time>
      </trkpt>
      <trkpt lat="42.92234" lon="0.28822">
        <ele>1313</ele>
        <time>2017-02-09T11:25:21.087Z</time>
      </trkpt>
      <trkpt lat="42.92234" lon="0.28823">
        <ele>1313</ele>
        <time>2017-02-09T11:25:22.087Z</time>
      </trkpt>
      <trkpt lat="42.92235" lon="0.28824">
        <ele>1312</ele>
        <time>2017-02-09T11:25:23.087Z</time>
      </trkpt>
      <trkpt lat="42.92236" lon="0.28824">
        <ele>1313</ele>
        <time>2017-02-09T11:25:24.087Z</time>
      </trkpt>
      <trkpt lat="42.92236" lon="0.28825">
        <ele>1313</ele>
        <time>2017-02-09T11:25:25.087Z</time>
      </trkpt>
      <trkpt lat="42.92237" lon="0.28826">
        <ele>1313</ele>
        <time>2017-02-09T11:25:26.087Z</time>
      </trkpt>
      <trkpt lat="42.92238" lon="0.28826">
        <ele>1313</ele>
        <time>2017-02-09T11:25:27.087Z</time>
      </trkpt>
      <trkpt lat="42.92238" lon="0.28827">
        <ele>1314</ele>
        <time>2017-02-09T11:25:28.087Z</time>
      </trkpt>
      <trkpt lat="42.92239" lon="0.28827">
        <ele>1314</ele>
        <time>2017-02-09T11:25:29.087Z</time>
      </trkpt>
      <trkpt lat="42.9224" lon="0.28827">
        <ele>1314</ele>
        <time>2017-02-09T11:25:30.087Z</time>
      </trkpt>
      <trkpt lat="42.9224" lon="0.28827">
        <ele>1315</ele>
        <time>2017-02-09T11:25:31.087Z</time>
      </trkpt>
      <trkpt lat="42.92241" lon="0.28827">
        <ele>1315</ele>
        <time>2017-02-09T11:25:32.087Z</time>
      </trkpt>
      <trkpt lat="42.92241" lon="0.28827">
        <ele>1315</ele>
        <time>2017-02-09T11:25:33.087Z</time>
      </trkpt>
      <trkpt lat="42.92242" lon="0.28827">
        <ele>1315</ele>
        <time>2017-02-09T11:25:34.087Z</time>
      </trkpt>
      <trkpt lat="42.92242" lon="0.28827">
        <ele>1315</ele>
        <time>2017-02-09T11:25:35.087Z</time>
      </trkpt>
      <trkpt lat="42.92243" lon="0.28828">
        <ele>1315</ele>
        <time>2017-02-09T11:25:36.087Z</time>
      </trkpt>
      <trkpt lat="42.92243" lon="0.28828">
        <ele>1315</ele>
        <time>2017-02-09T11:25:37.087Z</time>
      </trkpt>
      <trkpt lat="42.92244" lon="0.28829">
        <ele>1316</ele>
        <time>2017-02-09T11:25:38.087Z</time>
      </trkpt>
      <trkpt lat="42.92245" lon="0.28829">
        <ele>1316</ele>
        <time>2017-02-09T11:25:39.087Z</time>
      </trkpt>
      <trkpt lat="42.92246" lon="0.2883">
        <ele>1315</ele>
        <time>2017-02-09T11:25:40.087Z</time>
      </trkpt>
      <trkpt lat="42.92246" lon="0.28831">
        <ele>1315</ele>
        <time>2017-02-09T11:25:41.087Z</time>
      </trkpt>
      <trkpt lat="42.92247" lon="0.28832">
        <ele>1314</ele>
        <time>2017-02-09T11:25:42.087Z</time>
      </trkpt>
      <trkpt lat="42.92247" lon="0.28832">
        <ele>1314</ele>
        <time>2017-02-09T11:25:43.087Z</time>
      </trkpt>
      <trkpt lat="42.92248" lon="0.28833">
        <ele>1314</ele>
        <time>2017-02-09T11:25:44.087Z</time>
      </trkpt>
      <trkpt lat="42.92249" lon="0.28833">
        <ele>1314</ele>
        <time>2017-02-09T11:25:45.087Z</time>
      </trkpt>
      <trkpt lat="42.92249" lon="0.28834">
        <ele>1314</ele>
        <time>2017-02-09T11:25:46.087Z</time>
      </trkpt>
      <trkpt lat="42.9225" lon="0.28835">
        <ele>1312</ele>
        <time>2017-02-09T11:25:47.087Z</time>
      </trkpt>
      <trkpt lat="42.9225" lon="0.28836">
        <ele>1310</ele>
        <time>2017-02-09T11:25:48.087Z</time>
      </trkpt>
      <trkpt lat="42.92251" lon="0.28837">
        <ele>1309</ele>
        <time>2017-02-09T11:25:49.087Z</time>
      </trkpt>
      <trkpt lat="42.92252" lon="0.28838">
        <ele>1307</ele>
        <time>2017-02-09T11:25:50.087Z</time>
      </trkpt>
      <trkpt lat="42.92253" lon="0.28839">
        <ele>1307</ele>
        <time>2017-02-09T11:25:51.087Z</time>
      </trkpt>
      <trkpt lat="42.92253" lon="0.28839">
        <ele>1307</ele>
        <time>2017-02-09T11:25:52.087Z</time>
      </trkpt>
      <trkpt lat="42.92254" lon="0.2884">
        <ele>1307</ele>
        <time>2017-02-09T11:25:53.087Z</time>
      </trkpt>
      <trkpt lat="42.92255" lon="0.28841">
        <ele>1307</ele>
        <time>2017-02-09T11:25:54.087Z</time>
      </trkpt>
      <trkpt lat="42.92255" lon="0.28842">
        <ele>1306</ele>
        <time>2017-02-09T11:25:55.087Z</time>
      </trkpt>
      <trkpt lat="42.92256" lon="0.28842">
        <ele>1306</ele>
        <time>2017-02-09T11:25:56.087Z</time>
      </trkpt>
      <trkpt lat="42.92257" lon="0.28843">
        <ele>1306</ele>
        <time>2017-02-09T11:25:57.087Z</time>
      </trkpt>
      <trkpt lat="42.92258" lon="0.28843">
        <ele>1306</ele>
        <time>2017-02-09T11:25:58.087Z</time>
      </trkpt>
      <trkpt lat="42.92259" lon="0.28844">
        <ele>1306</ele>
        <time>2017-02-09T11:25:59.087Z</time>
      </trkpt>
      <trkpt lat="42.9226" lon="0.28845">
        <ele>1305</ele>
        <time>2017-02-09T11:26:00.087Z</time>
      </trkpt>
      <trkpt lat="42.9226" lon="0.28846">
        <ele>1305</ele>
        <time>2017-02-09T11:26:01.087Z</time>
      </trkpt>
      <trkpt lat="42.92261" lon="0.28846">
        <ele>1303</ele>
        <time>2017-02-09T11:26:02.087Z</time>
      </trkpt>
      <trkpt lat="42.92262" lon="0.28847">
        <ele>1303</ele>
        <time>2017-02-09T11:26:03.087Z</time>
      </trkpt>
      <trkpt lat="42.92262" lon="0.28848">
        <ele>1300</ele>
        <time>2017-02-09T11:26:04.087Z</time>
      </trkpt>
      <trkpt lat="42.92263" lon="0.28849">
        <ele>1299</ele>
        <time>2017-02-09T11:26:05.087Z</time>
      </trkpt>
      <trkpt lat="42.92263" lon="0.2885">
        <ele>1298</ele>
        <time>2017-02-09T11:26:06.087Z</time>
      </trkpt>
      <trkpt lat="42.92264" lon="0.2885">
        <ele>1298</ele>
        <time>2017-02-09T11:26:07.087Z</time>
      </trkpt>
      <trkpt lat="42.92265" lon="0.28851">
        <ele>1298</ele>
        <time>2017-02-09T11:26:08.087Z</time>
      </trkpt>
      <trkpt lat="42.92266" lon="0.28852">
        <ele>1297</ele>
        <time>2017-02-09T11:26:09.087Z</time>
      </trkpt>
      <trkpt lat="42.92267" lon="0.28853">
        <ele>1298</ele>
        <time>2017-02-09T11:26:10.087Z</time>
      </trkpt>
      <trkpt lat="42.92268" lon="0.28853">
        <ele>1298</ele>
        <time>2017-02-09T11:26:11.087Z</time>
      </trkpt>
      <trkpt lat="42.92268" lon="0.28854">
        <ele>1298</ele>
        <time>2017-02-09T11:26:12.087Z</time>
      </trkpt>
      <trkpt lat="42.92269" lon="0.28854">
        <ele>1297</ele>
        <time>2017-02-09T11:26:13.087Z</time>
      </trkpt>
      <trkpt lat="42.9227" lon="0.28855">
        <ele>1297</ele>
        <time>2017-02-09T11:26:14.087Z</time>
      </trkpt>
      <trkpt lat="42.92271" lon="0.28856">
        <ele>1296</ele>
        <time>2017-02-09T11:26:15.087Z</time>
      </trkpt>
      <trkpt lat="42.92271" lon="0.28857">
        <ele>1296</ele>
        <time>2017-02-09T11:26:16.087Z</time>
      </trkpt>
      <trkpt lat="42.92272" lon="0.28857">
        <ele>1295</ele>
        <time>2017-02-09T11:26:17.087Z</time>
      </trkpt>
      <trkpt lat="42.92273" lon="0.28858">
        <ele>1295</ele>
        <time>2017-02-09T11:26:18.087Z</time>
      </trkpt>
      <trkpt lat="42.92274" lon="0.28859">
        <ele>1295</ele>
        <time>2017-02-09T11:26:19.087Z</time>
      </trkpt>
      <trkpt lat="42.92274" lon="0.28859">
        <ele>1295</ele>
        <time>2017-02-09T11:26:20.087Z</time>
      </trkpt>
      <trkpt lat="42.92275" lon="0.2886">
        <ele>1294</ele>
        <time>2017-02-09T11:26:21.087Z</time>
      </trkpt>
      <trkpt lat="42.92276" lon="0.28861">
        <ele>1294</ele>
        <time>2017-02-09T11:26:22.087Z</time>
      </trkpt>
      <trkpt lat="42.92277" lon="0.28862">
        <ele>1294</ele>
        <time>2017-02-09T11:26:23.087Z</time>
      </trkpt>
      <trkpt lat="42.92278" lon="0.28862">
        <ele>1294</ele>
        <time>2017-02-09T11:26:24.087Z</time>
      </trkpt>
      <trkpt lat="42.92279" lon="0.28863">
        <ele>1293</ele>
        <time>2017-02-09T11:26:25.087Z</time>
      </trkpt>
      <trkpt lat="42.92279" lon="0.28864">
        <ele>1293</ele>
        <time>2017-02-09T11:26:26.087Z</time>
      </trkpt>
      <trkpt lat="42.9228" lon="0.28865">
        <ele>1293</ele>
        <time>2017-02-09T11:26:27.087Z</time>
      </trkpt>
      <trkpt lat="42.92281" lon="0.28865">
        <ele>1292</ele>
        <time>2017-02-09T11:26:28.087Z</time>
      </trkpt>
      <trkpt lat="42.92281" lon="0.28866">
        <ele>1292</ele>
        <time>2017-02-09T11:26:29.087Z</time>
      </trkpt>
      <trkpt lat="42.92282" lon="0.28867">
        <ele>1291</ele>
        <time>2017-02-09T11:26:30.087Z</time>
      </trkpt>
      <trkpt lat="42.92283" lon="0.28868">
        <ele>1291</ele>
        <time>2017-02-09T11:26:31.087Z</time>
      </trkpt>
      <trkpt lat="42.92284" lon="0.28869">
        <ele>1291</ele>
        <time>2017-02-09T11:26:32.087Z</time>
      </trkpt>
      <trkpt lat="42.92284" lon="0.2887">
        <ele>1290</ele>
        <time>2017-02-09T11:26:33.087Z</time>
      </trkpt>
      <trkpt lat="42.92285" lon="0.2887">
        <ele>1290</ele>
        <time>2017-02-09T11:26:34.087Z</time>
      </trkpt>
      <trkpt lat="42.92286" lon="0.28871">
        <ele>1290</ele>
        <time>2017-02-09T11:26:35.087Z</time>
      </trkpt>
      <trkpt lat="42.92286" lon="0.28872">
        <ele>1290</ele>
        <time>2017-02-09T11:26:36.087Z</time>
      </trkpt>
      <trkpt lat="42.92287" lon="0.28873">
        <ele>1290</ele>
        <time>2017-02-09T11:26:37.087Z</time>
      </trkpt>
      <trkpt lat="42.92288" lon="0.28874">
        <ele>1290</ele>
        <time>2017-02-09T11:26:38.087Z</time>
      </trkpt>
      <trkpt lat="42.92289" lon="0.28875">
        <ele>1289</ele>
        <time>2017-02-09T11:26:39.087Z</time>
      </trkpt>
      <trkpt lat="42.92289" lon="0.28876">
        <ele>1289</ele>
        <time>2017-02-09T11:26:40.087Z</time>
      </trkpt>
      <trkpt lat="42.9229" lon="0.28877">
        <ele>1288</ele>
        <time>2017-02-09T11:26:41.087Z</time>
      </trkpt>
      <trkpt lat="42.92291" lon="0.28878">
        <ele>1288</ele>
        <time>2017-02-09T11:26:42.087Z</time>
      </trkpt>
      <trkpt lat="42.92292" lon="0.28878">
        <ele>1288</ele>
        <time>2017-02-09T11:26:43.087Z</time>
      </trkpt>
      <trkpt lat="42.92292" lon="0.28879">
        <ele>1288</ele>
        <time>2017-02-09T11:26:44.087Z</time>
      </trkpt>
      <trkpt lat="42.92293" lon="0.2888">
        <ele>1287</ele>
        <time>2017-02-09T11:26:45.087Z</time>
      </trkpt>
      <trkpt lat="42.92294" lon="0.28881">
        <ele>1288</ele>
        <time>2017-02-09T11:26:46.087Z</time>
      </trkpt>
      <trkpt lat="42.92295" lon="0.28882">
        <ele>1287</ele>
        <time>2017-02-09T11:26:47.087Z</time>
      </trkpt>
      <trkpt lat="42.92295" lon="0.28883">
        <ele>1287</ele>
        <time>2017-02-09T11:26:48.087Z</time>
      </trkpt>
      <trkpt lat="42.92296" lon="0.28884">
        <ele>1287</ele>
        <time>2017-02-09T11:26:49.087Z</time>
      </trkpt>
      <trkpt lat="42.92297" lon="0.28885">
        <ele>1286</ele>
        <time>2017-02-09T11:26:50.087Z</time>
      </trkpt>
      <trkpt lat="42.92297" lon="0.28886">
        <ele>1286</ele>
        <time>2017-02-09T11:26:51.087Z</time>
      </trkpt>
      <trkpt lat="42.92298" lon="0.28887">
        <ele>1286</ele>
        <time>2017-02-09T11:26:52.087Z</time>
      </trkpt>
      <trkpt lat="42.92299" lon="0.28888">
        <ele>1286</ele>
        <time>2017-02-09T11:26:53.087Z</time>
      </trkpt>
      <trkpt lat="42.92299" lon="0.28889">
        <ele>1286</ele>
        <time>2017-02-09T11:26:54.087Z</time>
      </trkpt>
      <trkpt lat="42.923" lon="0.2889">
        <ele>1286</ele>
        <time>2017-02-09T11:26:55.087Z</time>
      </trkpt>
      <trkpt lat="42.92301" lon="0.28891">
        <ele>1286</ele>
        <time>2017-02-09T11:26:56.087Z</time>
      </trkpt>
      <trkpt lat="42.92302" lon="0.28892">
        <ele>1285</ele>
        <time>2017-02-09T11:26:57.087Z</time>
      </trkpt>
      <trkpt lat="42.92303" lon="0.28893">
        <ele>1285</ele>
        <time>2017-02-09T11:26:58.087Z</time>
      </trkpt>
      <trkpt lat="42.92304" lon="0.28894">
        <ele>1285</ele>
        <time>2017-02-09T11:26:59.087Z</time>
      </trkpt>
      <trkpt lat="42.92304" lon="0.28895">
        <ele>1285</ele>
        <time>2017-02-09T11:27:00.087Z</time>
      </trkpt>
      <trkpt lat="42.92305" lon="0.28896">
        <ele>1285</ele>
        <time>2017-02-09T11:27:01.087Z</time>
      </trkpt>
      <trkpt lat="42.92306" lon="0.28897">
        <ele>1285</ele>
        <time>2017-02-09T11:27:02.087Z</time>
      </trkpt>
      <trkpt lat="42.92306" lon="0.28898">
        <ele>1284</ele>
        <time>2017-02-09T11:27:03.087Z</time>
      </trkpt>
      <trkpt lat="42.92307" lon="0.28899">
        <ele>1284</ele>
        <time>2017-02-09T11:27:04.087Z</time>
      </trkpt>
      <trkpt lat="42.92308" lon="0.289">
        <ele>1284</ele>
        <time>2017-02-09T11:27:05.087Z</time>
      </trkpt>
      <trkpt lat="42.92309" lon="0.28901">
        <ele>1284</ele>
        <time>2017-02-09T11:27:06.087Z</time>
      </trkpt>
      <trkpt lat="42.92309" lon="0.28902">
        <ele>1284</ele>
        <time>2017-02-09T11:27:07.087Z</time>
      </trkpt>
      <trkpt lat="42.9231" lon="0.28903">
        <ele>1284</ele>
        <time>2017-02-09T11:27:08.087Z</time>
      </trkpt>
      <trkpt lat="42.92311" lon="0.28904">
        <ele>1284</ele>
        <time>2017-02-09T11:27:09.087Z</time>
      </trkpt>
      <trkpt lat="42.92312" lon="0.28904">
        <ele>1284</ele>
        <time>2017-02-09T11:27:10.087Z</time>
      </trkpt>
      <trkpt lat="42.92313" lon="0.28905">
        <ele>1284</ele>
        <time>2017-02-09T11:27:11.087Z</time>
      </trkpt>
      <trkpt lat="42.92314" lon="0.28906">
        <ele>1283</ele>
        <time>2017-02-09T11:27:12.087Z</time>
      </trkpt>
      <trkpt lat="42.92314" lon="0.28907">
        <ele>1283</ele>
        <time>2017-02-09T11:27:13.087Z</time>
      </trkpt>
      <trkpt lat="42.92315" lon="0.28908">
        <ele>1283</ele>
        <time>2017-02-09T11:27:14.087Z</time>
      </trkpt>
      <trkpt lat="42.92316" lon="0.28909">
        <ele>1283</ele>
        <time>2017-02-09T11:27:15.087Z</time>
      </trkpt>
      <trkpt lat="42.92317" lon="0.2891">
        <ele>1283</ele>
        <time>2017-02-09T11:27:16.087Z</time>
      </trkpt>
      <trkpt lat="42.92318" lon="0.28911">
        <ele>1283</ele>
        <time>2017-02-09T11:27:17.087Z</time>
      </trkpt>
      <trkpt lat="42.92319" lon="0.28912">
        <ele>1283</ele>
        <time>2017-02-09T11:27:18.087Z</time>
      </trkpt>
      <trkpt lat="42.92319" lon="0.28913">
        <ele>1283</ele>
        <time>2017-02-09T11:27:19.087Z</time>
      </trkpt>
      <trkpt lat="42.9232" lon="0.28914">
        <ele>1282</ele>
        <time>2017-02-09T11:27:20.087Z</time>
      </trkpt>
      <trkpt lat="42.92321" lon="0.28915">
        <ele>1282</ele>
        <time>2017-02-09T11:27:21.087Z</time>
      </trkpt>
      <trkpt lat="42.92322" lon="0.28916">
        <ele>1282</ele>
        <time>2017-02-09T11:27:22.087Z</time>
      </trkpt>
      <trkpt lat="42.92322" lon="0.28917">
        <ele>1282</ele>
        <time>2017-02-09T11:27:23.087Z</time>
      </trkpt>
      <trkpt lat="42.92323" lon="0.28918">
        <ele>1282</ele>
        <time>2017-02-09T11:27:24.087Z</time>
      </trkpt>
      <trkpt lat="42.92324" lon="0.28919">
        <ele>1281</ele>
        <time>2017-02-09T11:27:25.087Z</time>
      </trkpt>
      <trkpt lat="42.92324" lon="0.28921">
        <ele>1281</ele>
        <time>2017-02-09T11:27:26.087Z</time>
      </trkpt>
      <trkpt lat="42.92325" lon="0.28922">
        <ele>1281</ele>
        <time>2017-02-09T11:27:27.087Z</time>
      </trkpt>
      <trkpt lat="42.92326" lon="0.28923">
        <ele>1281</ele>
        <time>2017-02-09T11:27:28.087Z</time>
      </trkpt>
      <trkpt lat="42.92327" lon="0.28923">
        <ele>1282</ele>
        <time>2017-02-09T11:27:29.087Z</time>
      </trkpt>
      <trkpt lat="42.92327" lon="0.28924">
        <ele>1281</ele>
        <time>2017-02-09T11:27:30.087Z</time>
      </trkpt>
      <trkpt lat="42.92328" lon="0.28925">
        <ele>1282</ele>
        <time>2017-02-09T11:27:31.087Z</time>
      </trkpt>
      <trkpt lat="42.92328" lon="0.28925">
        <ele>1281</ele>
        <time>2017-02-09T11:27:32.087Z</time>
      </trkpt>
      <trkpt lat="42.92329" lon="0.28925">
        <ele>1282</ele>
        <time>2017-02-09T11:27:33.087Z</time>
      </trkpt>
      <trkpt lat="42.92329" lon="0.28925">
        <ele>1282</ele>
        <time>2017-02-09T11:27:34.087Z</time>
      </trkpt>
      <trkpt lat="42.92329" lon="0.28925">
        <ele>1282</ele>
        <time>2017-02-09T11:27:35.087Z</time>
      </trkpt>
      <trkpt lat="42.9233" lon="0.28925">
        <ele>1283</ele>
        <time>2017-02-09T11:27:36.087Z</time>
      </trkpt>
      <trkpt lat="42.9233" lon="0.28925">
        <ele>1283</ele>
        <time>2017-02-09T11:27:37.087Z</time>
      </trkpt>
      <trkpt lat="42.9233" lon="0.28925">
        <ele>1283</ele>
        <time>2017-02-09T11:27:38.087Z</time>
      </trkpt>
      <trkpt lat="42.92331" lon="0.28927">
        <ele>1280</ele>
        <time>2017-02-09T11:27:39.095Z</time>
      </trkpt>
      <trkpt lat="42.92332" lon="0.28927">
        <ele>1280</ele>
        <time>2017-02-09T11:27:40.095Z</time>
      </trkpt>
      <trkpt lat="42.92332" lon="0.28927">
        <ele>1279</ele>
        <time>2017-02-09T11:27:41.095Z</time>
      </trkpt>
      <trkpt lat="42.92333" lon="0.28927">
        <ele>1279</ele>
        <time>2017-02-09T11:27:42.095Z</time>
      </trkpt>
      <trkpt lat="42.92333" lon="0.28928">
        <ele>1279</ele>
        <time>2017-02-09T11:27:43.095Z</time>
      </trkpt>
      <trkpt lat="42.92334" lon="0.28928">
        <ele>1278</ele>
        <time>2017-02-09T11:27:44.095Z</time>
      </trkpt>
      <trkpt lat="42.92335" lon="0.28928">
        <ele>1279</ele>
        <time>2017-02-09T11:27:45.095Z</time>
      </trkpt>
      <trkpt lat="42.92336" lon="0.28929">
        <ele>1279</ele>
        <time>2017-02-09T11:27:46.095Z</time>
      </trkpt>
      <trkpt lat="42.92337" lon="0.2893">
        <ele>1279</ele>
        <time>2017-02-09T11:27:47.095Z</time>
      </trkpt>
      <trkpt lat="42.92337" lon="0.2893">
        <ele>1278</ele>
        <time>2017-02-09T11:27:48.095Z</time>
      </trkpt>
      <trkpt lat="42.92338" lon="0.28931">
        <ele>1278</ele>
        <time>2017-02-09T11:27:49.095Z</time>
      </trkpt>
      <trkpt lat="42.92339" lon="0.28931">
        <ele>1278</ele>
        <time>2017-02-09T11:27:50.095Z</time>
      </trkpt>
      <trkpt lat="42.92339" lon="0.28932">
        <ele>1277</ele>
        <time>2017-02-09T11:27:51.095Z</time>
      </trkpt>
      <trkpt lat="42.9234" lon="0.28932">
        <ele>1277</ele>
        <time>2017-02-09T11:27:52.095Z</time>
      </trkpt>
      <trkpt lat="42.9234" lon="0.28932">
        <ele>1278</ele>
        <time>2017-02-09T11:27:53.095Z</time>
      </trkpt>
      <trkpt lat="42.92341" lon="0.28933">
        <ele>1278</ele>
        <time>2017-02-09T11:27:54.095Z</time>
      </trkpt>
      <trkpt lat="42.92342" lon="0.28933">
        <ele>1277</ele>
        <time>2017-02-09T11:27:55.095Z</time>
      </trkpt>
      <trkpt lat="42.92342" lon="0.28933">
        <ele>1277</ele>
        <time>2017-02-09T11:27:56.095Z</time>
      </trkpt>
      <trkpt lat="42.92343" lon="0.28933">
        <ele>1277</ele>
        <time>2017-02-09T11:27:57.095Z</time>
      </trkpt>
      <trkpt lat="42.92344" lon="0.28933">
        <ele>1277</ele>
        <time>2017-02-09T11:27:58.095Z</time>
      </trkpt>
      <trkpt lat="42.92345" lon="0.28933">
        <ele>1277</ele>
        <time>2017-02-09T11:27:59.095Z</time>
      </trkpt>
      <trkpt lat="42.92346" lon="0.28933">
        <ele>1278</ele>
        <time>2017-02-09T11:28:00.095Z</time>
      </trkpt>
      <trkpt lat="42.92347" lon="0.28933">
        <ele>1278</ele>
        <time>2017-02-09T11:28:01.095Z</time>
      </trkpt>
      <trkpt lat="42.92348" lon="0.28933">
        <ele>1278</ele>
        <time>2017-02-09T11:28:02.095Z</time>
      </trkpt>
      <trkpt lat="42.92349" lon="0.28933">
        <ele>1278</ele>
        <time>2017-02-09T11:28:03.095Z</time>
      </trkpt>
      <trkpt lat="42.9235" lon="0.28933">
        <ele>1278</ele>
        <time>2017-02-09T11:28:04.095Z</time>
      </trkpt>
      <trkpt lat="42.92351" lon="0.28934">
        <ele>1277</ele>
        <time>2017-02-09T11:28:05.095Z</time>
      </trkpt>
      <trkpt lat="42.92351" lon="0.28934">
        <ele>1277</ele>
        <time>2017-02-09T11:28:06.095Z</time>
      </trkpt>
      <trkpt lat="42.92352" lon="0.28935">
        <ele>1277</ele>
        <time>2017-02-09T11:28:07.095Z</time>
      </trkpt>
      <trkpt lat="42.92353" lon="0.28935">
        <ele>1277</ele>
        <time>2017-02-09T11:28:08.095Z</time>
      </trkpt>
      <trkpt lat="42.92353" lon="0.28935">
        <ele>1277</ele>
        <time>2017-02-09T11:28:09.095Z</time>
      </trkpt>
      <trkpt lat="42.92354" lon="0.28935">
        <ele>1276</ele>
        <time>2017-02-09T11:28:10.095Z</time>
      </trkpt>
      <trkpt lat="42.92355" lon="0.28935">
        <ele>1277</ele>
        <time>2017-02-09T11:28:11.095Z</time>
      </trkpt>
      <trkpt lat="42.92355" lon="0.28935">
        <ele>1277</ele>
        <time>2017-02-09T11:28:12.095Z</time>
      </trkpt>
      <trkpt lat="42.92356" lon="0.28935">
        <ele>1277</ele>
        <time>2017-02-09T11:28:13.095Z</time>
      </trkpt>
      <trkpt lat="42.92357" lon="0.28935">
        <ele>1276</ele>
        <time>2017-02-09T11:28:14.095Z</time>
      </trkpt>
      <trkpt lat="42.92358" lon="0.28934">
        <ele>1276</ele>
        <time>2017-02-09T11:28:15.095Z</time>
      </trkpt>
      <trkpt lat="42.92359" lon="0.28934">
        <ele>1276</ele>
        <time>2017-02-09T11:28:16.095Z</time>
      </trkpt>
      <trkpt lat="42.9236" lon="0.28934">
        <ele>1275</ele>
        <time>2017-02-09T11:28:17.095Z</time>
      </trkpt>
      <trkpt lat="42.92361" lon="0.28933">
        <ele>1275</ele>
        <time>2017-02-09T11:28:18.095Z</time>
      </trkpt>
      <trkpt lat="42.92362" lon="0.28933">
        <ele>1275</ele>
        <time>2017-02-09T11:28:19.095Z</time>
      </trkpt>
      <trkpt lat="42.92364" lon="0.28933">
        <ele>1276</ele>
        <time>2017-02-09T11:28:20.095Z</time>
      </trkpt>
      <trkpt lat="42.92365" lon="0.28932">
        <ele>1277</ele>
        <time>2017-02-09T11:28:21.095Z</time>
      </trkpt>
      <trkpt lat="42.92366" lon="0.28932">
        <ele>1276</ele>
        <time>2017-02-09T11:28:22.095Z</time>
      </trkpt>
      <trkpt lat="42.92367" lon="0.28931">
        <ele>1275</ele>
        <time>2017-02-09T11:28:23.095Z</time>
      </trkpt>
      <trkpt lat="42.92368" lon="0.28931">
        <ele>1275</ele>
        <time>2017-02-09T11:28:24.095Z</time>
      </trkpt>
      <trkpt lat="42.92369" lon="0.28931">
        <ele>1275</ele>
        <time>2017-02-09T11:28:25.095Z</time>
      </trkpt>
      <trkpt lat="42.9237" lon="0.28931">
        <ele>1275</ele>
        <time>2017-02-09T11:28:26.095Z</time>
      </trkpt>
      <trkpt lat="42.92371" lon="0.28931">
        <ele>1275</ele>
        <time>2017-02-09T11:28:27.095Z</time>
      </trkpt>
      <trkpt lat="42.92373" lon="0.28931">
        <ele>1276</ele>
        <time>2017-02-09T11:28:28.095Z</time>
      </trkpt>
      <trkpt lat="42.92374" lon="0.28932">
        <ele>1276</ele>
        <time>2017-02-09T11:28:29.095Z</time>
      </trkpt>
      <trkpt lat="42.92375" lon="0.28932">
        <ele>1277</ele>
        <time>2017-02-09T11:28:30.095Z</time>
      </trkpt>
      <trkpt lat="42.92376" lon="0.28933">
        <ele>1277</ele>
        <time>2017-02-09T11:28:31.095Z</time>
      </trkpt>
      <trkpt lat="42.92378" lon="0.28935">
        <ele>1277</ele>
        <time>2017-02-09T11:28:32.095Z</time>
      </trkpt>
      <trkpt lat="42.92379" lon="0.28936">
        <ele>1277</ele>
        <time>2017-02-09T11:28:33.095Z</time>
      </trkpt>
      <trkpt lat="42.9238" lon="0.28937">
        <ele>1277</ele>
        <time>2017-02-09T11:28:34.095Z</time>
      </trkpt>
      <trkpt lat="42.92381" lon="0.28938">
        <ele>1276</ele>
        <time>2017-02-09T11:28:35.095Z</time>
      </trkpt>
      <trkpt lat="42.92381" lon="0.28939">
        <ele>1275</ele>
        <time>2017-02-09T11:28:36.095Z</time>
      </trkpt>
      <trkpt lat="42.92382" lon="0.28941">
        <ele>1275</ele>
        <time>2017-02-09T11:28:37.095Z</time>
      </trkpt>
      <trkpt lat="42.92383" lon="0.28942">
        <ele>1275</ele>
        <time>2017-02-09T11:28:38.095Z</time>
      </trkpt>
      <trkpt lat="42.92384" lon="0.28943">
        <ele>1275</ele>
        <time>2017-02-09T11:28:39.095Z</time>
      </trkpt>
      <trkpt lat="42.92385" lon="0.28944">
        <ele>1275</ele>
        <time>2017-02-09T11:28:40.095Z</time>
      </trkpt>
      <trkpt lat="42.92386" lon="0.28944">
        <ele>1275</ele>
        <time>2017-02-09T11:28:41.095Z</time>
      </trkpt>
      <trkpt lat="42.92386" lon="0.28945">
        <ele>1274</ele>
        <time>2017-02-09T11:28:42.095Z</time>
      </trkpt>
      <trkpt lat="42.92387" lon="0.28946">
        <ele>1274</ele>
        <time>2017-02-09T11:28:43.095Z</time>
      </trkpt>
      <trkpt lat="42.92388" lon="0.28946">
        <ele>1274</ele>
        <time>2017-02-09T11:28:44.095Z</time>
      </trkpt>
      <trkpt lat="42.92389" lon="0.28947">
        <ele>1274</ele>
        <time>2017-02-09T11:28:45.095Z</time>
      </trkpt>
      <trkpt lat="42.9239" lon="0.28947">
        <ele>1274</ele>
        <time>2017-02-09T11:28:46.095Z</time>
      </trkpt>
      <trkpt lat="42.9239" lon="0.28948">
        <ele>1274</ele>
        <time>2017-02-09T11:28:47.095Z</time>
      </trkpt>
      <trkpt lat="42.92391" lon="0.28949">
        <ele>1274</ele>
        <time>2017-02-09T11:28:48.095Z</time>
      </trkpt>
      <trkpt lat="42.92392" lon="0.28949">
        <ele>1274</ele>
        <time>2017-02-09T11:28:49.095Z</time>
      </trkpt>
      <trkpt lat="42.92393" lon="0.2895">
        <ele>1273</ele>
        <time>2017-02-09T11:28:50.095Z</time>
      </trkpt>
      <trkpt lat="42.92394" lon="0.2895">
        <ele>1273</ele>
        <time>2017-02-09T11:28:51.095Z</time>
      </trkpt>
      <trkpt lat="42.92395" lon="0.28951">
        <ele>1272</ele>
        <time>2017-02-09T11:28:52.095Z</time>
      </trkpt>
      <trkpt lat="42.92395" lon="0.28951">
        <ele>1272</ele>
        <time>2017-02-09T11:28:53.095Z</time>
      </trkpt>
      <trkpt lat="42.92396" lon="0.28952">
        <ele>1272</ele>
        <time>2017-02-09T11:28:54.095Z</time>
      </trkpt>
      <trkpt lat="42.92397" lon="0.28952">
        <ele>1272</ele>
        <time>2017-02-09T11:28:55.095Z</time>
      </trkpt>
      <trkpt lat="42.92398" lon="0.28952">
        <ele>1272</ele>
        <time>2017-02-09T11:28:56.095Z</time>
      </trkpt>
      <trkpt lat="42.92399" lon="0.28952">
        <ele>1272</ele>
        <time>2017-02-09T11:28:57.095Z</time>
      </trkpt>
      <trkpt lat="42.924" lon="0.28953">
        <ele>1272</ele>
        <time>2017-02-09T11:28:58.095Z</time>
      </trkpt>
      <trkpt lat="42.92401" lon="0.28953">
        <ele>1272</ele>
        <time>2017-02-09T11:28:59.095Z</time>
      </trkpt>
      <trkpt lat="42.92402" lon="0.28953">
        <ele>1272</ele>
        <time>2017-02-09T11:29:00.095Z</time>
      </trkpt>
      <trkpt lat="42.92403" lon="0.28954">
        <ele>1272</ele>
        <time>2017-02-09T11:29:01.095Z</time>
      </trkpt>
      <trkpt lat="42.92404" lon="0.28954">
        <ele>1271</ele>
        <time>2017-02-09T11:29:02.095Z</time>
      </trkpt>
      <trkpt lat="42.92405" lon="0.28954">
        <ele>1271</ele>
        <time>2017-02-09T11:29:03.095Z</time>
      </trkpt>
      <trkpt lat="42.92406" lon="0.28954">
        <ele>1270</ele>
        <time>2017-02-09T11:29:04.095Z</time>
      </trkpt>
      <trkpt lat="42.92406" lon="0.28955">
        <ele>1270</ele>
        <time>2017-02-09T11:29:05.095Z</time>
      </trkpt>
      <trkpt lat="42.92407" lon="0.28956">
        <ele>1270</ele>
        <time>2017-02-09T11:29:06.095Z</time>
      </trkpt>
      <trkpt lat="42.92408" lon="0.28956">
        <ele>1269</ele>
        <time>2017-02-09T11:29:07.095Z</time>
      </trkpt>
      <trkpt lat="42.92409" lon="0.28957">
        <ele>1269</ele>
        <time>2017-02-09T11:29:08.095Z</time>
      </trkpt>
      <trkpt lat="42.9241" lon="0.28957">
        <ele>1268</ele>
        <time>2017-02-09T11:29:09.095Z</time>
      </trkpt>
      <trkpt lat="42.92411" lon="0.28957">
        <ele>1269</ele>
        <time>2017-02-09T11:29:10.095Z</time>
      </trkpt>
      <trkpt lat="42.92411" lon="0.28957">
        <ele>1269</ele>
        <time>2017-02-09T11:29:11.095Z</time>
      </trkpt>
      <trkpt lat="42.92411" lon="0.28957">
        <ele>1269</ele>
        <time>2017-02-09T11:29:12.095Z</time>
      </trkpt>
      <trkpt lat="42.92411" lon="0.28957">
        <ele>1269</ele>
        <time>2017-02-09T11:29:13.095Z</time>
      </trkpt>
      <trkpt lat="42.92411" lon="0.28957">
        <ele>1269</ele>
        <time>2017-02-09T11:29:14.095Z</time>
      </trkpt>
      <trkpt lat="42.92411" lon="0.28957">
        <ele>1269</ele>
        <time>2017-02-09T11:29:15.095Z</time>
      </trkpt>
      <trkpt lat="42.92411" lon="0.28957">
        <ele>1269</ele>
        <time>2017-02-09T11:29:16.095Z</time>
      </trkpt>
      <trkpt lat="42.92411" lon="0.28957">
        <ele>1269</ele>
        <time>2017-02-09T11:29:17.095Z</time>
      </trkpt>
      <trkpt lat="42.92411" lon="0.28957">
        <ele>1269</ele>
        <time>2017-02-09T11:29:18.095Z</time>
      </trkpt>
      <trkpt lat="42.92415" lon="0.28957">
        <ele>1271</ele>
        <time>2017-02-09T11:29:19.099Z</time>
      </trkpt>
      <trkpt lat="42.92416" lon="0.28958">
        <ele>1272</ele>
        <time>2017-02-09T11:29:20.099Z</time>
      </trkpt>
      <trkpt lat="42.92417" lon="0.28958">
        <ele>1272</ele>
        <time>2017-02-09T11:29:21.099Z</time>
      </trkpt>
      <trkpt lat="42.92419" lon="0.28958">
        <ele>1273</ele>
        <time>2017-02-09T11:29:22.099Z</time>
      </trkpt>
      <trkpt lat="42.9242" lon="0.28959">
        <ele>1273</ele>
        <time>2017-02-09T11:29:23.099Z</time>
      </trkpt>
      <trkpt lat="42.92421" lon="0.28959">
        <ele>1273</ele>
        <time>2017-02-09T11:29:24.099Z</time>
      </trkpt>
      <trkpt lat="42.92422" lon="0.28959">
        <ele>1274</ele>
        <time>2017-02-09T11:29:25.099Z</time>
      </trkpt>
      <trkpt lat="42.92423" lon="0.2896">
        <ele>1274</ele>
        <time>2017-02-09T11:29:26.099Z</time>
      </trkpt>
      <trkpt lat="42.92424" lon="0.2896">
        <ele>1274</ele>
        <time>2017-02-09T11:29:27.099Z</time>
      </trkpt>
      <trkpt lat="42.92425" lon="0.2896">
        <ele>1274</ele>
        <time>2017-02-09T11:29:28.099Z</time>
      </trkpt>
      <trkpt lat="42.92426" lon="0.28961">
        <ele>1274</ele>
        <time>2017-02-09T11:29:29.099Z</time>
      </trkpt>
      <trkpt lat="42.92426" lon="0.28961">
        <ele>1273</ele>
        <time>2017-02-09T11:29:30.099Z</time>
      </trkpt>
      <trkpt lat="42.92427" lon="0.28962">
        <ele>1273</ele>
        <time>2017-02-09T11:29:31.099Z</time>
      </trkpt>
      <trkpt lat="42.92427" lon="0.28963">
        <ele>1273</ele>
        <time>2017-02-09T11:29:32.099Z</time>
      </trkpt>
      <trkpt lat="42.92428" lon="0.28963">
        <ele>1273</ele>
        <time>2017-02-09T11:29:33.099Z</time>
      </trkpt>
      <trkpt lat="42.92429" lon="0.28964">
        <ele>1273</ele>
        <time>2017-02-09T11:29:34.099Z</time>
      </trkpt>
      <trkpt lat="42.9243" lon="0.28965">
        <ele>1273</ele>
        <time>2017-02-09T11:29:35.099Z</time>
      </trkpt>
      <trkpt lat="42.92431" lon="0.28966">
        <ele>1272</ele>
        <time>2017-02-09T11:29:36.099Z</time>
      </trkpt>
      <trkpt lat="42.92431" lon="0.28967">
        <ele>1272</ele>
        <time>2017-02-09T11:29:37.099Z</time>
      </trkpt>
      <trkpt lat="42.92432" lon="0.28968">
        <ele>1272</ele>
        <time>2017-02-09T11:29:38.099Z</time>
      </trkpt>
      <trkpt lat="42.92433" lon="0.28969">
        <ele>1271</ele>
        <time>2017-02-09T11:29:39.099Z</time>
      </trkpt>
      <trkpt lat="42.92434" lon="0.2897">
        <ele>1270</ele>
        <time>2017-02-09T11:29:40.099Z</time>
      </trkpt>
      <trkpt lat="42.92434" lon="0.28971">
        <ele>1268</ele>
        <time>2017-02-09T11:29:41.099Z</time>
      </trkpt>
      <trkpt lat="42.92434" lon="0.28972">
        <ele>1267</ele>
        <time>2017-02-09T11:29:42.099Z</time>
      </trkpt>
      <trkpt lat="42.92435" lon="0.28974">
        <ele>1267</ele>
        <time>2017-02-09T11:29:43.099Z</time>
      </trkpt>
      <trkpt lat="42.92436" lon="0.28975">
        <ele>1266</ele>
        <time>2017-02-09T11:29:44.099Z</time>
      </trkpt>
      <trkpt lat="42.92437" lon="0.28976">
        <ele>1266</ele>
        <time>2017-02-09T11:29:45.099Z</time>
      </trkpt>
      <trkpt lat="42.92438" lon="0.28976">
        <ele>1266</ele>
        <time>2017-02-09T11:29:46.099Z</time>
      </trkpt>
      <trkpt lat="42.92439" lon="0.28977">
        <ele>1265</ele>
        <time>2017-02-09T11:29:47.099Z</time>
      </trkpt>
      <trkpt lat="42.92439" lon="0.28978">
        <ele>1265</ele>
        <time>2017-02-09T11:29:48.099Z</time>
      </trkpt>
      <trkpt lat="42.9244" lon="0.28979">
        <ele>1265</ele>
        <time>2017-02-09T11:29:49.099Z</time>
      </trkpt>
      <trkpt lat="42.9244" lon="0.2898">
        <ele>1264</ele>
        <time>2017-02-09T11:29:50.099Z</time>
      </trkpt>
      <trkpt lat="42.92441" lon="0.28981">
        <ele>1264</ele>
        <time>2017-02-09T11:29:51.099Z</time>
      </trkpt>
      <trkpt lat="42.92442" lon="0.28982">
        <ele>1263</ele>
        <time>2017-02-09T11:29:52.099Z</time>
      </trkpt>
      <trkpt lat="42.92442" lon="0.28983">
        <ele>1263</ele>
        <time>2017-02-09T11:29:53.099Z</time>
      </trkpt>
      <trkpt lat="42.92443" lon="0.28984">
        <ele>1263</ele>
        <time>2017-02-09T11:29:54.099Z</time>
      </trkpt>
      <trkpt lat="42.92443" lon="0.28985">
        <ele>1262</ele>
        <time>2017-02-09T11:29:55.099Z</time>
      </trkpt>
      <trkpt lat="42.92444" lon="0.28985">
        <ele>1262</ele>
        <time>2017-02-09T11:29:56.099Z</time>
      </trkpt>
      <trkpt lat="42.92444" lon="0.28986">
        <ele>1262</ele>
        <time>2017-02-09T11:29:57.099Z</time>
      </trkpt>
      <trkpt lat="42.92445" lon="0.28987">
        <ele>1262</ele>
        <time>2017-02-09T11:29:58.099Z</time>
      </trkpt>
      <trkpt lat="42.92446" lon="0.28988">
        <ele>1261</ele>
        <time>2017-02-09T11:29:59.099Z</time>
      </trkpt>
      <trkpt lat="42.92446" lon="0.28989">
        <ele>1261</ele>
        <time>2017-02-09T11:30:00.099Z</time>
      </trkpt>
      <trkpt lat="42.92447" lon="0.2899">
        <ele>1261</ele>
        <time>2017-02-09T11:30:01.099Z</time>
      </trkpt>
      <trkpt lat="42.92448" lon="0.28991">
        <ele>1261</ele>
        <time>2017-02-09T11:30:02.099Z</time>
      </trkpt>
      <trkpt lat="42.92448" lon="0.28992">
        <ele>1261</ele>
        <time>2017-02-09T11:30:03.099Z</time>
      </trkpt>
      <trkpt lat="42.92449" lon="0.28993">
        <ele>1261</ele>
        <time>2017-02-09T11:30:04.099Z</time>
      </trkpt>
      <trkpt lat="42.9245" lon="0.28994">
        <ele>1260</ele>
        <time>2017-02-09T11:30:05.099Z</time>
      </trkpt>
      <trkpt lat="42.9245" lon="0.28995">
        <ele>1260</ele>
        <time>2017-02-09T11:30:06.099Z</time>
      </trkpt>
      <trkpt lat="42.92451" lon="0.28996">
        <ele>1260</ele>
        <time>2017-02-09T11:30:07.099Z</time>
      </trkpt>
      <trkpt lat="42.92451" lon="0.28997">
        <ele>1260</ele>
        <time>2017-02-09T11:30:08.099Z</time>
      </trkpt>
      <trkpt lat="42.92452" lon="0.28998">
        <ele>1260</ele>
        <time>2017-02-09T11:30:09.099Z</time>
      </trkpt>
      <trkpt lat="42.92452" lon="0.28999">
        <ele>1260</ele>
        <time>2017-02-09T11:30:10.099Z</time>
      </trkpt>
      <trkpt lat="42.92453" lon="0.29">
        <ele>1259</ele>
        <time>2017-02-09T11:30:11.099Z</time>
      </trkpt>
      <trkpt lat="42.92454" lon="0.29001">
        <ele>1259</ele>
        <time>2017-02-09T11:30:12.099Z</time>
      </trkpt>
      <trkpt lat="42.92454" lon="0.29002">
        <ele>1258</ele>
        <time>2017-02-09T11:30:13.099Z</time>
      </trkpt>
      <trkpt lat="42.92455" lon="0.29003">
        <ele>1258</ele>
        <time>2017-02-09T11:30:14.099Z</time>
      </trkpt>
      <trkpt lat="42.92455" lon="0.29004">
        <ele>1258</ele>
        <time>2017-02-09T11:30:15.099Z</time>
      </trkpt>
      <trkpt lat="42.92455" lon="0.29005">
        <ele>1257</ele>
        <time>2017-02-09T11:30:16.099Z</time>
      </trkpt>
      <trkpt lat="42.92456" lon="0.29006">
        <ele>1257</ele>
        <time>2017-02-09T11:30:17.099Z</time>
      </trkpt>
      <trkpt lat="42.92456" lon="0.29007">
        <ele>1257</ele>
        <time>2017-02-09T11:30:18.099Z</time>
      </trkpt>
      <trkpt lat="42.92457" lon="0.29008">
        <ele>1257</ele>
        <time>2017-02-09T11:30:19.099Z</time>
      </trkpt>
      <trkpt lat="42.92457" lon="0.29009">
        <ele>1257</ele>
        <time>2017-02-09T11:30:20.099Z</time>
      </trkpt>
      <trkpt lat="42.92458" lon="0.2901">
        <ele>1256</ele>
        <time>2017-02-09T11:30:21.099Z</time>
      </trkpt>
      <trkpt lat="42.92459" lon="0.2901">
        <ele>1256</ele>
        <time>2017-02-09T11:30:22.099Z</time>
      </trkpt>
      <trkpt lat="42.92459" lon="0.29011">
        <ele>1256</ele>
        <time>2017-02-09T11:30:23.099Z</time>
      </trkpt>
      <trkpt lat="42.9246" lon="0.29012">
        <ele>1256</ele>
        <time>2017-02-09T11:30:24.099Z</time>
      </trkpt>
      <trkpt lat="42.92461" lon="0.29013">
        <ele>1256</ele>
        <time>2017-02-09T11:30:25.099Z</time>
      </trkpt>
      <trkpt lat="42.92462" lon="0.29013">
        <ele>1255</ele>
        <time>2017-02-09T11:30:26.099Z</time>
      </trkpt>
      <trkpt lat="42.92462" lon="0.29014">
        <ele>1256</ele>
        <time>2017-02-09T11:30:27.099Z</time>
      </trkpt>
      <trkpt lat="42.92463" lon="0.29014">
        <ele>1256</ele>
        <time>2017-02-09T11:30:28.099Z</time>
      </trkpt>
      <trkpt lat="42.92464" lon="0.29015">
        <ele>1255</ele>
        <time>2017-02-09T11:30:29.099Z</time>
      </trkpt>
      <trkpt lat="42.92464" lon="0.29015">
        <ele>1255</ele>
        <time>2017-02-09T11:30:30.099Z</time>
      </trkpt>
      <trkpt lat="42.92465" lon="0.29016">
        <ele>1255</ele>
        <time>2017-02-09T11:30:31.099Z</time>
      </trkpt>
      <trkpt lat="42.92466" lon="0.29016">
        <ele>1254</ele>
        <time>2017-02-09T11:30:32.099Z</time>
      </trkpt>
      <trkpt lat="42.92466" lon="0.29016">
        <ele>1255</ele>
        <time>2017-02-09T11:30:33.099Z</time>
      </trkpt>
      <trkpt lat="42.92467" lon="0.29017">
        <ele>1254</ele>
        <time>2017-02-09T11:30:34.099Z</time>
      </trkpt>
      <trkpt lat="42.92468" lon="0.29017">
        <ele>1254</ele>
        <time>2017-02-09T11:30:35.099Z</time>
      </trkpt>
      <trkpt lat="42.92468" lon="0.29017">
        <ele>1254</ele>
        <time>2017-02-09T11:30:36.099Z</time>
      </trkpt>
      <trkpt lat="42.92469" lon="0.29018">
        <ele>1254</ele>
        <time>2017-02-09T11:30:37.099Z</time>
      </trkpt>
      <trkpt lat="42.9247" lon="0.29018">
        <ele>1254</ele>
        <time>2017-02-09T11:30:38.099Z</time>
      </trkpt>
      <trkpt lat="42.92471" lon="0.29018">
        <ele>1254</ele>
        <time>2017-02-09T11:30:39.099Z</time>
      </trkpt>
      <trkpt lat="42.92471" lon="0.29018">
        <ele>1254</ele>
        <time>2017-02-09T11:30:40.099Z</time>
      </trkpt>
      <trkpt lat="42.92472" lon="0.29018">
        <ele>1253</ele>
        <time>2017-02-09T11:30:41.099Z</time>
      </trkpt>
      <trkpt lat="42.92473" lon="0.29019">
        <ele>1253</ele>
        <time>2017-02-09T11:30:42.099Z</time>
      </trkpt>
      <trkpt lat="42.92474" lon="0.29019">
        <ele>1253</ele>
        <time>2017-02-09T11:30:43.099Z</time>
      </trkpt>
      <trkpt lat="42.92475" lon="0.29019">
        <ele>1253</ele>
        <time>2017-02-09T11:30:44.099Z</time>
      </trkpt>
      <trkpt lat="42.92476" lon="0.29018">
        <ele>1254</ele>
        <time>2017-02-09T11:30:45.099Z</time>
      </trkpt>
      <trkpt lat="42.92476" lon="0.29018">
        <ele>1254</ele>
        <time>2017-02-09T11:30:46.099Z</time>
      </trkpt>
      <trkpt lat="42.92477" lon="0.29018">
        <ele>1254</ele>
        <time>2017-02-09T11:30:47.099Z</time>
      </trkpt>
      <trkpt lat="42.92478" lon="0.29017">
        <ele>1254</ele>
        <time>2017-02-09T11:30:48.099Z</time>
      </trkpt>
      <trkpt lat="42.92479" lon="0.29017">
        <ele>1254</ele>
        <time>2017-02-09T11:30:49.099Z</time>
      </trkpt>
      <trkpt lat="42.9248" lon="0.29016">
        <ele>1254</ele>
        <time>2017-02-09T11:30:50.099Z</time>
      </trkpt>
      <trkpt lat="42.9248" lon="0.29016">
        <ele>1254</ele>
        <time>2017-02-09T11:30:51.099Z</time>
      </trkpt>
      <trkpt lat="42.92481" lon="0.29016">
        <ele>1254</ele>
        <time>2017-02-09T11:30:52.099Z</time>
      </trkpt>
      <trkpt lat="42.92482" lon="0.29016">
        <ele>1255</ele>
        <time>2017-02-09T11:30:53.099Z</time>
      </trkpt>
      <trkpt lat="42.92482" lon="0.29015">
        <ele>1255</ele>
        <time>2017-02-09T11:30:54.099Z</time>
      </trkpt>
      <trkpt lat="42.92483" lon="0.29015">
        <ele>1255</ele>
        <time>2017-02-09T11:30:55.099Z</time>
      </trkpt>
      <trkpt lat="42.92484" lon="0.29015">
        <ele>1255</ele>
        <time>2017-02-09T11:30:56.099Z</time>
      </trkpt>
      <trkpt lat="42.92485" lon="0.29014">
        <ele>1255</ele>
        <time>2017-02-09T11:30:57.099Z</time>
      </trkpt>
      <trkpt lat="42.92486" lon="0.29014">
        <ele>1255</ele>
        <time>2017-02-09T11:30:58.099Z</time>
      </trkpt>
      <trkpt lat="42.92487" lon="0.29014">
        <ele>1255</ele>
        <time>2017-02-09T11:30:59.099Z</time>
      </trkpt>
      <trkpt lat="42.92488" lon="0.29014">
        <ele>1254</ele>
        <time>2017-02-09T11:31:00.099Z</time>
      </trkpt>
      <trkpt lat="42.92489" lon="0.29015">
        <ele>1254</ele>
        <time>2017-02-09T11:31:01.099Z</time>
      </trkpt>
      <trkpt lat="42.9249" lon="0.29015">
        <ele>1253</ele>
        <time>2017-02-09T11:31:02.099Z</time>
      </trkpt>
      <trkpt lat="42.9249" lon="0.29015">
        <ele>1253</ele>
        <time>2017-02-09T11:31:03.099Z</time>
      </trkpt>
      <trkpt lat="42.92491" lon="0.29015">
        <ele>1253</ele>
        <time>2017-02-09T11:31:04.099Z</time>
      </trkpt>
      <trkpt lat="42.92492" lon="0.29015">
        <ele>1253</ele>
        <time>2017-02-09T11:31:05.099Z</time>
      </trkpt>
      <trkpt lat="42.92493" lon="0.29015">
        <ele>1253</ele>
        <time>2017-02-09T11:31:06.099Z</time>
      </trkpt>
      <trkpt lat="42.92493" lon="0.29015">
        <ele>1253</ele>
        <time>2017-02-09T11:31:07.099Z</time>
      </trkpt>
      <trkpt lat="42.92494" lon="0.29014">
        <ele>1252</ele>
        <time>2017-02-09T11:31:08.099Z</time>
      </trkpt>
      <trkpt lat="42.92495" lon="0.29014">
        <ele>1253</ele>
        <time>2017-02-09T11:31:09.099Z</time>
      </trkpt>
      <trkpt lat="42.92496" lon="0.29014">
        <ele>1253</ele>
        <time>2017-02-09T11:31:10.099Z</time>
      </trkpt>
      <trkpt lat="42.92497" lon="0.29014">
        <ele>1254</ele>
        <time>2017-02-09T11:31:11.099Z</time>
      </trkpt>
      <trkpt lat="42.92498" lon="0.29014">
        <ele>1255</ele>
        <time>2017-02-09T11:31:12.099Z</time>
      </trkpt>
      <trkpt lat="42.925" lon="0.29014">
        <ele>1254</ele>
        <time>2017-02-09T11:31:13.099Z</time>
      </trkpt>
      <trkpt lat="42.925" lon="0.29014">
        <ele>1255</ele>
        <time>2017-02-09T11:31:14.099Z</time>
      </trkpt>
      <trkpt lat="42.92501" lon="0.29014">
        <ele>1254</ele>
        <time>2017-02-09T11:31:15.099Z</time>
      </trkpt>
      <trkpt lat="42.92502" lon="0.29013">
        <ele>1254</ele>
        <time>2017-02-09T11:31:16.099Z</time>
      </trkpt>
      <trkpt lat="42.92502" lon="0.29013">
        <ele>1254</ele>
        <time>2017-02-09T11:31:17.099Z</time>
      </trkpt>
      <trkpt lat="42.92503" lon="0.29013">
        <ele>1253</ele>
        <time>2017-02-09T11:31:18.099Z</time>
      </trkpt>
      <trkpt lat="42.92504" lon="0.29012">
        <ele>1253</ele>
        <time>2017-02-09T11:31:19.099Z</time>
      </trkpt>
      <trkpt lat="42.92504" lon="0.29012">
        <ele>1253</ele>
        <time>2017-02-09T11:31:20.099Z</time>
      </trkpt>
      <trkpt lat="42.92505" lon="0.29012">
        <ele>1253</ele>
        <time>2017-02-09T11:31:21.099Z</time>
      </trkpt>
      <trkpt lat="42.92505" lon="0.29011">
        <ele>1251</ele>
        <time>2017-02-09T11:31:22.099Z</time>
      </trkpt>
      <trkpt lat="42.92505" lon="0.29011">
        <ele>1251</ele>
        <time>2017-02-09T11:31:23.099Z</time>
      </trkpt>
      <trkpt lat="42.92505" lon="0.2901">
        <ele>1251</ele>
        <time>2017-02-09T11:31:24.099Z</time>
      </trkpt>
      <trkpt lat="42.92506" lon="0.2901">
        <ele>1251</ele>
        <time>2017-02-09T11:31:25.099Z</time>
      </trkpt>
      <trkpt lat="42.92507" lon="0.2901">
        <ele>1251</ele>
        <time>2017-02-09T11:31:26.099Z</time>
      </trkpt>
      <trkpt lat="42.92508" lon="0.2901">
        <ele>1251</ele>
        <time>2017-02-09T11:31:27.099Z</time>
      </trkpt>
      <trkpt lat="42.92509" lon="0.2901">
        <ele>1251</ele>
        <time>2017-02-09T11:31:28.099Z</time>
      </trkpt>
      <trkpt lat="42.92509" lon="0.2901">
        <ele>1250</ele>
        <time>2017-02-09T11:31:29.099Z</time>
      </trkpt>
      <trkpt lat="42.9251" lon="0.29009">
        <ele>1250</ele>
        <time>2017-02-09T11:31:30.099Z</time>
      </trkpt>
      <trkpt lat="42.92511" lon="0.29009">
        <ele>1251</ele>
        <time>2017-02-09T11:31:31.099Z</time>
      </trkpt>
      <trkpt lat="42.92512" lon="0.29009">
        <ele>1249</ele>
        <time>2017-02-09T11:31:32.099Z</time>
      </trkpt>
      <trkpt lat="42.92512" lon="0.29008">
        <ele>1249</ele>
        <time>2017-02-09T11:31:33.099Z</time>
      </trkpt>
      <trkpt lat="42.92512" lon="0.29008">
        <ele>1249</ele>
        <time>2017-02-09T11:31:34.099Z</time>
      </trkpt>
      <trkpt lat="42.92513" lon="0.29007">
        <ele>1249</ele>
        <time>2017-02-09T11:31:35.099Z</time>
      </trkpt>
      <trkpt lat="42.92513" lon="0.29007">
        <ele>1249</ele>
        <time>2017-02-09T11:31:36.099Z</time>
      </trkpt>
      <trkpt lat="42.92514" lon="0.29006">
        <ele>1249</ele>
        <time>2017-02-09T11:31:37.099Z</time>
      </trkpt>
      <trkpt lat="42.92514" lon="0.29006">
        <ele>1249</ele>
        <time>2017-02-09T11:31:38.099Z</time>
      </trkpt>
      <trkpt lat="42.92515" lon="0.29006">
        <ele>1250</ele>
        <time>2017-02-09T11:31:39.099Z</time>
      </trkpt>
      <trkpt lat="42.92515" lon="0.29005">
        <ele>1249</ele>
        <time>2017-02-09T11:31:40.099Z</time>
      </trkpt>
      <trkpt lat="42.92516" lon="0.29005">
        <ele>1250</ele>
        <time>2017-02-09T11:31:41.099Z</time>
      </trkpt>
      <trkpt lat="42.92516" lon="0.29006">
        <ele>1249</ele>
        <time>2017-02-09T11:31:42.099Z</time>
      </trkpt>
      <trkpt lat="42.92517" lon="0.29006">
        <ele>1249</ele>
        <time>2017-02-09T11:31:43.099Z</time>
      </trkpt>
      <trkpt lat="42.92517" lon="0.29006">
        <ele>1250</ele>
        <time>2017-02-09T11:31:44.099Z</time>
      </trkpt>
      <trkpt lat="42.92518" lon="0.29006">
        <ele>1250</ele>
        <time>2017-02-09T11:31:45.099Z</time>
      </trkpt>
      <trkpt lat="42.92518" lon="0.29006">
        <ele>1250</ele>
        <time>2017-02-09T11:31:46.099Z</time>
      </trkpt>
      <trkpt lat="42.92519" lon="0.29006">
        <ele>1250</ele>
        <time>2017-02-09T11:31:47.099Z</time>
      </trkpt>
      <trkpt lat="42.92519" lon="0.29006">
        <ele>1249</ele>
        <time>2017-02-09T11:31:48.099Z</time>
      </trkpt>
      <trkpt lat="42.9252" lon="0.29007">
        <ele>1250</ele>
        <time>2017-02-09T11:31:49.099Z</time>
      </trkpt>
      <trkpt lat="42.92521" lon="0.29007">
        <ele>1250</ele>
        <time>2017-02-09T11:31:50.099Z</time>
      </trkpt>
      <trkpt lat="42.92522" lon="0.29007">
        <ele>1251</ele>
        <time>2017-02-09T11:31:51.099Z</time>
      </trkpt>
      <trkpt lat="42.92523" lon="0.29008">
        <ele>1251</ele>
        <time>2017-02-09T11:31:52.099Z</time>
      </trkpt>
      <trkpt lat="42.92524" lon="0.29008">
        <ele>1250</ele>
        <time>2017-02-09T11:31:53.099Z</time>
      </trkpt>
      <trkpt lat="42.92525" lon="0.29009">
        <ele>1248</ele>
        <time>2017-02-09T11:31:54.099Z</time>
      </trkpt>
      <trkpt lat="42.92526" lon="0.2901">
        <ele>1248</ele>
        <time>2017-02-09T11:31:55.099Z</time>
      </trkpt>
      <trkpt lat="42.92527" lon="0.29011">
        <ele>1248</ele>
        <time>2017-02-09T11:31:56.099Z</time>
      </trkpt>
      <trkpt lat="42.92529" lon="0.29011">
        <ele>1248</ele>
        <time>2017-02-09T11:31:57.099Z</time>
      </trkpt>
      <trkpt lat="42.9253" lon="0.29011">
        <ele>1247</ele>
        <time>2017-02-09T11:31:58.099Z</time>
      </trkpt>
      <trkpt lat="42.92531" lon="0.29012">
        <ele>1246</ele>
        <time>2017-02-09T11:31:59.099Z</time>
      </trkpt>
      <trkpt lat="42.92532" lon="0.29013">
        <ele>1246</ele>
        <time>2017-02-09T11:32:00.099Z</time>
      </trkpt>
      <trkpt lat="42.92533" lon="0.29014">
        <ele>1246</ele>
        <time>2017-02-09T11:32:01.099Z</time>
      </trkpt>
      <trkpt lat="42.92534" lon="0.29014">
        <ele>1245</ele>
        <time>2017-02-09T11:32:02.099Z</time>
      </trkpt>
      <trkpt lat="42.92534" lon="0.29015">
        <ele>1244</ele>
        <time>2017-02-09T11:32:03.099Z</time>
      </trkpt>
      <trkpt lat="42.92535" lon="0.29016">
        <ele>1244</ele>
        <time>2017-02-09T11:32:04.099Z</time>
      </trkpt>
      <trkpt lat="42.92536" lon="0.29016">
        <ele>1244</ele>
        <time>2017-02-09T11:32:05.099Z</time>
      </trkpt>
      <trkpt lat="42.92536" lon="0.29017">
        <ele>1242</ele>
        <time>2017-02-09T11:32:06.099Z</time>
      </trkpt>
      <trkpt lat="42.92537" lon="0.29018">
        <ele>1242</ele>
        <time>2017-02-09T11:32:07.099Z</time>
      </trkpt>
      <trkpt lat="42.92538" lon="0.29018">
        <ele>1242</ele>
        <time>2017-02-09T11:32:08.099Z</time>
      </trkpt>
      <trkpt lat="42.92538" lon="0.29018">
        <ele>1241</ele>
        <time>2017-02-09T11:32:09.099Z</time>
      </trkpt>
      <trkpt lat="42.92539" lon="0.29019">
        <ele>1242</ele>
        <time>2017-02-09T11:32:10.099Z</time>
      </trkpt>
      <trkpt lat="42.9254" lon="0.29019">
        <ele>1241</ele>
        <time>2017-02-09T11:32:11.099Z</time>
      </trkpt>
      <trkpt lat="42.92541" lon="0.2902">
        <ele>1242</ele>
        <time>2017-02-09T11:32:12.099Z</time>
      </trkpt>
      <trkpt lat="42.92542" lon="0.2902">
        <ele>1242</ele>
        <time>2017-02-09T11:32:13.099Z</time>
      </trkpt>
      <trkpt lat="42.92543" lon="0.29021">
        <ele>1243</ele>
        <time>2017-02-09T11:32:14.099Z</time>
      </trkpt>
      <trkpt lat="42.92544" lon="0.29021">
        <ele>1242</ele>
        <time>2017-02-09T11:32:15.099Z</time>
      </trkpt>
      <trkpt lat="42.92545" lon="0.29022">
        <ele>1242</ele>
        <time>2017-02-09T11:32:16.099Z</time>
      </trkpt>
      <trkpt lat="42.92545" lon="0.29022">
        <ele>1242</ele>
        <time>2017-02-09T11:32:17.099Z</time>
      </trkpt>
      <trkpt lat="42.92546" lon="0.29023">
        <ele>1242</ele>
        <time>2017-02-09T11:32:18.099Z</time>
      </trkpt>
      <trkpt lat="42.92547" lon="0.29023">
        <ele>1242</ele>
        <time>2017-02-09T11:32:19.099Z</time>
      </trkpt>
      <trkpt lat="42.92548" lon="0.29023">
        <ele>1243</ele>
        <time>2017-02-09T11:32:20.099Z</time>
      </trkpt>
      <trkpt lat="42.92548" lon="0.29024">
        <ele>1243</ele>
        <time>2017-02-09T11:32:21.099Z</time>
      </trkpt>
      <trkpt lat="42.92549" lon="0.29024">
        <ele>1243</ele>
        <time>2017-02-09T11:32:22.099Z</time>
      </trkpt>
      <trkpt lat="42.9255" lon="0.29024">
        <ele>1243</ele>
        <time>2017-02-09T11:32:23.099Z</time>
      </trkpt>
      <trkpt lat="42.92551" lon="0.29025">
        <ele>1243</ele>
        <time>2017-02-09T11:32:24.099Z</time>
      </trkpt>
      <trkpt lat="42.92552" lon="0.29025">
        <ele>1243</ele>
        <time>2017-02-09T11:32:25.099Z</time>
      </trkpt>
      <trkpt lat="42.92553" lon="0.29025">
        <ele>1244</ele>
        <time>2017-02-09T11:32:26.099Z</time>
      </trkpt>
      <trkpt lat="42.92553" lon="0.29026">
        <ele>1243</ele>
        <time>2017-02-09T11:32:27.099Z</time>
      </trkpt>
      <trkpt lat="42.92554" lon="0.29026">
        <ele>1244</ele>
        <time>2017-02-09T11:32:28.099Z</time>
      </trkpt>
      <trkpt lat="42.92555" lon="0.29026">
        <ele>1244</ele>
        <time>2017-02-09T11:32:29.099Z</time>
      </trkpt>
      <trkpt lat="42.92556" lon="0.29026">
        <ele>1245</ele>
        <time>2017-02-09T11:32:30.099Z</time>
      </trkpt>
      <trkpt lat="42.92557" lon="0.29027">
        <ele>1245</ele>
        <time>2017-02-09T11:32:31.099Z</time>
      </trkpt>
      <trkpt lat="42.92558" lon="0.29027">
        <ele>1245</ele>
        <time>2017-02-09T11:32:32.099Z</time>
      </trkpt>
      <trkpt lat="42.92559" lon="0.29027">
        <ele>1245</ele>
        <time>2017-02-09T11:32:33.099Z</time>
      </trkpt>
      <trkpt lat="42.9256" lon="0.29028">
        <ele>1245</ele>
        <time>2017-02-09T11:32:34.099Z</time>
      </trkpt>
      <trkpt lat="42.92561" lon="0.29028">
        <ele>1244</ele>
        <time>2017-02-09T11:32:35.099Z</time>
      </trkpt>
      <trkpt lat="42.92561" lon="0.29028">
        <ele>1244</ele>
        <time>2017-02-09T11:32:36.099Z</time>
      </trkpt>
      <trkpt lat="42.92562" lon="0.29028">
        <ele>1244</ele>
        <time>2017-02-09T11:32:37.099Z</time>
      </trkpt>
      <trkpt lat="42.92563" lon="0.29029">
        <ele>1243</ele>
        <time>2017-02-09T11:32:38.099Z</time>
      </trkpt>
      <trkpt lat="42.92564" lon="0.29029">
        <ele>1243</ele>
        <time>2017-02-09T11:32:39.099Z</time>
      </trkpt>
      <trkpt lat="42.92564" lon="0.29029">
        <ele>1244</ele>
        <time>2017-02-09T11:32:40.099Z</time>
      </trkpt>
      <trkpt lat="42.92565" lon="0.2903">
        <ele>1244</ele>
        <time>2017-02-09T11:32:41.099Z</time>
      </trkpt>
      <trkpt lat="42.92566" lon="0.2903">
        <ele>1244</ele>
        <time>2017-02-09T11:32:42.099Z</time>
      </trkpt>
      <trkpt lat="42.92567" lon="0.29031">
        <ele>1243</ele>
        <time>2017-02-09T11:32:43.099Z</time>
      </trkpt>
      <trkpt lat="42.92567" lon="0.29031">
        <ele>1243</ele>
        <time>2017-02-09T11:32:44.099Z</time>
      </trkpt>
      <trkpt lat="42.92568" lon="0.29031">
        <ele>1243</ele>
        <time>2017-02-09T11:32:45.099Z</time>
      </trkpt>
      <trkpt lat="42.92569" lon="0.29031">
        <ele>1243</ele>
        <time>2017-02-09T11:32:46.099Z</time>
      </trkpt>
      <trkpt lat="42.9257" lon="0.29031">
        <ele>1243</ele>
        <time>2017-02-09T11:32:47.099Z</time>
      </trkpt>
      <trkpt lat="42.92571" lon="0.29032">
        <ele>1242</ele>
        <time>2017-02-09T11:32:48.099Z</time>
      </trkpt>
      <trkpt lat="42.92571" lon="0.29032">
        <ele>1242</ele>
        <time>2017-02-09T11:32:49.099Z</time>
      </trkpt>
      <trkpt lat="42.92572" lon="0.29033">
        <ele>1242</ele>
        <time>2017-02-09T11:32:50.099Z</time>
      </trkpt>
      <trkpt lat="42.92573" lon="0.29033">
        <ele>1241</ele>
        <time>2017-02-09T11:32:51.099Z</time>
      </trkpt>
      <trkpt lat="42.92574" lon="0.29034">
        <ele>1240</ele>
        <time>2017-02-09T11:32:52.099Z</time>
      </trkpt>
      <trkpt lat="42.92575" lon="0.29034">
        <ele>1241</ele>
        <time>2017-02-09T11:32:53.099Z</time>
      </trkpt>
      <trkpt lat="42.92576" lon="0.29034">
        <ele>1240</ele>
        <time>2017-02-09T11:32:54.099Z</time>
      </trkpt>
      <trkpt lat="42.92577" lon="0.29035">
        <ele>1241</ele>
        <time>2017-02-09T11:32:55.099Z</time>
      </trkpt>
      <trkpt lat="42.92578" lon="0.29036">
        <ele>1241</ele>
        <time>2017-02-09T11:32:56.099Z</time>
      </trkpt>
      <trkpt lat="42.92579" lon="0.29036">
        <ele>1241</ele>
        <time>2017-02-09T11:32:57.099Z</time>
      </trkpt>
      <trkpt lat="42.9258" lon="0.29037">
        <ele>1242</ele>
        <time>2017-02-09T11:32:58.099Z</time>
      </trkpt>
      <trkpt lat="42.92581" lon="0.29038">
        <ele>1241</ele>
        <time>2017-02-09T11:32:59.099Z</time>
      </trkpt>
      <trkpt lat="42.92582" lon="0.29039">
        <ele>1241</ele>
        <time>2017-02-09T11:33:00.099Z</time>
      </trkpt>
      <trkpt lat="42.92583" lon="0.2904">
        <ele>1240</ele>
        <time>2017-02-09T11:33:01.099Z</time>
      </trkpt>
      <trkpt lat="42.92584" lon="0.29041">
        <ele>1240</ele>
        <time>2017-02-09T11:33:02.099Z</time>
      </trkpt>
      <trkpt lat="42.92585" lon="0.29042">
        <ele>1239</ele>
        <time>2017-02-09T11:33:03.099Z</time>
      </trkpt>
      <trkpt lat="42.92586" lon="0.29043">
        <ele>1238</ele>
        <time>2017-02-09T11:33:04.099Z</time>
      </trkpt>
      <trkpt lat="42.92587" lon="0.29044">
        <ele>1237</ele>
        <time>2017-02-09T11:33:05.099Z</time>
      </trkpt>
      <trkpt lat="42.92587" lon="0.29045">
        <ele>1237</ele>
        <time>2017-02-09T11:33:06.099Z</time>
      </trkpt>
      <trkpt lat="42.92588" lon="0.29046">
        <ele>1236</ele>
        <time>2017-02-09T11:33:07.099Z</time>
      </trkpt>
      <trkpt lat="42.92589" lon="0.29047">
        <ele>1236</ele>
        <time>2017-02-09T11:33:08.099Z</time>
      </trkpt>
      <trkpt lat="42.92589" lon="0.29048">
        <ele>1236</ele>
        <time>2017-02-09T11:33:09.099Z</time>
      </trkpt>
      <trkpt lat="42.9259" lon="0.29049">
        <ele>1235</ele>
        <time>2017-02-09T11:33:10.099Z</time>
      </trkpt>
      <trkpt lat="42.9259" lon="0.29049">
        <ele>1235</ele>
        <time>2017-02-09T11:33:11.099Z</time>
      </trkpt>
      <trkpt lat="42.92591" lon="0.2905">
        <ele>1235</ele>
        <time>2017-02-09T11:33:12.099Z</time>
      </trkpt>
      <trkpt lat="42.92591" lon="0.29051">
        <ele>1234</ele>
        <time>2017-02-09T11:33:13.099Z</time>
      </trkpt>
      <trkpt lat="42.92592" lon="0.29051">
        <ele>1234</ele>
        <time>2017-02-09T11:33:14.099Z</time>
      </trkpt>
      <trkpt lat="42.92592" lon="0.29052">
        <ele>1234</ele>
        <time>2017-02-09T11:33:15.099Z</time>
      </trkpt>
      <trkpt lat="42.92593" lon="0.29053">
        <ele>1234</ele>
        <time>2017-02-09T11:33:16.099Z</time>
      </trkpt>
      <trkpt lat="42.92594" lon="0.29053">
        <ele>1234</ele>
        <time>2017-02-09T11:33:17.099Z</time>
      </trkpt>
      <trkpt lat="42.92594" lon="0.29054">
        <ele>1233</ele>
        <time>2017-02-09T11:33:18.099Z</time>
      </trkpt>
      <trkpt lat="42.92595" lon="0.29055">
        <ele>1232</ele>
        <time>2017-02-09T11:33:19.099Z</time>
      </trkpt>
      <trkpt lat="42.92596" lon="0.29055">
        <ele>1232</ele>
        <time>2017-02-09T11:33:20.099Z</time>
      </trkpt>
      <trkpt lat="42.92596" lon="0.29055">
        <ele>1231</ele>
        <time>2017-02-09T11:33:21.099Z</time>
      </trkpt>
      <trkpt lat="42.92597" lon="0.29056">
        <ele>1230</ele>
        <time>2017-02-09T11:33:22.099Z</time>
      </trkpt>
      <trkpt lat="42.92597" lon="0.29056">
        <ele>1230</ele>
        <time>2017-02-09T11:33:23.099Z</time>
      </trkpt>
      <trkpt lat="42.92596" lon="0.29055">
        <ele>1229</ele>
        <time>2017-02-09T11:33:24.099Z</time>
      </trkpt>
      <trkpt lat="42.92596" lon="0.29055">
        <ele>1229</ele>
        <time>2017-02-09T11:33:25.099Z</time>
      </trkpt>
      <trkpt lat="42.92596" lon="0.29055">
        <ele>1229</ele>
        <time>2017-02-09T11:33:26.099Z</time>
      </trkpt>
      <trkpt lat="42.92596" lon="0.29055">
        <ele>1228</ele>
        <time>2017-02-09T11:33:27.099Z</time>
      </trkpt>
      <trkpt lat="42.92596" lon="0.29055">
        <ele>1228</ele>
        <time>2017-02-09T11:33:28.099Z</time>
      </trkpt>
      <trkpt lat="42.92596" lon="0.29055">
        <ele>1228</ele>
        <time>2017-02-09T11:33:29.099Z</time>
      </trkpt>
      <trkpt lat="42.92599" lon="0.29056">
        <ele>1227</ele>
        <time>2017-02-09T11:33:30.099Z</time>
      </trkpt>
      <trkpt lat="42.926" lon="0.29056">
        <ele>1228</ele>
        <time>2017-02-09T11:33:31.099Z</time>
      </trkpt>
      <trkpt lat="42.92601" lon="0.29056">
        <ele>1228</ele>
        <time>2017-02-09T11:33:32.099Z</time>
      </trkpt>
      <trkpt lat="42.92602" lon="0.29056">
        <ele>1227</ele>
        <time>2017-02-09T11:33:33.099Z</time>
      </trkpt>
      <trkpt lat="42.92604" lon="0.29057">
        <ele>1227</ele>
        <time>2017-02-09T11:33:34.099Z</time>
      </trkpt>
      <trkpt lat="42.92605" lon="0.29057">
        <ele>1227</ele>
        <time>2017-02-09T11:33:35.099Z</time>
      </trkpt>
      <trkpt lat="42.92606" lon="0.29058">
        <ele>1227</ele>
        <time>2017-02-09T11:33:36.099Z</time>
      </trkpt>
      <trkpt lat="42.92607" lon="0.29058">
        <ele>1227</ele>
        <time>2017-02-09T11:33:37.099Z</time>
      </trkpt>
      <trkpt lat="42.92608" lon="0.29058">
        <ele>1227</ele>
        <time>2017-02-09T11:33:38.099Z</time>
      </trkpt>
      <trkpt lat="42.92609" lon="0.29058">
        <ele>1228</ele>
        <time>2017-02-09T11:33:39.099Z</time>
      </trkpt>
      <trkpt lat="42.9261" lon="0.29059">
        <ele>1228</ele>
        <time>2017-02-09T11:33:40.099Z</time>
      </trkpt>
      <trkpt lat="42.92611" lon="0.29059">
        <ele>1228</ele>
        <time>2017-02-09T11:33:41.099Z</time>
      </trkpt>
      <trkpt lat="42.92612" lon="0.29059">
        <ele>1228</ele>
        <time>2017-02-09T11:33:42.099Z</time>
      </trkpt>
      <trkpt lat="42.92612" lon="0.2906">
        <ele>1228</ele>
        <time>2017-02-09T11:33:43.099Z</time>
      </trkpt>
      <trkpt lat="42.92613" lon="0.2906">
        <ele>1229</ele>
        <time>2017-02-09T11:33:44.099Z</time>
      </trkpt>
      <trkpt lat="42.92615" lon="0.2906">
        <ele>1229</ele>
        <time>2017-02-09T11:33:45.099Z</time>
      </trkpt>
      <trkpt lat="42.92616" lon="0.29061">
        <ele>1229</ele>
        <time>2017-02-09T11:33:46.099Z</time>
      </trkpt>
      <trkpt lat="42.92617" lon="0.29061">
        <ele>1230</ele>
        <time>2017-02-09T11:33:47.099Z</time>
      </trkpt>
      <trkpt lat="42.92618" lon="0.29061">
        <ele>1230</ele>
        <time>2017-02-09T11:33:48.099Z</time>
      </trkpt>
      <trkpt lat="42.92619" lon="0.29061">
        <ele>1230</ele>
        <time>2017-02-09T11:33:49.099Z</time>
      </trkpt>
      <trkpt lat="42.9262" lon="0.29061">
        <ele>1230</ele>
        <time>2017-02-09T11:33:50.099Z</time>
      </trkpt>
      <trkpt lat="42.92621" lon="0.29061">
        <ele>1230</ele>
        <time>2017-02-09T11:33:51.099Z</time>
      </trkpt>
      <trkpt lat="42.92621" lon="0.29061">
        <ele>1229</ele>
        <time>2017-02-09T11:33:52.099Z</time>
      </trkpt>
      <trkpt lat="42.92622" lon="0.29062">
        <ele>1229</ele>
        <time>2017-02-09T11:33:53.099Z</time>
      </trkpt>
      <trkpt lat="42.92624" lon="0.29062">
        <ele>1229</ele>
        <time>2017-02-09T11:33:54.099Z</time>
      </trkpt>
      <trkpt lat="42.92625" lon="0.29063">
        <ele>1230</ele>
        <time>2017-02-09T11:33:55.099Z</time>
      </trkpt>
      <trkpt lat="42.92626" lon="0.29063">
        <ele>1230</ele>
        <time>2017-02-09T11:33:56.099Z</time>
      </trkpt>
      <trkpt lat="42.92627" lon="0.29063">
        <ele>1230</ele>
        <time>2017-02-09T11:33:57.099Z</time>
      </trkpt>
      <trkpt lat="42.92628" lon="0.29064">
        <ele>1231</ele>
        <time>2017-02-09T11:33:58.099Z</time>
      </trkpt>
      <trkpt lat="42.92629" lon="0.29065">
        <ele>1231</ele>
        <time>2017-02-09T11:33:59.099Z</time>
      </trkpt>
      <trkpt lat="42.9263" lon="0.29065">
        <ele>1230</ele>
        <time>2017-02-09T11:34:00.099Z</time>
      </trkpt>
      <trkpt lat="42.92631" lon="0.29066">
        <ele>1230</ele>
        <time>2017-02-09T11:34:01.099Z</time>
      </trkpt>
      <trkpt lat="42.92631" lon="0.29066">
        <ele>1230</ele>
        <time>2017-02-09T11:34:02.099Z</time>
      </trkpt>
      <trkpt lat="42.92632" lon="0.29066">
        <ele>1231</ele>
        <time>2017-02-09T11:34:03.099Z</time>
      </trkpt>
      <trkpt lat="42.92633" lon="0.29067">
        <ele>1230</ele>
        <time>2017-02-09T11:34:04.099Z</time>
      </trkpt>
      <trkpt lat="42.92634" lon="0.29067">
        <ele>1230</ele>
        <time>2017-02-09T11:34:05.099Z</time>
      </trkpt>
      <trkpt lat="42.92634" lon="0.29068">
        <ele>1230</ele>
        <time>2017-02-09T11:34:06.099Z</time>
      </trkpt>
      <trkpt lat="42.92634" lon="0.29068">
        <ele>1229</ele>
        <time>2017-02-09T11:34:07.099Z</time>
      </trkpt>
      <trkpt lat="42.92635" lon="0.29069">
        <ele>1229</ele>
        <time>2017-02-09T11:34:08.099Z</time>
      </trkpt>
      <trkpt lat="42.92635" lon="0.29069">
        <ele>1228</ele>
        <time>2017-02-09T11:34:09.099Z</time>
      </trkpt>
      <trkpt lat="42.92636" lon="0.2907">
        <ele>1227</ele>
        <time>2017-02-09T11:34:10.099Z</time>
      </trkpt>
      <trkpt lat="42.92637" lon="0.2907">
        <ele>1227</ele>
        <time>2017-02-09T11:34:11.099Z</time>
      </trkpt>
      <trkpt lat="42.92637" lon="0.29071">
        <ele>1228</ele>
        <time>2017-02-09T11:34:12.099Z</time>
      </trkpt>
      <trkpt lat="42.92638" lon="0.29071">
        <ele>1228</ele>
        <time>2017-02-09T11:34:13.099Z</time>
      </trkpt>
      <trkpt lat="42.92639" lon="0.29071">
        <ele>1229</ele>
        <time>2017-02-09T11:34:14.099Z</time>
      </trkpt>
      <trkpt lat="42.9264" lon="0.29072">
        <ele>1228</ele>
        <time>2017-02-09T11:34:15.099Z</time>
      </trkpt>
      <trkpt lat="42.92641" lon="0.29072">
        <ele>1229</ele>
        <time>2017-02-09T11:34:16.099Z</time>
      </trkpt>
      <trkpt lat="42.92642" lon="0.29073">
        <ele>1229</ele>
        <time>2017-02-09T11:34:17.099Z</time>
      </trkpt>
      <trkpt lat="42.92643" lon="0.29074">
        <ele>1229</ele>
        <time>2017-02-09T11:34:18.099Z</time>
      </trkpt>
      <trkpt lat="42.92643" lon="0.29075">
        <ele>1230</ele>
        <time>2017-02-09T11:34:19.099Z</time>
      </trkpt>
      <trkpt lat="42.92644" lon="0.29075">
        <ele>1229</ele>
        <time>2017-02-09T11:34:20.099Z</time>
      </trkpt>
      <trkpt lat="42.92645" lon="0.29076">
        <ele>1229</ele>
        <time>2017-02-09T11:34:21.099Z</time>
      </trkpt>
      <trkpt lat="42.92646" lon="0.29076">
        <ele>1228</ele>
        <time>2017-02-09T11:34:22.099Z</time>
      </trkpt>
      <trkpt lat="42.92647" lon="0.29077">
        <ele>1227</ele>
        <time>2017-02-09T11:34:23.099Z</time>
      </trkpt>
      <trkpt lat="42.92648" lon="0.29078">
        <ele>1227</ele>
        <time>2017-02-09T11:34:24.099Z</time>
      </trkpt>
      <trkpt lat="42.92649" lon="0.29078">
        <ele>1227</ele>
        <time>2017-02-09T11:34:25.099Z</time>
      </trkpt>
      <trkpt lat="42.9265" lon="0.29078">
        <ele>1226</ele>
        <time>2017-02-09T11:34:26.099Z</time>
      </trkpt>
      <trkpt lat="42.92651" lon="0.29079">
        <ele>1226</ele>
        <time>2017-02-09T11:34:27.099Z</time>
      </trkpt>
      <trkpt lat="42.92651" lon="0.29079">
        <ele>1226</ele>
        <time>2017-02-09T11:34:28.099Z</time>
      </trkpt>
      <trkpt lat="42.92652" lon="0.29079">
        <ele>1225</ele>
        <time>2017-02-09T11:34:29.099Z</time>
      </trkpt>
      <trkpt lat="42.92652" lon="0.2908">
        <ele>1225</ele>
        <time>2017-02-09T11:34:30.099Z</time>
      </trkpt>
      <trkpt lat="42.92653" lon="0.2908">
        <ele>1225</ele>
        <time>2017-02-09T11:34:31.099Z</time>
      </trkpt>
      <trkpt lat="42.92654" lon="0.29081">
        <ele>1226</ele>
        <time>2017-02-09T11:34:32.099Z</time>
      </trkpt>
      <trkpt lat="42.92655" lon="0.29081">
        <ele>1226</ele>
        <time>2017-02-09T11:34:33.099Z</time>
      </trkpt>
      <trkpt lat="42.92656" lon="0.29082">
        <ele>1225</ele>
        <time>2017-02-09T11:34:34.099Z</time>
      </trkpt>
      <trkpt lat="42.92657" lon="0.29082">
        <ele>1225</ele>
        <time>2017-02-09T11:34:35.099Z</time>
      </trkpt>
      <trkpt lat="42.92658" lon="0.29083">
        <ele>1225</ele>
        <time>2017-02-09T11:34:36.099Z</time>
      </trkpt>
      <trkpt lat="42.92658" lon="0.29083">
        <ele>1225</ele>
        <time>2017-02-09T11:34:37.099Z</time>
      </trkpt>
      <trkpt lat="42.92659" lon="0.29084">
        <ele>1224</ele>
        <time>2017-02-09T11:34:38.099Z</time>
      </trkpt>
      <trkpt lat="42.9266" lon="0.29084">
        <ele>1224</ele>
        <time>2017-02-09T11:34:39.099Z</time>
      </trkpt>
      <trkpt lat="42.92661" lon="0.29084">
        <ele>1224</ele>
        <time>2017-02-09T11:34:40.099Z</time>
      </trkpt>
      <trkpt lat="42.92662" lon="0.29085">
        <ele>1224</ele>
        <time>2017-02-09T11:34:41.099Z</time>
      </trkpt>
      <trkpt lat="42.92663" lon="0.29085">
        <ele>1224</ele>
        <time>2017-02-09T11:34:42.099Z</time>
      </trkpt>
      <trkpt lat="42.92664" lon="0.29086">
        <ele>1224</ele>
        <time>2017-02-09T11:34:43.099Z</time>
      </trkpt>
      <trkpt lat="42.92665" lon="0.29086">
        <ele>1224</ele>
        <time>2017-02-09T11:34:44.099Z</time>
      </trkpt>
      <trkpt lat="42.92666" lon="0.29087">
        <ele>1224</ele>
        <time>2017-02-09T11:34:45.099Z</time>
      </trkpt>
      <trkpt lat="42.92667" lon="0.29087">
        <ele>1224</ele>
        <time>2017-02-09T11:34:46.099Z</time>
      </trkpt>
      <trkpt lat="42.92668" lon="0.29088">
        <ele>1224</ele>
        <time>2017-02-09T11:34:47.099Z</time>
      </trkpt>
      <trkpt lat="42.92669" lon="0.29088">
        <ele>1224</ele>
        <time>2017-02-09T11:34:48.099Z</time>
      </trkpt>
      <trkpt lat="42.9267" lon="0.29089">
        <ele>1223</ele>
        <time>2017-02-09T11:34:49.099Z</time>
      </trkpt>
      <trkpt lat="42.9267" lon="0.29089">
        <ele>1223</ele>
        <time>2017-02-09T11:34:50.099Z</time>
      </trkpt>
      <trkpt lat="42.92672" lon="0.29089">
        <ele>1223</ele>
        <time>2017-02-09T11:34:51.099Z</time>
      </trkpt>
      <trkpt lat="42.92673" lon="0.29089">
        <ele>1223</ele>
        <time>2017-02-09T11:34:52.099Z</time>
      </trkpt>
      <trkpt lat="42.92674" lon="0.29089">
        <ele>1223</ele>
        <time>2017-02-09T11:34:53.099Z</time>
      </trkpt>
      <trkpt lat="42.92674" lon="0.2909">
        <ele>1222</ele>
        <time>2017-02-09T11:34:54.099Z</time>
      </trkpt>
      <trkpt lat="42.92675" lon="0.2909">
        <ele>1222</ele>
        <time>2017-02-09T11:34:55.099Z</time>
      </trkpt>
      <trkpt lat="42.92676" lon="0.2909">
        <ele>1222</ele>
        <time>2017-02-09T11:34:56.099Z</time>
      </trkpt>
      <trkpt lat="42.92677" lon="0.29091">
        <ele>1222</ele>
        <time>2017-02-09T11:34:57.099Z</time>
      </trkpt>
      <trkpt lat="42.92678" lon="0.29091">
        <ele>1222</ele>
        <time>2017-02-09T11:34:58.099Z</time>
      </trkpt>
      <trkpt lat="42.92678" lon="0.29091">
        <ele>1222</ele>
        <time>2017-02-09T11:34:59.099Z</time>
      </trkpt>
      <trkpt lat="42.92679" lon="0.29091">
        <ele>1222</ele>
        <time>2017-02-09T11:35:00.099Z</time>
      </trkpt>
      <trkpt lat="42.9268" lon="0.29092">
        <ele>1221</ele>
        <time>2017-02-09T11:35:01.099Z</time>
      </trkpt>
      <trkpt lat="42.92681" lon="0.29092">
        <ele>1221</ele>
        <time>2017-02-09T11:35:02.099Z</time>
      </trkpt>
      <trkpt lat="42.92682" lon="0.29092">
        <ele>1222</ele>
        <time>2017-02-09T11:35:03.099Z</time>
      </trkpt>
      <trkpt lat="42.92683" lon="0.29092">
        <ele>1221</ele>
        <time>2017-02-09T11:35:04.099Z</time>
      </trkpt>
      <trkpt lat="42.92683" lon="0.29092">
        <ele>1221</ele>
        <time>2017-02-09T11:35:05.099Z</time>
      </trkpt>
      <trkpt lat="42.92684" lon="0.29093">
        <ele>1220</ele>
        <time>2017-02-09T11:35:06.099Z</time>
      </trkpt>
      <trkpt lat="42.92685" lon="0.29093">
        <ele>1221</ele>
        <time>2017-02-09T11:35:07.099Z</time>
      </trkpt>
      <trkpt lat="42.92686" lon="0.29093">
        <ele>1221</ele>
        <time>2017-02-09T11:35:08.099Z</time>
      </trkpt>
      <trkpt lat="42.92686" lon="0.29093">
        <ele>1221</ele>
        <time>2017-02-09T11:35:09.099Z</time>
      </trkpt>
      <trkpt lat="42.92686" lon="0.29093">
        <ele>1221</ele>
        <time>2017-02-09T11:35:10.099Z</time>
      </trkpt>
      <trkpt lat="42.92686" lon="0.29093">
        <ele>1221</ele>
        <time>2017-02-09T11:35:11.099Z</time>
      </trkpt>
      <trkpt lat="42.92686" lon="0.29093">
        <ele>1221</ele>
        <time>2017-02-09T11:35:12.099Z</time>
      </trkpt>
      <trkpt lat="42.92687" lon="0.29093">
        <ele>1220</ele>
        <time>2017-02-09T11:35:13.099Z</time>
      </trkpt>
      <trkpt lat="42.92687" lon="0.29093">
        <ele>1220</ele>
        <time>2017-02-09T11:35:14.099Z</time>
      </trkpt>
      <trkpt lat="42.92688" lon="0.29093">
        <ele>1220</ele>
        <time>2017-02-09T11:35:15.099Z</time>
      </trkpt>
      <trkpt lat="42.92689" lon="0.29094">
        <ele>1220</ele>
        <time>2017-02-09T11:35:16.099Z</time>
      </trkpt>
      <trkpt lat="42.9269" lon="0.29094">
        <ele>1221</ele>
        <time>2017-02-09T11:35:17.099Z</time>
      </trkpt>
      <trkpt lat="42.9269" lon="0.29094">
        <ele>1221</ele>
        <time>2017-02-09T11:35:18.099Z</time>
      </trkpt>
      <trkpt lat="42.92691" lon="0.29094">
        <ele>1221</ele>
        <time>2017-02-09T11:35:19.099Z</time>
      </trkpt>
      <trkpt lat="42.92692" lon="0.29095">
        <ele>1221</ele>
        <time>2017-02-09T11:35:20.099Z</time>
      </trkpt>
      <trkpt lat="42.92693" lon="0.29095">
        <ele>1222</ele>
        <time>2017-02-09T11:35:21.099Z</time>
      </trkpt>
      <trkpt lat="42.92694" lon="0.29096">
        <ele>1222</ele>
        <time>2017-02-09T11:35:22.099Z</time>
      </trkpt>
      <trkpt lat="42.92695" lon="0.29096">
        <ele>1222</ele>
        <time>2017-02-09T11:35:23.099Z</time>
      </trkpt>
      <trkpt lat="42.92696" lon="0.29097">
        <ele>1222</ele>
        <time>2017-02-09T11:35:24.099Z</time>
      </trkpt>
      <trkpt lat="42.92697" lon="0.29098">
        <ele>1222</ele>
        <time>2017-02-09T11:35:25.099Z</time>
      </trkpt>
      <trkpt lat="42.92698" lon="0.29099">
        <ele>1222</ele>
        <time>2017-02-09T11:35:26.099Z</time>
      </trkpt>
      <trkpt lat="42.92699" lon="0.291">
        <ele>1222</ele>
        <time>2017-02-09T11:35:27.099Z</time>
      </trkpt>
      <trkpt lat="42.927" lon="0.291">
        <ele>1220</ele>
        <time>2017-02-09T11:35:28.099Z</time>
      </trkpt>
      <trkpt lat="42.927" lon="0.29101">
        <ele>1220</ele>
        <time>2017-02-09T11:35:29.099Z</time>
      </trkpt>
      <trkpt lat="42.92701" lon="0.29101">
        <ele>1220</ele>
        <time>2017-02-09T11:35:30.099Z</time>
      </trkpt>
      <trkpt lat="42.92702" lon="0.29102">
        <ele>1220</ele>
        <time>2017-02-09T11:35:31.099Z</time>
      </trkpt>
      <trkpt lat="42.92703" lon="0.29102">
        <ele>1220</ele>
        <time>2017-02-09T11:35:32.099Z</time>
      </trkpt>
      <trkpt lat="42.92704" lon="0.29103">
        <ele>1219</ele>
        <time>2017-02-09T11:35:33.099Z</time>
      </trkpt>
      <trkpt lat="42.92705" lon="0.29103">
        <ele>1219</ele>
        <time>2017-02-09T11:35:34.099Z</time>
      </trkpt>
      <trkpt lat="42.92706" lon="0.29104">
        <ele>1218</ele>
        <time>2017-02-09T11:35:35.099Z</time>
      </trkpt>
      <trkpt lat="42.92706" lon="0.29104">
        <ele>1218</ele>
        <time>2017-02-09T11:35:36.099Z</time>
      </trkpt>
      <trkpt lat="42.92707" lon="0.29105">
        <ele>1217</ele>
        <time>2017-02-09T11:35:37.099Z</time>
      </trkpt>
      <trkpt lat="42.92708" lon="0.29105">
        <ele>1216</ele>
        <time>2017-02-09T11:35:38.099Z</time>
      </trkpt>
      <trkpt lat="42.92708" lon="0.29106">
        <ele>1216</ele>
        <time>2017-02-09T11:35:39.099Z</time>
      </trkpt>
      <trkpt lat="42.92709" lon="0.29106">
        <ele>1216</ele>
        <time>2017-02-09T11:35:40.099Z</time>
      </trkpt>
      <trkpt lat="42.9271" lon="0.29106">
        <ele>1216</ele>
        <time>2017-02-09T11:35:41.099Z</time>
      </trkpt>
      <trkpt lat="42.92711" lon="0.29106">
        <ele>1215</ele>
        <time>2017-02-09T11:35:42.099Z</time>
      </trkpt>
      <trkpt lat="42.92712" lon="0.29106">
        <ele>1216</ele>
        <time>2017-02-09T11:35:43.099Z</time>
      </trkpt>
      <trkpt lat="42.92712" lon="0.29107">
        <ele>1215</ele>
        <time>2017-02-09T11:35:44.099Z</time>
      </trkpt>
      <trkpt lat="42.92713" lon="0.29107">
        <ele>1216</ele>
        <time>2017-02-09T11:35:45.099Z</time>
      </trkpt>
      <trkpt lat="42.92714" lon="0.29107">
        <ele>1215</ele>
        <time>2017-02-09T11:35:46.099Z</time>
      </trkpt>
      <trkpt lat="42.92715" lon="0.29107">
        <ele>1213</ele>
        <time>2017-02-09T11:35:47.099Z</time>
      </trkpt>
      <trkpt lat="42.92716" lon="0.29108">
        <ele>1212</ele>
        <time>2017-02-09T11:35:48.099Z</time>
      </trkpt>
      <trkpt lat="42.92717" lon="0.29108">
        <ele>1212</ele>
        <time>2017-02-09T11:35:49.099Z</time>
      </trkpt>
      <trkpt lat="42.92718" lon="0.29108">
        <ele>1212</ele>
        <time>2017-02-09T11:35:50.099Z</time>
      </trkpt>
      <trkpt lat="42.92719" lon="0.29109">
        <ele>1212</ele>
        <time>2017-02-09T11:35:51.099Z</time>
      </trkpt>
      <trkpt lat="42.9272" lon="0.29109">
        <ele>1213</ele>
        <time>2017-02-09T11:35:52.099Z</time>
      </trkpt>
      <trkpt lat="42.92721" lon="0.29109">
        <ele>1213</ele>
        <time>2017-02-09T11:35:53.099Z</time>
      </trkpt>
      <trkpt lat="42.92723" lon="0.29109">
        <ele>1213</ele>
        <time>2017-02-09T11:35:54.099Z</time>
      </trkpt>
      <trkpt lat="42.92724" lon="0.2911">
        <ele>1214</ele>
        <time>2017-02-09T11:35:55.099Z</time>
      </trkpt>
      <trkpt lat="42.92724" lon="0.2911">
        <ele>1213</ele>
        <time>2017-02-09T11:35:56.099Z</time>
      </trkpt>
      <trkpt lat="42.92725" lon="0.2911">
        <ele>1213</ele>
        <time>2017-02-09T11:35:57.099Z</time>
      </trkpt>
      <trkpt lat="42.92726" lon="0.2911">
        <ele>1213</ele>
        <time>2017-02-09T11:35:58.099Z</time>
      </trkpt>
      <trkpt lat="42.92727" lon="0.2911">
        <ele>1213</ele>
        <time>2017-02-09T11:35:59.099Z</time>
      </trkpt>
      <trkpt lat="42.92728" lon="0.2911">
        <ele>1213</ele>
        <time>2017-02-09T11:36:00.099Z</time>
      </trkpt>
      <trkpt lat="42.92729" lon="0.29111">
        <ele>1213</ele>
        <time>2017-02-09T11:36:01.099Z</time>
      </trkpt>
      <trkpt lat="42.9273" lon="0.29111">
        <ele>1214</ele>
        <time>2017-02-09T11:36:02.099Z</time>
      </trkpt>
      <trkpt lat="42.92732" lon="0.29112">
        <ele>1214</ele>
        <time>2017-02-09T11:36:03.099Z</time>
      </trkpt>
      <trkpt lat="42.92733" lon="0.29112">
        <ele>1214</ele>
        <time>2017-02-09T11:36:04.099Z</time>
      </trkpt>
      <trkpt lat="42.92733" lon="0.29113">
        <ele>1214</ele>
        <time>2017-02-09T11:36:05.099Z</time>
      </trkpt>
      <trkpt lat="42.92734" lon="0.29113">
        <ele>1214</ele>
        <time>2017-02-09T11:36:06.099Z</time>
      </trkpt>
      <trkpt lat="42.92735" lon="0.29114">
        <ele>1214</ele>
        <time>2017-02-09T11:36:07.099Z</time>
      </trkpt>
      <trkpt lat="42.92736" lon="0.29114">
        <ele>1214</ele>
        <time>2017-02-09T11:36:08.099Z</time>
      </trkpt>
      <trkpt lat="42.92737" lon="0.29114">
        <ele>1214</ele>
        <time>2017-02-09T11:36:09.099Z</time>
      </trkpt>
      <trkpt lat="42.92738" lon="0.29114">
        <ele>1214</ele>
        <time>2017-02-09T11:36:10.099Z</time>
      </trkpt>
      <trkpt lat="42.92739" lon="0.29115">
        <ele>1215</ele>
        <time>2017-02-09T11:36:11.099Z</time>
      </trkpt>
      <trkpt lat="42.9274" lon="0.29115">
        <ele>1215</ele>
        <time>2017-02-09T11:36:12.099Z</time>
      </trkpt>
      <trkpt lat="42.92741" lon="0.29116">
        <ele>1215</ele>
        <time>2017-02-09T11:36:13.099Z</time>
      </trkpt>
      <trkpt lat="42.92742" lon="0.29116">
        <ele>1215</ele>
        <time>2017-02-09T11:36:14.099Z</time>
      </trkpt>
      <trkpt lat="42.92743" lon="0.29116">
        <ele>1215</ele>
        <time>2017-02-09T11:36:15.099Z</time>
      </trkpt>
      <trkpt lat="42.92744" lon="0.29117">
        <ele>1215</ele>
        <time>2017-02-09T11:36:16.099Z</time>
      </trkpt>
      <trkpt lat="42.92745" lon="0.29117">
        <ele>1216</ele>
        <time>2017-02-09T11:36:17.099Z</time>
      </trkpt>
      <trkpt lat="42.92746" lon="0.29118">
        <ele>1217</ele>
        <time>2017-02-09T11:36:18.099Z</time>
      </trkpt>
      <trkpt lat="42.92747" lon="0.29119">
        <ele>1216</ele>
        <time>2017-02-09T11:36:19.099Z</time>
      </trkpt>
      <trkpt lat="42.92747" lon="0.29119">
        <ele>1216</ele>
        <time>2017-02-09T11:36:20.099Z</time>
      </trkpt>
      <trkpt lat="42.92748" lon="0.2912">
        <ele>1216</ele>
        <time>2017-02-09T11:36:21.099Z</time>
      </trkpt>
      <trkpt lat="42.92749" lon="0.2912">
        <ele>1216</ele>
        <time>2017-02-09T11:36:22.099Z</time>
      </trkpt>
      <trkpt lat="42.9275" lon="0.29121">
        <ele>1215</ele>
        <time>2017-02-09T11:36:23.099Z</time>
      </trkpt>
      <trkpt lat="42.9275" lon="0.29121">
        <ele>1214</ele>
        <time>2017-02-09T11:36:24.099Z</time>
      </trkpt>
      <trkpt lat="42.92751" lon="0.29122">
        <ele>1213</ele>
        <time>2017-02-09T11:36:25.099Z</time>
      </trkpt>
      <trkpt lat="42.92752" lon="0.29122">
        <ele>1213</ele>
        <time>2017-02-09T11:36:26.099Z</time>
      </trkpt>
      <trkpt lat="42.92752" lon="0.29123">
        <ele>1212</ele>
        <time>2017-02-09T11:36:27.099Z</time>
      </trkpt>
      <trkpt lat="42.92753" lon="0.29123">
        <ele>1212</ele>
        <time>2017-02-09T11:36:28.099Z</time>
      </trkpt>
      <trkpt lat="42.92754" lon="0.29123">
        <ele>1211</ele>
        <time>2017-02-09T11:36:29.099Z</time>
      </trkpt>
      <trkpt lat="42.92755" lon="0.29124">
        <ele>1211</ele>
        <time>2017-02-09T11:36:30.099Z</time>
      </trkpt>
      <trkpt lat="42.92756" lon="0.29125">
        <ele>1211</ele>
        <time>2017-02-09T11:36:31.099Z</time>
      </trkpt>
      <trkpt lat="42.92757" lon="0.29125">
        <ele>1211</ele>
        <time>2017-02-09T11:36:32.099Z</time>
      </trkpt>
      <trkpt lat="42.92758" lon="0.29126">
        <ele>1212</ele>
        <time>2017-02-09T11:36:33.099Z</time>
      </trkpt>
      <trkpt lat="42.92759" lon="0.29126">
        <ele>1212</ele>
        <time>2017-02-09T11:36:34.099Z</time>
      </trkpt>
      <trkpt lat="42.9276" lon="0.29127">
        <ele>1212</ele>
        <time>2017-02-09T11:36:35.099Z</time>
      </trkpt>
      <trkpt lat="42.92761" lon="0.29127">
        <ele>1212</ele>
        <time>2017-02-09T11:36:36.099Z</time>
      </trkpt>
      <trkpt lat="42.92762" lon="0.29128">
        <ele>1212</ele>
        <time>2017-02-09T11:36:37.099Z</time>
      </trkpt>
      <trkpt lat="42.92763" lon="0.29128">
        <ele>1212</ele>
        <time>2017-02-09T11:36:38.099Z</time>
      </trkpt>
      <trkpt lat="42.92763" lon="0.29128">
        <ele>1212</ele>
        <time>2017-02-09T11:36:39.099Z</time>
      </trkpt>
      <trkpt lat="42.92764" lon="0.29129">
        <ele>1212</ele>
        <time>2017-02-09T11:36:40.099Z</time>
      </trkpt>
      <trkpt lat="42.92765" lon="0.29129">
        <ele>1212</ele>
        <time>2017-02-09T11:36:41.099Z</time>
      </trkpt>
      <trkpt lat="42.92766" lon="0.29129">
        <ele>1212</ele>
        <time>2017-02-09T11:36:42.099Z</time>
      </trkpt>
      <trkpt lat="42.92766" lon="0.2913">
        <ele>1212</ele>
        <time>2017-02-09T11:36:43.099Z</time>
      </trkpt>
      <trkpt lat="42.92767" lon="0.2913">
        <ele>1212</ele>
        <time>2017-02-09T11:36:44.099Z</time>
      </trkpt>
      <trkpt lat="42.92768" lon="0.29131">
        <ele>1212</ele>
        <time>2017-02-09T11:36:45.099Z</time>
      </trkpt>
      <trkpt lat="42.92769" lon="0.29131">
        <ele>1212</ele>
        <time>2017-02-09T11:36:46.099Z</time>
      </trkpt>
      <trkpt lat="42.92769" lon="0.29132">
        <ele>1212</ele>
        <time>2017-02-09T11:36:47.099Z</time>
      </trkpt>
      <trkpt lat="42.9277" lon="0.29132">
        <ele>1212</ele>
        <time>2017-02-09T11:36:48.099Z</time>
      </trkpt>
      <trkpt lat="42.92771" lon="0.29133">
        <ele>1212</ele>
        <time>2017-02-09T11:36:49.099Z</time>
      </trkpt>
      <trkpt lat="42.92772" lon="0.29133">
        <ele>1212</ele>
        <time>2017-02-09T11:36:50.099Z</time>
      </trkpt>
      <trkpt lat="42.92773" lon="0.29134">
        <ele>1212</ele>
        <time>2017-02-09T11:36:51.099Z</time>
      </trkpt>
      <trkpt lat="42.92774" lon="0.29135">
        <ele>1212</ele>
        <time>2017-02-09T11:36:52.099Z</time>
      </trkpt>
      <trkpt lat="42.92775" lon="0.29136">
        <ele>1212</ele>
        <time>2017-02-09T11:36:53.099Z</time>
      </trkpt>
      <trkpt lat="42.92776" lon="0.29136">
        <ele>1213</ele>
        <time>2017-02-09T11:36:54.099Z</time>
      </trkpt>
      <trkpt lat="42.92777" lon="0.29136">
        <ele>1212</ele>
        <time>2017-02-09T11:36:55.099Z</time>
      </trkpt>
      <trkpt lat="42.92778" lon="0.29137">
        <ele>1212</ele>
        <time>2017-02-09T11:36:56.099Z</time>
      </trkpt>
      <trkpt lat="42.92778" lon="0.29137">
        <ele>1212</ele>
        <time>2017-02-09T11:36:57.099Z</time>
      </trkpt>
      <trkpt lat="42.92779" lon="0.29138">
        <ele>1212</ele>
        <time>2017-02-09T11:36:58.099Z</time>
      </trkpt>
      <trkpt lat="42.9278" lon="0.29138">
        <ele>1212</ele>
        <time>2017-02-09T11:36:59.099Z</time>
      </trkpt>
      <trkpt lat="42.92781" lon="0.29138">
        <ele>1214</ele>
        <time>2017-02-09T11:37:00.099Z</time>
      </trkpt>
      <trkpt lat="42.92782" lon="0.29139">
        <ele>1214</ele>
        <time>2017-02-09T11:37:01.099Z</time>
      </trkpt>
      <trkpt lat="42.92783" lon="0.29139">
        <ele>1215</ele>
        <time>2017-02-09T11:37:02.099Z</time>
      </trkpt>
      <trkpt lat="42.92785" lon="0.29139">
        <ele>1214</ele>
        <time>2017-02-09T11:37:03.099Z</time>
      </trkpt>
      <trkpt lat="42.92785" lon="0.29139">
        <ele>1214</ele>
        <time>2017-02-09T11:37:04.099Z</time>
      </trkpt>
      <trkpt lat="42.92786" lon="0.29139">
        <ele>1215</ele>
        <time>2017-02-09T11:37:05.099Z</time>
      </trkpt>
      <trkpt lat="42.92787" lon="0.2914">
        <ele>1215</ele>
        <time>2017-02-09T11:37:06.099Z</time>
      </trkpt>
      <trkpt lat="42.92788" lon="0.2914">
        <ele>1215</ele>
        <time>2017-02-09T11:37:07.099Z</time>
      </trkpt>
      <trkpt lat="42.92789" lon="0.29141">
        <ele>1215</ele>
        <time>2017-02-09T11:37:08.099Z</time>
      </trkpt>
      <trkpt lat="42.9279" lon="0.29141">
        <ele>1213</ele>
        <time>2017-02-09T11:37:09.099Z</time>
      </trkpt>
      <trkpt lat="42.92791" lon="0.29141">
        <ele>1212</ele>
        <time>2017-02-09T11:37:10.099Z</time>
      </trkpt>
      <trkpt lat="42.92792" lon="0.29141">
        <ele>1213</ele>
        <time>2017-02-09T11:37:11.099Z</time>
      </trkpt>
      <trkpt lat="42.92793" lon="0.29141">
        <ele>1213</ele>
        <time>2017-02-09T11:37:12.099Z</time>
      </trkpt>
      <trkpt lat="42.92793" lon="0.29142">
        <ele>1213</ele>
        <time>2017-02-09T11:37:13.099Z</time>
      </trkpt>
      <trkpt lat="42.92794" lon="0.29142">
        <ele>1212</ele>
        <time>2017-02-09T11:37:14.099Z</time>
      </trkpt>
      <trkpt lat="42.92795" lon="0.29142">
        <ele>1212</ele>
        <time>2017-02-09T11:37:15.099Z</time>
      </trkpt>
      <trkpt lat="42.92796" lon="0.29142">
        <ele>1211</ele>
        <time>2017-02-09T11:37:16.099Z</time>
      </trkpt>
      <trkpt lat="42.92797" lon="0.29142">
        <ele>1210</ele>
        <time>2017-02-09T11:37:17.099Z</time>
      </trkpt>
      <trkpt lat="42.92798" lon="0.29142">
        <ele>1210</ele>
        <time>2017-02-09T11:37:18.099Z</time>
      </trkpt>
      <trkpt lat="42.92798" lon="0.29142">
        <ele>1211</ele>
        <time>2017-02-09T11:37:19.099Z</time>
      </trkpt>
      <trkpt lat="42.92799" lon="0.29142">
        <ele>1210</ele>
        <time>2017-02-09T11:37:20.099Z</time>
      </trkpt>
      <trkpt lat="42.928" lon="0.29142">
        <ele>1210</ele>
        <time>2017-02-09T11:37:21.099Z</time>
      </trkpt>
      <trkpt lat="42.928" lon="0.29142">
        <ele>1210</ele>
        <time>2017-02-09T11:37:22.099Z</time>
      </trkpt>
      <trkpt lat="42.92801" lon="0.29142">
        <ele>1210</ele>
        <time>2017-02-09T11:37:23.099Z</time>
      </trkpt>
      <trkpt lat="42.92802" lon="0.29142">
        <ele>1210</ele>
        <time>2017-02-09T11:37:24.099Z</time>
      </trkpt>
      <trkpt lat="42.92802" lon="0.29142">
        <ele>1210</ele>
        <time>2017-02-09T11:37:25.099Z</time>
      </trkpt>
      <trkpt lat="42.92803" lon="0.29142">
        <ele>1210</ele>
        <time>2017-02-09T11:37:26.099Z</time>
      </trkpt>
      <trkpt lat="42.92804" lon="0.29142">
        <ele>1210</ele>
        <time>2017-02-09T11:37:27.099Z</time>
      </trkpt>
      <trkpt lat="42.92805" lon="0.29142">
        <ele>1210</ele>
        <time>2017-02-09T11:37:28.099Z</time>
      </trkpt>
      <trkpt lat="42.92806" lon="0.29143">
        <ele>1209</ele>
        <time>2017-02-09T11:37:29.099Z</time>
      </trkpt>
      <trkpt lat="42.92807" lon="0.29143">
        <ele>1209</ele>
        <time>2017-02-09T11:37:30.099Z</time>
      </trkpt>
      <trkpt lat="42.92808" lon="0.29144">
        <ele>1209</ele>
        <time>2017-02-09T11:37:31.099Z</time>
      </trkpt>
      <trkpt lat="42.92809" lon="0.29144">
        <ele>1209</ele>
        <time>2017-02-09T11:37:32.099Z</time>
      </trkpt>
      <trkpt lat="42.92811" lon="0.29145">
        <ele>1210</ele>
        <time>2017-02-09T11:37:33.099Z</time>
      </trkpt>
      <trkpt lat="42.92812" lon="0.29145">
        <ele>1209</ele>
        <time>2017-02-09T11:37:34.099Z</time>
      </trkpt>
      <trkpt lat="42.92813" lon="0.29146">
        <ele>1208</ele>
        <time>2017-02-09T11:37:35.099Z</time>
      </trkpt>
      <trkpt lat="42.92813" lon="0.29147">
        <ele>1207</ele>
        <time>2017-02-09T11:37:36.099Z</time>
      </trkpt>
      <trkpt lat="42.92814" lon="0.29148">
        <ele>1207</ele>
        <time>2017-02-09T11:37:37.099Z</time>
      </trkpt>
      <trkpt lat="42.92814" lon="0.29149">
        <ele>1207</ele>
        <time>2017-02-09T11:37:38.099Z</time>
      </trkpt>
      <trkpt lat="42.92815" lon="0.2915">
        <ele>1208</ele>
        <time>2017-02-09T11:37:39.099Z</time>
      </trkpt>
      <trkpt lat="42.92816" lon="0.2915">
        <ele>1208</ele>
        <time>2017-02-09T11:37:40.099Z</time>
      </trkpt>
      <trkpt lat="42.92817" lon="0.29151">
        <ele>1208</ele>
        <time>2017-02-09T11:37:41.099Z</time>
      </trkpt>
      <trkpt lat="42.92818" lon="0.29151">
        <ele>1209</ele>
        <time>2017-02-09T11:37:42.099Z</time>
      </trkpt>
      <trkpt lat="42.92819" lon="0.29152">
        <ele>1209</ele>
        <time>2017-02-09T11:37:43.099Z</time>
      </trkpt>
      <trkpt lat="42.9282" lon="0.29152">
        <ele>1209</ele>
        <time>2017-02-09T11:37:44.099Z</time>
      </trkpt>
      <trkpt lat="42.9282" lon="0.29153">
        <ele>1209</ele>
        <time>2017-02-09T11:37:45.099Z</time>
      </trkpt>
      <trkpt lat="42.92821" lon="0.29153">
        <ele>1209</ele>
        <time>2017-02-09T11:37:46.099Z</time>
      </trkpt>
      <trkpt lat="42.92822" lon="0.29154">
        <ele>1210</ele>
        <time>2017-02-09T11:37:47.099Z</time>
      </trkpt>
      <trkpt lat="42.92823" lon="0.29154">
        <ele>1210</ele>
        <time>2017-02-09T11:37:48.099Z</time>
      </trkpt>
      <trkpt lat="42.92824" lon="0.29154">
        <ele>1210</ele>
        <time>2017-02-09T11:37:49.099Z</time>
      </trkpt>
      <trkpt lat="42.92824" lon="0.29155">
        <ele>1211</ele>
        <time>2017-02-09T11:37:50.099Z</time>
      </trkpt>
      <trkpt lat="42.92825" lon="0.29155">
        <ele>1211</ele>
        <time>2017-02-09T11:37:51.099Z</time>
      </trkpt>
      <trkpt lat="42.92826" lon="0.29156">
        <ele>1211</ele>
        <time>2017-02-09T11:37:52.099Z</time>
      </trkpt>
      <trkpt lat="42.92827" lon="0.29156">
        <ele>1211</ele>
        <time>2017-02-09T11:37:53.099Z</time>
      </trkpt>
      <trkpt lat="42.92828" lon="0.29157">
        <ele>1212</ele>
        <time>2017-02-09T11:37:54.099Z</time>
      </trkpt>
      <trkpt lat="42.92829" lon="0.29157">
        <ele>1211</ele>
        <time>2017-02-09T11:37:55.099Z</time>
      </trkpt>
      <trkpt lat="42.92829" lon="0.29157">
        <ele>1210</ele>
        <time>2017-02-09T11:37:56.099Z</time>
      </trkpt>
      <trkpt lat="42.9283" lon="0.29158">
        <ele>1209</ele>
        <time>2017-02-09T11:37:57.099Z</time>
      </trkpt>
      <trkpt lat="42.92831" lon="0.29159">
        <ele>1210</ele>
        <time>2017-02-09T11:37:58.099Z</time>
      </trkpt>
      <trkpt lat="42.92832" lon="0.29159">
        <ele>1210</ele>
        <time>2017-02-09T11:37:59.099Z</time>
      </trkpt>
      <trkpt lat="42.92833" lon="0.2916">
        <ele>1210</ele>
        <time>2017-02-09T11:38:00.099Z</time>
      </trkpt>
      <trkpt lat="42.92833" lon="0.29161">
        <ele>1209</ele>
        <time>2017-02-09T11:38:01.099Z</time>
      </trkpt>
      <trkpt lat="42.92834" lon="0.29161">
        <ele>1208</ele>
        <time>2017-02-09T11:38:02.099Z</time>
      </trkpt>
      <trkpt lat="42.92835" lon="0.29162">
        <ele>1207</ele>
        <time>2017-02-09T11:38:03.099Z</time>
      </trkpt>
      <trkpt lat="42.92836" lon="0.29163">
        <ele>1206</ele>
        <time>2017-02-09T11:38:04.099Z</time>
      </trkpt>
      <trkpt lat="42.92836" lon="0.29164">
        <ele>1206</ele>
        <time>2017-02-09T11:38:05.099Z</time>
      </trkpt>
      <trkpt lat="42.92837" lon="0.29165">
        <ele>1206</ele>
        <time>2017-02-09T11:38:06.099Z</time>
      </trkpt>
      <trkpt lat="42.92838" lon="0.29165">
        <ele>1206</ele>
        <time>2017-02-09T11:38:07.099Z</time>
      </trkpt>
      <trkpt lat="42.92839" lon="0.29166">
        <ele>1206</ele>
        <time>2017-02-09T11:38:08.099Z</time>
      </trkpt>
      <trkpt lat="42.92839" lon="0.29166">
        <ele>1205</ele>
        <time>2017-02-09T11:38:09.099Z</time>
      </trkpt>
      <trkpt lat="42.9284" lon="0.29166">
        <ele>1204</ele>
        <time>2017-02-09T11:38:10.099Z</time>
      </trkpt>
      <trkpt lat="42.92841" lon="0.29166">
        <ele>1202</ele>
        <time>2017-02-09T11:38:11.099Z</time>
      </trkpt>
      <trkpt lat="42.92841" lon="0.29166">
        <ele>1202</ele>
        <time>2017-02-09T11:38:12.099Z</time>
      </trkpt>
      <trkpt lat="42.92842" lon="0.29166">
        <ele>1201</ele>
        <time>2017-02-09T11:38:13.099Z</time>
      </trkpt>
      <trkpt lat="42.92843" lon="0.29165">
        <ele>1200</ele>
        <time>2017-02-09T11:38:14.099Z</time>
      </trkpt>
      <trkpt lat="42.92843" lon="0.29165">
        <ele>1199</ele>
        <time>2017-02-09T11:38:15.099Z</time>
      </trkpt>
      <trkpt lat="42.92844" lon="0.29165">
        <ele>1199</ele>
        <time>2017-02-09T11:38:16.099Z</time>
      </trkpt>
      <trkpt lat="42.92845" lon="0.29165">
        <ele>1198</ele>
        <time>2017-02-09T11:38:17.099Z</time>
      </trkpt>
      <trkpt lat="42.92846" lon="0.29165">
        <ele>1198</ele>
        <time>2017-02-09T11:38:18.099Z</time>
      </trkpt>
      <trkpt lat="42.92847" lon="0.29166">
        <ele>1197</ele>
        <time>2017-02-09T11:38:19.099Z</time>
      </trkpt>
      <trkpt lat="42.92848" lon="0.29166">
        <ele>1197</ele>
        <time>2017-02-09T11:38:20.099Z</time>
      </trkpt>
      <trkpt lat="42.92848" lon="0.29166">
        <ele>1197</ele>
        <time>2017-02-09T11:38:21.099Z</time>
      </trkpt>
      <trkpt lat="42.92849" lon="0.29166">
        <ele>1197</ele>
        <time>2017-02-09T11:38:22.099Z</time>
      </trkpt>
      <trkpt lat="42.9285" lon="0.29166">
        <ele>1197</ele>
        <time>2017-02-09T11:38:23.099Z</time>
      </trkpt>
      <trkpt lat="42.9285" lon="0.29166">
        <ele>1197</ele>
        <time>2017-02-09T11:38:24.099Z</time>
      </trkpt>
      <trkpt lat="42.92851" lon="0.29166">
        <ele>1197</ele>
        <time>2017-02-09T11:38:25.099Z</time>
      </trkpt>
      <trkpt lat="42.92852" lon="0.29167">
        <ele>1197</ele>
        <time>2017-02-09T11:38:26.099Z</time>
      </trkpt>
      <trkpt lat="42.92853" lon="0.29167">
        <ele>1197</ele>
        <time>2017-02-09T11:38:27.099Z</time>
      </trkpt>
      <trkpt lat="42.92854" lon="0.29167">
        <ele>1197</ele>
        <time>2017-02-09T11:38:28.099Z</time>
      </trkpt>
      <trkpt lat="42.92854" lon="0.29168">
        <ele>1197</ele>
        <time>2017-02-09T11:38:29.099Z</time>
      </trkpt>
      <trkpt lat="42.92855" lon="0.29168">
        <ele>1197</ele>
        <time>2017-02-09T11:38:30.099Z</time>
      </trkpt>
      <trkpt lat="42.92856" lon="0.29168">
        <ele>1197</ele>
        <time>2017-02-09T11:38:31.099Z</time>
      </trkpt>
      <trkpt lat="42.92857" lon="0.29168">
        <ele>1197</ele>
        <time>2017-02-09T11:38:32.099Z</time>
      </trkpt>
      <trkpt lat="42.92858" lon="0.29168">
        <ele>1196</ele>
        <time>2017-02-09T11:38:33.099Z</time>
      </trkpt>
      <trkpt lat="42.92858" lon="0.29169">
        <ele>1197</ele>
        <time>2017-02-09T11:38:34.099Z</time>
      </trkpt>
      <trkpt lat="42.92859" lon="0.29169">
        <ele>1197</ele>
        <time>2017-02-09T11:38:35.099Z</time>
      </trkpt>
      <trkpt lat="42.92859" lon="0.29169">
        <ele>1197</ele>
        <time>2017-02-09T11:38:36.099Z</time>
      </trkpt>
      <trkpt lat="42.92859" lon="0.29169">
        <ele>1197</ele>
        <time>2017-02-09T11:38:37.099Z</time>
      </trkpt>
      <trkpt lat="42.92859" lon="0.29169">
        <ele>1197</ele>
        <time>2017-02-09T11:38:38.099Z</time>
      </trkpt>
      <trkpt lat="42.9286" lon="0.29169">
        <ele>1198</ele>
        <time>2017-02-09T11:38:39.099Z</time>
      </trkpt>
      <trkpt lat="42.9286" lon="0.29169">
        <ele>1199</ele>
        <time>2017-02-09T11:38:40.099Z</time>
      </trkpt>
      <trkpt lat="42.92861" lon="0.29169">
        <ele>1200</ele>
        <time>2017-02-09T11:38:41.099Z</time>
      </trkpt>
      <trkpt lat="42.92862" lon="0.29169">
        <ele>1200</ele>
        <time>2017-02-09T11:38:42.099Z</time>
      </trkpt>
      <trkpt lat="42.92862" lon="0.29169">
        <ele>1200</ele>
        <time>2017-02-09T11:38:43.099Z</time>
      </trkpt>
      <trkpt lat="42.92863" lon="0.29169">
        <ele>1200</ele>
        <time>2017-02-09T11:38:44.099Z</time>
      </trkpt>
      <trkpt lat="42.92863" lon="0.29169">
        <ele>1200</ele>
        <time>2017-02-09T11:38:45.099Z</time>
      </trkpt>
      <trkpt lat="42.92864" lon="0.29169">
        <ele>1200</ele>
        <time>2017-02-09T11:38:46.099Z</time>
      </trkpt>
      <trkpt lat="42.92864" lon="0.29169">
        <ele>1200</ele>
        <time>2017-02-09T11:38:47.099Z</time>
      </trkpt>
      <trkpt lat="42.92864" lon="0.29169">
        <ele>1201</ele>
        <time>2017-02-09T11:38:48.099Z</time>
      </trkpt>
      <trkpt lat="42.92865" lon="0.29169">
        <ele>1201</ele>
        <time>2017-02-09T11:38:49.099Z</time>
      </trkpt>
      <trkpt lat="42.92865" lon="0.29169">
        <ele>1201</ele>
        <time>2017-02-09T11:38:50.099Z</time>
      </trkpt>
      <trkpt lat="42.92866" lon="0.29169">
        <ele>1201</ele>
        <time>2017-02-09T11:38:51.099Z</time>
      </trkpt>
      <trkpt lat="42.92867" lon="0.29168">
        <ele>1201</ele>
        <time>2017-02-09T11:38:52.099Z</time>
      </trkpt>
      <trkpt lat="42.92868" lon="0.29168">
        <ele>1201</ele>
        <time>2017-02-09T11:38:53.099Z</time>
      </trkpt>
      <trkpt lat="42.92869" lon="0.29168">
        <ele>1202</ele>
        <time>2017-02-09T11:38:54.099Z</time>
      </trkpt>
      <trkpt lat="42.9287" lon="0.29168">
        <ele>1202</ele>
        <time>2017-02-09T11:38:55.099Z</time>
      </trkpt>
      <trkpt lat="42.9287" lon="0.29168">
        <ele>1201</ele>
        <time>2017-02-09T11:38:56.099Z</time>
      </trkpt>
      <trkpt lat="42.92871" lon="0.29168">
        <ele>1201</ele>
        <time>2017-02-09T11:38:57.099Z</time>
      </trkpt>
      <trkpt lat="42.92872" lon="0.29167">
        <ele>1200</ele>
        <time>2017-02-09T11:38:58.099Z</time>
      </trkpt>
      <trkpt lat="42.92872" lon="0.29167">
        <ele>1199</ele>
        <time>2017-02-09T11:38:59.099Z</time>
      </trkpt>
      <trkpt lat="42.92873" lon="0.29167">
        <ele>1199</ele>
        <time>2017-02-09T11:39:00.099Z</time>
      </trkpt>
      <trkpt lat="42.92873" lon="0.29167">
        <ele>1199</ele>
        <time>2017-02-09T11:39:01.099Z</time>
      </trkpt>
      <trkpt lat="42.92874" lon="0.29168">
        <ele>1199</ele>
        <time>2017-02-09T11:39:02.099Z</time>
      </trkpt>
      <trkpt lat="42.92875" lon="0.29168">
        <ele>1198</ele>
        <time>2017-02-09T11:39:03.099Z</time>
      </trkpt>
      <trkpt lat="42.92876" lon="0.29168">
        <ele>1198</ele>
        <time>2017-02-09T11:39:04.099Z</time>
      </trkpt>
      <trkpt lat="42.92877" lon="0.29168">
        <ele>1198</ele>
        <time>2017-02-09T11:39:05.099Z</time>
      </trkpt>
      <trkpt lat="42.92877" lon="0.29168">
        <ele>1199</ele>
        <time>2017-02-09T11:39:06.099Z</time>
      </trkpt>
      <trkpt lat="42.92878" lon="0.29168">
        <ele>1196</ele>
        <time>2017-02-09T11:39:07.099Z</time>
      </trkpt>
      <trkpt lat="42.92879" lon="0.29168">
        <ele>1196</ele>
        <time>2017-02-09T11:39:08.099Z</time>
      </trkpt>
      <trkpt lat="42.9288" lon="0.29168">
        <ele>1196</ele>
        <time>2017-02-09T11:39:09.099Z</time>
      </trkpt>
      <trkpt lat="42.92881" lon="0.29169">
        <ele>1196</ele>
        <time>2017-02-09T11:39:10.099Z</time>
      </trkpt>
      <trkpt lat="42.92881" lon="0.29169">
        <ele>1196</ele>
        <time>2017-02-09T11:39:11.099Z</time>
      </trkpt>
      <trkpt lat="42.92882" lon="0.29169">
        <ele>1197</ele>
        <time>2017-02-09T11:39:12.099Z</time>
      </trkpt>
      <trkpt lat="42.92883" lon="0.29169">
        <ele>1196</ele>
        <time>2017-02-09T11:39:13.099Z</time>
      </trkpt>
      <trkpt lat="42.92884" lon="0.2917">
        <ele>1195</ele>
        <time>2017-02-09T11:39:14.099Z</time>
      </trkpt>
      <trkpt lat="42.92885" lon="0.2917">
        <ele>1195</ele>
        <time>2017-02-09T11:39:15.099Z</time>
      </trkpt>
      <trkpt lat="42.92886" lon="0.2917">
        <ele>1194</ele>
        <time>2017-02-09T11:39:16.099Z</time>
      </trkpt>
      <trkpt lat="42.92886" lon="0.29171">
        <ele>1194</ele>
        <time>2017-02-09T11:39:17.099Z</time>
      </trkpt>
      <trkpt lat="42.92887" lon="0.29171">
        <ele>1194</ele>
        <time>2017-02-09T11:39:18.099Z</time>
      </trkpt>
      <trkpt lat="42.92887" lon="0.29172">
        <ele>1194</ele>
        <time>2017-02-09T11:39:19.099Z</time>
      </trkpt>
      <trkpt lat="42.92888" lon="0.29172">
        <ele>1193</ele>
        <time>2017-02-09T11:39:20.099Z</time>
      </trkpt>
      <trkpt lat="42.92888" lon="0.29173">
        <ele>1193</ele>
        <time>2017-02-09T11:39:21.099Z</time>
      </trkpt>
      <trkpt lat="42.92889" lon="0.29173">
        <ele>1193</ele>
        <time>2017-02-09T11:39:22.099Z</time>
      </trkpt>
      <trkpt lat="42.9289" lon="0.29173">
        <ele>1193</ele>
        <time>2017-02-09T11:39:23.099Z</time>
      </trkpt>
      <trkpt lat="42.9289" lon="0.29174">
        <ele>1193</ele>
        <time>2017-02-09T11:39:24.099Z</time>
      </trkpt>
      <trkpt lat="42.92891" lon="0.29174">
        <ele>1193</ele>
        <time>2017-02-09T11:39:25.099Z</time>
      </trkpt>
      <trkpt lat="42.92891" lon="0.29174">
        <ele>1193</ele>
        <time>2017-02-09T11:39:26.099Z</time>
      </trkpt>
      <trkpt lat="42.92892" lon="0.29174">
        <ele>1193</ele>
        <time>2017-02-09T11:39:27.099Z</time>
      </trkpt>
      <trkpt lat="42.92893" lon="0.29174">
        <ele>1193</ele>
        <time>2017-02-09T11:39:28.099Z</time>
      </trkpt>
      <trkpt lat="42.92893" lon="0.29174">
        <ele>1193</ele>
        <time>2017-02-09T11:39:29.099Z</time>
      </trkpt>
      <trkpt lat="42.92894" lon="0.29174">
        <ele>1193</ele>
        <time>2017-02-09T11:39:30.099Z</time>
      </trkpt>
      <trkpt lat="42.92895" lon="0.29173">
        <ele>1193</ele>
        <time>2017-02-09T11:39:31.099Z</time>
      </trkpt>
      <trkpt lat="42.92895" lon="0.29173">
        <ele>1193</ele>
        <time>2017-02-09T11:39:32.099Z</time>
      </trkpt>
      <trkpt lat="42.92895" lon="0.29173">
        <ele>1193</ele>
        <time>2017-02-09T11:39:33.099Z</time>
      </trkpt>
      <trkpt lat="42.92895" lon="0.29173">
        <ele>1192</ele>
        <time>2017-02-09T11:39:34.099Z</time>
      </trkpt>
      <trkpt lat="42.92896" lon="0.29172">
        <ele>1191</ele>
        <time>2017-02-09T11:39:35.099Z</time>
      </trkpt>
      <trkpt lat="42.92896" lon="0.29171">
        <ele>1191</ele>
        <time>2017-02-09T11:39:36.099Z</time>
      </trkpt>
      <trkpt lat="42.92897" lon="0.2917">
        <ele>1190</ele>
        <time>2017-02-09T11:39:37.099Z</time>
      </trkpt>
      <trkpt lat="42.92897" lon="0.29169">
        <ele>1190</ele>
        <time>2017-02-09T11:39:38.099Z</time>
      </trkpt>
      <trkpt lat="42.92898" lon="0.29168">
        <ele>1190</ele>
        <time>2017-02-09T11:39:39.099Z</time>
      </trkpt>
      <trkpt lat="42.92899" lon="0.29167">
        <ele>1190</ele>
        <time>2017-02-09T11:39:40.099Z</time>
      </trkpt>
      <trkpt lat="42.92899" lon="0.29166">
        <ele>1190</ele>
        <time>2017-02-09T11:39:41.099Z</time>
      </trkpt>
      <trkpt lat="42.929" lon="0.29165">
        <ele>1189</ele>
        <time>2017-02-09T11:39:42.099Z</time>
      </trkpt>
      <trkpt lat="42.92901" lon="0.29165">
        <ele>1189</ele>
        <time>2017-02-09T11:39:43.099Z</time>
      </trkpt>
      <trkpt lat="42.92901" lon="0.29164">
        <ele>1188</ele>
        <time>2017-02-09T11:39:44.099Z</time>
      </trkpt>
      <trkpt lat="42.92902" lon="0.29163">
        <ele>1188</ele>
        <time>2017-02-09T11:39:45.099Z</time>
      </trkpt>
      <trkpt lat="42.92902" lon="0.29162">
        <ele>1187</ele>
        <time>2017-02-09T11:39:46.099Z</time>
      </trkpt>
      <trkpt lat="42.92903" lon="0.29162">
        <ele>1186</ele>
        <time>2017-02-09T11:39:47.099Z</time>
      </trkpt>
      <trkpt lat="42.92904" lon="0.29161">
        <ele>1186</ele>
        <time>2017-02-09T11:39:48.099Z</time>
      </trkpt>
      <trkpt lat="42.92905" lon="0.29161">
        <ele>1185</ele>
        <time>2017-02-09T11:39:49.099Z</time>
      </trkpt>
      <trkpt lat="42.92906" lon="0.2916">
        <ele>1185</ele>
        <time>2017-02-09T11:39:50.099Z</time>
      </trkpt>
      <trkpt lat="42.92907" lon="0.2916">
        <ele>1185</ele>
        <time>2017-02-09T11:39:51.099Z</time>
      </trkpt>
      <trkpt lat="42.92908" lon="0.29159">
        <ele>1185</ele>
        <time>2017-02-09T11:39:52.099Z</time>
      </trkpt>
      <trkpt lat="42.92908" lon="0.29158">
        <ele>1185</ele>
        <time>2017-02-09T11:39:53.099Z</time>
      </trkpt>
      <trkpt lat="42.92909" lon="0.29158">
        <ele>1185</ele>
        <time>2017-02-09T11:39:54.099Z</time>
      </trkpt>
      <trkpt lat="42.9291" lon="0.29157">
        <ele>1185</ele>
        <time>2017-02-09T11:39:55.099Z</time>
      </trkpt>
      <trkpt lat="42.92911" lon="0.29157">
        <ele>1185</ele>
        <time>2017-02-09T11:39:56.099Z</time>
      </trkpt>
      <trkpt lat="42.92911" lon="0.29156">
        <ele>1185</ele>
        <time>2017-02-09T11:39:57.099Z</time>
      </trkpt>
      <trkpt lat="42.92912" lon="0.29156">
        <ele>1185</ele>
        <time>2017-02-09T11:39:58.099Z</time>
      </trkpt>
      <trkpt lat="42.92913" lon="0.29156">
        <ele>1185</ele>
        <time>2017-02-09T11:39:59.099Z</time>
      </trkpt>
      <trkpt lat="42.92914" lon="0.29155">
        <ele>1185</ele>
        <time>2017-02-09T11:40:00.099Z</time>
      </trkpt>
      <trkpt lat="42.92915" lon="0.29155">
        <ele>1184</ele>
        <time>2017-02-09T11:40:01.099Z</time>
      </trkpt>
      <trkpt lat="42.92916" lon="0.29155">
        <ele>1184</ele>
        <time>2017-02-09T11:40:02.099Z</time>
      </trkpt>
      <trkpt lat="42.92917" lon="0.29154">
        <ele>1184</ele>
        <time>2017-02-09T11:40:03.099Z</time>
      </trkpt>
      <trkpt lat="42.92918" lon="0.29154">
        <ele>1184</ele>
        <time>2017-02-09T11:40:04.099Z</time>
      </trkpt>
      <trkpt lat="42.92918" lon="0.29153">
        <ele>1184</ele>
        <time>2017-02-09T11:40:05.099Z</time>
      </trkpt>
      <trkpt lat="42.92919" lon="0.29153">
        <ele>1184</ele>
        <time>2017-02-09T11:40:06.099Z</time>
      </trkpt>
      <trkpt lat="42.9292" lon="0.29153">
        <ele>1184</ele>
        <time>2017-02-09T11:40:07.099Z</time>
      </trkpt>
      <trkpt lat="42.92921" lon="0.29153">
        <ele>1183</ele>
        <time>2017-02-09T11:40:08.099Z</time>
      </trkpt>
      <trkpt lat="42.92922" lon="0.29153">
        <ele>1183</ele>
        <time>2017-02-09T11:40:09.099Z</time>
      </trkpt>
      <trkpt lat="42.92923" lon="0.29153">
        <ele>1182</ele>
        <time>2017-02-09T11:40:10.099Z</time>
      </trkpt>
      <trkpt lat="42.92923" lon="0.29153">
        <ele>1182</ele>
        <time>2017-02-09T11:40:11.099Z</time>
      </trkpt>
      <trkpt lat="42.92924" lon="0.29154">
        <ele>1181</ele>
        <time>2017-02-09T11:40:12.099Z</time>
      </trkpt>
      <trkpt lat="42.92925" lon="0.29154">
        <ele>1181</ele>
        <time>2017-02-09T11:40:13.099Z</time>
      </trkpt>
      <trkpt lat="42.92926" lon="0.29154">
        <ele>1181</ele>
        <time>2017-02-09T11:40:14.099Z</time>
      </trkpt>
      <trkpt lat="42.92926" lon="0.29154">
        <ele>1181</ele>
        <time>2017-02-09T11:40:15.099Z</time>
      </trkpt>
      <trkpt lat="42.92927" lon="0.29154">
        <ele>1181</ele>
        <time>2017-02-09T11:40:16.099Z</time>
      </trkpt>
      <trkpt lat="42.92928" lon="0.29154">
        <ele>1181</ele>
        <time>2017-02-09T11:40:17.099Z</time>
      </trkpt>
      <trkpt lat="42.92929" lon="0.29154">
        <ele>1181</ele>
        <time>2017-02-09T11:40:18.099Z</time>
      </trkpt>
      <trkpt lat="42.9293" lon="0.29154">
        <ele>1181</ele>
        <time>2017-02-09T11:40:19.099Z</time>
      </trkpt>
      <trkpt lat="42.92931" lon="0.29155">
        <ele>1181</ele>
        <time>2017-02-09T11:40:20.099Z</time>
      </trkpt>
      <trkpt lat="42.92932" lon="0.29155">
        <ele>1181</ele>
        <time>2017-02-09T11:40:21.099Z</time>
      </trkpt>
      <trkpt lat="42.92933" lon="0.29155">
        <ele>1181</ele>
        <time>2017-02-09T11:40:22.099Z</time>
      </trkpt>
      <trkpt lat="42.92934" lon="0.29155">
        <ele>1181</ele>
        <time>2017-02-09T11:40:23.099Z</time>
      </trkpt>
      <trkpt lat="42.92935" lon="0.29156">
        <ele>1181</ele>
        <time>2017-02-09T11:40:24.099Z</time>
      </trkpt>
      <trkpt lat="42.92936" lon="0.29156">
        <ele>1181</ele>
        <time>2017-02-09T11:40:25.099Z</time>
      </trkpt>
      <trkpt lat="42.92936" lon="0.29156">
        <ele>1181</ele>
        <time>2017-02-09T11:40:26.099Z</time>
      </trkpt>
      <trkpt lat="42.92937" lon="0.29157">
        <ele>1181</ele>
        <time>2017-02-09T11:40:27.099Z</time>
      </trkpt>
      <trkpt lat="42.92938" lon="0.29157">
        <ele>1181</ele>
        <time>2017-02-09T11:40:28.099Z</time>
      </trkpt>
      <trkpt lat="42.92939" lon="0.29157">
        <ele>1181</ele>
        <time>2017-02-09T11:40:29.099Z</time>
      </trkpt>
      <trkpt lat="42.9294" lon="0.29157">
        <ele>1181</ele>
        <time>2017-02-09T11:40:30.099Z</time>
      </trkpt>
      <trkpt lat="42.92941" lon="0.29158">
        <ele>1181</ele>
        <time>2017-02-09T11:40:31.099Z</time>
      </trkpt>
      <trkpt lat="42.92942" lon="0.29158">
        <ele>1181</ele>
        <time>2017-02-09T11:40:32.099Z</time>
      </trkpt>
      <trkpt lat="42.92943" lon="0.29158">
        <ele>1182</ele>
        <time>2017-02-09T11:40:33.099Z</time>
      </trkpt>
      <trkpt lat="42.92944" lon="0.29158">
        <ele>1182</ele>
        <time>2017-02-09T11:40:34.099Z</time>
      </trkpt>
      <trkpt lat="42.92945" lon="0.29159">
        <ele>1182</ele>
        <time>2017-02-09T11:40:35.099Z</time>
      </trkpt>
      <trkpt lat="42.92946" lon="0.29159">
        <ele>1182</ele>
        <time>2017-02-09T11:40:36.099Z</time>
      </trkpt>
      <trkpt lat="42.92947" lon="0.29159">
        <ele>1182</ele>
        <time>2017-02-09T11:40:37.099Z</time>
      </trkpt>
      <trkpt lat="42.92948" lon="0.29159">
        <ele>1182</ele>
        <time>2017-02-09T11:40:38.099Z</time>
      </trkpt>
      <trkpt lat="42.92949" lon="0.29159">
        <ele>1182</ele>
        <time>2017-02-09T11:40:39.099Z</time>
      </trkpt>
      <trkpt lat="42.9295" lon="0.29159">
        <ele>1182</ele>
        <time>2017-02-09T11:40:40.099Z</time>
      </trkpt>
      <trkpt lat="42.92951" lon="0.29158">
        <ele>1181</ele>
        <time>2017-02-09T11:40:41.099Z</time>
      </trkpt>
      <trkpt lat="42.92952" lon="0.29158">
        <ele>1181</ele>
        <time>2017-02-09T11:40:42.099Z</time>
      </trkpt>
      <trkpt lat="42.92952" lon="0.29157">
        <ele>1181</ele>
        <time>2017-02-09T11:40:43.099Z</time>
      </trkpt>
      <trkpt lat="42.92953" lon="0.29157">
        <ele>1181</ele>
        <time>2017-02-09T11:40:44.099Z</time>
      </trkpt>
      <trkpt lat="42.92954" lon="0.29157">
        <ele>1181</ele>
        <time>2017-02-09T11:40:45.099Z</time>
      </trkpt>
      <trkpt lat="42.92955" lon="0.29156">
        <ele>1181</ele>
        <time>2017-02-09T11:40:46.099Z</time>
      </trkpt>
      <trkpt lat="42.92956" lon="0.29156">
        <ele>1181</ele>
        <time>2017-02-09T11:40:47.099Z</time>
      </trkpt>
      <trkpt lat="42.92957" lon="0.29156">
        <ele>1182</ele>
        <time>2017-02-09T11:40:48.099Z</time>
      </trkpt>
      <trkpt lat="42.92958" lon="0.29156">
        <ele>1182</ele>
        <time>2017-02-09T11:40:49.099Z</time>
      </trkpt>
      <trkpt lat="42.92958" lon="0.29156">
        <ele>1182</ele>
        <time>2017-02-09T11:40:50.099Z</time>
      </trkpt>
      <trkpt lat="42.92959" lon="0.29156">
        <ele>1182</ele>
        <time>2017-02-09T11:40:51.099Z</time>
      </trkpt>
      <trkpt lat="42.9296" lon="0.29155">
        <ele>1182</ele>
        <time>2017-02-09T11:40:52.099Z</time>
      </trkpt>
      <trkpt lat="42.92961" lon="0.29155">
        <ele>1182</ele>
        <time>2017-02-09T11:40:53.099Z</time>
      </trkpt>
      <trkpt lat="42.92962" lon="0.29155">
        <ele>1182</ele>
        <time>2017-02-09T11:40:54.099Z</time>
      </trkpt>
      <trkpt lat="42.92963" lon="0.29154">
        <ele>1182</ele>
        <time>2017-02-09T11:40:55.099Z</time>
      </trkpt>
      <trkpt lat="42.92963" lon="0.29154">
        <ele>1182</ele>
        <time>2017-02-09T11:40:56.099Z</time>
      </trkpt>
      <trkpt lat="42.92964" lon="0.29154">
        <ele>1182</ele>
        <time>2017-02-09T11:40:57.099Z</time>
      </trkpt>
      <trkpt lat="42.92965" lon="0.29154">
        <ele>1182</ele>
        <time>2017-02-09T11:40:58.099Z</time>
      </trkpt>
      <trkpt lat="42.92966" lon="0.29153">
        <ele>1182</ele>
        <time>2017-02-09T11:40:59.099Z</time>
      </trkpt>
      <trkpt lat="42.92967" lon="0.29153">
        <ele>1182</ele>
        <time>2017-02-09T11:41:00.099Z</time>
      </trkpt>
      <trkpt lat="42.92968" lon="0.29153">
        <ele>1182</ele>
        <time>2017-02-09T11:41:01.099Z</time>
      </trkpt>
      <trkpt lat="42.92969" lon="0.29153">
        <ele>1181</ele>
        <time>2017-02-09T11:41:02.099Z</time>
      </trkpt>
      <trkpt lat="42.9297" lon="0.29153">
        <ele>1181</ele>
        <time>2017-02-09T11:41:03.099Z</time>
      </trkpt>
      <trkpt lat="42.92971" lon="0.29152">
        <ele>1181</ele>
        <time>2017-02-09T11:41:04.099Z</time>
      </trkpt>
      <trkpt lat="42.92972" lon="0.29152">
        <ele>1180</ele>
        <time>2017-02-09T11:41:05.099Z</time>
      </trkpt>
      <trkpt lat="42.92973" lon="0.29152">
        <ele>1180</ele>
        <time>2017-02-09T11:41:06.099Z</time>
      </trkpt>
      <trkpt lat="42.92973" lon="0.29152">
        <ele>1180</ele>
        <time>2017-02-09T11:41:07.099Z</time>
      </trkpt>
      <trkpt lat="42.92974" lon="0.29152">
        <ele>1180</ele>
        <time>2017-02-09T11:41:08.099Z</time>
      </trkpt>
      <trkpt lat="42.92974" lon="0.29152">
        <ele>1180</ele>
        <time>2017-02-09T11:41:09.099Z</time>
      </trkpt>
      <trkpt lat="42.92975" lon="0.29152">
        <ele>1179</ele>
        <time>2017-02-09T11:41:10.099Z</time>
      </trkpt>
      <trkpt lat="42.92976" lon="0.29152">
        <ele>1179</ele>
        <time>2017-02-09T11:41:11.099Z</time>
      </trkpt>
      <trkpt lat="42.92977" lon="0.29152">
        <ele>1179</ele>
        <time>2017-02-09T11:41:12.099Z</time>
      </trkpt>
      <trkpt lat="42.92978" lon="0.29151">
        <ele>1180</ele>
        <time>2017-02-09T11:41:13.099Z</time>
      </trkpt>
      <trkpt lat="42.92979" lon="0.29151">
        <ele>1180</ele>
        <time>2017-02-09T11:41:14.099Z</time>
      </trkpt>
      <trkpt lat="42.9298" lon="0.29151">
        <ele>1180</ele>
        <time>2017-02-09T11:41:15.099Z</time>
      </trkpt>
      <trkpt lat="42.92981" lon="0.29151">
        <ele>1180</ele>
        <time>2017-02-09T11:41:16.099Z</time>
      </trkpt>
      <trkpt lat="42.92982" lon="0.29151">
        <ele>1179</ele>
        <time>2017-02-09T11:41:17.099Z</time>
      </trkpt>
      <trkpt lat="42.92983" lon="0.29151">
        <ele>1179</ele>
        <time>2017-02-09T11:41:18.099Z</time>
      </trkpt>
      <trkpt lat="42.92984" lon="0.29151">
        <ele>1179</ele>
        <time>2017-02-09T11:41:19.099Z</time>
      </trkpt>
      <trkpt lat="42.92985" lon="0.29151">
        <ele>1179</ele>
        <time>2017-02-09T11:41:20.099Z</time>
      </trkpt>
      <trkpt lat="42.92986" lon="0.2915">
        <ele>1179</ele>
        <time>2017-02-09T11:41:21.099Z</time>
      </trkpt>
      <trkpt lat="42.92987" lon="0.2915">
        <ele>1179</ele>
        <time>2017-02-09T11:41:22.099Z</time>
      </trkpt>
      <trkpt lat="42.92988" lon="0.29151">
        <ele>1179</ele>
        <time>2017-02-09T11:41:23.099Z</time>
      </trkpt>
      <trkpt lat="42.92989" lon="0.29151">
        <ele>1179</ele>
        <time>2017-02-09T11:41:24.099Z</time>
      </trkpt>
      <trkpt lat="42.9299" lon="0.29151">
        <ele>1179</ele>
        <time>2017-02-09T11:41:25.099Z</time>
      </trkpt>
      <trkpt lat="42.92991" lon="0.29151">
        <ele>1180</ele>
        <time>2017-02-09T11:41:26.099Z</time>
      </trkpt>
      <trkpt lat="42.92992" lon="0.29151">
        <ele>1179</ele>
        <time>2017-02-09T11:41:27.099Z</time>
      </trkpt>
      <trkpt lat="42.92993" lon="0.29151">
        <ele>1179</ele>
        <time>2017-02-09T11:41:28.099Z</time>
      </trkpt>
      <trkpt lat="42.92994" lon="0.29151">
        <ele>1179</ele>
        <time>2017-02-09T11:41:29.099Z</time>
      </trkpt>
      <trkpt lat="42.92995" lon="0.29151">
        <ele>1178</ele>
        <time>2017-02-09T11:41:30.099Z</time>
      </trkpt>
      <trkpt lat="42.92996" lon="0.29151">
        <ele>1178</ele>
        <time>2017-02-09T11:41:31.099Z</time>
      </trkpt>
      <trkpt lat="42.92996" lon="0.29152">
        <ele>1177</ele>
        <time>2017-02-09T11:41:32.099Z</time>
      </trkpt>
      <trkpt lat="42.92997" lon="0.29152">
        <ele>1177</ele>
        <time>2017-02-09T11:41:33.099Z</time>
      </trkpt>
      <trkpt lat="42.92998" lon="0.29152">
        <ele>1176</ele>
        <time>2017-02-09T11:41:34.099Z</time>
      </trkpt>
      <trkpt lat="42.92999" lon="0.29153">
        <ele>1176</ele>
        <time>2017-02-09T11:41:35.099Z</time>
      </trkpt>
      <trkpt lat="42.93" lon="0.29153">
        <ele>1176</ele>
        <time>2017-02-09T11:41:36.099Z</time>
      </trkpt>
      <trkpt lat="42.93001" lon="0.29153">
        <ele>1175</ele>
        <time>2017-02-09T11:41:37.099Z</time>
      </trkpt>
      <trkpt lat="42.93002" lon="0.29153">
        <ele>1175</ele>
        <time>2017-02-09T11:41:38.099Z</time>
      </trkpt>
      <trkpt lat="42.93003" lon="0.29153">
        <ele>1175</ele>
        <time>2017-02-09T11:41:39.099Z</time>
      </trkpt>
      <trkpt lat="42.93003" lon="0.29153">
        <ele>1175</ele>
        <time>2017-02-09T11:41:40.099Z</time>
      </trkpt>
      <trkpt lat="42.93004" lon="0.29154">
        <ele>1175</ele>
        <time>2017-02-09T11:41:41.099Z</time>
      </trkpt>
      <trkpt lat="42.93005" lon="0.29154">
        <ele>1176</ele>
        <time>2017-02-09T11:41:42.099Z</time>
      </trkpt>
      <trkpt lat="42.93006" lon="0.29154">
        <ele>1176</ele>
        <time>2017-02-09T11:41:43.099Z</time>
      </trkpt>
      <trkpt lat="42.93006" lon="0.29154">
        <ele>1177</ele>
        <time>2017-02-09T11:41:44.099Z</time>
      </trkpt>
      <trkpt lat="42.93007" lon="0.29154">
        <ele>1177</ele>
        <time>2017-02-09T11:41:45.099Z</time>
      </trkpt>
      <trkpt lat="42.93007" lon="0.29154">
        <ele>1177</ele>
        <time>2017-02-09T11:41:46.099Z</time>
      </trkpt>
      <trkpt lat="42.93008" lon="0.29155">
        <ele>1177</ele>
        <time>2017-02-09T11:41:47.099Z</time>
      </trkpt>
      <trkpt lat="42.93009" lon="0.29155">
        <ele>1177</ele>
        <time>2017-02-09T11:41:48.099Z</time>
      </trkpt>
      <trkpt lat="42.9301" lon="0.29155">
        <ele>1176</ele>
        <time>2017-02-09T11:41:49.099Z</time>
      </trkpt>
      <trkpt lat="42.9301" lon="0.29155">
        <ele>1175</ele>
        <time>2017-02-09T11:41:50.099Z</time>
      </trkpt>
      <trkpt lat="42.93011" lon="0.29156">
        <ele>1175</ele>
        <time>2017-02-09T11:41:51.099Z</time>
      </trkpt>
      <trkpt lat="42.93012" lon="0.29156">
        <ele>1175</ele>
        <time>2017-02-09T11:41:52.099Z</time>
      </trkpt>
      <trkpt lat="42.93013" lon="0.29156">
        <ele>1173</ele>
        <time>2017-02-09T11:41:53.099Z</time>
      </trkpt>
      <trkpt lat="42.93013" lon="0.29156">
        <ele>1172</ele>
        <time>2017-02-09T11:41:54.099Z</time>
      </trkpt>
      <trkpt lat="42.93014" lon="0.29157">
        <ele>1171</ele>
        <time>2017-02-09T11:41:55.099Z</time>
      </trkpt>
      <trkpt lat="42.93015" lon="0.29157">
        <ele>1171</ele>
        <time>2017-02-09T11:41:56.099Z</time>
      </trkpt>
      <trkpt lat="42.93016" lon="0.29158">
        <ele>1171</ele>
        <time>2017-02-09T11:41:57.099Z</time>
      </trkpt>
      <trkpt lat="42.93017" lon="0.29159">
        <ele>1171</ele>
        <time>2017-02-09T11:41:58.099Z</time>
      </trkpt>
      <trkpt lat="42.93017" lon="0.29159">
        <ele>1171</ele>
        <time>2017-02-09T11:41:59.099Z</time>
      </trkpt>
      <trkpt lat="42.93018" lon="0.2916">
        <ele>1171</ele>
        <time>2017-02-09T11:42:00.099Z</time>
      </trkpt>
      <trkpt lat="42.93019" lon="0.2916">
        <ele>1171</ele>
        <time>2017-02-09T11:42:01.099Z</time>
      </trkpt>
      <trkpt lat="42.9302" lon="0.2916">
        <ele>1171</ele>
        <time>2017-02-09T11:42:02.099Z</time>
      </trkpt>
      <trkpt lat="42.93021" lon="0.29161">
        <ele>1171</ele>
        <time>2017-02-09T11:42:03.099Z</time>
      </trkpt>
      <trkpt lat="42.93021" lon="0.29161">
        <ele>1171</ele>
        <time>2017-02-09T11:42:04.099Z</time>
      </trkpt>
      <trkpt lat="42.93022" lon="0.2916">
        <ele>1171</ele>
        <time>2017-02-09T11:42:05.099Z</time>
      </trkpt>
      <trkpt lat="42.93023" lon="0.2916">
        <ele>1172</ele>
        <time>2017-02-09T11:42:06.099Z</time>
      </trkpt>
      <trkpt lat="42.93024" lon="0.2916">
        <ele>1172</ele>
        <time>2017-02-09T11:42:07.099Z</time>
      </trkpt>
      <trkpt lat="42.93025" lon="0.2916">
        <ele>1171</ele>
        <time>2017-02-09T11:42:08.099Z</time>
      </trkpt>
      <trkpt lat="42.93026" lon="0.2916">
        <ele>1171</ele>
        <time>2017-02-09T11:42:09.099Z</time>
      </trkpt>
      <trkpt lat="42.93027" lon="0.29159">
        <ele>1171</ele>
        <time>2017-02-09T11:42:10.099Z</time>
      </trkpt>
      <trkpt lat="42.93028" lon="0.29159">
        <ele>1171</ele>
        <time>2017-02-09T11:42:11.099Z</time>
      </trkpt>
      <trkpt lat="42.93029" lon="0.29159">
        <ele>1171</ele>
        <time>2017-02-09T11:42:12.099Z</time>
      </trkpt>
      <trkpt lat="42.9303" lon="0.29158">
        <ele>1172</ele>
        <time>2017-02-09T11:42:13.099Z</time>
      </trkpt>
      <trkpt lat="42.93031" lon="0.29158">
        <ele>1172</ele>
        <time>2017-02-09T11:42:14.099Z</time>
      </trkpt>
      <trkpt lat="42.93032" lon="0.29157">
        <ele>1172</ele>
        <time>2017-02-09T11:42:15.099Z</time>
      </trkpt>
      <trkpt lat="42.93032" lon="0.29157">
        <ele>1172</ele>
        <time>2017-02-09T11:42:16.099Z</time>
      </trkpt>
      <trkpt lat="42.93033" lon="0.29156">
        <ele>1172</ele>
        <time>2017-02-09T11:42:17.099Z</time>
      </trkpt>
      <trkpt lat="42.93034" lon="0.29156">
        <ele>1172</ele>
        <time>2017-02-09T11:42:18.099Z</time>
      </trkpt>
      <trkpt lat="42.93035" lon="0.29156">
        <ele>1172</ele>
        <time>2017-02-09T11:42:19.099Z</time>
      </trkpt>
      <trkpt lat="42.93035" lon="0.29155">
        <ele>1173</ele>
        <time>2017-02-09T11:42:20.099Z</time>
      </trkpt>
      <trkpt lat="42.93036" lon="0.29154">
        <ele>1174</ele>
        <time>2017-02-09T11:42:21.099Z</time>
      </trkpt>
      <trkpt lat="42.93037" lon="0.29154">
        <ele>1174</ele>
        <time>2017-02-09T11:42:22.099Z</time>
      </trkpt>
      <trkpt lat="42.93038" lon="0.29153">
        <ele>1174</ele>
        <time>2017-02-09T11:42:23.099Z</time>
      </trkpt>
      <trkpt lat="42.93039" lon="0.29152">
        <ele>1174</ele>
        <time>2017-02-09T11:42:24.099Z</time>
      </trkpt>
      <trkpt lat="42.9304" lon="0.29151">
        <ele>1174</ele>
        <time>2017-02-09T11:42:25.099Z</time>
      </trkpt>
      <trkpt lat="42.93041" lon="0.29151">
        <ele>1174</ele>
        <time>2017-02-09T11:42:26.099Z</time>
      </trkpt>
      <trkpt lat="42.93042" lon="0.2915">
        <ele>1173</ele>
        <time>2017-02-09T11:42:27.099Z</time>
      </trkpt>
      <trkpt lat="42.93042" lon="0.29149">
        <ele>1172</ele>
        <time>2017-02-09T11:42:28.099Z</time>
      </trkpt>
      <trkpt lat="42.93043" lon="0.29148">
        <ele>1173</ele>
        <time>2017-02-09T11:42:29.099Z</time>
      </trkpt>
      <trkpt lat="42.93044" lon="0.29148">
        <ele>1173</ele>
        <time>2017-02-09T11:42:30.099Z</time>
      </trkpt>
      <trkpt lat="42.93044" lon="0.29147">
        <ele>1173</ele>
        <time>2017-02-09T11:42:31.099Z</time>
      </trkpt>
      <trkpt lat="42.93045" lon="0.29146">
        <ele>1174</ele>
        <time>2017-02-09T11:42:32.099Z</time>
      </trkpt>
      <trkpt lat="42.93046" lon="0.29145">
        <ele>1174</ele>
        <time>2017-02-09T11:42:33.099Z</time>
      </trkpt>
      <trkpt lat="42.93046" lon="0.29145">
        <ele>1175</ele>
        <time>2017-02-09T11:42:34.099Z</time>
      </trkpt>
      <trkpt lat="42.93047" lon="0.29144">
        <ele>1176</ele>
        <time>2017-02-09T11:42:35.099Z</time>
      </trkpt>
      <trkpt lat="42.93048" lon="0.29143">
        <ele>1177</ele>
        <time>2017-02-09T11:42:36.099Z</time>
      </trkpt>
      <trkpt lat="42.93048" lon="0.29142">
        <ele>1177</ele>
        <time>2017-02-09T11:42:37.099Z</time>
      </trkpt>
      <trkpt lat="42.93049" lon="0.29142">
        <ele>1178</ele>
        <time>2017-02-09T11:42:38.099Z</time>
      </trkpt>
      <trkpt lat="42.9305" lon="0.29141">
        <ele>1178</ele>
        <time>2017-02-09T11:42:39.099Z</time>
      </trkpt>
      <trkpt lat="42.93051" lon="0.29141">
        <ele>1178</ele>
        <time>2017-02-09T11:42:40.099Z</time>
      </trkpt>
      <trkpt lat="42.93052" lon="0.2914">
        <ele>1178</ele>
        <time>2017-02-09T11:42:41.099Z</time>
      </trkpt>
      <trkpt lat="42.93052" lon="0.29139">
        <ele>1177</ele>
        <time>2017-02-09T11:42:42.099Z</time>
      </trkpt>
      <trkpt lat="42.93053" lon="0.29139">
        <ele>1177</ele>
        <time>2017-02-09T11:42:43.099Z</time>
      </trkpt>
      <trkpt lat="42.93054" lon="0.29138">
        <ele>1177</ele>
        <time>2017-02-09T11:42:44.099Z</time>
      </trkpt>
      <trkpt lat="42.93055" lon="0.29137">
        <ele>1177</ele>
        <time>2017-02-09T11:42:45.099Z</time>
      </trkpt>
      <trkpt lat="42.93055" lon="0.29137">
        <ele>1178</ele>
        <time>2017-02-09T11:42:46.099Z</time>
      </trkpt>
      <trkpt lat="42.93056" lon="0.29136">
        <ele>1178</ele>
        <time>2017-02-09T11:42:47.099Z</time>
      </trkpt>
      <trkpt lat="42.93057" lon="0.29135">
        <ele>1178</ele>
        <time>2017-02-09T11:42:48.099Z</time>
      </trkpt>
      <trkpt lat="42.93057" lon="0.29134">
        <ele>1179</ele>
        <time>2017-02-09T11:42:49.099Z</time>
      </trkpt>
      <trkpt lat="42.93058" lon="0.29134">
        <ele>1179</ele>
        <time>2017-02-09T11:42:50.099Z</time>
      </trkpt>
      <trkpt lat="42.93058" lon="0.29133">
        <ele>1179</ele>
        <time>2017-02-09T11:42:51.099Z</time>
      </trkpt>
      <trkpt lat="42.93059" lon="0.29132">
        <ele>1179</ele>
        <time>2017-02-09T11:42:52.099Z</time>
      </trkpt>
      <trkpt lat="42.9306" lon="0.29132">
        <ele>1180</ele>
        <time>2017-02-09T11:42:53.099Z</time>
      </trkpt>
      <trkpt lat="42.9306" lon="0.29131">
        <ele>1180</ele>
        <time>2017-02-09T11:42:54.099Z</time>
      </trkpt>
      <trkpt lat="42.93061" lon="0.2913">
        <ele>1180</ele>
        <time>2017-02-09T11:42:55.099Z</time>
      </trkpt>
      <trkpt lat="42.93062" lon="0.29129">
        <ele>1180</ele>
        <time>2017-02-09T11:42:56.099Z</time>
      </trkpt>
      <trkpt lat="42.93063" lon="0.29128">
        <ele>1180</ele>
        <time>2017-02-09T11:42:57.099Z</time>
      </trkpt>
      <trkpt lat="42.93063" lon="0.29127">
        <ele>1180</ele>
        <time>2017-02-09T11:42:58.099Z</time>
      </trkpt>
      <trkpt lat="42.93064" lon="0.29126">
        <ele>1181</ele>
        <time>2017-02-09T11:42:59.099Z</time>
      </trkpt>
      <trkpt lat="42.93064" lon="0.29126">
        <ele>1181</ele>
        <time>2017-02-09T11:43:00.099Z</time>
      </trkpt>
      <trkpt lat="42.93065" lon="0.29125">
        <ele>1181</ele>
        <time>2017-02-09T11:43:01.099Z</time>
      </trkpt>
      <trkpt lat="42.93066" lon="0.29125">
        <ele>1181</ele>
        <time>2017-02-09T11:43:02.099Z</time>
      </trkpt>
      <trkpt lat="42.93066" lon="0.29124">
        <ele>1182</ele>
        <time>2017-02-09T11:43:03.099Z</time>
      </trkpt>
      <trkpt lat="42.93067" lon="0.29123">
        <ele>1182</ele>
        <time>2017-02-09T11:43:04.099Z</time>
      </trkpt>
      <trkpt lat="42.93068" lon="0.29123">
        <ele>1184</ele>
        <time>2017-02-09T11:43:05.099Z</time>
      </trkpt>
      <trkpt lat="42.93068" lon="0.29123">
        <ele>1184</ele>
        <time>2017-02-09T11:43:06.099Z</time>
      </trkpt>
      <trkpt lat="42.93069" lon="0.29122">
        <ele>1185</ele>
        <time>2017-02-09T11:43:07.099Z</time>
      </trkpt>
      <trkpt lat="42.9307" lon="0.29122">
        <ele>1185</ele>
        <time>2017-02-09T11:43:08.099Z</time>
      </trkpt>
      <trkpt lat="42.93071" lon="0.29121">
        <ele>1186</ele>
        <time>2017-02-09T11:43:09.099Z</time>
      </trkpt>
      <trkpt lat="42.93071" lon="0.2912">
        <ele>1186</ele>
        <time>2017-02-09T11:43:10.099Z</time>
      </trkpt>
      <trkpt lat="42.93072" lon="0.2912">
        <ele>1186</ele>
        <time>2017-02-09T11:43:11.099Z</time>
      </trkpt>
      <trkpt lat="42.93072" lon="0.29119">
        <ele>1187</ele>
        <time>2017-02-09T11:43:12.099Z</time>
      </trkpt>
      <trkpt lat="42.93073" lon="0.29118">
        <ele>1187</ele>
        <time>2017-02-09T11:43:13.099Z</time>
      </trkpt>
      <trkpt lat="42.93074" lon="0.29118">
        <ele>1187</ele>
        <time>2017-02-09T11:43:14.099Z</time>
      </trkpt>
      <trkpt lat="42.93074" lon="0.29117">
        <ele>1187</ele>
        <time>2017-02-09T11:43:15.099Z</time>
      </trkpt>
      <trkpt lat="42.93075" lon="0.29117">
        <ele>1186</ele>
        <time>2017-02-09T11:43:16.099Z</time>
      </trkpt>
      <trkpt lat="42.93076" lon="0.29116">
        <ele>1186</ele>
        <time>2017-02-09T11:43:17.099Z</time>
      </trkpt>
      <trkpt lat="42.93076" lon="0.29115">
        <ele>1186</ele>
        <time>2017-02-09T11:43:18.099Z</time>
      </trkpt>
      <trkpt lat="42.93077" lon="0.29114">
        <ele>1185</ele>
        <time>2017-02-09T11:43:19.099Z</time>
      </trkpt>
      <trkpt lat="42.93078" lon="0.29114">
        <ele>1185</ele>
        <time>2017-02-09T11:43:20.099Z</time>
      </trkpt>
      <trkpt lat="42.93079" lon="0.29114">
        <ele>1185</ele>
        <time>2017-02-09T11:43:21.099Z</time>
      </trkpt>
      <trkpt lat="42.9308" lon="0.29114">
        <ele>1185</ele>
        <time>2017-02-09T11:43:22.099Z</time>
      </trkpt>
      <trkpt lat="42.93081" lon="0.29113">
        <ele>1187</ele>
        <time>2017-02-09T11:43:23.099Z</time>
      </trkpt>
      <trkpt lat="42.93081" lon="0.29113">
        <ele>1188</ele>
        <time>2017-02-09T11:43:24.099Z</time>
      </trkpt>
      <trkpt lat="42.93082" lon="0.29112">
        <ele>1188</ele>
        <time>2017-02-09T11:43:25.099Z</time>
      </trkpt>
      <trkpt lat="42.93083" lon="0.29112">
        <ele>1188</ele>
        <time>2017-02-09T11:43:26.099Z</time>
      </trkpt>
      <trkpt lat="42.93084" lon="0.29111">
        <ele>1186</ele>
        <time>2017-02-09T11:43:27.099Z</time>
      </trkpt>
      <trkpt lat="42.93084" lon="0.2911">
        <ele>1186</ele>
        <time>2017-02-09T11:43:28.099Z</time>
      </trkpt>
      <trkpt lat="42.93085" lon="0.29108">
        <ele>1184</ele>
        <time>2017-02-09T11:43:29.099Z</time>
      </trkpt>
      <trkpt lat="42.93086" lon="0.29107">
        <ele>1183</ele>
        <time>2017-02-09T11:43:30.099Z</time>
      </trkpt>
      <trkpt lat="42.93086" lon="0.29106">
        <ele>1183</ele>
        <time>2017-02-09T11:43:31.099Z</time>
      </trkpt>
      <trkpt lat="42.93087" lon="0.29106">
        <ele>1182</ele>
        <time>2017-02-09T11:43:32.099Z</time>
      </trkpt>
      <trkpt lat="42.93087" lon="0.29104">
        <ele>1181</ele>
        <time>2017-02-09T11:43:33.099Z</time>
      </trkpt>
      <trkpt lat="42.93088" lon="0.29103">
        <ele>1180</ele>
        <time>2017-02-09T11:43:34.099Z</time>
      </trkpt>
      <trkpt lat="42.93088" lon="0.29103">
        <ele>1180</ele>
        <time>2017-02-09T11:43:35.099Z</time>
      </trkpt>
      <trkpt lat="42.93089" lon="0.29102">
        <ele>1179</ele>
        <time>2017-02-09T11:43:36.099Z</time>
      </trkpt>
      <trkpt lat="42.9309" lon="0.29101">
        <ele>1177</ele>
        <time>2017-02-09T11:43:37.099Z</time>
      </trkpt>
      <trkpt lat="42.9309" lon="0.291">
        <ele>1176</ele>
        <time>2017-02-09T11:43:38.099Z</time>
      </trkpt>
      <trkpt lat="42.93091" lon="0.29099">
        <ele>1176</ele>
        <time>2017-02-09T11:43:39.099Z</time>
      </trkpt>
      <trkpt lat="42.93092" lon="0.29098">
        <ele>1176</ele>
        <time>2017-02-09T11:43:40.099Z</time>
      </trkpt>
      <trkpt lat="42.93093" lon="0.29098">
        <ele>1176</ele>
        <time>2017-02-09T11:43:41.099Z</time>
      </trkpt>
      <trkpt lat="42.93094" lon="0.29097">
        <ele>1176</ele>
        <time>2017-02-09T11:43:42.099Z</time>
      </trkpt>
      <trkpt lat="42.93094" lon="0.29096">
        <ele>1176</ele>
        <time>2017-02-09T11:43:43.099Z</time>
      </trkpt>
      <trkpt lat="42.93095" lon="0.29095">
        <ele>1176</ele>
        <time>2017-02-09T11:43:44.099Z</time>
      </trkpt>
      <trkpt lat="42.93096" lon="0.29094">
        <ele>1176</ele>
        <time>2017-02-09T11:43:45.099Z</time>
      </trkpt>
      <trkpt lat="42.93097" lon="0.29093">
        <ele>1176</ele>
        <time>2017-02-09T11:43:46.099Z</time>
      </trkpt>
      <trkpt lat="42.93097" lon="0.29092">
        <ele>1173</ele>
        <time>2017-02-09T11:43:47.099Z</time>
      </trkpt>
      <trkpt lat="42.93098" lon="0.29091">
        <ele>1171</ele>
        <time>2017-02-09T11:43:48.099Z</time>
      </trkpt>
      <trkpt lat="42.93098" lon="0.2909">
        <ele>1170</ele>
        <time>2017-02-09T11:43:49.099Z</time>
      </trkpt>
      <trkpt lat="42.93099" lon="0.29089">
        <ele>1169</ele>
        <time>2017-02-09T11:43:50.099Z</time>
      </trkpt>
      <trkpt lat="42.93099" lon="0.29088">
        <ele>1170</ele>
        <time>2017-02-09T11:43:51.099Z</time>
      </trkpt>
      <trkpt lat="42.931" lon="0.29087">
        <ele>1169</ele>
        <time>2017-02-09T11:43:52.099Z</time>
      </trkpt>
      <trkpt lat="42.93101" lon="0.29086">
        <ele>1169</ele>
        <time>2017-02-09T11:43:53.099Z</time>
      </trkpt>
      <trkpt lat="42.93101" lon="0.29085">
        <ele>1169</ele>
        <time>2017-02-09T11:43:54.099Z</time>
      </trkpt>
      <trkpt lat="42.93102" lon="0.29085">
        <ele>1169</ele>
        <time>2017-02-09T11:43:55.099Z</time>
      </trkpt>
      <trkpt lat="42.93103" lon="0.29084">
        <ele>1169</ele>
        <time>2017-02-09T11:43:56.099Z</time>
      </trkpt>
      <trkpt lat="42.93103" lon="0.29083">
        <ele>1169</ele>
        <time>2017-02-09T11:43:57.099Z</time>
      </trkpt>
      <trkpt lat="42.93104" lon="0.29082">
        <ele>1169</ele>
        <time>2017-02-09T11:43:58.099Z</time>
      </trkpt>
      <trkpt lat="42.93105" lon="0.29081">
        <ele>1169</ele>
        <time>2017-02-09T11:43:59.099Z</time>
      </trkpt>
      <trkpt lat="42.93105" lon="0.29081">
        <ele>1170</ele>
        <time>2017-02-09T11:44:00.099Z</time>
      </trkpt>
      <trkpt lat="42.93106" lon="0.2908">
        <ele>1170</ele>
        <time>2017-02-09T11:44:01.099Z</time>
      </trkpt>
      <trkpt lat="42.93107" lon="0.2908">
        <ele>1169</ele>
        <time>2017-02-09T11:44:02.099Z</time>
      </trkpt>
      <trkpt lat="42.93108" lon="0.29079">
        <ele>1169</ele>
        <time>2017-02-09T11:44:03.099Z</time>
      </trkpt>
      <trkpt lat="42.93109" lon="0.29078">
        <ele>1169</ele>
        <time>2017-02-09T11:44:04.099Z</time>
      </trkpt>
      <trkpt lat="42.9311" lon="0.29078">
        <ele>1169</ele>
        <time>2017-02-09T11:44:05.099Z</time>
      </trkpt>
      <trkpt lat="42.93111" lon="0.29077">
        <ele>1169</ele>
        <time>2017-02-09T11:44:06.099Z</time>
      </trkpt>
      <trkpt lat="42.93112" lon="0.29076">
        <ele>1169</ele>
        <time>2017-02-09T11:44:07.099Z</time>
      </trkpt>
      <trkpt lat="42.93113" lon="0.29075">
        <ele>1168</ele>
        <time>2017-02-09T11:44:08.099Z</time>
      </trkpt>
      <trkpt lat="42.93114" lon="0.29074">
        <ele>1168</ele>
        <time>2017-02-09T11:44:09.099Z</time>
      </trkpt>
      <trkpt lat="42.93114" lon="0.29074">
        <ele>1167</ele>
        <time>2017-02-09T11:44:10.099Z</time>
      </trkpt>
      <trkpt lat="42.93115" lon="0.29073">
        <ele>1166</ele>
        <time>2017-02-09T11:44:11.099Z</time>
      </trkpt>
      <trkpt lat="42.93115" lon="0.29073">
        <ele>1166</ele>
        <time>2017-02-09T11:44:12.099Z</time>
      </trkpt>
      <trkpt lat="42.93115" lon="0.29072">
        <ele>1165</ele>
        <time>2017-02-09T11:44:13.099Z</time>
      </trkpt>
      <trkpt lat="42.93116" lon="0.29072">
        <ele>1165</ele>
        <time>2017-02-09T11:44:14.099Z</time>
      </trkpt>
      <trkpt lat="42.93116" lon="0.29072">
        <ele>1164</ele>
        <time>2017-02-09T11:44:15.099Z</time>
      </trkpt>
      <trkpt lat="42.93116" lon="0.29072">
        <ele>1163</ele>
        <time>2017-02-09T11:44:16.099Z</time>
      </trkpt>
      <trkpt lat="42.93116" lon="0.29072">
        <ele>1163</ele>
        <time>2017-02-09T11:44:17.099Z</time>
      </trkpt>
      <trkpt lat="42.93112" lon="0.29066">
        <ele>1165</ele>
        <time>2017-02-09T11:44:18.087Z</time>
      </trkpt>
      <trkpt lat="42.93112" lon="0.29066">
        <ele>1165</ele>
        <time>2017-02-09T11:44:19.087Z</time>
      </trkpt>
      <trkpt lat="42.93112" lon="0.29066">
        <ele>1164</ele>
        <time>2017-02-09T11:44:20.087Z</time>
      </trkpt>
      <trkpt lat="42.93112" lon="0.29066">
        <ele>1165</ele>
        <time>2017-02-09T11:44:21.087Z</time>
      </trkpt>
      <trkpt lat="42.93112" lon="0.29066">
        <ele>1165</ele>
        <time>2017-02-09T11:44:22.087Z</time>
      </trkpt>
      <trkpt lat="42.93112" lon="0.29066">
        <ele>1166</ele>
        <time>2017-02-09T11:44:23.087Z</time>
      </trkpt>
      <trkpt lat="42.93112" lon="0.29066">
        <ele>1166</ele>
        <time>2017-02-09T11:44:24.087Z</time>
      </trkpt>
      <trkpt lat="42.93113" lon="0.29067">
        <ele>1166</ele>
        <time>2017-02-09T11:44:25.087Z</time>
      </trkpt>
      <trkpt lat="42.93113" lon="0.29067">
        <ele>1166</ele>
        <time>2017-02-09T11:44:26.087Z</time>
      </trkpt>
      <trkpt lat="42.93113" lon="0.29068">
        <ele>1167</ele>
        <time>2017-02-09T11:44:27.087Z</time>
      </trkpt>
      <trkpt lat="42.93113" lon="0.29068">
        <ele>1166</ele>
        <time>2017-02-09T11:44:28.087Z</time>
      </trkpt>
      <trkpt lat="42.93116" lon="0.29072">
        <ele>1166</ele>
        <time>2017-02-09T11:44:29.102Z</time>
      </trkpt>
      <trkpt lat="42.93116" lon="0.29073">
        <ele>1167</ele>
        <time>2017-02-09T11:44:30.102Z</time>
      </trkpt>
      <trkpt lat="42.93115" lon="0.29074">
        <ele>1166</ele>
        <time>2017-02-09T11:44:31.102Z</time>
      </trkpt>
      <trkpt lat="42.93115" lon="0.29074">
        <ele>1165</ele>
        <time>2017-02-09T11:44:32.102Z</time>
      </trkpt>
      <trkpt lat="42.93116" lon="0.29074">
        <ele>1165</ele>
        <time>2017-02-09T11:44:33.102Z</time>
      </trkpt>
      <trkpt lat="42.93116" lon="0.29073">
        <ele>1165</ele>
        <time>2017-02-09T11:44:34.102Z</time>
      </trkpt>
      <trkpt lat="42.93116" lon="0.29073">
        <ele>1165</ele>
        <time>2017-02-09T11:44:35.102Z</time>
      </trkpt>
      <trkpt lat="42.93117" lon="0.29073">
        <ele>1165</ele>
        <time>2017-02-09T11:44:36.102Z</time>
      </trkpt>
      <trkpt lat="42.93117" lon="0.29073">
        <ele>1165</ele>
        <time>2017-02-09T11:44:37.102Z</time>
      </trkpt>
      <trkpt lat="42.93117" lon="0.29073">
        <ele>1164</ele>
        <time>2017-02-09T11:44:38.102Z</time>
      </trkpt>
      <trkpt lat="42.93117" lon="0.29073">
        <ele>1164</ele>
        <time>2017-02-09T11:44:39.102Z</time>
      </trkpt>
      <trkpt lat="42.93116" lon="0.29073">
        <ele>1163</ele>
        <time>2017-02-09T11:44:40.102Z</time>
      </trkpt>
      <trkpt lat="42.93116" lon="0.29068">
        <ele>1165</ele>
        <time>2017-02-09T11:44:41.106Z</time>
      </trkpt>
      <trkpt lat="42.93116" lon="0.29068">
        <ele>1165</ele>
        <time>2017-02-09T11:44:42.106Z</time>
      </trkpt>
      <trkpt lat="42.93117" lon="0.29068">
        <ele>1166</ele>
        <time>2017-02-09T11:44:43.106Z</time>
      </trkpt>
      <trkpt lat="42.93118" lon="0.29068">
        <ele>1166</ele>
        <time>2017-02-09T11:44:44.106Z</time>
      </trkpt>
      <trkpt lat="42.93119" lon="0.29068">
        <ele>1166</ele>
        <time>2017-02-09T11:44:45.106Z</time>
      </trkpt>
      <trkpt lat="42.9312" lon="0.29068">
        <ele>1166</ele>
        <time>2017-02-09T11:44:46.106Z</time>
      </trkpt>
      <trkpt lat="42.93121" lon="0.29068">
        <ele>1166</ele>
        <time>2017-02-09T11:44:47.106Z</time>
      </trkpt>
      <trkpt lat="42.93122" lon="0.29068">
        <ele>1166</ele>
        <time>2017-02-09T11:44:48.106Z</time>
      </trkpt>
      <trkpt lat="42.93122" lon="0.29069">
        <ele>1165</ele>
        <time>2017-02-09T11:44:49.106Z</time>
      </trkpt>
      <trkpt lat="42.93123" lon="0.29069">
        <ele>1165</ele>
        <time>2017-02-09T11:44:50.106Z</time>
      </trkpt>
      <trkpt lat="42.93124" lon="0.2907">
        <ele>1165</ele>
        <time>2017-02-09T11:44:51.106Z</time>
      </trkpt>
      <trkpt lat="42.93124" lon="0.29071">
        <ele>1165</ele>
        <time>2017-02-09T11:44:52.106Z</time>
      </trkpt>
      <trkpt lat="42.93125" lon="0.29071">
        <ele>1165</ele>
        <time>2017-02-09T11:44:53.106Z</time>
      </trkpt>
      <trkpt lat="42.93125" lon="0.29072">
        <ele>1165</ele>
        <time>2017-02-09T11:44:54.106Z</time>
      </trkpt>
      <trkpt lat="42.93125" lon="0.29072">
        <ele>1165</ele>
        <time>2017-02-09T11:44:55.106Z</time>
      </trkpt>
      <trkpt lat="42.93126" lon="0.29072">
        <ele>1165</ele>
        <time>2017-02-09T11:44:56.106Z</time>
      </trkpt>
      <trkpt lat="42.93126" lon="0.29072">
        <ele>1165</ele>
        <time>2017-02-09T11:44:57.106Z</time>
      </trkpt>
      <trkpt lat="42.93127" lon="0.29073">
        <ele>1165</ele>
        <time>2017-02-09T11:44:58.106Z</time>
      </trkpt>
      <trkpt lat="42.93128" lon="0.29073">
        <ele>1165</ele>
        <time>2017-02-09T11:44:59.106Z</time>
      </trkpt>
      <trkpt lat="42.93129" lon="0.29074">
        <ele>1165</ele>
        <time>2017-02-09T11:45:00.106Z</time>
      </trkpt>
      <trkpt lat="42.93131" lon="0.29074">
        <ele>1165</ele>
        <time>2017-02-09T11:45:01.106Z</time>
      </trkpt>
      <trkpt lat="42.93132" lon="0.29075">
        <ele>1166</ele>
        <time>2017-02-09T11:45:02.106Z</time>
      </trkpt>
      <trkpt lat="42.93133" lon="0.29076">
        <ele>1166</ele>
        <time>2017-02-09T11:45:03.106Z</time>
      </trkpt>
      <trkpt lat="42.93134" lon="0.29077">
        <ele>1166</ele>
        <time>2017-02-09T11:45:04.106Z</time>
      </trkpt>
      <trkpt lat="42.93134" lon="0.29077">
        <ele>1166</ele>
        <time>2017-02-09T11:45:05.106Z</time>
      </trkpt>
      <trkpt lat="42.93135" lon="0.29078">
        <ele>1167</ele>
        <time>2017-02-09T11:45:06.106Z</time>
      </trkpt>
      <trkpt lat="42.93135" lon="0.29079">
        <ele>1167</ele>
        <time>2017-02-09T11:45:07.106Z</time>
      </trkpt>
      <trkpt lat="42.93136" lon="0.29079">
        <ele>1167</ele>
        <time>2017-02-09T11:45:08.106Z</time>
      </trkpt>
      <trkpt lat="42.93137" lon="0.2908">
        <ele>1166</ele>
        <time>2017-02-09T11:45:09.106Z</time>
      </trkpt>
      <trkpt lat="42.93138" lon="0.29081">
        <ele>1166</ele>
        <time>2017-02-09T11:45:10.106Z</time>
      </trkpt>
      <trkpt lat="42.93138" lon="0.29081">
        <ele>1166</ele>
        <time>2017-02-09T11:45:11.106Z</time>
      </trkpt>
      <trkpt lat="42.93139" lon="0.29082">
        <ele>1166</ele>
        <time>2017-02-09T11:45:12.106Z</time>
      </trkpt>
      <trkpt lat="42.9314" lon="0.29083">
        <ele>1166</ele>
        <time>2017-02-09T11:45:13.106Z</time>
      </trkpt>
      <trkpt lat="42.93141" lon="0.29083">
        <ele>1166</ele>
        <time>2017-02-09T11:45:14.106Z</time>
      </trkpt>
      <trkpt lat="42.93142" lon="0.29084">
        <ele>1167</ele>
        <time>2017-02-09T11:45:15.106Z</time>
      </trkpt>
      <trkpt lat="42.93142" lon="0.29085">
        <ele>1167</ele>
        <time>2017-02-09T11:45:16.106Z</time>
      </trkpt>
      <trkpt lat="42.93143" lon="0.29085">
        <ele>1168</ele>
        <time>2017-02-09T11:45:17.106Z</time>
      </trkpt>
      <trkpt lat="42.93144" lon="0.29086">
        <ele>1169</ele>
        <time>2017-02-09T11:45:18.106Z</time>
      </trkpt>
      <trkpt lat="42.93145" lon="0.29086">
        <ele>1169</ele>
        <time>2017-02-09T11:45:19.106Z</time>
      </trkpt>
      <trkpt lat="42.93146" lon="0.29087">
        <ele>1170</ele>
        <time>2017-02-09T11:45:20.106Z</time>
      </trkpt>
      <trkpt lat="42.93147" lon="0.29088">
        <ele>1170</ele>
        <time>2017-02-09T11:45:21.106Z</time>
      </trkpt>
      <trkpt lat="42.93148" lon="0.29088">
        <ele>1171</ele>
        <time>2017-02-09T11:45:22.106Z</time>
      </trkpt>
      <trkpt lat="42.93149" lon="0.29088">
        <ele>1172</ele>
        <time>2017-02-09T11:45:23.106Z</time>
      </trkpt>
      <trkpt lat="42.9315" lon="0.29089">
        <ele>1172</ele>
        <time>2017-02-09T11:45:24.106Z</time>
      </trkpt>
      <trkpt lat="42.93151" lon="0.29089">
        <ele>1172</ele>
        <time>2017-02-09T11:45:25.106Z</time>
      </trkpt>
      <trkpt lat="42.93152" lon="0.29089">
        <ele>1173</ele>
        <time>2017-02-09T11:45:26.106Z</time>
      </trkpt>
      <trkpt lat="42.93153" lon="0.29089">
        <ele>1173</ele>
        <time>2017-02-09T11:45:27.106Z</time>
      </trkpt>
      <trkpt lat="42.93154" lon="0.2909">
        <ele>1172</ele>
        <time>2017-02-09T11:45:28.106Z</time>
      </trkpt>
      <trkpt lat="42.93155" lon="0.2909">
        <ele>1172</ele>
        <time>2017-02-09T11:45:29.106Z</time>
      </trkpt>
      <trkpt lat="42.93156" lon="0.2909">
        <ele>1172</ele>
        <time>2017-02-09T11:45:30.106Z</time>
      </trkpt>
      <trkpt lat="42.93157" lon="0.2909">
        <ele>1171</ele>
        <time>2017-02-09T11:45:31.106Z</time>
      </trkpt>
      <trkpt lat="42.93158" lon="0.29089">
        <ele>1171</ele>
        <time>2017-02-09T11:45:32.106Z</time>
      </trkpt>
      <trkpt lat="42.93159" lon="0.29089">
        <ele>1170</ele>
        <time>2017-02-09T11:45:33.106Z</time>
      </trkpt>
      <trkpt lat="42.9316" lon="0.29089">
        <ele>1170</ele>
        <time>2017-02-09T11:45:34.106Z</time>
      </trkpt>
      <trkpt lat="42.9316" lon="0.29089">
        <ele>1170</ele>
        <time>2017-02-09T11:45:35.106Z</time>
      </trkpt>
      <trkpt lat="42.93161" lon="0.29089">
        <ele>1170</ele>
        <time>2017-02-09T11:45:36.106Z</time>
      </trkpt>
      <trkpt lat="42.93162" lon="0.29089">
        <ele>1170</ele>
        <time>2017-02-09T11:45:37.106Z</time>
      </trkpt>
      <trkpt lat="42.93163" lon="0.29089">
        <ele>1171</ele>
        <time>2017-02-09T11:45:38.106Z</time>
      </trkpt>
      <trkpt lat="42.93164" lon="0.29089">
        <ele>1171</ele>
        <time>2017-02-09T11:45:39.106Z</time>
      </trkpt>
      <trkpt lat="42.93165" lon="0.29088">
        <ele>1172</ele>
        <time>2017-02-09T11:45:40.106Z</time>
      </trkpt>
      <trkpt lat="42.93166" lon="0.29088">
        <ele>1173</ele>
        <time>2017-02-09T11:45:41.106Z</time>
      </trkpt>
      <trkpt lat="42.93167" lon="0.29088">
        <ele>1173</ele>
        <time>2017-02-09T11:45:42.106Z</time>
      </trkpt>
      <trkpt lat="42.93168" lon="0.29088">
        <ele>1173</ele>
        <time>2017-02-09T11:45:43.106Z</time>
      </trkpt>
      <trkpt lat="42.93169" lon="0.29087">
        <ele>1174</ele>
        <time>2017-02-09T11:45:44.106Z</time>
      </trkpt>
      <trkpt lat="42.9317" lon="0.29087">
        <ele>1174</ele>
        <time>2017-02-09T11:45:45.106Z</time>
      </trkpt>
      <trkpt lat="42.93171" lon="0.29087">
        <ele>1174</ele>
        <time>2017-02-09T11:45:46.106Z</time>
      </trkpt>
      <trkpt lat="42.93171" lon="0.29086">
        <ele>1168</ele>
        <time>2017-02-09T11:45:47.106Z</time>
      </trkpt>
      <trkpt lat="42.93172" lon="0.29085">
        <ele>1164</ele>
        <time>2017-02-09T11:45:48.106Z</time>
      </trkpt>
      <trkpt lat="42.93173" lon="0.29083">
        <ele>1161</ele>
        <time>2017-02-09T11:45:49.106Z</time>
      </trkpt>
      <trkpt lat="42.93174" lon="0.29082">
        <ele>1160</ele>
        <time>2017-02-09T11:45:50.106Z</time>
      </trkpt>
      <trkpt lat="42.93175" lon="0.29081">
        <ele>1160</ele>
        <time>2017-02-09T11:45:51.106Z</time>
      </trkpt>
      <trkpt lat="42.93175" lon="0.29081">
        <ele>1158</ele>
        <time>2017-02-09T11:45:52.106Z</time>
      </trkpt>
      <trkpt lat="42.93176" lon="0.2908">
        <ele>1158</ele>
        <time>2017-02-09T11:45:53.106Z</time>
      </trkpt>
      <trkpt lat="42.93177" lon="0.2908">
        <ele>1158</ele>
        <time>2017-02-09T11:45:54.106Z</time>
      </trkpt>
      <trkpt lat="42.93178" lon="0.29079">
        <ele>1158</ele>
        <time>2017-02-09T11:45:55.106Z</time>
      </trkpt>
      <trkpt lat="42.93178" lon="0.29078">
        <ele>1158</ele>
        <time>2017-02-09T11:45:56.106Z</time>
      </trkpt>
      <trkpt lat="42.93179" lon="0.29078">
        <ele>1158</ele>
        <time>2017-02-09T11:45:57.106Z</time>
      </trkpt>
      <trkpt lat="42.9318" lon="0.29077">
        <ele>1158</ele>
        <time>2017-02-09T11:45:58.106Z</time>
      </trkpt>
      <trkpt lat="42.93181" lon="0.29077">
        <ele>1158</ele>
        <time>2017-02-09T11:45:59.106Z</time>
      </trkpt>
      <trkpt lat="42.93182" lon="0.29077">
        <ele>1159</ele>
        <time>2017-02-09T11:46:00.106Z</time>
      </trkpt>
      <trkpt lat="42.93182" lon="0.29076">
        <ele>1159</ele>
        <time>2017-02-09T11:46:01.106Z</time>
      </trkpt>
      <trkpt lat="42.93183" lon="0.29076">
        <ele>1159</ele>
        <time>2017-02-09T11:46:02.106Z</time>
      </trkpt>
      <trkpt lat="42.93184" lon="0.29076">
        <ele>1158</ele>
        <time>2017-02-09T11:46:03.106Z</time>
      </trkpt>
      <trkpt lat="42.93185" lon="0.29075">
        <ele>1159</ele>
        <time>2017-02-09T11:46:04.106Z</time>
      </trkpt>
      <trkpt lat="42.93186" lon="0.29075">
        <ele>1158</ele>
        <time>2017-02-09T11:46:05.106Z</time>
      </trkpt>
      <trkpt lat="42.93187" lon="0.29075">
        <ele>1158</ele>
        <time>2017-02-09T11:46:06.106Z</time>
      </trkpt>
      <trkpt lat="42.93188" lon="0.29075">
        <ele>1158</ele>
        <time>2017-02-09T11:46:07.106Z</time>
      </trkpt>
      <trkpt lat="42.93189" lon="0.29074">
        <ele>1158</ele>
        <time>2017-02-09T11:46:08.106Z</time>
      </trkpt>
      <trkpt lat="42.9319" lon="0.29074">
        <ele>1158</ele>
        <time>2017-02-09T11:46:09.106Z</time>
      </trkpt>
      <trkpt lat="42.93191" lon="0.29074">
        <ele>1158</ele>
        <time>2017-02-09T11:46:10.106Z</time>
      </trkpt>
      <trkpt lat="42.93192" lon="0.29074">
        <ele>1158</ele>
        <time>2017-02-09T11:46:11.106Z</time>
      </trkpt>
      <trkpt lat="42.93193" lon="0.29075">
        <ele>1157</ele>
        <time>2017-02-09T11:46:12.106Z</time>
      </trkpt>
      <trkpt lat="42.93194" lon="0.29075">
        <ele>1157</ele>
        <time>2017-02-09T11:46:13.106Z</time>
      </trkpt>
      <trkpt lat="42.93195" lon="0.29076">
        <ele>1156</ele>
        <time>2017-02-09T11:46:14.106Z</time>
      </trkpt>
      <trkpt lat="42.93196" lon="0.29076">
        <ele>1155</ele>
        <time>2017-02-09T11:46:15.106Z</time>
      </trkpt>
      <trkpt lat="42.93197" lon="0.29076">
        <ele>1155</ele>
        <time>2017-02-09T11:46:16.106Z</time>
      </trkpt>
      <trkpt lat="42.93198" lon="0.29077">
        <ele>1155</ele>
        <time>2017-02-09T11:46:17.106Z</time>
      </trkpt>
      <trkpt lat="42.93199" lon="0.29077">
        <ele>1155</ele>
        <time>2017-02-09T11:46:18.106Z</time>
      </trkpt>
      <trkpt lat="42.932" lon="0.29077">
        <ele>1155</ele>
        <time>2017-02-09T11:46:19.106Z</time>
      </trkpt>
      <trkpt lat="42.93201" lon="0.29078">
        <ele>1155</ele>
        <time>2017-02-09T11:46:20.106Z</time>
      </trkpt>
      <trkpt lat="42.93202" lon="0.29078">
        <ele>1155</ele>
        <time>2017-02-09T11:46:21.106Z</time>
      </trkpt>
      <trkpt lat="42.93203" lon="0.29078">
        <ele>1155</ele>
        <time>2017-02-09T11:46:22.106Z</time>
      </trkpt>
      <trkpt lat="42.93204" lon="0.29079">
        <ele>1155</ele>
        <time>2017-02-09T11:46:23.106Z</time>
      </trkpt>
      <trkpt lat="42.93205" lon="0.2908">
        <ele>1155</ele>
        <time>2017-02-09T11:46:24.106Z</time>
      </trkpt>
      <trkpt lat="42.93206" lon="0.2908">
        <ele>1155</ele>
        <time>2017-02-09T11:46:25.106Z</time>
      </trkpt>
      <trkpt lat="42.93207" lon="0.29081">
        <ele>1156</ele>
        <time>2017-02-09T11:46:26.106Z</time>
      </trkpt>
      <trkpt lat="42.93208" lon="0.29082">
        <ele>1156</ele>
        <time>2017-02-09T11:46:27.106Z</time>
      </trkpt>
      <trkpt lat="42.93208" lon="0.29083">
        <ele>1156</ele>
        <time>2017-02-09T11:46:28.106Z</time>
      </trkpt>
      <trkpt lat="42.93209" lon="0.29083">
        <ele>1156</ele>
        <time>2017-02-09T11:46:29.106Z</time>
      </trkpt>
      <trkpt lat="42.9321" lon="0.29084">
        <ele>1155</ele>
        <time>2017-02-09T11:46:30.106Z</time>
      </trkpt>
      <trkpt lat="42.93211" lon="0.29084">
        <ele>1155</ele>
        <time>2017-02-09T11:46:31.106Z</time>
      </trkpt>
      <trkpt lat="42.93212" lon="0.29085">
        <ele>1155</ele>
        <time>2017-02-09T11:46:32.106Z</time>
      </trkpt>
      <trkpt lat="42.93213" lon="0.29086">
        <ele>1155</ele>
        <time>2017-02-09T11:46:33.106Z</time>
      </trkpt>
      <trkpt lat="42.93213" lon="0.29086">
        <ele>1154</ele>
        <time>2017-02-09T11:46:34.106Z</time>
      </trkpt>
      <trkpt lat="42.93214" lon="0.29087">
        <ele>1154</ele>
        <time>2017-02-09T11:46:35.106Z</time>
      </trkpt>
      <trkpt lat="42.93215" lon="0.29088">
        <ele>1154</ele>
        <time>2017-02-09T11:46:36.106Z</time>
      </trkpt>
      <trkpt lat="42.93215" lon="0.29089">
        <ele>1154</ele>
        <time>2017-02-09T11:46:37.106Z</time>
      </trkpt>
      <trkpt lat="42.93216" lon="0.29089">
        <ele>1154</ele>
        <time>2017-02-09T11:46:38.106Z</time>
      </trkpt>
      <trkpt lat="42.93217" lon="0.2909">
        <ele>1153</ele>
        <time>2017-02-09T11:46:39.106Z</time>
      </trkpt>
      <trkpt lat="42.93217" lon="0.2909">
        <ele>1153</ele>
        <time>2017-02-09T11:46:40.106Z</time>
      </trkpt>
      <trkpt lat="42.93218" lon="0.29091">
        <ele>1153</ele>
        <time>2017-02-09T11:46:41.106Z</time>
      </trkpt>
      <trkpt lat="42.93219" lon="0.29091">
        <ele>1153</ele>
        <time>2017-02-09T11:46:42.106Z</time>
      </trkpt>
      <trkpt lat="42.9322" lon="0.29092">
        <ele>1152</ele>
        <time>2017-02-09T11:46:43.106Z</time>
      </trkpt>
      <trkpt lat="42.93221" lon="0.29092">
        <ele>1152</ele>
        <time>2017-02-09T11:46:44.106Z</time>
      </trkpt>
      <trkpt lat="42.93221" lon="0.29093">
        <ele>1152</ele>
        <time>2017-02-09T11:46:45.106Z</time>
      </trkpt>
      <trkpt lat="42.93222" lon="0.29093">
        <ele>1152</ele>
        <time>2017-02-09T11:46:46.106Z</time>
      </trkpt>
      <trkpt lat="42.93223" lon="0.29094">
        <ele>1152</ele>
        <time>2017-02-09T11:46:47.106Z</time>
      </trkpt>
      <trkpt lat="42.93224" lon="0.29094">
        <ele>1151</ele>
        <time>2017-02-09T11:46:48.106Z</time>
      </trkpt>
      <trkpt lat="42.93225" lon="0.29095">
        <ele>1151</ele>
        <time>2017-02-09T11:46:49.106Z</time>
      </trkpt>
      <trkpt lat="42.93225" lon="0.29095">
        <ele>1151</ele>
        <time>2017-02-09T11:46:50.106Z</time>
      </trkpt>
      <trkpt lat="42.93226" lon="0.29095">
        <ele>1151</ele>
        <time>2017-02-09T11:46:51.106Z</time>
      </trkpt>
      <trkpt lat="42.93227" lon="0.29096">
        <ele>1151</ele>
        <time>2017-02-09T11:46:52.106Z</time>
      </trkpt>
      <trkpt lat="42.93228" lon="0.29096">
        <ele>1151</ele>
        <time>2017-02-09T11:46:53.106Z</time>
      </trkpt>
      <trkpt lat="42.93229" lon="0.29096">
        <ele>1150</ele>
        <time>2017-02-09T11:46:54.106Z</time>
      </trkpt>
      <trkpt lat="42.9323" lon="0.29096">
        <ele>1150</ele>
        <time>2017-02-09T11:46:55.106Z</time>
      </trkpt>
      <trkpt lat="42.93231" lon="0.29096">
        <ele>1150</ele>
        <time>2017-02-09T11:46:56.106Z</time>
      </trkpt>
      <trkpt lat="42.93232" lon="0.29096">
        <ele>1150</ele>
        <time>2017-02-09T11:46:57.106Z</time>
      </trkpt>
      <trkpt lat="42.93233" lon="0.29097">
        <ele>1150</ele>
        <time>2017-02-09T11:46:58.106Z</time>
      </trkpt>
      <trkpt lat="42.93234" lon="0.29097">
        <ele>1150</ele>
        <time>2017-02-09T11:46:59.106Z</time>
      </trkpt>
      <trkpt lat="42.93234" lon="0.29098">
        <ele>1150</ele>
        <time>2017-02-09T11:47:00.106Z</time>
      </trkpt>
      <trkpt lat="42.93235" lon="0.29098">
        <ele>1149</ele>
        <time>2017-02-09T11:47:01.106Z</time>
      </trkpt>
      <trkpt lat="42.93236" lon="0.29099">
        <ele>1150</ele>
        <time>2017-02-09T11:47:02.106Z</time>
      </trkpt>
      <trkpt lat="42.93237" lon="0.29099">
        <ele>1149</ele>
        <time>2017-02-09T11:47:03.106Z</time>
      </trkpt>
      <trkpt lat="42.93238" lon="0.29099">
        <ele>1149</ele>
        <time>2017-02-09T11:47:04.106Z</time>
      </trkpt>
      <trkpt lat="42.93239" lon="0.29099">
        <ele>1149</ele>
        <time>2017-02-09T11:47:05.106Z</time>
      </trkpt>
      <trkpt lat="42.9324" lon="0.29099">
        <ele>1149</ele>
        <time>2017-02-09T11:47:06.106Z</time>
      </trkpt>
      <trkpt lat="42.93241" lon="0.29099">
        <ele>1149</ele>
        <time>2017-02-09T11:47:07.106Z</time>
      </trkpt>
      <trkpt lat="42.93242" lon="0.29098">
        <ele>1149</ele>
        <time>2017-02-09T11:47:08.106Z</time>
      </trkpt>
      <trkpt lat="42.93242" lon="0.29098">
        <ele>1149</ele>
        <time>2017-02-09T11:47:09.106Z</time>
      </trkpt>
      <trkpt lat="42.93243" lon="0.29098">
        <ele>1148</ele>
        <time>2017-02-09T11:47:10.106Z</time>
      </trkpt>
      <trkpt lat="42.93244" lon="0.29098">
        <ele>1148</ele>
        <time>2017-02-09T11:47:11.106Z</time>
      </trkpt>
      <trkpt lat="42.93245" lon="0.29097">
        <ele>1148</ele>
        <time>2017-02-09T11:47:12.106Z</time>
      </trkpt>
      <trkpt lat="42.93246" lon="0.29097">
        <ele>1148</ele>
        <time>2017-02-09T11:47:13.106Z</time>
      </trkpt>
      <trkpt lat="42.93247" lon="0.29097">
        <ele>1148</ele>
        <time>2017-02-09T11:47:14.106Z</time>
      </trkpt>
      <trkpt lat="42.93248" lon="0.29096">
        <ele>1148</ele>
        <time>2017-02-09T11:47:15.106Z</time>
      </trkpt>
      <trkpt lat="42.93249" lon="0.29096">
        <ele>1147</ele>
        <time>2017-02-09T11:47:16.106Z</time>
      </trkpt>
      <trkpt lat="42.93249" lon="0.29095">
        <ele>1147</ele>
        <time>2017-02-09T11:47:17.106Z</time>
      </trkpt>
      <trkpt lat="42.9325" lon="0.29095">
        <ele>1147</ele>
        <time>2017-02-09T11:47:18.106Z</time>
      </trkpt>
      <trkpt lat="42.93251" lon="0.29095">
        <ele>1147</ele>
        <time>2017-02-09T11:47:19.106Z</time>
      </trkpt>
      <trkpt lat="42.93252" lon="0.29094">
        <ele>1147</ele>
        <time>2017-02-09T11:47:20.106Z</time>
      </trkpt>
      <trkpt lat="42.93253" lon="0.29094">
        <ele>1147</ele>
        <time>2017-02-09T11:47:21.106Z</time>
      </trkpt>
      <trkpt lat="42.93254" lon="0.29094">
        <ele>1147</ele>
        <time>2017-02-09T11:47:22.106Z</time>
      </trkpt>
      <trkpt lat="42.93256" lon="0.29094">
        <ele>1147</ele>
        <time>2017-02-09T11:47:23.106Z</time>
      </trkpt>
      <trkpt lat="42.93257" lon="0.29093">
        <ele>1147</ele>
        <time>2017-02-09T11:47:24.106Z</time>
      </trkpt>
      <trkpt lat="42.93258" lon="0.29093">
        <ele>1147</ele>
        <time>2017-02-09T11:47:25.106Z</time>
      </trkpt>
      <trkpt lat="42.93259" lon="0.29093">
        <ele>1147</ele>
        <time>2017-02-09T11:47:26.106Z</time>
      </trkpt>
      <trkpt lat="42.93259" lon="0.29092">
        <ele>1147</ele>
        <time>2017-02-09T11:47:27.106Z</time>
      </trkpt>
      <trkpt lat="42.9326" lon="0.29092">
        <ele>1147</ele>
        <time>2017-02-09T11:47:28.106Z</time>
      </trkpt>
      <trkpt lat="42.93261" lon="0.29092">
        <ele>1147</ele>
        <time>2017-02-09T11:47:29.106Z</time>
      </trkpt>
      <trkpt lat="42.93263" lon="0.29091">
        <ele>1147</ele>
        <time>2017-02-09T11:47:30.106Z</time>
      </trkpt>
      <trkpt lat="42.93264" lon="0.29091">
        <ele>1147</ele>
        <time>2017-02-09T11:47:31.106Z</time>
      </trkpt>
      <trkpt lat="42.93265" lon="0.29091">
        <ele>1147</ele>
        <time>2017-02-09T11:47:32.106Z</time>
      </trkpt>
      <trkpt lat="42.93266" lon="0.29091">
        <ele>1147</ele>
        <time>2017-02-09T11:47:33.106Z</time>
      </trkpt>
      <trkpt lat="42.93267" lon="0.2909">
        <ele>1147</ele>
        <time>2017-02-09T11:47:34.106Z</time>
      </trkpt>
      <trkpt lat="42.93268" lon="0.2909">
        <ele>1147</ele>
        <time>2017-02-09T11:47:35.106Z</time>
      </trkpt>
      <trkpt lat="42.93269" lon="0.2909">
        <ele>1147</ele>
        <time>2017-02-09T11:47:36.106Z</time>
      </trkpt>
      <trkpt lat="42.9327" lon="0.29089">
        <ele>1147</ele>
        <time>2017-02-09T11:47:37.106Z</time>
      </trkpt>
      <trkpt lat="42.93271" lon="0.29089">
        <ele>1147</ele>
        <time>2017-02-09T11:47:38.106Z</time>
      </trkpt>
      <trkpt lat="42.93272" lon="0.29088">
        <ele>1147</ele>
        <time>2017-02-09T11:47:39.106Z</time>
      </trkpt>
      <trkpt lat="42.93273" lon="0.29088">
        <ele>1148</ele>
        <time>2017-02-09T11:47:40.106Z</time>
      </trkpt>
      <trkpt lat="42.93274" lon="0.29088">
        <ele>1148</ele>
        <time>2017-02-09T11:47:41.106Z</time>
      </trkpt>
      <trkpt lat="42.93274" lon="0.29087">
        <ele>1147</ele>
        <time>2017-02-09T11:47:42.106Z</time>
      </trkpt>
      <trkpt lat="42.93275" lon="0.29087">
        <ele>1147</ele>
        <time>2017-02-09T11:47:43.106Z</time>
      </trkpt>
      <trkpt lat="42.93276" lon="0.29086">
        <ele>1147</ele>
        <time>2017-02-09T11:47:44.106Z</time>
      </trkpt>
      <trkpt lat="42.93277" lon="0.29086">
        <ele>1148</ele>
        <time>2017-02-09T11:47:45.106Z</time>
      </trkpt>
      <trkpt lat="42.93278" lon="0.29086">
        <ele>1148</ele>
        <time>2017-02-09T11:47:46.106Z</time>
      </trkpt>
      <trkpt lat="42.93279" lon="0.29085">
        <ele>1147</ele>
        <time>2017-02-09T11:47:47.106Z</time>
      </trkpt>
      <trkpt lat="42.9328" lon="0.29085">
        <ele>1147</ele>
        <time>2017-02-09T11:47:48.106Z</time>
      </trkpt>
      <trkpt lat="42.93281" lon="0.29084">
        <ele>1147</ele>
        <time>2017-02-09T11:47:49.106Z</time>
      </trkpt>
      <trkpt lat="42.93282" lon="0.29084">
        <ele>1147</ele>
        <time>2017-02-09T11:47:50.106Z</time>
      </trkpt>
      <trkpt lat="42.93283" lon="0.29084">
        <ele>1147</ele>
        <time>2017-02-09T11:47:51.106Z</time>
      </trkpt>
      <trkpt lat="42.93284" lon="0.29083">
        <ele>1147</ele>
        <time>2017-02-09T11:47:52.106Z</time>
      </trkpt>
      <trkpt lat="42.93285" lon="0.29083">
        <ele>1147</ele>
        <time>2017-02-09T11:47:53.106Z</time>
      </trkpt>
      <trkpt lat="42.93286" lon="0.29083">
        <ele>1147</ele>
        <time>2017-02-09T11:47:54.106Z</time>
      </trkpt>
      <trkpt lat="42.93288" lon="0.29082">
        <ele>1147</ele>
        <time>2017-02-09T11:47:55.106Z</time>
      </trkpt>
      <trkpt lat="42.93289" lon="0.29082">
        <ele>1147</ele>
        <time>2017-02-09T11:47:56.106Z</time>
      </trkpt>
      <trkpt lat="42.9329" lon="0.29082">
        <ele>1147</ele>
        <time>2017-02-09T11:47:57.106Z</time>
      </trkpt>
      <trkpt lat="42.9329" lon="0.29082">
        <ele>1147</ele>
        <time>2017-02-09T11:47:58.106Z</time>
      </trkpt>
      <trkpt lat="42.93291" lon="0.29081">
        <ele>1147</ele>
        <time>2017-02-09T11:47:59.106Z</time>
      </trkpt>
      <trkpt lat="42.93291" lon="0.29082">
        <ele>1148</ele>
        <time>2017-02-09T11:48:00.106Z</time>
      </trkpt>
      <trkpt lat="42.93292" lon="0.29081">
        <ele>1148</ele>
        <time>2017-02-09T11:48:01.106Z</time>
      </trkpt>
      <trkpt lat="42.93292" lon="0.29081">
        <ele>1148</ele>
        <time>2017-02-09T11:48:02.106Z</time>
      </trkpt>
      <trkpt lat="42.93293" lon="0.29081">
        <ele>1147</ele>
        <time>2017-02-09T11:48:03.106Z</time>
      </trkpt>
      <trkpt lat="42.93294" lon="0.29081">
        <ele>1148</ele>
        <time>2017-02-09T11:48:04.106Z</time>
      </trkpt>
      <trkpt lat="42.93295" lon="0.29081">
        <ele>1147</ele>
        <time>2017-02-09T11:48:05.106Z</time>
      </trkpt>
      <trkpt lat="42.93296" lon="0.2908">
        <ele>1147</ele>
        <time>2017-02-09T11:48:06.106Z</time>
      </trkpt>
      <trkpt lat="42.93297" lon="0.2908">
        <ele>1147</ele>
        <time>2017-02-09T11:48:07.106Z</time>
      </trkpt>
      <trkpt lat="42.93298" lon="0.2908">
        <ele>1147</ele>
        <time>2017-02-09T11:48:08.106Z</time>
      </trkpt>
      <trkpt lat="42.93299" lon="0.2908">
        <ele>1147</ele>
        <time>2017-02-09T11:48:09.106Z</time>
      </trkpt>
      <trkpt lat="42.933" lon="0.2908">
        <ele>1147</ele>
        <time>2017-02-09T11:48:10.106Z</time>
      </trkpt>
      <trkpt lat="42.93301" lon="0.2908">
        <ele>1147</ele>
        <time>2017-02-09T11:48:11.106Z</time>
      </trkpt>
      <trkpt lat="42.93302" lon="0.2908">
        <ele>1147</ele>
        <time>2017-02-09T11:48:12.106Z</time>
      </trkpt>
      <trkpt lat="42.93303" lon="0.2908">
        <ele>1147</ele>
        <time>2017-02-09T11:48:13.106Z</time>
      </trkpt>
      <trkpt lat="42.93304" lon="0.2908">
        <ele>1147</ele>
        <time>2017-02-09T11:48:14.106Z</time>
      </trkpt>
      <trkpt lat="42.93305" lon="0.2908">
        <ele>1147</ele>
        <time>2017-02-09T11:48:15.106Z</time>
      </trkpt>
      <trkpt lat="42.93306" lon="0.2908">
        <ele>1147</ele>
        <time>2017-02-09T11:48:16.106Z</time>
      </trkpt>
      <trkpt lat="42.93307" lon="0.2908">
        <ele>1147</ele>
        <time>2017-02-09T11:48:17.106Z</time>
      </trkpt>
      <trkpt lat="42.93308" lon="0.2908">
        <ele>1147</ele>
        <time>2017-02-09T11:48:18.106Z</time>
      </trkpt>
      <trkpt lat="42.93309" lon="0.2908">
        <ele>1147</ele>
        <time>2017-02-09T11:48:19.106Z</time>
      </trkpt>
      <trkpt lat="42.9331" lon="0.2908">
        <ele>1148</ele>
        <time>2017-02-09T11:48:20.106Z</time>
      </trkpt>
      <trkpt lat="42.93311" lon="0.2908">
        <ele>1148</ele>
        <time>2017-02-09T11:48:21.106Z</time>
      </trkpt>
      <trkpt lat="42.93312" lon="0.29081">
        <ele>1148</ele>
        <time>2017-02-09T11:48:22.106Z</time>
      </trkpt>
      <trkpt lat="42.93313" lon="0.29081">
        <ele>1148</ele>
        <time>2017-02-09T11:48:23.106Z</time>
      </trkpt>
      <trkpt lat="42.93314" lon="0.29081">
        <ele>1148</ele>
        <time>2017-02-09T11:48:24.106Z</time>
      </trkpt>
      <trkpt lat="42.93315" lon="0.29082">
        <ele>1148</ele>
        <time>2017-02-09T11:48:25.106Z</time>
      </trkpt>
      <trkpt lat="42.93316" lon="0.29082">
        <ele>1148</ele>
        <time>2017-02-09T11:48:26.106Z</time>
      </trkpt>
      <trkpt lat="42.93317" lon="0.29082">
        <ele>1148</ele>
        <time>2017-02-09T11:48:27.106Z</time>
      </trkpt>
      <trkpt lat="42.93318" lon="0.29082">
        <ele>1148</ele>
        <time>2017-02-09T11:48:28.106Z</time>
      </trkpt>
      <trkpt lat="42.93319" lon="0.29082">
        <ele>1148</ele>
        <time>2017-02-09T11:48:29.106Z</time>
      </trkpt>
      <trkpt lat="42.93319" lon="0.29082">
        <ele>1148</ele>
        <time>2017-02-09T11:48:30.106Z</time>
      </trkpt>
      <trkpt lat="42.9332" lon="0.29082">
        <ele>1148</ele>
        <time>2017-02-09T11:48:31.106Z</time>
      </trkpt>
      <trkpt lat="42.93321" lon="0.29083">
        <ele>1149</ele>
        <time>2017-02-09T11:48:32.106Z</time>
      </trkpt>
      <trkpt lat="42.93322" lon="0.29083">
        <ele>1150</ele>
        <time>2017-02-09T11:48:33.106Z</time>
      </trkpt>
      <trkpt lat="42.93323" lon="0.29083">
        <ele>1150</ele>
        <time>2017-02-09T11:48:34.106Z</time>
      </trkpt>
      <trkpt lat="42.93324" lon="0.29083">
        <ele>1148</ele>
        <time>2017-02-09T11:48:35.106Z</time>
      </trkpt>
      <trkpt lat="42.93325" lon="0.29084">
        <ele>1147</ele>
        <time>2017-02-09T11:48:36.106Z</time>
      </trkpt>
      <trkpt lat="42.93326" lon="0.29084">
        <ele>1147</ele>
        <time>2017-02-09T11:48:37.106Z</time>
      </trkpt>
      <trkpt lat="42.93326" lon="0.29084">
        <ele>1147</ele>
        <time>2017-02-09T11:48:38.106Z</time>
      </trkpt>
      <trkpt lat="42.93327" lon="0.29084">
        <ele>1146</ele>
        <time>2017-02-09T11:48:39.106Z</time>
      </trkpt>
      <trkpt lat="42.93328" lon="0.29084">
        <ele>1148</ele>
        <time>2017-02-09T11:48:40.106Z</time>
      </trkpt>
      <trkpt lat="42.93329" lon="0.29084">
        <ele>1147</ele>
        <time>2017-02-09T11:48:41.106Z</time>
      </trkpt>
      <trkpt lat="42.9333" lon="0.29085">
        <ele>1147</ele>
        <time>2017-02-09T11:48:42.106Z</time>
      </trkpt>
      <trkpt lat="42.93331" lon="0.29085">
        <ele>1146</ele>
        <time>2017-02-09T11:48:43.106Z</time>
      </trkpt>
      <trkpt lat="42.93332" lon="0.29085">
        <ele>1146</ele>
        <time>2017-02-09T11:48:44.106Z</time>
      </trkpt>
      <trkpt lat="42.93333" lon="0.29085">
        <ele>1146</ele>
        <time>2017-02-09T11:48:45.106Z</time>
      </trkpt>
      <trkpt lat="42.93333" lon="0.29085">
        <ele>1145</ele>
        <time>2017-02-09T11:48:46.106Z</time>
      </trkpt>
      <trkpt lat="42.93334" lon="0.29085">
        <ele>1146</ele>
        <time>2017-02-09T11:48:47.106Z</time>
      </trkpt>
      <trkpt lat="42.93334" lon="0.29085">
        <ele>1145</ele>
        <time>2017-02-09T11:48:48.106Z</time>
      </trkpt>
      <trkpt lat="42.93335" lon="0.29085">
        <ele>1145</ele>
        <time>2017-02-09T11:48:49.106Z</time>
      </trkpt>
      <trkpt lat="42.93335" lon="0.29085">
        <ele>1144</ele>
        <time>2017-02-09T11:48:50.106Z</time>
      </trkpt>
      <trkpt lat="42.93336" lon="0.29085">
        <ele>1144</ele>
        <time>2017-02-09T11:48:51.106Z</time>
      </trkpt>
      <trkpt lat="42.93337" lon="0.29085">
        <ele>1146</ele>
        <time>2017-02-09T11:48:52.106Z</time>
      </trkpt>
      <trkpt lat="42.93338" lon="0.29084">
        <ele>1145</ele>
        <time>2017-02-09T11:48:53.106Z</time>
      </trkpt>
      <trkpt lat="42.93339" lon="0.29084">
        <ele>1146</ele>
        <time>2017-02-09T11:48:54.106Z</time>
      </trkpt>
      <trkpt lat="42.9334" lon="0.29084">
        <ele>1147</ele>
        <time>2017-02-09T11:48:55.106Z</time>
      </trkpt>
      <trkpt lat="42.93341" lon="0.29084">
        <ele>1147</ele>
        <time>2017-02-09T11:48:56.106Z</time>
      </trkpt>
      <trkpt lat="42.93341" lon="0.29085">
        <ele>1147</ele>
        <time>2017-02-09T11:48:57.106Z</time>
      </trkpt>
      <trkpt lat="42.93342" lon="0.29085">
        <ele>1147</ele>
        <time>2017-02-09T11:48:58.106Z</time>
      </trkpt>
      <trkpt lat="42.93343" lon="0.29085">
        <ele>1147</ele>
        <time>2017-02-09T11:48:59.106Z</time>
      </trkpt>
      <trkpt lat="42.93344" lon="0.29085">
        <ele>1147</ele>
        <time>2017-02-09T11:49:00.106Z</time>
      </trkpt>
      <trkpt lat="42.93345" lon="0.29086">
        <ele>1147</ele>
        <time>2017-02-09T11:49:01.106Z</time>
      </trkpt>
      <trkpt lat="42.93346" lon="0.29086">
        <ele>1148</ele>
        <time>2017-02-09T11:49:02.106Z</time>
      </trkpt>
      <trkpt lat="42.93347" lon="0.29087">
        <ele>1149</ele>
        <time>2017-02-09T11:49:03.106Z</time>
      </trkpt>
      <trkpt lat="42.93348" lon="0.29087">
        <ele>1148</ele>
        <time>2017-02-09T11:49:04.106Z</time>
      </trkpt>
      <trkpt lat="42.93349" lon="0.29087">
        <ele>1150</ele>
        <time>2017-02-09T11:49:05.106Z</time>
      </trkpt>
      <trkpt lat="42.9335" lon="0.29087">
        <ele>1150</ele>
        <time>2017-02-09T11:49:06.106Z</time>
      </trkpt>
      <trkpt lat="42.93351" lon="0.29087">
        <ele>1151</ele>
        <time>2017-02-09T11:49:07.106Z</time>
      </trkpt>
      <trkpt lat="42.93353" lon="0.29087">
        <ele>1152</ele>
        <time>2017-02-09T11:49:08.106Z</time>
      </trkpt>
      <trkpt lat="42.93354" lon="0.29086">
        <ele>1152</ele>
        <time>2017-02-09T11:49:09.106Z</time>
      </trkpt>
      <trkpt lat="42.93355" lon="0.29086">
        <ele>1153</ele>
        <time>2017-02-09T11:49:10.106Z</time>
      </trkpt>
      <trkpt lat="42.93356" lon="0.29086">
        <ele>1154</ele>
        <time>2017-02-09T11:49:11.106Z</time>
      </trkpt>
      <trkpt lat="42.93357" lon="0.29085">
        <ele>1154</ele>
        <time>2017-02-09T11:49:12.106Z</time>
      </trkpt>
      <trkpt lat="42.93358" lon="0.29085">
        <ele>1153</ele>
        <time>2017-02-09T11:49:13.106Z</time>
      </trkpt>
      <trkpt lat="42.93358" lon="0.29085">
        <ele>1153</ele>
        <time>2017-02-09T11:49:14.106Z</time>
      </trkpt>
      <trkpt lat="42.93359" lon="0.29085">
        <ele>1153</ele>
        <time>2017-02-09T11:49:15.106Z</time>
      </trkpt>
      <trkpt lat="42.9336" lon="0.29085">
        <ele>1153</ele>
        <time>2017-02-09T11:49:16.106Z</time>
      </trkpt>
      <trkpt lat="42.93361" lon="0.29086">
        <ele>1154</ele>
        <time>2017-02-09T11:49:17.106Z</time>
      </trkpt>
      <trkpt lat="42.93362" lon="0.29086">
        <ele>1153</ele>
        <time>2017-02-09T11:49:18.106Z</time>
      </trkpt>
      <trkpt lat="42.93363" lon="0.29086">
        <ele>1153</ele>
        <time>2017-02-09T11:49:19.106Z</time>
      </trkpt>
      <trkpt lat="42.93364" lon="0.29086">
        <ele>1153</ele>
        <time>2017-02-09T11:49:20.106Z</time>
      </trkpt>
      <trkpt lat="42.93365" lon="0.29086">
        <ele>1154</ele>
        <time>2017-02-09T11:49:21.106Z</time>
      </trkpt>
      <trkpt lat="42.93366" lon="0.29087">
        <ele>1154</ele>
        <time>2017-02-09T11:49:22.106Z</time>
      </trkpt>
      <trkpt lat="42.93367" lon="0.29087">
        <ele>1155</ele>
        <time>2017-02-09T11:49:23.106Z</time>
      </trkpt>
      <trkpt lat="42.93368" lon="0.29088">
        <ele>1156</ele>
        <time>2017-02-09T11:49:24.106Z</time>
      </trkpt>
      <trkpt lat="42.93369" lon="0.29088">
        <ele>1156</ele>
        <time>2017-02-09T11:49:25.106Z</time>
      </trkpt>
      <trkpt lat="42.93371" lon="0.29088">
        <ele>1157</ele>
        <time>2017-02-09T11:49:26.106Z</time>
      </trkpt>
      <trkpt lat="42.93372" lon="0.29089">
        <ele>1159</ele>
        <time>2017-02-09T11:49:27.106Z</time>
      </trkpt>
      <trkpt lat="42.93373" lon="0.29088">
        <ele>1159</ele>
        <time>2017-02-09T11:49:28.106Z</time>
      </trkpt>
      <trkpt lat="42.93374" lon="0.29088">
        <ele>1159</ele>
        <time>2017-02-09T11:49:29.106Z</time>
      </trkpt>
      <trkpt lat="42.93375" lon="0.29088">
        <ele>1160</ele>
        <time>2017-02-09T11:49:30.106Z</time>
      </trkpt>
      <trkpt lat="42.93376" lon="0.29088">
        <ele>1160</ele>
        <time>2017-02-09T11:49:31.106Z</time>
      </trkpt>
      <trkpt lat="42.93377" lon="0.29088">
        <ele>1161</ele>
        <time>2017-02-09T11:49:32.106Z</time>
      </trkpt>
      <trkpt lat="42.93378" lon="0.29088">
        <ele>1161</ele>
        <time>2017-02-09T11:49:33.106Z</time>
      </trkpt>
      <trkpt lat="42.93379" lon="0.29087">
        <ele>1160</ele>
        <time>2017-02-09T11:49:34.106Z</time>
      </trkpt>
      <trkpt lat="42.9338" lon="0.29087">
        <ele>1160</ele>
        <time>2017-02-09T11:49:35.106Z</time>
      </trkpt>
      <trkpt lat="42.93381" lon="0.29086">
        <ele>1159</ele>
        <time>2017-02-09T11:49:36.106Z</time>
      </trkpt>
      <trkpt lat="42.93382" lon="0.29086">
        <ele>1160</ele>
        <time>2017-02-09T11:49:37.106Z</time>
      </trkpt>
      <trkpt lat="42.93383" lon="0.29086">
        <ele>1160</ele>
        <time>2017-02-09T11:49:38.106Z</time>
      </trkpt>
      <trkpt lat="42.93384" lon="0.29086">
        <ele>1159</ele>
        <time>2017-02-09T11:49:39.106Z</time>
      </trkpt>
      <trkpt lat="42.93384" lon="0.29085">
        <ele>1155</ele>
        <time>2017-02-09T11:49:40.106Z</time>
      </trkpt>
      <trkpt lat="42.93385" lon="0.29084">
        <ele>1154</ele>
        <time>2017-02-09T11:49:41.106Z</time>
      </trkpt>
      <trkpt lat="42.93386" lon="0.29083">
        <ele>1153</ele>
        <time>2017-02-09T11:49:42.106Z</time>
      </trkpt>
      <trkpt lat="42.93387" lon="0.29082">
        <ele>1153</ele>
        <time>2017-02-09T11:49:43.106Z</time>
      </trkpt>
      <trkpt lat="42.93388" lon="0.29082">
        <ele>1151</ele>
        <time>2017-02-09T11:49:44.106Z</time>
      </trkpt>
      <trkpt lat="42.93389" lon="0.29081">
        <ele>1150</ele>
        <time>2017-02-09T11:49:45.106Z</time>
      </trkpt>
      <trkpt lat="42.9339" lon="0.2908">
        <ele>1149</ele>
        <time>2017-02-09T11:49:46.106Z</time>
      </trkpt>
      <trkpt lat="42.93391" lon="0.2908">
        <ele>1148</ele>
        <time>2017-02-09T11:49:47.106Z</time>
      </trkpt>
      <trkpt lat="42.93392" lon="0.29079">
        <ele>1148</ele>
        <time>2017-02-09T11:49:48.106Z</time>
      </trkpt>
      <trkpt lat="42.93392" lon="0.29079">
        <ele>1147</ele>
        <time>2017-02-09T11:49:49.106Z</time>
      </trkpt>
      <trkpt lat="42.93393" lon="0.29078">
        <ele>1148</ele>
        <time>2017-02-09T11:49:50.106Z</time>
      </trkpt>
      <trkpt lat="42.93394" lon="0.29078">
        <ele>1147</ele>
        <time>2017-02-09T11:49:51.106Z</time>
      </trkpt>
      <trkpt lat="42.93395" lon="0.29077">
        <ele>1147</ele>
        <time>2017-02-09T11:49:52.106Z</time>
      </trkpt>
      <trkpt lat="42.93396" lon="0.29076">
        <ele>1147</ele>
        <time>2017-02-09T11:49:53.106Z</time>
      </trkpt>
      <trkpt lat="42.93397" lon="0.29076">
        <ele>1147</ele>
        <time>2017-02-09T11:49:54.106Z</time>
      </trkpt>
      <trkpt lat="42.93398" lon="0.29075">
        <ele>1147</ele>
        <time>2017-02-09T11:49:55.106Z</time>
      </trkpt>
      <trkpt lat="42.93399" lon="0.29075">
        <ele>1147</ele>
        <time>2017-02-09T11:49:56.106Z</time>
      </trkpt>
      <trkpt lat="42.934" lon="0.29074">
        <ele>1147</ele>
        <time>2017-02-09T11:49:57.106Z</time>
      </trkpt>
      <trkpt lat="42.93401" lon="0.29074">
        <ele>1147</ele>
        <time>2017-02-09T11:49:58.106Z</time>
      </trkpt>
      <trkpt lat="42.93401" lon="0.29073">
        <ele>1146</ele>
        <time>2017-02-09T11:49:59.106Z</time>
      </trkpt>
      <trkpt lat="42.93402" lon="0.29072">
        <ele>1144</ele>
        <time>2017-02-09T11:50:00.106Z</time>
      </trkpt>
      <trkpt lat="42.93403" lon="0.29071">
        <ele>1144</ele>
        <time>2017-02-09T11:50:01.106Z</time>
      </trkpt>
      <trkpt lat="42.93404" lon="0.29071">
        <ele>1144</ele>
        <time>2017-02-09T11:50:02.106Z</time>
      </trkpt>
      <trkpt lat="42.93405" lon="0.2907">
        <ele>1143</ele>
        <time>2017-02-09T11:50:03.106Z</time>
      </trkpt>
      <trkpt lat="42.93406" lon="0.2907">
        <ele>1143</ele>
        <time>2017-02-09T11:50:04.106Z</time>
      </trkpt>
      <trkpt lat="42.93407" lon="0.29069">
        <ele>1142</ele>
        <time>2017-02-09T11:50:05.106Z</time>
      </trkpt>
      <trkpt lat="42.93408" lon="0.29069">
        <ele>1142</ele>
        <time>2017-02-09T11:50:06.106Z</time>
      </trkpt>
      <trkpt lat="42.93409" lon="0.29068">
        <ele>1142</ele>
        <time>2017-02-09T11:50:07.106Z</time>
      </trkpt>
      <trkpt lat="42.9341" lon="0.29068">
        <ele>1142</ele>
        <time>2017-02-09T11:50:08.106Z</time>
      </trkpt>
      <trkpt lat="42.9341" lon="0.29067">
        <ele>1142</ele>
        <time>2017-02-09T11:50:09.106Z</time>
      </trkpt>
      <trkpt lat="42.93411" lon="0.29067">
        <ele>1142</ele>
        <time>2017-02-09T11:50:10.106Z</time>
      </trkpt>
      <trkpt lat="42.93412" lon="0.29066">
        <ele>1141</ele>
        <time>2017-02-09T11:50:11.106Z</time>
      </trkpt>
      <trkpt lat="42.93413" lon="0.29066">
        <ele>1142</ele>
        <time>2017-02-09T11:50:12.106Z</time>
      </trkpt>
      <trkpt lat="42.93414" lon="0.29065">
        <ele>1141</ele>
        <time>2017-02-09T11:50:13.106Z</time>
      </trkpt>
      <trkpt lat="42.93415" lon="0.29064">
        <ele>1141</ele>
        <time>2017-02-09T11:50:14.106Z</time>
      </trkpt>
      <trkpt lat="42.93416" lon="0.29064">
        <ele>1141</ele>
        <time>2017-02-09T11:50:15.106Z</time>
      </trkpt>
      <trkpt lat="42.93417" lon="0.29063">
        <ele>1140</ele>
        <time>2017-02-09T11:50:16.106Z</time>
      </trkpt>
      <trkpt lat="42.93417" lon="0.29063">
        <ele>1140</ele>
        <time>2017-02-09T11:50:17.106Z</time>
      </trkpt>
      <trkpt lat="42.93418" lon="0.29062">
        <ele>1140</ele>
        <time>2017-02-09T11:50:18.106Z</time>
      </trkpt>
      <trkpt lat="42.93419" lon="0.29062">
        <ele>1139</ele>
        <time>2017-02-09T11:50:19.106Z</time>
      </trkpt>
      <trkpt lat="42.9342" lon="0.29061">
        <ele>1139</ele>
        <time>2017-02-09T11:50:20.106Z</time>
      </trkpt>
      <trkpt lat="42.93421" lon="0.29061">
        <ele>1139</ele>
        <time>2017-02-09T11:50:21.106Z</time>
      </trkpt>
      <trkpt lat="42.93421" lon="0.2906">
        <ele>1139</ele>
        <time>2017-02-09T11:50:22.106Z</time>
      </trkpt>
      <trkpt lat="42.93422" lon="0.29059">
        <ele>1139</ele>
        <time>2017-02-09T11:50:23.106Z</time>
      </trkpt>
      <trkpt lat="42.93423" lon="0.29058">
        <ele>1139</ele>
        <time>2017-02-09T11:50:24.106Z</time>
      </trkpt>
      <trkpt lat="42.93423" lon="0.29057">
        <ele>1139</ele>
        <time>2017-02-09T11:50:25.106Z</time>
      </trkpt>
      <trkpt lat="42.93424" lon="0.29056">
        <ele>1139</ele>
        <time>2017-02-09T11:50:26.106Z</time>
      </trkpt>
      <trkpt lat="42.93425" lon="0.29056">
        <ele>1139</ele>
        <time>2017-02-09T11:50:27.106Z</time>
      </trkpt>
      <trkpt lat="42.93426" lon="0.29055">
        <ele>1139</ele>
        <time>2017-02-09T11:50:28.106Z</time>
      </trkpt>
      <trkpt lat="42.93427" lon="0.29054">
        <ele>1139</ele>
        <time>2017-02-09T11:50:29.106Z</time>
      </trkpt>
      <trkpt lat="42.93427" lon="0.29053">
        <ele>1139</ele>
        <time>2017-02-09T11:50:30.106Z</time>
      </trkpt>
      <trkpt lat="42.93428" lon="0.29052">
        <ele>1139</ele>
        <time>2017-02-09T11:50:31.106Z</time>
      </trkpt>
      <trkpt lat="42.93429" lon="0.29051">
        <ele>1139</ele>
        <time>2017-02-09T11:50:32.106Z</time>
      </trkpt>
      <trkpt lat="42.9343" lon="0.2905">
        <ele>1139</ele>
        <time>2017-02-09T11:50:33.106Z</time>
      </trkpt>
      <trkpt lat="42.93431" lon="0.29049">
        <ele>1140</ele>
        <time>2017-02-09T11:50:34.106Z</time>
      </trkpt>
      <trkpt lat="42.93432" lon="0.29048">
        <ele>1140</ele>
        <time>2017-02-09T11:50:35.106Z</time>
      </trkpt>
      <trkpt lat="42.93432" lon="0.29048">
        <ele>1140</ele>
        <time>2017-02-09T11:50:36.106Z</time>
      </trkpt>
      <trkpt lat="42.93433" lon="0.29047">
        <ele>1141</ele>
        <time>2017-02-09T11:50:37.106Z</time>
      </trkpt>
      <trkpt lat="42.93434" lon="0.29046">
        <ele>1141</ele>
        <time>2017-02-09T11:50:38.106Z</time>
      </trkpt>
      <trkpt lat="42.93435" lon="0.29045">
        <ele>1141</ele>
        <time>2017-02-09T11:50:39.106Z</time>
      </trkpt>
      <trkpt lat="42.93436" lon="0.29044">
        <ele>1142</ele>
        <time>2017-02-09T11:50:40.106Z</time>
      </trkpt>
      <trkpt lat="42.93436" lon="0.29042">
        <ele>1143</ele>
        <time>2017-02-09T11:50:41.106Z</time>
      </trkpt>
      <trkpt lat="42.93437" lon="0.29041">
        <ele>1143</ele>
        <time>2017-02-09T11:50:42.106Z</time>
      </trkpt>
      <trkpt lat="42.93438" lon="0.2904">
        <ele>1143</ele>
        <time>2017-02-09T11:50:43.106Z</time>
      </trkpt>
      <trkpt lat="42.93439" lon="0.2904">
        <ele>1144</ele>
        <time>2017-02-09T11:50:44.106Z</time>
      </trkpt>
      <trkpt lat="42.9344" lon="0.29039">
        <ele>1144</ele>
        <time>2017-02-09T11:50:45.106Z</time>
      </trkpt>
      <trkpt lat="42.93441" lon="0.29038">
        <ele>1145</ele>
        <time>2017-02-09T11:50:46.106Z</time>
      </trkpt>
      <trkpt lat="42.93442" lon="0.29037">
        <ele>1146</ele>
        <time>2017-02-09T11:50:47.106Z</time>
      </trkpt>
      <trkpt lat="42.93442" lon="0.29036">
        <ele>1147</ele>
        <time>2017-02-09T11:50:48.106Z</time>
      </trkpt>
      <trkpt lat="42.93443" lon="0.29035">
        <ele>1148</ele>
        <time>2017-02-09T11:50:49.106Z</time>
      </trkpt>
      <trkpt lat="42.93444" lon="0.29034">
        <ele>1149</ele>
        <time>2017-02-09T11:50:50.106Z</time>
      </trkpt>
      <trkpt lat="42.93445" lon="0.29033">
        <ele>1150</ele>
        <time>2017-02-09T11:50:51.106Z</time>
      </trkpt>
      <trkpt lat="42.93446" lon="0.29033">
        <ele>1149</ele>
        <time>2017-02-09T11:50:52.106Z</time>
      </trkpt>
      <trkpt lat="42.93447" lon="0.29032">
        <ele>1149</ele>
        <time>2017-02-09T11:50:53.106Z</time>
      </trkpt>
      <trkpt lat="42.93448" lon="0.29032">
        <ele>1149</ele>
        <time>2017-02-09T11:50:54.106Z</time>
      </trkpt>
      <trkpt lat="42.93449" lon="0.29032">
        <ele>1148</ele>
        <time>2017-02-09T11:50:55.106Z</time>
      </trkpt>
      <trkpt lat="42.9345" lon="0.29032">
        <ele>1149</ele>
        <time>2017-02-09T11:50:56.106Z</time>
      </trkpt>
      <trkpt lat="42.93451" lon="0.29031">
        <ele>1148</ele>
        <time>2017-02-09T11:50:57.106Z</time>
      </trkpt>
      <trkpt lat="42.93452" lon="0.29031">
        <ele>1148</ele>
        <time>2017-02-09T11:50:58.106Z</time>
      </trkpt>
      <trkpt lat="42.93453" lon="0.29031">
        <ele>1148</ele>
        <time>2017-02-09T11:50:59.106Z</time>
      </trkpt>
      <trkpt lat="42.93454" lon="0.29031">
        <ele>1148</ele>
        <time>2017-02-09T11:51:00.106Z</time>
      </trkpt>
      <trkpt lat="42.93455" lon="0.29031">
        <ele>1147</ele>
        <time>2017-02-09T11:51:01.106Z</time>
      </trkpt>
      <trkpt lat="42.93456" lon="0.29031">
        <ele>1147</ele>
        <time>2017-02-09T11:51:02.106Z</time>
      </trkpt>
      <trkpt lat="42.93457" lon="0.29032">
        <ele>1147</ele>
        <time>2017-02-09T11:51:03.106Z</time>
      </trkpt>
      <trkpt lat="42.93458" lon="0.29032">
        <ele>1147</ele>
        <time>2017-02-09T11:51:04.106Z</time>
      </trkpt>
      <trkpt lat="42.93459" lon="0.29032">
        <ele>1147</ele>
        <time>2017-02-09T11:51:05.106Z</time>
      </trkpt>
      <trkpt lat="42.9346" lon="0.29032">
        <ele>1147</ele>
        <time>2017-02-09T11:51:06.106Z</time>
      </trkpt>
      <trkpt lat="42.93461" lon="0.29032">
        <ele>1147</ele>
        <time>2017-02-09T11:51:07.106Z</time>
      </trkpt>
      <trkpt lat="42.93462" lon="0.29032">
        <ele>1147</ele>
        <time>2017-02-09T11:51:08.106Z</time>
      </trkpt>
      <trkpt lat="42.93463" lon="0.29032">
        <ele>1146</ele>
        <time>2017-02-09T11:51:09.106Z</time>
      </trkpt>
      <trkpt lat="42.93464" lon="0.29032">
        <ele>1145</ele>
        <time>2017-02-09T11:51:10.106Z</time>
      </trkpt>
      <trkpt lat="42.93465" lon="0.29033">
        <ele>1145</ele>
        <time>2017-02-09T11:51:11.106Z</time>
      </trkpt>
      <trkpt lat="42.93466" lon="0.29034">
        <ele>1144</ele>
        <time>2017-02-09T11:51:12.106Z</time>
      </trkpt>
      <trkpt lat="42.93467" lon="0.29034">
        <ele>1143</ele>
        <time>2017-02-09T11:51:13.106Z</time>
      </trkpt>
      <trkpt lat="42.93467" lon="0.29035">
        <ele>1142</ele>
        <time>2017-02-09T11:51:14.106Z</time>
      </trkpt>
      <trkpt lat="42.93468" lon="0.29035">
        <ele>1142</ele>
        <time>2017-02-09T11:51:15.106Z</time>
      </trkpt>
      <trkpt lat="42.93468" lon="0.29036">
        <ele>1142</ele>
        <time>2017-02-09T11:51:16.106Z</time>
      </trkpt>
      <trkpt lat="42.93468" lon="0.29036">
        <ele>1142</ele>
        <time>2017-02-09T11:51:17.106Z</time>
      </trkpt>
      <trkpt lat="42.93468" lon="0.29036">
        <ele>1142</ele>
        <time>2017-02-09T11:51:18.106Z</time>
      </trkpt>
      <trkpt lat="42.93468" lon="0.29037">
        <ele>1141</ele>
        <time>2017-02-09T11:51:19.106Z</time>
      </trkpt>
      <trkpt lat="42.93468" lon="0.29037">
        <ele>1141</ele>
        <time>2017-02-09T11:51:20.106Z</time>
      </trkpt>
      <trkpt lat="42.93473" lon="0.29038">
        <ele>1137</ele>
        <time>2017-02-09T11:51:21.099Z</time>
      </trkpt>
      <trkpt lat="42.93474" lon="0.29038">
        <ele>1134</ele>
        <time>2017-02-09T11:51:22.099Z</time>
      </trkpt>
      <trkpt lat="42.93475" lon="0.29037">
        <ele>1132</ele>
        <time>2017-02-09T11:51:23.099Z</time>
      </trkpt>
      <trkpt lat="42.93476" lon="0.29037">
        <ele>1130</ele>
        <time>2017-02-09T11:51:24.099Z</time>
      </trkpt>
      <trkpt lat="42.93477" lon="0.29036">
        <ele>1129</ele>
        <time>2017-02-09T11:51:25.099Z</time>
      </trkpt>
      <trkpt lat="42.93477" lon="0.29036">
        <ele>1128</ele>
        <time>2017-02-09T11:51:26.099Z</time>
      </trkpt>
      <trkpt lat="42.93478" lon="0.29036">
        <ele>1127</ele>
        <time>2017-02-09T11:51:27.099Z</time>
      </trkpt>
      <trkpt lat="42.93479" lon="0.29035">
        <ele>1126</ele>
        <time>2017-02-09T11:51:28.099Z</time>
      </trkpt>
      <trkpt lat="42.9348" lon="0.29035">
        <ele>1126</ele>
        <time>2017-02-09T11:51:29.099Z</time>
      </trkpt>
      <trkpt lat="42.93481" lon="0.29035">
        <ele>1126</ele>
        <time>2017-02-09T11:51:30.099Z</time>
      </trkpt>
      <trkpt lat="42.93482" lon="0.29035">
        <ele>1126</ele>
        <time>2017-02-09T11:51:31.099Z</time>
      </trkpt>
      <trkpt lat="42.93483" lon="0.29035">
        <ele>1126</ele>
        <time>2017-02-09T11:51:32.099Z</time>
      </trkpt>
      <trkpt lat="42.93484" lon="0.29035">
        <ele>1126</ele>
        <time>2017-02-09T11:51:33.099Z</time>
      </trkpt>
      <trkpt lat="42.93485" lon="0.29035">
        <ele>1126</ele>
        <time>2017-02-09T11:51:34.099Z</time>
      </trkpt>
      <trkpt lat="42.93486" lon="0.29034">
        <ele>1126</ele>
        <time>2017-02-09T11:51:35.099Z</time>
      </trkpt>
      <trkpt lat="42.93487" lon="0.29034">
        <ele>1126</ele>
        <time>2017-02-09T11:51:36.099Z</time>
      </trkpt>
      <trkpt lat="42.93487" lon="0.29033">
        <ele>1126</ele>
        <time>2017-02-09T11:51:37.099Z</time>
      </trkpt>
      <trkpt lat="42.93488" lon="0.29033">
        <ele>1126</ele>
        <time>2017-02-09T11:51:38.099Z</time>
      </trkpt>
      <trkpt lat="42.93489" lon="0.29032">
        <ele>1126</ele>
        <time>2017-02-09T11:51:39.099Z</time>
      </trkpt>
      <trkpt lat="42.9349" lon="0.29032">
        <ele>1126</ele>
        <time>2017-02-09T11:51:40.099Z</time>
      </trkpt>
      <trkpt lat="42.9349" lon="0.29031">
        <ele>1126</ele>
        <time>2017-02-09T11:51:41.099Z</time>
      </trkpt>
      <trkpt lat="42.93491" lon="0.29031">
        <ele>1126</ele>
        <time>2017-02-09T11:51:42.099Z</time>
      </trkpt>
      <trkpt lat="42.93492" lon="0.2903">
        <ele>1126</ele>
        <time>2017-02-09T11:51:43.099Z</time>
      </trkpt>
      <trkpt lat="42.93493" lon="0.2903">
        <ele>1127</ele>
        <time>2017-02-09T11:51:44.099Z</time>
      </trkpt>
      <trkpt lat="42.93494" lon="0.29029">
        <ele>1126</ele>
        <time>2017-02-09T11:51:45.099Z</time>
      </trkpt>
      <trkpt lat="42.93495" lon="0.29028">
        <ele>1127</ele>
        <time>2017-02-09T11:51:46.099Z</time>
      </trkpt>
      <trkpt lat="42.93496" lon="0.29028">
        <ele>1127</ele>
        <time>2017-02-09T11:51:47.099Z</time>
      </trkpt>
      <trkpt lat="42.93496" lon="0.29027">
        <ele>1127</ele>
        <time>2017-02-09T11:51:48.099Z</time>
      </trkpt>
      <trkpt lat="42.93497" lon="0.29026">
        <ele>1127</ele>
        <time>2017-02-09T11:51:49.099Z</time>
      </trkpt>
      <trkpt lat="42.93498" lon="0.29026">
        <ele>1127</ele>
        <time>2017-02-09T11:51:50.099Z</time>
      </trkpt>
      <trkpt lat="42.93498" lon="0.29025">
        <ele>1127</ele>
        <time>2017-02-09T11:51:51.099Z</time>
      </trkpt>
      <trkpt lat="42.93499" lon="0.29024">
        <ele>1127</ele>
        <time>2017-02-09T11:51:52.099Z</time>
      </trkpt>
      <trkpt lat="42.935" lon="0.29023">
        <ele>1127</ele>
        <time>2017-02-09T11:51:53.099Z</time>
      </trkpt>
      <trkpt lat="42.93501" lon="0.29022">
        <ele>1127</ele>
        <time>2017-02-09T11:51:54.099Z</time>
      </trkpt>
      <trkpt lat="42.93501" lon="0.29021">
        <ele>1126</ele>
        <time>2017-02-09T11:51:55.099Z</time>
      </trkpt>
      <trkpt lat="42.93502" lon="0.2902">
        <ele>1127</ele>
        <time>2017-02-09T11:51:56.099Z</time>
      </trkpt>
      <trkpt lat="42.93503" lon="0.2902">
        <ele>1126</ele>
        <time>2017-02-09T11:51:57.099Z</time>
      </trkpt>
      <trkpt lat="42.93503" lon="0.29019">
        <ele>1126</ele>
        <time>2017-02-09T11:51:58.099Z</time>
      </trkpt>
      <trkpt lat="42.93504" lon="0.29018">
        <ele>1127</ele>
        <time>2017-02-09T11:51:59.099Z</time>
      </trkpt>
      <trkpt lat="42.93505" lon="0.29017">
        <ele>1127</ele>
        <time>2017-02-09T11:52:00.099Z</time>
      </trkpt>
      <trkpt lat="42.93506" lon="0.29017">
        <ele>1127</ele>
        <time>2017-02-09T11:52:01.099Z</time>
      </trkpt>
      <trkpt lat="42.93506" lon="0.29016">
        <ele>1127</ele>
        <time>2017-02-09T11:52:02.099Z</time>
      </trkpt>
      <trkpt lat="42.93507" lon="0.29015">
        <ele>1127</ele>
        <time>2017-02-09T11:52:03.099Z</time>
      </trkpt>
      <trkpt lat="42.93508" lon="0.29014">
        <ele>1127</ele>
        <time>2017-02-09T11:52:04.099Z</time>
      </trkpt>
      <trkpt lat="42.93508" lon="0.29014">
        <ele>1127</ele>
        <time>2017-02-09T11:52:05.099Z</time>
      </trkpt>
      <trkpt lat="42.93509" lon="0.29013">
        <ele>1127</ele>
        <time>2017-02-09T11:52:06.099Z</time>
      </trkpt>
      <trkpt lat="42.93509" lon="0.29012">
        <ele>1126</ele>
        <time>2017-02-09T11:52:07.099Z</time>
      </trkpt>
      <trkpt lat="42.9351" lon="0.29012">
        <ele>1127</ele>
        <time>2017-02-09T11:52:08.099Z</time>
      </trkpt>
      <trkpt lat="42.93511" lon="0.29012">
        <ele>1127</ele>
        <time>2017-02-09T11:52:09.099Z</time>
      </trkpt>
      <trkpt lat="42.93511" lon="0.29011">
        <ele>1127</ele>
        <time>2017-02-09T11:52:10.099Z</time>
      </trkpt>
      <trkpt lat="42.93512" lon="0.29011">
        <ele>1126</ele>
        <time>2017-02-09T11:52:11.099Z</time>
      </trkpt>
      <trkpt lat="42.93513" lon="0.29011">
        <ele>1125</ele>
        <time>2017-02-09T11:52:12.099Z</time>
      </trkpt>
      <trkpt lat="42.93514" lon="0.2901">
        <ele>1125</ele>
        <time>2017-02-09T11:52:13.099Z</time>
      </trkpt>
      <trkpt lat="42.93514" lon="0.2901">
        <ele>1124</ele>
        <time>2017-02-09T11:52:14.099Z</time>
      </trkpt>
      <trkpt lat="42.93515" lon="0.2901">
        <ele>1123</ele>
        <time>2017-02-09T11:52:15.099Z</time>
      </trkpt>
      <trkpt lat="42.93516" lon="0.29009">
        <ele>1123</ele>
        <time>2017-02-09T11:52:16.099Z</time>
      </trkpt>
      <trkpt lat="42.93516" lon="0.29009">
        <ele>1123</ele>
        <time>2017-02-09T11:52:17.099Z</time>
      </trkpt>
      <trkpt lat="42.93517" lon="0.29008">
        <ele>1122</ele>
        <time>2017-02-09T11:52:18.099Z</time>
      </trkpt>
      <trkpt lat="42.93517" lon="0.29007">
        <ele>1122</ele>
        <time>2017-02-09T11:52:19.099Z</time>
      </trkpt>
      <trkpt lat="42.93518" lon="0.29006">
        <ele>1122</ele>
        <time>2017-02-09T11:52:20.099Z</time>
      </trkpt>
      <trkpt lat="42.93518" lon="0.29005">
        <ele>1122</ele>
        <time>2017-02-09T11:52:21.099Z</time>
      </trkpt>
      <trkpt lat="42.93519" lon="0.29005">
        <ele>1122</ele>
        <time>2017-02-09T11:52:22.099Z</time>
      </trkpt>
      <trkpt lat="42.9352" lon="0.29004">
        <ele>1121</ele>
        <time>2017-02-09T11:52:23.099Z</time>
      </trkpt>
      <trkpt lat="42.93521" lon="0.29004">
        <ele>1121</ele>
        <time>2017-02-09T11:52:24.099Z</time>
      </trkpt>
      <trkpt lat="42.93522" lon="0.29003">
        <ele>1121</ele>
        <time>2017-02-09T11:52:25.099Z</time>
      </trkpt>
      <trkpt lat="42.93523" lon="0.29003">
        <ele>1121</ele>
        <time>2017-02-09T11:52:26.099Z</time>
      </trkpt>
      <trkpt lat="42.93523" lon="0.29003">
        <ele>1121</ele>
        <time>2017-02-09T11:52:27.099Z</time>
      </trkpt>
      <trkpt lat="42.93524" lon="0.29003">
        <ele>1121</ele>
        <time>2017-02-09T11:52:28.099Z</time>
      </trkpt>
      <trkpt lat="42.93525" lon="0.29003">
        <ele>1121</ele>
        <time>2017-02-09T11:52:29.099Z</time>
      </trkpt>
      <trkpt lat="42.93526" lon="0.29003">
        <ele>1121</ele>
        <time>2017-02-09T11:52:30.099Z</time>
      </trkpt>
      <trkpt lat="42.93527" lon="0.29003">
        <ele>1121</ele>
        <time>2017-02-09T11:52:31.099Z</time>
      </trkpt>
      <trkpt lat="42.93527" lon="0.29003">
        <ele>1121</ele>
        <time>2017-02-09T11:52:32.099Z</time>
      </trkpt>
      <trkpt lat="42.93528" lon="0.29003">
        <ele>1121</ele>
        <time>2017-02-09T11:52:33.099Z</time>
      </trkpt>
      <trkpt lat="42.93529" lon="0.29002">
        <ele>1121</ele>
        <time>2017-02-09T11:52:34.099Z</time>
      </trkpt>
      <trkpt lat="42.9353" lon="0.29002">
        <ele>1121</ele>
        <time>2017-02-09T11:52:35.099Z</time>
      </trkpt>
      <trkpt lat="42.9353" lon="0.29002">
        <ele>1121</ele>
        <time>2017-02-09T11:52:36.099Z</time>
      </trkpt>
      <trkpt lat="42.93531" lon="0.29002">
        <ele>1121</ele>
        <time>2017-02-09T11:52:37.099Z</time>
      </trkpt>
      <trkpt lat="42.93531" lon="0.29002">
        <ele>1121</ele>
        <time>2017-02-09T11:52:38.099Z</time>
      </trkpt>
      <trkpt lat="42.93532" lon="0.29002">
        <ele>1121</ele>
        <time>2017-02-09T11:52:39.099Z</time>
      </trkpt>
      <trkpt lat="42.93532" lon="0.29001">
        <ele>1121</ele>
        <time>2017-02-09T11:52:40.099Z</time>
      </trkpt>
      <trkpt lat="42.93533" lon="0.29">
        <ele>1121</ele>
        <time>2017-02-09T11:52:41.099Z</time>
      </trkpt>
      <trkpt lat="42.93533" lon="0.29">
        <ele>1121</ele>
        <time>2017-02-09T11:52:42.099Z</time>
      </trkpt>
      <trkpt lat="42.93533" lon="0.28999">
        <ele>1122</ele>
        <time>2017-02-09T11:52:43.099Z</time>
      </trkpt>
      <trkpt lat="42.93534" lon="0.28998">
        <ele>1122</ele>
        <time>2017-02-09T11:52:44.099Z</time>
      </trkpt>
      <trkpt lat="42.93534" lon="0.28997">
        <ele>1122</ele>
        <time>2017-02-09T11:52:45.099Z</time>
      </trkpt>
      <trkpt lat="42.93535" lon="0.28997">
        <ele>1122</ele>
        <time>2017-02-09T11:52:46.099Z</time>
      </trkpt>
      <trkpt lat="42.93536" lon="0.28996">
        <ele>1122</ele>
        <time>2017-02-09T11:52:47.099Z</time>
      </trkpt>
      <trkpt lat="42.93537" lon="0.28996">
        <ele>1122</ele>
        <time>2017-02-09T11:52:48.099Z</time>
      </trkpt>
      <trkpt lat="42.93537" lon="0.28996">
        <ele>1122</ele>
        <time>2017-02-09T11:52:49.099Z</time>
      </trkpt>
      <trkpt lat="42.93538" lon="0.28995">
        <ele>1122</ele>
        <time>2017-02-09T11:52:50.099Z</time>
      </trkpt>
      <trkpt lat="42.93538" lon="0.28995">
        <ele>1122</ele>
        <time>2017-02-09T11:52:51.099Z</time>
      </trkpt>
      <trkpt lat="42.93539" lon="0.28994">
        <ele>1122</ele>
        <time>2017-02-09T11:52:52.099Z</time>
      </trkpt>
      <trkpt lat="42.93539" lon="0.28994">
        <ele>1122</ele>
        <time>2017-02-09T11:52:53.099Z</time>
      </trkpt>
      <trkpt lat="42.9354" lon="0.28994">
        <ele>1122</ele>
        <time>2017-02-09T11:52:54.099Z</time>
      </trkpt>
      <trkpt lat="42.9354" lon="0.28993">
        <ele>1122</ele>
        <time>2017-02-09T11:52:55.099Z</time>
      </trkpt>
      <trkpt lat="42.93541" lon="0.28993">
        <ele>1122</ele>
        <time>2017-02-09T11:52:56.099Z</time>
      </trkpt>
      <trkpt lat="42.93542" lon="0.28993">
        <ele>1122</ele>
        <time>2017-02-09T11:52:57.099Z</time>
      </trkpt>
      <trkpt lat="42.93542" lon="0.28992">
        <ele>1122</ele>
        <time>2017-02-09T11:52:58.099Z</time>
      </trkpt>
      <trkpt lat="42.93543" lon="0.28992">
        <ele>1122</ele>
        <time>2017-02-09T11:52:59.099Z</time>
      </trkpt>
      <trkpt lat="42.93544" lon="0.28992">
        <ele>1121</ele>
        <time>2017-02-09T11:53:00.099Z</time>
      </trkpt>
      <trkpt lat="42.93544" lon="0.28992">
        <ele>1121</ele>
        <time>2017-02-09T11:53:01.099Z</time>
      </trkpt>
      <trkpt lat="42.93545" lon="0.28991">
        <ele>1121</ele>
        <time>2017-02-09T11:53:02.099Z</time>
      </trkpt>
      <trkpt lat="42.93546" lon="0.28991">
        <ele>1121</ele>
        <time>2017-02-09T11:53:03.099Z</time>
      </trkpt>
      <trkpt lat="42.93546" lon="0.2899">
        <ele>1121</ele>
        <time>2017-02-09T11:53:04.099Z</time>
      </trkpt>
      <trkpt lat="42.93547" lon="0.2899">
        <ele>1121</ele>
        <time>2017-02-09T11:53:05.099Z</time>
      </trkpt>
      <trkpt lat="42.93547" lon="0.28989">
        <ele>1121</ele>
        <time>2017-02-09T11:53:06.099Z</time>
      </trkpt>
      <trkpt lat="42.93548" lon="0.28989">
        <ele>1121</ele>
        <time>2017-02-09T11:53:07.099Z</time>
      </trkpt>
      <trkpt lat="42.93549" lon="0.28988">
        <ele>1121</ele>
        <time>2017-02-09T11:53:08.099Z</time>
      </trkpt>
      <trkpt lat="42.93549" lon="0.28988">
        <ele>1121</ele>
        <time>2017-02-09T11:53:09.099Z</time>
      </trkpt>
      <trkpt lat="42.9355" lon="0.28988">
        <ele>1121</ele>
        <time>2017-02-09T11:53:10.099Z</time>
      </trkpt>
      <trkpt lat="42.93551" lon="0.28988">
        <ele>1121</ele>
        <time>2017-02-09T11:53:11.099Z</time>
      </trkpt>
      <trkpt lat="42.93551" lon="0.28988">
        <ele>1121</ele>
        <time>2017-02-09T11:53:12.099Z</time>
      </trkpt>
      <trkpt lat="42.93552" lon="0.28988">
        <ele>1121</ele>
        <time>2017-02-09T11:53:13.099Z</time>
      </trkpt>
      <trkpt lat="42.93553" lon="0.28988">
        <ele>1122</ele>
        <time>2017-02-09T11:53:14.099Z</time>
      </trkpt>
      <trkpt lat="42.93554" lon="0.28988">
        <ele>1122</ele>
        <time>2017-02-09T11:53:15.099Z</time>
      </trkpt>
      <trkpt lat="42.93554" lon="0.28988">
        <ele>1123</ele>
        <time>2017-02-09T11:53:16.099Z</time>
      </trkpt>
      <trkpt lat="42.93555" lon="0.28988">
        <ele>1123</ele>
        <time>2017-02-09T11:53:17.099Z</time>
      </trkpt>
      <trkpt lat="42.93556" lon="0.28988">
        <ele>1124</ele>
        <time>2017-02-09T11:53:18.099Z</time>
      </trkpt>
      <trkpt lat="42.93556" lon="0.28988">
        <ele>1124</ele>
        <time>2017-02-09T11:53:19.099Z</time>
      </trkpt>
      <trkpt lat="42.93557" lon="0.28988">
        <ele>1124</ele>
        <time>2017-02-09T11:53:20.099Z</time>
      </trkpt>
      <trkpt lat="42.93558" lon="0.28988">
        <ele>1125</ele>
        <time>2017-02-09T11:53:21.099Z</time>
      </trkpt>
      <trkpt lat="42.93559" lon="0.28989">
        <ele>1125</ele>
        <time>2017-02-09T11:53:22.099Z</time>
      </trkpt>
      <trkpt lat="42.9356" lon="0.28989">
        <ele>1125</ele>
        <time>2017-02-09T11:53:23.099Z</time>
      </trkpt>
      <trkpt lat="42.9356" lon="0.28989">
        <ele>1126</ele>
        <time>2017-02-09T11:53:24.099Z</time>
      </trkpt>
      <trkpt lat="42.93561" lon="0.28989">
        <ele>1126</ele>
        <time>2017-02-09T11:53:25.099Z</time>
      </trkpt>
      <trkpt lat="42.93562" lon="0.28989">
        <ele>1127</ele>
        <time>2017-02-09T11:53:26.099Z</time>
      </trkpt>
      <trkpt lat="42.93563" lon="0.28989">
        <ele>1127</ele>
        <time>2017-02-09T11:53:27.099Z</time>
      </trkpt>
      <trkpt lat="42.93564" lon="0.28989">
        <ele>1127</ele>
        <time>2017-02-09T11:53:28.099Z</time>
      </trkpt>
      <trkpt lat="42.93565" lon="0.2899">
        <ele>1127</ele>
        <time>2017-02-09T11:53:29.099Z</time>
      </trkpt>
      <trkpt lat="42.93566" lon="0.2899">
        <ele>1127</ele>
        <time>2017-02-09T11:53:30.099Z</time>
      </trkpt>
      <trkpt lat="42.93566" lon="0.2899">
        <ele>1128</ele>
        <time>2017-02-09T11:53:31.099Z</time>
      </trkpt>
      <trkpt lat="42.93567" lon="0.2899">
        <ele>1128</ele>
        <time>2017-02-09T11:53:32.099Z</time>
      </trkpt>
      <trkpt lat="42.93568" lon="0.2899">
        <ele>1128</ele>
        <time>2017-02-09T11:53:33.099Z</time>
      </trkpt>
      <trkpt lat="42.93569" lon="0.2899">
        <ele>1128</ele>
        <time>2017-02-09T11:53:34.099Z</time>
      </trkpt>
      <trkpt lat="42.93569" lon="0.2899">
        <ele>1128</ele>
        <time>2017-02-09T11:53:35.099Z</time>
      </trkpt>
      <trkpt lat="42.9357" lon="0.2899">
        <ele>1128</ele>
        <time>2017-02-09T11:53:36.099Z</time>
      </trkpt>
      <trkpt lat="42.93571" lon="0.2899">
        <ele>1129</ele>
        <time>2017-02-09T11:53:37.099Z</time>
      </trkpt>
      <trkpt lat="42.93572" lon="0.2899">
        <ele>1128</ele>
        <time>2017-02-09T11:53:38.099Z</time>
      </trkpt>
      <trkpt lat="42.93573" lon="0.2899">
        <ele>1129</ele>
        <time>2017-02-09T11:53:39.099Z</time>
      </trkpt>
      <trkpt lat="42.93574" lon="0.28989">
        <ele>1129</ele>
        <time>2017-02-09T11:53:40.099Z</time>
      </trkpt>
      <trkpt lat="42.93574" lon="0.28989">
        <ele>1129</ele>
        <time>2017-02-09T11:53:41.099Z</time>
      </trkpt>
      <trkpt lat="42.93575" lon="0.28989">
        <ele>1129</ele>
        <time>2017-02-09T11:53:42.099Z</time>
      </trkpt>
      <trkpt lat="42.93576" lon="0.28988">
        <ele>1128</ele>
        <time>2017-02-09T11:53:43.099Z</time>
      </trkpt>
      <trkpt lat="42.93576" lon="0.28988">
        <ele>1128</ele>
        <time>2017-02-09T11:53:44.099Z</time>
      </trkpt>
      <trkpt lat="42.93577" lon="0.28988">
        <ele>1128</ele>
        <time>2017-02-09T11:53:45.099Z</time>
      </trkpt>
      <trkpt lat="42.93578" lon="0.28987">
        <ele>1128</ele>
        <time>2017-02-09T11:53:46.099Z</time>
      </trkpt>
      <trkpt lat="42.93579" lon="0.28987">
        <ele>1128</ele>
        <time>2017-02-09T11:53:47.099Z</time>
      </trkpt>
      <trkpt lat="42.93579" lon="0.28986">
        <ele>1128</ele>
        <time>2017-02-09T11:53:48.099Z</time>
      </trkpt>
      <trkpt lat="42.9358" lon="0.28986">
        <ele>1128</ele>
        <time>2017-02-09T11:53:49.099Z</time>
      </trkpt>
      <trkpt lat="42.93581" lon="0.28986">
        <ele>1128</ele>
        <time>2017-02-09T11:53:50.099Z</time>
      </trkpt>
      <trkpt lat="42.93581" lon="0.28985">
        <ele>1129</ele>
        <time>2017-02-09T11:53:51.099Z</time>
      </trkpt>
      <trkpt lat="42.93582" lon="0.28985">
        <ele>1129</ele>
        <time>2017-02-09T11:53:52.099Z</time>
      </trkpt>
      <trkpt lat="42.93583" lon="0.28985">
        <ele>1129</ele>
        <time>2017-02-09T11:53:53.099Z</time>
      </trkpt>
      <trkpt lat="42.93584" lon="0.28984">
        <ele>1129</ele>
        <time>2017-02-09T11:53:54.099Z</time>
      </trkpt>
      <trkpt lat="42.93585" lon="0.28984">
        <ele>1129</ele>
        <time>2017-02-09T11:53:55.099Z</time>
      </trkpt>
      <trkpt lat="42.93586" lon="0.28984">
        <ele>1129</ele>
        <time>2017-02-09T11:53:56.099Z</time>
      </trkpt>
      <trkpt lat="42.93586" lon="0.28984">
        <ele>1129</ele>
        <time>2017-02-09T11:53:57.099Z</time>
      </trkpt>
      <trkpt lat="42.93587" lon="0.28983">
        <ele>1129</ele>
        <time>2017-02-09T11:53:58.099Z</time>
      </trkpt>
      <trkpt lat="42.93588" lon="0.28983">
        <ele>1129</ele>
        <time>2017-02-09T11:53:59.099Z</time>
      </trkpt>
      <trkpt lat="42.93589" lon="0.28982">
        <ele>1129</ele>
        <time>2017-02-09T11:54:00.099Z</time>
      </trkpt>
      <trkpt lat="42.9359" lon="0.28982">
        <ele>1129</ele>
        <time>2017-02-09T11:54:01.099Z</time>
      </trkpt>
      <trkpt lat="42.9359" lon="0.28981">
        <ele>1129</ele>
        <time>2017-02-09T11:54:02.099Z</time>
      </trkpt>
      <trkpt lat="42.93591" lon="0.28981">
        <ele>1129</ele>
        <time>2017-02-09T11:54:03.099Z</time>
      </trkpt>
      <trkpt lat="42.93592" lon="0.28981">
        <ele>1129</ele>
        <time>2017-02-09T11:54:04.099Z</time>
      </trkpt>
      <trkpt lat="42.93592" lon="0.2898">
        <ele>1129</ele>
        <time>2017-02-09T11:54:05.099Z</time>
      </trkpt>
      <trkpt lat="42.93593" lon="0.2898">
        <ele>1129</ele>
        <time>2017-02-09T11:54:06.099Z</time>
      </trkpt>
      <trkpt lat="42.93594" lon="0.2898">
        <ele>1129</ele>
        <time>2017-02-09T11:54:07.099Z</time>
      </trkpt>
      <trkpt lat="42.93595" lon="0.2898">
        <ele>1129</ele>
        <time>2017-02-09T11:54:08.099Z</time>
      </trkpt>
      <trkpt lat="42.93595" lon="0.28979">
        <ele>1129</ele>
        <time>2017-02-09T11:54:09.099Z</time>
      </trkpt>
      <trkpt lat="42.93596" lon="0.28979">
        <ele>1129</ele>
        <time>2017-02-09T11:54:10.099Z</time>
      </trkpt>
      <trkpt lat="42.93597" lon="0.28979">
        <ele>1129</ele>
        <time>2017-02-09T11:54:11.099Z</time>
      </trkpt>
      <trkpt lat="42.93598" lon="0.28979">
        <ele>1129</ele>
        <time>2017-02-09T11:54:12.099Z</time>
      </trkpt>
      <trkpt lat="42.93599" lon="0.28979">
        <ele>1130</ele>
        <time>2017-02-09T11:54:13.099Z</time>
      </trkpt>
      <trkpt lat="42.93599" lon="0.28978">
        <ele>1130</ele>
        <time>2017-02-09T11:54:14.099Z</time>
      </trkpt>
      <trkpt lat="42.936" lon="0.28978">
        <ele>1130</ele>
        <time>2017-02-09T11:54:15.099Z</time>
      </trkpt>
      <trkpt lat="42.93601" lon="0.28977">
        <ele>1130</ele>
        <time>2017-02-09T11:54:16.099Z</time>
      </trkpt>
      <trkpt lat="42.93601" lon="0.28977">
        <ele>1130</ele>
        <time>2017-02-09T11:54:17.099Z</time>
      </trkpt>
      <trkpt lat="42.93602" lon="0.28976">
        <ele>1130</ele>
        <time>2017-02-09T11:54:18.099Z</time>
      </trkpt>
      <trkpt lat="42.93603" lon="0.28976">
        <ele>1130</ele>
        <time>2017-02-09T11:54:19.099Z</time>
      </trkpt>
      <trkpt lat="42.93604" lon="0.28976">
        <ele>1130</ele>
        <time>2017-02-09T11:54:20.099Z</time>
      </trkpt>
      <trkpt lat="42.93605" lon="0.28976">
        <ele>1130</ele>
        <time>2017-02-09T11:54:21.099Z</time>
      </trkpt>
      <trkpt lat="42.93605" lon="0.28975">
        <ele>1130</ele>
        <time>2017-02-09T11:54:22.099Z</time>
      </trkpt>
      <trkpt lat="42.93606" lon="0.28975">
        <ele>1130</ele>
        <time>2017-02-09T11:54:23.099Z</time>
      </trkpt>
      <trkpt lat="42.93607" lon="0.28974">
        <ele>1130</ele>
        <time>2017-02-09T11:54:24.099Z</time>
      </trkpt>
      <trkpt lat="42.93607" lon="0.28973">
        <ele>1130</ele>
        <time>2017-02-09T11:54:25.099Z</time>
      </trkpt>
      <trkpt lat="42.93608" lon="0.28972">
        <ele>1130</ele>
        <time>2017-02-09T11:54:26.099Z</time>
      </trkpt>
      <trkpt lat="42.93608" lon="0.28971">
        <ele>1130</ele>
        <time>2017-02-09T11:54:27.099Z</time>
      </trkpt>
      <trkpt lat="42.93609" lon="0.2897">
        <ele>1130</ele>
        <time>2017-02-09T11:54:28.099Z</time>
      </trkpt>
      <trkpt lat="42.93609" lon="0.28969">
        <ele>1130</ele>
        <time>2017-02-09T11:54:29.099Z</time>
      </trkpt>
      <trkpt lat="42.9361" lon="0.28968">
        <ele>1130</ele>
        <time>2017-02-09T11:54:30.099Z</time>
      </trkpt>
      <trkpt lat="42.9361" lon="0.28968">
        <ele>1130</ele>
        <time>2017-02-09T11:54:31.099Z</time>
      </trkpt>
      <trkpt lat="42.93611" lon="0.28967">
        <ele>1130</ele>
        <time>2017-02-09T11:54:32.099Z</time>
      </trkpt>
      <trkpt lat="42.93612" lon="0.28967">
        <ele>1130</ele>
        <time>2017-02-09T11:54:33.099Z</time>
      </trkpt>
      <trkpt lat="42.93613" lon="0.28966">
        <ele>1130</ele>
        <time>2017-02-09T11:54:34.099Z</time>
      </trkpt>
      <trkpt lat="42.93613" lon="0.28966">
        <ele>1130</ele>
        <time>2017-02-09T11:54:35.099Z</time>
      </trkpt>
      <trkpt lat="42.93614" lon="0.28966">
        <ele>1130</ele>
        <time>2017-02-09T11:54:36.099Z</time>
      </trkpt>
      <trkpt lat="42.93614" lon="0.28966">
        <ele>1130</ele>
        <time>2017-02-09T11:54:37.099Z</time>
      </trkpt>
      <trkpt lat="42.93614" lon="0.28966">
        <ele>1130</ele>
        <time>2017-02-09T11:54:38.099Z</time>
      </trkpt>
      <trkpt lat="42.93614" lon="0.28966">
        <ele>1130</ele>
        <time>2017-02-09T11:54:39.099Z</time>
      </trkpt>
      <trkpt lat="42.93615" lon="0.28966">
        <ele>1130</ele>
        <time>2017-02-09T11:54:40.099Z</time>
      </trkpt>
      <trkpt lat="42.93616" lon="0.28965">
        <ele>1130</ele>
        <time>2017-02-09T11:54:41.099Z</time>
      </trkpt>
      <trkpt lat="42.93616" lon="0.28965">
        <ele>1130</ele>
        <time>2017-02-09T11:54:42.099Z</time>
      </trkpt>
      <trkpt lat="42.93617" lon="0.28965">
        <ele>1130</ele>
        <time>2017-02-09T11:54:43.099Z</time>
      </trkpt>
      <trkpt lat="42.93618" lon="0.28964">
        <ele>1130</ele>
        <time>2017-02-09T11:54:44.099Z</time>
      </trkpt>
      <trkpt lat="42.93619" lon="0.28964">
        <ele>1130</ele>
        <time>2017-02-09T11:54:45.099Z</time>
      </trkpt>
      <trkpt lat="42.93619" lon="0.28964">
        <ele>1130</ele>
        <time>2017-02-09T11:54:46.099Z</time>
      </trkpt>
      <trkpt lat="42.9362" lon="0.28963">
        <ele>1130</ele>
        <time>2017-02-09T11:54:47.099Z</time>
      </trkpt>
      <trkpt lat="42.93621" lon="0.28963">
        <ele>1130</ele>
        <time>2017-02-09T11:54:48.099Z</time>
      </trkpt>
      <trkpt lat="42.93622" lon="0.28962">
        <ele>1130</ele>
        <time>2017-02-09T11:54:49.099Z</time>
      </trkpt>
      <trkpt lat="42.93622" lon="0.28962">
        <ele>1130</ele>
        <time>2017-02-09T11:54:50.099Z</time>
      </trkpt>
      <trkpt lat="42.93623" lon="0.28961">
        <ele>1130</ele>
        <time>2017-02-09T11:54:51.099Z</time>
      </trkpt>
      <trkpt lat="42.93624" lon="0.28961">
        <ele>1130</ele>
        <time>2017-02-09T11:54:52.099Z</time>
      </trkpt>
      <trkpt lat="42.93624" lon="0.2896">
        <ele>1130</ele>
        <time>2017-02-09T11:54:53.099Z</time>
      </trkpt>
      <trkpt lat="42.93625" lon="0.2896">
        <ele>1130</ele>
        <time>2017-02-09T11:54:54.099Z</time>
      </trkpt>
      <trkpt lat="42.93626" lon="0.28959">
        <ele>1130</ele>
        <time>2017-02-09T11:54:55.099Z</time>
      </trkpt>
      <trkpt lat="42.93627" lon="0.28959">
        <ele>1130</ele>
        <time>2017-02-09T11:54:56.099Z</time>
      </trkpt>
      <trkpt lat="42.93627" lon="0.28958">
        <ele>1130</ele>
        <time>2017-02-09T11:54:57.099Z</time>
      </trkpt>
      <trkpt lat="42.93628" lon="0.28958">
        <ele>1130</ele>
        <time>2017-02-09T11:54:58.099Z</time>
      </trkpt>
      <trkpt lat="42.93629" lon="0.28957">
        <ele>1130</ele>
        <time>2017-02-09T11:54:59.099Z</time>
      </trkpt>
      <trkpt lat="42.9363" lon="0.28957">
        <ele>1130</ele>
        <time>2017-02-09T11:55:00.099Z</time>
      </trkpt>
      <trkpt lat="42.9363" lon="0.28956">
        <ele>1130</ele>
        <time>2017-02-09T11:55:01.099Z</time>
      </trkpt>
      <trkpt lat="42.93631" lon="0.28956">
        <ele>1131</ele>
        <time>2017-02-09T11:55:02.099Z</time>
      </trkpt>
      <trkpt lat="42.93632" lon="0.28955">
        <ele>1131</ele>
        <time>2017-02-09T11:55:03.099Z</time>
      </trkpt>
      <trkpt lat="42.93633" lon="0.28955">
        <ele>1131</ele>
        <time>2017-02-09T11:55:04.099Z</time>
      </trkpt>
      <trkpt lat="42.93634" lon="0.28954">
        <ele>1131</ele>
        <time>2017-02-09T11:55:05.099Z</time>
      </trkpt>
      <trkpt lat="42.93634" lon="0.28954">
        <ele>1131</ele>
        <time>2017-02-09T11:55:06.099Z</time>
      </trkpt>
      <trkpt lat="42.93635" lon="0.28953">
        <ele>1131</ele>
        <time>2017-02-09T11:55:07.099Z</time>
      </trkpt>
      <trkpt lat="42.93636" lon="0.28953">
        <ele>1131</ele>
        <time>2017-02-09T11:55:08.099Z</time>
      </trkpt>
      <trkpt lat="42.93637" lon="0.28953">
        <ele>1131</ele>
        <time>2017-02-09T11:55:09.099Z</time>
      </trkpt>
      <trkpt lat="42.93638" lon="0.28952">
        <ele>1131</ele>
        <time>2017-02-09T11:55:10.099Z</time>
      </trkpt>
      <trkpt lat="42.93638" lon="0.28952">
        <ele>1131</ele>
        <time>2017-02-09T11:55:11.099Z</time>
      </trkpt>
      <trkpt lat="42.93639" lon="0.28951">
        <ele>1131</ele>
        <time>2017-02-09T11:55:12.099Z</time>
      </trkpt>
      <trkpt lat="42.9364" lon="0.28951">
        <ele>1130</ele>
        <time>2017-02-09T11:55:13.099Z</time>
      </trkpt>
      <trkpt lat="42.9364" lon="0.2895">
        <ele>1130</ele>
        <time>2017-02-09T11:55:14.099Z</time>
      </trkpt>
      <trkpt lat="42.93641" lon="0.2895">
        <ele>1131</ele>
        <time>2017-02-09T11:55:15.099Z</time>
      </trkpt>
      <trkpt lat="42.93642" lon="0.28949">
        <ele>1131</ele>
        <time>2017-02-09T11:55:16.099Z</time>
      </trkpt>
      <trkpt lat="42.93643" lon="0.28948">
        <ele>1130</ele>
        <time>2017-02-09T11:55:17.099Z</time>
      </trkpt>
      <trkpt lat="42.93643" lon="0.28948">
        <ele>1130</ele>
        <time>2017-02-09T11:55:18.099Z</time>
      </trkpt>
      <trkpt lat="42.93644" lon="0.28947">
        <ele>1130</ele>
        <time>2017-02-09T11:55:19.099Z</time>
      </trkpt>
      <trkpt lat="42.93645" lon="0.28947">
        <ele>1130</ele>
        <time>2017-02-09T11:55:20.099Z</time>
      </trkpt>
      <trkpt lat="42.93645" lon="0.28946">
        <ele>1130</ele>
        <time>2017-02-09T11:55:21.099Z</time>
      </trkpt>
      <trkpt lat="42.93646" lon="0.28946">
        <ele>1130</ele>
        <time>2017-02-09T11:55:22.099Z</time>
      </trkpt>
      <trkpt lat="42.93647" lon="0.28945">
        <ele>1130</ele>
        <time>2017-02-09T11:55:23.099Z</time>
      </trkpt>
      <trkpt lat="42.93647" lon="0.28945">
        <ele>1130</ele>
        <time>2017-02-09T11:55:24.099Z</time>
      </trkpt>
      <trkpt lat="42.93648" lon="0.28944">
        <ele>1130</ele>
        <time>2017-02-09T11:55:25.099Z</time>
      </trkpt>
      <trkpt lat="42.93648" lon="0.28944">
        <ele>1130</ele>
        <time>2017-02-09T11:55:26.099Z</time>
      </trkpt>
      <trkpt lat="42.93649" lon="0.28944">
        <ele>1130</ele>
        <time>2017-02-09T11:55:27.099Z</time>
      </trkpt>
      <trkpt lat="42.93649" lon="0.28944">
        <ele>1130</ele>
        <time>2017-02-09T11:55:28.099Z</time>
      </trkpt>
      <trkpt lat="42.93649" lon="0.28944">
        <ele>1130</ele>
        <time>2017-02-09T11:55:29.099Z</time>
      </trkpt>
      <trkpt lat="42.93649" lon="0.28944">
        <ele>1130</ele>
        <time>2017-02-09T11:55:30.099Z</time>
      </trkpt>
      <trkpt lat="42.93649" lon="0.28944">
        <ele>1130</ele>
        <time>2017-02-09T11:55:31.099Z</time>
      </trkpt>
      <trkpt lat="42.93649" lon="0.28944">
        <ele>1129</ele>
        <time>2017-02-09T11:55:32.099Z</time>
      </trkpt>
      <trkpt lat="42.93649" lon="0.28944">
        <ele>1129</ele>
        <time>2017-02-09T11:55:33.099Z</time>
      </trkpt>
      <trkpt lat="42.9365" lon="0.28943">
        <ele>1130</ele>
        <time>2017-02-09T11:55:34.103Z</time>
      </trkpt>
      <trkpt lat="42.9365" lon="0.28943">
        <ele>1130</ele>
        <time>2017-02-09T11:55:35.103Z</time>
      </trkpt>
      <trkpt lat="42.9365" lon="0.28943">
        <ele>1130</ele>
        <time>2017-02-09T11:55:36.103Z</time>
      </trkpt>
      <trkpt lat="42.93649" lon="0.28943">
        <ele>1129</ele>
        <time>2017-02-09T11:55:37.103Z</time>
      </trkpt>
      <trkpt lat="42.93649" lon="0.28943">
        <ele>1129</ele>
        <time>2017-02-09T11:55:38.103Z</time>
      </trkpt>
      <trkpt lat="42.93649" lon="0.28943">
        <ele>1129</ele>
        <time>2017-02-09T11:55:39.103Z</time>
      </trkpt>
      <trkpt lat="42.93651" lon="0.28941">
        <ele>1129</ele>
        <time>2017-02-09T11:55:40.107Z</time>
      </trkpt>
      <trkpt lat="42.93652" lon="0.2894">
        <ele>1129</ele>
        <time>2017-02-09T11:55:41.107Z</time>
      </trkpt>
      <trkpt lat="42.93653" lon="0.28939">
        <ele>1129</ele>
        <time>2017-02-09T11:55:42.107Z</time>
      </trkpt>
      <trkpt lat="42.93653" lon="0.28939">
        <ele>1129</ele>
        <time>2017-02-09T11:55:43.107Z</time>
      </trkpt>
      <trkpt lat="42.93654" lon="0.28938">
        <ele>1129</ele>
        <time>2017-02-09T11:55:44.107Z</time>
      </trkpt>
      <trkpt lat="42.93654" lon="0.28937">
        <ele>1128</ele>
        <time>2017-02-09T11:55:45.107Z</time>
      </trkpt>
      <trkpt lat="42.93655" lon="0.28937">
        <ele>1128</ele>
        <time>2017-02-09T11:55:46.107Z</time>
      </trkpt>
      <trkpt lat="42.93656" lon="0.28936">
        <ele>1129</ele>
        <time>2017-02-09T11:55:47.107Z</time>
      </trkpt>
      <trkpt lat="42.93656" lon="0.28935">
        <ele>1129</ele>
        <time>2017-02-09T11:55:48.107Z</time>
      </trkpt>
      <trkpt lat="42.93657" lon="0.28934">
        <ele>1129</ele>
        <time>2017-02-09T11:55:49.107Z</time>
      </trkpt>
      <trkpt lat="42.93658" lon="0.28934">
        <ele>1129</ele>
        <time>2017-02-09T11:55:50.107Z</time>
      </trkpt>
      <trkpt lat="42.93659" lon="0.28933">
        <ele>1129</ele>
        <time>2017-02-09T11:55:51.107Z</time>
      </trkpt>
      <trkpt lat="42.9366" lon="0.28933">
        <ele>1129</ele>
        <time>2017-02-09T11:55:52.107Z</time>
      </trkpt>
      <trkpt lat="42.93661" lon="0.28933">
        <ele>1129</ele>
        <time>2017-02-09T11:55:53.107Z</time>
      </trkpt>
      <trkpt lat="42.93661" lon="0.28932">
        <ele>1129</ele>
        <time>2017-02-09T11:55:54.107Z</time>
      </trkpt>
      <trkpt lat="42.93662" lon="0.28932">
        <ele>1129</ele>
        <time>2017-02-09T11:55:55.107Z</time>
      </trkpt>
      <trkpt lat="42.93663" lon="0.28932">
        <ele>1129</ele>
        <time>2017-02-09T11:55:56.107Z</time>
      </trkpt>
      <trkpt lat="42.93664" lon="0.28932">
        <ele>1129</ele>
        <time>2017-02-09T11:55:57.107Z</time>
      </trkpt>
      <trkpt lat="42.93665" lon="0.28931">
        <ele>1129</ele>
        <time>2017-02-09T11:55:58.107Z</time>
      </trkpt>
      <trkpt lat="42.93666" lon="0.28931">
        <ele>1129</ele>
        <time>2017-02-09T11:55:59.107Z</time>
      </trkpt>
      <trkpt lat="42.93667" lon="0.28931">
        <ele>1129</ele>
        <time>2017-02-09T11:56:00.107Z</time>
      </trkpt>
      <trkpt lat="42.93668" lon="0.2893">
        <ele>1129</ele>
        <time>2017-02-09T11:56:01.107Z</time>
      </trkpt>
      <trkpt lat="42.93668" lon="0.2893">
        <ele>1129</ele>
        <time>2017-02-09T11:56:02.107Z</time>
      </trkpt>
      <trkpt lat="42.93669" lon="0.2893">
        <ele>1129</ele>
        <time>2017-02-09T11:56:03.107Z</time>
      </trkpt>
      <trkpt lat="42.9367" lon="0.2893">
        <ele>1129</ele>
        <time>2017-02-09T11:56:04.107Z</time>
      </trkpt>
      <trkpt lat="42.93671" lon="0.28929">
        <ele>1129</ele>
        <time>2017-02-09T11:56:05.107Z</time>
      </trkpt>
      <trkpt lat="42.93672" lon="0.28929">
        <ele>1129</ele>
        <time>2017-02-09T11:56:06.107Z</time>
      </trkpt>
      <trkpt lat="42.93673" lon="0.28929">
        <ele>1129</ele>
        <time>2017-02-09T11:56:07.107Z</time>
      </trkpt>
      <trkpt lat="42.93674" lon="0.28929">
        <ele>1128</ele>
        <time>2017-02-09T11:56:08.107Z</time>
      </trkpt>
      <trkpt lat="42.93674" lon="0.28928">
        <ele>1128</ele>
        <time>2017-02-09T11:56:09.107Z</time>
      </trkpt>
      <trkpt lat="42.93675" lon="0.28928">
        <ele>1128</ele>
        <time>2017-02-09T11:56:10.107Z</time>
      </trkpt>
      <trkpt lat="42.93676" lon="0.28928">
        <ele>1128</ele>
        <time>2017-02-09T11:56:11.107Z</time>
      </trkpt>
      <trkpt lat="42.93677" lon="0.28928">
        <ele>1128</ele>
        <time>2017-02-09T11:56:12.107Z</time>
      </trkpt>
      <trkpt lat="42.93678" lon="0.28927">
        <ele>1128</ele>
        <time>2017-02-09T11:56:13.107Z</time>
      </trkpt>
      <trkpt lat="42.93679" lon="0.28927">
        <ele>1128</ele>
        <time>2017-02-09T11:56:14.107Z</time>
      </trkpt>
      <trkpt lat="42.93679" lon="0.28927">
        <ele>1128</ele>
        <time>2017-02-09T11:56:15.107Z</time>
      </trkpt>
      <trkpt lat="42.9368" lon="0.28926">
        <ele>1128</ele>
        <time>2017-02-09T11:56:16.107Z</time>
      </trkpt>
      <trkpt lat="42.93681" lon="0.28926">
        <ele>1128</ele>
        <time>2017-02-09T11:56:17.107Z</time>
      </trkpt>
      <trkpt lat="42.93682" lon="0.28926">
        <ele>1128</ele>
        <time>2017-02-09T11:56:18.107Z</time>
      </trkpt>
      <trkpt lat="42.93683" lon="0.28925">
        <ele>1128</ele>
        <time>2017-02-09T11:56:19.107Z</time>
      </trkpt>
      <trkpt lat="42.93683" lon="0.28925">
        <ele>1128</ele>
        <time>2017-02-09T11:56:20.107Z</time>
      </trkpt>
      <trkpt lat="42.93684" lon="0.28925">
        <ele>1128</ele>
        <time>2017-02-09T11:56:21.107Z</time>
      </trkpt>
      <trkpt lat="42.93685" lon="0.28925">
        <ele>1128</ele>
        <time>2017-02-09T11:56:22.107Z</time>
      </trkpt>
      <trkpt lat="42.93686" lon="0.28924">
        <ele>1128</ele>
        <time>2017-02-09T11:56:23.107Z</time>
      </trkpt>
      <trkpt lat="42.93687" lon="0.28924">
        <ele>1128</ele>
        <time>2017-02-09T11:56:24.107Z</time>
      </trkpt>
      <trkpt lat="42.93688" lon="0.28924">
        <ele>1128</ele>
        <time>2017-02-09T11:56:25.107Z</time>
      </trkpt>
      <trkpt lat="42.93689" lon="0.28924">
        <ele>1128</ele>
        <time>2017-02-09T11:56:26.107Z</time>
      </trkpt>
      <trkpt lat="42.9369" lon="0.28923">
        <ele>1128</ele>
        <time>2017-02-09T11:56:27.107Z</time>
      </trkpt>
      <trkpt lat="42.9369" lon="0.28923">
        <ele>1128</ele>
        <time>2017-02-09T11:56:28.107Z</time>
      </trkpt>
      <trkpt lat="42.93691" lon="0.28923">
        <ele>1127</ele>
        <time>2017-02-09T11:56:29.107Z</time>
      </trkpt>
      <trkpt lat="42.93692" lon="0.28922">
        <ele>1128</ele>
        <time>2017-02-09T11:56:30.107Z</time>
      </trkpt>
      <trkpt lat="42.93693" lon="0.28922">
        <ele>1128</ele>
        <time>2017-02-09T11:56:31.107Z</time>
      </trkpt>
      <trkpt lat="42.93694" lon="0.28922">
        <ele>1128</ele>
        <time>2017-02-09T11:56:32.107Z</time>
      </trkpt>
      <trkpt lat="42.93695" lon="0.28921">
        <ele>1128</ele>
        <time>2017-02-09T11:56:33.107Z</time>
      </trkpt>
      <trkpt lat="42.93696" lon="0.28921">
        <ele>1128</ele>
        <time>2017-02-09T11:56:34.107Z</time>
      </trkpt>
      <trkpt lat="42.93696" lon="0.28921">
        <ele>1127</ele>
        <time>2017-02-09T11:56:35.107Z</time>
      </trkpt>
      <trkpt lat="42.93697" lon="0.28921">
        <ele>1127</ele>
        <time>2017-02-09T11:56:36.107Z</time>
      </trkpt>
      <trkpt lat="42.93698" lon="0.2892">
        <ele>1127</ele>
        <time>2017-02-09T11:56:37.107Z</time>
      </trkpt>
      <trkpt lat="42.93699" lon="0.2892">
        <ele>1128</ele>
        <time>2017-02-09T11:56:38.107Z</time>
      </trkpt>
      <trkpt lat="42.93699" lon="0.2892">
        <ele>1127</ele>
        <time>2017-02-09T11:56:39.107Z</time>
      </trkpt>
      <trkpt lat="42.93699" lon="0.2892">
        <ele>1128</ele>
        <time>2017-02-09T11:56:40.107Z</time>
      </trkpt>
      <trkpt lat="42.937" lon="0.2892">
        <ele>1127</ele>
        <time>2017-02-09T11:56:41.107Z</time>
      </trkpt>
      <trkpt lat="42.937" lon="0.2892">
        <ele>1127</ele>
        <time>2017-02-09T11:56:42.107Z</time>
      </trkpt>
      <trkpt lat="42.93701" lon="0.2892">
        <ele>1127</ele>
        <time>2017-02-09T11:56:43.107Z</time>
      </trkpt>
      <trkpt lat="42.93702" lon="0.2892">
        <ele>1127</ele>
        <time>2017-02-09T11:56:44.107Z</time>
      </trkpt>
      <trkpt lat="42.93703" lon="0.2892">
        <ele>1127</ele>
        <time>2017-02-09T11:56:45.107Z</time>
      </trkpt>
      <trkpt lat="42.93703" lon="0.2892">
        <ele>1127</ele>
        <time>2017-02-09T11:56:46.107Z</time>
      </trkpt>
      <trkpt lat="42.93704" lon="0.28919">
        <ele>1127</ele>
        <time>2017-02-09T11:56:47.107Z</time>
      </trkpt>
      <trkpt lat="42.93705" lon="0.28919">
        <ele>1127</ele>
        <time>2017-02-09T11:56:48.107Z</time>
      </trkpt>
      <trkpt lat="42.93706" lon="0.28919">
        <ele>1127</ele>
        <time>2017-02-09T11:56:49.107Z</time>
      </trkpt>
      <trkpt lat="42.93707" lon="0.28919">
        <ele>1127</ele>
        <time>2017-02-09T11:56:50.107Z</time>
      </trkpt>
      <trkpt lat="42.93708" lon="0.28918">
        <ele>1127</ele>
        <time>2017-02-09T11:56:51.107Z</time>
      </trkpt>
      <trkpt lat="42.93709" lon="0.28918">
        <ele>1127</ele>
        <time>2017-02-09T11:56:52.107Z</time>
      </trkpt>
      <trkpt lat="42.9371" lon="0.28918">
        <ele>1127</ele>
        <time>2017-02-09T11:56:53.107Z</time>
      </trkpt>
      <trkpt lat="42.93711" lon="0.28918">
        <ele>1127</ele>
        <time>2017-02-09T11:56:54.107Z</time>
      </trkpt>
      <trkpt lat="42.93712" lon="0.28918">
        <ele>1127</ele>
        <time>2017-02-09T11:56:55.107Z</time>
      </trkpt>
      <trkpt lat="42.93712" lon="0.28917">
        <ele>1127</ele>
        <time>2017-02-09T11:56:56.107Z</time>
      </trkpt>
      <trkpt lat="42.93713" lon="0.28917">
        <ele>1127</ele>
        <time>2017-02-09T11:56:57.107Z</time>
      </trkpt>
      <trkpt lat="42.93714" lon="0.28917">
        <ele>1127</ele>
        <time>2017-02-09T11:56:58.107Z</time>
      </trkpt>
      <trkpt lat="42.93715" lon="0.28916">
        <ele>1127</ele>
        <time>2017-02-09T11:56:59.107Z</time>
      </trkpt>
      <trkpt lat="42.93716" lon="0.28916">
        <ele>1126</ele>
        <time>2017-02-09T11:57:00.107Z</time>
      </trkpt>
      <trkpt lat="42.93717" lon="0.28916">
        <ele>1126</ele>
        <time>2017-02-09T11:57:01.107Z</time>
      </trkpt>
      <trkpt lat="42.93717" lon="0.28916">
        <ele>1126</ele>
        <time>2017-02-09T11:57:02.107Z</time>
      </trkpt>
      <trkpt lat="42.93718" lon="0.28916">
        <ele>1126</ele>
        <time>2017-02-09T11:57:03.107Z</time>
      </trkpt>
      <trkpt lat="42.93718" lon="0.28916">
        <ele>1126</ele>
        <time>2017-02-09T11:57:04.107Z</time>
      </trkpt>
      <trkpt lat="42.93718" lon="0.28915">
        <ele>1126</ele>
        <time>2017-02-09T11:57:05.107Z</time>
      </trkpt>
      <trkpt lat="42.93718" lon="0.28915">
        <ele>1126</ele>
        <time>2017-02-09T11:57:06.107Z</time>
      </trkpt>
      <trkpt lat="42.93718" lon="0.28915">
        <ele>1126</ele>
        <time>2017-02-09T11:57:07.107Z</time>
      </trkpt>
      <trkpt lat="42.93718" lon="0.28915">
        <ele>1126</ele>
        <time>2017-02-09T11:57:08.107Z</time>
      </trkpt>
      <trkpt lat="42.93718" lon="0.28915">
        <ele>1126</ele>
        <time>2017-02-09T11:57:09.107Z</time>
      </trkpt>
      <trkpt lat="42.93718" lon="0.28915">
        <ele>1126</ele>
        <time>2017-02-09T11:57:10.107Z</time>
      </trkpt>
      <trkpt lat="42.93722" lon="0.28914">
        <ele>1127</ele>
        <time>2017-02-09T11:57:11.111Z</time>
      </trkpt>
      <trkpt lat="42.93723" lon="0.28914">
        <ele>1127</ele>
        <time>2017-02-09T11:57:12.111Z</time>
      </trkpt>
      <trkpt lat="42.93724" lon="0.28913">
        <ele>1127</ele>
        <time>2017-02-09T11:57:13.111Z</time>
      </trkpt>
      <trkpt lat="42.93725" lon="0.28913">
        <ele>1127</ele>
        <time>2017-02-09T11:57:14.111Z</time>
      </trkpt>
      <trkpt lat="42.93725" lon="0.28913">
        <ele>1127</ele>
        <time>2017-02-09T11:57:15.111Z</time>
      </trkpt>
      <trkpt lat="42.93726" lon="0.28912">
        <ele>1127</ele>
        <time>2017-02-09T11:57:16.111Z</time>
      </trkpt>
      <trkpt lat="42.93727" lon="0.28912">
        <ele>1127</ele>
        <time>2017-02-09T11:57:17.111Z</time>
      </trkpt>
      <trkpt lat="42.93728" lon="0.28912">
        <ele>1127</ele>
        <time>2017-02-09T11:57:18.111Z</time>
      </trkpt>
      <trkpt lat="42.93729" lon="0.28912">
        <ele>1127</ele>
        <time>2017-02-09T11:57:19.111Z</time>
      </trkpt>
      <trkpt lat="42.93729" lon="0.28911">
        <ele>1127</ele>
        <time>2017-02-09T11:57:20.111Z</time>
      </trkpt>
      <trkpt lat="42.9373" lon="0.28911">
        <ele>1126</ele>
        <time>2017-02-09T11:57:21.111Z</time>
      </trkpt>
      <trkpt lat="42.93731" lon="0.28911">
        <ele>1126</ele>
        <time>2017-02-09T11:57:22.111Z</time>
      </trkpt>
      <trkpt lat="42.93732" lon="0.2891">
        <ele>1126</ele>
        <time>2017-02-09T11:57:23.111Z</time>
      </trkpt>
      <trkpt lat="42.93733" lon="0.2891">
        <ele>1126</ele>
        <time>2017-02-09T11:57:24.111Z</time>
      </trkpt>
      <trkpt lat="42.93734" lon="0.28909">
        <ele>1126</ele>
        <time>2017-02-09T11:57:25.111Z</time>
      </trkpt>
      <trkpt lat="42.93735" lon="0.28909">
        <ele>1126</ele>
        <time>2017-02-09T11:57:26.111Z</time>
      </trkpt>
      <trkpt lat="42.93736" lon="0.28909">
        <ele>1126</ele>
        <time>2017-02-09T11:57:27.111Z</time>
      </trkpt>
      <trkpt lat="42.93737" lon="0.28909">
        <ele>1126</ele>
        <time>2017-02-09T11:57:28.111Z</time>
      </trkpt>
      <trkpt lat="42.93737" lon="0.28908">
        <ele>1126</ele>
        <time>2017-02-09T11:57:29.111Z</time>
      </trkpt>
      <trkpt lat="42.93738" lon="0.28908">
        <ele>1126</ele>
        <time>2017-02-09T11:57:30.111Z</time>
      </trkpt>
      <trkpt lat="42.93739" lon="0.28908">
        <ele>1126</ele>
        <time>2017-02-09T11:57:31.111Z</time>
      </trkpt>
      <trkpt lat="42.9374" lon="0.28908">
        <ele>1126</ele>
        <time>2017-02-09T11:57:32.111Z</time>
      </trkpt>
      <trkpt lat="42.93741" lon="0.28907">
        <ele>1126</ele>
        <time>2017-02-09T11:57:33.111Z</time>
      </trkpt>
      <trkpt lat="42.93742" lon="0.28907">
        <ele>1125</ele>
        <time>2017-02-09T11:57:34.111Z</time>
      </trkpt>
      <trkpt lat="42.93743" lon="0.28907">
        <ele>1125</ele>
        <time>2017-02-09T11:57:35.111Z</time>
      </trkpt>
      <trkpt lat="42.93743" lon="0.28906">
        <ele>1125</ele>
        <time>2017-02-09T11:57:36.111Z</time>
      </trkpt>
      <trkpt lat="42.93744" lon="0.28906">
        <ele>1125</ele>
        <time>2017-02-09T11:57:37.111Z</time>
      </trkpt>
      <trkpt lat="42.93745" lon="0.28905">
        <ele>1125</ele>
        <time>2017-02-09T11:57:38.111Z</time>
      </trkpt>
      <trkpt lat="42.93746" lon="0.28905">
        <ele>1125</ele>
        <time>2017-02-09T11:57:39.111Z</time>
      </trkpt>
      <trkpt lat="42.93747" lon="0.28905">
        <ele>1125</ele>
        <time>2017-02-09T11:57:40.111Z</time>
      </trkpt>
      <trkpt lat="42.93748" lon="0.28905">
        <ele>1126</ele>
        <time>2017-02-09T11:57:41.111Z</time>
      </trkpt>
      <trkpt lat="42.93749" lon="0.28905">
        <ele>1126</ele>
        <time>2017-02-09T11:57:42.111Z</time>
      </trkpt>
      <trkpt lat="42.93749" lon="0.28904">
        <ele>1125</ele>
        <time>2017-02-09T11:57:43.111Z</time>
      </trkpt>
      <trkpt lat="42.9375" lon="0.28904">
        <ele>1126</ele>
        <time>2017-02-09T11:57:44.111Z</time>
      </trkpt>
      <trkpt lat="42.93751" lon="0.28904">
        <ele>1125</ele>
        <time>2017-02-09T11:57:45.111Z</time>
      </trkpt>
      <trkpt lat="42.93752" lon="0.28904">
        <ele>1125</ele>
        <time>2017-02-09T11:57:46.111Z</time>
      </trkpt>
      <trkpt lat="42.93753" lon="0.28904">
        <ele>1125</ele>
        <time>2017-02-09T11:57:47.111Z</time>
      </trkpt>
      <trkpt lat="42.93754" lon="0.28903">
        <ele>1125</ele>
        <time>2017-02-09T11:57:48.111Z</time>
      </trkpt>
      <trkpt lat="42.93755" lon="0.28903">
        <ele>1125</ele>
        <time>2017-02-09T11:57:49.111Z</time>
      </trkpt>
      <trkpt lat="42.93755" lon="0.28902">
        <ele>1125</ele>
        <time>2017-02-09T11:57:50.111Z</time>
      </trkpt>
      <trkpt lat="42.93756" lon="0.28902">
        <ele>1125</ele>
        <time>2017-02-09T11:57:51.111Z</time>
      </trkpt>
      <trkpt lat="42.93757" lon="0.28902">
        <ele>1125</ele>
        <time>2017-02-09T11:57:52.111Z</time>
      </trkpt>
      <trkpt lat="42.93758" lon="0.28901">
        <ele>1125</ele>
        <time>2017-02-09T11:57:53.111Z</time>
      </trkpt>
      <trkpt lat="42.93759" lon="0.28901">
        <ele>1125</ele>
        <time>2017-02-09T11:57:54.111Z</time>
      </trkpt>
      <trkpt lat="42.9376" lon="0.289">
        <ele>1126</ele>
        <time>2017-02-09T11:57:55.111Z</time>
      </trkpt>
      <trkpt lat="42.93761" lon="0.289">
        <ele>1126</ele>
        <time>2017-02-09T11:57:56.111Z</time>
      </trkpt>
      <trkpt lat="42.93762" lon="0.28899">
        <ele>1126</ele>
        <time>2017-02-09T11:57:57.111Z</time>
      </trkpt>
      <trkpt lat="42.93762" lon="0.28899">
        <ele>1126</ele>
        <time>2017-02-09T11:57:58.111Z</time>
      </trkpt>
      <trkpt lat="42.93763" lon="0.28899">
        <ele>1125</ele>
        <time>2017-02-09T11:57:59.111Z</time>
      </trkpt>
      <trkpt lat="42.93764" lon="0.28898">
        <ele>1125</ele>
        <time>2017-02-09T11:58:00.111Z</time>
      </trkpt>
      <trkpt lat="42.93765" lon="0.28898">
        <ele>1125</ele>
        <time>2017-02-09T11:58:01.111Z</time>
      </trkpt>
      <trkpt lat="42.93765" lon="0.28897">
        <ele>1125</ele>
        <time>2017-02-09T11:58:02.111Z</time>
      </trkpt>
      <trkpt lat="42.93766" lon="0.28897">
        <ele>1125</ele>
        <time>2017-02-09T11:58:03.111Z</time>
      </trkpt>
      <trkpt lat="42.93767" lon="0.28897">
        <ele>1125</ele>
        <time>2017-02-09T11:58:04.111Z</time>
      </trkpt>
      <trkpt lat="42.93768" lon="0.28896">
        <ele>1125</ele>
        <time>2017-02-09T11:58:05.111Z</time>
      </trkpt>
      <trkpt lat="42.93768" lon="0.28896">
        <ele>1125</ele>
        <time>2017-02-09T11:58:06.111Z</time>
      </trkpt>
      <trkpt lat="42.93769" lon="0.28896">
        <ele>1125</ele>
        <time>2017-02-09T11:58:07.111Z</time>
      </trkpt>
      <trkpt lat="42.9377" lon="0.28895">
        <ele>1125</ele>
        <time>2017-02-09T11:58:08.111Z</time>
      </trkpt>
      <trkpt lat="42.93771" lon="0.28895">
        <ele>1125</ele>
        <time>2017-02-09T11:58:09.111Z</time>
      </trkpt>
      <trkpt lat="42.93771" lon="0.28894">
        <ele>1125</ele>
        <time>2017-02-09T11:58:10.111Z</time>
      </trkpt>
      <trkpt lat="42.93772" lon="0.28894">
        <ele>1125</ele>
        <time>2017-02-09T11:58:11.111Z</time>
      </trkpt>
      <trkpt lat="42.93773" lon="0.28894">
        <ele>1125</ele>
        <time>2017-02-09T11:58:12.111Z</time>
      </trkpt>
      <trkpt lat="42.93774" lon="0.28893">
        <ele>1125</ele>
        <time>2017-02-09T11:58:13.111Z</time>
      </trkpt>
      <trkpt lat="42.93775" lon="0.28893">
        <ele>1125</ele>
        <time>2017-02-09T11:58:14.111Z</time>
      </trkpt>
      <trkpt lat="42.93775" lon="0.28892">
        <ele>1125</ele>
        <time>2017-02-09T11:58:15.111Z</time>
      </trkpt>
      <trkpt lat="42.93776" lon="0.28892">
        <ele>1125</ele>
        <time>2017-02-09T11:58:16.111Z</time>
      </trkpt>
      <trkpt lat="42.93777" lon="0.28892">
        <ele>1125</ele>
        <time>2017-02-09T11:58:17.111Z</time>
      </trkpt>
      <trkpt lat="42.93778" lon="0.28891">
        <ele>1125</ele>
        <time>2017-02-09T11:58:18.111Z</time>
      </trkpt>
      <trkpt lat="42.93779" lon="0.2889">
        <ele>1125</ele>
        <time>2017-02-09T11:58:19.111Z</time>
      </trkpt>
      <trkpt lat="42.9378" lon="0.2889">
        <ele>1125</ele>
        <time>2017-02-09T11:58:20.111Z</time>
      </trkpt>
      <trkpt lat="42.9378" lon="0.28889">
        <ele>1125</ele>
        <time>2017-02-09T11:58:21.111Z</time>
      </trkpt>
      <trkpt lat="42.93781" lon="0.28889">
        <ele>1125</ele>
        <time>2017-02-09T11:58:22.111Z</time>
      </trkpt>
      <trkpt lat="42.93782" lon="0.28888">
        <ele>1125</ele>
        <time>2017-02-09T11:58:23.111Z</time>
      </trkpt>
      <trkpt lat="42.93783" lon="0.28888">
        <ele>1125</ele>
        <time>2017-02-09T11:58:24.111Z</time>
      </trkpt>
      <trkpt lat="42.93784" lon="0.28887">
        <ele>1125</ele>
        <time>2017-02-09T11:58:25.111Z</time>
      </trkpt>
      <trkpt lat="42.93784" lon="0.28887">
        <ele>1125</ele>
        <time>2017-02-09T11:58:26.111Z</time>
      </trkpt>
      <trkpt lat="42.93785" lon="0.28886">
        <ele>1125</ele>
        <time>2017-02-09T11:58:27.111Z</time>
      </trkpt>
      <trkpt lat="42.93786" lon="0.28886">
        <ele>1125</ele>
        <time>2017-02-09T11:58:28.111Z</time>
      </trkpt>
      <trkpt lat="42.93787" lon="0.28886">
        <ele>1125</ele>
        <time>2017-02-09T11:58:29.111Z</time>
      </trkpt>
      <trkpt lat="42.93788" lon="0.28885">
        <ele>1125</ele>
        <time>2017-02-09T11:58:30.111Z</time>
      </trkpt>
      <trkpt lat="42.93789" lon="0.28885">
        <ele>1125</ele>
        <time>2017-02-09T11:58:31.111Z</time>
      </trkpt>
      <trkpt lat="42.9379" lon="0.28884">
        <ele>1125</ele>
        <time>2017-02-09T11:58:32.111Z</time>
      </trkpt>
      <trkpt lat="42.93791" lon="0.28884">
        <ele>1125</ele>
        <time>2017-02-09T11:58:33.111Z</time>
      </trkpt>
      <trkpt lat="42.93791" lon="0.28884">
        <ele>1125</ele>
        <time>2017-02-09T11:58:34.111Z</time>
      </trkpt>
      <trkpt lat="42.93792" lon="0.28883">
        <ele>1125</ele>
        <time>2017-02-09T11:58:35.111Z</time>
      </trkpt>
      <trkpt lat="42.93793" lon="0.28883">
        <ele>1125</ele>
        <time>2017-02-09T11:58:36.111Z</time>
      </trkpt>
      <trkpt lat="42.93794" lon="0.28882">
        <ele>1125</ele>
        <time>2017-02-09T11:58:37.111Z</time>
      </trkpt>
      <trkpt lat="42.93795" lon="0.28882">
        <ele>1125</ele>
        <time>2017-02-09T11:58:38.111Z</time>
      </trkpt>
      <trkpt lat="42.93796" lon="0.28881">
        <ele>1125</ele>
        <time>2017-02-09T11:58:39.111Z</time>
      </trkpt>
      <trkpt lat="42.93796" lon="0.28881">
        <ele>1125</ele>
        <time>2017-02-09T11:58:40.111Z</time>
      </trkpt>
      <trkpt lat="42.93797" lon="0.2888">
        <ele>1125</ele>
        <time>2017-02-09T11:58:41.111Z</time>
      </trkpt>
      <trkpt lat="42.93798" lon="0.2888">
        <ele>1125</ele>
        <time>2017-02-09T11:58:42.111Z</time>
      </trkpt>
      <trkpt lat="42.93799" lon="0.28879">
        <ele>1125</ele>
        <time>2017-02-09T11:58:43.111Z</time>
      </trkpt>
      <trkpt lat="42.93799" lon="0.28879">
        <ele>1125</ele>
        <time>2017-02-09T11:58:44.111Z</time>
      </trkpt>
      <trkpt lat="42.938" lon="0.28878">
        <ele>1125</ele>
        <time>2017-02-09T11:58:45.111Z</time>
      </trkpt>
      <trkpt lat="42.93801" lon="0.28878">
        <ele>1125</ele>
        <time>2017-02-09T11:58:46.111Z</time>
      </trkpt>
      <trkpt lat="42.93802" lon="0.28877">
        <ele>1125</ele>
        <time>2017-02-09T11:58:47.111Z</time>
      </trkpt>
      <trkpt lat="42.93802" lon="0.28877">
        <ele>1125</ele>
        <time>2017-02-09T11:58:48.111Z</time>
      </trkpt>
      <trkpt lat="42.93803" lon="0.28876">
        <ele>1125</ele>
        <time>2017-02-09T11:58:49.111Z</time>
      </trkpt>
      <trkpt lat="42.93804" lon="0.28875">
        <ele>1125</ele>
        <time>2017-02-09T11:58:50.111Z</time>
      </trkpt>
      <trkpt lat="42.93804" lon="0.28875">
        <ele>1125</ele>
        <time>2017-02-09T11:58:51.111Z</time>
      </trkpt>
      <trkpt lat="42.93805" lon="0.28874">
        <ele>1125</ele>
        <time>2017-02-09T11:58:52.111Z</time>
      </trkpt>
      <trkpt lat="42.93806" lon="0.28874">
        <ele>1125</ele>
        <time>2017-02-09T11:58:53.111Z</time>
      </trkpt>
      <trkpt lat="42.93807" lon="0.28873">
        <ele>1125</ele>
        <time>2017-02-09T11:58:54.111Z</time>
      </trkpt>
      <trkpt lat="42.93808" lon="0.28873">
        <ele>1125</ele>
        <time>2017-02-09T11:58:55.111Z</time>
      </trkpt>
      <trkpt lat="42.93808" lon="0.28872">
        <ele>1125</ele>
        <time>2017-02-09T11:58:56.111Z</time>
      </trkpt>
      <trkpt lat="42.93809" lon="0.28872">
        <ele>1125</ele>
        <time>2017-02-09T11:58:57.111Z</time>
      </trkpt>
      <trkpt lat="42.9381" lon="0.28871">
        <ele>1124</ele>
        <time>2017-02-09T11:58:58.111Z</time>
      </trkpt>
      <trkpt lat="42.93811" lon="0.28871">
        <ele>1124</ele>
        <time>2017-02-09T11:58:59.111Z</time>
      </trkpt>
      <trkpt lat="42.93812" lon="0.2887">
        <ele>1124</ele>
        <time>2017-02-09T11:59:00.111Z</time>
      </trkpt>
      <trkpt lat="42.93812" lon="0.2887">
        <ele>1124</ele>
        <time>2017-02-09T11:59:01.111Z</time>
      </trkpt>
      <trkpt lat="42.93813" lon="0.2887">
        <ele>1124</ele>
        <time>2017-02-09T11:59:02.111Z</time>
      </trkpt>
      <trkpt lat="42.93814" lon="0.28869">
        <ele>1124</ele>
        <time>2017-02-09T11:59:03.111Z</time>
      </trkpt>
      <trkpt lat="42.93815" lon="0.28869">
        <ele>1124</ele>
        <time>2017-02-09T11:59:04.111Z</time>
      </trkpt>
      <trkpt lat="42.93816" lon="0.28868">
        <ele>1124</ele>
        <time>2017-02-09T11:59:05.111Z</time>
      </trkpt>
      <trkpt lat="42.93817" lon="0.28868">
        <ele>1124</ele>
        <time>2017-02-09T11:59:06.111Z</time>
      </trkpt>
      <trkpt lat="42.93818" lon="0.28868">
        <ele>1124</ele>
        <time>2017-02-09T11:59:07.111Z</time>
      </trkpt>
      <trkpt lat="42.93818" lon="0.28867">
        <ele>1124</ele>
        <time>2017-02-09T11:59:08.111Z</time>
      </trkpt>
      <trkpt lat="42.93819" lon="0.28867">
        <ele>1124</ele>
        <time>2017-02-09T11:59:09.111Z</time>
      </trkpt>
      <trkpt lat="42.9382" lon="0.28866">
        <ele>1124</ele>
        <time>2017-02-09T11:59:10.111Z</time>
      </trkpt>
      <trkpt lat="42.93821" lon="0.28866">
        <ele>1124</ele>
        <time>2017-02-09T11:59:11.111Z</time>
      </trkpt>
      <trkpt lat="42.93822" lon="0.28865">
        <ele>1124</ele>
        <time>2017-02-09T11:59:12.111Z</time>
      </trkpt>
      <trkpt lat="42.93823" lon="0.28865">
        <ele>1124</ele>
        <time>2017-02-09T11:59:13.111Z</time>
      </trkpt>
      <trkpt lat="42.93823" lon="0.28865">
        <ele>1124</ele>
        <time>2017-02-09T11:59:14.111Z</time>
      </trkpt>
      <trkpt lat="42.93824" lon="0.28864">
        <ele>1124</ele>
        <time>2017-02-09T11:59:15.111Z</time>
      </trkpt>
      <trkpt lat="42.93825" lon="0.28864">
        <ele>1124</ele>
        <time>2017-02-09T11:59:16.111Z</time>
      </trkpt>
      <trkpt lat="42.93826" lon="0.28863">
        <ele>1124</ele>
        <time>2017-02-09T11:59:17.111Z</time>
      </trkpt>
      <trkpt lat="42.93826" lon="0.28863">
        <ele>1124</ele>
        <time>2017-02-09T11:59:18.111Z</time>
      </trkpt>
      <trkpt lat="42.93827" lon="0.28862">
        <ele>1124</ele>
        <time>2017-02-09T11:59:19.111Z</time>
      </trkpt>
      <trkpt lat="42.93828" lon="0.28862">
        <ele>1124</ele>
        <time>2017-02-09T11:59:20.111Z</time>
      </trkpt>
      <trkpt lat="42.93829" lon="0.28862">
        <ele>1124</ele>
        <time>2017-02-09T11:59:21.111Z</time>
      </trkpt>
      <trkpt lat="42.93829" lon="0.28861">
        <ele>1124</ele>
        <time>2017-02-09T11:59:22.111Z</time>
      </trkpt>
      <trkpt lat="42.9383" lon="0.28861">
        <ele>1124</ele>
        <time>2017-02-09T11:59:23.111Z</time>
      </trkpt>
      <trkpt lat="42.93831" lon="0.2886">
        <ele>1124</ele>
        <time>2017-02-09T11:59:24.111Z</time>
      </trkpt>
      <trkpt lat="42.93832" lon="0.2886">
        <ele>1123</ele>
        <time>2017-02-09T11:59:25.111Z</time>
      </trkpt>
      <trkpt lat="42.93833" lon="0.28859">
        <ele>1123</ele>
        <time>2017-02-09T11:59:26.111Z</time>
      </trkpt>
      <trkpt lat="42.93833" lon="0.28859">
        <ele>1123</ele>
        <time>2017-02-09T11:59:27.111Z</time>
      </trkpt>
      <trkpt lat="42.93834" lon="0.28859">
        <ele>1123</ele>
        <time>2017-02-09T11:59:28.111Z</time>
      </trkpt>
      <trkpt lat="42.93835" lon="0.28858">
        <ele>1123</ele>
        <time>2017-02-09T11:59:29.111Z</time>
      </trkpt>
      <trkpt lat="42.93836" lon="0.28858">
        <ele>1124</ele>
        <time>2017-02-09T11:59:30.111Z</time>
      </trkpt>
      <trkpt lat="42.93837" lon="0.28857">
        <ele>1123</ele>
        <time>2017-02-09T11:59:31.111Z</time>
      </trkpt>
      <trkpt lat="42.93838" lon="0.28857">
        <ele>1123</ele>
        <time>2017-02-09T11:59:32.111Z</time>
      </trkpt>
      <trkpt lat="42.93839" lon="0.28857">
        <ele>1123</ele>
        <time>2017-02-09T11:59:33.111Z</time>
      </trkpt>
      <trkpt lat="42.93839" lon="0.28856">
        <ele>1123</ele>
        <time>2017-02-09T11:59:34.111Z</time>
      </trkpt>
      <trkpt lat="42.9384" lon="0.28856">
        <ele>1123</ele>
        <time>2017-02-09T11:59:35.111Z</time>
      </trkpt>
      <trkpt lat="42.93841" lon="0.28855">
        <ele>1123</ele>
        <time>2017-02-09T11:59:36.111Z</time>
      </trkpt>
      <trkpt lat="42.93842" lon="0.28855">
        <ele>1123</ele>
        <time>2017-02-09T11:59:37.111Z</time>
      </trkpt>
      <trkpt lat="42.93843" lon="0.28854">
        <ele>1123</ele>
        <time>2017-02-09T11:59:38.111Z</time>
      </trkpt>
      <trkpt lat="42.93843" lon="0.28854">
        <ele>1123</ele>
        <time>2017-02-09T11:59:39.111Z</time>
      </trkpt>
      <trkpt lat="42.93844" lon="0.28854">
        <ele>1123</ele>
        <time>2017-02-09T11:59:40.111Z</time>
      </trkpt>
      <trkpt lat="42.93845" lon="0.28853">
        <ele>1123</ele>
        <time>2017-02-09T11:59:41.111Z</time>
      </trkpt>
      <trkpt lat="42.93846" lon="0.28853">
        <ele>1123</ele>
        <time>2017-02-09T11:59:42.111Z</time>
      </trkpt>
      <trkpt lat="42.93847" lon="0.28853">
        <ele>1123</ele>
        <time>2017-02-09T11:59:43.111Z</time>
      </trkpt>
      <trkpt lat="42.93848" lon="0.28852">
        <ele>1123</ele>
        <time>2017-02-09T11:59:44.111Z</time>
      </trkpt>
      <trkpt lat="42.93849" lon="0.28852">
        <ele>1123</ele>
        <time>2017-02-09T11:59:45.111Z</time>
      </trkpt>
      <trkpt lat="42.93849" lon="0.28851">
        <ele>1123</ele>
        <time>2017-02-09T11:59:46.111Z</time>
      </trkpt>
      <trkpt lat="42.9385" lon="0.28851">
        <ele>1123</ele>
        <time>2017-02-09T11:59:47.111Z</time>
      </trkpt>
      <trkpt lat="42.93851" lon="0.2885">
        <ele>1122</ele>
        <time>2017-02-09T11:59:48.111Z</time>
      </trkpt>
      <trkpt lat="42.93852" lon="0.2885">
        <ele>1123</ele>
        <time>2017-02-09T11:59:49.111Z</time>
      </trkpt>
      <trkpt lat="42.93853" lon="0.2885">
        <ele>1122</ele>
        <time>2017-02-09T11:59:50.111Z</time>
      </trkpt>
      <trkpt lat="42.93853" lon="0.2885">
        <ele>1122</ele>
        <time>2017-02-09T11:59:51.111Z</time>
      </trkpt>
      <trkpt lat="42.93854" lon="0.28849">
        <ele>1122</ele>
        <time>2017-02-09T11:59:52.111Z</time>
      </trkpt>
      <trkpt lat="42.93855" lon="0.28849">
        <ele>1122</ele>
        <time>2017-02-09T11:59:53.111Z</time>
      </trkpt>
      <trkpt lat="42.93856" lon="0.28848">
        <ele>1123</ele>
        <time>2017-02-09T11:59:54.111Z</time>
      </trkpt>
      <trkpt lat="42.93857" lon="0.28848">
        <ele>1123</ele>
        <time>2017-02-09T11:59:55.111Z</time>
      </trkpt>
      <trkpt lat="42.93858" lon="0.28848">
        <ele>1122</ele>
        <time>2017-02-09T11:59:56.111Z</time>
      </trkpt>
      <trkpt lat="42.93859" lon="0.28847">
        <ele>1122</ele>
        <time>2017-02-09T11:59:57.111Z</time>
      </trkpt>
      <trkpt lat="42.93859" lon="0.28847">
        <ele>1122</ele>
        <time>2017-02-09T11:59:58.111Z</time>
      </trkpt>
      <trkpt lat="42.9386" lon="0.28847">
        <ele>1122</ele>
        <time>2017-02-09T11:59:59.111Z</time>
      </trkpt>
      <trkpt lat="42.93861" lon="0.28846">
        <ele>1122</ele>
        <time>2017-02-09T12:00:00.111Z</time>
      </trkpt>
      <trkpt lat="42.93862" lon="0.28846">
        <ele>1122</ele>
        <time>2017-02-09T12:00:01.111Z</time>
      </trkpt>
      <trkpt lat="42.93862" lon="0.28845">
        <ele>1122</ele>
        <time>2017-02-09T12:00:02.111Z</time>
      </trkpt>
      <trkpt lat="42.93863" lon="0.28845">
        <ele>1122</ele>
        <time>2017-02-09T12:00:03.111Z</time>
      </trkpt>
      <trkpt lat="42.93864" lon="0.28844">
        <ele>1122</ele>
        <time>2017-02-09T12:00:04.111Z</time>
      </trkpt>
      <trkpt lat="42.93865" lon="0.28844">
        <ele>1122</ele>
        <time>2017-02-09T12:00:05.111Z</time>
      </trkpt>
      <trkpt lat="42.93865" lon="0.28843">
        <ele>1122</ele>
        <time>2017-02-09T12:00:06.111Z</time>
      </trkpt>
      <trkpt lat="42.93866" lon="0.28843">
        <ele>1122</ele>
        <time>2017-02-09T12:00:07.111Z</time>
      </trkpt>
      <trkpt lat="42.93867" lon="0.28843">
        <ele>1122</ele>
        <time>2017-02-09T12:00:08.111Z</time>
      </trkpt>
      <trkpt lat="42.93868" lon="0.28842">
        <ele>1122</ele>
        <time>2017-02-09T12:00:09.111Z</time>
      </trkpt>
      <trkpt lat="42.93869" lon="0.28842">
        <ele>1122</ele>
        <time>2017-02-09T12:00:10.111Z</time>
      </trkpt>
      <trkpt lat="42.93869" lon="0.28841">
        <ele>1121</ele>
        <time>2017-02-09T12:00:11.111Z</time>
      </trkpt>
      <trkpt lat="42.9387" lon="0.28841">
        <ele>1121</ele>
        <time>2017-02-09T12:00:12.111Z</time>
      </trkpt>
      <trkpt lat="42.93871" lon="0.28841">
        <ele>1121</ele>
        <time>2017-02-09T12:00:13.111Z</time>
      </trkpt>
      <trkpt lat="42.93872" lon="0.2884">
        <ele>1121</ele>
        <time>2017-02-09T12:00:14.111Z</time>
      </trkpt>
      <trkpt lat="42.93873" lon="0.2884">
        <ele>1121</ele>
        <time>2017-02-09T12:00:15.111Z</time>
      </trkpt>
      <trkpt lat="42.93874" lon="0.28839">
        <ele>1121</ele>
        <time>2017-02-09T12:00:16.111Z</time>
      </trkpt>
      <trkpt lat="42.93874" lon="0.28839">
        <ele>1121</ele>
        <time>2017-02-09T12:00:17.111Z</time>
      </trkpt>
      <trkpt lat="42.93875" lon="0.28839">
        <ele>1121</ele>
        <time>2017-02-09T12:00:18.111Z</time>
      </trkpt>
      <trkpt lat="42.93876" lon="0.28838">
        <ele>1121</ele>
        <time>2017-02-09T12:00:19.111Z</time>
      </trkpt>
      <trkpt lat="42.93877" lon="0.28838">
        <ele>1121</ele>
        <time>2017-02-09T12:00:20.111Z</time>
      </trkpt>
      <trkpt lat="42.93877" lon="0.28837">
        <ele>1121</ele>
        <time>2017-02-09T12:00:21.111Z</time>
      </trkpt>
      <trkpt lat="42.93878" lon="0.28837">
        <ele>1121</ele>
        <time>2017-02-09T12:00:22.111Z</time>
      </trkpt>
      <trkpt lat="42.93879" lon="0.28837">
        <ele>1121</ele>
        <time>2017-02-09T12:00:23.111Z</time>
      </trkpt>
      <trkpt lat="42.9388" lon="0.28836">
        <ele>1121</ele>
        <time>2017-02-09T12:00:24.111Z</time>
      </trkpt>
      <trkpt lat="42.9388" lon="0.28836">
        <ele>1121</ele>
        <time>2017-02-09T12:00:25.111Z</time>
      </trkpt>
      <trkpt lat="42.93881" lon="0.28836">
        <ele>1121</ele>
        <time>2017-02-09T12:00:26.111Z</time>
      </trkpt>
      <trkpt lat="42.93882" lon="0.28835">
        <ele>1121</ele>
        <time>2017-02-09T12:00:27.111Z</time>
      </trkpt>
      <trkpt lat="42.93883" lon="0.28835">
        <ele>1121</ele>
        <time>2017-02-09T12:00:28.111Z</time>
      </trkpt>
      <trkpt lat="42.93883" lon="0.28834">
        <ele>1121</ele>
        <time>2017-02-09T12:00:29.111Z</time>
      </trkpt>
      <trkpt lat="42.93884" lon="0.28834">
        <ele>1121</ele>
        <time>2017-02-09T12:00:30.111Z</time>
      </trkpt>
      <trkpt lat="42.93885" lon="0.28833">
        <ele>1121</ele>
        <time>2017-02-09T12:00:31.111Z</time>
      </trkpt>
      <trkpt lat="42.93886" lon="0.28833">
        <ele>1121</ele>
        <time>2017-02-09T12:00:32.111Z</time>
      </trkpt>
      <trkpt lat="42.93886" lon="0.28832">
        <ele>1121</ele>
        <time>2017-02-09T12:00:33.111Z</time>
      </trkpt>
      <trkpt lat="42.93887" lon="0.28832">
        <ele>1121</ele>
        <time>2017-02-09T12:00:34.111Z</time>
      </trkpt>
      <trkpt lat="42.93888" lon="0.28832">
        <ele>1121</ele>
        <time>2017-02-09T12:00:35.111Z</time>
      </trkpt>
      <trkpt lat="42.93889" lon="0.28831">
        <ele>1121</ele>
        <time>2017-02-09T12:00:36.111Z</time>
      </trkpt>
      <trkpt lat="42.9389" lon="0.28831">
        <ele>1120</ele>
        <time>2017-02-09T12:00:37.111Z</time>
      </trkpt>
      <trkpt lat="42.9389" lon="0.2883">
        <ele>1120</ele>
        <time>2017-02-09T12:00:38.111Z</time>
      </trkpt>
      <trkpt lat="42.93891" lon="0.2883">
        <ele>1120</ele>
        <time>2017-02-09T12:00:39.111Z</time>
      </trkpt>
      <trkpt lat="42.93892" lon="0.2883">
        <ele>1120</ele>
        <time>2017-02-09T12:00:40.111Z</time>
      </trkpt>
      <trkpt lat="42.93893" lon="0.28829">
        <ele>1120</ele>
        <time>2017-02-09T12:00:41.111Z</time>
      </trkpt>
      <trkpt lat="42.93893" lon="0.28829">
        <ele>1120</ele>
        <time>2017-02-09T12:00:42.111Z</time>
      </trkpt>
      <trkpt lat="42.93894" lon="0.28828">
        <ele>1120</ele>
        <time>2017-02-09T12:00:43.111Z</time>
      </trkpt>
      <trkpt lat="42.93895" lon="0.28827">
        <ele>1120</ele>
        <time>2017-02-09T12:00:44.111Z</time>
      </trkpt>
      <trkpt lat="42.93895" lon="0.28827">
        <ele>1120</ele>
        <time>2017-02-09T12:00:45.111Z</time>
      </trkpt>
      <trkpt lat="42.93896" lon="0.28826">
        <ele>1121</ele>
        <time>2017-02-09T12:00:46.111Z</time>
      </trkpt>
      <trkpt lat="42.93897" lon="0.28826">
        <ele>1120</ele>
        <time>2017-02-09T12:00:47.111Z</time>
      </trkpt>
      <trkpt lat="42.93898" lon="0.28825">
        <ele>1120</ele>
        <time>2017-02-09T12:00:48.111Z</time>
      </trkpt>
      <trkpt lat="42.93898" lon="0.28825">
        <ele>1120</ele>
        <time>2017-02-09T12:00:49.111Z</time>
      </trkpt>
      <trkpt lat="42.93899" lon="0.28824">
        <ele>1121</ele>
        <time>2017-02-09T12:00:50.111Z</time>
      </trkpt>
      <trkpt lat="42.939" lon="0.28824">
        <ele>1121</ele>
        <time>2017-02-09T12:00:51.111Z</time>
      </trkpt>
      <trkpt lat="42.93901" lon="0.28823">
        <ele>1121</ele>
        <time>2017-02-09T12:00:52.111Z</time>
      </trkpt>
      <trkpt lat="42.93901" lon="0.28823">
        <ele>1121</ele>
        <time>2017-02-09T12:00:53.111Z</time>
      </trkpt>
      <trkpt lat="42.93902" lon="0.28822">
        <ele>1121</ele>
        <time>2017-02-09T12:00:54.111Z</time>
      </trkpt>
      <trkpt lat="42.93903" lon="0.28822">
        <ele>1121</ele>
        <time>2017-02-09T12:00:55.111Z</time>
      </trkpt>
      <trkpt lat="42.93904" lon="0.28821">
        <ele>1121</ele>
        <time>2017-02-09T12:00:56.111Z</time>
      </trkpt>
      <trkpt lat="42.93904" lon="0.2882">
        <ele>1121</ele>
        <time>2017-02-09T12:00:57.111Z</time>
      </trkpt>
      <trkpt lat="42.93905" lon="0.2882">
        <ele>1120</ele>
        <time>2017-02-09T12:00:58.111Z</time>
      </trkpt>
      <trkpt lat="42.93906" lon="0.28819">
        <ele>1121</ele>
        <time>2017-02-09T12:00:59.111Z</time>
      </trkpt>
      <trkpt lat="42.93906" lon="0.28819">
        <ele>1121</ele>
        <time>2017-02-09T12:01:00.111Z</time>
      </trkpt>
      <trkpt lat="42.93907" lon="0.28819">
        <ele>1121</ele>
        <time>2017-02-09T12:01:01.111Z</time>
      </trkpt>
      <trkpt lat="42.93908" lon="0.28818">
        <ele>1121</ele>
        <time>2017-02-09T12:01:02.111Z</time>
      </trkpt>
      <trkpt lat="42.93909" lon="0.28817">
        <ele>1121</ele>
        <time>2017-02-09T12:01:03.111Z</time>
      </trkpt>
      <trkpt lat="42.93909" lon="0.28817">
        <ele>1121</ele>
        <time>2017-02-09T12:01:04.111Z</time>
      </trkpt>
      <trkpt lat="42.9391" lon="0.28816">
        <ele>1121</ele>
        <time>2017-02-09T12:01:05.111Z</time>
      </trkpt>
      <trkpt lat="42.93911" lon="0.28816">
        <ele>1121</ele>
        <time>2017-02-09T12:01:06.111Z</time>
      </trkpt>
      <trkpt lat="42.93911" lon="0.28815">
        <ele>1121</ele>
        <time>2017-02-09T12:01:07.111Z</time>
      </trkpt>
      <trkpt lat="42.93912" lon="0.28815">
        <ele>1121</ele>
        <time>2017-02-09T12:01:08.111Z</time>
      </trkpt>
      <trkpt lat="42.93913" lon="0.28814">
        <ele>1121</ele>
        <time>2017-02-09T12:01:09.111Z</time>
      </trkpt>
      <trkpt lat="42.93913" lon="0.28814">
        <ele>1121</ele>
        <time>2017-02-09T12:01:10.111Z</time>
      </trkpt>
      <trkpt lat="42.93914" lon="0.28814">
        <ele>1121</ele>
        <time>2017-02-09T12:01:11.111Z</time>
      </trkpt>
      <trkpt lat="42.93914" lon="0.28813">
        <ele>1121</ele>
        <time>2017-02-09T12:01:12.111Z</time>
      </trkpt>
      <trkpt lat="42.93915" lon="0.28813">
        <ele>1120</ele>
        <time>2017-02-09T12:01:13.111Z</time>
      </trkpt>
      <trkpt lat="42.93916" lon="0.28812">
        <ele>1120</ele>
        <time>2017-02-09T12:01:14.111Z</time>
      </trkpt>
      <trkpt lat="42.93916" lon="0.28812">
        <ele>1120</ele>
        <time>2017-02-09T12:01:15.111Z</time>
      </trkpt>
      <trkpt lat="42.93917" lon="0.28811">
        <ele>1121</ele>
        <time>2017-02-09T12:01:16.111Z</time>
      </trkpt>
      <trkpt lat="42.93918" lon="0.2881">
        <ele>1120</ele>
        <time>2017-02-09T12:01:17.111Z</time>
      </trkpt>
      <trkpt lat="42.93918" lon="0.2881">
        <ele>1120</ele>
        <time>2017-02-09T12:01:18.111Z</time>
      </trkpt>
      <trkpt lat="42.93919" lon="0.28809">
        <ele>1120</ele>
        <time>2017-02-09T12:01:19.111Z</time>
      </trkpt>
      <trkpt lat="42.93919" lon="0.28809">
        <ele>1120</ele>
        <time>2017-02-09T12:01:20.111Z</time>
      </trkpt>
      <trkpt lat="42.9392" lon="0.28808">
        <ele>1120</ele>
        <time>2017-02-09T12:01:21.111Z</time>
      </trkpt>
      <trkpt lat="42.93921" lon="0.28808">
        <ele>1120</ele>
        <time>2017-02-09T12:01:22.111Z</time>
      </trkpt>
      <trkpt lat="42.93921" lon="0.28807">
        <ele>1120</ele>
        <time>2017-02-09T12:01:23.111Z</time>
      </trkpt>
      <trkpt lat="42.93922" lon="0.28807">
        <ele>1120</ele>
        <time>2017-02-09T12:01:24.111Z</time>
      </trkpt>
      <trkpt lat="42.93922" lon="0.28806">
        <ele>1120</ele>
        <time>2017-02-09T12:01:25.111Z</time>
      </trkpt>
      <trkpt lat="42.93923" lon="0.28806">
        <ele>1120</ele>
        <time>2017-02-09T12:01:26.111Z</time>
      </trkpt>
      <trkpt lat="42.93924" lon="0.28805">
        <ele>1120</ele>
        <time>2017-02-09T12:01:27.111Z</time>
      </trkpt>
      <trkpt lat="42.93924" lon="0.28805">
        <ele>1120</ele>
        <time>2017-02-09T12:01:28.111Z</time>
      </trkpt>
      <trkpt lat="42.93925" lon="0.28804">
        <ele>1120</ele>
        <time>2017-02-09T12:01:29.111Z</time>
      </trkpt>
      <trkpt lat="42.93925" lon="0.28804">
        <ele>1120</ele>
        <time>2017-02-09T12:01:30.111Z</time>
      </trkpt>
      <trkpt lat="42.93926" lon="0.28803">
        <ele>1120</ele>
        <time>2017-02-09T12:01:31.111Z</time>
      </trkpt>
      <trkpt lat="42.93927" lon="0.28803">
        <ele>1120</ele>
        <time>2017-02-09T12:01:32.111Z</time>
      </trkpt>
      <trkpt lat="42.93927" lon="0.28802">
        <ele>1120</ele>
        <time>2017-02-09T12:01:33.111Z</time>
      </trkpt>
      <trkpt lat="42.93928" lon="0.28801">
        <ele>1120</ele>
        <time>2017-02-09T12:01:34.111Z</time>
      </trkpt>
      <trkpt lat="42.93928" lon="0.288">
        <ele>1120</ele>
        <time>2017-02-09T12:01:35.111Z</time>
      </trkpt>
      <trkpt lat="42.93929" lon="0.288">
        <ele>1120</ele>
        <time>2017-02-09T12:01:36.111Z</time>
      </trkpt>
      <trkpt lat="42.93929" lon="0.28799">
        <ele>1120</ele>
        <time>2017-02-09T12:01:37.111Z</time>
      </trkpt>
      <trkpt lat="42.9393" lon="0.28798">
        <ele>1120</ele>
        <time>2017-02-09T12:01:38.111Z</time>
      </trkpt>
      <trkpt lat="42.9393" lon="0.28798">
        <ele>1120</ele>
        <time>2017-02-09T12:01:39.111Z</time>
      </trkpt>
      <trkpt lat="42.93931" lon="0.28797">
        <ele>1120</ele>
        <time>2017-02-09T12:01:40.111Z</time>
      </trkpt>
      <trkpt lat="42.93931" lon="0.28796">
        <ele>1121</ele>
        <time>2017-02-09T12:01:41.111Z</time>
      </trkpt>
      <trkpt lat="42.93932" lon="0.28796">
        <ele>1120</ele>
        <time>2017-02-09T12:01:42.111Z</time>
      </trkpt>
      <trkpt lat="42.93932" lon="0.28795">
        <ele>1120</ele>
        <time>2017-02-09T12:01:43.111Z</time>
      </trkpt>
      <trkpt lat="42.93933" lon="0.28795">
        <ele>1120</ele>
        <time>2017-02-09T12:01:44.111Z</time>
      </trkpt>
      <trkpt lat="42.93933" lon="0.28794">
        <ele>1120</ele>
        <time>2017-02-09T12:01:45.111Z</time>
      </trkpt>
      <trkpt lat="42.93934" lon="0.28793">
        <ele>1120</ele>
        <time>2017-02-09T12:01:46.111Z</time>
      </trkpt>
      <trkpt lat="42.93934" lon="0.28793">
        <ele>1120</ele>
        <time>2017-02-09T12:01:47.111Z</time>
      </trkpt>
      <trkpt lat="42.93935" lon="0.28792">
        <ele>1120</ele>
        <time>2017-02-09T12:01:48.111Z</time>
      </trkpt>
      <trkpt lat="42.93935" lon="0.28791">
        <ele>1120</ele>
        <time>2017-02-09T12:01:49.111Z</time>
      </trkpt>
      <trkpt lat="42.93936" lon="0.28791">
        <ele>1120</ele>
        <time>2017-02-09T12:01:50.111Z</time>
      </trkpt>
      <trkpt lat="42.93936" lon="0.2879">
        <ele>1120</ele>
        <time>2017-02-09T12:01:51.111Z</time>
      </trkpt>
      <trkpt lat="42.93937" lon="0.28789">
        <ele>1120</ele>
        <time>2017-02-09T12:01:52.111Z</time>
      </trkpt>
      <trkpt lat="42.93937" lon="0.28789">
        <ele>1120</ele>
        <time>2017-02-09T12:01:53.111Z</time>
      </trkpt>
      <trkpt lat="42.93938" lon="0.28788">
        <ele>1120</ele>
        <time>2017-02-09T12:01:54.111Z</time>
      </trkpt>
      <trkpt lat="42.93938" lon="0.28787">
        <ele>1119</ele>
        <time>2017-02-09T12:01:55.111Z</time>
      </trkpt>
      <trkpt lat="42.93939" lon="0.28787">
        <ele>1119</ele>
        <time>2017-02-09T12:01:56.111Z</time>
      </trkpt>
      <trkpt lat="42.93939" lon="0.28786">
        <ele>1119</ele>
        <time>2017-02-09T12:01:57.111Z</time>
      </trkpt>
      <trkpt lat="42.9394" lon="0.28785">
        <ele>1119</ele>
        <time>2017-02-09T12:01:58.111Z</time>
      </trkpt>
      <trkpt lat="42.9394" lon="0.28784">
        <ele>1119</ele>
        <time>2017-02-09T12:01:59.111Z</time>
      </trkpt>
      <trkpt lat="42.9394" lon="0.28784">
        <ele>1119</ele>
        <time>2017-02-09T12:02:00.111Z</time>
      </trkpt>
      <trkpt lat="42.93941" lon="0.28783">
        <ele>1119</ele>
        <time>2017-02-09T12:02:01.111Z</time>
      </trkpt>
      <trkpt lat="42.93941" lon="0.28782">
        <ele>1119</ele>
        <time>2017-02-09T12:02:02.111Z</time>
      </trkpt>
      <trkpt lat="42.93942" lon="0.28781">
        <ele>1119</ele>
        <time>2017-02-09T12:02:03.111Z</time>
      </trkpt>
      <trkpt lat="42.93942" lon="0.28781">
        <ele>1119</ele>
        <time>2017-02-09T12:02:04.111Z</time>
      </trkpt>
      <trkpt lat="42.93943" lon="0.2878">
        <ele>1119</ele>
        <time>2017-02-09T12:02:05.111Z</time>
      </trkpt>
      <trkpt lat="42.93943" lon="0.28779">
        <ele>1119</ele>
        <time>2017-02-09T12:02:06.111Z</time>
      </trkpt>
      <trkpt lat="42.93944" lon="0.28779">
        <ele>1119</ele>
        <time>2017-02-09T12:02:07.111Z</time>
      </trkpt>
      <trkpt lat="42.93944" lon="0.28778">
        <ele>1119</ele>
        <time>2017-02-09T12:02:08.111Z</time>
      </trkpt>
      <trkpt lat="42.93944" lon="0.28777">
        <ele>1119</ele>
        <time>2017-02-09T12:02:09.111Z</time>
      </trkpt>
      <trkpt lat="42.93945" lon="0.28776">
        <ele>1119</ele>
        <time>2017-02-09T12:02:10.111Z</time>
      </trkpt>
      <trkpt lat="42.93945" lon="0.28776">
        <ele>1119</ele>
        <time>2017-02-09T12:02:11.111Z</time>
      </trkpt>
      <trkpt lat="42.93946" lon="0.28775">
        <ele>1119</ele>
        <time>2017-02-09T12:02:12.111Z</time>
      </trkpt>
      <trkpt lat="42.93946" lon="0.28774">
        <ele>1119</ele>
        <time>2017-02-09T12:02:13.111Z</time>
      </trkpt>
      <trkpt lat="42.93946" lon="0.28773">
        <ele>1119</ele>
        <time>2017-02-09T12:02:14.111Z</time>
      </trkpt>
      <trkpt lat="42.93947" lon="0.28772">
        <ele>1119</ele>
        <time>2017-02-09T12:02:15.111Z</time>
      </trkpt>
      <trkpt lat="42.93947" lon="0.28772">
        <ele>1119</ele>
        <time>2017-02-09T12:02:16.111Z</time>
      </trkpt>
      <trkpt lat="42.93948" lon="0.28771">
        <ele>1120</ele>
        <time>2017-02-09T12:02:17.111Z</time>
      </trkpt>
      <trkpt lat="42.93948" lon="0.2877">
        <ele>1119</ele>
        <time>2017-02-09T12:02:18.111Z</time>
      </trkpt>
      <trkpt lat="42.93948" lon="0.28769">
        <ele>1119</ele>
        <time>2017-02-09T12:02:19.111Z</time>
      </trkpt>
      <trkpt lat="42.93949" lon="0.28768">
        <ele>1119</ele>
        <time>2017-02-09T12:02:20.111Z</time>
      </trkpt>
      <trkpt lat="42.93949" lon="0.28767">
        <ele>1119</ele>
        <time>2017-02-09T12:02:21.111Z</time>
      </trkpt>
      <trkpt lat="42.93949" lon="0.28767">
        <ele>1119</ele>
        <time>2017-02-09T12:02:22.111Z</time>
      </trkpt>
      <trkpt lat="42.9395" lon="0.28766">
        <ele>1119</ele>
        <time>2017-02-09T12:02:23.111Z</time>
      </trkpt>
      <trkpt lat="42.9395" lon="0.28765">
        <ele>1119</ele>
        <time>2017-02-09T12:02:24.111Z</time>
      </trkpt>
      <trkpt lat="42.9395" lon="0.28764">
        <ele>1119</ele>
        <time>2017-02-09T12:02:25.111Z</time>
      </trkpt>
      <trkpt lat="42.93951" lon="0.28763">
        <ele>1119</ele>
        <time>2017-02-09T12:02:26.111Z</time>
      </trkpt>
      <trkpt lat="42.93951" lon="0.28762">
        <ele>1119</ele>
        <time>2017-02-09T12:02:27.111Z</time>
      </trkpt>
      <trkpt lat="42.93952" lon="0.28762">
        <ele>1119</ele>
        <time>2017-02-09T12:02:28.111Z</time>
      </trkpt>
      <trkpt lat="42.93952" lon="0.28761">
        <ele>1119</ele>
        <time>2017-02-09T12:02:29.111Z</time>
      </trkpt>
      <trkpt lat="42.93952" lon="0.2876">
        <ele>1119</ele>
        <time>2017-02-09T12:02:30.111Z</time>
      </trkpt>
      <trkpt lat="42.93953" lon="0.28759">
        <ele>1119</ele>
        <time>2017-02-09T12:02:31.111Z</time>
      </trkpt>
      <trkpt lat="42.93953" lon="0.28758">
        <ele>1119</ele>
        <time>2017-02-09T12:02:32.111Z</time>
      </trkpt>
      <trkpt lat="42.93953" lon="0.28757">
        <ele>1119</ele>
        <time>2017-02-09T12:02:33.111Z</time>
      </trkpt>
      <trkpt lat="42.93953" lon="0.28756">
        <ele>1119</ele>
        <time>2017-02-09T12:02:34.111Z</time>
      </trkpt>
      <trkpt lat="42.93954" lon="0.28755">
        <ele>1118</ele>
        <time>2017-02-09T12:02:35.111Z</time>
      </trkpt>
      <trkpt lat="42.93954" lon="0.28754">
        <ele>1118</ele>
        <time>2017-02-09T12:02:36.111Z</time>
      </trkpt>
      <trkpt lat="42.93954" lon="0.28753">
        <ele>1119</ele>
        <time>2017-02-09T12:02:37.111Z</time>
      </trkpt>
      <trkpt lat="42.93954" lon="0.28752">
        <ele>1119</ele>
        <time>2017-02-09T12:02:38.111Z</time>
      </trkpt>
      <trkpt lat="42.93955" lon="0.28751">
        <ele>1118</ele>
        <time>2017-02-09T12:02:39.111Z</time>
      </trkpt>
      <trkpt lat="42.93955" lon="0.2875">
        <ele>1118</ele>
        <time>2017-02-09T12:02:40.111Z</time>
      </trkpt>
      <trkpt lat="42.93955" lon="0.28749">
        <ele>1119</ele>
        <time>2017-02-09T12:02:41.111Z</time>
      </trkpt>
      <trkpt lat="42.93956" lon="0.28748">
        <ele>1118</ele>
        <time>2017-02-09T12:02:42.111Z</time>
      </trkpt>
      <trkpt lat="42.93956" lon="0.28747">
        <ele>1119</ele>
        <time>2017-02-09T12:02:43.111Z</time>
      </trkpt>
      <trkpt lat="42.93956" lon="0.28746">
        <ele>1119</ele>
        <time>2017-02-09T12:02:44.111Z</time>
      </trkpt>
      <trkpt lat="42.93957" lon="0.28745">
        <ele>1119</ele>
        <time>2017-02-09T12:02:45.111Z</time>
      </trkpt>
      <trkpt lat="42.93957" lon="0.28744">
        <ele>1119</ele>
        <time>2017-02-09T12:02:46.111Z</time>
      </trkpt>
      <trkpt lat="42.93958" lon="0.28743">
        <ele>1118</ele>
        <time>2017-02-09T12:02:47.111Z</time>
      </trkpt>
      <trkpt lat="42.93958" lon="0.28743">
        <ele>1118</ele>
        <time>2017-02-09T12:02:48.111Z</time>
      </trkpt>
      <trkpt lat="42.93958" lon="0.28742">
        <ele>1119</ele>
        <time>2017-02-09T12:02:49.111Z</time>
      </trkpt>
      <trkpt lat="42.93958" lon="0.28741">
        <ele>1118</ele>
        <time>2017-02-09T12:02:50.111Z</time>
      </trkpt>
      <trkpt lat="42.93959" lon="0.2874">
        <ele>1118</ele>
        <time>2017-02-09T12:02:51.111Z</time>
      </trkpt>
      <trkpt lat="42.93959" lon="0.28739">
        <ele>1118</ele>
        <time>2017-02-09T12:02:52.111Z</time>
      </trkpt>
      <trkpt lat="42.93959" lon="0.28738">
        <ele>1118</ele>
        <time>2017-02-09T12:02:53.111Z</time>
      </trkpt>
      <trkpt lat="42.9396" lon="0.28737">
        <ele>1118</ele>
        <time>2017-02-09T12:02:54.111Z</time>
      </trkpt>
      <trkpt lat="42.9396" lon="0.28736">
        <ele>1118</ele>
        <time>2017-02-09T12:02:55.111Z</time>
      </trkpt>
      <trkpt lat="42.9396" lon="0.28735">
        <ele>1118</ele>
        <time>2017-02-09T12:02:56.111Z</time>
      </trkpt>
      <trkpt lat="42.9396" lon="0.28734">
        <ele>1118</ele>
        <time>2017-02-09T12:02:57.111Z</time>
      </trkpt>
      <trkpt lat="42.93961" lon="0.28733">
        <ele>1118</ele>
        <time>2017-02-09T12:02:58.111Z</time>
      </trkpt>
      <trkpt lat="42.93961" lon="0.28732">
        <ele>1118</ele>
        <time>2017-02-09T12:02:59.111Z</time>
      </trkpt>
      <trkpt lat="42.93961" lon="0.28731">
        <ele>1118</ele>
        <time>2017-02-09T12:03:00.111Z</time>
      </trkpt>
      <trkpt lat="42.93961" lon="0.2873">
        <ele>1118</ele>
        <time>2017-02-09T12:03:01.111Z</time>
      </trkpt>
      <trkpt lat="42.93962" lon="0.28729">
        <ele>1118</ele>
        <time>2017-02-09T12:03:02.111Z</time>
      </trkpt>
      <trkpt lat="42.93962" lon="0.28728">
        <ele>1118</ele>
        <time>2017-02-09T12:03:03.111Z</time>
      </trkpt>
      <trkpt lat="42.93962" lon="0.28727">
        <ele>1118</ele>
        <time>2017-02-09T12:03:04.111Z</time>
      </trkpt>
      <trkpt lat="42.93962" lon="0.28726">
        <ele>1118</ele>
        <time>2017-02-09T12:03:05.111Z</time>
      </trkpt>
      <trkpt lat="42.93963" lon="0.28725">
        <ele>1118</ele>
        <time>2017-02-09T12:03:06.111Z</time>
      </trkpt>
      <trkpt lat="42.93963" lon="0.28724">
        <ele>1118</ele>
        <time>2017-02-09T12:03:07.111Z</time>
      </trkpt>
      <trkpt lat="42.93964" lon="0.28723">
        <ele>1118</ele>
        <time>2017-02-09T12:03:08.111Z</time>
      </trkpt>
      <trkpt lat="42.93964" lon="0.28722">
        <ele>1118</ele>
        <time>2017-02-09T12:03:09.111Z</time>
      </trkpt>
      <trkpt lat="42.93964" lon="0.28721">
        <ele>1118</ele>
        <time>2017-02-09T12:03:10.111Z</time>
      </trkpt>
      <trkpt lat="42.93965" lon="0.2872">
        <ele>1118</ele>
        <time>2017-02-09T12:03:11.111Z</time>
      </trkpt>
      <trkpt lat="42.93965" lon="0.28719">
        <ele>1118</ele>
        <time>2017-02-09T12:03:12.111Z</time>
      </trkpt>
      <trkpt lat="42.93965" lon="0.28718">
        <ele>1118</ele>
        <time>2017-02-09T12:03:13.111Z</time>
      </trkpt>
      <trkpt lat="42.93966" lon="0.28717">
        <ele>1118</ele>
        <time>2017-02-09T12:03:14.111Z</time>
      </trkpt>
      <trkpt lat="42.93966" lon="0.28716">
        <ele>1118</ele>
        <time>2017-02-09T12:03:15.111Z</time>
      </trkpt>
      <trkpt lat="42.93966" lon="0.28715">
        <ele>1118</ele>
        <time>2017-02-09T12:03:16.111Z</time>
      </trkpt>
      <trkpt lat="42.93967" lon="0.28714">
        <ele>1118</ele>
        <time>2017-02-09T12:03:17.111Z</time>
      </trkpt>
      <trkpt lat="42.93967" lon="0.28714">
        <ele>1118</ele>
        <time>2017-02-09T12:03:18.111Z</time>
      </trkpt>
      <trkpt lat="42.93967" lon="0.28713">
        <ele>1118</ele>
        <time>2017-02-09T12:03:19.111Z</time>
      </trkpt>
      <trkpt lat="42.93968" lon="0.28712">
        <ele>1118</ele>
        <time>2017-02-09T12:03:20.111Z</time>
      </trkpt>
      <trkpt lat="42.93968" lon="0.28711">
        <ele>1118</ele>
        <time>2017-02-09T12:03:21.111Z</time>
      </trkpt>
      <trkpt lat="42.93968" lon="0.2871">
        <ele>1118</ele>
        <time>2017-02-09T12:03:22.111Z</time>
      </trkpt>
      <trkpt lat="42.93968" lon="0.28709">
        <ele>1118</ele>
        <time>2017-02-09T12:03:23.111Z</time>
      </trkpt>
      <trkpt lat="42.93969" lon="0.28708">
        <ele>1118</ele>
        <time>2017-02-09T12:03:24.111Z</time>
      </trkpt>
      <trkpt lat="42.93969" lon="0.28708">
        <ele>1118</ele>
        <time>2017-02-09T12:03:25.111Z</time>
      </trkpt>
      <trkpt lat="42.93969" lon="0.28707">
        <ele>1118</ele>
        <time>2017-02-09T12:03:26.111Z</time>
      </trkpt>
      <trkpt lat="42.9397" lon="0.28706">
        <ele>1118</ele>
        <time>2017-02-09T12:03:27.111Z</time>
      </trkpt>
      <trkpt lat="42.9397" lon="0.28705">
        <ele>1118</ele>
        <time>2017-02-09T12:03:28.111Z</time>
      </trkpt>
      <trkpt lat="42.9397" lon="0.28704">
        <ele>1118</ele>
        <time>2017-02-09T12:03:29.111Z</time>
      </trkpt>
      <trkpt lat="42.93971" lon="0.28703">
        <ele>1118</ele>
        <time>2017-02-09T12:03:30.111Z</time>
      </trkpt>
      <trkpt lat="42.93971" lon="0.28702">
        <ele>1117</ele>
        <time>2017-02-09T12:03:31.111Z</time>
      </trkpt>
      <trkpt lat="42.93971" lon="0.28702">
        <ele>1117</ele>
        <time>2017-02-09T12:03:32.111Z</time>
      </trkpt>
      <trkpt lat="42.93972" lon="0.28702">
        <ele>1117</ele>
        <time>2017-02-09T12:03:33.111Z</time>
      </trkpt>
      <trkpt lat="42.93972" lon="0.28702">
        <ele>1117</ele>
        <time>2017-02-09T12:03:34.111Z</time>
      </trkpt>
      <trkpt lat="42.93972" lon="0.28701">
        <ele>1117</ele>
        <time>2017-02-09T12:03:35.111Z</time>
      </trkpt>
      <trkpt lat="42.93972" lon="0.28701">
        <ele>1117</ele>
        <time>2017-02-09T12:03:36.111Z</time>
      </trkpt>
      <trkpt lat="42.93972" lon="0.28702">
        <ele>1117</ele>
        <time>2017-02-09T12:03:37.111Z</time>
      </trkpt>
      <trkpt lat="42.93972" lon="0.28702">
        <ele>1117</ele>
        <time>2017-02-09T12:03:38.111Z</time>
      </trkpt>
      <trkpt lat="42.93971" lon="0.28701">
        <ele>1117</ele>
        <time>2017-02-09T12:03:39.111Z</time>
      </trkpt>
      <trkpt lat="42.93972" lon="0.28699">
        <ele>1117</ele>
        <time>2017-02-09T12:03:40.107Z</time>
      </trkpt>
      <trkpt lat="42.93972" lon="0.28699">
        <ele>1117</ele>
        <time>2017-02-09T12:03:41.107Z</time>
      </trkpt>
      <trkpt lat="42.93972" lon="0.28699">
        <ele>1117</ele>
        <time>2017-02-09T12:03:42.107Z</time>
      </trkpt>
      <trkpt lat="42.93972" lon="0.28699">
        <ele>1117</ele>
        <time>2017-02-09T12:03:43.107Z</time>
      </trkpt>
      <trkpt lat="42.93972" lon="0.28699">
        <ele>1117</ele>
        <time>2017-02-09T12:03:44.107Z</time>
      </trkpt>
      <trkpt lat="42.93972" lon="0.28699">
        <ele>1117</ele>
        <time>2017-02-09T12:03:45.107Z</time>
      </trkpt>
      <trkpt lat="42.93973" lon="0.28696">
        <ele>1116</ele>
        <time>2017-02-09T12:03:46.119Z</time>
      </trkpt>
      <trkpt lat="42.93973" lon="0.28696">
        <ele>1116</ele>
        <time>2017-02-09T12:03:47.119Z</time>
      </trkpt>
      <trkpt lat="42.93973" lon="0.28695">
        <ele>1116</ele>
        <time>2017-02-09T12:03:48.119Z</time>
      </trkpt>
      <trkpt lat="42.93973" lon="0.28695">
        <ele>1116</ele>
        <time>2017-02-09T12:03:49.119Z</time>
      </trkpt>
      <trkpt lat="42.93974" lon="0.28694">
        <ele>1116</ele>
        <time>2017-02-09T12:03:50.119Z</time>
      </trkpt>
      <trkpt lat="42.93974" lon="0.28693">
        <ele>1116</ele>
        <time>2017-02-09T12:03:51.119Z</time>
      </trkpt>
      <trkpt lat="42.93974" lon="0.28692">
        <ele>1116</ele>
        <time>2017-02-09T12:03:52.119Z</time>
      </trkpt>
      <trkpt lat="42.93975" lon="0.28691">
        <ele>1116</ele>
        <time>2017-02-09T12:03:53.119Z</time>
      </trkpt>
      <trkpt lat="42.93975" lon="0.2869">
        <ele>1116</ele>
        <time>2017-02-09T12:03:54.119Z</time>
      </trkpt>
      <trkpt lat="42.93975" lon="0.28689">
        <ele>1116</ele>
        <time>2017-02-09T12:03:55.119Z</time>
      </trkpt>
      <trkpt lat="42.93976" lon="0.28688">
        <ele>1116</ele>
        <time>2017-02-09T12:03:56.119Z</time>
      </trkpt>
      <trkpt lat="42.93976" lon="0.28687">
        <ele>1116</ele>
        <time>2017-02-09T12:03:57.119Z</time>
      </trkpt>
      <trkpt lat="42.93976" lon="0.28686">
        <ele>1116</ele>
        <time>2017-02-09T12:03:58.119Z</time>
      </trkpt>
      <trkpt lat="42.93977" lon="0.28685">
        <ele>1116</ele>
        <time>2017-02-09T12:03:59.119Z</time>
      </trkpt>
      <trkpt lat="42.93977" lon="0.28685">
        <ele>1116</ele>
        <time>2017-02-09T12:04:00.119Z</time>
      </trkpt>
      <trkpt lat="42.93977" lon="0.28684">
        <ele>1116</ele>
        <time>2017-02-09T12:04:01.119Z</time>
      </trkpt>
      <trkpt lat="42.93978" lon="0.28683">
        <ele>1116</ele>
        <time>2017-02-09T12:04:02.119Z</time>
      </trkpt>
      <trkpt lat="42.93978" lon="0.28682">
        <ele>1116</ele>
        <time>2017-02-09T12:04:03.119Z</time>
      </trkpt>
      <trkpt lat="42.93978" lon="0.2868">
        <ele>1116</ele>
        <time>2017-02-09T12:04:04.119Z</time>
      </trkpt>
      <trkpt lat="42.93979" lon="0.28679">
        <ele>1116</ele>
        <time>2017-02-09T12:04:05.119Z</time>
      </trkpt>
      <trkpt lat="42.93979" lon="0.28678">
        <ele>1116</ele>
        <time>2017-02-09T12:04:06.119Z</time>
      </trkpt>
      <trkpt lat="42.93979" lon="0.28677">
        <ele>1116</ele>
        <time>2017-02-09T12:04:07.119Z</time>
      </trkpt>
      <trkpt lat="42.9398" lon="0.28676">
        <ele>1117</ele>
        <time>2017-02-09T12:04:08.119Z</time>
      </trkpt>
      <trkpt lat="42.9398" lon="0.28675">
        <ele>1116</ele>
        <time>2017-02-09T12:04:09.119Z</time>
      </trkpt>
      <trkpt lat="42.9398" lon="0.28674">
        <ele>1116</ele>
        <time>2017-02-09T12:04:10.119Z</time>
      </trkpt>
      <trkpt lat="42.93981" lon="0.28673">
        <ele>1116</ele>
        <time>2017-02-09T12:04:11.119Z</time>
      </trkpt>
      <trkpt lat="42.93981" lon="0.28672">
        <ele>1116</ele>
        <time>2017-02-09T12:04:12.119Z</time>
      </trkpt>
      <trkpt lat="42.93981" lon="0.28671">
        <ele>1116</ele>
        <time>2017-02-09T12:04:13.119Z</time>
      </trkpt>
      <trkpt lat="42.93982" lon="0.2867">
        <ele>1116</ele>
        <time>2017-02-09T12:04:14.119Z</time>
      </trkpt>
      <trkpt lat="42.93982" lon="0.28669">
        <ele>1116</ele>
        <time>2017-02-09T12:04:15.119Z</time>
      </trkpt>
      <trkpt lat="42.93982" lon="0.28668">
        <ele>1116</ele>
        <time>2017-02-09T12:04:16.119Z</time>
      </trkpt>
      <trkpt lat="42.93983" lon="0.28667">
        <ele>1116</ele>
        <time>2017-02-09T12:04:17.119Z</time>
      </trkpt>
      <trkpt lat="42.93983" lon="0.28666">
        <ele>1116</ele>
        <time>2017-02-09T12:04:18.119Z</time>
      </trkpt>
      <trkpt lat="42.93983" lon="0.28665">
        <ele>1116</ele>
        <time>2017-02-09T12:04:19.119Z</time>
      </trkpt>
      <trkpt lat="42.93984" lon="0.28664">
        <ele>1116</ele>
        <time>2017-02-09T12:04:20.119Z</time>
      </trkpt>
      <trkpt lat="42.93984" lon="0.28663">
        <ele>1115</ele>
        <time>2017-02-09T12:04:21.119Z</time>
      </trkpt>
      <trkpt lat="42.93985" lon="0.28662">
        <ele>1116</ele>
        <time>2017-02-09T12:04:22.119Z</time>
      </trkpt>
      <trkpt lat="42.93985" lon="0.28661">
        <ele>1115</ele>
        <time>2017-02-09T12:04:23.119Z</time>
      </trkpt>
      <trkpt lat="42.93985" lon="0.2866">
        <ele>1115</ele>
        <time>2017-02-09T12:04:24.119Z</time>
      </trkpt>
      <trkpt lat="42.93986" lon="0.28659">
        <ele>1115</ele>
        <time>2017-02-09T12:04:25.119Z</time>
      </trkpt>
      <trkpt lat="42.93986" lon="0.28658">
        <ele>1115</ele>
        <time>2017-02-09T12:04:26.119Z</time>
      </trkpt>
      <trkpt lat="42.93986" lon="0.28657">
        <ele>1115</ele>
        <time>2017-02-09T12:04:27.119Z</time>
      </trkpt>
      <trkpt lat="42.93987" lon="0.28656">
        <ele>1115</ele>
        <time>2017-02-09T12:04:28.119Z</time>
      </trkpt>
      <trkpt lat="42.93987" lon="0.28655">
        <ele>1115</ele>
        <time>2017-02-09T12:04:29.119Z</time>
      </trkpt>
      <trkpt lat="42.93987" lon="0.28654">
        <ele>1115</ele>
        <time>2017-02-09T12:04:30.119Z</time>
      </trkpt>
      <trkpt lat="42.93988" lon="0.28653">
        <ele>1115</ele>
        <time>2017-02-09T12:04:31.119Z</time>
      </trkpt>
      <trkpt lat="42.93988" lon="0.28652">
        <ele>1115</ele>
        <time>2017-02-09T12:04:32.119Z</time>
      </trkpt>
      <trkpt lat="42.93988" lon="0.28651">
        <ele>1115</ele>
        <time>2017-02-09T12:04:33.119Z</time>
      </trkpt>
      <trkpt lat="42.93988" lon="0.2865">
        <ele>1115</ele>
        <time>2017-02-09T12:04:34.119Z</time>
      </trkpt>
      <trkpt lat="42.93989" lon="0.28649">
        <ele>1115</ele>
        <time>2017-02-09T12:04:35.119Z</time>
      </trkpt>
      <trkpt lat="42.93989" lon="0.28648">
        <ele>1115</ele>
        <time>2017-02-09T12:04:36.119Z</time>
      </trkpt>
      <trkpt lat="42.93989" lon="0.28647">
        <ele>1115</ele>
        <time>2017-02-09T12:04:37.119Z</time>
      </trkpt>
      <trkpt lat="42.93989" lon="0.28646">
        <ele>1115</ele>
        <time>2017-02-09T12:04:38.119Z</time>
      </trkpt>
      <trkpt lat="42.9399" lon="0.28645">
        <ele>1115</ele>
        <time>2017-02-09T12:04:39.119Z</time>
      </trkpt>
      <trkpt lat="42.9399" lon="0.28644">
        <ele>1115</ele>
        <time>2017-02-09T12:04:40.119Z</time>
      </trkpt>
      <trkpt lat="42.93991" lon="0.28643">
        <ele>1115</ele>
        <time>2017-02-09T12:04:41.119Z</time>
      </trkpt>
      <trkpt lat="42.93991" lon="0.28642">
        <ele>1115</ele>
        <time>2017-02-09T12:04:42.119Z</time>
      </trkpt>
      <trkpt lat="42.93991" lon="0.28642">
        <ele>1115</ele>
        <time>2017-02-09T12:04:43.119Z</time>
      </trkpt>
      <trkpt lat="42.93992" lon="0.28641">
        <ele>1115</ele>
        <time>2017-02-09T12:04:44.119Z</time>
      </trkpt>
      <trkpt lat="42.93992" lon="0.2864">
        <ele>1115</ele>
        <time>2017-02-09T12:04:45.119Z</time>
      </trkpt>
      <trkpt lat="42.93992" lon="0.28639">
        <ele>1115</ele>
        <time>2017-02-09T12:04:46.119Z</time>
      </trkpt>
      <trkpt lat="42.93993" lon="0.28638">
        <ele>1115</ele>
        <time>2017-02-09T12:04:47.119Z</time>
      </trkpt>
      <trkpt lat="42.93993" lon="0.28637">
        <ele>1115</ele>
        <time>2017-02-09T12:04:48.119Z</time>
      </trkpt>
      <trkpt lat="42.93993" lon="0.28636">
        <ele>1115</ele>
        <time>2017-02-09T12:04:49.119Z</time>
      </trkpt>
      <trkpt lat="42.93994" lon="0.28635">
        <ele>1115</ele>
        <time>2017-02-09T12:04:50.119Z</time>
      </trkpt>
      <trkpt lat="42.93994" lon="0.28634">
        <ele>1115</ele>
        <time>2017-02-09T12:04:51.119Z</time>
      </trkpt>
      <trkpt lat="42.93995" lon="0.28633">
        <ele>1115</ele>
        <time>2017-02-09T12:04:52.119Z</time>
      </trkpt>
      <trkpt lat="42.93995" lon="0.28632">
        <ele>1115</ele>
        <time>2017-02-09T12:04:53.119Z</time>
      </trkpt>
      <trkpt lat="42.93996" lon="0.28632">
        <ele>1115</ele>
        <time>2017-02-09T12:04:54.119Z</time>
      </trkpt>
      <trkpt lat="42.93997" lon="0.28631">
        <ele>1115</ele>
        <time>2017-02-09T12:04:55.119Z</time>
      </trkpt>
      <trkpt lat="42.93997" lon="0.28631">
        <ele>1115</ele>
        <time>2017-02-09T12:04:56.119Z</time>
      </trkpt>
      <trkpt lat="42.93998" lon="0.28631">
        <ele>1115</ele>
        <time>2017-02-09T12:04:57.119Z</time>
      </trkpt>
      <trkpt lat="42.93999" lon="0.28631">
        <ele>1115</ele>
        <time>2017-02-09T12:04:58.119Z</time>
      </trkpt>
      <trkpt lat="42.93999" lon="0.28631">
        <ele>1115</ele>
        <time>2017-02-09T12:04:59.119Z</time>
      </trkpt>
      <trkpt lat="42.94" lon="0.28631">
        <ele>1116</ele>
        <time>2017-02-09T12:05:00.119Z</time>
      </trkpt>
      <trkpt lat="42.94001" lon="0.28631">
        <ele>1116</ele>
        <time>2017-02-09T12:05:01.119Z</time>
      </trkpt>
      <trkpt lat="42.94001" lon="0.2863">
        <ele>1116</ele>
        <time>2017-02-09T12:05:02.119Z</time>
      </trkpt>
      <trkpt lat="42.94002" lon="0.2863">
        <ele>1116</ele>
        <time>2017-02-09T12:05:03.119Z</time>
      </trkpt>
      <trkpt lat="42.94002" lon="0.2863">
        <ele>1116</ele>
        <time>2017-02-09T12:05:04.119Z</time>
      </trkpt>
      <trkpt lat="42.94003" lon="0.28629">
        <ele>1116</ele>
        <time>2017-02-09T12:05:05.119Z</time>
      </trkpt>
      <trkpt lat="42.94004" lon="0.28629">
        <ele>1116</ele>
        <time>2017-02-09T12:05:06.119Z</time>
      </trkpt>
      <trkpt lat="42.94004" lon="0.28629">
        <ele>1116</ele>
        <time>2017-02-09T12:05:07.119Z</time>
      </trkpt>
      <trkpt lat="42.94005" lon="0.28629">
        <ele>1115</ele>
        <time>2017-02-09T12:05:08.119Z</time>
      </trkpt>
      <trkpt lat="42.94005" lon="0.28629">
        <ele>1116</ele>
        <time>2017-02-09T12:05:09.119Z</time>
      </trkpt>
      <trkpt lat="42.94005" lon="0.28629">
        <ele>1116</ele>
        <time>2017-02-09T12:05:10.119Z</time>
      </trkpt>
      <trkpt lat="42.94005" lon="0.28629">
        <ele>1116</ele>
        <time>2017-02-09T12:05:11.119Z</time>
      </trkpt>
      <trkpt lat="42.94005" lon="0.28629">
        <ele>1116</ele>
        <time>2017-02-09T12:05:12.119Z</time>
      </trkpt>
      <trkpt lat="42.94005" lon="0.28629">
        <ele>1115</ele>
        <time>2017-02-09T12:05:13.119Z</time>
      </trkpt>
      <trkpt lat="42.94005" lon="0.28629">
        <ele>1115</ele>
        <time>2017-02-09T12:05:14.119Z</time>
      </trkpt>
      <trkpt lat="42.94005" lon="0.28629">
        <ele>1115</ele>
        <time>2017-02-09T12:05:15.119Z</time>
      </trkpt>
      <trkpt lat="42.94008" lon="0.28627">
        <ele>1116</ele>
        <time>2017-02-09T12:05:16.002Z</time>
      </trkpt>
      <trkpt lat="42.94008" lon="0.28626">
        <ele>1115</ele>
        <time>2017-02-09T12:05:17.002Z</time>
      </trkpt>
      <trkpt lat="42.94009" lon="0.28626">
        <ele>1115</ele>
        <time>2017-02-09T12:05:18.002Z</time>
      </trkpt>
      <trkpt lat="42.94009" lon="0.28625">
        <ele>1115</ele>
        <time>2017-02-09T12:05:19.002Z</time>
      </trkpt>
      <trkpt lat="42.94009" lon="0.28624">
        <ele>1115</ele>
        <time>2017-02-09T12:05:20.002Z</time>
      </trkpt>
      <trkpt lat="42.9401" lon="0.28624">
        <ele>1115</ele>
        <time>2017-02-09T12:05:21.002Z</time>
      </trkpt>
      <trkpt lat="42.9401" lon="0.28623">
        <ele>1115</ele>
        <time>2017-02-09T12:05:22.002Z</time>
      </trkpt>
      <trkpt lat="42.9401" lon="0.28622">
        <ele>1115</ele>
        <time>2017-02-09T12:05:23.002Z</time>
      </trkpt>
      <trkpt lat="42.94011" lon="0.28622">
        <ele>1115</ele>
        <time>2017-02-09T12:05:24.002Z</time>
      </trkpt>
      <trkpt lat="42.94011" lon="0.28621">
        <ele>1115</ele>
        <time>2017-02-09T12:05:25.002Z</time>
      </trkpt>
      <trkpt lat="42.94011" lon="0.28621">
        <ele>1115</ele>
        <time>2017-02-09T12:05:26.002Z</time>
      </trkpt>
      <trkpt lat="42.94011" lon="0.28621">
        <ele>1115</ele>
        <time>2017-02-09T12:05:27.002Z</time>
      </trkpt>
      <trkpt lat="42.94011" lon="0.28621">
        <ele>1115</ele>
        <time>2017-02-09T12:05:28.002Z</time>
      </trkpt>
      <trkpt lat="42.94011" lon="0.28621">
        <ele>1115</ele>
        <time>2017-02-09T12:05:29.002Z</time>
      </trkpt>
      <trkpt lat="42.94011" lon="0.28621">
        <ele>1115</ele>
        <time>2017-02-09T12:05:30.002Z</time>
      </trkpt>
      <trkpt lat="42.94011" lon="0.28621">
        <ele>1115</ele>
        <time>2017-02-09T12:05:31.002Z</time>
      </trkpt>
      <trkpt lat="42.94011" lon="0.28621">
        <ele>1115</ele>
        <time>2017-02-09T12:05:32.002Z</time>
      </trkpt>
      <trkpt lat="42.94012" lon="0.28618">
        <ele>1114</ele>
        <time>2017-02-09T12:05:33.010Z</time>
      </trkpt>
      <trkpt lat="42.94012" lon="0.28618">
        <ele>1114</ele>
        <time>2017-02-09T12:05:34.010Z</time>
      </trkpt>
      <trkpt lat="42.94013" lon="0.28618">
        <ele>1114</ele>
        <time>2017-02-09T12:05:35.010Z</time>
      </trkpt>
      <trkpt lat="42.94013" lon="0.28618">
        <ele>1114</ele>
        <time>2017-02-09T12:05:36.010Z</time>
      </trkpt>
      <trkpt lat="42.94013" lon="0.28618">
        <ele>1114</ele>
        <time>2017-02-09T12:05:37.010Z</time>
      </trkpt>
      <trkpt lat="42.94013" lon="0.28618">
        <ele>1114</ele>
        <time>2017-02-09T12:05:38.010Z</time>
      </trkpt>
      <trkpt lat="42.94013" lon="0.28618">
        <ele>1114</ele>
        <time>2017-02-09T12:05:39.010Z</time>
      </trkpt>
      <trkpt lat="42.94013" lon="0.2862">
        <ele>1114</ele>
        <time>2017-02-09T12:05:40.018Z</time>
      </trkpt>
      <trkpt lat="42.94013" lon="0.2862">
        <ele>1114</ele>
        <time>2017-02-09T12:05:41.018Z</time>
      </trkpt>
      <trkpt lat="42.94013" lon="0.2862">
        <ele>1114</ele>
        <time>2017-02-09T12:05:42.018Z</time>
      </trkpt>
      <trkpt lat="42.94013" lon="0.2862">
        <ele>1114</ele>
        <time>2017-02-09T12:05:43.018Z</time>
      </trkpt>
      <trkpt lat="42.94013" lon="0.2862">
        <ele>1114</ele>
        <time>2017-02-09T12:05:44.018Z</time>
      </trkpt>
      <trkpt lat="42.94013" lon="0.2862">
        <ele>1114</ele>
        <time>2017-02-09T12:05:45.018Z</time>
      </trkpt>
      <trkpt lat="42.94013" lon="0.2862">
        <ele>1114</ele>
        <time>2017-02-09T12:05:46.018Z</time>
      </trkpt>
      <trkpt lat="42.94011" lon="0.28618">
        <ele>1114</ele>
        <time>2017-02-09T12:05:47.026Z</time>
      </trkpt>
      <trkpt lat="42.94011" lon="0.28617">
        <ele>1114</ele>
        <time>2017-02-09T12:05:48.026Z</time>
      </trkpt>
      <trkpt lat="42.9401" lon="0.28617">
        <ele>1114</ele>
        <time>2017-02-09T12:05:49.026Z</time>
      </trkpt>
      <trkpt lat="42.9401" lon="0.28616">
        <ele>1114</ele>
        <time>2017-02-09T12:05:50.026Z</time>
      </trkpt>
      <trkpt lat="42.9401" lon="0.28615">
        <ele>1114</ele>
        <time>2017-02-09T12:05:51.026Z</time>
      </trkpt>
      <trkpt lat="42.9401" lon="0.28614">
        <ele>1114</ele>
        <time>2017-02-09T12:05:52.026Z</time>
      </trkpt>
      <trkpt lat="42.9401" lon="0.28613">
        <ele>1114</ele>
        <time>2017-02-09T12:05:53.026Z</time>
      </trkpt>
      <trkpt lat="42.9401" lon="0.28612">
        <ele>1114</ele>
        <time>2017-02-09T12:05:54.026Z</time>
      </trkpt>
      <trkpt lat="42.9401" lon="0.28611">
        <ele>1114</ele>
        <time>2017-02-09T12:05:55.026Z</time>
      </trkpt>
      <trkpt lat="42.9401" lon="0.2861">
        <ele>1114</ele>
        <time>2017-02-09T12:05:56.026Z</time>
      </trkpt>
      <trkpt lat="42.9401" lon="0.28609">
        <ele>1114</ele>
        <time>2017-02-09T12:05:57.026Z</time>
      </trkpt>
      <trkpt lat="42.9401" lon="0.28608">
        <ele>1114</ele>
        <time>2017-02-09T12:05:58.026Z</time>
      </trkpt>
      <trkpt lat="42.9401" lon="0.28607">
        <ele>1114</ele>
        <time>2017-02-09T12:05:59.026Z</time>
      </trkpt>
      <trkpt lat="42.9401" lon="0.28606">
        <ele>1114</ele>
        <time>2017-02-09T12:06:00.026Z</time>
      </trkpt>
      <trkpt lat="42.9401" lon="0.28605">
        <ele>1115</ele>
        <time>2017-02-09T12:06:01.026Z</time>
      </trkpt>
      <trkpt lat="42.9401" lon="0.28604">
        <ele>1114</ele>
        <time>2017-02-09T12:06:02.026Z</time>
      </trkpt>
      <trkpt lat="42.94011" lon="0.28603">
        <ele>1114</ele>
        <time>2017-02-09T12:06:03.026Z</time>
      </trkpt>
      <trkpt lat="42.94011" lon="0.28602">
        <ele>1114</ele>
        <time>2017-02-09T12:06:04.026Z</time>
      </trkpt>
      <trkpt lat="42.94011" lon="0.28601">
        <ele>1114</ele>
        <time>2017-02-09T12:06:05.026Z</time>
      </trkpt>
      <trkpt lat="42.94011" lon="0.286">
        <ele>1114</ele>
        <time>2017-02-09T12:06:06.026Z</time>
      </trkpt>
      <trkpt lat="42.94011" lon="0.28598">
        <ele>1114</ele>
        <time>2017-02-09T12:06:07.026Z</time>
      </trkpt>
      <trkpt lat="42.94011" lon="0.28597">
        <ele>1114</ele>
        <time>2017-02-09T12:06:08.026Z</time>
      </trkpt>
      <trkpt lat="42.94012" lon="0.28596">
        <ele>1114</ele>
        <time>2017-02-09T12:06:09.026Z</time>
      </trkpt>
      <trkpt lat="42.94012" lon="0.28595">
        <ele>1114</ele>
        <time>2017-02-09T12:06:10.026Z</time>
      </trkpt>
      <trkpt lat="42.94012" lon="0.28594">
        <ele>1114</ele>
        <time>2017-02-09T12:06:11.026Z</time>
      </trkpt>
      <trkpt lat="42.94012" lon="0.28593">
        <ele>1114</ele>
        <time>2017-02-09T12:06:12.026Z</time>
      </trkpt>
      <trkpt lat="42.94012" lon="0.28592">
        <ele>1114</ele>
        <time>2017-02-09T12:06:13.026Z</time>
      </trkpt>
      <trkpt lat="42.94012" lon="0.28591">
        <ele>1114</ele>
        <time>2017-02-09T12:06:14.026Z</time>
      </trkpt>
      <trkpt lat="42.94013" lon="0.2859">
        <ele>1114</ele>
        <time>2017-02-09T12:06:15.026Z</time>
      </trkpt>
      <trkpt lat="42.94013" lon="0.28589">
        <ele>1114</ele>
        <time>2017-02-09T12:06:16.026Z</time>
      </trkpt>
      <trkpt lat="42.94013" lon="0.28587">
        <ele>1114</ele>
        <time>2017-02-09T12:06:17.026Z</time>
      </trkpt>
      <trkpt lat="42.94013" lon="0.28586">
        <ele>1114</ele>
        <time>2017-02-09T12:06:18.026Z</time>
      </trkpt>
      <trkpt lat="42.94013" lon="0.28585">
        <ele>1114</ele>
        <time>2017-02-09T12:06:19.026Z</time>
      </trkpt>
      <trkpt lat="42.94013" lon="0.28584">
        <ele>1114</ele>
        <time>2017-02-09T12:06:20.026Z</time>
      </trkpt>
      <trkpt lat="42.94014" lon="0.28583">
        <ele>1114</ele>
        <time>2017-02-09T12:06:21.026Z</time>
      </trkpt>
      <trkpt lat="42.94014" lon="0.28582">
        <ele>1114</ele>
        <time>2017-02-09T12:06:22.026Z</time>
      </trkpt>
      <trkpt lat="42.94014" lon="0.28581">
        <ele>1114</ele>
        <time>2017-02-09T12:06:23.026Z</time>
      </trkpt>
      <trkpt lat="42.94014" lon="0.2858">
        <ele>1114</ele>
        <time>2017-02-09T12:06:24.026Z</time>
      </trkpt>
      <trkpt lat="42.94015" lon="0.28579">
        <ele>1114</ele>
        <time>2017-02-09T12:06:25.026Z</time>
      </trkpt>
      <trkpt lat="42.94015" lon="0.28578">
        <ele>1114</ele>
        <time>2017-02-09T12:06:26.026Z</time>
      </trkpt>
      <trkpt lat="42.94016" lon="0.28578">
        <ele>1113</ele>
        <time>2017-02-09T12:06:27.026Z</time>
      </trkpt>
      <trkpt lat="42.94016" lon="0.28577">
        <ele>1113</ele>
        <time>2017-02-09T12:06:28.026Z</time>
      </trkpt>
      <trkpt lat="42.94017" lon="0.28576">
        <ele>1113</ele>
        <time>2017-02-09T12:06:29.026Z</time>
      </trkpt>
      <trkpt lat="42.94017" lon="0.28575">
        <ele>1113</ele>
        <time>2017-02-09T12:06:30.026Z</time>
      </trkpt>
      <trkpt lat="42.94017" lon="0.28574">
        <ele>1113</ele>
        <time>2017-02-09T12:06:31.026Z</time>
      </trkpt>
      <trkpt lat="42.94018" lon="0.28573">
        <ele>1113</ele>
        <time>2017-02-09T12:06:32.026Z</time>
      </trkpt>
      <trkpt lat="42.94018" lon="0.28572">
        <ele>1113</ele>
        <time>2017-02-09T12:06:33.026Z</time>
      </trkpt>
      <trkpt lat="42.94019" lon="0.28571">
        <ele>1113</ele>
        <time>2017-02-09T12:06:34.026Z</time>
      </trkpt>
      <trkpt lat="42.94019" lon="0.2857">
        <ele>1113</ele>
        <time>2017-02-09T12:06:35.026Z</time>
      </trkpt>
      <trkpt lat="42.9402" lon="0.2857">
        <ele>1113</ele>
        <time>2017-02-09T12:06:36.026Z</time>
      </trkpt>
      <trkpt lat="42.9402" lon="0.28569">
        <ele>1113</ele>
        <time>2017-02-09T12:06:37.026Z</time>
      </trkpt>
      <trkpt lat="42.94021" lon="0.28569">
        <ele>1113</ele>
        <time>2017-02-09T12:06:38.026Z</time>
      </trkpt>
      <trkpt lat="42.94021" lon="0.28569">
        <ele>1113</ele>
        <time>2017-02-09T12:06:39.026Z</time>
      </trkpt>
      <trkpt lat="42.94021" lon="0.28569">
        <ele>1113</ele>
        <time>2017-02-09T12:06:40.026Z</time>
      </trkpt>
      <trkpt lat="42.94021" lon="0.28569">
        <ele>1113</ele>
        <time>2017-02-09T12:06:41.026Z</time>
      </trkpt>
      <trkpt lat="42.94021" lon="0.28569">
        <ele>1113</ele>
        <time>2017-02-09T12:06:42.026Z</time>
      </trkpt>
      <trkpt lat="42.94021" lon="0.28569">
        <ele>1113</ele>
        <time>2017-02-09T12:06:43.026Z</time>
      </trkpt>
      <trkpt lat="42.94022" lon="0.28568">
        <ele>1113</ele>
        <time>2017-02-09T12:06:44.026Z</time>
      </trkpt>
      <trkpt lat="42.94022" lon="0.28567">
        <ele>1113</ele>
        <time>2017-02-09T12:06:45.026Z</time>
      </trkpt>
      <trkpt lat="42.94022" lon="0.28566">
        <ele>1113</ele>
        <time>2017-02-09T12:06:46.026Z</time>
      </trkpt>
      <trkpt lat="42.94023" lon="0.28565">
        <ele>1113</ele>
        <time>2017-02-09T12:06:47.026Z</time>
      </trkpt>
      <trkpt lat="42.94023" lon="0.28565">
        <ele>1112</ele>
        <time>2017-02-09T12:06:48.026Z</time>
      </trkpt>
      <trkpt lat="42.94023" lon="0.28564">
        <ele>1112</ele>
        <time>2017-02-09T12:06:49.026Z</time>
      </trkpt>
      <trkpt lat="42.94024" lon="0.28563">
        <ele>1112</ele>
        <time>2017-02-09T12:06:50.026Z</time>
      </trkpt>
      <trkpt lat="42.94024" lon="0.28562">
        <ele>1112</ele>
        <time>2017-02-09T12:06:51.026Z</time>
      </trkpt>
      <trkpt lat="42.94024" lon="0.28561">
        <ele>1112</ele>
        <time>2017-02-09T12:06:52.026Z</time>
      </trkpt>
      <trkpt lat="42.94025" lon="0.2856">
        <ele>1112</ele>
        <time>2017-02-09T12:06:53.026Z</time>
      </trkpt>
      <trkpt lat="42.94025" lon="0.28559">
        <ele>1112</ele>
        <time>2017-02-09T12:06:54.026Z</time>
      </trkpt>
      <trkpt lat="42.94026" lon="0.28559">
        <ele>1112</ele>
        <time>2017-02-09T12:06:55.026Z</time>
      </trkpt>
      <trkpt lat="42.94026" lon="0.28558">
        <ele>1112</ele>
        <time>2017-02-09T12:06:56.026Z</time>
      </trkpt>
      <trkpt lat="42.94026" lon="0.28557">
        <ele>1112</ele>
        <time>2017-02-09T12:06:57.026Z</time>
      </trkpt>
      <trkpt lat="42.94027" lon="0.28556">
        <ele>1112</ele>
        <time>2017-02-09T12:06:58.026Z</time>
      </trkpt>
      <trkpt lat="42.94027" lon="0.28555">
        <ele>1112</ele>
        <time>2017-02-09T12:06:59.026Z</time>
      </trkpt>
      <trkpt lat="42.94028" lon="0.28554">
        <ele>1112</ele>
        <time>2017-02-09T12:07:00.026Z</time>
      </trkpt>
      <trkpt lat="42.94028" lon="0.28554">
        <ele>1112</ele>
        <time>2017-02-09T12:07:01.026Z</time>
      </trkpt>
      <trkpt lat="42.94028" lon="0.28553">
        <ele>1112</ele>
        <time>2017-02-09T12:07:02.026Z</time>
      </trkpt>
      <trkpt lat="42.94029" lon="0.28553">
        <ele>1112</ele>
        <time>2017-02-09T12:07:03.026Z</time>
      </trkpt>
      <trkpt lat="42.94029" lon="0.28552">
        <ele>1112</ele>
        <time>2017-02-09T12:07:04.026Z</time>
      </trkpt>
      <trkpt lat="42.94029" lon="0.28551">
        <ele>1112</ele>
        <time>2017-02-09T12:07:05.026Z</time>
      </trkpt>
      <trkpt lat="42.9403" lon="0.2855">
        <ele>1112</ele>
        <time>2017-02-09T12:07:06.026Z</time>
      </trkpt>
      <trkpt lat="42.9403" lon="0.28549">
        <ele>1111</ele>
        <time>2017-02-09T12:07:07.026Z</time>
      </trkpt>
      <trkpt lat="42.9403" lon="0.28548">
        <ele>1111</ele>
        <time>2017-02-09T12:07:08.026Z</time>
      </trkpt>
      <trkpt lat="42.94031" lon="0.28547">
        <ele>1112</ele>
        <time>2017-02-09T12:07:09.026Z</time>
      </trkpt>
      <trkpt lat="42.94031" lon="0.28546">
        <ele>1111</ele>
        <time>2017-02-09T12:07:10.026Z</time>
      </trkpt>
      <trkpt lat="42.94031" lon="0.28545">
        <ele>1111</ele>
        <time>2017-02-09T12:07:11.026Z</time>
      </trkpt>
      <trkpt lat="42.94032" lon="0.28544">
        <ele>1112</ele>
        <time>2017-02-09T12:07:12.026Z</time>
      </trkpt>
      <trkpt lat="42.94032" lon="0.28543">
        <ele>1111</ele>
        <time>2017-02-09T12:07:13.026Z</time>
      </trkpt>
      <trkpt lat="42.94032" lon="0.28543">
        <ele>1111</ele>
        <time>2017-02-09T12:07:14.026Z</time>
      </trkpt>
      <trkpt lat="42.94033" lon="0.28542">
        <ele>1111</ele>
        <time>2017-02-09T12:07:15.026Z</time>
      </trkpt>
      <trkpt lat="42.94033" lon="0.28541">
        <ele>1111</ele>
        <time>2017-02-09T12:07:16.026Z</time>
      </trkpt>
      <trkpt lat="42.94033" lon="0.2854">
        <ele>1111</ele>
        <time>2017-02-09T12:07:17.026Z</time>
      </trkpt>
      <trkpt lat="42.94033" lon="0.28539">
        <ele>1111</ele>
        <time>2017-02-09T12:07:18.026Z</time>
      </trkpt>
      <trkpt lat="42.94034" lon="0.28538">
        <ele>1111</ele>
        <time>2017-02-09T12:07:19.026Z</time>
      </trkpt>
      <trkpt lat="42.94034" lon="0.28537">
        <ele>1110</ele>
        <time>2017-02-09T12:07:20.026Z</time>
      </trkpt>
      <trkpt lat="42.94034" lon="0.28536">
        <ele>1110</ele>
        <time>2017-02-09T12:07:21.026Z</time>
      </trkpt>
      <trkpt lat="42.94034" lon="0.28535">
        <ele>1110</ele>
        <time>2017-02-09T12:07:22.026Z</time>
      </trkpt>
      <trkpt lat="42.94035" lon="0.28534">
        <ele>1110</ele>
        <time>2017-02-09T12:07:23.026Z</time>
      </trkpt>
      <trkpt lat="42.94035" lon="0.28533">
        <ele>1110</ele>
        <time>2017-02-09T12:07:24.026Z</time>
      </trkpt>
      <trkpt lat="42.94035" lon="0.28533">
        <ele>1110</ele>
        <time>2017-02-09T12:07:25.026Z</time>
      </trkpt>
      <trkpt lat="42.94035" lon="0.28532">
        <ele>1110</ele>
        <time>2017-02-09T12:07:26.026Z</time>
      </trkpt>
      <trkpt lat="42.94035" lon="0.28531">
        <ele>1110</ele>
        <time>2017-02-09T12:07:27.026Z</time>
      </trkpt>
      <trkpt lat="42.94036" lon="0.2853">
        <ele>1110</ele>
        <time>2017-02-09T12:07:28.026Z</time>
      </trkpt>
      <trkpt lat="42.94036" lon="0.28529">
        <ele>1110</ele>
        <time>2017-02-09T12:07:29.026Z</time>
      </trkpt>
      <trkpt lat="42.94036" lon="0.28528">
        <ele>1110</ele>
        <time>2017-02-09T12:07:30.026Z</time>
      </trkpt>
      <trkpt lat="42.94036" lon="0.28527">
        <ele>1110</ele>
        <time>2017-02-09T12:07:31.026Z</time>
      </trkpt>
      <trkpt lat="42.94037" lon="0.28526">
        <ele>1110</ele>
        <time>2017-02-09T12:07:32.026Z</time>
      </trkpt>
      <trkpt lat="42.94037" lon="0.28525">
        <ele>1110</ele>
        <time>2017-02-09T12:07:33.026Z</time>
      </trkpt>
      <trkpt lat="42.94037" lon="0.28524">
        <ele>1110</ele>
        <time>2017-02-09T12:07:34.026Z</time>
      </trkpt>
      <trkpt lat="42.94037" lon="0.28524">
        <ele>1110</ele>
        <time>2017-02-09T12:07:35.026Z</time>
      </trkpt>
      <trkpt lat="42.94037" lon="0.28523">
        <ele>1110</ele>
        <time>2017-02-09T12:07:36.026Z</time>
      </trkpt>
      <trkpt lat="42.94038" lon="0.28522">
        <ele>1110</ele>
        <time>2017-02-09T12:07:37.026Z</time>
      </trkpt>
      <trkpt lat="42.94038" lon="0.28521">
        <ele>1110</ele>
        <time>2017-02-09T12:07:38.026Z</time>
      </trkpt>
      <trkpt lat="42.94038" lon="0.2852">
        <ele>1110</ele>
        <time>2017-02-09T12:07:39.026Z</time>
      </trkpt>
      <trkpt lat="42.94038" lon="0.2852">
        <ele>1110</ele>
        <time>2017-02-09T12:07:40.026Z</time>
      </trkpt>
      <trkpt lat="42.94039" lon="0.2852">
        <ele>1110</ele>
        <time>2017-02-09T12:07:41.026Z</time>
      </trkpt>
      <trkpt lat="42.94039" lon="0.2852">
        <ele>1110</ele>
        <time>2017-02-09T12:07:42.026Z</time>
      </trkpt>
      <trkpt lat="42.94039" lon="0.2852">
        <ele>1110</ele>
        <time>2017-02-09T12:07:43.026Z</time>
      </trkpt>
      <trkpt lat="42.94039" lon="0.28521">
        <ele>1110</ele>
        <time>2017-02-09T12:07:44.026Z</time>
      </trkpt>
      <trkpt lat="42.94039" lon="0.28521">
        <ele>1111</ele>
        <time>2017-02-09T12:07:45.026Z</time>
      </trkpt>
      <trkpt lat="42.94039" lon="0.28522">
        <ele>1110</ele>
        <time>2017-02-09T12:07:46.026Z</time>
      </trkpt>
      <trkpt lat="42.94039" lon="0.28523">
        <ele>1111</ele>
        <time>2017-02-09T12:07:47.026Z</time>
      </trkpt>
      <trkpt lat="42.94039" lon="0.28524">
        <ele>1111</ele>
        <time>2017-02-09T12:07:48.026Z</time>
      </trkpt>
      <trkpt lat="42.94039" lon="0.28524">
        <ele>1111</ele>
        <time>2017-02-09T12:07:49.026Z</time>
      </trkpt>
      <trkpt lat="42.94038" lon="0.28525">
        <ele>1111</ele>
        <time>2017-02-09T12:07:50.026Z</time>
      </trkpt>
      <trkpt lat="42.94038" lon="0.28526">
        <ele>1111</ele>
        <time>2017-02-09T12:07:51.026Z</time>
      </trkpt>
      <trkpt lat="42.94038" lon="0.28527">
        <ele>1110</ele>
        <time>2017-02-09T12:07:52.026Z</time>
      </trkpt>
      <trkpt lat="42.94038" lon="0.28527">
        <ele>1110</ele>
        <time>2017-02-09T12:07:53.026Z</time>
      </trkpt>
      <trkpt lat="42.94038" lon="0.28528">
        <ele>1110</ele>
        <time>2017-02-09T12:07:54.026Z</time>
      </trkpt>
      <trkpt lat="42.94038" lon="0.28528">
        <ele>1110</ele>
        <time>2017-02-09T12:07:55.026Z</time>
      </trkpt>
      <trkpt lat="42.94038" lon="0.28528">
        <ele>1110</ele>
        <time>2017-02-09T12:07:56.026Z</time>
      </trkpt>
      <trkpt lat="42.94038" lon="0.28529">
        <ele>1110</ele>
        <time>2017-02-09T12:07:57.026Z</time>
      </trkpt>
      <trkpt lat="42.94038" lon="0.28529">
        <ele>1109</ele>
        <time>2017-02-09T12:07:58.026Z</time>
      </trkpt>
      <trkpt lat="42.94038" lon="0.28529">
        <ele>1109</ele>
        <time>2017-02-09T12:07:59.026Z</time>
      </trkpt>
      <trkpt lat="42.94038" lon="0.28529">
        <ele>1109</ele>
        <time>2017-02-09T12:08:00.026Z</time>
      </trkpt>
      <trkpt lat="42.94038" lon="0.2853">
        <ele>1109</ele>
        <time>2017-02-09T12:08:01.026Z</time>
      </trkpt>
      <trkpt lat="42.94039" lon="0.2853">
        <ele>1109</ele>
        <time>2017-02-09T12:08:02.026Z</time>
      </trkpt>
      <trkpt lat="42.94039" lon="0.2853">
        <ele>1109</ele>
        <time>2017-02-09T12:08:03.026Z</time>
      </trkpt>
      <trkpt lat="42.94039" lon="0.28531">
        <ele>1109</ele>
        <time>2017-02-09T12:08:04.026Z</time>
      </trkpt>
      <trkpt lat="42.94039" lon="0.28531">
        <ele>1109</ele>
        <time>2017-02-09T12:08:05.026Z</time>
      </trkpt>
      <trkpt lat="42.9404" lon="0.28531">
        <ele>1109</ele>
        <time>2017-02-09T12:08:06.026Z</time>
      </trkpt>
      <trkpt lat="42.9404" lon="0.28531">
        <ele>1108</ele>
        <time>2017-02-09T12:08:07.026Z</time>
      </trkpt>
      <trkpt lat="42.94041" lon="0.28531">
        <ele>1108</ele>
        <time>2017-02-09T12:08:08.026Z</time>
      </trkpt>
      <trkpt lat="42.94041" lon="0.28531">
        <ele>1108</ele>
        <time>2017-02-09T12:08:09.026Z</time>
      </trkpt>
      <trkpt lat="42.94041" lon="0.28532">
        <ele>1108</ele>
        <time>2017-02-09T12:08:10.026Z</time>
      </trkpt>
      <trkpt lat="42.94042" lon="0.28532">
        <ele>1108</ele>
        <time>2017-02-09T12:08:11.026Z</time>
      </trkpt>
      <trkpt lat="42.94042" lon="0.28532">
        <ele>1108</ele>
        <time>2017-02-09T12:08:12.026Z</time>
      </trkpt>
      <trkpt lat="42.94042" lon="0.28533">
        <ele>1108</ele>
        <time>2017-02-09T12:08:13.026Z</time>
      </trkpt>
      <trkpt lat="42.94043" lon="0.28533">
        <ele>1107</ele>
        <time>2017-02-09T12:08:14.026Z</time>
      </trkpt>
      <trkpt lat="42.94043" lon="0.28534">
        <ele>1107</ele>
        <time>2017-02-09T12:08:15.026Z</time>
      </trkpt>
      <trkpt lat="42.94043" lon="0.28534">
        <ele>1107</ele>
        <time>2017-02-09T12:08:16.026Z</time>
      </trkpt>
      <trkpt lat="42.94043" lon="0.28535">
        <ele>1107</ele>
        <time>2017-02-09T12:08:17.026Z</time>
      </trkpt>
      <trkpt lat="42.94043" lon="0.28535">
        <ele>1107</ele>
        <time>2017-02-09T12:08:18.026Z</time>
      </trkpt>
      <trkpt lat="42.94044" lon="0.28535">
        <ele>1107</ele>
        <time>2017-02-09T12:08:19.026Z</time>
      </trkpt>
      <trkpt lat="42.94044" lon="0.28535">
        <ele>1106</ele>
        <time>2017-02-09T12:08:20.026Z</time>
      </trkpt>
      <trkpt lat="42.94044" lon="0.28535">
        <ele>1106</ele>
        <time>2017-02-09T12:08:21.026Z</time>
      </trkpt>
      <trkpt lat="42.94044" lon="0.28535">
        <ele>1106</ele>
        <time>2017-02-09T12:08:22.026Z</time>
      </trkpt>
      <trkpt lat="42.94044" lon="0.28534">
        <ele>1106</ele>
        <time>2017-02-09T12:08:23.026Z</time>
      </trkpt>
      <trkpt lat="42.94045" lon="0.28534">
        <ele>1106</ele>
        <time>2017-02-09T12:08:24.026Z</time>
      </trkpt>
      <trkpt lat="42.94045" lon="0.28534">
        <ele>1106</ele>
        <time>2017-02-09T12:08:25.026Z</time>
      </trkpt>
      <trkpt lat="42.94046" lon="0.28533">
        <ele>1106</ele>
        <time>2017-02-09T12:08:26.026Z</time>
      </trkpt>
      <trkpt lat="42.94046" lon="0.28533">
        <ele>1106</ele>
        <time>2017-02-09T12:08:27.026Z</time>
      </trkpt>
      <trkpt lat="42.94046" lon="0.28533">
        <ele>1106</ele>
        <time>2017-02-09T12:08:28.026Z</time>
      </trkpt>
      <trkpt lat="42.94047" lon="0.28533">
        <ele>1106</ele>
        <time>2017-02-09T12:08:29.026Z</time>
      </trkpt>
      <trkpt lat="42.94047" lon="0.28532">
        <ele>1106</ele>
        <time>2017-02-09T12:08:30.026Z</time>
      </trkpt>
      <trkpt lat="42.94047" lon="0.28532">
        <ele>1106</ele>
        <time>2017-02-09T12:08:31.026Z</time>
      </trkpt>
      <trkpt lat="42.94048" lon="0.28532">
        <ele>1106</ele>
        <time>2017-02-09T12:08:32.026Z</time>
      </trkpt>
      <trkpt lat="42.94048" lon="0.28532">
        <ele>1106</ele>
        <time>2017-02-09T12:08:33.026Z</time>
      </trkpt>
      <trkpt lat="42.94048" lon="0.28532">
        <ele>1105</ele>
        <time>2017-02-09T12:08:34.026Z</time>
      </trkpt>
      <trkpt lat="42.94048" lon="0.28532">
        <ele>1105</ele>
        <time>2017-02-09T12:08:35.026Z</time>
      </trkpt>
      <trkpt lat="42.94049" lon="0.28532">
        <ele>1105</ele>
        <time>2017-02-09T12:08:36.026Z</time>
      </trkpt>
      <trkpt lat="42.94049" lon="0.28532">
        <ele>1105</ele>
        <time>2017-02-09T12:08:37.026Z</time>
      </trkpt>
      <trkpt lat="42.94049" lon="0.28531">
        <ele>1105</ele>
        <time>2017-02-09T12:08:38.026Z</time>
      </trkpt>
      <trkpt lat="42.9405" lon="0.28531">
        <ele>1105</ele>
        <time>2017-02-09T12:08:39.026Z</time>
      </trkpt>
      <trkpt lat="42.9405" lon="0.28531">
        <ele>1105</ele>
        <time>2017-02-09T12:08:40.026Z</time>
      </trkpt>
      <trkpt lat="42.94051" lon="0.28531">
        <ele>1105</ele>
        <time>2017-02-09T12:08:41.026Z</time>
      </trkpt>
      <trkpt lat="42.94051" lon="0.28531">
        <ele>1104</ele>
        <time>2017-02-09T12:08:42.026Z</time>
      </trkpt>
      <trkpt lat="42.94051" lon="0.28531">
        <ele>1104</ele>
        <time>2017-02-09T12:08:43.026Z</time>
      </trkpt>
      <trkpt lat="42.94052" lon="0.28531">
        <ele>1104</ele>
        <time>2017-02-09T12:08:44.026Z</time>
      </trkpt>
      <trkpt lat="42.94052" lon="0.28531">
        <ele>1104</ele>
        <time>2017-02-09T12:08:45.026Z</time>
      </trkpt>
      <trkpt lat="42.94052" lon="0.28531">
        <ele>1104</ele>
        <time>2017-02-09T12:08:46.026Z</time>
      </trkpt>
      <trkpt lat="42.94053" lon="0.28531">
        <ele>1104</ele>
        <time>2017-02-09T12:08:47.026Z</time>
      </trkpt>
      <trkpt lat="42.94053" lon="0.28531">
        <ele>1104</ele>
        <time>2017-02-09T12:08:48.026Z</time>
      </trkpt>
      <trkpt lat="42.94053" lon="0.28531">
        <ele>1103</ele>
        <time>2017-02-09T12:08:49.026Z</time>
      </trkpt>
      <trkpt lat="42.94054" lon="0.28531">
        <ele>1103</ele>
        <time>2017-02-09T12:08:50.026Z</time>
      </trkpt>
      <trkpt lat="42.94054" lon="0.28531">
        <ele>1103</ele>
        <time>2017-02-09T12:08:51.026Z</time>
      </trkpt>
      <trkpt lat="42.94054" lon="0.28531">
        <ele>1103</ele>
        <time>2017-02-09T12:08:52.026Z</time>
      </trkpt>
      <trkpt lat="42.94055" lon="0.28531">
        <ele>1103</ele>
        <time>2017-02-09T12:08:53.026Z</time>
      </trkpt>
      <trkpt lat="42.94055" lon="0.28531">
        <ele>1102</ele>
        <time>2017-02-09T12:08:54.026Z</time>
      </trkpt>
      <trkpt lat="42.94056" lon="0.28531">
        <ele>1102</ele>
        <time>2017-02-09T12:08:55.026Z</time>
      </trkpt>
      <trkpt lat="42.94056" lon="0.28531">
        <ele>1102</ele>
        <time>2017-02-09T12:08:56.026Z</time>
      </trkpt>
      <trkpt lat="42.94056" lon="0.28532">
        <ele>1102</ele>
        <time>2017-02-09T12:08:57.026Z</time>
      </trkpt>
      <trkpt lat="42.94057" lon="0.28532">
        <ele>1102</ele>
        <time>2017-02-09T12:08:58.026Z</time>
      </trkpt>
      <trkpt lat="42.94057" lon="0.28532">
        <ele>1102</ele>
        <time>2017-02-09T12:08:59.026Z</time>
      </trkpt>
      <trkpt lat="42.94057" lon="0.28532">
        <ele>1102</ele>
        <time>2017-02-09T12:09:00.026Z</time>
      </trkpt>
      <trkpt lat="42.94058" lon="0.28532">
        <ele>1101</ele>
        <time>2017-02-09T12:09:01.026Z</time>
      </trkpt>
      <trkpt lat="42.94058" lon="0.28532">
        <ele>1101</ele>
        <time>2017-02-09T12:09:02.026Z</time>
      </trkpt>
      <trkpt lat="42.94059" lon="0.28532">
        <ele>1101</ele>
        <time>2017-02-09T12:09:03.026Z</time>
      </trkpt>
      <trkpt lat="42.94059" lon="0.28532">
        <ele>1100</ele>
        <time>2017-02-09T12:09:04.026Z</time>
      </trkpt>
      <trkpt lat="42.9406" lon="0.28532">
        <ele>1100</ele>
        <time>2017-02-09T12:09:05.026Z</time>
      </trkpt>
      <trkpt lat="42.9406" lon="0.28532">
        <ele>1100</ele>
        <time>2017-02-09T12:09:06.026Z</time>
      </trkpt>
      <trkpt lat="42.9406" lon="0.28532">
        <ele>1100</ele>
        <time>2017-02-09T12:09:07.026Z</time>
      </trkpt>
      <trkpt lat="42.94061" lon="0.28532">
        <ele>1100</ele>
        <time>2017-02-09T12:09:08.026Z</time>
      </trkpt>
      <trkpt lat="42.94061" lon="0.28532">
        <ele>1100</ele>
        <time>2017-02-09T12:09:09.026Z</time>
      </trkpt>
      <trkpt lat="42.94062" lon="0.28531">
        <ele>1100</ele>
        <time>2017-02-09T12:09:10.026Z</time>
      </trkpt>
      <trkpt lat="42.94063" lon="0.28531">
        <ele>1100</ele>
        <time>2017-02-09T12:09:11.026Z</time>
      </trkpt>
      <trkpt lat="42.94063" lon="0.28531">
        <ele>1100</ele>
        <time>2017-02-09T12:09:12.026Z</time>
      </trkpt>
      <trkpt lat="42.94063" lon="0.2853">
        <ele>1100</ele>
        <time>2017-02-09T12:09:13.026Z</time>
      </trkpt>
      <trkpt lat="42.94064" lon="0.2853">
        <ele>1099</ele>
        <time>2017-02-09T12:09:14.026Z</time>
      </trkpt>
      <trkpt lat="42.94064" lon="0.28529">
        <ele>1100</ele>
        <time>2017-02-09T12:09:15.026Z</time>
      </trkpt>
      <trkpt lat="42.94065" lon="0.28529">
        <ele>1099</ele>
        <time>2017-02-09T12:09:16.026Z</time>
      </trkpt>
      <trkpt lat="42.94065" lon="0.28528">
        <ele>1099</ele>
        <time>2017-02-09T12:09:17.026Z</time>
      </trkpt>
      <trkpt lat="42.94066" lon="0.28528">
        <ele>1099</ele>
        <time>2017-02-09T12:09:18.026Z</time>
      </trkpt>
      <trkpt lat="42.94066" lon="0.28527">
        <ele>1099</ele>
        <time>2017-02-09T12:09:19.026Z</time>
      </trkpt>
      <trkpt lat="42.94066" lon="0.28527">
        <ele>1099</ele>
        <time>2017-02-09T12:09:20.026Z</time>
      </trkpt>
      <trkpt lat="42.94067" lon="0.28526">
        <ele>1099</ele>
        <time>2017-02-09T12:09:21.026Z</time>
      </trkpt>
      <trkpt lat="42.94067" lon="0.28526">
        <ele>1099</ele>
        <time>2017-02-09T12:09:22.026Z</time>
      </trkpt>
      <trkpt lat="42.94067" lon="0.28525">
        <ele>1099</ele>
        <time>2017-02-09T12:09:23.026Z</time>
      </trkpt>
      <trkpt lat="42.94067" lon="0.28524">
        <ele>1099</ele>
        <time>2017-02-09T12:09:24.026Z</time>
      </trkpt>
      <trkpt lat="42.94068" lon="0.28524">
        <ele>1099</ele>
        <time>2017-02-09T12:09:25.026Z</time>
      </trkpt>
      <trkpt lat="42.94068" lon="0.28523">
        <ele>1100</ele>
        <time>2017-02-09T12:09:26.026Z</time>
      </trkpt>
      <trkpt lat="42.94069" lon="0.28523">
        <ele>1100</ele>
        <time>2017-02-09T12:09:27.026Z</time>
      </trkpt>
      <trkpt lat="42.9407" lon="0.28523">
        <ele>1099</ele>
        <time>2017-02-09T12:09:28.026Z</time>
      </trkpt>
      <trkpt lat="42.9407" lon="0.28523">
        <ele>1099</ele>
        <time>2017-02-09T12:09:29.026Z</time>
      </trkpt>
      <trkpt lat="42.94071" lon="0.28522">
        <ele>1100</ele>
        <time>2017-02-09T12:09:30.026Z</time>
      </trkpt>
      <trkpt lat="42.94071" lon="0.28522">
        <ele>1099</ele>
        <time>2017-02-09T12:09:31.026Z</time>
      </trkpt>
      <trkpt lat="42.94072" lon="0.28522">
        <ele>1099</ele>
        <time>2017-02-09T12:09:32.026Z</time>
      </trkpt>
      <trkpt lat="42.94072" lon="0.28522">
        <ele>1100</ele>
        <time>2017-02-09T12:09:33.026Z</time>
      </trkpt>
      <trkpt lat="42.94072" lon="0.28522">
        <ele>1100</ele>
        <time>2017-02-09T12:09:34.026Z</time>
      </trkpt>
      <trkpt lat="42.94073" lon="0.28522">
        <ele>1100</ele>
        <time>2017-02-09T12:09:35.026Z</time>
      </trkpt>
      <trkpt lat="42.94073" lon="0.28521">
        <ele>1100</ele>
        <time>2017-02-09T12:09:36.026Z</time>
      </trkpt>
      <trkpt lat="42.94073" lon="0.28521">
        <ele>1099</ele>
        <time>2017-02-09T12:09:37.026Z</time>
      </trkpt>
      <trkpt lat="42.94074" lon="0.28521">
        <ele>1099</ele>
        <time>2017-02-09T12:09:38.026Z</time>
      </trkpt>
      <trkpt lat="42.94074" lon="0.28521">
        <ele>1099</ele>
        <time>2017-02-09T12:09:39.026Z</time>
      </trkpt>
      <trkpt lat="42.94074" lon="0.2852">
        <ele>1100</ele>
        <time>2017-02-09T12:09:40.026Z</time>
      </trkpt>
      <trkpt lat="42.94075" lon="0.2852">
        <ele>1099</ele>
        <time>2017-02-09T12:09:41.026Z</time>
      </trkpt>
      <trkpt lat="42.94075" lon="0.2852">
        <ele>1100</ele>
        <time>2017-02-09T12:09:42.026Z</time>
      </trkpt>
      <trkpt lat="42.94076" lon="0.2852">
        <ele>1100</ele>
        <time>2017-02-09T12:09:43.026Z</time>
      </trkpt>
      <trkpt lat="42.94077" lon="0.2852">
        <ele>1099</ele>
        <time>2017-02-09T12:09:44.026Z</time>
      </trkpt>
      <trkpt lat="42.94077" lon="0.2852">
        <ele>1099</ele>
        <time>2017-02-09T12:09:45.026Z</time>
      </trkpt>
      <trkpt lat="42.94078" lon="0.2852">
        <ele>1099</ele>
        <time>2017-02-09T12:09:46.026Z</time>
      </trkpt>
      <trkpt lat="42.94078" lon="0.2852">
        <ele>1099</ele>
        <time>2017-02-09T12:09:47.026Z</time>
      </trkpt>
      <trkpt lat="42.94079" lon="0.2852">
        <ele>1099</ele>
        <time>2017-02-09T12:09:48.026Z</time>
      </trkpt>
      <trkpt lat="42.94079" lon="0.2852">
        <ele>1099</ele>
        <time>2017-02-09T12:09:49.026Z</time>
      </trkpt>
      <trkpt lat="42.9408" lon="0.28521">
        <ele>1099</ele>
        <time>2017-02-09T12:09:50.026Z</time>
      </trkpt>
      <trkpt lat="42.94081" lon="0.28521">
        <ele>1099</ele>
        <time>2017-02-09T12:09:51.026Z</time>
      </trkpt>
      <trkpt lat="42.94081" lon="0.28522">
        <ele>1099</ele>
        <time>2017-02-09T12:09:52.026Z</time>
      </trkpt>
      <trkpt lat="42.94082" lon="0.28522">
        <ele>1098</ele>
        <time>2017-02-09T12:09:53.026Z</time>
      </trkpt>
      <trkpt lat="42.94083" lon="0.28522">
        <ele>1098</ele>
        <time>2017-02-09T12:09:54.026Z</time>
      </trkpt>
      <trkpt lat="42.94083" lon="0.28522">
        <ele>1098</ele>
        <time>2017-02-09T12:09:55.026Z</time>
      </trkpt>
      <trkpt lat="42.94084" lon="0.28522">
        <ele>1098</ele>
        <time>2017-02-09T12:09:56.026Z</time>
      </trkpt>
      <trkpt lat="42.94084" lon="0.28522">
        <ele>1098</ele>
        <time>2017-02-09T12:09:57.026Z</time>
      </trkpt>
      <trkpt lat="42.94085" lon="0.28522">
        <ele>1099</ele>
        <time>2017-02-09T12:09:58.026Z</time>
      </trkpt>
      <trkpt lat="42.94086" lon="0.28522">
        <ele>1099</ele>
        <time>2017-02-09T12:09:59.026Z</time>
      </trkpt>
      <trkpt lat="42.94086" lon="0.28522">
        <ele>1099</ele>
        <time>2017-02-09T12:10:00.026Z</time>
      </trkpt>
      <trkpt lat="42.94086" lon="0.28522">
        <ele>1099</ele>
        <time>2017-02-09T12:10:01.026Z</time>
      </trkpt>
      <trkpt lat="42.94086" lon="0.28522">
        <ele>1099</ele>
        <time>2017-02-09T12:10:02.026Z</time>
      </trkpt>
      <trkpt lat="42.94086" lon="0.28522">
        <ele>1099</ele>
        <time>2017-02-09T12:10:03.026Z</time>
      </trkpt>
      <trkpt lat="42.94086" lon="0.28522">
        <ele>1098</ele>
        <time>2017-02-09T12:10:04.026Z</time>
      </trkpt>
      <trkpt lat="42.94087" lon="0.28522">
        <ele>1098</ele>
        <time>2017-02-09T12:10:05.026Z</time>
      </trkpt>
      <trkpt lat="42.94087" lon="0.28522">
        <ele>1098</ele>
        <time>2017-02-09T12:10:06.026Z</time>
      </trkpt>
      <trkpt lat="42.94087" lon="0.28521">
        <ele>1098</ele>
        <time>2017-02-09T12:10:07.026Z</time>
      </trkpt>
      <trkpt lat="42.94088" lon="0.28521">
        <ele>1098</ele>
        <time>2017-02-09T12:10:08.026Z</time>
      </trkpt>
      <trkpt lat="42.94088" lon="0.28521">
        <ele>1098</ele>
        <time>2017-02-09T12:10:09.026Z</time>
      </trkpt>
      <trkpt lat="42.94089" lon="0.2852">
        <ele>1098</ele>
        <time>2017-02-09T12:10:10.026Z</time>
      </trkpt>
      <trkpt lat="42.9409" lon="0.28519">
        <ele>1098</ele>
        <time>2017-02-09T12:10:11.026Z</time>
      </trkpt>
      <trkpt lat="42.9409" lon="0.28518">
        <ele>1098</ele>
        <time>2017-02-09T12:10:12.026Z</time>
      </trkpt>
      <trkpt lat="42.94091" lon="0.28518">
        <ele>1098</ele>
        <time>2017-02-09T12:10:13.026Z</time>
      </trkpt>
      <trkpt lat="42.94091" lon="0.28517">
        <ele>1098</ele>
        <time>2017-02-09T12:10:14.026Z</time>
      </trkpt>
      <trkpt lat="42.94092" lon="0.28516">
        <ele>1098</ele>
        <time>2017-02-09T12:10:15.026Z</time>
      </trkpt>
      <trkpt lat="42.94092" lon="0.28515">
        <ele>1098</ele>
        <time>2017-02-09T12:10:16.026Z</time>
      </trkpt>
      <trkpt lat="42.94093" lon="0.28515">
        <ele>1098</ele>
        <time>2017-02-09T12:10:17.026Z</time>
      </trkpt>
      <trkpt lat="42.94093" lon="0.28514">
        <ele>1098</ele>
        <time>2017-02-09T12:10:18.026Z</time>
      </trkpt>
      <trkpt lat="42.94094" lon="0.28513">
        <ele>1098</ele>
        <time>2017-02-09T12:10:19.026Z</time>
      </trkpt>
      <trkpt lat="42.94094" lon="0.28512">
        <ele>1097</ele>
        <time>2017-02-09T12:10:20.026Z</time>
      </trkpt>
      <trkpt lat="42.94095" lon="0.28512">
        <ele>1097</ele>
        <time>2017-02-09T12:10:21.026Z</time>
      </trkpt>
      <trkpt lat="42.94095" lon="0.28511">
        <ele>1097</ele>
        <time>2017-02-09T12:10:22.026Z</time>
      </trkpt>
      <trkpt lat="42.94096" lon="0.2851">
        <ele>1097</ele>
        <time>2017-02-09T12:10:23.026Z</time>
      </trkpt>
      <trkpt lat="42.94096" lon="0.2851">
        <ele>1097</ele>
        <time>2017-02-09T12:10:24.026Z</time>
      </trkpt>
      <trkpt lat="42.94097" lon="0.28509">
        <ele>1097</ele>
        <time>2017-02-09T12:10:25.026Z</time>
      </trkpt>
      <trkpt lat="42.94097" lon="0.28508">
        <ele>1097</ele>
        <time>2017-02-09T12:10:26.026Z</time>
      </trkpt>
      <trkpt lat="42.94098" lon="0.28508">
        <ele>1097</ele>
        <time>2017-02-09T12:10:27.026Z</time>
      </trkpt>
      <trkpt lat="42.94099" lon="0.28507">
        <ele>1097</ele>
        <time>2017-02-09T12:10:28.026Z</time>
      </trkpt>
      <trkpt lat="42.94099" lon="0.28506">
        <ele>1097</ele>
        <time>2017-02-09T12:10:29.026Z</time>
      </trkpt>
      <trkpt lat="42.941" lon="0.28506">
        <ele>1097</ele>
        <time>2017-02-09T12:10:30.026Z</time>
      </trkpt>
      <trkpt lat="42.941" lon="0.28506">
        <ele>1096</ele>
        <time>2017-02-09T12:10:31.026Z</time>
      </trkpt>
      <trkpt lat="42.94101" lon="0.28505">
        <ele>1097</ele>
        <time>2017-02-09T12:10:32.026Z</time>
      </trkpt>
      <trkpt lat="42.94101" lon="0.28505">
        <ele>1097</ele>
        <time>2017-02-09T12:10:33.026Z</time>
      </trkpt>
      <trkpt lat="42.94102" lon="0.28504">
        <ele>1097</ele>
        <time>2017-02-09T12:10:34.026Z</time>
      </trkpt>
      <trkpt lat="42.94103" lon="0.28504">
        <ele>1097</ele>
        <time>2017-02-09T12:10:35.026Z</time>
      </trkpt>
      <trkpt lat="42.94103" lon="0.28503">
        <ele>1097</ele>
        <time>2017-02-09T12:10:36.026Z</time>
      </trkpt>
      <trkpt lat="42.94104" lon="0.28503">
        <ele>1097</ele>
        <time>2017-02-09T12:10:37.026Z</time>
      </trkpt>
      <trkpt lat="42.94104" lon="0.28503">
        <ele>1097</ele>
        <time>2017-02-09T12:10:38.026Z</time>
      </trkpt>
      <trkpt lat="42.94105" lon="0.28502">
        <ele>1097</ele>
        <time>2017-02-09T12:10:39.026Z</time>
      </trkpt>
      <trkpt lat="42.94106" lon="0.28502">
        <ele>1097</ele>
        <time>2017-02-09T12:10:40.026Z</time>
      </trkpt>
      <trkpt lat="42.94106" lon="0.28501">
        <ele>1097</ele>
        <time>2017-02-09T12:10:41.026Z</time>
      </trkpt>
      <trkpt lat="42.94107" lon="0.28501">
        <ele>1098</ele>
        <time>2017-02-09T12:10:42.026Z</time>
      </trkpt>
      <trkpt lat="42.94108" lon="0.28501">
        <ele>1098</ele>
        <time>2017-02-09T12:10:43.026Z</time>
      </trkpt>
      <trkpt lat="42.94108" lon="0.285">
        <ele>1098</ele>
        <time>2017-02-09T12:10:44.026Z</time>
      </trkpt>
      <trkpt lat="42.94109" lon="0.285">
        <ele>1098</ele>
        <time>2017-02-09T12:10:45.026Z</time>
      </trkpt>
      <trkpt lat="42.94109" lon="0.285">
        <ele>1098</ele>
        <time>2017-02-09T12:10:46.026Z</time>
      </trkpt>
      <trkpt lat="42.9411" lon="0.285">
        <ele>1098</ele>
        <time>2017-02-09T12:10:47.026Z</time>
      </trkpt>
      <trkpt lat="42.94111" lon="0.28499">
        <ele>1098</ele>
        <time>2017-02-09T12:10:48.026Z</time>
      </trkpt>
      <trkpt lat="42.94111" lon="0.28499">
        <ele>1098</ele>
        <time>2017-02-09T12:10:49.026Z</time>
      </trkpt>
      <trkpt lat="42.94112" lon="0.28499">
        <ele>1098</ele>
        <time>2017-02-09T12:10:50.026Z</time>
      </trkpt>
      <trkpt lat="42.94113" lon="0.28499">
        <ele>1098</ele>
        <time>2017-02-09T12:10:51.026Z</time>
      </trkpt>
      <trkpt lat="42.94113" lon="0.28498">
        <ele>1098</ele>
        <time>2017-02-09T12:10:52.026Z</time>
      </trkpt>
      <trkpt lat="42.94114" lon="0.28498">
        <ele>1098</ele>
        <time>2017-02-09T12:10:53.026Z</time>
      </trkpt>
      <trkpt lat="42.94115" lon="0.28498">
        <ele>1098</ele>
        <time>2017-02-09T12:10:54.026Z</time>
      </trkpt>
      <trkpt lat="42.94115" lon="0.28498">
        <ele>1098</ele>
        <time>2017-02-09T12:10:55.026Z</time>
      </trkpt>
      <trkpt lat="42.94116" lon="0.28497">
        <ele>1098</ele>
        <time>2017-02-09T12:10:56.026Z</time>
      </trkpt>
      <trkpt lat="42.94116" lon="0.28497">
        <ele>1098</ele>
        <time>2017-02-09T12:10:57.026Z</time>
      </trkpt>
      <trkpt lat="42.94117" lon="0.28497">
        <ele>1098</ele>
        <time>2017-02-09T12:10:58.026Z</time>
      </trkpt>
      <trkpt lat="42.94117" lon="0.28496">
        <ele>1098</ele>
        <time>2017-02-09T12:10:59.026Z</time>
      </trkpt>
      <trkpt lat="42.94117" lon="0.28495">
        <ele>1098</ele>
        <time>2017-02-09T12:11:00.026Z</time>
      </trkpt>
      <trkpt lat="42.94118" lon="0.28494">
        <ele>1098</ele>
        <time>2017-02-09T12:11:01.026Z</time>
      </trkpt>
      <trkpt lat="42.94118" lon="0.28494">
        <ele>1098</ele>
        <time>2017-02-09T12:11:02.026Z</time>
      </trkpt>
      <trkpt lat="42.94119" lon="0.28493">
        <ele>1098</ele>
        <time>2017-02-09T12:11:03.026Z</time>
      </trkpt>
      <trkpt lat="42.94119" lon="0.28492">
        <ele>1098</ele>
        <time>2017-02-09T12:11:04.026Z</time>
      </trkpt>
      <trkpt lat="42.9412" lon="0.28491">
        <ele>1098</ele>
        <time>2017-02-09T12:11:05.026Z</time>
      </trkpt>
      <trkpt lat="42.9412" lon="0.2849">
        <ele>1098</ele>
        <time>2017-02-09T12:11:06.026Z</time>
      </trkpt>
      <trkpt lat="42.9412" lon="0.2849">
        <ele>1098</ele>
        <time>2017-02-09T12:11:07.026Z</time>
      </trkpt>
      <trkpt lat="42.94121" lon="0.28489">
        <ele>1098</ele>
        <time>2017-02-09T12:11:08.026Z</time>
      </trkpt>
      <trkpt lat="42.94121" lon="0.28488">
        <ele>1098</ele>
        <time>2017-02-09T12:11:09.026Z</time>
      </trkpt>
      <trkpt lat="42.94122" lon="0.28487">
        <ele>1098</ele>
        <time>2017-02-09T12:11:10.026Z</time>
      </trkpt>
      <trkpt lat="42.94122" lon="0.28486">
        <ele>1098</ele>
        <time>2017-02-09T12:11:11.026Z</time>
      </trkpt>
      <trkpt lat="42.94122" lon="0.28486">
        <ele>1098</ele>
        <time>2017-02-09T12:11:12.026Z</time>
      </trkpt>
      <trkpt lat="42.94123" lon="0.28485">
        <ele>1097</ele>
        <time>2017-02-09T12:11:13.026Z</time>
      </trkpt>
      <trkpt lat="42.94123" lon="0.28484">
        <ele>1098</ele>
        <time>2017-02-09T12:11:14.026Z</time>
      </trkpt>
      <trkpt lat="42.94124" lon="0.28483">
        <ele>1098</ele>
        <time>2017-02-09T12:11:15.026Z</time>
      </trkpt>
      <trkpt lat="42.94124" lon="0.28482">
        <ele>1098</ele>
        <time>2017-02-09T12:11:16.026Z</time>
      </trkpt>
      <trkpt lat="42.94124" lon="0.28482">
        <ele>1098</ele>
        <time>2017-02-09T12:11:17.026Z</time>
      </trkpt>
      <trkpt lat="42.94125" lon="0.28481">
        <ele>1098</ele>
        <time>2017-02-09T12:11:18.026Z</time>
      </trkpt>
      <trkpt lat="42.94125" lon="0.2848">
        <ele>1098</ele>
        <time>2017-02-09T12:11:19.026Z</time>
      </trkpt>
      <trkpt lat="42.94126" lon="0.28479">
        <ele>1098</ele>
        <time>2017-02-09T12:11:20.026Z</time>
      </trkpt>
      <trkpt lat="42.94126" lon="0.28478">
        <ele>1098</ele>
        <time>2017-02-09T12:11:21.026Z</time>
      </trkpt>
      <trkpt lat="42.94126" lon="0.28477">
        <ele>1098</ele>
        <time>2017-02-09T12:11:22.026Z</time>
      </trkpt>
      <trkpt lat="42.94127" lon="0.28476">
        <ele>1098</ele>
        <time>2017-02-09T12:11:23.026Z</time>
      </trkpt>
      <trkpt lat="42.94127" lon="0.28476">
        <ele>1098</ele>
        <time>2017-02-09T12:11:24.026Z</time>
      </trkpt>
      <trkpt lat="42.94127" lon="0.28475">
        <ele>1098</ele>
        <time>2017-02-09T12:11:25.026Z</time>
      </trkpt>
      <trkpt lat="42.94128" lon="0.28474">
        <ele>1098</ele>
        <time>2017-02-09T12:11:26.026Z</time>
      </trkpt>
      <trkpt lat="42.94128" lon="0.28473">
        <ele>1098</ele>
        <time>2017-02-09T12:11:27.026Z</time>
      </trkpt>
      <trkpt lat="42.94128" lon="0.28472">
        <ele>1098</ele>
        <time>2017-02-09T12:11:28.026Z</time>
      </trkpt>
      <trkpt lat="42.94129" lon="0.28472">
        <ele>1098</ele>
        <time>2017-02-09T12:11:29.026Z</time>
      </trkpt>
      <trkpt lat="42.94129" lon="0.28471">
        <ele>1098</ele>
        <time>2017-02-09T12:11:30.026Z</time>
      </trkpt>
      <trkpt lat="42.9413" lon="0.2847">
        <ele>1098</ele>
        <time>2017-02-09T12:11:31.026Z</time>
      </trkpt>
      <trkpt lat="42.9413" lon="0.28469">
        <ele>1098</ele>
        <time>2017-02-09T12:11:32.026Z</time>
      </trkpt>
      <trkpt lat="42.94131" lon="0.28468">
        <ele>1098</ele>
        <time>2017-02-09T12:11:33.026Z</time>
      </trkpt>
      <trkpt lat="42.94131" lon="0.28467">
        <ele>1098</ele>
        <time>2017-02-09T12:11:34.026Z</time>
      </trkpt>
      <trkpt lat="42.94131" lon="0.28466">
        <ele>1098</ele>
        <time>2017-02-09T12:11:35.026Z</time>
      </trkpt>
      <trkpt lat="42.94132" lon="0.28465">
        <ele>1098</ele>
        <time>2017-02-09T12:11:36.026Z</time>
      </trkpt>
      <trkpt lat="42.94132" lon="0.28464">
        <ele>1098</ele>
        <time>2017-02-09T12:11:37.026Z</time>
      </trkpt>
      <trkpt lat="42.94132" lon="0.28463">
        <ele>1098</ele>
        <time>2017-02-09T12:11:38.026Z</time>
      </trkpt>
      <trkpt lat="42.94133" lon="0.28462">
        <ele>1098</ele>
        <time>2017-02-09T12:11:39.026Z</time>
      </trkpt>
      <trkpt lat="42.94133" lon="0.28461">
        <ele>1098</ele>
        <time>2017-02-09T12:11:40.026Z</time>
      </trkpt>
      <trkpt lat="42.94134" lon="0.28461">
        <ele>1098</ele>
        <time>2017-02-09T12:11:41.026Z</time>
      </trkpt>
      <trkpt lat="42.94134" lon="0.2846">
        <ele>1098</ele>
        <time>2017-02-09T12:11:42.026Z</time>
      </trkpt>
      <trkpt lat="42.94135" lon="0.28459">
        <ele>1098</ele>
        <time>2017-02-09T12:11:43.026Z</time>
      </trkpt>
      <trkpt lat="42.94135" lon="0.28459">
        <ele>1098</ele>
        <time>2017-02-09T12:11:44.026Z</time>
      </trkpt>
      <trkpt lat="42.94136" lon="0.28458">
        <ele>1098</ele>
        <time>2017-02-09T12:11:45.026Z</time>
      </trkpt>
      <trkpt lat="42.94136" lon="0.28458">
        <ele>1098</ele>
        <time>2017-02-09T12:11:46.026Z</time>
      </trkpt>
      <trkpt lat="42.94137" lon="0.28457">
        <ele>1098</ele>
        <time>2017-02-09T12:11:47.026Z</time>
      </trkpt>
      <trkpt lat="42.94137" lon="0.28456">
        <ele>1098</ele>
        <time>2017-02-09T12:11:48.026Z</time>
      </trkpt>
      <trkpt lat="42.94138" lon="0.28455">
        <ele>1098</ele>
        <time>2017-02-09T12:11:49.026Z</time>
      </trkpt>
      <trkpt lat="42.94138" lon="0.28454">
        <ele>1098</ele>
        <time>2017-02-09T12:11:50.026Z</time>
      </trkpt>
      <trkpt lat="42.94138" lon="0.28453">
        <ele>1098</ele>
        <time>2017-02-09T12:11:51.026Z</time>
      </trkpt>
      <trkpt lat="42.94139" lon="0.28452">
        <ele>1098</ele>
        <time>2017-02-09T12:11:52.026Z</time>
      </trkpt>
      <trkpt lat="42.94139" lon="0.28451">
        <ele>1098</ele>
        <time>2017-02-09T12:11:53.026Z</time>
      </trkpt>
      <trkpt lat="42.94139" lon="0.2845">
        <ele>1098</ele>
        <time>2017-02-09T12:11:54.026Z</time>
      </trkpt>
      <trkpt lat="42.9414" lon="0.28449">
        <ele>1098</ele>
        <time>2017-02-09T12:11:55.026Z</time>
      </trkpt>
      <trkpt lat="42.9414" lon="0.28448">
        <ele>1098</ele>
        <time>2017-02-09T12:11:56.026Z</time>
      </trkpt>
      <trkpt lat="42.9414" lon="0.28447">
        <ele>1098</ele>
        <time>2017-02-09T12:11:57.026Z</time>
      </trkpt>
      <trkpt lat="42.9414" lon="0.28447">
        <ele>1098</ele>
        <time>2017-02-09T12:11:58.026Z</time>
      </trkpt>
      <trkpt lat="42.94141" lon="0.28446">
        <ele>1098</ele>
        <time>2017-02-09T12:11:59.026Z</time>
      </trkpt>
      <trkpt lat="42.94141" lon="0.28445">
        <ele>1098</ele>
        <time>2017-02-09T12:12:00.026Z</time>
      </trkpt>
      <trkpt lat="42.94141" lon="0.28444">
        <ele>1098</ele>
        <time>2017-02-09T12:12:01.026Z</time>
      </trkpt>
      <trkpt lat="42.94142" lon="0.28443">
        <ele>1098</ele>
        <time>2017-02-09T12:12:02.026Z</time>
      </trkpt>
      <trkpt lat="42.94142" lon="0.28442">
        <ele>1098</ele>
        <time>2017-02-09T12:12:03.026Z</time>
      </trkpt>
      <trkpt lat="42.94142" lon="0.28441">
        <ele>1098</ele>
        <time>2017-02-09T12:12:04.026Z</time>
      </trkpt>
      <trkpt lat="42.94142" lon="0.2844">
        <ele>1098</ele>
        <time>2017-02-09T12:12:05.026Z</time>
      </trkpt>
      <trkpt lat="42.94143" lon="0.28439">
        <ele>1098</ele>
        <time>2017-02-09T12:12:06.026Z</time>
      </trkpt>
      <trkpt lat="42.94143" lon="0.28438">
        <ele>1098</ele>
        <time>2017-02-09T12:12:07.026Z</time>
      </trkpt>
      <trkpt lat="42.94143" lon="0.28438">
        <ele>1098</ele>
        <time>2017-02-09T12:12:08.026Z</time>
      </trkpt>
      <trkpt lat="42.94143" lon="0.28437">
        <ele>1097</ele>
        <time>2017-02-09T12:12:09.026Z</time>
      </trkpt>
      <trkpt lat="42.94144" lon="0.28436">
        <ele>1097</ele>
        <time>2017-02-09T12:12:10.026Z</time>
      </trkpt>
      <trkpt lat="42.94144" lon="0.28435">
        <ele>1097</ele>
        <time>2017-02-09T12:12:11.026Z</time>
      </trkpt>
      <trkpt lat="42.94144" lon="0.28435">
        <ele>1097</ele>
        <time>2017-02-09T12:12:12.026Z</time>
      </trkpt>
      <trkpt lat="42.94145" lon="0.28434">
        <ele>1097</ele>
        <time>2017-02-09T12:12:13.026Z</time>
      </trkpt>
      <trkpt lat="42.94145" lon="0.28433">
        <ele>1097</ele>
        <time>2017-02-09T12:12:14.026Z</time>
      </trkpt>
      <trkpt lat="42.94146" lon="0.28432">
        <ele>1097</ele>
        <time>2017-02-09T12:12:15.026Z</time>
      </trkpt>
      <trkpt lat="42.94146" lon="0.28431">
        <ele>1097</ele>
        <time>2017-02-09T12:12:16.026Z</time>
      </trkpt>
      <trkpt lat="42.94146" lon="0.2843">
        <ele>1097</ele>
        <time>2017-02-09T12:12:17.026Z</time>
      </trkpt>
      <trkpt lat="42.94147" lon="0.2843">
        <ele>1097</ele>
        <time>2017-02-09T12:12:18.026Z</time>
      </trkpt>
      <trkpt lat="42.94147" lon="0.28429">
        <ele>1097</ele>
        <time>2017-02-09T12:12:19.026Z</time>
      </trkpt>
      <trkpt lat="42.94148" lon="0.28428">
        <ele>1097</ele>
        <time>2017-02-09T12:12:20.026Z</time>
      </trkpt>
      <trkpt lat="42.94148" lon="0.28427">
        <ele>1097</ele>
        <time>2017-02-09T12:12:21.026Z</time>
      </trkpt>
      <trkpt lat="42.94149" lon="0.28426">
        <ele>1097</ele>
        <time>2017-02-09T12:12:22.026Z</time>
      </trkpt>
      <trkpt lat="42.94149" lon="0.28425">
        <ele>1097</ele>
        <time>2017-02-09T12:12:23.026Z</time>
      </trkpt>
      <trkpt lat="42.94149" lon="0.28425">
        <ele>1097</ele>
        <time>2017-02-09T12:12:24.026Z</time>
      </trkpt>
      <trkpt lat="42.9415" lon="0.28424">
        <ele>1097</ele>
        <time>2017-02-09T12:12:25.026Z</time>
      </trkpt>
      <trkpt lat="42.9415" lon="0.28423">
        <ele>1097</ele>
        <time>2017-02-09T12:12:26.026Z</time>
      </trkpt>
      <trkpt lat="42.94151" lon="0.28422">
        <ele>1097</ele>
        <time>2017-02-09T12:12:27.026Z</time>
      </trkpt>
      <trkpt lat="42.94151" lon="0.28421">
        <ele>1097</ele>
        <time>2017-02-09T12:12:28.026Z</time>
      </trkpt>
      <trkpt lat="42.94152" lon="0.28421">
        <ele>1097</ele>
        <time>2017-02-09T12:12:29.026Z</time>
      </trkpt>
      <trkpt lat="42.94152" lon="0.2842">
        <ele>1097</ele>
        <time>2017-02-09T12:12:30.026Z</time>
      </trkpt>
      <trkpt lat="42.94153" lon="0.28419">
        <ele>1097</ele>
        <time>2017-02-09T12:12:31.026Z</time>
      </trkpt>
      <trkpt lat="42.94153" lon="0.28419">
        <ele>1097</ele>
        <time>2017-02-09T12:12:32.026Z</time>
      </trkpt>
      <trkpt lat="42.94154" lon="0.28418">
        <ele>1097</ele>
        <time>2017-02-09T12:12:33.026Z</time>
      </trkpt>
      <trkpt lat="42.94154" lon="0.28417">
        <ele>1097</ele>
        <time>2017-02-09T12:12:34.026Z</time>
      </trkpt>
      <trkpt lat="42.94155" lon="0.28417">
        <ele>1096</ele>
        <time>2017-02-09T12:12:35.026Z</time>
      </trkpt>
      <trkpt lat="42.94155" lon="0.28416">
        <ele>1096</ele>
        <time>2017-02-09T12:12:36.026Z</time>
      </trkpt>
      <trkpt lat="42.94156" lon="0.28415">
        <ele>1097</ele>
        <time>2017-02-09T12:12:37.026Z</time>
      </trkpt>
      <trkpt lat="42.94157" lon="0.28415">
        <ele>1096</ele>
        <time>2017-02-09T12:12:38.026Z</time>
      </trkpt>
      <trkpt lat="42.94157" lon="0.28414">
        <ele>1097</ele>
        <time>2017-02-09T12:12:39.026Z</time>
      </trkpt>
      <trkpt lat="42.94158" lon="0.28413">
        <ele>1096</ele>
        <time>2017-02-09T12:12:40.026Z</time>
      </trkpt>
      <trkpt lat="42.94158" lon="0.28412">
        <ele>1096</ele>
        <time>2017-02-09T12:12:41.026Z</time>
      </trkpt>
      <trkpt lat="42.94159" lon="0.28412">
        <ele>1096</ele>
        <time>2017-02-09T12:12:42.026Z</time>
      </trkpt>
      <trkpt lat="42.94159" lon="0.28411">
        <ele>1096</ele>
        <time>2017-02-09T12:12:43.026Z</time>
      </trkpt>
      <trkpt lat="42.9416" lon="0.28411">
        <ele>1096</ele>
        <time>2017-02-09T12:12:44.026Z</time>
      </trkpt>
      <trkpt lat="42.94161" lon="0.28411">
        <ele>1096</ele>
        <time>2017-02-09T12:12:45.026Z</time>
      </trkpt>
      <trkpt lat="42.94161" lon="0.28411">
        <ele>1096</ele>
        <time>2017-02-09T12:12:46.026Z</time>
      </trkpt>
      <trkpt lat="42.94162" lon="0.28412">
        <ele>1096</ele>
        <time>2017-02-09T12:12:47.026Z</time>
      </trkpt>
      <trkpt lat="42.94163" lon="0.28412">
        <ele>1096</ele>
        <time>2017-02-09T12:12:48.026Z</time>
      </trkpt>
      <trkpt lat="42.94164" lon="0.28412">
        <ele>1096</ele>
        <time>2017-02-09T12:12:49.026Z</time>
      </trkpt>
      <trkpt lat="42.94164" lon="0.28412">
        <ele>1096</ele>
        <time>2017-02-09T12:12:50.026Z</time>
      </trkpt>
      <trkpt lat="42.94165" lon="0.28412">
        <ele>1096</ele>
        <time>2017-02-09T12:12:51.026Z</time>
      </trkpt>
      <trkpt lat="42.94166" lon="0.28412">
        <ele>1096</ele>
        <time>2017-02-09T12:12:52.026Z</time>
      </trkpt>
      <trkpt lat="42.94167" lon="0.28411">
        <ele>1096</ele>
        <time>2017-02-09T12:12:53.026Z</time>
      </trkpt>
      <trkpt lat="42.94167" lon="0.28411">
        <ele>1096</ele>
        <time>2017-02-09T12:12:54.026Z</time>
      </trkpt>
      <trkpt lat="42.94168" lon="0.28411">
        <ele>1096</ele>
        <time>2017-02-09T12:12:55.026Z</time>
      </trkpt>
      <trkpt lat="42.94169" lon="0.2841">
        <ele>1096</ele>
        <time>2017-02-09T12:12:56.026Z</time>
      </trkpt>
      <trkpt lat="42.94169" lon="0.2841">
        <ele>1096</ele>
        <time>2017-02-09T12:12:57.026Z</time>
      </trkpt>
      <trkpt lat="42.9417" lon="0.28409">
        <ele>1096</ele>
        <time>2017-02-09T12:12:58.026Z</time>
      </trkpt>
      <trkpt lat="42.94171" lon="0.28409">
        <ele>1096</ele>
        <time>2017-02-09T12:12:59.026Z</time>
      </trkpt>
      <trkpt lat="42.94172" lon="0.28408">
        <ele>1096</ele>
        <time>2017-02-09T12:13:00.026Z</time>
      </trkpt>
      <trkpt lat="42.94172" lon="0.28408">
        <ele>1096</ele>
        <time>2017-02-09T12:13:01.026Z</time>
      </trkpt>
      <trkpt lat="42.94173" lon="0.28407">
        <ele>1096</ele>
        <time>2017-02-09T12:13:02.026Z</time>
      </trkpt>
      <trkpt lat="42.94174" lon="0.28406">
        <ele>1096</ele>
        <time>2017-02-09T12:13:03.026Z</time>
      </trkpt>
      <trkpt lat="42.94174" lon="0.28406">
        <ele>1096</ele>
        <time>2017-02-09T12:13:04.026Z</time>
      </trkpt>
      <trkpt lat="42.94175" lon="0.28405">
        <ele>1096</ele>
        <time>2017-02-09T12:13:05.026Z</time>
      </trkpt>
      <trkpt lat="42.94176" lon="0.28405">
        <ele>1096</ele>
        <time>2017-02-09T12:13:06.026Z</time>
      </trkpt>
      <trkpt lat="42.94177" lon="0.28405">
        <ele>1096</ele>
        <time>2017-02-09T12:13:07.026Z</time>
      </trkpt>
      <trkpt lat="42.94177" lon="0.28405">
        <ele>1096</ele>
        <time>2017-02-09T12:13:08.026Z</time>
      </trkpt>
      <trkpt lat="42.94178" lon="0.28405">
        <ele>1096</ele>
        <time>2017-02-09T12:13:09.026Z</time>
      </trkpt>
      <trkpt lat="42.94179" lon="0.28405">
        <ele>1096</ele>
        <time>2017-02-09T12:13:10.026Z</time>
      </trkpt>
      <trkpt lat="42.94179" lon="0.28405">
        <ele>1096</ele>
        <time>2017-02-09T12:13:11.026Z</time>
      </trkpt>
      <trkpt lat="42.94179" lon="0.28405">
        <ele>1096</ele>
        <time>2017-02-09T12:13:12.026Z</time>
      </trkpt>
      <trkpt lat="42.94179" lon="0.28405">
        <ele>1096</ele>
        <time>2017-02-09T12:13:13.026Z</time>
      </trkpt>
      <trkpt lat="42.94179" lon="0.28405">
        <ele>1096</ele>
        <time>2017-02-09T12:13:14.026Z</time>
      </trkpt>
      <trkpt lat="42.94179" lon="0.28405">
        <ele>1096</ele>
        <time>2017-02-09T12:13:15.026Z</time>
      </trkpt>
      <trkpt lat="42.94179" lon="0.28405">
        <ele>1096</ele>
        <time>2017-02-09T12:13:16.026Z</time>
      </trkpt>
      <trkpt lat="42.94181" lon="0.28407">
        <ele>1094</ele>
        <time>2017-02-09T12:13:17.030Z</time>
      </trkpt>
      <trkpt lat="42.94182" lon="0.28407">
        <ele>1094</ele>
        <time>2017-02-09T12:13:18.030Z</time>
      </trkpt>
      <trkpt lat="42.94183" lon="0.28407">
        <ele>1094</ele>
        <time>2017-02-09T12:13:19.030Z</time>
      </trkpt>
      <trkpt lat="42.94184" lon="0.28407">
        <ele>1094</ele>
        <time>2017-02-09T12:13:20.030Z</time>
      </trkpt>
      <trkpt lat="42.94184" lon="0.28406">
        <ele>1094</ele>
        <time>2017-02-09T12:13:21.030Z</time>
      </trkpt>
      <trkpt lat="42.94185" lon="0.28406">
        <ele>1094</ele>
        <time>2017-02-09T12:13:22.030Z</time>
      </trkpt>
      <trkpt lat="42.94186" lon="0.28406">
        <ele>1094</ele>
        <time>2017-02-09T12:13:23.030Z</time>
      </trkpt>
      <trkpt lat="42.94187" lon="0.28405">
        <ele>1094</ele>
        <time>2017-02-09T12:13:24.030Z</time>
      </trkpt>
      <trkpt lat="42.94187" lon="0.28405">
        <ele>1094</ele>
        <time>2017-02-09T12:13:25.030Z</time>
      </trkpt>
      <trkpt lat="42.94188" lon="0.28404">
        <ele>1094</ele>
        <time>2017-02-09T12:13:26.030Z</time>
      </trkpt>
      <trkpt lat="42.94189" lon="0.28404">
        <ele>1094</ele>
        <time>2017-02-09T12:13:27.030Z</time>
      </trkpt>
      <trkpt lat="42.9419" lon="0.28404">
        <ele>1094</ele>
        <time>2017-02-09T12:13:28.030Z</time>
      </trkpt>
      <trkpt lat="42.94191" lon="0.28404">
        <ele>1094</ele>
        <time>2017-02-09T12:13:29.030Z</time>
      </trkpt>
      <trkpt lat="42.94191" lon="0.28403">
        <ele>1094</ele>
        <time>2017-02-09T12:13:30.030Z</time>
      </trkpt>
      <trkpt lat="42.94192" lon="0.28403">
        <ele>1094</ele>
        <time>2017-02-09T12:13:31.030Z</time>
      </trkpt>
      <trkpt lat="42.94193" lon="0.28402">
        <ele>1094</ele>
        <time>2017-02-09T12:13:32.030Z</time>
      </trkpt>
      <trkpt lat="42.94193" lon="0.28402">
        <ele>1094</ele>
        <time>2017-02-09T12:13:33.030Z</time>
      </trkpt>
      <trkpt lat="42.94194" lon="0.28401">
        <ele>1094</ele>
        <time>2017-02-09T12:13:34.030Z</time>
      </trkpt>
      <trkpt lat="42.94195" lon="0.28401">
        <ele>1093</ele>
        <time>2017-02-09T12:13:35.030Z</time>
      </trkpt>
      <trkpt lat="42.94196" lon="0.28401">
        <ele>1093</ele>
        <time>2017-02-09T12:13:36.030Z</time>
      </trkpt>
      <trkpt lat="42.94196" lon="0.28401">
        <ele>1093</ele>
        <time>2017-02-09T12:13:37.030Z</time>
      </trkpt>
      <trkpt lat="42.94197" lon="0.284">
        <ele>1093</ele>
        <time>2017-02-09T12:13:38.030Z</time>
      </trkpt>
      <trkpt lat="42.94197" lon="0.284">
        <ele>1093</ele>
        <time>2017-02-09T12:13:39.030Z</time>
      </trkpt>
      <trkpt lat="42.94198" lon="0.284">
        <ele>1093</ele>
        <time>2017-02-09T12:13:40.030Z</time>
      </trkpt>
      <trkpt lat="42.94198" lon="0.284">
        <ele>1093</ele>
        <time>2017-02-09T12:13:41.030Z</time>
      </trkpt>
      <trkpt lat="42.94199" lon="0.284">
        <ele>1093</ele>
        <time>2017-02-09T12:13:42.030Z</time>
      </trkpt>
      <trkpt lat="42.942" lon="0.284">
        <ele>1093</ele>
        <time>2017-02-09T12:13:43.030Z</time>
      </trkpt>
      <trkpt lat="42.942" lon="0.28399">
        <ele>1093</ele>
        <time>2017-02-09T12:13:44.030Z</time>
      </trkpt>
      <trkpt lat="42.942" lon="0.28399">
        <ele>1093</ele>
        <time>2017-02-09T12:13:45.030Z</time>
      </trkpt>
      <trkpt lat="42.94201" lon="0.28399">
        <ele>1093</ele>
        <time>2017-02-09T12:13:46.030Z</time>
      </trkpt>
      <trkpt lat="42.94201" lon="0.28399">
        <ele>1093</ele>
        <time>2017-02-09T12:13:47.030Z</time>
      </trkpt>
      <trkpt lat="42.94202" lon="0.28399">
        <ele>1093</ele>
        <time>2017-02-09T12:13:48.030Z</time>
      </trkpt>
      <trkpt lat="42.94203" lon="0.28399">
        <ele>1093</ele>
        <time>2017-02-09T12:13:49.030Z</time>
      </trkpt>
      <trkpt lat="42.94204" lon="0.28399">
        <ele>1093</ele>
        <time>2017-02-09T12:13:50.030Z</time>
      </trkpt>
      <trkpt lat="42.94205" lon="0.28398">
        <ele>1093</ele>
        <time>2017-02-09T12:13:51.030Z</time>
      </trkpt>
      <trkpt lat="42.94205" lon="0.28398">
        <ele>1093</ele>
        <time>2017-02-09T12:13:52.030Z</time>
      </trkpt>
      <trkpt lat="42.94206" lon="0.28398">
        <ele>1093</ele>
        <time>2017-02-09T12:13:53.030Z</time>
      </trkpt>
      <trkpt lat="42.94207" lon="0.28398">
        <ele>1093</ele>
        <time>2017-02-09T12:13:54.030Z</time>
      </trkpt>
      <trkpt lat="42.94208" lon="0.28398">
        <ele>1094</ele>
        <time>2017-02-09T12:13:55.030Z</time>
      </trkpt>
      <trkpt lat="42.94208" lon="0.28398">
        <ele>1093</ele>
        <time>2017-02-09T12:13:56.030Z</time>
      </trkpt>
      <trkpt lat="42.94209" lon="0.28399">
        <ele>1093</ele>
        <time>2017-02-09T12:13:57.030Z</time>
      </trkpt>
      <trkpt lat="42.9421" lon="0.28399">
        <ele>1094</ele>
        <time>2017-02-09T12:13:58.030Z</time>
      </trkpt>
      <trkpt lat="42.94211" lon="0.284">
        <ele>1094</ele>
        <time>2017-02-09T12:13:59.030Z</time>
      </trkpt>
      <trkpt lat="42.94211" lon="0.284">
        <ele>1094</ele>
        <time>2017-02-09T12:14:00.030Z</time>
      </trkpt>
      <trkpt lat="42.94212" lon="0.28401">
        <ele>1094</ele>
        <time>2017-02-09T12:14:01.030Z</time>
      </trkpt>
      <trkpt lat="42.94212" lon="0.28401">
        <ele>1094</ele>
        <time>2017-02-09T12:14:02.030Z</time>
      </trkpt>
      <trkpt lat="42.94213" lon="0.28402">
        <ele>1094</ele>
        <time>2017-02-09T12:14:03.030Z</time>
      </trkpt>
      <trkpt lat="42.94213" lon="0.28402">
        <ele>1094</ele>
        <time>2017-02-09T12:14:04.030Z</time>
      </trkpt>
      <trkpt lat="42.94214" lon="0.28403">
        <ele>1094</ele>
        <time>2017-02-09T12:14:05.030Z</time>
      </trkpt>
      <trkpt lat="42.94215" lon="0.28404">
        <ele>1094</ele>
        <time>2017-02-09T12:14:06.030Z</time>
      </trkpt>
      <trkpt lat="42.94215" lon="0.28404">
        <ele>1094</ele>
        <time>2017-02-09T12:14:07.030Z</time>
      </trkpt>
      <trkpt lat="42.94216" lon="0.28405">
        <ele>1094</ele>
        <time>2017-02-09T12:14:08.030Z</time>
      </trkpt>
      <trkpt lat="42.94216" lon="0.28406">
        <ele>1094</ele>
        <time>2017-02-09T12:14:09.030Z</time>
      </trkpt>
      <trkpt lat="42.94217" lon="0.28407">
        <ele>1094</ele>
        <time>2017-02-09T12:14:10.030Z</time>
      </trkpt>
      <trkpt lat="42.94217" lon="0.28407">
        <ele>1094</ele>
        <time>2017-02-09T12:14:11.030Z</time>
      </trkpt>
      <trkpt lat="42.94217" lon="0.28408">
        <ele>1094</ele>
        <time>2017-02-09T12:14:12.030Z</time>
      </trkpt>
      <trkpt lat="42.94218" lon="0.28409">
        <ele>1094</ele>
        <time>2017-02-09T12:14:13.030Z</time>
      </trkpt>
      <trkpt lat="42.94218" lon="0.28409">
        <ele>1094</ele>
        <time>2017-02-09T12:14:14.030Z</time>
      </trkpt>
      <trkpt lat="42.94218" lon="0.28409">
        <ele>1094</ele>
        <time>2017-02-09T12:14:15.030Z</time>
      </trkpt>
      <trkpt lat="42.94218" lon="0.28409">
        <ele>1094</ele>
        <time>2017-02-09T12:14:16.030Z</time>
      </trkpt>
      <trkpt lat="42.94218" lon="0.28409">
        <ele>1094</ele>
        <time>2017-02-09T12:14:17.030Z</time>
      </trkpt>
      <trkpt lat="42.94218" lon="0.28409">
        <ele>1094</ele>
        <time>2017-02-09T12:14:18.030Z</time>
      </trkpt>
      <trkpt lat="42.94218" lon="0.28409">
        <ele>1094</ele>
        <time>2017-02-09T12:14:19.030Z</time>
      </trkpt>
      <trkpt lat="42.94218" lon="0.28409">
        <ele>1094</ele>
        <time>2017-02-09T12:14:20.030Z</time>
      </trkpt>
      <trkpt lat="42.9422" lon="0.28414">
        <ele>1096</ele>
        <time>2017-02-09T12:14:21.022Z</time>
      </trkpt>
      <trkpt lat="42.94221" lon="0.28415">
        <ele>1096</ele>
        <time>2017-02-09T12:14:22.022Z</time>
      </trkpt>
      <trkpt lat="42.94221" lon="0.28416">
        <ele>1096</ele>
        <time>2017-02-09T12:14:23.022Z</time>
      </trkpt>
      <trkpt lat="42.94221" lon="0.28417">
        <ele>1096</ele>
        <time>2017-02-09T12:14:24.022Z</time>
      </trkpt>
      <trkpt lat="42.94222" lon="0.28418">
        <ele>1096</ele>
        <time>2017-02-09T12:14:25.022Z</time>
      </trkpt>
      <trkpt lat="42.94222" lon="0.28419">
        <ele>1096</ele>
        <time>2017-02-09T12:14:26.022Z</time>
      </trkpt>
      <trkpt lat="42.94222" lon="0.2842">
        <ele>1096</ele>
        <time>2017-02-09T12:14:27.022Z</time>
      </trkpt>
      <trkpt lat="42.94223" lon="0.28421">
        <ele>1096</ele>
        <time>2017-02-09T12:14:28.022Z</time>
      </trkpt>
      <trkpt lat="42.94223" lon="0.28422">
        <ele>1095</ele>
        <time>2017-02-09T12:14:29.022Z</time>
      </trkpt>
      <trkpt lat="42.94223" lon="0.28423">
        <ele>1095</ele>
        <time>2017-02-09T12:14:30.022Z</time>
      </trkpt>
      <trkpt lat="42.94224" lon="0.28424">
        <ele>1095</ele>
        <time>2017-02-09T12:14:31.022Z</time>
      </trkpt>
      <trkpt lat="42.94224" lon="0.28425">
        <ele>1095</ele>
        <time>2017-02-09T12:14:32.022Z</time>
      </trkpt>
      <trkpt lat="42.94225" lon="0.28426">
        <ele>1095</ele>
        <time>2017-02-09T12:14:33.022Z</time>
      </trkpt>
      <trkpt lat="42.94225" lon="0.28427">
        <ele>1094</ele>
        <time>2017-02-09T12:14:34.022Z</time>
      </trkpt>
      <trkpt lat="42.94225" lon="0.28428">
        <ele>1094</ele>
        <time>2017-02-09T12:14:35.022Z</time>
      </trkpt>
      <trkpt lat="42.94226" lon="0.28429">
        <ele>1094</ele>
        <time>2017-02-09T12:14:36.022Z</time>
      </trkpt>
      <trkpt lat="42.94226" lon="0.2843">
        <ele>1094</ele>
        <time>2017-02-09T12:14:37.022Z</time>
      </trkpt>
      <trkpt lat="42.94226" lon="0.28431">
        <ele>1094</ele>
        <time>2017-02-09T12:14:38.022Z</time>
      </trkpt>
      <trkpt lat="42.94226" lon="0.28432">
        <ele>1094</ele>
        <time>2017-02-09T12:14:39.022Z</time>
      </trkpt>
      <trkpt lat="42.94227" lon="0.28432">
        <ele>1094</ele>
        <time>2017-02-09T12:14:40.022Z</time>
      </trkpt>
      <trkpt lat="42.94227" lon="0.28433">
        <ele>1094</ele>
        <time>2017-02-09T12:14:41.022Z</time>
      </trkpt>
      <trkpt lat="42.94228" lon="0.28434">
        <ele>1094</ele>
        <time>2017-02-09T12:14:42.022Z</time>
      </trkpt>
      <trkpt lat="42.94228" lon="0.28435">
        <ele>1094</ele>
        <time>2017-02-09T12:14:43.022Z</time>
      </trkpt>
      <trkpt lat="42.94229" lon="0.28436">
        <ele>1094</ele>
        <time>2017-02-09T12:14:44.022Z</time>
      </trkpt>
      <trkpt lat="42.94229" lon="0.28437">
        <ele>1094</ele>
        <time>2017-02-09T12:14:45.022Z</time>
      </trkpt>
      <trkpt lat="42.9423" lon="0.28438">
        <ele>1094</ele>
        <time>2017-02-09T12:14:46.022Z</time>
      </trkpt>
      <trkpt lat="42.9423" lon="0.28439">
        <ele>1094</ele>
        <time>2017-02-09T12:14:47.022Z</time>
      </trkpt>
      <trkpt lat="42.94231" lon="0.2844">
        <ele>1093</ele>
        <time>2017-02-09T12:14:48.022Z</time>
      </trkpt>
      <trkpt lat="42.94231" lon="0.28441">
        <ele>1094</ele>
        <time>2017-02-09T12:14:49.022Z</time>
      </trkpt>
      <trkpt lat="42.94232" lon="0.28442">
        <ele>1094</ele>
        <time>2017-02-09T12:14:50.022Z</time>
      </trkpt>
      <trkpt lat="42.94232" lon="0.28443">
        <ele>1094</ele>
        <time>2017-02-09T12:14:51.022Z</time>
      </trkpt>
      <trkpt lat="42.94233" lon="0.28444">
        <ele>1094</ele>
        <time>2017-02-09T12:14:52.022Z</time>
      </trkpt>
      <trkpt lat="42.94233" lon="0.28445">
        <ele>1094</ele>
        <time>2017-02-09T12:14:53.022Z</time>
      </trkpt>
      <trkpt lat="42.94234" lon="0.28445">
        <ele>1093</ele>
        <time>2017-02-09T12:14:54.022Z</time>
      </trkpt>
      <trkpt lat="42.94235" lon="0.28446">
        <ele>1093</ele>
        <time>2017-02-09T12:14:55.022Z</time>
      </trkpt>
      <trkpt lat="42.94235" lon="0.28447">
        <ele>1093</ele>
        <time>2017-02-09T12:14:56.022Z</time>
      </trkpt>
      <trkpt lat="42.94236" lon="0.28448">
        <ele>1093</ele>
        <time>2017-02-09T12:14:57.022Z</time>
      </trkpt>
      <trkpt lat="42.94236" lon="0.28448">
        <ele>1093</ele>
        <time>2017-02-09T12:14:58.022Z</time>
      </trkpt>
      <trkpt lat="42.94237" lon="0.28449">
        <ele>1093</ele>
        <time>2017-02-09T12:14:59.022Z</time>
      </trkpt>
      <trkpt lat="42.94238" lon="0.2845">
        <ele>1093</ele>
        <time>2017-02-09T12:15:00.022Z</time>
      </trkpt>
      <trkpt lat="42.94238" lon="0.28451">
        <ele>1093</ele>
        <time>2017-02-09T12:15:01.022Z</time>
      </trkpt>
      <trkpt lat="42.94239" lon="0.28451">
        <ele>1093</ele>
        <time>2017-02-09T12:15:02.022Z</time>
      </trkpt>
      <trkpt lat="42.94239" lon="0.28452">
        <ele>1094</ele>
        <time>2017-02-09T12:15:03.022Z</time>
      </trkpt>
      <trkpt lat="42.94239" lon="0.28453">
        <ele>1094</ele>
        <time>2017-02-09T12:15:04.022Z</time>
      </trkpt>
      <trkpt lat="42.9424" lon="0.28454">
        <ele>1094</ele>
        <time>2017-02-09T12:15:05.022Z</time>
      </trkpt>
      <trkpt lat="42.9424" lon="0.28455">
        <ele>1093</ele>
        <time>2017-02-09T12:15:06.022Z</time>
      </trkpt>
      <trkpt lat="42.94241" lon="0.28456">
        <ele>1093</ele>
        <time>2017-02-09T12:15:07.022Z</time>
      </trkpt>
      <trkpt lat="42.94241" lon="0.28457">
        <ele>1093</ele>
        <time>2017-02-09T12:15:08.022Z</time>
      </trkpt>
      <trkpt lat="42.94241" lon="0.28458">
        <ele>1093</ele>
        <time>2017-02-09T12:15:09.022Z</time>
      </trkpt>
      <trkpt lat="42.94242" lon="0.28459">
        <ele>1094</ele>
        <time>2017-02-09T12:15:10.022Z</time>
      </trkpt>
      <trkpt lat="42.94242" lon="0.2846">
        <ele>1094</ele>
        <time>2017-02-09T12:15:11.022Z</time>
      </trkpt>
      <trkpt lat="42.94243" lon="0.28461">
        <ele>1094</ele>
        <time>2017-02-09T12:15:12.022Z</time>
      </trkpt>
      <trkpt lat="42.94244" lon="0.28461">
        <ele>1094</ele>
        <time>2017-02-09T12:15:13.022Z</time>
      </trkpt>
      <trkpt lat="42.94244" lon="0.28462">
        <ele>1093</ele>
        <time>2017-02-09T12:15:14.022Z</time>
      </trkpt>
      <trkpt lat="42.94245" lon="0.28462">
        <ele>1094</ele>
        <time>2017-02-09T12:15:15.022Z</time>
      </trkpt>
      <trkpt lat="42.94246" lon="0.28463">
        <ele>1093</ele>
        <time>2017-02-09T12:15:16.022Z</time>
      </trkpt>
      <trkpt lat="42.94246" lon="0.28463">
        <ele>1093</ele>
        <time>2017-02-09T12:15:17.022Z</time>
      </trkpt>
      <trkpt lat="42.94247" lon="0.28464">
        <ele>1093</ele>
        <time>2017-02-09T12:15:18.022Z</time>
      </trkpt>
      <trkpt lat="42.94248" lon="0.28464">
        <ele>1094</ele>
        <time>2017-02-09T12:15:19.022Z</time>
      </trkpt>
      <trkpt lat="42.94248" lon="0.28464">
        <ele>1094</ele>
        <time>2017-02-09T12:15:20.022Z</time>
      </trkpt>
      <trkpt lat="42.94249" lon="0.28464">
        <ele>1094</ele>
        <time>2017-02-09T12:15:21.022Z</time>
      </trkpt>
      <trkpt lat="42.9425" lon="0.28464">
        <ele>1094</ele>
        <time>2017-02-09T12:15:22.022Z</time>
      </trkpt>
      <trkpt lat="42.9425" lon="0.28464">
        <ele>1094</ele>
        <time>2017-02-09T12:15:23.022Z</time>
      </trkpt>
      <trkpt lat="42.94251" lon="0.28464">
        <ele>1094</ele>
        <time>2017-02-09T12:15:24.022Z</time>
      </trkpt>
      <trkpt lat="42.94252" lon="0.28463">
        <ele>1094</ele>
        <time>2017-02-09T12:15:25.022Z</time>
      </trkpt>
      <trkpt lat="42.94252" lon="0.28463">
        <ele>1094</ele>
        <time>2017-02-09T12:15:26.022Z</time>
      </trkpt>
      <trkpt lat="42.94253" lon="0.28462">
        <ele>1095</ele>
        <time>2017-02-09T12:15:27.022Z</time>
      </trkpt>
      <trkpt lat="42.94254" lon="0.28461">
        <ele>1094</ele>
        <time>2017-02-09T12:15:28.022Z</time>
      </trkpt>
      <trkpt lat="42.94255" lon="0.28461">
        <ele>1094</ele>
        <time>2017-02-09T12:15:29.022Z</time>
      </trkpt>
      <trkpt lat="42.94255" lon="0.2846">
        <ele>1094</ele>
        <time>2017-02-09T12:15:30.022Z</time>
      </trkpt>
      <trkpt lat="42.94256" lon="0.28459">
        <ele>1094</ele>
        <time>2017-02-09T12:15:31.022Z</time>
      </trkpt>
      <trkpt lat="42.94257" lon="0.28459">
        <ele>1094</ele>
        <time>2017-02-09T12:15:32.022Z</time>
      </trkpt>
      <trkpt lat="42.94258" lon="0.28458">
        <ele>1094</ele>
        <time>2017-02-09T12:15:33.022Z</time>
      </trkpt>
      <trkpt lat="42.94258" lon="0.28457">
        <ele>1094</ele>
        <time>2017-02-09T12:15:34.022Z</time>
      </trkpt>
      <trkpt lat="42.94259" lon="0.28456">
        <ele>1094</ele>
        <time>2017-02-09T12:15:35.022Z</time>
      </trkpt>
      <trkpt lat="42.9426" lon="0.28455">
        <ele>1093</ele>
        <time>2017-02-09T12:15:36.022Z</time>
      </trkpt>
      <trkpt lat="42.94261" lon="0.28455">
        <ele>1093</ele>
        <time>2017-02-09T12:15:37.022Z</time>
      </trkpt>
      <trkpt lat="42.94262" lon="0.28454">
        <ele>1093</ele>
        <time>2017-02-09T12:15:38.022Z</time>
      </trkpt>
      <trkpt lat="42.94263" lon="0.28453">
        <ele>1093</ele>
        <time>2017-02-09T12:15:39.022Z</time>
      </trkpt>
      <trkpt lat="42.94263" lon="0.28452">
        <ele>1093</ele>
        <time>2017-02-09T12:15:40.022Z</time>
      </trkpt>
      <trkpt lat="42.94264" lon="0.28452">
        <ele>1093</ele>
        <time>2017-02-09T12:15:41.022Z</time>
      </trkpt>
      <trkpt lat="42.94265" lon="0.28451">
        <ele>1093</ele>
        <time>2017-02-09T12:15:42.022Z</time>
      </trkpt>
      <trkpt lat="42.94266" lon="0.2845">
        <ele>1093</ele>
        <time>2017-02-09T12:15:43.022Z</time>
      </trkpt>
      <trkpt lat="42.94267" lon="0.2845">
        <ele>1093</ele>
        <time>2017-02-09T12:15:44.022Z</time>
      </trkpt>
      <trkpt lat="42.94268" lon="0.28449">
        <ele>1093</ele>
        <time>2017-02-09T12:15:45.022Z</time>
      </trkpt>
      <trkpt lat="42.94269" lon="0.28449">
        <ele>1092</ele>
        <time>2017-02-09T12:15:46.022Z</time>
      </trkpt>
      <trkpt lat="42.9427" lon="0.28448">
        <ele>1092</ele>
        <time>2017-02-09T12:15:47.022Z</time>
      </trkpt>
      <trkpt lat="42.94271" lon="0.28448">
        <ele>1093</ele>
        <time>2017-02-09T12:15:48.022Z</time>
      </trkpt>
      <trkpt lat="42.94271" lon="0.28447">
        <ele>1092</ele>
        <time>2017-02-09T12:15:49.022Z</time>
      </trkpt>
      <trkpt lat="42.94272" lon="0.28446">
        <ele>1092</ele>
        <time>2017-02-09T12:15:50.022Z</time>
      </trkpt>
      <trkpt lat="42.94273" lon="0.28445">
        <ele>1092</ele>
        <time>2017-02-09T12:15:51.022Z</time>
      </trkpt>
      <trkpt lat="42.94274" lon="0.28445">
        <ele>1093</ele>
        <time>2017-02-09T12:15:52.022Z</time>
      </trkpt>
      <trkpt lat="42.94275" lon="0.28445">
        <ele>1093</ele>
        <time>2017-02-09T12:15:53.022Z</time>
      </trkpt>
      <trkpt lat="42.94276" lon="0.28446">
        <ele>1093</ele>
        <time>2017-02-09T12:15:54.022Z</time>
      </trkpt>
      <trkpt lat="42.94277" lon="0.28446">
        <ele>1093</ele>
        <time>2017-02-09T12:15:55.022Z</time>
      </trkpt>
      <trkpt lat="42.94277" lon="0.28447">
        <ele>1093</ele>
        <time>2017-02-09T12:15:56.022Z</time>
      </trkpt>
      <trkpt lat="42.94278" lon="0.28448">
        <ele>1094</ele>
        <time>2017-02-09T12:15:57.022Z</time>
      </trkpt>
      <trkpt lat="42.94278" lon="0.28449">
        <ele>1094</ele>
        <time>2017-02-09T12:15:58.022Z</time>
      </trkpt>
      <trkpt lat="42.94279" lon="0.2845">
        <ele>1094</ele>
        <time>2017-02-09T12:15:59.022Z</time>
      </trkpt>
      <trkpt lat="42.94279" lon="0.28451">
        <ele>1094</ele>
        <time>2017-02-09T12:16:00.022Z</time>
      </trkpt>
      <trkpt lat="42.94279" lon="0.28453">
        <ele>1094</ele>
        <time>2017-02-09T12:16:01.022Z</time>
      </trkpt>
      <trkpt lat="42.94279" lon="0.28454">
        <ele>1094</ele>
        <time>2017-02-09T12:16:02.022Z</time>
      </trkpt>
      <trkpt lat="42.94279" lon="0.28455">
        <ele>1094</ele>
        <time>2017-02-09T12:16:03.022Z</time>
      </trkpt>
      <trkpt lat="42.94279" lon="0.28456">
        <ele>1094</ele>
        <time>2017-02-09T12:16:04.022Z</time>
      </trkpt>
      <trkpt lat="42.94279" lon="0.28457">
        <ele>1095</ele>
        <time>2017-02-09T12:16:05.022Z</time>
      </trkpt>
      <trkpt lat="42.94279" lon="0.28458">
        <ele>1095</ele>
        <time>2017-02-09T12:16:06.022Z</time>
      </trkpt>
      <trkpt lat="42.94279" lon="0.2846">
        <ele>1094</ele>
        <time>2017-02-09T12:16:07.022Z</time>
      </trkpt>
      <trkpt lat="42.94279" lon="0.28461">
        <ele>1094</ele>
        <time>2017-02-09T12:16:08.022Z</time>
      </trkpt>
      <trkpt lat="42.9428" lon="0.28462">
        <ele>1094</ele>
        <time>2017-02-09T12:16:09.022Z</time>
      </trkpt>
      <trkpt lat="42.9428" lon="0.28463">
        <ele>1094</ele>
        <time>2017-02-09T12:16:10.022Z</time>
      </trkpt>
      <trkpt lat="42.9428" lon="0.28464">
        <ele>1094</ele>
        <time>2017-02-09T12:16:11.022Z</time>
      </trkpt>
      <trkpt lat="42.9428" lon="0.28466">
        <ele>1094</ele>
        <time>2017-02-09T12:16:12.022Z</time>
      </trkpt>
      <trkpt lat="42.9428" lon="0.28467">
        <ele>1094</ele>
        <time>2017-02-09T12:16:13.022Z</time>
      </trkpt>
      <trkpt lat="42.9428" lon="0.28468">
        <ele>1094</ele>
        <time>2017-02-09T12:16:14.022Z</time>
      </trkpt>
      <trkpt lat="42.9428" lon="0.28469">
        <ele>1094</ele>
        <time>2017-02-09T12:16:15.022Z</time>
      </trkpt>
      <trkpt lat="42.9428" lon="0.28471">
        <ele>1094</ele>
        <time>2017-02-09T12:16:16.022Z</time>
      </trkpt>
      <trkpt lat="42.9428" lon="0.28472">
        <ele>1094</ele>
        <time>2017-02-09T12:16:17.022Z</time>
      </trkpt>
      <trkpt lat="42.9428" lon="0.28473">
        <ele>1094</ele>
        <time>2017-02-09T12:16:18.022Z</time>
      </trkpt>
      <trkpt lat="42.9428" lon="0.28474">
        <ele>1094</ele>
        <time>2017-02-09T12:16:19.022Z</time>
      </trkpt>
      <trkpt lat="42.94281" lon="0.28475">
        <ele>1094</ele>
        <time>2017-02-09T12:16:20.022Z</time>
      </trkpt>
      <trkpt lat="42.94281" lon="0.28477">
        <ele>1094</ele>
        <time>2017-02-09T12:16:21.022Z</time>
      </trkpt>
      <trkpt lat="42.94281" lon="0.28478">
        <ele>1094</ele>
        <time>2017-02-09T12:16:22.022Z</time>
      </trkpt>
      <trkpt lat="42.94281" lon="0.28479">
        <ele>1094</ele>
        <time>2017-02-09T12:16:23.022Z</time>
      </trkpt>
      <trkpt lat="42.94281" lon="0.28481">
        <ele>1095</ele>
        <time>2017-02-09T12:16:24.022Z</time>
      </trkpt>
      <trkpt lat="42.94281" lon="0.28482">
        <ele>1095</ele>
        <time>2017-02-09T12:16:25.022Z</time>
      </trkpt>
      <trkpt lat="42.94281" lon="0.28483">
        <ele>1095</ele>
        <time>2017-02-09T12:16:26.022Z</time>
      </trkpt>
      <trkpt lat="42.94281" lon="0.28484">
        <ele>1095</ele>
        <time>2017-02-09T12:16:27.022Z</time>
      </trkpt>
      <trkpt lat="42.94281" lon="0.28486">
        <ele>1095</ele>
        <time>2017-02-09T12:16:28.022Z</time>
      </trkpt>
      <trkpt lat="42.94281" lon="0.28487">
        <ele>1095</ele>
        <time>2017-02-09T12:16:29.022Z</time>
      </trkpt>
      <trkpt lat="42.94282" lon="0.28488">
        <ele>1095</ele>
        <time>2017-02-09T12:16:30.022Z</time>
      </trkpt>
      <trkpt lat="42.94282" lon="0.2849">
        <ele>1095</ele>
        <time>2017-02-09T12:16:31.022Z</time>
      </trkpt>
      <trkpt lat="42.94282" lon="0.28491">
        <ele>1095</ele>
        <time>2017-02-09T12:16:32.022Z</time>
      </trkpt>
      <trkpt lat="42.94281" lon="0.28492">
        <ele>1095</ele>
        <time>2017-02-09T12:16:33.022Z</time>
      </trkpt>
      <trkpt lat="42.94281" lon="0.28494">
        <ele>1095</ele>
        <time>2017-02-09T12:16:34.022Z</time>
      </trkpt>
      <trkpt lat="42.94281" lon="0.28495">
        <ele>1095</ele>
        <time>2017-02-09T12:16:35.022Z</time>
      </trkpt>
      <trkpt lat="42.94282" lon="0.28496">
        <ele>1094</ele>
        <time>2017-02-09T12:16:36.022Z</time>
      </trkpt>
      <trkpt lat="42.94282" lon="0.28497">
        <ele>1094</ele>
        <time>2017-02-09T12:16:37.022Z</time>
      </trkpt>
      <trkpt lat="42.94282" lon="0.28499">
        <ele>1094</ele>
        <time>2017-02-09T12:16:38.022Z</time>
      </trkpt>
      <trkpt lat="42.94282" lon="0.285">
        <ele>1093</ele>
        <time>2017-02-09T12:16:39.022Z</time>
      </trkpt>
      <trkpt lat="42.94282" lon="0.28501">
        <ele>1093</ele>
        <time>2017-02-09T12:16:40.022Z</time>
      </trkpt>
      <trkpt lat="42.94282" lon="0.28502">
        <ele>1093</ele>
        <time>2017-02-09T12:16:41.022Z</time>
      </trkpt>
      <trkpt lat="42.94282" lon="0.28504">
        <ele>1093</ele>
        <time>2017-02-09T12:16:42.022Z</time>
      </trkpt>
      <trkpt lat="42.94282" lon="0.28505">
        <ele>1093</ele>
        <time>2017-02-09T12:16:43.022Z</time>
      </trkpt>
      <trkpt lat="42.94283" lon="0.28506">
        <ele>1094</ele>
        <time>2017-02-09T12:16:44.022Z</time>
      </trkpt>
      <trkpt lat="42.94283" lon="0.28507">
        <ele>1094</ele>
        <time>2017-02-09T12:16:45.022Z</time>
      </trkpt>
      <trkpt lat="42.94283" lon="0.28509">
        <ele>1094</ele>
        <time>2017-02-09T12:16:46.022Z</time>
      </trkpt>
      <trkpt lat="42.94283" lon="0.2851">
        <ele>1094</ele>
        <time>2017-02-09T12:16:47.022Z</time>
      </trkpt>
      <trkpt lat="42.94283" lon="0.28511">
        <ele>1094</ele>
        <time>2017-02-09T12:16:48.022Z</time>
      </trkpt>
      <trkpt lat="42.94283" lon="0.28512">
        <ele>1094</ele>
        <time>2017-02-09T12:16:49.022Z</time>
      </trkpt>
      <trkpt lat="42.94283" lon="0.28513">
        <ele>1094</ele>
        <time>2017-02-09T12:16:50.022Z</time>
      </trkpt>
      <trkpt lat="42.94283" lon="0.28514">
        <ele>1095</ele>
        <time>2017-02-09T12:16:51.022Z</time>
      </trkpt>
      <trkpt lat="42.94283" lon="0.28515">
        <ele>1095</ele>
        <time>2017-02-09T12:16:52.022Z</time>
      </trkpt>
      <trkpt lat="42.94283" lon="0.28517">
        <ele>1095</ele>
        <time>2017-02-09T12:16:53.022Z</time>
      </trkpt>
      <trkpt lat="42.94283" lon="0.28518">
        <ele>1095</ele>
        <time>2017-02-09T12:16:54.022Z</time>
      </trkpt>
      <trkpt lat="42.94283" lon="0.28519">
        <ele>1095</ele>
        <time>2017-02-09T12:16:55.022Z</time>
      </trkpt>
      <trkpt lat="42.94283" lon="0.2852">
        <ele>1094</ele>
        <time>2017-02-09T12:16:56.022Z</time>
      </trkpt>
      <trkpt lat="42.94283" lon="0.28522">
        <ele>1094</ele>
        <time>2017-02-09T12:16:57.022Z</time>
      </trkpt>
      <trkpt lat="42.94283" lon="0.28523">
        <ele>1094</ele>
        <time>2017-02-09T12:16:58.022Z</time>
      </trkpt>
      <trkpt lat="42.94282" lon="0.28523">
        <ele>1094</ele>
        <time>2017-02-09T12:16:59.022Z</time>
      </trkpt>
      <trkpt lat="42.94282" lon="0.28524">
        <ele>1093</ele>
        <time>2017-02-09T12:17:00.022Z</time>
      </trkpt>
      <trkpt lat="42.94281" lon="0.28525">
        <ele>1093</ele>
        <time>2017-02-09T12:17:01.022Z</time>
      </trkpt>
      <trkpt lat="42.94281" lon="0.28525">
        <ele>1094</ele>
        <time>2017-02-09T12:17:02.022Z</time>
      </trkpt>
      <trkpt lat="42.94281" lon="0.28526">
        <ele>1093</ele>
        <time>2017-02-09T12:17:03.022Z</time>
      </trkpt>
      <trkpt lat="42.9428" lon="0.28526">
        <ele>1094</ele>
        <time>2017-02-09T12:17:04.022Z</time>
      </trkpt>
      <trkpt lat="42.94281" lon="0.28526">
        <ele>1094</ele>
        <time>2017-02-09T12:17:05.022Z</time>
      </trkpt>
      <trkpt lat="42.94281" lon="0.28526">
        <ele>1094</ele>
        <time>2017-02-09T12:17:06.022Z</time>
      </trkpt>
      <trkpt lat="42.94281" lon="0.28526">
        <ele>1095</ele>
        <time>2017-02-09T12:17:07.022Z</time>
      </trkpt>
      <trkpt lat="42.94281" lon="0.28527">
        <ele>1095</ele>
        <time>2017-02-09T12:17:08.022Z</time>
      </trkpt>
      <trkpt lat="42.94281" lon="0.28527">
        <ele>1095</ele>
        <time>2017-02-09T12:17:09.022Z</time>
      </trkpt>
      <trkpt lat="42.94281" lon="0.28527">
        <ele>1095</ele>
        <time>2017-02-09T12:17:10.022Z</time>
      </trkpt>
    </trkseg>
  </trk>
</gpx>